<?xml version='1.0' encoding='UTF-8'?><gpx version="1.1" creator="JPX - https://github.com/jenetics/jpx" xmlns="http://www.topografix.com/GPX/1/1"><trk><trkseg><trkpt lat="45.31154792063015" lon="8.439241866655495"><ele>127.00000000000001</ele><time>2026-04-11T08:27:25.001Z</time></trkpt><trkpt lat="45.31149876608131" lon="8.439306957858525"><ele>127.0</ele><time>2026-04-11T08:27:27.001Z</time></trkpt><trkpt lat="45.31157169413048" lon="8.439329739460769"><ele>127.0</ele><time>2026-04-11T08:27:31.001Z</time></trkpt><trkpt lat="45.311539344199666" lon="8.439224767940944"><ele>127.0</ele><time>2026-04-11T08:29:52.001Z</time></trkpt><trkpt lat="45.31159870391003" lon="8.439097775142395"><ele>127.00000000000001</ele><time>2026-04-11T08:29:55.001Z</time></trkpt><trkpt lat="45.31166720712622" lon="8.43898151521205"><ele>127.0</ele><time>2026-04-11T08:29:57.001Z</time></trkpt><trkpt lat="45.31173193670147" lon="8.43889253030618"><ele>127.0</ele><time>2026-04-11T08:29:59.001Z</time></trkpt><trkpt lat="45.31177763355398" lon="8.438813111451953"><ele>127.0</ele><time>2026-04-11T08:30:01.001Z</time></trkpt><trkpt lat="45.31170954725069" lon="8.438701924514184"><ele>127.0</ele><time>2026-04-11T08:30:13.001Z</time></trkpt><trkpt lat="45.311695320534845" lon="8.439018273950275"><ele>127.0</ele><time>2026-04-11T08:30:14.001Z</time></trkpt><trkpt lat="45.31164554530617" lon="8.439115982751513"><ele>127.0</ele><time>2026-04-11T08:30:15.001Z</time></trkpt><trkpt lat="45.311587347140446" lon="8.439198932642913"><ele>126.99999999999999</ele><time>2026-04-11T08:30:16.001Z</time></trkpt><trkpt lat="45.31151604714734" lon="8.439300556655862"><ele>126.99999999999999</ele><time>2026-04-11T08:30:17.001Z</time></trkpt><trkpt lat="45.3114451123852" lon="8.439401660021732"><ele>127.0</ele><time>2026-04-11T08:30:18.001Z</time></trkpt><trkpt lat="45.31136706536052" lon="8.439512899448413"><ele>127.0</ele><time>2026-04-11T08:30:19.002Z</time></trkpt><trkpt lat="45.31129284445111" lon="8.439618685027524"><ele>125.66666666666667</ele><time>2026-04-11T08:30:20.002Z</time></trkpt><trkpt lat="45.311220480829164" lon="8.439721823483083"><ele>124.33333333333334</ele><time>2026-04-11T08:30:21.002Z</time></trkpt><trkpt lat="45.31114494265117" lon="8.439829486615288"><ele>123.0</ele><time>2026-04-11T08:30:22.002Z</time></trkpt><trkpt lat="45.31090811587251" lon="8.439708657738509"><ele>123.0</ele><time>2026-04-11T08:30:23.002Z</time></trkpt><trkpt lat="45.31083046844309" lon="8.439807313688805"><ele>123.00000000000001</ele><time>2026-04-11T08:30:24.002Z</time></trkpt><trkpt lat="45.31074692335618" lon="8.439915149594857"><ele>123.00000000000001</ele><time>2026-04-11T08:30:25.002Z</time></trkpt><trkpt lat="45.31066898546764" lon="8.440010567394747"><ele>123.0</ele><time>2026-04-11T08:30:26.002Z</time></trkpt><trkpt lat="45.3105954302152" lon="8.4401012724034"><ele>123.0</ele><time>2026-04-11T08:30:27.002Z</time></trkpt><trkpt lat="45.31051547546568" lon="8.440201872350809"><ele>123.5</ele><time>2026-04-11T08:30:28.002Z</time></trkpt><trkpt lat="45.31043051069273" lon="8.440300145089783"><ele>124.0</ele><time>2026-04-11T08:30:29.002Z</time></trkpt><trkpt lat="45.310337523747684" lon="8.44040367220258"><ele>124.5</ele><time>2026-04-11T08:30:30.002Z</time></trkpt><trkpt lat="45.310246375371534" lon="8.440489769229265"><ele>125.0</ele><time>2026-04-11T08:30:31.002Z</time></trkpt><trkpt lat="45.31014738129455" lon="8.440586141164214"><ele>125.0</ele><time>2026-04-11T08:30:32.002Z</time></trkpt><trkpt lat="45.31004467181734" lon="8.440682440015728"><ele>125.0</ele><time>2026-04-11T08:30:33.002Z</time></trkpt><trkpt lat="45.309933890296236" lon="8.44077245957823"><ele>125.0</ele><time>2026-04-11T08:30:34.002Z</time></trkpt><trkpt lat="45.309829180026014" lon="8.440868821060242"><ele>125.0</ele><time>2026-04-11T08:30:35.002Z</time></trkpt><trkpt lat="45.309721347230855" lon="8.440961334449069"><ele>125.25</ele><time>2026-04-11T08:30:36.002Z</time></trkpt><trkpt lat="45.309616631803394" lon="8.44105751657354"><ele>125.5</ele><time>2026-04-11T08:30:37.002Z</time></trkpt><trkpt lat="45.30950779915352" lon="8.44115309186602"><ele>125.75</ele><time>2026-04-11T08:30:38.002Z</time></trkpt><trkpt lat="45.30939309050194" lon="8.441246225086752"><ele>126.0</ele><time>2026-04-11T08:30:39.002Z</time></trkpt><trkpt lat="45.309280760327" lon="8.441345872194937"><ele>125.25</ele><time>2026-04-11T08:30:40.002Z</time></trkpt><trkpt lat="45.30916922967398" lon="8.441440468850153"><ele>124.5</ele><time>2026-04-11T08:30:41.002Z</time></trkpt><trkpt lat="45.30906143692589" lon="8.441535218456723"><ele>123.75</ele><time>2026-04-11T08:30:42.002Z</time></trkpt><trkpt lat="45.308962088609924" lon="8.441621992369793"><ele>123.0</ele><time>2026-04-11T08:30:43.002Z</time></trkpt><trkpt lat="45.308873253557934" lon="8.441699616673446"><ele>123.0</ele><time>2026-04-11T08:30:44.002Z</time></trkpt><trkpt lat="45.30878268921214" lon="8.441776005908633"><ele>123.00000000000001</ele><time>2026-04-11T08:30:45.002Z</time></trkpt><trkpt lat="45.30869298416446" lon="8.441853085128793"><ele>123.00000000000001</ele><time>2026-04-11T08:30:46.002Z</time></trkpt><trkpt lat="45.308600090534554" lon="8.44193189139924"><ele>123.0</ele><time>2026-04-11T08:30:47.002Z</time></trkpt><trkpt lat="45.30850670014486" lon="8.44201223316128"><ele>123.0</ele><time>2026-04-11T08:30:48.002Z</time></trkpt><trkpt lat="45.30841299023514" lon="8.442097024311288"><ele>123.4</ele><time>2026-04-11T08:30:49.002Z</time></trkpt><trkpt lat="45.308320763477305" lon="8.442175528384478"><ele>123.80000000000001</ele><time>2026-04-11T08:30:50.002Z</time></trkpt><trkpt lat="45.308226965081495" lon="8.442257361206202"><ele>124.2</ele><time>2026-04-11T08:30:51.002Z</time></trkpt><trkpt lat="45.308129223872626" lon="8.442341886592848"><ele>124.6</ele><time>2026-04-11T08:30:52.002Z</time></trkpt><trkpt lat="45.308029534130355" lon="8.442426651310342"><ele>125.0</ele><time>2026-04-11T08:30:53.002Z</time></trkpt><trkpt lat="45.30793291685552" lon="8.442513147285469"><ele>125.25</ele><time>2026-04-11T08:30:54.001Z</time></trkpt><trkpt lat="45.307827503352854" lon="8.442616311412815"><ele>125.5</ele><time>2026-04-11T08:30:55.001Z</time></trkpt><trkpt lat="45.307723413238726" lon="8.442697148243075"><ele>125.75</ele><time>2026-04-11T08:30:56.001Z</time></trkpt><trkpt lat="45.307612967684264" lon="8.442784946330411"><ele>126.0</ele><time>2026-04-11T08:30:57.001Z</time></trkpt><trkpt lat="45.307498404835876" lon="8.442877344627624"><ele>126.25</ele><time>2026-04-11T08:30:58Z</time></trkpt><trkpt lat="45.30738806257595" lon="8.442974217938787"><ele>126.5</ele><time>2026-04-11T08:30:59Z</time></trkpt><trkpt lat="45.30728659105862" lon="8.443065987625596"><ele>126.75</ele><time>2026-04-11T08:31:00Z</time></trkpt><trkpt lat="45.307178785483586" lon="8.443162132456015"><ele>127.0</ele><time>2026-04-11T08:31:01Z</time></trkpt><trkpt lat="45.30706665277445" lon="8.443259313801681"><ele>126.5</ele><time>2026-04-11T08:31:02Z</time></trkpt><trkpt lat="45.30695619540383" lon="8.443354646781293"><ele>126.0</ele><time>2026-04-11T08:31:03Z</time></trkpt><trkpt lat="45.306841100640085" lon="8.443446670949376"><ele>125.5</ele><time>2026-04-11T08:31:04Z</time></trkpt><trkpt lat="45.306729605430306" lon="8.443538396517466"><ele>125.0</ele><time>2026-04-11T08:31:05Z</time></trkpt><trkpt lat="45.30661732782789" lon="8.443636557192178"><ele>125.0</ele><time>2026-04-11T08:31:06Z</time></trkpt><trkpt lat="45.30650792924491" lon="8.443731405977585"><ele>125.0</ele><time>2026-04-11T08:31:07Z</time></trkpt><trkpt lat="45.30640234996581" lon="8.443823105450017"><ele>125.0</ele><time>2026-04-11T08:31:08Z</time></trkpt><trkpt lat="45.306299137150546" lon="8.443910559407925"><ele>125.0</ele><time>2026-04-11T08:31:09Z</time></trkpt><trkpt lat="45.306190565653154" lon="8.443998548947905"><ele>124.75</ele><time>2026-04-11T08:31:10Z</time></trkpt><trkpt lat="45.306089760438184" lon="8.444085847067981"><ele>124.5</ele><time>2026-04-11T08:31:11Z</time></trkpt><trkpt lat="45.305993839123815" lon="8.444170884391385"><ele>124.25</ele><time>2026-04-11T08:31:12Z</time></trkpt><trkpt lat="45.305898780495006" lon="8.444251910550621"><ele>124.0</ele><time>2026-04-11T08:31:13Z</time></trkpt><trkpt lat="45.30580404235618" lon="8.444334575931634"><ele>124.0</ele><time>2026-04-11T08:31:14Z</time></trkpt><trkpt lat="45.30570967787544" lon="8.444415729081722"><ele>124.0</ele><time>2026-04-11T08:31:15Z</time></trkpt><trkpt lat="45.30561685193253" lon="8.444489007888631"><ele>124.0</ele><time>2026-04-11T08:31:16Z</time></trkpt><trkpt lat="45.30552287353604" lon="8.444566478309762"><ele>124.0</ele><time>2026-04-11T08:31:17Z</time></trkpt><trkpt lat="45.30543397885305" lon="8.444652949147534"><ele>124.0</ele><time>2026-04-11T08:31:18Z</time></trkpt><trkpt lat="45.305340683694006" lon="8.444745175813306"><ele>124.75</ele><time>2026-04-11T08:31:19Z</time></trkpt><trkpt lat="45.30524846315574" lon="8.4448263348049"><ele>125.5</ele><time>2026-04-11T08:31:20Z</time></trkpt><trkpt lat="45.30515170699204" lon="8.444912226275802"><ele>126.25</ele><time>2026-04-11T08:31:21Z</time></trkpt><trkpt lat="45.30505269352717" lon="8.444995353295782"><ele>127.0</ele><time>2026-04-11T08:31:22Z</time></trkpt><trkpt lat="45.30495121536458" lon="8.445080993766386"><ele>127.0</ele><time>2026-04-11T08:31:23Z</time></trkpt><trkpt lat="45.30484923827352" lon="8.445166947321965"><ele>127.0</ele><time>2026-04-11T08:31:24Z</time></trkpt><trkpt lat="45.30474519781376" lon="8.44525623417917"><ele>127.0</ele><time>2026-04-11T08:31:25Z</time></trkpt><trkpt lat="45.30463995538343" lon="8.445346853389593"><ele>127.0</ele><time>2026-04-11T08:31:26Z</time></trkpt><trkpt lat="45.304529360674096" lon="8.445441013490367"><ele>127.0</ele><time>2026-04-11T08:31:27Z</time></trkpt><trkpt lat="45.304418958071366" lon="8.445526828717789"><ele>126.99999999999999</ele><time>2026-04-11T08:31:28Z</time></trkpt><trkpt lat="45.30432254332489" lon="8.445610557447942"><ele>126.99999999999999</ele><time>2026-04-11T08:31:29Z</time></trkpt><trkpt lat="45.304233820195506" lon="8.445686509308194"><ele>127.0</ele><time>2026-04-11T08:31:30Z</time></trkpt><trkpt lat="45.304153437564985" lon="8.445759122692161"><ele>127.0</ele><time>2026-04-11T08:31:31Z</time></trkpt><trkpt lat="45.304080216301244" lon="8.445828817628898"><ele>127.00000000000001</ele><time>2026-04-11T08:31:32Z</time></trkpt><trkpt lat="45.304009993697015" lon="8.445892084399599"><ele>127.0</ele><time>2026-04-11T08:31:33Z</time></trkpt><trkpt lat="45.30393917683886" lon="8.445949685969735"><ele>127.0</ele><time>2026-04-11T08:31:34Z</time></trkpt><trkpt lat="45.30387706360078" lon="8.446006990315485"><ele>127.0</ele><time>2026-04-11T08:31:35Z</time></trkpt><trkpt lat="45.30381569774447" lon="8.446058149530119"><ele>127.00000000000001</ele><time>2026-04-11T08:31:36Z</time></trkpt><trkpt lat="45.303754185111885" lon="8.446112637786202"><ele>127.0</ele><time>2026-04-11T08:31:37Z</time></trkpt><trkpt lat="45.30368367158547" lon="8.446176354748797"><ele>127.00000000000001</ele><time>2026-04-11T08:31:38Z</time></trkpt><trkpt lat="45.3036161990436" lon="8.446236025936951"><ele>127.0</ele><time>2026-04-11T08:31:39Z</time></trkpt><trkpt lat="45.303541630679526" lon="8.446300237722664"><ele>127.0</ele><time>2026-04-11T08:31:40Z</time></trkpt><trkpt lat="45.30347244707299" lon="8.446359514814073"><ele>127.0</ele><time>2026-04-11T08:31:41Z</time></trkpt><trkpt lat="45.303393372545905" lon="8.44642575213324"><ele>127.00000000000001</ele><time>2026-04-11T08:31:42Z</time></trkpt><trkpt lat="45.303309672940074" lon="8.446494100770403"><ele>127.0</ele><time>2026-04-11T08:31:43Z</time></trkpt><trkpt lat="45.30320064372291" lon="8.446571640480805"><ele>126.0</ele><time>2026-04-11T08:31:44Z</time></trkpt><trkpt lat="45.303076721569234" lon="8.446666361361533"><ele>125.0</ele><time>2026-04-11T08:31:45.001Z</time></trkpt><trkpt lat="45.30294169669038" lon="8.44676416005166"><ele>124.0</ele><time>2026-04-11T08:31:46Z</time></trkpt><trkpt lat="45.3027974078062" lon="8.446858965813163"><ele>124.0</ele><time>2026-04-11T08:31:47Z</time></trkpt><trkpt lat="45.30264944960351" lon="8.446956521215553"><ele>124.0</ele><time>2026-04-11T08:31:48Z</time></trkpt><trkpt lat="45.30251473285168" lon="8.447043903066264"><ele>124.0</ele><time>2026-04-11T08:31:49Z</time></trkpt><trkpt lat="45.302384601426866" lon="8.447130367347317"><ele>124.25</ele><time>2026-04-11T08:31:50Z</time></trkpt><trkpt lat="45.30225465598031" lon="8.447209964454826"><ele>124.5</ele><time>2026-04-11T08:31:51Z</time></trkpt><trkpt lat="45.302142276519206" lon="8.447278072355301"><ele>124.75</ele><time>2026-04-11T08:31:52Z</time></trkpt><trkpt lat="45.30203467983721" lon="8.447345655615225"><ele>125.0</ele><time>2026-04-11T08:31:53Z</time></trkpt><trkpt lat="45.301934347327936" lon="8.447406236388264"><ele>124.99999999999999</ele><time>2026-04-11T08:31:54Z</time></trkpt><trkpt lat="45.30183804558928" lon="8.447464580960867"><ele>125.0</ele><time>2026-04-11T08:31:55Z</time></trkpt><trkpt lat="45.30175584755278" lon="8.447507376801262"><ele>125.0</ele><time>2026-04-11T08:31:56Z</time></trkpt><trkpt lat="45.30168418029934" lon="8.447526308788921"><ele>125.0</ele><time>2026-04-11T08:31:57.001Z</time></trkpt><trkpt lat="45.301620452127075" lon="8.44753977098906"><ele>124.99999999999999</ele><time>2026-04-11T08:31:58.001Z</time></trkpt><trkpt lat="45.301530402083344" lon="8.447625527710661"><ele>125.0</ele><time>2026-04-11T08:32:00.001Z</time></trkpt><trkpt lat="45.3015603172472" lon="8.447778661049256"><ele>125.0</ele><time>2026-04-11T08:32:02.001Z</time></trkpt><trkpt lat="45.301613260790184" lon="8.447859028484377"><ele>125.0</ele><time>2026-04-11T08:32:03.001Z</time></trkpt><trkpt lat="45.30166841575886" lon="8.447956680594157"><ele>125.0</ele><time>2026-04-11T08:32:04.001Z</time></trkpt><trkpt lat="45.301717140355876" lon="8.44807436451593"><ele>125.0</ele><time>2026-04-11T08:32:05.001Z</time></trkpt><trkpt lat="45.30175558454474" lon="8.448208873483797"><ele>125.0</ele><time>2026-04-11T08:32:06.001Z</time></trkpt><trkpt lat="45.30178827125255" lon="8.448344982980359"><ele>125.5</ele><time>2026-04-11T08:32:07.001Z</time></trkpt><trkpt lat="45.30181877627272" lon="8.44849328893026"><ele>126.0</ele><time>2026-04-11T08:32:08.001Z</time></trkpt><trkpt lat="45.30185687199116" lon="8.448652046028293"><ele>126.5</ele><time>2026-04-11T08:32:09.001Z</time></trkpt><trkpt lat="45.30189899407606" lon="8.448815182755535"><ele>127.0</ele><time>2026-04-11T08:32:10.001Z</time></trkpt><trkpt lat="45.3019365161103" lon="8.448971442956049"><ele>126.0</ele><time>2026-04-11T08:32:11.001Z</time></trkpt><trkpt lat="45.30198113276089" lon="8.449135185035173"><ele>125.0</ele><time>2026-04-11T08:32:12.001Z</time></trkpt><trkpt lat="45.30202685000196" lon="8.449295319500138"><ele>124.0</ele><time>2026-04-11T08:32:13.001Z</time></trkpt><trkpt lat="45.3020695239735" lon="8.449464127345676"><ele>123.0</ele><time>2026-04-11T08:32:14.001Z</time></trkpt><trkpt lat="45.30211476841097" lon="8.449628943789806"><ele>122.80000000000001</ele><time>2026-04-11T08:32:15.001Z</time></trkpt><trkpt lat="45.302163552663" lon="8.44978299054468"><ele>122.60000000000001</ele><time>2026-04-11T08:32:16.001Z</time></trkpt><trkpt lat="45.30219805827782" lon="8.449927751296858"><ele>122.39999999999999</ele><time>2026-04-11T08:32:17.001Z</time></trkpt><trkpt lat="45.30221693988334" lon="8.450065110716405"><ele>122.19999999999999</ele><time>2026-04-11T08:32:18.001Z</time></trkpt><trkpt lat="45.30225836193568" lon="8.450172680412825"><ele>122.0</ele><time>2026-04-11T08:32:19.001Z</time></trkpt><trkpt lat="45.30227845809256" lon="8.450274414382934"><ele>122.0</ele><time>2026-04-11T08:32:20.001Z</time></trkpt><trkpt lat="45.30230584179008" lon="8.450385372236708"><ele>121.99999999999999</ele><time>2026-04-11T08:32:21.001Z</time></trkpt><trkpt lat="45.30231304101968" lon="8.450476490926285"><ele>121.99999999999999</ele><time>2026-04-11T08:32:22.001Z</time></trkpt><trkpt lat="45.30236610443843" lon="8.450582582599564"><ele>122.0</ele><time>2026-04-11T08:32:24.001Z</time></trkpt><trkpt lat="45.30223062559482" lon="8.450718423396427"><ele>122.0</ele><time>2026-04-11T08:32:25.001Z</time></trkpt><trkpt lat="45.30217224227797" lon="8.450766801285488"><ele>121.99999999999999</ele><time>2026-04-11T08:32:26.001Z</time></trkpt><trkpt lat="45.3021163413165" lon="8.450808672239308"><ele>122.0</ele><time>2026-04-11T08:32:27.001Z</time></trkpt><trkpt lat="45.302028813945235" lon="8.450895613238346"><ele>122.0</ele><time>2026-04-11T08:32:29.001Z</time></trkpt><trkpt lat="45.30206406156621" lon="8.450998600616206"><ele>122.0</ele><time>2026-04-11T08:32:30.001Z</time></trkpt><trkpt lat="45.30210532581465" lon="8.451102548168228"><ele>121.99999999999999</ele><time>2026-04-11T08:32:31.001Z</time></trkpt><trkpt lat="45.302144887067925" lon="8.451219688208154"><ele>122.0</ele><time>2026-04-11T08:32:32.001Z</time></trkpt><trkpt lat="45.302184392777406" lon="8.451350479250745"><ele>122.19999999999999</ele><time>2026-04-11T08:32:33.001Z</time></trkpt><trkpt lat="45.30222130599474" lon="8.451492946737488"><ele>122.39999999999999</ele><time>2026-04-11T08:32:34.001Z</time></trkpt><trkpt lat="45.30224312359407" lon="8.451617752903452"><ele>122.60000000000001</ele><time>2026-04-11T08:32:35.001Z</time></trkpt><trkpt lat="45.302284519001645" lon="8.451763906380092"><ele>122.80000000000001</ele><time>2026-04-11T08:32:36.001Z</time></trkpt><trkpt lat="45.30232317466261" lon="8.451897888864822"><ele>123.0</ele><time>2026-04-11T08:32:37.001Z</time></trkpt><trkpt lat="45.302349361840555" lon="8.452021128604374"><ele>122.60000000000001</ele><time>2026-04-11T08:32:38.001Z</time></trkpt><trkpt lat="45.30236775031127" lon="8.452141174840994"><ele>122.20000000000002</ele><time>2026-04-11T08:32:39.001Z</time></trkpt><trkpt lat="45.30238805653516" lon="8.452266294728702"><ele>121.8</ele><time>2026-04-11T08:32:40.001Z</time></trkpt><trkpt lat="45.302403330509364" lon="8.452403149781318"><ele>121.4</ele><time>2026-04-11T08:32:41.001Z</time></trkpt><trkpt lat="45.30241635778619" lon="8.452555506046226"><ele>121.0</ele><time>2026-04-11T08:32:42.001Z</time></trkpt><trkpt lat="45.30243701014131" lon="8.452704470354274"><ele>121.0</ele><time>2026-04-11T08:32:43.001Z</time></trkpt><trkpt lat="45.302463969388796" lon="8.45285673923944"><ele>121.0</ele><time>2026-04-11T08:32:44.001Z</time></trkpt><trkpt lat="45.302489418395496" lon="8.452993924618477"><ele>121.0</ele><time>2026-04-11T08:32:45.001Z</time></trkpt><trkpt lat="45.30250600936576" lon="8.45311812854901"><ele>121.0</ele><time>2026-04-11T08:32:46.001Z</time></trkpt><trkpt lat="45.302527435711376" lon="8.453226789939734"><ele>121.0</ele><time>2026-04-11T08:32:47.001Z</time></trkpt><trkpt lat="45.30256685882001" lon="8.453318540594935"><ele>120.83333333333334</ele><time>2026-04-11T08:32:48.001Z</time></trkpt><trkpt lat="45.302619248973905" lon="8.45342524769944"><ele>120.66666666666667</ele><time>2026-04-11T08:32:49.001Z</time></trkpt><trkpt lat="45.30269676471554" lon="8.45349869161448"><ele>120.5</ele><time>2026-04-11T08:32:50.001Z</time></trkpt><trkpt lat="45.30275598244917" lon="8.45358929415401"><ele>120.33333333333334</ele><time>2026-04-11T08:32:51.001Z</time></trkpt><trkpt lat="45.30282295842913" lon="8.453661663433492"><ele>120.16666666666667</ele><time>2026-04-11T08:32:52.001Z</time></trkpt><trkpt lat="45.30288955519871" lon="8.453737034782908"><ele>120.0</ele><time>2026-04-11T08:32:53.001Z</time></trkpt><trkpt lat="45.30296424177842" lon="8.453832003838617"><ele>120.0</ele><time>2026-04-11T08:32:54.001Z</time></trkpt><trkpt lat="45.303038944085536" lon="8.453929097579238"><ele>120.0</ele><time>2026-04-11T08:32:55.001Z</time></trkpt><trkpt lat="45.303104607388626" lon="8.454018352617775"><ele>120.0</ele><time>2026-04-11T08:32:56.001Z</time></trkpt><trkpt lat="45.30316814544147" lon="8.454092076164867"><ele>120.0</ele><time>2026-04-11T08:32:57.001Z</time></trkpt><trkpt lat="45.30322797222128" lon="8.454165165570874"><ele>120.0</ele><time>2026-04-11T08:32:58.001Z</time></trkpt><trkpt lat="45.30330178254681" lon="8.454240550737246"><ele>120.0</ele><time>2026-04-11T08:32:59.998Z</time></trkpt><trkpt lat="45.303290715305266" lon="8.454332117625512"><ele>120.0</ele><time>2026-04-11T08:33:01.998Z</time></trkpt><trkpt lat="45.30322285776591" lon="8.454481491118775"><ele>120.0</ele><time>2026-04-11T08:33:03.998Z</time></trkpt><trkpt lat="45.30317412674112" lon="8.45459052898859"><ele>120.0</ele><time>2026-04-11T08:33:04.998Z</time></trkpt><trkpt lat="45.3031192295649" lon="8.45470185559217"><ele>120.0</ele><time>2026-04-11T08:33:05.998Z</time></trkpt><trkpt lat="45.30306601669276" lon="8.454815837833406"><ele>120.0</ele><time>2026-04-11T08:33:06.998Z</time></trkpt><trkpt lat="45.303007659420196" lon="8.454922997267605"><ele>120.25</ele><time>2026-04-11T08:33:07.998Z</time></trkpt><trkpt lat="45.30294467619948" lon="8.455042621783477"><ele>120.5</ele><time>2026-04-11T08:33:08.998Z</time></trkpt><trkpt lat="45.302873911345465" lon="8.455163711393988"><ele>120.75</ele><time>2026-04-11T08:33:09.998Z</time></trkpt><trkpt lat="45.30279808204362" lon="8.455290727511038"><ele>121.0</ele><time>2026-04-11T08:33:10.998Z</time></trkpt><trkpt lat="45.302726996093405" lon="8.455433080091487"><ele>121.0</ele><time>2026-04-11T08:33:11.998Z</time></trkpt><trkpt lat="45.30265754651481" lon="8.455567584126436"><ele>121.0</ele><time>2026-04-11T08:33:12.998Z</time></trkpt><trkpt lat="45.30258070944696" lon="8.455715463147213"><ele>121.0</ele><time>2026-04-11T08:33:13.998Z</time></trkpt><trkpt lat="45.30250088178545" lon="8.455869815502707"><ele>121.0</ele><time>2026-04-11T08:33:14.998Z</time></trkpt><trkpt lat="45.30242154404315" lon="8.456022224745826"><ele>121.0</ele><time>2026-04-11T08:33:15.998Z</time></trkpt><trkpt lat="45.30234391344862" lon="8.456182911697681"><ele>121.0</ele><time>2026-04-11T08:33:16.999Z</time></trkpt><trkpt lat="45.30226512425766" lon="8.456340381995899"><ele>121.0</ele><time>2026-04-11T08:33:17.999Z</time></trkpt><trkpt lat="45.30218716581863" lon="8.456509423640632"><ele>121.0</ele><time>2026-04-11T08:33:18.999Z</time></trkpt><trkpt lat="45.30210475247542" lon="8.45668123265909"><ele>121.0</ele><time>2026-04-11T08:33:19.999Z</time></trkpt><trkpt lat="45.302029772465225" lon="8.45685577610371"><ele>121.0</ele><time>2026-04-11T08:33:20.999Z</time></trkpt><trkpt lat="45.30194471867836" lon="8.457038304032045"><ele>121.0</ele><time>2026-04-11T08:33:21.999Z</time></trkpt><trkpt lat="45.30185812246066" lon="8.457225680291684"><ele>121.0</ele><time>2026-04-11T08:33:22.999Z</time></trkpt><trkpt lat="45.30177250850667" lon="8.4574117631498"><ele>121.0</ele><time>2026-04-11T08:33:23.999Z</time></trkpt><trkpt lat="45.30168713169175" lon="8.457590803623788"><ele>121.0</ele><time>2026-04-11T08:33:24.999Z</time></trkpt><trkpt lat="45.301599826394025" lon="8.45777526754951"><ele>121.0</ele><time>2026-04-11T08:33:25.999Z</time></trkpt><trkpt lat="45.3015102998057" lon="8.457963975054813"><ele>121.0</ele><time>2026-04-11T08:33:26.999Z</time></trkpt><trkpt lat="45.30141757989039" lon="8.458152360463703"><ele>121.0</ele><time>2026-04-11T08:33:27.999Z</time></trkpt><trkpt lat="45.301323399347446" lon="8.458347113035757"><ele>121.0</ele><time>2026-04-11T08:33:28.999Z</time></trkpt><trkpt lat="45.30122911429847" lon="8.458548530508615"><ele>121.0</ele><time>2026-04-11T08:33:29.999Z</time></trkpt><trkpt lat="45.301134119003194" lon="8.458746562286054"><ele>121.0</ele><time>2026-04-11T08:33:30.999Z</time></trkpt><trkpt lat="45.30103613091148" lon="8.458952300601787"><ele>120.33333333333334</ele><time>2026-04-11T08:33:31.999Z</time></trkpt><trkpt lat="45.300939600754134" lon="8.459161891926916"><ele>119.66666666666666</ele><time>2026-04-11T08:33:32.999Z</time></trkpt><trkpt lat="45.300839409569456" lon="8.45937485791598"><ele>119.0</ele><time>2026-04-11T08:33:33.999Z</time></trkpt><trkpt lat="45.30073690699291" lon="8.45959133001255"><ele>119.0</ele><time>2026-04-11T08:33:34.999Z</time></trkpt><trkpt lat="45.300635808588076" lon="8.45980559228321"><ele>119.0</ele><time>2026-04-11T08:33:35.999Z</time></trkpt><trkpt lat="45.3005327843104" lon="8.460026053118893"><ele>119.0</ele><time>2026-04-11T08:33:36.999Z</time></trkpt><trkpt lat="45.300428683906915" lon="8.460243940996927"><ele>118.66666666666666</ele><time>2026-04-11T08:33:37.999Z</time></trkpt><trkpt lat="45.30032214042682" lon="8.460465707391352"><ele>118.33333333333334</ele><time>2026-04-11T08:33:38.999Z</time></trkpt><trkpt lat="45.300215930612794" lon="8.46069098512478"><ele>118.0</ele><time>2026-04-11T08:33:39.999Z</time></trkpt><trkpt lat="45.30010851522" lon="8.460922111667358"><ele>118.0</ele><time>2026-04-11T08:33:40.999Z</time></trkpt><trkpt lat="45.30000303123204" lon="8.461146205123619"><ele>118.0</ele><time>2026-04-11T08:33:41.999Z</time></trkpt><trkpt lat="45.2998946598773" lon="8.461375383095108"><ele>118.0</ele><time>2026-04-11T08:33:42.999Z</time></trkpt><trkpt lat="45.299792539943" lon="8.461590431388721"><ele>118.0</ele><time>2026-04-11T08:33:43.999Z</time></trkpt><trkpt lat="45.29968916567403" lon="8.46180878064652"><ele>118.0</ele><time>2026-04-11T08:33:45Z</time></trkpt><trkpt lat="45.29958525540153" lon="8.462025668017288"><ele>118.0</ele><time>2026-04-11T08:33:46Z</time></trkpt><trkpt lat="45.29948606689563" lon="8.462247087790193"><ele>118.0</ele><time>2026-04-11T08:33:47Z</time></trkpt><trkpt lat="45.29939585884108" lon="8.462481347657093"><ele>118.0</ele><time>2026-04-11T08:33:48Z</time></trkpt><trkpt lat="45.299311955495284" lon="8.462724614374887"><ele>118.0</ele><time>2026-04-11T08:33:49Z</time></trkpt><trkpt lat="45.29922437791675" lon="8.46297097958883"><ele>118.0</ele><time>2026-04-11T08:33:50Z</time></trkpt><trkpt lat="45.29912406947507" lon="8.463207111242538"><ele>118.0</ele><time>2026-04-11T08:33:51Z</time></trkpt><trkpt lat="45.29900651362067" lon="8.463432286445418"><ele>118.0</ele><time>2026-04-11T08:33:52Z</time></trkpt><trkpt lat="45.298889646876354" lon="8.463674890178986"><ele>117.66666666666667</ele><time>2026-04-11T08:33:53Z</time></trkpt><trkpt lat="45.29877436461543" lon="8.463915694944767"><ele>117.33333333333334</ele><time>2026-04-11T08:33:54Z</time></trkpt><trkpt lat="45.29866157181656" lon="8.464156345238926"><ele>117.0</ele><time>2026-04-11T08:33:55Z</time></trkpt><trkpt lat="45.29855582080465" lon="8.464378104647938"><ele>117.0</ele><time>2026-04-11T08:33:56Z</time></trkpt><trkpt lat="45.298449468622856" lon="8.464596972339915"><ele>117.0</ele><time>2026-04-11T08:33:57Z</time></trkpt><trkpt lat="45.29834695116982" lon="8.464801949125711"><ele>117.0</ele><time>2026-04-11T08:33:58Z</time></trkpt><trkpt lat="45.29824354435137" lon="8.465012799262054"><ele>117.33333333333334</ele><time>2026-04-11T08:33:59Z</time></trkpt><trkpt lat="45.29814512826886" lon="8.465215089923106"><ele>117.66666666666667</ele><time>2026-04-11T08:34:00Z</time></trkpt><trkpt lat="45.29804185833749" lon="8.465427052688522"><ele>118.0</ele><time>2026-04-11T08:34:01Z</time></trkpt><trkpt lat="45.29794034322218" lon="8.465635888236305"><ele>118.0</ele><time>2026-04-11T08:34:02Z</time></trkpt><trkpt lat="45.297830717593754" lon="8.465841165243686"><ele>118.0</ele><time>2026-04-11T08:34:03Z</time></trkpt><trkpt lat="45.29771931047724" lon="8.466047352802025"><ele>118.0</ele><time>2026-04-11T08:34:04Z</time></trkpt><trkpt lat="45.29760248328944" lon="8.46623784830431"><ele>117.66666666666667</ele><time>2026-04-11T08:34:05Z</time></trkpt><trkpt lat="45.29748370399585" lon="8.466427453923819"><ele>117.33333333333334</ele><time>2026-04-11T08:34:06Z</time></trkpt><trkpt lat="45.29736306596428" lon="8.46662478978214"><ele>117.0</ele><time>2026-04-11T08:34:07Z</time></trkpt><trkpt lat="45.2972429450435" lon="8.466838053989468"><ele>117.0</ele><time>2026-04-11T08:34:08Z</time></trkpt><trkpt lat="45.29712341723852" lon="8.467044031670712"><ele>117.0</ele><time>2026-04-11T08:34:09Z</time></trkpt><trkpt lat="45.29700301381311" lon="8.467252483385504"><ele>117.0</ele><time>2026-04-11T08:34:10Z</time></trkpt><trkpt lat="45.29688969899771" lon="8.467455386827988"><ele>117.0</ele><time>2026-04-11T08:34:11Z</time></trkpt><trkpt lat="45.29677090622598" lon="8.467661792005302"><ele>117.0</ele><time>2026-04-11T08:34:12Z</time></trkpt><trkpt lat="45.29665287213317" lon="8.46786541568245"><ele>117.0</ele><time>2026-04-11T08:34:13Z</time></trkpt><trkpt lat="45.29653024234082" lon="8.468061929839601"><ele>117.0</ele><time>2026-04-11T08:34:14Z</time></trkpt><trkpt lat="45.29640182937363" lon="8.468246404666735"><ele>117.0</ele><time>2026-04-11T08:34:15Z</time></trkpt><trkpt lat="45.296259861442735" lon="8.468410948716397"><ele>117.0</ele><time>2026-04-11T08:34:16Z</time></trkpt><trkpt lat="45.296107238520605" lon="8.468557566969372"><ele>117.0</ele><time>2026-04-11T08:34:17Z</time></trkpt><trkpt lat="45.2959375362649" lon="8.46867070726321"><ele>117.0</ele><time>2026-04-11T08:34:18Z</time></trkpt><trkpt lat="45.29576153369381" lon="8.468777744883676"><ele>117.0</ele><time>2026-04-11T08:34:19Z</time></trkpt><trkpt lat="45.29558328880375" lon="8.468893104084275"><ele>117.33333333333334</ele><time>2026-04-11T08:34:20Z</time></trkpt><trkpt lat="45.295406418945944" lon="8.469026229705706"><ele>117.66666666666667</ele><time>2026-04-11T08:34:21Z</time></trkpt><trkpt lat="45.29522817578974" lon="8.46918332198269"><ele>118.0</ele><time>2026-04-11T08:34:22Z</time></trkpt><trkpt lat="45.29505247063356" lon="8.469351534555067"><ele>118.0</ele><time>2026-04-11T08:34:23Z</time></trkpt><trkpt lat="45.294877058353755" lon="8.469522092687585"><ele>118.0</ele><time>2026-04-11T08:34:24Z</time></trkpt><trkpt lat="45.294697130146275" lon="8.469693282501792"><ele>118.0</ele><time>2026-04-11T08:34:25Z</time></trkpt><trkpt lat="45.29451878376639" lon="8.46986093611966"><ele>117.66666666666667</ele><time>2026-04-11T08:34:26Z</time></trkpt><trkpt lat="45.294342277990474" lon="8.470027523301695"><ele>117.33333333333334</ele><time>2026-04-11T08:34:27Z</time></trkpt><trkpt lat="45.29416518169645" lon="8.470197684346637"><ele>117.0</ele><time>2026-04-11T08:34:28Z</time></trkpt><trkpt lat="45.29398723515747" lon="8.470369439748282"><ele>117.66666666666666</ele><time>2026-04-11T08:34:29Z</time></trkpt><trkpt lat="45.29381103592386" lon="8.470540082196907"><ele>118.33333333333333</ele><time>2026-04-11T08:34:30Z</time></trkpt><trkpt lat="45.29363685217248" lon="8.470707138760465"><ele>119.0</ele><time>2026-04-11T08:34:31Z</time></trkpt><trkpt lat="45.29345927580751" lon="8.470875602767478"><ele>119.0</ele><time>2026-04-11T08:34:32Z</time></trkpt><trkpt lat="45.29327824389606" lon="8.471038576058222"><ele>119.0</ele><time>2026-04-11T08:34:33Z</time></trkpt><trkpt lat="45.29310325911735" lon="8.471201664448643"><ele>119.0</ele><time>2026-04-11T08:34:34Z</time></trkpt><trkpt lat="45.29292352191294" lon="8.47136196212476"><ele>118.66666666666666</ele><time>2026-04-11T08:34:35Z</time></trkpt><trkpt lat="45.29275637185772" lon="8.471534217746692"><ele>118.33333333333334</ele><time>2026-04-11T08:34:36Z</time></trkpt><trkpt lat="45.29256448817334" lon="8.471698370647198"><ele>118.0</ele><time>2026-04-11T08:34:37Z</time></trkpt><trkpt lat="45.292383677435716" lon="8.471873860164157"><ele>117.66666666666667</ele><time>2026-04-11T08:34:38Z</time></trkpt><trkpt lat="45.29220286444893" lon="8.472041822053235"><ele>117.33333333333334</ele><time>2026-04-11T08:34:39Z</time></trkpt><trkpt lat="45.29202121851071" lon="8.472212986981488"><ele>117.0</ele><time>2026-04-11T08:34:40Z</time></trkpt><trkpt lat="45.29183741841834" lon="8.47238327374386"><ele>116.66666666666666</ele><time>2026-04-11T08:34:41Z</time></trkpt><trkpt lat="45.29165680613119" lon="8.472553294746858"><ele>116.33333333333333</ele><time>2026-04-11T08:34:42Z</time></trkpt><trkpt lat="45.29147489968055" lon="8.472723017445256"><ele>116.0</ele><time>2026-04-11T08:34:43Z</time></trkpt><trkpt lat="45.2912923521887" lon="8.472890985220273"><ele>115.33333333333333</ele><time>2026-04-11T08:34:44Z</time></trkpt><trkpt lat="45.29111055163295" lon="8.473064038266651"><ele>114.66666666666666</ele><time>2026-04-11T08:34:45Z</time></trkpt><trkpt lat="45.29092866971718" lon="8.473234806068598"><ele>114.0</ele><time>2026-04-11T08:34:46Z</time></trkpt><trkpt lat="45.2907445013778" lon="8.473407428518355"><ele>114.33333333333334</ele><time>2026-04-11T08:34:47Z</time></trkpt><trkpt lat="45.2905641899669" lon="8.473578040928384"><ele>114.66666666666667</ele><time>2026-04-11T08:34:48Z</time></trkpt><trkpt lat="45.29038385566713" lon="8.47374760304787"><ele>115.0</ele><time>2026-04-11T08:34:49Z</time></trkpt><trkpt lat="45.29020643789355" lon="8.47391516148442"><ele>115.0</ele><time>2026-04-11T08:34:50Z</time></trkpt><trkpt lat="45.29003033191722" lon="8.474078380124377"><ele>115.0</ele><time>2026-04-11T08:34:51.001Z</time></trkpt><trkpt lat="45.28985115621678" lon="8.474244826839115"><ele>115.0</ele><time>2026-04-11T08:34:52.001Z</time></trkpt><trkpt lat="45.289671803860664" lon="8.474414695666715"><ele>115.0</ele><time>2026-04-11T08:34:53.001Z</time></trkpt><trkpt lat="45.28949430546026" lon="8.474581680006443"><ele>115.0</ele><time>2026-04-11T08:34:54.001Z</time></trkpt><trkpt lat="45.28931515558542" lon="8.474752011642389"><ele>115.0</ele><time>2026-04-11T08:34:55.001Z</time></trkpt><trkpt lat="45.28913772007038" lon="8.474919666171798"><ele>115.33333333333334</ele><time>2026-04-11T08:34:56.001Z</time></trkpt><trkpt lat="45.28895990580662" lon="8.475088643978365"><ele>115.66666666666666</ele><time>2026-04-11T08:34:57.001Z</time></trkpt><trkpt lat="45.28878412666621" lon="8.47526263619472"><ele>116.0</ele><time>2026-04-11T08:34:58.001Z</time></trkpt><trkpt lat="45.28861124462575" lon="8.475435752450238"><ele>115.66666666666666</ele><time>2026-04-11T08:34:59.001Z</time></trkpt><trkpt lat="45.288439895264816" lon="8.475603345689123"><ele>115.33333333333334</ele><time>2026-04-11T08:35:00.001Z</time></trkpt><trkpt lat="45.28827485790772" lon="8.475766090461244"><ele>115.0</ele><time>2026-04-11T08:35:01.001Z</time></trkpt><trkpt lat="45.288117099081084" lon="8.475915822427064"><ele>115.0</ele><time>2026-04-11T08:35:02.001Z</time></trkpt><trkpt lat="45.28795949957856" lon="8.476062270501366"><ele>115.0</ele><time>2026-04-11T08:35:03.001Z</time></trkpt><trkpt lat="45.28780990117215" lon="8.476191023156668"><ele>115.0</ele><time>2026-04-11T08:35:04.001Z</time></trkpt><trkpt lat="45.287649301032" lon="8.476306608669312"><ele>115.0</ele><time>2026-04-11T08:35:05.001Z</time></trkpt><trkpt lat="45.287479977960324" lon="8.47638701492732"><ele>115.0</ele><time>2026-04-11T08:35:05.998Z</time></trkpt><trkpt lat="45.287296572917455" lon="8.476436039091535"><ele>115.0</ele><time>2026-04-11T08:35:06.998Z</time></trkpt><trkpt lat="45.28710802817361" lon="8.476465406815013"><ele>114.33333333333334</ele><time>2026-04-11T08:35:07.998Z</time></trkpt><trkpt lat="45.286916484686316" lon="8.476494609961357"><ele>113.66666666666666</ele><time>2026-04-11T08:35:08.998Z</time></trkpt><trkpt lat="45.28672226364442" lon="8.476532328021584"><ele>113.0</ele><time>2026-04-11T08:35:09.998Z</time></trkpt><trkpt lat="45.28653421090776" lon="8.476577203591258"><ele>113.33333333333333</ele><time>2026-04-11T08:35:10.998Z</time></trkpt><trkpt lat="45.28635030837989" lon="8.476616464539504"><ele>113.66666666666666</ele><time>2026-04-11T08:35:11.998Z</time></trkpt><trkpt lat="45.28616949177465" lon="8.476652295495295"><ele>114.0</ele><time>2026-04-11T08:35:12.998Z</time></trkpt><trkpt lat="45.28599724411757" lon="8.476686646811086"><ele>114.0</ele><time>2026-04-11T08:35:13.998Z</time></trkpt><trkpt lat="45.285830886430276" lon="8.476722742131964"><ele>114.0</ele><time>2026-04-11T08:35:14.998Z</time></trkpt><trkpt lat="45.28566997413705" lon="8.476756737075899"><ele>114.0</ele><time>2026-04-11T08:35:15.998Z</time></trkpt><trkpt lat="45.28550952206749" lon="8.47679079422936"><ele>114.25</ele><time>2026-04-11T08:35:16.998Z</time></trkpt><trkpt lat="45.285354585170076" lon="8.4768248413484"><ele>114.5</ele><time>2026-04-11T08:35:17.998Z</time></trkpt><trkpt lat="45.28520521105611" lon="8.476859864650796"><ele>114.75</ele><time>2026-04-11T08:35:18.998Z</time></trkpt><trkpt lat="45.285065334663116" lon="8.476888408860747"><ele>115.0</ele><time>2026-04-11T08:35:19.998Z</time></trkpt><trkpt lat="45.28492475989396" lon="8.476925029683986"><ele>115.0</ele><time>2026-04-11T08:35:20.998Z</time></trkpt><trkpt lat="45.28479125379166" lon="8.476958162090027"><ele>115.0</ele><time>2026-04-11T08:35:21.999Z</time></trkpt><trkpt lat="45.284664636677206" lon="8.476991709062194"><ele>115.0</ele><time>2026-04-11T08:35:22.999Z</time></trkpt><trkpt lat="45.284540454127416" lon="8.477021030091818"><ele>115.0</ele><time>2026-04-11T08:35:23.999Z</time></trkpt><trkpt lat="45.28442081910681" lon="8.477046988498145"><ele>115.0</ele><time>2026-04-11T08:35:24.999Z</time></trkpt><trkpt lat="45.28429937100519" lon="8.477070342300822"><ele>115.0</ele><time>2026-04-11T08:35:25.999Z</time></trkpt><trkpt lat="45.284172486209854" lon="8.477100503267835"><ele>115.0</ele><time>2026-04-11T08:35:26.999Z</time></trkpt><trkpt lat="45.28404611196737" lon="8.477122650412396"><ele>115.0</ele><time>2026-04-11T08:35:27.999Z</time></trkpt><trkpt lat="45.28391997185299" lon="8.477147242534947"><ele>115.5</ele><time>2026-04-11T08:35:28.999Z</time></trkpt><trkpt lat="45.28379910920942" lon="8.477173314382544"><ele>116.0</ele><time>2026-04-11T08:35:29.999Z</time></trkpt><trkpt lat="45.28368326907218" lon="8.47719647697895"><ele>116.5</ele><time>2026-04-11T08:35:30.999Z</time></trkpt><trkpt lat="45.28357158288481" lon="8.477217921034244"><ele>117.0</ele><time>2026-04-11T08:35:31.999Z</time></trkpt><trkpt lat="45.283472145341456" lon="8.477237518180708"><ele>117.0</ele><time>2026-04-11T08:35:32.999Z</time></trkpt><trkpt lat="45.283392588892454" lon="8.477251883033553"><ele>117.0</ele><time>2026-04-11T08:35:33.999Z</time></trkpt><trkpt lat="45.28331811892504" lon="8.477269236313292"><ele>117.0</ele><time>2026-04-11T08:35:34.999Z</time></trkpt><trkpt lat="45.283239367905466" lon="8.477289264203266"><ele>117.0</ele><time>2026-04-11T08:35:35.999Z</time></trkpt><trkpt lat="45.283144930915014" lon="8.477315683002615"><ele>117.0</ele><time>2026-04-11T08:35:36.999Z</time></trkpt><trkpt lat="45.28304670556341" lon="8.477337749544136"><ele>117.0</ele><time>2026-04-11T08:35:37.999Z</time></trkpt><trkpt lat="45.28294729205325" lon="8.477359452762716"><ele>117.39999999999999</ele><time>2026-04-11T08:35:38.999Z</time></trkpt><trkpt lat="45.28284925948653" lon="8.47737589706294"><ele>117.79999999999998</ele><time>2026-04-11T08:35:39.999Z</time></trkpt><trkpt lat="45.282745231742034" lon="8.47739742946589"><ele>118.2</ele><time>2026-04-11T08:35:40.999Z</time></trkpt><trkpt lat="45.282638323512415" lon="8.47742050465887"><ele>118.6</ele><time>2026-04-11T08:35:41.999Z</time></trkpt><trkpt lat="45.282536704131246" lon="8.477442011724612"><ele>119.0</ele><time>2026-04-11T08:35:42.999Z</time></trkpt><trkpt lat="45.282432612616866" lon="8.477465208637824"><ele>119.0</ele><time>2026-04-11T08:35:43.999Z</time></trkpt><trkpt lat="45.28232794802393" lon="8.477485249693725"><ele>119.0</ele><time>2026-04-11T08:35:45Z</time></trkpt><trkpt lat="45.282220428043956" lon="8.477518479827806"><ele>119.0</ele><time>2026-04-11T08:35:46Z</time></trkpt><trkpt lat="45.28212127414993" lon="8.477539806449547"><ele>119.0</ele><time>2026-04-11T08:35:47Z</time></trkpt><trkpt lat="45.28201523195695" lon="8.477565331801854"><ele>119.0</ele><time>2026-04-11T08:35:48Z</time></trkpt><trkpt lat="45.28191034967187" lon="8.477592187652494"><ele>119.0</ele><time>2026-04-11T08:35:49Z</time></trkpt><trkpt lat="45.281809886585854" lon="8.477616801675582"><ele>119.0</ele><time>2026-04-11T08:35:50Z</time></trkpt><trkpt lat="45.281714425371305" lon="8.477643298210872"><ele>119.0</ele><time>2026-04-11T08:35:51Z</time></trkpt><trkpt lat="45.28162305720963" lon="8.477663416503916"><ele>119.0</ele><time>2026-04-11T08:35:52Z</time></trkpt><trkpt lat="45.28155208808085" lon="8.47768068021489"><ele>119.0</ele><time>2026-04-11T08:35:53Z</time></trkpt><trkpt lat="45.28144505896031" lon="8.477706557645217"><ele>118.99999999999999</ele><time>2026-04-11T08:35:55Z</time></trkpt><trkpt lat="45.28136632898922" lon="8.477723012058934"><ele>119.0</ele><time>2026-04-11T08:35:57Z</time></trkpt><trkpt lat="45.28129192752176" lon="8.477738894700042"><ele>119.0</ele><time>2026-04-11T08:36:00Z</time></trkpt><trkpt lat="45.28126436382515" lon="8.477825265625862"><ele>119.0</ele><time>2026-04-11T08:36:12Z</time></trkpt><trkpt lat="45.28136017280065" lon="8.477830025268545"><ele>118.99999999999999</ele><time>2026-04-11T08:36:15Z</time></trkpt><trkpt lat="45.281451195487655" lon="8.477792947436912"><ele>119.0</ele><time>2026-04-11T08:36:17Z</time></trkpt><trkpt lat="45.28153218198031" lon="8.477763429930894"><ele>119.0</ele><time>2026-04-11T08:36:19Z</time></trkpt><trkpt lat="45.28159542616779" lon="8.477744975736762"><ele>119.0</ele><time>2026-04-11T08:36:21Z</time></trkpt><trkpt lat="45.281670276608345" lon="8.477711568448226"><ele>119.0</ele><time>2026-04-11T08:36:25Z</time></trkpt><trkpt lat="45.281766570415826" lon="8.477696742818056"><ele>119.0</ele><time>2026-04-11T08:36:28Z</time></trkpt><trkpt lat="45.28183350274177" lon="8.477750796387745"><ele>119.0</ele><time>2026-04-11T08:36:30.001Z</time></trkpt><trkpt lat="45.281905183683506" lon="8.477923887570107"><ele>119.0</ele><time>2026-04-11T08:36:32.001Z</time></trkpt><trkpt lat="45.28193683429329" lon="8.478093432181735"><ele>119.0</ele><time>2026-04-11T08:36:34.001Z</time></trkpt><trkpt lat="45.28194837089463" lon="8.47820337070686"><ele>119.0</ele><time>2026-04-11T08:36:35.001Z</time></trkpt><trkpt lat="45.28196026375579" lon="8.478331916414524"><ele>119.0</ele><time>2026-04-11T08:36:36.001Z</time></trkpt><trkpt lat="45.281978268177916" lon="8.478474084017073"><ele>119.0</ele><time>2026-04-11T08:36:37.001Z</time></trkpt><trkpt lat="45.2819892314403" lon="8.478620308915385"><ele>118.6</ele><time>2026-04-11T08:36:38.001Z</time></trkpt><trkpt lat="45.28199623377695" lon="8.478768020589037"><ele>118.2</ele><time>2026-04-11T08:36:39.001Z</time></trkpt><trkpt lat="45.28199755803607" lon="8.47891455494951"><ele>117.79999999999998</ele><time>2026-04-11T08:36:40.001Z</time></trkpt><trkpt lat="45.28199720052581" lon="8.479056205165914"><ele>117.39999999999999</ele><time>2026-04-11T08:36:41.001Z</time></trkpt><trkpt lat="45.281993783555485" lon="8.479185297140226"><ele>117.0</ele><time>2026-04-11T08:36:42.001Z</time></trkpt><trkpt lat="45.28199517586682" lon="8.479299220053546"><ele>117.0</ele><time>2026-04-11T08:36:43.001Z</time></trkpt><trkpt lat="45.28198475643474" lon="8.479390871943192"><ele>116.99999999999999</ele><time>2026-04-11T08:36:44.001Z</time></trkpt><trkpt lat="45.281943929665665" lon="8.479511797517695"><ele>116.99999999999999</ele><time>2026-04-11T08:36:46.001Z</time></trkpt><trkpt lat="45.28182467500238" lon="8.47959605838687"><ele>117.0</ele><time>2026-04-11T08:36:48.001Z</time></trkpt><trkpt lat="45.28173873720792" lon="8.479649070617118"><ele>117.0</ele><time>2026-04-11T08:36:49.001Z</time></trkpt><trkpt lat="45.28164757481957" lon="8.479734525249729"><ele>116.75</ele><time>2026-04-11T08:36:50.001Z</time></trkpt><trkpt lat="45.28156455549414" lon="8.479847879891446"><ele>116.5</ele><time>2026-04-11T08:36:51.001Z</time></trkpt><trkpt lat="45.2814832749437" lon="8.479963728463002"><ele>116.25</ele><time>2026-04-11T08:36:52.001Z</time></trkpt><trkpt lat="45.281398974284365" lon="8.48007383838603"><ele>116.0</ele><time>2026-04-11T08:36:53.001Z</time></trkpt><trkpt lat="45.28130090362118" lon="8.480177821584768"><ele>115.75</ele><time>2026-04-11T08:36:54.001Z</time></trkpt><trkpt lat="45.28118989360143" lon="8.480284647013196"><ele>115.5</ele><time>2026-04-11T08:36:55.001Z</time></trkpt><trkpt lat="45.281081286936136" lon="8.48039933634639"><ele>115.25</ele><time>2026-04-11T08:36:56.001Z</time></trkpt><trkpt lat="45.28096790557695" lon="8.480510313618172"><ele>115.0</ele><time>2026-04-11T08:36:57.001Z</time></trkpt><trkpt lat="45.28085593042075" lon="8.480623528451588"><ele>115.0</ele><time>2026-04-11T08:36:58.001Z</time></trkpt><trkpt lat="45.280740924884235" lon="8.480724473643647"><ele>115.0</ele><time>2026-04-11T08:36:59.001Z</time></trkpt><trkpt lat="45.28065162048211" lon="8.480808714602702"><ele>115.0</ele><time>2026-04-11T08:37:00.001Z</time></trkpt><trkpt lat="45.28056248433009" lon="8.480906531197858"><ele>115.0</ele><time>2026-04-11T08:37:01.001Z</time></trkpt><trkpt lat="45.280470849372904" lon="8.481003370270368"><ele>115.25</ele><time>2026-04-11T08:37:02.001Z</time></trkpt><trkpt lat="45.28037142288574" lon="8.481114062547164"><ele>115.5</ele><time>2026-04-11T08:37:03.001Z</time></trkpt><trkpt lat="45.280277069315545" lon="8.481248151169304"><ele>115.75</ele><time>2026-04-11T08:37:04.001Z</time></trkpt><trkpt lat="45.280179025632904" lon="8.481397301505968"><ele>116.0</ele><time>2026-04-11T08:37:05.001Z</time></trkpt><trkpt lat="45.280084847795074" lon="8.481551347840828"><ele>116.0</ele><time>2026-04-11T08:37:06.001Z</time></trkpt><trkpt lat="45.27998619817936" lon="8.481709552869596"><ele>116.0</ele><time>2026-04-11T08:37:07.001Z</time></trkpt><trkpt lat="45.27989118855434" lon="8.481860381449307"><ele>116.0</ele><time>2026-04-11T08:37:08.001Z</time></trkpt><trkpt lat="45.27980106366921" lon="8.482006176252602"><ele>116.0</ele><time>2026-04-11T08:37:09.001Z</time></trkpt><trkpt lat="45.27970864349181" lon="8.482142364940405"><ele>115.6</ele><time>2026-04-11T08:37:10.001Z</time></trkpt><trkpt lat="45.27962341987967" lon="8.482247417756614"><ele>115.19999999999999</ele><time>2026-04-11T08:37:11.001Z</time></trkpt><trkpt lat="45.27953159067851" lon="8.4823167748812"><ele>114.80000000000001</ele><time>2026-04-11T08:37:11.999Z</time></trkpt><trkpt lat="45.27942633154903" lon="8.482355699605158"><ele>114.4</ele><time>2026-04-11T08:37:12.999Z</time></trkpt><trkpt lat="45.27930981875601" lon="8.482372332439946"><ele>114.0</ele><time>2026-04-11T08:37:13.999Z</time></trkpt><trkpt lat="45.27918332276151" lon="8.482376830782954"><ele>114.0</ele><time>2026-04-11T08:37:14.999Z</time></trkpt><trkpt lat="45.2790621259951" lon="8.482393999714393"><ele>114.0</ele><time>2026-04-11T08:37:15.999Z</time></trkpt><trkpt lat="45.278946499757105" lon="8.48241928916276"><ele>114.0</ele><time>2026-04-11T08:37:16.999Z</time></trkpt><trkpt lat="45.278846918462875" lon="8.482440434537468"><ele>114.0</ele><time>2026-04-11T08:37:17.999Z</time></trkpt><trkpt lat="45.27877315454538" lon="8.48244367279092"><ele>114.0</ele><time>2026-04-11T08:37:18.999Z</time></trkpt><trkpt lat="45.2786763060645" lon="8.482433846346577"><ele>114.0</ele><time>2026-04-11T08:37:20.999Z</time></trkpt><trkpt lat="45.278603570457264" lon="8.482565167514142"><ele>114.0</ele><time>2026-04-11T08:37:21.999Z</time></trkpt><trkpt lat="45.278521194996685" lon="8.482647402153233"><ele>114.0</ele><time>2026-04-11T08:37:22.999Z</time></trkpt><trkpt lat="45.27842306512407" lon="8.482750177560895"><ele>114.0</ele><time>2026-04-11T08:37:23.999Z</time></trkpt><trkpt lat="45.27831182918049" lon="8.482851575453527"><ele>114.0</ele><time>2026-04-11T08:37:24.999Z</time></trkpt><trkpt lat="45.27818846000605" lon="8.482962435078854"><ele>114.0</ele><time>2026-04-11T08:37:25.999Z</time></trkpt><trkpt lat="45.278072850530506" lon="8.483068913944006"><ele>114.0</ele><time>2026-04-11T08:37:26.999Z</time></trkpt><trkpt lat="45.277947129241184" lon="8.483162498542708"><ele>114.0</ele><time>2026-04-11T08:37:27.999Z</time></trkpt><trkpt lat="45.27781083577444" lon="8.48324576876949"><ele>114.0</ele><time>2026-04-11T08:37:28.999Z</time></trkpt><trkpt lat="45.2776661463544" lon="8.483315578185955"><ele>114.0</ele><time>2026-04-11T08:37:29.999Z</time></trkpt><trkpt lat="45.27752532220439" lon="8.483376251227671"><ele>114.0</ele><time>2026-04-11T08:37:31Z</time></trkpt><trkpt lat="45.277394163384656" lon="8.483418468741716"><ele>114.0</ele><time>2026-04-11T08:37:32Z</time></trkpt><trkpt lat="45.27726042755475" lon="8.483440463970865"><ele>113.75</ele><time>2026-04-11T08:37:33Z</time></trkpt><trkpt lat="45.27712309485737" lon="8.483427624352272"><ele>113.5</ele><time>2026-04-11T08:37:34Z</time></trkpt><trkpt lat="45.27698624147235" lon="8.483375586937786"><ele>113.25</ele><time>2026-04-11T08:37:35Z</time></trkpt><trkpt lat="45.276852110600004" lon="8.483312764980337"><ele>113.0</ele><time>2026-04-11T08:37:36Z</time></trkpt><trkpt lat="45.27671518773536" lon="8.48322791363893"><ele>113.0</ele><time>2026-04-11T08:37:37Z</time></trkpt><trkpt lat="45.27656737690761" lon="8.483161482531633"><ele>113.0</ele><time>2026-04-11T08:37:38Z</time></trkpt><trkpt lat="45.27640971276434" lon="8.4831214418104"><ele>113.0</ele><time>2026-04-11T08:37:39Z</time></trkpt><trkpt lat="45.27624003168481" lon="8.483108301626487"><ele>113.0</ele><time>2026-04-11T08:37:40Z</time></trkpt><trkpt lat="45.27606929901048" lon="8.483101845362501"><ele>113.0</ele><time>2026-04-11T08:37:41Z</time></trkpt><trkpt lat="45.27590028214475" lon="8.48309638600682"><ele>113.0</ele><time>2026-04-11T08:37:42Z</time></trkpt><trkpt lat="45.27573886358861" lon="8.483092444810143"><ele>113.33333333333333</ele><time>2026-04-11T08:37:43Z</time></trkpt><trkpt lat="45.27557368911071" lon="8.483086739126666"><ele>113.66666666666666</ele><time>2026-04-11T08:37:44Z</time></trkpt><trkpt lat="45.27540720600293" lon="8.483080069263538"><ele>114.0</ele><time>2026-04-11T08:37:45Z</time></trkpt><trkpt lat="45.27524432871222" lon="8.483069205958692"><ele>114.0</ele><time>2026-04-11T08:37:46Z</time></trkpt><trkpt lat="45.27508040159407" lon="8.483042879219333"><ele>114.0</ele><time>2026-04-11T08:37:47Z</time></trkpt><trkpt lat="45.27491626373147" lon="8.482996751565906"><ele>114.0</ele><time>2026-04-11T08:37:48Z</time></trkpt><trkpt lat="45.27475406678264" lon="8.482936152951714"><ele>114.0</ele><time>2026-04-11T08:37:49Z</time></trkpt><trkpt lat="45.274591183838766" lon="8.482883869101395"><ele>114.0</ele><time>2026-04-11T08:37:50Z</time></trkpt><trkpt lat="45.27442338720758" lon="8.4828480961957"><ele>114.0</ele><time>2026-04-11T08:37:51Z</time></trkpt><trkpt lat="45.27425028209226" lon="8.482831635303103"><ele>114.0</ele><time>2026-04-11T08:37:52Z</time></trkpt><trkpt lat="45.274073554946355" lon="8.482827550338882"><ele>114.0</ele><time>2026-04-11T08:37:53Z</time></trkpt><trkpt lat="45.273893115109836" lon="8.482819949991768"><ele>114.0</ele><time>2026-04-11T08:37:54Z</time></trkpt><trkpt lat="45.273707158708454" lon="8.482810996803535"><ele>114.33333333333334</ele><time>2026-04-11T08:37:55Z</time></trkpt><trkpt lat="45.27352162807803" lon="8.482800189203441"><ele>114.66666666666667</ele><time>2026-04-11T08:37:56Z</time></trkpt><trkpt lat="45.273334409624134" lon="8.482789943462437"><ele>115.0</ele><time>2026-04-11T08:37:57Z</time></trkpt><trkpt lat="45.27314466523326" lon="8.48277826073697"><ele>114.33333333333334</ele><time>2026-04-11T08:37:58Z</time></trkpt><trkpt lat="45.2729525259411" lon="8.482767484403254"><ele>113.66666666666666</ele><time>2026-04-11T08:37:59Z</time></trkpt><trkpt lat="45.272758503293744" lon="8.482757069008533"><ele>113.0</ele><time>2026-04-11T08:38:00Z</time></trkpt><trkpt lat="45.27257068619744" lon="8.482746957502496"><ele>113.0</ele><time>2026-04-11T08:38:01Z</time></trkpt><trkpt lat="45.272386059625916" lon="8.482737834804265"><ele>113.0</ele><time>2026-04-11T08:38:02Z</time></trkpt><trkpt lat="45.27219896534075" lon="8.482729847141343"><ele>113.0</ele><time>2026-04-11T08:38:03Z</time></trkpt><trkpt lat="45.272013828177904" lon="8.482722884642476"><ele>113.0</ele><time>2026-04-11T08:38:04.001Z</time></trkpt><trkpt lat="45.27182875746546" lon="8.482716312105898"><ele>113.0</ele><time>2026-04-11T08:38:05.001Z</time></trkpt><trkpt lat="45.27164257991776" lon="8.482712332448758"><ele>113.0</ele><time>2026-04-11T08:38:06.001Z</time></trkpt><trkpt lat="45.27145403344029" lon="8.482707347057309"><ele>113.33333333333333</ele><time>2026-04-11T08:38:07.001Z</time></trkpt><trkpt lat="45.271268455241284" lon="8.482700629165672"><ele>113.66666666666666</ele><time>2026-04-11T08:38:08.001Z</time></trkpt><trkpt lat="45.271085518771926" lon="8.48269434096984"><ele>114.0</ele><time>2026-04-11T08:38:09.001Z</time></trkpt><trkpt lat="45.27090547606495" lon="8.482687558359194"><ele>114.0</ele><time>2026-04-11T08:38:10.001Z</time></trkpt><trkpt lat="45.27072939934011" lon="8.48268194914483"><ele>114.0</ele><time>2026-04-11T08:38:11.001Z</time></trkpt><trkpt lat="45.270555454286374" lon="8.482672406937695"><ele>114.0</ele><time>2026-04-11T08:38:12.001Z</time></trkpt><trkpt lat="45.27037881733847" lon="8.482649972752512"><ele>114.33333333333334</ele><time>2026-04-11T08:38:13.001Z</time></trkpt><trkpt lat="45.270203553573225" lon="8.48261847993239"><ele>114.66666666666667</ele><time>2026-04-11T08:38:14.001Z</time></trkpt><trkpt lat="45.27002947455847" lon="8.482578807627117"><ele>115.0</ele><time>2026-04-11T08:38:15.001Z</time></trkpt><trkpt lat="45.269854533615344" lon="8.482544075588956"><ele>114.66666666666667</ele><time>2026-04-11T08:38:16.001Z</time></trkpt><trkpt lat="45.26968798161886" lon="8.482535293356545"><ele>114.33333333333334</ele><time>2026-04-11T08:38:17.001Z</time></trkpt><trkpt lat="45.26952133141716" lon="8.482550096829085"><ele>114.0</ele><time>2026-04-11T08:38:18.001Z</time></trkpt><trkpt lat="45.26935936634507" lon="8.48260305686958"><ele>114.0</ele><time>2026-04-11T08:38:19.001Z</time></trkpt><trkpt lat="45.269187535189765" lon="8.482672298814322"><ele>114.0</ele><time>2026-04-11T08:38:20.001Z</time></trkpt><trkpt lat="45.269016231953906" lon="8.482747925921943"><ele>114.0</ele><time>2026-04-11T08:38:21.001Z</time></trkpt><trkpt lat="45.268851157616616" lon="8.482821951236971"><ele>113.66666666666666</ele><time>2026-04-11T08:38:22.001Z</time></trkpt><trkpt lat="45.268686529085706" lon="8.482891794246562"><ele>113.33333333333333</ele><time>2026-04-11T08:38:23.001Z</time></trkpt><trkpt lat="45.26852659278297" lon="8.4829703981037"><ele>113.0</ele><time>2026-04-11T08:38:24.001Z</time></trkpt><trkpt lat="45.268369589500786" lon="8.483069929743772"><ele>113.0</ele><time>2026-04-11T08:38:25.001Z</time></trkpt><trkpt lat="45.268223454014965" lon="8.483185213164354"><ele>113.0</ele><time>2026-04-11T08:38:26.001Z</time></trkpt><trkpt lat="45.26808283955975" lon="8.483305241025167"><ele>113.0</ele><time>2026-04-11T08:38:27.001Z</time></trkpt><trkpt lat="45.26794725273698" lon="8.48343095002538"><ele>113.33333333333333</ele><time>2026-04-11T08:38:28.001Z</time></trkpt><trkpt lat="45.26781569833618" lon="8.483552306763848"><ele>113.66666666666666</ele><time>2026-04-11T08:38:29.001Z</time></trkpt><trkpt lat="45.26768917670733" lon="8.483681021712979"><ele>114.0</ele><time>2026-04-11T08:38:30.001Z</time></trkpt><trkpt lat="45.26757240205145" lon="8.483828911016214"><ele>114.0</ele><time>2026-04-11T08:38:31.001Z</time></trkpt><trkpt lat="45.26746432252824" lon="8.483993582114762"><ele>114.0</ele><time>2026-04-11T08:38:32.001Z</time></trkpt><trkpt lat="45.267357508977824" lon="8.48415120064627"><ele>114.0</ele><time>2026-04-11T08:38:33.001Z</time></trkpt><trkpt lat="45.26724245815911" lon="8.484308109208436"><ele>114.0</ele><time>2026-04-11T08:38:34.001Z</time></trkpt><trkpt lat="45.267120157314466" lon="8.48444868639232"><ele>114.0</ele><time>2026-04-11T08:38:35.001Z</time></trkpt><trkpt lat="45.266994598052406" lon="8.484588468794918"><ele>114.0</ele><time>2026-04-11T08:38:36.001Z</time></trkpt><trkpt lat="45.26687912571588" lon="8.484722527010808"><ele>114.25</ele><time>2026-04-11T08:38:37.001Z</time></trkpt><trkpt lat="45.266771156361756" lon="8.484850862085633"><ele>114.5</ele><time>2026-04-11T08:38:38.001Z</time></trkpt><trkpt lat="45.266665068634175" lon="8.484986239154981"><ele>114.75</ele><time>2026-04-11T08:38:39.001Z</time></trkpt><trkpt lat="45.266571561654104" lon="8.485123617964145"><ele>115.0</ele><time>2026-04-11T08:38:40.001Z</time></trkpt><trkpt lat="45.26649151199476" lon="8.485254127262351"><ele>115.0</ele><time>2026-04-11T08:38:41.001Z</time></trkpt><trkpt lat="45.266408487760934" lon="8.485375260613255"><ele>115.0</ele><time>2026-04-11T08:38:42.001Z</time></trkpt><trkpt lat="45.26633110235057" lon="8.485479648241672"><ele>115.0</ele><time>2026-04-11T08:38:43.001Z</time></trkpt><trkpt lat="45.2662339161137" lon="8.485588064034454"><ele>115.0</ele><time>2026-04-11T08:38:44.001Z</time></trkpt><trkpt lat="45.26613614938238" lon="8.485695031647005"><ele>115.0</ele><time>2026-04-11T08:38:45.001Z</time></trkpt><trkpt lat="45.26602915384586" lon="8.485796437908451"><ele>115.0</ele><time>2026-04-11T08:38:46.001Z</time></trkpt><trkpt lat="45.265912693131526" lon="8.485904946632168"><ele>115.0</ele><time>2026-04-11T08:38:47.001Z</time></trkpt><trkpt lat="45.265787084962746" lon="8.48599787129492"><ele>115.0</ele><time>2026-04-11T08:38:48.001Z</time></trkpt><trkpt lat="45.26566937500512" lon="8.486090844856122"><ele>115.0</ele><time>2026-04-11T08:38:49.002Z</time></trkpt><trkpt lat="45.26554845784364" lon="8.486181241794558"><ele>115.0</ele><time>2026-04-11T08:38:50.002Z</time></trkpt><trkpt lat="45.26543616643379" lon="8.48627074099209"><ele>115.0</ele><time>2026-04-11T08:38:51.002Z</time></trkpt><trkpt lat="45.26531882508006" lon="8.486372051851493"><ele>115.0</ele><time>2026-04-11T08:38:52.002Z</time></trkpt><trkpt lat="45.26519938487549" lon="8.486470601952762"><ele>115.0</ele><time>2026-04-11T08:38:53.002Z</time></trkpt><trkpt lat="45.26508072866163" lon="8.48656194589743"><ele>115.0</ele><time>2026-04-11T08:38:54.002Z</time></trkpt><trkpt lat="45.264960464766204" lon="8.486645243167224"><ele>115.0</ele><time>2026-04-11T08:38:55.002Z</time></trkpt><trkpt lat="45.2648438126888" lon="8.48672799750406"><ele>115.0</ele><time>2026-04-11T08:38:56.002Z</time></trkpt><trkpt lat="45.26472416377762" lon="8.486814736985636"><ele>115.0</ele><time>2026-04-11T08:38:57.002Z</time></trkpt><trkpt lat="45.26460726176464" lon="8.486903279982897"><ele>115.0</ele><time>2026-04-11T08:38:58.002Z</time></trkpt><trkpt lat="45.26448901888368" lon="8.486993603809315"><ele>115.0</ele><time>2026-04-11T08:38:59.002Z</time></trkpt><trkpt lat="45.26437821682828" lon="8.48708149318951"><ele>115.0</ele><time>2026-04-11T08:39:00.002Z</time></trkpt><trkpt lat="45.26427484508394" lon="8.48716760625302"><ele>115.0</ele><time>2026-04-11T08:39:01.002Z</time></trkpt><trkpt lat="45.26417236761925" lon="8.487256081637021"><ele>115.0</ele><time>2026-04-11T08:39:02.002Z</time></trkpt><trkpt lat="45.26406832656698" lon="8.487355666616601"><ele>115.0</ele><time>2026-04-11T08:39:03.002Z</time></trkpt><trkpt lat="45.26398342765219" lon="8.487468411967887"><ele>115.0</ele><time>2026-04-11T08:39:04.002Z</time></trkpt><trkpt lat="45.26389523026424" lon="8.487589623576277"><ele>115.0</ele><time>2026-04-11T08:39:05.002Z</time></trkpt><trkpt lat="45.2638136635956" lon="8.48771591683528"><ele>115.0</ele><time>2026-04-11T08:39:06.002Z</time></trkpt><trkpt lat="45.26372379183219" lon="8.487849253720146"><ele>115.0</ele><time>2026-04-11T08:39:07.002Z</time></trkpt><trkpt lat="45.26363813485099" lon="8.487970314655808"><ele>115.0</ele><time>2026-04-11T08:39:08.002Z</time></trkpt><trkpt lat="45.26356161580284" lon="8.488096103409042"><ele>115.0</ele><time>2026-04-11T08:39:09.002Z</time></trkpt><trkpt lat="45.26348470430748" lon="8.488224295106653"><ele>115.0</ele><time>2026-04-11T08:39:10.002Z</time></trkpt><trkpt lat="45.26341047658926" lon="8.488361592412902"><ele>115.0</ele><time>2026-04-11T08:39:11.002Z</time></trkpt><trkpt lat="45.26332880677608" lon="8.488477657659207"><ele>115.0</ele><time>2026-04-11T08:39:12.002Z</time></trkpt><trkpt lat="45.26324830155537" lon="8.48859596165493"><ele>115.00000000000001</ele><time>2026-04-11T08:39:13.002Z</time></trkpt><trkpt lat="45.26316804264167" lon="8.488699131323292"><ele>115.0</ele><time>2026-04-11T08:39:14.002Z</time></trkpt><trkpt lat="45.26309446414499" lon="8.488790415269149"><ele>115.0</ele><time>2026-04-11T08:39:15.002Z</time></trkpt><trkpt lat="45.263029680454906" lon="8.48886522216678"><ele>115.0</ele><time>2026-04-11T08:39:16.002Z</time></trkpt><trkpt lat="45.262974513179785" lon="8.488926800515985"><ele>115.00000000000001</ele><time>2026-04-11T08:39:17.002Z</time></trkpt><trkpt lat="45.26291881181812" lon="8.489006753697714"><ele>115.0</ele><time>2026-04-11T08:39:19Z</time></trkpt><trkpt lat="45.262851554618756" lon="8.489078852589083"><ele>115.00000000000001</ele><time>2026-04-11T08:39:23Z</time></trkpt><trkpt lat="45.26281115764035" lon="8.489162422497305"><ele>115.0</ele><time>2026-04-11T08:39:24Z</time></trkpt><trkpt lat="45.26275234040235" lon="8.489256757485832"><ele>115.0</ele><time>2026-04-11T08:39:25Z</time></trkpt><trkpt lat="45.262687661637166" lon="8.489338365437561"><ele>115.0</ele><time>2026-04-11T08:39:26Z</time></trkpt><trkpt lat="45.26261783286348" lon="8.489400962790295"><ele>115.00000000000001</ele><time>2026-04-11T08:39:27Z</time></trkpt><trkpt lat="45.262532890276965" lon="8.4894796868487"><ele>115.0</ele><time>2026-04-11T08:39:28Z</time></trkpt><trkpt lat="45.26244021757711" lon="8.489571774040071"><ele>114.6</ele><time>2026-04-11T08:39:29Z</time></trkpt><trkpt lat="45.26234630845965" lon="8.489667398126986"><ele>114.2</ele><time>2026-04-11T08:39:30Z</time></trkpt><trkpt lat="45.262259652882236" lon="8.489756481602603"><ele>113.80000000000001</ele><time>2026-04-11T08:39:31Z</time></trkpt><trkpt lat="45.262175367328595" lon="8.489844317538264"><ele>113.4</ele><time>2026-04-11T08:39:32Z</time></trkpt><trkpt lat="45.26209893506539" lon="8.489937219696118"><ele>113.0</ele><time>2026-04-11T08:39:33Z</time></trkpt><trkpt lat="45.262036910653066" lon="8.490035623910986"><ele>112.99999999999999</ele><time>2026-04-11T08:39:34Z</time></trkpt><trkpt lat="45.261978509059304" lon="8.490135420730661"><ele>113.0</ele><time>2026-04-11T08:39:35Z</time></trkpt><trkpt lat="45.26192928791097" lon="8.490220898799217"><ele>113.0</ele><time>2026-04-11T08:39:36Z</time></trkpt><trkpt lat="45.261884534783334" lon="8.490298935929456"><ele>113.0</ele><time>2026-04-11T08:39:37Z</time></trkpt><trkpt lat="45.26184181206298" lon="8.490382930194457"><ele>112.99999999999999</ele><time>2026-04-11T08:39:38Z</time></trkpt><trkpt lat="45.26180387175164" lon="8.490458377154951"><ele>113.0</ele><time>2026-04-11T08:39:39Z</time></trkpt><trkpt lat="45.26176065544984" lon="8.49054174804123"><ele>112.99999999999999</ele><time>2026-04-11T08:39:40Z</time></trkpt><trkpt lat="45.261706017356914" lon="8.490615458516897"><ele>113.0</ele><time>2026-04-11T08:39:41Z</time></trkpt><trkpt lat="45.26164563671236" lon="8.490694010867578"><ele>113.0</ele><time>2026-04-11T08:39:42Z</time></trkpt><trkpt lat="45.26159683436552" lon="8.490768968425185"><ele>113.0</ele><time>2026-04-11T08:39:43Z</time></trkpt><trkpt lat="45.26152995526935" lon="8.490891254514933"><ele>112.99999999999999</ele><time>2026-04-11T08:39:45Z</time></trkpt><trkpt lat="45.261481695361525" lon="8.490966063950218"><ele>113.0</ele><time>2026-04-11T08:39:47Z</time></trkpt><trkpt lat="45.261450872418315" lon="8.491051098322776"><ele>113.2</ele><time>2026-04-11T08:39:49Z</time></trkpt><trkpt lat="45.26136904158688" lon="8.491176493169453"><ele>113.4</ele><time>2026-04-11T08:39:51Z</time></trkpt><trkpt lat="45.261316032568104" lon="8.491272211036607"><ele>113.60000000000001</ele><time>2026-04-11T08:39:52Z</time></trkpt><trkpt lat="45.261261730119145" lon="8.49136701389652"><ele>113.80000000000001</ele><time>2026-04-11T08:39:53Z</time></trkpt><trkpt lat="45.261218580692486" lon="8.491465993295535"><ele>114.0</ele><time>2026-04-11T08:39:54.001Z</time></trkpt><trkpt lat="45.261172829411045" lon="8.491569433825106"><ele>114.0</ele><time>2026-04-11T08:39:55.001Z</time></trkpt><trkpt lat="45.261117434030055" lon="8.49167016366131"><ele>114.0</ele><time>2026-04-11T08:39:56.001Z</time></trkpt><trkpt lat="45.26105230872917" lon="8.491769963463875"><ele>114.0</ele><time>2026-04-11T08:39:57.001Z</time></trkpt><trkpt lat="45.26098025091984" lon="8.491871775420053"><ele>114.0</ele><time>2026-04-11T08:39:58.001Z</time></trkpt><trkpt lat="45.26089743511165" lon="8.491961136695963"><ele>114.0</ele><time>2026-04-11T08:39:59.001Z</time></trkpt><trkpt lat="45.26081741122251" lon="8.492045889234767"><ele>114.2</ele><time>2026-04-11T08:40:00.001Z</time></trkpt><trkpt lat="45.26074501340709" lon="8.492129879849438"><ele>114.4</ele><time>2026-04-11T08:40:01.001Z</time></trkpt><trkpt lat="45.2606850339736" lon="8.492213432498135"><ele>114.6</ele><time>2026-04-11T08:40:02.001Z</time></trkpt><trkpt lat="45.260619649094146" lon="8.492269733535615"><ele>114.8</ele><time>2026-04-11T08:40:03.001Z</time></trkpt><trkpt lat="45.26058897164477" lon="8.492433422576724"><ele>115.0</ele><time>2026-04-11T08:40:04.001Z</time></trkpt><trkpt lat="45.260563883798056" lon="8.492597759965323"><ele>115.0</ele><time>2026-04-11T08:40:05.001Z</time></trkpt><trkpt lat="45.26053759799656" lon="8.492773095388669"><ele>115.0</ele><time>2026-04-11T08:40:06.001Z</time></trkpt><trkpt lat="45.26048833202135" lon="8.492943294375602"><ele>115.0</ele><time>2026-04-11T08:40:07.001Z</time></trkpt><trkpt lat="45.26042849820207" lon="8.49312018294192"><ele>115.0</ele><time>2026-04-11T08:40:08.001Z</time></trkpt><trkpt lat="45.26037126140057" lon="8.493294210321146"><ele>114.75</ele><time>2026-04-11T08:40:09.001Z</time></trkpt><trkpt lat="45.260314808072124" lon="8.493459412406667"><ele>114.5</ele><time>2026-04-11T08:40:10.001Z</time></trkpt><trkpt lat="45.26027328450164" lon="8.493633845911187"><ele>114.25</ele><time>2026-04-11T08:40:11.001Z</time></trkpt><trkpt lat="45.260224272791646" lon="8.493808643763826"><ele>114.0</ele><time>2026-04-11T08:40:12.001Z</time></trkpt><trkpt lat="45.2601795162562" lon="8.493984535998981"><ele>113.75</ele><time>2026-04-11T08:40:13.001Z</time></trkpt><trkpt lat="45.26013719588901" lon="8.494158550220375"><ele>113.5</ele><time>2026-04-11T08:40:14.001Z</time></trkpt><trkpt lat="45.260100491429434" lon="8.494327745615026"><ele>113.25</ele><time>2026-04-11T08:40:15.001Z</time></trkpt><trkpt lat="45.26006346148593" lon="8.49447838785278"><ele>113.0</ele><time>2026-04-11T08:40:16.001Z</time></trkpt><trkpt lat="45.260026357267506" lon="8.494616097421805"><ele>113.0</ele><time>2026-04-11T08:40:17.001Z</time></trkpt><trkpt lat="45.25998243558674" lon="8.494733473743063"><ele>113.00000000000001</ele><time>2026-04-11T08:40:18.001Z</time></trkpt><trkpt lat="45.259938778919654" lon="8.494844475131051"><ele>113.00000000000001</ele><time>2026-04-11T08:40:19.001Z</time></trkpt><trkpt lat="45.25988447554502" lon="8.494962706417517"><ele>113.0</ele><time>2026-04-11T08:40:20.001Z</time></trkpt><trkpt lat="45.25982346543369" lon="8.495071019082356"><ele>113.0</ele><time>2026-04-11T08:40:21.001Z</time></trkpt><trkpt lat="45.259753290547216" lon="8.495185471558447"><ele>113.0</ele><time>2026-04-11T08:40:22.001Z</time></trkpt><trkpt lat="45.259686299199466" lon="8.495291556194756"><ele>113.00000000000001</ele><time>2026-04-11T08:40:23.001Z</time></trkpt><trkpt lat="45.259631161056795" lon="8.495399626318633"><ele>113.00000000000001</ele><time>2026-04-11T08:40:24.001Z</time></trkpt><trkpt lat="45.259593156266554" lon="8.495509797420969"><ele>113.0</ele><time>2026-04-11T08:40:25.001Z</time></trkpt><trkpt lat="45.25955448838274" lon="8.495648193921102"><ele>113.0</ele><time>2026-04-11T08:40:26.001Z</time></trkpt><trkpt lat="45.25952254596331" lon="8.495800575982699"><ele>112.80000000000001</ele><time>2026-04-11T08:40:27.001Z</time></trkpt><trkpt lat="45.25949117918537" lon="8.495950499667726"><ele>112.60000000000001</ele><time>2026-04-11T08:40:28.001Z</time></trkpt><trkpt lat="45.25946159030621" lon="8.496096992396666"><ele>112.39999999999999</ele><time>2026-04-11T08:40:29.001Z</time></trkpt><trkpt lat="45.259428994298275" lon="8.496229409246837"><ele>112.19999999999999</ele><time>2026-04-11T08:40:30.001Z</time></trkpt><trkpt lat="45.25939595466367" lon="8.496345286896881"><ele>112.0</ele><time>2026-04-11T08:40:31.001Z</time></trkpt><trkpt lat="45.25935694483342" lon="8.496449305769731"><ele>112.0</ele><time>2026-04-11T08:40:32.001Z</time></trkpt><trkpt lat="45.25931137653476" lon="8.496558234538881"><ele>112.0</ele><time>2026-04-11T08:40:33.001Z</time></trkpt><trkpt lat="45.25924668613227" lon="8.496697579721081"><ele>112.0</ele><time>2026-04-11T08:40:34.001Z</time></trkpt><trkpt lat="45.25916947591448" lon="8.496845449397638"><ele>112.0</ele><time>2026-04-11T08:40:35.001Z</time></trkpt><trkpt lat="45.259094530914695" lon="8.49699240582849"><ele>112.0</ele><time>2026-04-11T08:40:36.001Z</time></trkpt><trkpt lat="45.25902861519636" lon="8.497136076491392"><ele>112.0</ele><time>2026-04-11T08:40:37.001Z</time></trkpt><trkpt lat="45.25896765822508" lon="8.497288320592466"><ele>112.0</ele><time>2026-04-11T08:40:38.001Z</time></trkpt><trkpt lat="45.258913699025285" lon="8.497446367254545"><ele>112.0</ele><time>2026-04-11T08:40:39.001Z</time></trkpt><trkpt lat="45.258863792112855" lon="8.497611284935898"><ele>111.8</ele><time>2026-04-11T08:40:40.002Z</time></trkpt><trkpt lat="45.2588269702975" lon="8.497767788450863"><ele>111.6</ele><time>2026-04-11T08:40:41.002Z</time></trkpt><trkpt lat="45.258803004525255" lon="8.497925989744937"><ele>111.39999999999999</ele><time>2026-04-11T08:40:42.002Z</time></trkpt><trkpt lat="45.258788581690496" lon="8.498075705558495"><ele>111.19999999999999</ele><time>2026-04-11T08:40:43.002Z</time></trkpt><trkpt lat="45.25877709765828" lon="8.498226320310527"><ele>111.0</ele><time>2026-04-11T08:40:44.002Z</time></trkpt><trkpt lat="45.258756695374586" lon="8.498352560876016"><ele>111.0</ele><time>2026-04-11T08:40:45.002Z</time></trkpt><trkpt lat="45.25872429606219" lon="8.498459323779878"><ele>111.0</ele><time>2026-04-11T08:40:46.002Z</time></trkpt><trkpt lat="45.25868009084102" lon="8.498536830007813"><ele>111.0</ele><time>2026-04-11T08:40:47.002Z</time></trkpt><trkpt lat="45.25861853680585" lon="8.498618854099789"><ele>111.0</ele><time>2026-04-11T08:40:48.002Z</time></trkpt><trkpt lat="45.258538745047154" lon="8.498705175975061"><ele>111.0</ele><time>2026-04-11T08:40:49.002Z</time></trkpt><trkpt lat="45.25844514440641" lon="8.498796645163972"><ele>110.8</ele><time>2026-04-11T08:40:50.002Z</time></trkpt><trkpt lat="45.25834929571465" lon="8.4988789576417"><ele>110.6</ele><time>2026-04-11T08:40:51.002Z</time></trkpt><trkpt lat="45.25826292640831" lon="8.498950753946891"><ele>110.4</ele><time>2026-04-11T08:40:52.002Z</time></trkpt><trkpt lat="45.25817612581625" lon="8.499026950273672"><ele>110.2</ele><time>2026-04-11T08:40:53.002Z</time></trkpt><trkpt lat="45.25808145632519" lon="8.499113766691591"><ele>110.0</ele><time>2026-04-11T08:40:54.002Z</time></trkpt><trkpt lat="45.257977783832466" lon="8.499196440566017"><ele>110.0</ele><time>2026-04-11T08:40:55.002Z</time></trkpt><trkpt lat="45.25786236349219" lon="8.499261781688013"><ele>110.0</ele><time>2026-04-11T08:40:56.002Z</time></trkpt><trkpt lat="45.257741696666926" lon="8.499307651441926"><ele>110.0</ele><time>2026-04-11T08:40:57.002Z</time></trkpt><trkpt lat="45.25762641943866" lon="8.499380882987117"><ele>110.0</ele><time>2026-04-11T08:40:58.002Z</time></trkpt><trkpt lat="45.25750501527373" lon="8.499431584759344"><ele>110.0</ele><time>2026-04-11T08:40:59.002Z</time></trkpt><trkpt lat="45.25738708306532" lon="8.499484819080559"><ele>110.0</ele><time>2026-04-11T08:41:00.002Z</time></trkpt><trkpt lat="45.25727873660061" lon="8.499552360197042"><ele>110.0</ele><time>2026-04-11T08:41:01.002Z</time></trkpt><trkpt lat="45.2571702973907" lon="8.499634981095534"><ele>110.0</ele><time>2026-04-11T08:41:02.002Z</time></trkpt><trkpt lat="45.25706535312083" lon="8.499722955310958"><ele>110.2</ele><time>2026-04-11T08:41:03.002Z</time></trkpt><trkpt lat="45.256971549797015" lon="8.499812044304093"><ele>110.4</ele><time>2026-04-11T08:41:04.002Z</time></trkpt><trkpt lat="45.256878951580944" lon="8.499886106502613"><ele>110.6</ele><time>2026-04-11T08:41:05.002Z</time></trkpt><trkpt lat="45.256802711819866" lon="8.49995338520548"><ele>110.8</ele><time>2026-04-11T08:41:06.002Z</time></trkpt><trkpt lat="45.25671488046433" lon="8.49998720115541"><ele>111.0</ele><time>2026-04-11T08:41:07.002Z</time></trkpt><trkpt lat="45.25662060732438" lon="8.500042459836761"><ele>111.0</ele><time>2026-04-11T08:41:08.002Z</time></trkpt><trkpt lat="45.25651379808035" lon="8.500055236014934"><ele>111.0</ele><time>2026-04-11T08:41:09.002Z</time></trkpt><trkpt lat="45.25638746799109" lon="8.500062620662291"><ele>111.0</ele><time>2026-04-11T08:41:10.002Z</time></trkpt><trkpt lat="45.2562481451674" lon="8.500076931208717"><ele>111.0</ele><time>2026-04-11T08:41:11.002Z</time></trkpt><trkpt lat="45.25610709940388" lon="8.500084208481892"><ele>111.25</ele><time>2026-04-11T08:41:12.002Z</time></trkpt><trkpt lat="45.25596935989092" lon="8.500102268214743"><ele>111.5</ele><time>2026-04-11T08:41:13.002Z</time></trkpt><trkpt lat="45.2558352074185" lon="8.50011643301666"><ele>111.75</ele><time>2026-04-11T08:41:14.002Z</time></trkpt><trkpt lat="45.25570369254357" lon="8.50014905942224"><ele>112.0</ele><time>2026-04-11T08:41:15.002Z</time></trkpt><trkpt lat="45.25557595969361" lon="8.500176202284038"><ele>111.5</ele><time>2026-04-11T08:41:16.002Z</time></trkpt><trkpt lat="45.255449314915694" lon="8.500216689660467"><ele>111.0</ele><time>2026-04-11T08:41:17.002Z</time></trkpt><trkpt lat="45.25532033429015" lon="8.500264682114521"><ele>110.5</ele><time>2026-04-11T08:41:18.002Z</time></trkpt><trkpt lat="45.25519729590628" lon="8.500312813297594"><ele>110.0</ele><time>2026-04-11T08:41:19.002Z</time></trkpt><trkpt lat="45.255078658665646" lon="8.500386473970789"><ele>110.2</ele><time>2026-04-11T08:41:20.002Z</time></trkpt><trkpt lat="45.25496347084538" lon="8.500458831932505"><ele>110.4</ele><time>2026-04-11T08:41:21.002Z</time></trkpt><trkpt lat="45.25485699388219" lon="8.500493825825567"><ele>110.6</ele><time>2026-04-11T08:41:22.002Z</time></trkpt><trkpt lat="45.25476636379635" lon="8.500534714548643"><ele>110.8</ele><time>2026-04-11T08:41:23.002Z</time></trkpt><trkpt lat="45.2546791164406" lon="8.500557419180481"><ele>111.0</ele><time>2026-04-11T08:41:24.001Z</time></trkpt><trkpt lat="45.25458931961946" lon="8.500561048182957"><ele>111.0</ele><time>2026-04-11T08:41:25.001Z</time></trkpt><trkpt lat="45.254513757043014" lon="8.50054600094515"><ele>111.0</ele><time>2026-04-11T08:41:26.001Z</time></trkpt><trkpt lat="45.25443178500906" lon="8.500518024198914"><ele>111.0</ele><time>2026-04-11T08:41:27.001Z</time></trkpt><trkpt lat="45.25431108617325" lon="8.500487315702744"><ele>111.0</ele><time>2026-04-11T08:41:28.001Z</time></trkpt><trkpt lat="45.25420867653343" lon="8.50046578415259"><ele>111.0</ele><time>2026-04-11T08:41:29.001Z</time></trkpt><trkpt lat="45.254110734749425" lon="8.500444421222632"><ele>111.0</ele><time>2026-04-11T08:41:30.001Z</time></trkpt><trkpt lat="45.253996772558246" lon="8.500427194942793"><ele>111.0</ele><time>2026-04-11T08:41:31.001Z</time></trkpt><trkpt lat="45.25388404996973" lon="8.500411797095229"><ele>111.0</ele><time>2026-04-11T08:41:32.001Z</time></trkpt><trkpt lat="45.25376903926789" lon="8.500397604777238"><ele>111.0</ele><time>2026-04-11T08:41:33.001Z</time></trkpt><trkpt lat="45.25364548851433" lon="8.500383932105649"><ele>111.0</ele><time>2026-04-11T08:41:34Z</time></trkpt><trkpt lat="45.25352338466624" lon="8.500366071004647"><ele>111.0</ele><time>2026-04-11T08:41:35Z</time></trkpt><trkpt lat="45.25339764567156" lon="8.500346979638834"><ele>111.0</ele><time>2026-04-11T08:41:36Z</time></trkpt><trkpt lat="45.253271762098194" lon="8.500331795471904"><ele>111.0</ele><time>2026-04-11T08:41:37Z</time></trkpt><trkpt lat="45.253146066307934" lon="8.500316414672445"><ele>111.25</ele><time>2026-04-11T08:41:38Z</time></trkpt><trkpt lat="45.25302124634558" lon="8.500301128222548"><ele>111.5</ele><time>2026-04-11T08:41:39Z</time></trkpt><trkpt lat="45.25289655100097" lon="8.500289099184304"><ele>111.75</ele><time>2026-04-11T08:41:40Z</time></trkpt><trkpt lat="45.25277018311967" lon="8.500271529881058"><ele>112.0</ele><time>2026-04-11T08:41:41Z</time></trkpt><trkpt lat="45.2526416355348" lon="8.500253186352014"><ele>112.0</ele><time>2026-04-11T08:41:42Z</time></trkpt><trkpt lat="45.25251407125855" lon="8.500236165401224"><ele>112.0</ele><time>2026-04-11T08:41:43Z</time></trkpt><trkpt lat="45.25238820560895" lon="8.500220318360071"><ele>112.0</ele><time>2026-04-11T08:41:44.001Z</time></trkpt><trkpt lat="45.25226903889533" lon="8.500207701542351"><ele>112.0</ele><time>2026-04-11T08:41:45.001Z</time></trkpt><trkpt lat="45.25215648014154" lon="8.500201009405428"><ele>111.8</ele><time>2026-04-11T08:41:46.001Z</time></trkpt><trkpt lat="45.25205325295593" lon="8.500185752242544"><ele>111.6</ele><time>2026-04-11T08:41:47.001Z</time></trkpt><trkpt lat="45.25195101613887" lon="8.500178436673941"><ele>111.39999999999999</ele><time>2026-04-11T08:41:48.001Z</time></trkpt><trkpt lat="45.251846006006645" lon="8.500194213449836"><ele>111.19999999999999</ele><time>2026-04-11T08:41:49.001Z</time></trkpt><trkpt lat="45.251742271492134" lon="8.50021258560723"><ele>111.0</ele><time>2026-04-11T08:41:50.001Z</time></trkpt><trkpt lat="45.25162281642659" lon="8.50022441611966"><ele>111.0</ele><time>2026-04-11T08:41:51.001Z</time></trkpt><trkpt lat="45.25150793626089" lon="8.50025382328977"><ele>111.0</ele><time>2026-04-11T08:41:52.001Z</time></trkpt><trkpt lat="45.25139468761764" lon="8.500278258479598"><ele>111.0</ele><time>2026-04-11T08:41:53.001Z</time></trkpt><trkpt lat="45.251284570768355" lon="8.500306940278488"><ele>111.0</ele><time>2026-04-11T08:41:54.001Z</time></trkpt><trkpt lat="45.251178623786586" lon="8.500335412232575"><ele>111.0</ele><time>2026-04-11T08:41:55.001Z</time></trkpt><trkpt lat="45.25108207524207" lon="8.50036395466754"><ele>111.0</ele><time>2026-04-11T08:41:56.001Z</time></trkpt><trkpt lat="45.2509897868083" lon="8.500398933623236"><ele>111.0</ele><time>2026-04-11T08:41:57.001Z</time></trkpt><trkpt lat="45.25089320641027" lon="8.500430738109428"><ele>111.0</ele><time>2026-04-11T08:41:58.001Z</time></trkpt><trkpt lat="45.25080166827171" lon="8.50046084149633"><ele>111.0</ele><time>2026-04-11T08:41:59.001Z</time></trkpt><trkpt lat="45.25072402571132" lon="8.500488037988497"><ele>110.8</ele><time>2026-04-11T08:42:00.001Z</time></trkpt><trkpt lat="45.25066048668092" lon="8.500522573469466"><ele>110.6</ele><time>2026-04-11T08:42:01.001Z</time></trkpt><trkpt lat="45.25057115896023" lon="8.500641024052383"><ele>110.4</ele><time>2026-04-11T08:42:03.001Z</time></trkpt><trkpt lat="45.25054085808946" lon="8.50081580142614"><ele>110.2</ele><time>2026-04-11T08:42:05.001Z</time></trkpt><trkpt lat="45.2505361647248" lon="8.500922194561342"><ele>110.0</ele><time>2026-04-11T08:42:06.001Z</time></trkpt><trkpt lat="45.25052520785993" lon="8.501041238271464"><ele>109.99999999999999</ele><time>2026-04-11T08:42:07.001Z</time></trkpt><trkpt lat="45.2505010775798" lon="8.501127413047271"><ele>110.0</ele><time>2026-04-11T08:42:08.001Z</time></trkpt><trkpt lat="45.25045166945728" lon="8.501209424842179"><ele>110.0</ele><time>2026-04-11T08:42:09.001Z</time></trkpt><trkpt lat="45.250390128096974" lon="8.50127933277451"><ele>110.0</ele><time>2026-04-11T08:42:10.001Z</time></trkpt><trkpt lat="45.25030595515387" lon="8.501351449800584"><ele>109.99999999999999</ele><time>2026-04-11T08:42:11.001Z</time></trkpt><trkpt lat="45.25021432063671" lon="8.501438094387817"><ele>110.0</ele><time>2026-04-11T08:42:12.001Z</time></trkpt><trkpt lat="45.250130240080495" lon="8.501532679836897"><ele>109.8</ele><time>2026-04-11T08:42:13.001Z</time></trkpt><trkpt lat="45.25006000716696" lon="8.501630371565291"><ele>109.6</ele><time>2026-04-11T08:42:14.001Z</time></trkpt><trkpt lat="45.250005860130884" lon="8.501717641205477"><ele>109.4</ele><time>2026-04-11T08:42:15.001Z</time></trkpt><trkpt lat="45.24995222484638" lon="8.501826157148868"><ele>109.2</ele><time>2026-04-11T08:42:16.001Z</time></trkpt><trkpt lat="45.24988554328833" lon="8.50194484501092"><ele>109.0</ele><time>2026-04-11T08:42:17.001Z</time></trkpt><trkpt lat="45.24981935272741" lon="8.502062949060205"><ele>109.0</ele><time>2026-04-11T08:42:18.001Z</time></trkpt><trkpt lat="45.24975442779361" lon="8.502177649845699"><ele>109.0</ele><time>2026-04-11T08:42:19.001Z</time></trkpt><trkpt lat="45.24970644748959" lon="8.502301197895168"><ele>109.0</ele><time>2026-04-11T08:42:20.001Z</time></trkpt><trkpt lat="45.24967388139576" lon="8.502432034626436"><ele>109.0</ele><time>2026-04-11T08:42:21.001Z</time></trkpt><trkpt lat="45.24964066465464" lon="8.502580958707405"><ele>109.0</ele><time>2026-04-11T08:42:22.001Z</time></trkpt><trkpt lat="45.24960709171282" lon="8.502739200817567"><ele>109.25</ele><time>2026-04-11T08:42:23.001Z</time></trkpt><trkpt lat="45.249562449632954" lon="8.502922456191447"><ele>109.5</ele><time>2026-04-11T08:42:24.001Z</time></trkpt><trkpt lat="45.249517019286316" lon="8.503098325676286"><ele>109.75</ele><time>2026-04-11T08:42:25.001Z</time></trkpt><trkpt lat="45.24947488307351" lon="8.503266611786133"><ele>110.0</ele><time>2026-04-11T08:42:26.001Z</time></trkpt><trkpt lat="45.24943522292849" lon="8.503418972540045"><ele>110.0</ele><time>2026-04-11T08:42:27.001Z</time></trkpt><trkpt lat="45.24940706393016" lon="8.503558390643496"><ele>110.0</ele><time>2026-04-11T08:42:28.001Z</time></trkpt><trkpt lat="45.249370067284005" lon="8.50368255594714"><ele>110.0</ele><time>2026-04-11T08:42:29.001Z</time></trkpt><trkpt lat="45.24933923661282" lon="8.503813151936992"><ele>110.0</ele><time>2026-04-11T08:42:30.001Z</time></trkpt><trkpt lat="45.24931227140509" lon="8.50392373321287"><ele>110.0</ele><time>2026-04-11T08:42:31.001Z</time></trkpt><trkpt lat="45.24928800574047" lon="8.504028551447064"><ele>110.16666666666666</ele><time>2026-04-11T08:42:32.001Z</time></trkpt><trkpt lat="45.24926731131085" lon="8.504122952675628"><ele>110.33333333333333</ele><time>2026-04-11T08:42:33.001Z</time></trkpt><trkpt lat="45.249218960491675" lon="8.504229177990938"><ele>110.5</ele><time>2026-04-11T08:42:35.001Z</time></trkpt><trkpt lat="45.249120732623226" lon="8.504245372760241"><ele>110.66666666666666</ele><time>2026-04-11T08:42:37.001Z</time></trkpt><trkpt lat="45.249046142615796" lon="8.504247099743647"><ele>110.83333333333333</ele><time>2026-04-11T08:42:38.001Z</time></trkpt><trkpt lat="45.24894723592077" lon="8.504258302772291"><ele>111.0</ele><time>2026-04-11T08:42:39.001Z</time></trkpt><trkpt lat="45.248840397799896" lon="8.504263643169283"><ele>111.0</ele><time>2026-04-11T08:42:40.001Z</time></trkpt><trkpt lat="45.24872916282189" lon="8.504262971542062"><ele>111.0</ele><time>2026-04-11T08:42:41.002Z</time></trkpt><trkpt lat="45.24861439557483" lon="8.504271312266049"><ele>111.0</ele><time>2026-04-11T08:42:42.002Z</time></trkpt><trkpt lat="45.24850134495949" lon="8.504271672123823"><ele>111.0</ele><time>2026-04-11T08:42:43.002Z</time></trkpt><trkpt lat="45.24839863409613" lon="8.504298421742133"><ele>111.0</ele><time>2026-04-11T08:42:44.002Z</time></trkpt><trkpt lat="45.248280889283144" lon="8.504306408531077"><ele>111.0</ele><time>2026-04-11T08:42:45.002Z</time></trkpt><trkpt lat="45.248152262540025" lon="8.504308692620532"><ele>111.0</ele><time>2026-04-11T08:42:46.002Z</time></trkpt><trkpt lat="45.24802388634944" lon="8.50431033055977"><ele>111.0</ele><time>2026-04-11T08:42:47.002Z</time></trkpt><trkpt lat="45.24789898865026" lon="8.504314866590708"><ele>111.0</ele><time>2026-04-11T08:42:48.002Z</time></trkpt><trkpt lat="45.247766939469884" lon="8.504314926702467"><ele>110.75</ele><time>2026-04-11T08:42:49.002Z</time></trkpt><trkpt lat="45.247635251680634" lon="8.504316645015038"><ele>110.5</ele><time>2026-04-11T08:42:50.002Z</time></trkpt><trkpt lat="45.247504102712405" lon="8.504319018726026"><ele>110.25</ele><time>2026-04-11T08:42:51.002Z</time></trkpt><trkpt lat="45.24738022717714" lon="8.504322172832781"><ele>110.0</ele><time>2026-04-11T08:42:52.002Z</time></trkpt><trkpt lat="45.24725698154925" lon="8.504324414052782"><ele>109.75</ele><time>2026-04-11T08:42:53.002Z</time></trkpt><trkpt lat="45.24713814776486" lon="8.504325080590213"><ele>109.5</ele><time>2026-04-11T08:42:54.002Z</time></trkpt><trkpt lat="45.24701806092086" lon="8.50432807975446"><ele>109.25</ele><time>2026-04-11T08:42:55.002Z</time></trkpt><trkpt lat="45.246903590436595" lon="8.504332061174686"><ele>109.0</ele><time>2026-04-11T08:42:56.002Z</time></trkpt><trkpt lat="45.246780406342346" lon="8.50433254095511"><ele>109.0</ele><time>2026-04-11T08:42:57.002Z</time></trkpt><trkpt lat="45.24665132251444" lon="8.50433941954281"><ele>109.0</ele><time>2026-04-11T08:42:58.002Z</time></trkpt><trkpt lat="45.246520041929664" lon="8.504345581961243"><ele>109.0</ele><time>2026-04-11T08:42:59.002Z</time></trkpt><trkpt lat="45.24638944836484" lon="8.504356180108754"><ele>109.0</ele><time>2026-04-11T08:43:00.002Z</time></trkpt><trkpt lat="45.24626401129104" lon="8.504352455940293"><ele>109.0</ele><time>2026-04-11T08:43:01.002Z</time></trkpt><trkpt lat="45.24613915751247" lon="8.504339212488606"><ele>109.0</ele><time>2026-04-11T08:43:02.002Z</time></trkpt><trkpt lat="45.246012601868294" lon="8.504361859107794"><ele>109.0</ele><time>2026-04-11T08:43:03.002Z</time></trkpt><trkpt lat="45.24588842796871" lon="8.504366800301879"><ele>109.0</ele><time>2026-04-11T08:43:04.002Z</time></trkpt><trkpt lat="45.2457589666183" lon="8.504374087750236"><ele>108.5</ele><time>2026-04-11T08:43:05.002Z</time></trkpt><trkpt lat="45.24562864886716" lon="8.504386938904803"><ele>108.0</ele><time>2026-04-11T08:43:06.002Z</time></trkpt><trkpt lat="45.245497851550915" lon="8.504398333140594"><ele>107.5</ele><time>2026-04-11T08:43:07.002Z</time></trkpt><trkpt lat="45.245363153085776" lon="8.504402856489417"><ele>107.0</ele><time>2026-04-11T08:43:08.002Z</time></trkpt><trkpt lat="45.2452227894212" lon="8.504413360205755"><ele>107.0</ele><time>2026-04-11T08:43:09.002Z</time></trkpt><trkpt lat="45.24508658319274" lon="8.504422977012695"><ele>107.0</ele><time>2026-04-11T08:43:10.002Z</time></trkpt><trkpt lat="45.244953755710604" lon="8.504433397075172"><ele>107.0</ele><time>2026-04-11T08:43:11.002Z</time></trkpt><trkpt lat="45.244812298676514" lon="8.504439258310834"><ele>107.0</ele><time>2026-04-11T08:43:12.002Z</time></trkpt><trkpt lat="45.24467760623681" lon="8.504432329027654"><ele>107.0</ele><time>2026-04-11T08:43:13.002Z</time></trkpt><trkpt lat="45.244542156317586" lon="8.504459716404357"><ele>107.0</ele><time>2026-04-11T08:43:14.002Z</time></trkpt><trkpt lat="45.244421923965746" lon="8.50445914558829"><ele>107.0</ele><time>2026-04-11T08:43:15.002Z</time></trkpt><trkpt lat="45.244299139064644" lon="8.504469605617981"><ele>107.0</ele><time>2026-04-11T08:43:16.002Z</time></trkpt><trkpt lat="45.24418740660579" lon="8.504482074311793"><ele>107.0</ele><time>2026-04-11T08:43:17.002Z</time></trkpt><trkpt lat="45.244079641718145" lon="8.50448788100974"><ele>106.99999999999999</ele><time>2026-04-11T08:43:18.002Z</time></trkpt><trkpt lat="45.24398097904271" lon="8.504494710884199"><ele>106.99999999999999</ele><time>2026-04-11T08:43:19.002Z</time></trkpt><trkpt lat="45.243887949901556" lon="8.504500941470763"><ele>107.0</ele><time>2026-04-11T08:43:20.002Z</time></trkpt><trkpt lat="45.24380156356027" lon="8.504509672269847"><ele>107.0</ele><time>2026-04-11T08:43:21.002Z</time></trkpt><trkpt lat="45.24372651109385" lon="8.504511592198888"><ele>107.25</ele><time>2026-04-11T08:43:22.002Z</time></trkpt><trkpt lat="45.24362447261077" lon="8.504488288739235"><ele>107.5</ele><time>2026-04-11T08:43:24.002Z</time></trkpt><trkpt lat="45.24354378858615" lon="8.504477353809632"><ele>107.75</ele><time>2026-04-11T08:43:27.002Z</time></trkpt><trkpt lat="45.24352480325226" lon="8.504707054362573"><ele>108.0</ele><time>2026-04-11T08:43:29.002Z</time></trkpt><trkpt lat="45.243496169692" lon="8.504915542474082"><ele>108.0</ele><time>2026-04-11T08:43:31Z</time></trkpt><trkpt lat="45.2434834628996" lon="8.505054106138457"><ele>108.0</ele><time>2026-04-11T08:43:32Z</time></trkpt><trkpt lat="45.24347206670811" lon="8.505176497708762"><ele>108.0</ele><time>2026-04-11T08:43:33Z</time></trkpt><trkpt lat="45.24346152510012" lon="8.505275475797704"><ele>108.0</ele><time>2026-04-11T08:43:34Z</time></trkpt><trkpt lat="45.24344991122148" lon="8.505369333704166"><ele>108.0</ele><time>2026-04-11T08:43:35Z</time></trkpt><trkpt lat="45.24343405611" lon="8.505539958310752"><ele>108.0</ele><time>2026-04-11T08:43:37Z</time></trkpt><trkpt lat="45.243430318319426" lon="8.505643549374813"><ele>108.0</ele><time>2026-04-11T08:43:38Z</time></trkpt><trkpt lat="45.24343407944662" lon="8.505735876426382"><ele>108.0</ele><time>2026-04-11T08:43:39Z</time></trkpt><trkpt lat="45.24347191733219" lon="8.505913688845167"><ele>108.0</ele><time>2026-04-11T08:43:41Z</time></trkpt><trkpt lat="45.24350067595822" lon="8.506002182804751"><ele>108.0</ele><time>2026-04-11T08:43:42Z</time></trkpt><trkpt lat="45.243527825956335" lon="8.50608403361361"><ele>108.0</ele><time>2026-04-11T08:43:43Z</time></trkpt><trkpt lat="45.243577617535095" lon="8.506237015108416"><ele>108.0</ele><time>2026-04-11T08:43:45Z</time></trkpt><trkpt lat="45.243630700961184" lon="8.506409487022621"><ele>108.33333333333333</ele><time>2026-04-11T08:43:47Z</time></trkpt><trkpt lat="45.243661587819275" lon="8.506517967547326"><ele>108.66666666666666</ele><time>2026-04-11T08:43:48Z</time></trkpt><trkpt lat="45.243692701390906" lon="8.506626822988798"><ele>109.0</ele><time>2026-04-11T08:43:49Z</time></trkpt><trkpt lat="45.24371812220388" lon="8.506735364485603"><ele>109.33333333333333</ele><time>2026-04-11T08:43:50Z</time></trkpt><trkpt lat="45.243749936100315" lon="8.50684141226639"><ele>109.66666666666666</ele><time>2026-04-11T08:43:51Z</time></trkpt><trkpt lat="45.24378710867489" lon="8.506960525887607"><ele>110.0</ele><time>2026-04-11T08:43:52Z</time></trkpt><trkpt lat="45.24382122464347" lon="8.50707414228979"><ele>109.99999999999999</ele><time>2026-04-11T08:43:53Z</time></trkpt><trkpt lat="45.24385523409161" lon="8.507188380750856"><ele>110.0</ele><time>2026-04-11T08:43:54Z</time></trkpt><trkpt lat="45.243889162923885" lon="8.507299921618024"><ele>110.0</ele><time>2026-04-11T08:43:55Z</time></trkpt><trkpt lat="45.24392025986042" lon="8.507414032499042"><ele>110.0</ele><time>2026-04-11T08:43:56Z</time></trkpt><trkpt lat="45.24395466667328" lon="8.50753262056694"><ele>109.99999999999999</ele><time>2026-04-11T08:43:57Z</time></trkpt><trkpt lat="45.2439882066185" lon="8.507660380971858"><ele>110.0</ele><time>2026-04-11T08:43:58.001Z</time></trkpt><trkpt lat="45.24401338605724" lon="8.507776049130415"><ele>109.99999999999999</ele><time>2026-04-11T08:43:59.001Z</time></trkpt><trkpt lat="45.244041909476984" lon="8.507907099339073"><ele>110.0</ele><time>2026-04-11T08:44:00.001Z</time></trkpt><trkpt lat="45.24406096003535" lon="8.508034223323623"><ele>110.0</ele><time>2026-04-11T08:44:01.001Z</time></trkpt><trkpt lat="45.24407127699154" lon="8.50816616804344"><ele>110.0</ele><time>2026-04-11T08:44:02.001Z</time></trkpt><trkpt lat="45.24407584566155" lon="8.508291001278124"><ele>109.99999999999999</ele><time>2026-04-11T08:44:03.001Z</time></trkpt><trkpt lat="45.24407612620772" lon="8.508396005381805"><ele>110.0</ele><time>2026-04-11T08:44:04.001Z</time></trkpt><trkpt lat="45.24407932644791" lon="8.508491118668383"><ele>109.83333333333333</ele><time>2026-04-11T08:44:05.001Z</time></trkpt><trkpt lat="45.24408514562757" lon="8.508580452630678"><ele>109.66666666666666</ele><time>2026-04-11T08:44:06.001Z</time></trkpt><trkpt lat="45.24407460551641" lon="8.5087160707054"><ele>109.5</ele><time>2026-04-11T08:44:08.001Z</time></trkpt><trkpt lat="45.243987140713486" lon="8.508697665219326"><ele>109.33333333333334</ele><time>2026-04-11T08:44:11.001Z</time></trkpt><trkpt lat="45.24393611791843" lon="8.50864492210127"><ele>109.16666666666667</ele><time>2026-04-11T08:44:12.001Z</time></trkpt><trkpt lat="45.24387010653901" lon="8.50857375745636"><ele>109.0</ele><time>2026-04-11T08:44:13.001Z</time></trkpt><trkpt lat="45.24378694717086" lon="8.50849296800308"><ele>108.5</ele><time>2026-04-11T08:44:14.001Z</time></trkpt><trkpt lat="45.24367564064557" lon="8.50839151607922"><ele>108.0</ele><time>2026-04-11T08:44:15.001Z</time></trkpt><trkpt lat="45.243563517428925" lon="8.508288183683815"><ele>107.5</ele><time>2026-04-11T08:44:16.001Z</time></trkpt><trkpt lat="45.24345169302567" lon="8.508186619765203"><ele>107.0</ele><time>2026-04-11T08:44:17.001Z</time></trkpt><trkpt lat="45.243348212239155" lon="8.508091149078822"><ele>107.0</ele><time>2026-04-11T08:44:18.001Z</time></trkpt><trkpt lat="45.24323288390437" lon="8.507988750789227"><ele>107.0</ele><time>2026-04-11T08:44:19.001Z</time></trkpt><trkpt lat="45.24312977180336" lon="8.50789626704699"><ele>107.0</ele><time>2026-04-11T08:44:20.001Z</time></trkpt><trkpt lat="45.243037940021075" lon="8.507812103876846"><ele>107.0</ele><time>2026-04-11T08:44:21.001Z</time></trkpt><trkpt lat="45.24295745552719" lon="8.50773959448135"><ele>107.19999999999999</ele><time>2026-04-11T08:44:22.001Z</time></trkpt><trkpt lat="45.24288999948556" lon="8.507680233168763"><ele>107.39999999999999</ele><time>2026-04-11T08:44:23.001Z</time></trkpt><trkpt lat="45.24283157107232" lon="8.507637710372688"><ele>107.60000000000001</ele><time>2026-04-11T08:44:24.001Z</time></trkpt><trkpt lat="45.242710707894275" lon="8.507616680695868"><ele>107.80000000000001</ele><time>2026-04-11T08:44:26.001Z</time></trkpt><trkpt lat="45.24261081009575" lon="8.507629334029623"><ele>108.0</ele><time>2026-04-11T08:44:27.001Z</time></trkpt><trkpt lat="45.24250160348606" lon="8.507639982432453"><ele>108.0</ele><time>2026-04-11T08:44:28.001Z</time></trkpt><trkpt lat="45.2423605000473" lon="8.507649484077039"><ele>108.0</ele><time>2026-04-11T08:44:29.001Z</time></trkpt><trkpt lat="45.242194569154414" lon="8.507660010095538"><ele>108.0</ele><time>2026-04-11T08:44:30.001Z</time></trkpt><trkpt lat="45.242035447977415" lon="8.507665914579945"><ele>108.25</ele><time>2026-04-11T08:44:31.001Z</time></trkpt><trkpt lat="45.24189391369917" lon="8.50767489565624"><ele>108.5</ele><time>2026-04-11T08:44:32.001Z</time></trkpt><trkpt lat="45.241776787703955" lon="8.507683250275715"><ele>108.75</ele><time>2026-04-11T08:44:33.001Z</time></trkpt><trkpt lat="45.24167165745902" lon="8.507692236094286"><ele>109.0</ele><time>2026-04-11T08:44:34.001Z</time></trkpt><trkpt lat="45.241562208918936" lon="8.507700839785928"><ele>108.75</ele><time>2026-04-11T08:44:35.001Z</time></trkpt><trkpt lat="45.24143559168913" lon="8.507709698337427"><ele>108.5</ele><time>2026-04-11T08:44:36.001Z</time></trkpt><trkpt lat="45.24129325758631" lon="8.507714161337429"><ele>108.25</ele><time>2026-04-11T08:44:37.001Z</time></trkpt><trkpt lat="45.24115123595663" lon="8.507724442821655"><ele>108.0</ele><time>2026-04-11T08:44:38.001Z</time></trkpt><trkpt lat="45.24100940483921" lon="8.507733274633528"><ele>108.0</ele><time>2026-04-11T08:44:39.001Z</time></trkpt><trkpt lat="45.2408794440613" lon="8.50773838096337"><ele>108.0</ele><time>2026-04-11T08:44:40.001Z</time></trkpt><trkpt lat="45.24074618857414" lon="8.5077426201627"><ele>108.0</ele><time>2026-04-11T08:44:41.001Z</time></trkpt><trkpt lat="45.240611729682605" lon="8.507743144157073"><ele>108.0</ele><time>2026-04-11T08:44:42.001Z</time></trkpt><trkpt lat="45.24046459690434" lon="8.507744517749149"><ele>108.25</ele><time>2026-04-11T08:44:43.001Z</time></trkpt><trkpt lat="45.24031673395492" lon="8.507752239589465"><ele>108.5</ele><time>2026-04-11T08:44:44.001Z</time></trkpt><trkpt lat="45.24017204320489" lon="8.507763219927785"><ele>108.75</ele><time>2026-04-11T08:44:45.001Z</time></trkpt><trkpt lat="45.24003762293415" lon="8.507768566627602"><ele>109.0</ele><time>2026-04-11T08:44:46.001Z</time></trkpt><trkpt lat="45.23991428873686" lon="8.507778344643247"><ele>109.0</ele><time>2026-04-11T08:44:47.002Z</time></trkpt><trkpt lat="45.239801771060876" lon="8.507787730446141"><ele>109.0</ele><time>2026-04-11T08:44:48.002Z</time></trkpt><trkpt lat="45.239684412774466" lon="8.507791303096013"><ele>109.0</ele><time>2026-04-11T08:44:49.002Z</time></trkpt><trkpt lat="45.23956042439371" lon="8.507797240690513"><ele>109.0</ele><time>2026-04-11T08:44:50.002Z</time></trkpt><trkpt lat="45.23944457517902" lon="8.5077978470667"><ele>109.16666666666667</ele><time>2026-04-11T08:44:51.002Z</time></trkpt><trkpt lat="45.239345682762206" lon="8.50780236737293"><ele>109.33333333333334</ele><time>2026-04-11T08:44:52.002Z</time></trkpt><trkpt lat="45.23926313439048" lon="8.507807904342847"><ele>109.5</ele><time>2026-04-11T08:44:53.002Z</time></trkpt><trkpt lat="45.23919810831614" lon="8.507808537210703"><ele>109.66666666666666</ele><time>2026-04-11T08:44:54.002Z</time></trkpt><trkpt lat="45.23912716113975" lon="8.507839475121472"><ele>109.83333333333333</ele><time>2026-04-11T08:44:56.002Z</time></trkpt><trkpt lat="45.23910755983286" lon="8.50793300835022"><ele>110.0</ele><time>2026-04-11T08:44:58.002Z</time></trkpt><trkpt lat="45.2391146318085" lon="8.508068429884148"><ele>110.2</ele><time>2026-04-11T08:45:00.002Z</time></trkpt><trkpt lat="45.23911818026753" lon="8.50818930322191"><ele>110.4</ele><time>2026-04-11T08:45:01.002Z</time></trkpt><trkpt lat="45.239126010763925" lon="8.508329818329956"><ele>110.6</ele><time>2026-04-11T08:45:02.002Z</time></trkpt><trkpt lat="45.239124501338274" lon="8.508448723832757"><ele>110.8</ele><time>2026-04-11T08:45:03.002Z</time></trkpt><trkpt lat="45.23912117573436" lon="8.508553806473314"><ele>111.0</ele><time>2026-04-11T08:45:04.002Z</time></trkpt><trkpt lat="45.23908514557143" lon="8.508728594215379"><ele>110.66666666666667</ele><time>2026-04-11T08:45:06.002Z</time></trkpt><trkpt lat="45.239040091572434" lon="8.508801351541436"><ele>110.33333333333334</ele><time>2026-04-11T08:45:07.002Z</time></trkpt><trkpt lat="45.238983790813485" lon="8.508853237692138"><ele>110.0</ele><time>2026-04-11T08:45:08.002Z</time></trkpt><trkpt lat="45.23888728764682" lon="8.50895688351185"><ele>109.66666666666667</ele><time>2026-04-11T08:45:10.002Z</time></trkpt><trkpt lat="45.23886653064444" lon="8.509041655341148"><ele>109.33333333333334</ele><time>2026-04-11T08:45:11.002Z</time></trkpt><trkpt lat="45.23886081455167" lon="8.509161382558812"><ele>109.0</ele><time>2026-04-11T08:45:12.002Z</time></trkpt><trkpt lat="45.23886671694577" lon="8.509298247419885"><ele>109.0</ele><time>2026-04-11T08:45:13.002Z</time></trkpt><trkpt lat="45.238876777884094" lon="8.509448143335195"><ele>109.0</ele><time>2026-04-11T08:45:14.002Z</time></trkpt><trkpt lat="45.238885997179985" lon="8.509635118389664"><ele>109.0</ele><time>2026-04-11T08:45:15.002Z</time></trkpt><trkpt lat="45.2388909422572" lon="8.509844950395834"><ele>109.0</ele><time>2026-04-11T08:45:16.002Z</time></trkpt><trkpt lat="45.238896400285086" lon="8.510062029273605"><ele>108.5</ele><time>2026-04-11T08:45:17.002Z</time></trkpt><trkpt lat="45.23890044798278" lon="8.510255688134585"><ele>108.0</ele><time>2026-04-11T08:45:18.002Z</time></trkpt><trkpt lat="45.23890272335021" lon="8.510429031919038"><ele>107.5</ele><time>2026-04-11T08:45:19.002Z</time></trkpt><trkpt lat="45.238924470344045" lon="8.510604335733657"><ele>107.0</ele><time>2026-04-11T08:45:20.002Z</time></trkpt><trkpt lat="45.23892227892151" lon="8.510755633795482"><ele>106.8</ele><time>2026-04-11T08:45:21.002Z</time></trkpt><trkpt lat="45.23893291878617" lon="8.510880500175611"><ele>106.6</ele><time>2026-04-11T08:45:22.002Z</time></trkpt><trkpt lat="45.23893421400409" lon="8.510988031537883"><ele>106.39999999999999</ele><time>2026-04-11T08:45:23.002Z</time></trkpt><trkpt lat="45.23890926244247" lon="8.511110776418256"><ele>106.19999999999999</ele><time>2026-04-11T08:45:25.002Z</time></trkpt><trkpt lat="45.238838942546096" lon="8.51117958158779"><ele>106.0</ele><time>2026-04-11T08:45:27.002Z</time></trkpt><trkpt lat="45.23865697288177" lon="8.511050781260517"><ele>106.0</ele><time>2026-04-11T08:45:29.002Z</time></trkpt><trkpt lat="45.23853290387183" lon="8.511011335816438"><ele>106.0</ele><time>2026-04-11T08:45:30.002Z</time></trkpt><trkpt lat="45.238398410413275" lon="8.511010886606213"><ele>106.0</ele><time>2026-04-11T08:45:31.002Z</time></trkpt><trkpt lat="45.23824686739154" lon="8.510992249723936"><ele>106.0</ele><time>2026-04-11T08:45:32.002Z</time></trkpt><trkpt lat="45.23808113162589" lon="8.51097611878037"><ele>106.0</ele><time>2026-04-11T08:45:33.002Z</time></trkpt><trkpt lat="45.23792300538426" lon="8.510950306918556"><ele>106.0</ele><time>2026-04-11T08:45:34.002Z</time></trkpt><trkpt lat="45.23776156670948" lon="8.510929835440203"><ele>106.0</ele><time>2026-04-11T08:45:35.002Z</time></trkpt><trkpt lat="45.23757552584173" lon="8.510900617830078"><ele>106.0</ele><time>2026-04-11T08:45:36.001Z</time></trkpt><trkpt lat="45.2373789329814" lon="8.51086417549895"><ele>106.0</ele><time>2026-04-11T08:45:37.001Z</time></trkpt><trkpt lat="45.23718117394005" lon="8.510836215970414"><ele>106.0</ele><time>2026-04-11T08:45:38.001Z</time></trkpt><trkpt lat="45.236988570472064" lon="8.510807649969443"><ele>106.0</ele><time>2026-04-11T08:45:39.001Z</time></trkpt><trkpt lat="45.23680026223162" lon="8.510783699652102"><ele>106.0</ele><time>2026-04-11T08:45:40Z</time></trkpt><trkpt lat="45.23662038271596" lon="8.510759653289082"><ele>106.0</ele><time>2026-04-11T08:45:41.001Z</time></trkpt><trkpt lat="45.2364399940571" lon="8.510733406089258"><ele>106.33333333333334</ele><time>2026-04-11T08:45:42Z</time></trkpt><trkpt lat="45.236266437667624" lon="8.510710273873311"><ele>106.66666666666666</ele><time>2026-04-11T08:45:43Z</time></trkpt><trkpt lat="45.236094166972094" lon="8.510686724381669"><ele>107.0</ele><time>2026-04-11T08:45:44Z</time></trkpt><trkpt lat="45.23594154340877" lon="8.51066836550335"><ele>107.0</ele><time>2026-04-11T08:45:45Z</time></trkpt><trkpt lat="45.235781994802686" lon="8.510653524863995"><ele>107.0</ele><time>2026-04-11T08:45:46Z</time></trkpt><trkpt lat="45.23562289342743" lon="8.510648498256385"><ele>107.0</ele><time>2026-04-11T08:45:47Z</time></trkpt><trkpt lat="45.235447679843176" lon="8.510651888627844"><ele>107.0</ele><time>2026-04-11T08:45:48Z</time></trkpt><trkpt lat="45.23526431370473" lon="8.51065583114279"><ele>107.0</ele><time>2026-04-11T08:45:49Z</time></trkpt><trkpt lat="45.23507184804295" lon="8.510656199554516"><ele>107.0</ele><time>2026-04-11T08:45:50Z</time></trkpt><trkpt lat="45.23487812695478" lon="8.510657549259525"><ele>107.0</ele><time>2026-04-11T08:45:51Z</time></trkpt><trkpt lat="45.23470247069629" lon="8.510657990928316"><ele>107.0</ele><time>2026-04-11T08:45:52Z</time></trkpt><trkpt lat="45.234533431893595" lon="8.510662831756704"><ele>107.0</ele><time>2026-04-11T08:45:53Z</time></trkpt><trkpt lat="45.23437359815349" lon="8.510665810792561"><ele>107.0</ele><time>2026-04-11T08:45:54Z</time></trkpt><trkpt lat="45.234212441435794" lon="8.51066961682097"><ele>107.0</ele><time>2026-04-11T08:45:55Z</time></trkpt><trkpt lat="45.2340356792995" lon="8.510676226340381"><ele>107.0</ele><time>2026-04-11T08:45:56Z</time></trkpt><trkpt lat="45.233859467425624" lon="8.510683827591658"><ele>107.0</ele><time>2026-04-11T08:45:57Z</time></trkpt><trkpt lat="45.23367624717261" lon="8.510697819182639"><ele>107.0</ele><time>2026-04-11T08:45:58Z</time></trkpt><trkpt lat="45.23348950365907" lon="8.510706874659382"><ele>107.0</ele><time>2026-04-11T08:45:59Z</time></trkpt><trkpt lat="45.23329922053422" lon="8.510710879412091"><ele>107.0</ele><time>2026-04-11T08:46:00.001Z</time></trkpt><trkpt lat="45.23311860745666" lon="8.510712363078332"><ele>107.0</ele><time>2026-04-11T08:46:01.001Z</time></trkpt><trkpt lat="45.232938256707975" lon="8.510725342352808"><ele>107.0</ele><time>2026-04-11T08:46:02.001Z</time></trkpt><trkpt lat="45.232761668473074" lon="8.510728266654288"><ele>107.0</ele><time>2026-04-11T08:46:03.001Z</time></trkpt><trkpt lat="45.232593904594445" lon="8.510734306927912"><ele>107.0</ele><time>2026-04-11T08:46:04.001Z</time></trkpt><trkpt lat="45.2324431053558" lon="8.510733140330753"><ele>107.0</ele><time>2026-04-11T08:46:05.001Z</time></trkpt><trkpt lat="45.232302295976574" lon="8.510740987773884"><ele>106.75</ele><time>2026-04-11T08:46:06.001Z</time></trkpt><trkpt lat="45.23217625222553" lon="8.510745679125725"><ele>106.5</ele><time>2026-04-11T08:46:07.001Z</time></trkpt><trkpt lat="45.23205777028967" lon="8.510746531956558"><ele>106.25</ele><time>2026-04-11T08:46:08.001Z</time></trkpt><trkpt lat="45.23194998990648" lon="8.51074152338647"><ele>106.0</ele><time>2026-04-11T08:46:09.001Z</time></trkpt><trkpt lat="45.231850876352176" lon="8.510724854660152"><ele>106.0</ele><time>2026-04-11T08:46:10.001Z</time></trkpt><trkpt lat="45.231756461242135" lon="8.510682818639888"><ele>106.0</ele><time>2026-04-11T08:46:11.001Z</time></trkpt><trkpt lat="45.23166028529765" lon="8.510613367822177"><ele>106.0</ele><time>2026-04-11T08:46:12.001Z</time></trkpt><trkpt lat="45.231561998000586" lon="8.510520303396955"><ele>106.0</ele><time>2026-04-11T08:46:13.001Z</time></trkpt><trkpt lat="45.231450534217224" lon="8.510404570442626"><ele>106.66666666666667</ele><time>2026-04-11T08:46:14.001Z</time></trkpt><trkpt lat="45.2313223961794" lon="8.510276948661685"><ele>107.33333333333334</ele><time>2026-04-11T08:46:15.001Z</time></trkpt><trkpt lat="45.2311850412681" lon="8.510137492418385"><ele>108.0</ele><time>2026-04-11T08:46:16.001Z</time></trkpt><trkpt lat="45.23104769291726" lon="8.51000053549244"><ele>108.0</ele><time>2026-04-11T08:46:17.001Z</time></trkpt><trkpt lat="45.2309157065542" lon="8.509866342092778"><ele>108.0</ele><time>2026-04-11T08:46:18.001Z</time></trkpt><trkpt lat="45.2307951850118" lon="8.5097452351727"><ele>108.0</ele><time>2026-04-11T08:46:19.001Z</time></trkpt><trkpt lat="45.230684448983965" lon="8.5096347696575"><ele>108.0</ele><time>2026-04-11T08:46:20.001Z</time></trkpt><trkpt lat="45.23057336654228" lon="8.50952436015514"><ele>107.5</ele><time>2026-04-11T08:46:21.001Z</time></trkpt><trkpt lat="45.23046790898372" lon="8.50941666503412"><ele>107.0</ele><time>2026-04-11T08:46:22.001Z</time></trkpt><trkpt lat="45.23037089047041" lon="8.509327725274783"><ele>106.5</ele><time>2026-04-11T08:46:23.001Z</time></trkpt><trkpt lat="45.230274091999924" lon="8.509252390974494"><ele>106.0</ele><time>2026-04-11T08:46:24.001Z</time></trkpt><trkpt lat="45.23018381368862" lon="8.509196338517103"><ele>106.0</ele><time>2026-04-11T08:46:25.001Z</time></trkpt><trkpt lat="45.230084854555834" lon="8.509157060237008"><ele>106.0</ele><time>2026-04-11T08:46:26.001Z</time></trkpt><trkpt lat="45.2299705339526" lon="8.50913859163746"><ele>106.0</ele><time>2026-04-11T08:46:27.001Z</time></trkpt><trkpt lat="45.229850425534885" lon="8.50913470199976"><ele>106.0</ele><time>2026-04-11T08:46:28.001Z</time></trkpt><trkpt lat="45.22971313005633" lon="8.50914058520147"><ele>105.66666666666667</ele><time>2026-04-11T08:46:29.001Z</time></trkpt><trkpt lat="45.22955958937994" lon="8.509161419746258"><ele>105.33333333333334</ele><time>2026-04-11T08:46:30.001Z</time></trkpt><trkpt lat="45.229392563104845" lon="8.5091833112017"><ele>105.0</ele><time>2026-04-11T08:46:31.001Z</time></trkpt><trkpt lat="45.229220165298024" lon="8.50920545637089"><ele>105.0</ele><time>2026-04-11T08:46:32.001Z</time></trkpt><trkpt lat="45.229035568421146" lon="8.509226104341021"><ele>105.0</ele><time>2026-04-11T08:46:33.001Z</time></trkpt><trkpt lat="45.22883639657007" lon="8.509247653904435"><ele>105.0</ele><time>2026-04-11T08:46:34.001Z</time></trkpt><trkpt lat="45.228662291418445" lon="8.509267765674092"><ele>105.0</ele><time>2026-04-11T08:46:35.001Z</time></trkpt><trkpt lat="45.22851295656554" lon="8.509287267769801"><ele>105.0</ele><time>2026-04-11T08:46:36.001Z</time></trkpt><trkpt lat="45.228371410367544" lon="8.509308211542875"><ele>105.0</ele><time>2026-04-11T08:46:37.001Z</time></trkpt><trkpt lat="45.22824862375334" lon="8.509321583286702"><ele>105.0</ele><time>2026-04-11T08:46:38.001Z</time></trkpt><trkpt lat="45.2281313473662" lon="8.509334941020477"><ele>104.8</ele><time>2026-04-11T08:46:39.001Z</time></trkpt><trkpt lat="45.22801975019892" lon="8.509341794226245"><ele>104.6</ele><time>2026-04-11T08:46:40.001Z</time></trkpt><trkpt lat="45.2279097364802" lon="8.509338981100216"><ele>104.4</ele><time>2026-04-11T08:46:41.001Z</time></trkpt><trkpt lat="45.227809082663754" lon="8.50931865143097"><ele>104.2</ele><time>2026-04-11T08:46:42.001Z</time></trkpt><trkpt lat="45.22771897591228" lon="8.50927411979772"><ele>104.0</ele><time>2026-04-11T08:46:43.001Z</time></trkpt><trkpt lat="45.227622560855785" lon="8.509193971784116"><ele>104.0</ele><time>2026-04-11T08:46:44.001Z</time></trkpt><trkpt lat="45.227530801293796" lon="8.509067537485057"><ele>104.0</ele><time>2026-04-11T08:46:45.001Z</time></trkpt><trkpt lat="45.22740725100782" lon="8.508952915202919"><ele>104.0</ele><time>2026-04-11T08:46:46.001Z</time></trkpt><trkpt lat="45.227279480372225" lon="8.508797286402771"><ele>104.0</ele><time>2026-04-11T08:46:47.001Z</time></trkpt><trkpt lat="45.22715705796946" lon="8.508650090512377"><ele>104.25</ele><time>2026-04-11T08:46:48.001Z</time></trkpt><trkpt lat="45.2270531369361" lon="8.508533865276657"><ele>104.5</ele><time>2026-04-11T08:46:49.001Z</time></trkpt><trkpt lat="45.22695675092194" lon="8.508428451982022"><ele>104.75</ele><time>2026-04-11T08:46:50.001Z</time></trkpt><trkpt lat="45.22686991368783" lon="8.508340693428142"><ele>105.0</ele><time>2026-04-11T08:46:51.001Z</time></trkpt><trkpt lat="45.22679585988151" lon="8.508265625032937"><ele>105.0</ele><time>2026-04-11T08:46:52.001Z</time></trkpt><trkpt lat="45.226728273209346" lon="8.50822082232656"><ele>105.0</ele><time>2026-04-11T08:46:53.001Z</time></trkpt><trkpt lat="45.22665299319521" lon="8.508180475177078"><ele>105.0</ele><time>2026-04-11T08:46:54.001Z</time></trkpt><trkpt lat="45.22656979730513" lon="8.50815627766773"><ele>105.0</ele><time>2026-04-11T08:46:55.001Z</time></trkpt><trkpt lat="45.22648068605991" lon="8.508152993158058"><ele>105.0</ele><time>2026-04-11T08:46:56.001Z</time></trkpt><trkpt lat="45.226390911830556" lon="8.508150462974452"><ele>105.0</ele><time>2026-04-11T08:46:57.001Z</time></trkpt><trkpt lat="45.22630998415174" lon="8.508144977936263"><ele>105.66666666666667</ele><time>2026-04-11T08:46:58.002Z</time></trkpt><trkpt lat="45.22623357019793" lon="8.508145619379613"><ele>106.33333333333334</ele><time>2026-04-11T08:46:59.002Z</time></trkpt><trkpt lat="45.22616219966599" lon="8.508171764802144"><ele>107.0</ele><time>2026-04-11T08:47:00.002Z</time></trkpt><trkpt lat="45.22610453472839" lon="8.508234614380191"><ele>107.66666666666667</ele><time>2026-04-11T08:47:01.002Z</time></trkpt><trkpt lat="45.22607201204013" lon="8.508329472916563"><ele>108.33333333333334</ele><time>2026-04-11T08:47:02.002Z</time></trkpt><trkpt lat="45.226056071486816" lon="8.508435929183218"><ele>109.0</ele><time>2026-04-11T08:47:03.002Z</time></trkpt><trkpt lat="45.22604969893318" lon="8.508555614295476"><ele>109.0</ele><time>2026-04-11T08:47:04.002Z</time></trkpt><trkpt lat="45.22601721020053" lon="8.50869177517289"><ele>109.0</ele><time>2026-04-11T08:47:05.002Z</time></trkpt><trkpt lat="45.22599514631988" lon="8.508876631540598"><ele>109.0</ele><time>2026-04-11T08:47:06.002Z</time></trkpt><trkpt lat="45.22596025125695" lon="8.509093615466714"><ele>109.0</ele><time>2026-04-11T08:47:07.002Z</time></trkpt><trkpt lat="45.22592185074083" lon="8.509316902018528"><ele>109.0</ele><time>2026-04-11T08:47:08.002Z</time></trkpt><trkpt lat="45.22588614246391" lon="8.509535640064007"><ele>109.0</ele><time>2026-04-11T08:47:09.002Z</time></trkpt><trkpt lat="45.22585812803943" lon="8.509718678494941"><ele>109.0</ele><time>2026-04-11T08:47:10.002Z</time></trkpt><trkpt lat="45.22583312214549" lon="8.509883230083954"><ele>109.0</ele><time>2026-04-11T08:47:11.002Z</time></trkpt><trkpt lat="45.22580845594917" lon="8.510023945555972"><ele>108.80000000000001</ele><time>2026-04-11T08:47:12.002Z</time></trkpt><trkpt lat="45.22578536895933" lon="8.510157691077376"><ele>108.60000000000001</ele><time>2026-04-11T08:47:13.002Z</time></trkpt><trkpt lat="45.22574028637616" lon="8.510288825184139"><ele>108.4</ele><time>2026-04-11T08:47:15.002Z</time></trkpt><trkpt lat="45.225655894373695" lon="8.510319240945293"><ele>108.2</ele><time>2026-04-11T08:47:18.002Z</time></trkpt><trkpt lat="45.22555216943018" lon="8.510309618094707"><ele>108.0</ele><time>2026-04-11T08:47:20.002Z</time></trkpt><trkpt lat="45.22547064590831" lon="8.510286502957483"><ele>108.80000000000001</ele><time>2026-04-11T08:47:21.002Z</time></trkpt><trkpt lat="45.225368653944834" lon="8.510248851536602"><ele>109.60000000000001</ele><time>2026-04-11T08:47:22.002Z</time></trkpt><trkpt lat="45.22527186797241" lon="8.510217567643817"><ele>110.39999999999999</ele><time>2026-04-11T08:47:23.002Z</time></trkpt><trkpt lat="45.22517689870472" lon="8.510195025015307"><ele>111.19999999999999</ele><time>2026-04-11T08:47:24.002Z</time></trkpt><trkpt lat="45.225074302262485" lon="8.510165436826023"><ele>112.0</ele><time>2026-04-11T08:47:25.002Z</time></trkpt><trkpt lat="45.22495727992104" lon="8.510129780501126"><ele>112.0</ele><time>2026-04-11T08:47:26.002Z</time></trkpt><trkpt lat="45.22483631001335" lon="8.510090282788356"><ele>112.0</ele><time>2026-04-11T08:47:27.002Z</time></trkpt><trkpt lat="45.22472314005906" lon="8.51005173133355"><ele>112.0</ele><time>2026-04-11T08:47:28.002Z</time></trkpt><trkpt lat="45.22461576382952" lon="8.510021955742744"><ele>112.0</ele><time>2026-04-11T08:47:29.002Z</time></trkpt><trkpt lat="45.224507630366496" lon="8.509994055583505"><ele>111.39999999999999</ele><time>2026-04-11T08:47:30.002Z</time></trkpt><trkpt lat="45.22439274887743" lon="8.509954297143333"><ele>110.79999999999998</ele><time>2026-04-11T08:47:31.002Z</time></trkpt><trkpt lat="45.22428687670387" lon="8.50991434834705"><ele>110.2</ele><time>2026-04-11T08:47:32.002Z</time></trkpt><trkpt lat="45.22418392945245" lon="8.509880999636936"><ele>109.6</ele><time>2026-04-11T08:47:33.002Z</time></trkpt><trkpt lat="45.22408981872553" lon="8.509857685588111"><ele>109.0</ele><time>2026-04-11T08:47:34.002Z</time></trkpt><trkpt lat="45.22399971578576" lon="8.509833509010122"><ele>109.00000000000001</ele><time>2026-04-11T08:47:35.002Z</time></trkpt><trkpt lat="45.22390561523654" lon="8.509805584320606"><ele>109.0</ele><time>2026-04-11T08:47:36.002Z</time></trkpt><trkpt lat="45.223819110088876" lon="8.509773836140491"><ele>109.0</ele><time>2026-04-11T08:47:37.002Z</time></trkpt><trkpt lat="45.22374466264923" lon="8.509772323759396"><ele>109.0</ele><time>2026-04-11T08:47:38.002Z</time></trkpt><trkpt lat="45.22366563337787" lon="8.509769748492928"><ele>109.00000000000001</ele><time>2026-04-11T08:47:39.002Z</time></trkpt><trkpt lat="45.22359099829584" lon="8.509771660713"><ele>109.0</ele><time>2026-04-11T08:47:40.002Z</time></trkpt><trkpt lat="45.22351952950289" lon="8.509723270671868"><ele>109.0</ele><time>2026-04-11T08:47:41.002Z</time></trkpt><trkpt lat="45.22343463765204" lon="8.509690163603732"><ele>109.0</ele><time>2026-04-11T08:47:42Z</time></trkpt><trkpt lat="45.22336070442747" lon="8.509594581823746"><ele>109.0</ele><time>2026-04-11T08:47:43Z</time></trkpt><trkpt lat="45.22330933873217" lon="8.509462095494019"><ele>109.0</ele><time>2026-04-11T08:47:44Z</time></trkpt><trkpt lat="45.22324359711274" lon="8.509336509977372"><ele>109.0</ele><time>2026-04-11T08:47:45Z</time></trkpt><trkpt lat="45.22317785266476" lon="8.509234577079095"><ele>109.0</ele><time>2026-04-11T08:47:46Z</time></trkpt><trkpt lat="45.22308114008867" lon="8.509156364947472"><ele>109.0</ele><time>2026-04-11T08:47:47Z</time></trkpt><trkpt lat="45.22296814165115" lon="8.509144622427286"><ele>109.0</ele><time>2026-04-11T08:47:48Z</time></trkpt><trkpt lat="45.22286035529074" lon="8.50911774838573"><ele>109.0</ele><time>2026-04-11T08:47:49Z</time></trkpt><trkpt lat="45.222736971011145" lon="8.509111311852925"><ele>109.0</ele><time>2026-04-11T08:47:50Z</time></trkpt><trkpt lat="45.22260045899541" lon="8.50911664702758"><ele>109.0</ele><time>2026-04-11T08:47:51Z</time></trkpt><trkpt lat="45.22245177108391" lon="8.509107451883976"><ele>109.0</ele><time>2026-04-11T08:47:52Z</time></trkpt><trkpt lat="45.222318564298355" lon="8.509102835551344"><ele>109.0</ele><time>2026-04-11T08:47:53Z</time></trkpt><trkpt lat="45.22219081091703" lon="8.509092008607954"><ele>109.0</ele><time>2026-04-11T08:47:54Z</time></trkpt><trkpt lat="45.22208052018762" lon="8.50907713278523"><ele>109.0</ele><time>2026-04-11T08:47:55Z</time></trkpt><trkpt lat="45.221978112009396" lon="8.50906138687637"><ele>109.0</ele><time>2026-04-11T08:47:56Z</time></trkpt><trkpt lat="45.22188308194661" lon="8.509040570373905"><ele>109.0</ele><time>2026-04-11T08:47:57Z</time></trkpt><trkpt lat="45.22179688170895" lon="8.5090159749987"><ele>109.0</ele><time>2026-04-11T08:47:58Z</time></trkpt><trkpt lat="45.22172136044176" lon="8.508990744367525"><ele>109.0</ele><time>2026-04-11T08:47:59Z</time></trkpt><trkpt lat="45.22165134374624" lon="8.508913332826422"><ele>109.0</ele><time>2026-04-11T08:48:01Z</time></trkpt><trkpt lat="45.22165428774308" lon="8.508722332084101"><ele>109.0</ele><time>2026-04-11T08:48:03Z</time></trkpt><trkpt lat="45.22164090413872" lon="8.508580975081196"><ele>109.0</ele><time>2026-04-11T08:48:04Z</time></trkpt><trkpt lat="45.221647737636744" lon="8.508412690387726"><ele>109.0</ele><time>2026-04-11T08:48:05Z</time></trkpt><trkpt lat="45.221645687088376" lon="8.508241428433912"><ele>109.75</ele><time>2026-04-11T08:48:06Z</time></trkpt><trkpt lat="45.22164049379116" lon="8.508081822871144"><ele>110.5</ele><time>2026-04-11T08:48:07Z</time></trkpt><trkpt lat="45.22163585085318" lon="8.507914274275048"><ele>111.25</ele><time>2026-04-11T08:48:08Z</time></trkpt><trkpt lat="45.22162978806963" lon="8.50773738401981"><ele>112.0</ele><time>2026-04-11T08:48:09Z</time></trkpt><trkpt lat="45.221628918019995" lon="8.507564617931157"><ele>112.0</ele><time>2026-04-11T08:48:10Z</time></trkpt><trkpt lat="45.22162908694285" lon="8.507413764882738"><ele>111.99999999999999</ele><time>2026-04-11T08:48:11Z</time></trkpt><trkpt lat="45.22162876172081" lon="8.507258210403775"><ele>111.99999999999999</ele><time>2026-04-11T08:48:12Z</time></trkpt><trkpt lat="45.2216275959275" lon="8.507094706983228"><ele>112.0</ele><time>2026-04-11T08:48:13Z</time></trkpt><trkpt lat="45.221627344711294" lon="8.506938691965898"><ele>112.0</ele><time>2026-04-11T08:48:14Z</time></trkpt><trkpt lat="45.22162824943465" lon="8.50680685538324"><ele>112.16666666666667</ele><time>2026-04-11T08:48:15.001Z</time></trkpt><trkpt lat="45.2216299962257" lon="8.506690516079358"><ele>112.33333333333334</ele><time>2026-04-11T08:48:16.001Z</time></trkpt><trkpt lat="45.2216321638716" lon="8.506586289743328"><ele>112.5</ele><time>2026-04-11T08:48:17.001Z</time></trkpt><trkpt lat="45.22163338742522" lon="8.506496126510156"><ele>112.66666666666666</ele><time>2026-04-11T08:48:18.001Z</time></trkpt><trkpt lat="45.22162920833583" lon="8.506375350355732"><ele>112.83333333333333</ele><time>2026-04-11T08:48:20.001Z</time></trkpt><trkpt lat="45.22152954022762" lon="8.506309861649944"><ele>113.0</ele><time>2026-04-11T08:48:23.001Z</time></trkpt><trkpt lat="45.22146578716846" lon="8.506324516064176"><ele>112.99999999999999</ele><time>2026-04-11T08:48:24.001Z</time></trkpt><trkpt lat="45.221398022064214" lon="8.506337922592717"><ele>113.0</ele><time>2026-04-11T08:48:25.001Z</time></trkpt><trkpt lat="45.22133130474049" lon="8.5063430248392"><ele>113.0</ele><time>2026-04-11T08:48:26.001Z</time></trkpt><trkpt lat="45.22125689018081" lon="8.506350713209873"><ele>113.0</ele><time>2026-04-11T08:48:27.001Z</time></trkpt><trkpt lat="45.221170272282066" lon="8.506349192586159"><ele>112.99999999999999</ele><time>2026-04-11T08:48:28.001Z</time></trkpt><trkpt lat="45.22107990640033" lon="8.506345526617961"><ele>113.0</ele><time>2026-04-11T08:48:29.001Z</time></trkpt><trkpt lat="45.22098234453755" lon="8.506342549512176"><ele>113.0</ele><time>2026-04-11T08:48:30.001Z</time></trkpt><trkpt lat="45.22087531304773" lon="8.506342942514154"><ele>113.00000000000001</ele><time>2026-04-11T08:48:31.001Z</time></trkpt><trkpt lat="45.22077118543907" lon="8.506340933511465"><ele>113.00000000000001</ele><time>2026-04-11T08:48:32.001Z</time></trkpt><trkpt lat="45.22067346851547" lon="8.506345221040862"><ele>113.0</ele><time>2026-04-11T08:48:33.001Z</time></trkpt><trkpt lat="45.22057468348171" lon="8.50634553176176"><ele>113.0</ele><time>2026-04-11T08:48:34.001Z</time></trkpt><trkpt lat="45.22047096701012" lon="8.50634949771188"><ele>112.60000000000001</ele><time>2026-04-11T08:48:35.001Z</time></trkpt><trkpt lat="45.220372347215296" lon="8.506345116502391"><ele>112.20000000000002</ele><time>2026-04-11T08:48:36.001Z</time></trkpt><trkpt lat="45.220274802746076" lon="8.506339469646228"><ele>111.8</ele><time>2026-04-11T08:48:37.001Z</time></trkpt><trkpt lat="45.22017531651517" lon="8.506335503461521"><ele>111.4</ele><time>2026-04-11T08:48:38.001Z</time></trkpt><trkpt lat="45.22008152803985" lon="8.506340799658494"><ele>111.0</ele><time>2026-04-11T08:48:39.001Z</time></trkpt><trkpt lat="45.219975255538586" lon="8.506344119916124"><ele>111.0</ele><time>2026-04-11T08:48:40.001Z</time></trkpt><trkpt lat="45.21986717962232" lon="8.506344326036107"><ele>111.0</ele><time>2026-04-11T08:48:41.001Z</time></trkpt><trkpt lat="45.21975761360064" lon="8.506343480476959"><ele>111.0</ele><time>2026-04-11T08:48:42.001Z</time></trkpt><trkpt lat="45.21965820069396" lon="8.506339880219654"><ele>111.0</ele><time>2026-04-11T08:48:43.001Z</time></trkpt><trkpt lat="45.219552966325914" lon="8.506340170868164"><ele>111.0</ele><time>2026-04-11T08:48:44.001Z</time></trkpt><trkpt lat="45.21944899740044" lon="8.506341157936609"><ele>111.0</ele><time>2026-04-11T08:48:45.001Z</time></trkpt><trkpt lat="45.2193409903707" lon="8.506340869096844"><ele>111.0</ele><time>2026-04-11T08:48:46.001Z</time></trkpt><trkpt lat="45.21923263678354" lon="8.506336483651754"><ele>111.0</ele><time>2026-04-11T08:48:47.001Z</time></trkpt><trkpt lat="45.219119309709264" lon="8.506336581417548"><ele>111.0</ele><time>2026-04-11T08:48:48.001Z</time></trkpt><trkpt lat="45.21901039957323" lon="8.506332930077928"><ele>111.0</ele><time>2026-04-11T08:48:49.001Z</time></trkpt><trkpt lat="45.21889960119981" lon="8.506328480501804"><ele>111.0</ele><time>2026-04-11T08:48:50.001Z</time></trkpt><trkpt lat="45.218792036431346" lon="8.506320318360844"><ele>111.0</ele><time>2026-04-11T08:48:51.001Z</time></trkpt><trkpt lat="45.21868401714489" lon="8.506313202126467"><ele>111.0</ele><time>2026-04-11T08:48:52.001Z</time></trkpt><trkpt lat="45.21857071696912" lon="8.506306475494402"><ele>111.0</ele><time>2026-04-11T08:48:53.001Z</time></trkpt><trkpt lat="45.21845967072494" lon="8.506305775468833"><ele>111.0</ele><time>2026-04-11T08:48:54.001Z</time></trkpt><trkpt lat="45.2183367447753" lon="8.506302729215161"><ele>111.0</ele><time>2026-04-11T08:48:55.001Z</time></trkpt><trkpt lat="45.21819756815771" lon="8.506299646065877"><ele>111.0</ele><time>2026-04-11T08:48:56.001Z</time></trkpt><trkpt lat="45.21805890785937" lon="8.506296371894331"><ele>111.0</ele><time>2026-04-11T08:48:57.001Z</time></trkpt><trkpt lat="45.21790698815074" lon="8.506288144003573"><ele>111.0</ele><time>2026-04-11T08:48:58.001Z</time></trkpt><trkpt lat="45.2177600469785" lon="8.506287509841624"><ele>111.0</ele><time>2026-04-11T08:48:59.001Z</time></trkpt><trkpt lat="45.21761745042566" lon="8.506285808239546"><ele>111.0</ele><time>2026-04-11T08:49:00.001Z</time></trkpt><trkpt lat="45.21746493412595" lon="8.506285240428799"><ele>111.0</ele><time>2026-04-11T08:49:01.001Z</time></trkpt><trkpt lat="45.21731230775522" lon="8.506282329418253"><ele>111.0</ele><time>2026-04-11T08:49:02.001Z</time></trkpt><trkpt lat="45.21716730959354" lon="8.506275918727166"><ele>111.0</ele><time>2026-04-11T08:49:03.001Z</time></trkpt><trkpt lat="45.2170274459244" lon="8.506270538973649"><ele>111.0</ele><time>2026-04-11T08:49:04.001Z</time></trkpt><trkpt lat="45.21689459335732" lon="8.506262605564277"><ele>111.0</ele><time>2026-04-11T08:49:05.001Z</time></trkpt><trkpt lat="45.216763043001016" lon="8.506255997438727"><ele>111.0</ele><time>2026-04-11T08:49:06.001Z</time></trkpt><trkpt lat="45.21664232423775" lon="8.506247131370142"><ele>111.0</ele><time>2026-04-11T08:49:07.001Z</time></trkpt><trkpt lat="45.216527557043726" lon="8.506236912829644"><ele>111.0</ele><time>2026-04-11T08:49:08.001Z</time></trkpt><trkpt lat="45.21641733484607" lon="8.506219359119426"><ele>111.0</ele><time>2026-04-11T08:49:09.002Z</time></trkpt><trkpt lat="45.21631280036584" lon="8.506195140300697"><ele>111.0</ele><time>2026-04-11T08:49:10.002Z</time></trkpt><trkpt lat="45.21622548897523" lon="8.50615260390802"><ele>111.0</ele><time>2026-04-11T08:49:11.002Z</time></trkpt><trkpt lat="45.21614147027627" lon="8.5061015909855"><ele>111.0</ele><time>2026-04-11T08:49:12.002Z</time></trkpt><trkpt lat="45.21606414568274" lon="8.506076027299702"><ele>111.0</ele><time>2026-04-11T08:49:13.002Z</time></trkpt><trkpt lat="45.215971522368775" lon="8.50603699104374"><ele>111.0</ele><time>2026-04-11T08:49:15.002Z</time></trkpt><trkpt lat="45.215900196080376" lon="8.506006934216058"><ele>111.0</ele><time>2026-04-11T08:50:08Z</time></trkpt><trkpt lat="45.215780029486304" lon="8.505956290294206"><ele>111.0</ele><time>2026-04-11T08:50:10Z</time></trkpt><trkpt lat="45.21570618287966" lon="8.50589849470866"><ele>111.19999999999999</ele><time>2026-04-11T08:50:11Z</time></trkpt><trkpt lat="45.21561981866451" lon="8.505865576380067"><ele>111.39999999999999</ele><time>2026-04-11T08:50:12Z</time></trkpt><trkpt lat="45.21552515802314" lon="8.505829036380431"><ele>111.6</ele><time>2026-04-11T08:50:13Z</time></trkpt><trkpt lat="45.21542448391205" lon="8.505793370913404"><ele>111.8</ele><time>2026-04-11T08:50:14Z</time></trkpt><trkpt lat="45.21531832754542" lon="8.505750393523417"><ele>112.0</ele><time>2026-04-11T08:50:15Z</time></trkpt><trkpt lat="45.21522312112741" lon="8.505701178988437"><ele>112.0</ele><time>2026-04-11T08:50:16Z</time></trkpt><trkpt lat="45.215134383973144" lon="8.50564182183818"><ele>111.99999999999999</ele><time>2026-04-11T08:50:17.001Z</time></trkpt><trkpt lat="45.21504261911836" lon="8.50556396364351"><ele>111.99999999999999</ele><time>2026-04-11T08:50:18.001Z</time></trkpt><trkpt lat="45.214943757004114" lon="8.505485842997903"><ele>112.0</ele><time>2026-04-11T08:50:19.001Z</time></trkpt><trkpt lat="45.21484004705909" lon="8.505405230253256"><ele>112.0</ele><time>2026-04-11T08:50:20.001Z</time></trkpt><trkpt lat="45.214735728867744" lon="8.505325083017416"><ele>111.75</ele><time>2026-04-11T08:50:21.001Z</time></trkpt><trkpt lat="45.2146305251302" lon="8.505250133710403"><ele>111.5</ele><time>2026-04-11T08:50:22.001Z</time></trkpt><trkpt lat="45.214526780130115" lon="8.505173283278207"><ele>111.25</ele><time>2026-04-11T08:50:23.001Z</time></trkpt><trkpt lat="45.21442121077638" lon="8.505097647767059"><ele>111.0</ele><time>2026-04-11T08:50:24.001Z</time></trkpt><trkpt lat="45.21431317601446" lon="8.50501341597337"><ele>111.0</ele><time>2026-04-11T08:50:25.001Z</time></trkpt><trkpt lat="45.21420096734514" lon="8.504917833956108"><ele>111.0</ele><time>2026-04-11T08:50:26.001Z</time></trkpt><trkpt lat="45.214069998923975" lon="8.504808751740807"><ele>111.0</ele><time>2026-04-11T08:50:27.001Z</time></trkpt><trkpt lat="45.21392283178282" lon="8.504684501008267"><ele>110.66666666666666</ele><time>2026-04-11T08:50:28.001Z</time></trkpt><trkpt lat="45.21376767494223" lon="8.50455916044341"><ele>110.33333333333333</ele><time>2026-04-11T08:50:29.001Z</time></trkpt><trkpt lat="45.21362208860558" lon="8.504441619840966"><ele>110.0</ele><time>2026-04-11T08:50:30.001Z</time></trkpt><trkpt lat="45.21347222064607" lon="8.504316593918448"><ele>110.0</ele><time>2026-04-11T08:50:31.001Z</time></trkpt><trkpt lat="45.213315664904115" lon="8.504187057282302"><ele>110.0</ele><time>2026-04-11T08:50:32.001Z</time></trkpt><trkpt lat="45.213159021650384" lon="8.50405796835896"><ele>110.0</ele><time>2026-04-11T08:50:33.001Z</time></trkpt><trkpt lat="45.21299398209079" lon="8.50392234348469"><ele>109.66666666666666</ele><time>2026-04-11T08:50:34.001Z</time></trkpt><trkpt lat="45.21283100768591" lon="8.503791906968107"><ele>109.33333333333334</ele><time>2026-04-11T08:50:35.001Z</time></trkpt><trkpt lat="45.21266181402966" lon="8.503660679861637"><ele>109.0</ele><time>2026-04-11T08:50:36.001Z</time></trkpt><trkpt lat="45.212494967085256" lon="8.50352741583748"><ele>109.0</ele><time>2026-04-11T08:50:37.001Z</time></trkpt><trkpt lat="45.21232751914155" lon="8.503387548313652"><ele>109.0</ele><time>2026-04-11T08:50:38.001Z</time></trkpt><trkpt lat="45.2121637817366" lon="8.503249269431288"><ele>109.0</ele><time>2026-04-11T08:50:39.001Z</time></trkpt><trkpt lat="45.2120030662449" lon="8.503119530813393"><ele>109.0</ele><time>2026-04-11T08:50:40.001Z</time></trkpt><trkpt lat="45.2118565415895" lon="8.503002321411916"><ele>109.0</ele><time>2026-04-11T08:50:41.001Z</time></trkpt><trkpt lat="45.21171359943669" lon="8.50287876394942"><ele>109.0</ele><time>2026-04-11T08:50:42.001Z</time></trkpt><trkpt lat="45.211559158955154" lon="8.502734553202885"><ele>109.0</ele><time>2026-04-11T08:50:43.001Z</time></trkpt><trkpt lat="45.21140149804701" lon="8.502570654042712"><ele>109.0</ele><time>2026-04-11T08:50:44.001Z</time></trkpt><trkpt lat="45.21124243187876" lon="8.502382910199028"><ele>109.0</ele><time>2026-04-11T08:50:45.001Z</time></trkpt><trkpt lat="45.21108447109717" lon="8.502186713605361"><ele>109.0</ele><time>2026-04-11T08:50:46.001Z</time></trkpt><trkpt lat="45.21093732728834" lon="8.501999123134741"><ele>109.0</ele><time>2026-04-11T08:50:47.001Z</time></trkpt><trkpt lat="45.210789759693085" lon="8.501815764475284"><ele>109.0</ele><time>2026-04-11T08:50:48.001Z</time></trkpt><trkpt lat="45.210635307543846" lon="8.501629456931584"><ele>109.33333333333334</ele><time>2026-04-11T08:50:49.001Z</time></trkpt><trkpt lat="45.210477507593524" lon="8.501447950355427"><ele>109.66666666666666</ele><time>2026-04-11T08:50:50.001Z</time></trkpt><trkpt lat="45.2103237096201" lon="8.501277239824978"><ele>110.0</ele><time>2026-04-11T08:50:51.001Z</time></trkpt><trkpt lat="45.21018183317975" lon="8.501112700963366"><ele>109.66666666666666</ele><time>2026-04-11T08:50:52.001Z</time></trkpt><trkpt lat="45.210048371335034" lon="8.50096189137766"><ele>109.33333333333334</ele><time>2026-04-11T08:50:53.001Z</time></trkpt><trkpt lat="45.20992694471323" lon="8.500818556853826"><ele>109.0</ele><time>2026-04-11T08:50:54.001Z</time></trkpt><trkpt lat="45.209805339203115" lon="8.500681381604526"><ele>109.0</ele><time>2026-04-11T08:50:55.001Z</time></trkpt><trkpt lat="45.20968171497176" lon="8.500552343912183"><ele>109.0</ele><time>2026-04-11T08:50:56.001Z</time></trkpt><trkpt lat="45.20955001284317" lon="8.500441441421723"><ele>109.0</ele><time>2026-04-11T08:50:57.001Z</time></trkpt><trkpt lat="45.209405087437716" lon="8.50035326866944"><ele>109.33333333333334</ele><time>2026-04-11T08:50:58.001Z</time></trkpt><trkpt lat="45.20925122905388" lon="8.500290007211351"><ele>109.66666666666666</ele><time>2026-04-11T08:50:59.001Z</time></trkpt><trkpt lat="45.209094884735556" lon="8.500244288015844"><ele>110.0</ele><time>2026-04-11T08:51:00.001Z</time></trkpt><trkpt lat="45.20895222892842" lon="8.500192679915127"><ele>110.0</ele><time>2026-04-11T08:51:01.001Z</time></trkpt><trkpt lat="45.208814494154836" lon="8.500112946401584"><ele>110.0</ele><time>2026-04-11T08:51:02.001Z</time></trkpt><trkpt lat="45.208680711055116" lon="8.499997543672306"><ele>110.0</ele><time>2026-04-11T08:51:03.001Z</time></trkpt><trkpt lat="45.208545560057914" lon="8.49984755474481"><ele>110.0</ele><time>2026-04-11T08:51:04.001Z</time></trkpt><trkpt lat="45.20840967178599" lon="8.499694283168774"><ele>110.0</ele><time>2026-04-11T08:51:05.001Z</time></trkpt><trkpt lat="45.2082692100174" lon="8.499559264199213"><ele>110.0</ele><time>2026-04-11T08:51:06.001Z</time></trkpt><trkpt lat="45.20812270936033" lon="8.499442548759594"><ele>110.33333333333333</ele><time>2026-04-11T08:51:07.001Z</time></trkpt><trkpt lat="45.2079643012996" lon="8.499352580560403"><ele>110.66666666666666</ele><time>2026-04-11T08:51:08.001Z</time></trkpt><trkpt lat="45.207799832961854" lon="8.499285533122078"><ele>111.0</ele><time>2026-04-11T08:51:09.001Z</time></trkpt><trkpt lat="45.20762681752196" lon="8.499227653771959"><ele>111.0</ele><time>2026-04-11T08:51:10.001Z</time></trkpt><trkpt lat="45.2074509080203" lon="8.499167695907822"><ele>111.0</ele><time>2026-04-11T08:51:11.001Z</time></trkpt><trkpt lat="45.20726575359298" lon="8.49909895863584"><ele>111.0</ele><time>2026-04-11T08:51:12.001Z</time></trkpt><trkpt lat="45.20707880066322" lon="8.499030303000037"><ele>111.0</ele><time>2026-04-11T08:51:13.001Z</time></trkpt><trkpt lat="45.20689021815159" lon="8.498960338841448"><ele>111.0</ele><time>2026-04-11T08:51:14.001Z</time></trkpt><trkpt lat="45.206695966467336" lon="8.498886249705253"><ele>111.0</ele><time>2026-04-11T08:51:15.002Z</time></trkpt><trkpt lat="45.206509455616946" lon="8.498815331896976"><ele>111.0</ele><time>2026-04-11T08:51:16.002Z</time></trkpt><trkpt lat="45.20632035500103" lon="8.498740104284684"><ele>111.0</ele><time>2026-04-11T08:51:17.002Z</time></trkpt><trkpt lat="45.206141809337936" lon="8.498657488370833"><ele>111.0</ele><time>2026-04-11T08:51:18.002Z</time></trkpt><trkpt lat="45.205973425383846" lon="8.498569011426635"><ele>111.0</ele><time>2026-04-11T08:51:19.002Z</time></trkpt><trkpt lat="45.20580984330908" lon="8.498459447347265"><ele>111.0</ele><time>2026-04-11T08:51:20.002Z</time></trkpt><trkpt lat="45.20564649979957" lon="8.49834227309129"><ele>111.0</ele><time>2026-04-11T08:51:21.002Z</time></trkpt><trkpt lat="45.20547852818284" lon="8.498232773311017"><ele>110.66666666666666</ele><time>2026-04-11T08:51:22.002Z</time></trkpt><trkpt lat="45.20530902523726" lon="8.49814802123558"><ele>110.33333333333333</ele><time>2026-04-11T08:51:23.002Z</time></trkpt><trkpt lat="45.20513190158084" lon="8.4980793948156"><ele>110.0</ele><time>2026-04-11T08:51:24.002Z</time></trkpt><trkpt lat="45.20494284564726" lon="8.498014673843612"><ele>109.33333333333333</ele><time>2026-04-11T08:51:25.002Z</time></trkpt><trkpt lat="45.20475732707501" lon="8.49794149102872"><ele>108.66666666666666</ele><time>2026-04-11T08:51:26.002Z</time></trkpt><trkpt lat="45.20458396029812" lon="8.497865167324308"><ele>108.0</ele><time>2026-04-11T08:51:27.002Z</time></trkpt><trkpt lat="45.20441894933583" lon="8.497783185740937"><ele>108.0</ele><time>2026-04-11T08:51:28.002Z</time></trkpt><trkpt lat="45.204249433841504" lon="8.497696299130883"><ele>108.0</ele><time>2026-04-11T08:51:29.002Z</time></trkpt><trkpt lat="45.20407758350933" lon="8.497606169262372"><ele>108.0</ele><time>2026-04-11T08:51:30.002Z</time></trkpt><trkpt lat="45.20390196778088" lon="8.497516871077524"><ele>108.0</ele><time>2026-04-11T08:51:31.002Z</time></trkpt><trkpt lat="45.20372988805603" lon="8.497430020431882"><ele>108.0</ele><time>2026-04-11T08:51:32.002Z</time></trkpt><trkpt lat="45.20356950228964" lon="8.497355670265637"><ele>108.0</ele><time>2026-04-11T08:51:33.002Z</time></trkpt><trkpt lat="45.203411956420524" lon="8.497301133409579"><ele>108.0</ele><time>2026-04-11T08:51:34.002Z</time></trkpt><trkpt lat="45.20324923331252" lon="8.49727192165304"><ele>108.0</ele><time>2026-04-11T08:51:35.002Z</time></trkpt><trkpt lat="45.20307435991004" lon="8.497274172687597"><ele>108.0</ele><time>2026-04-11T08:51:36.002Z</time></trkpt><trkpt lat="45.20288985006116" lon="8.497286081291904"><ele>108.0</ele><time>2026-04-11T08:51:37.002Z</time></trkpt><trkpt lat="45.20270184147056" lon="8.497298814492295"><ele>108.0</ele><time>2026-04-11T08:51:38.002Z</time></trkpt><trkpt lat="45.20251629395335" lon="8.497304614135107"><ele>108.0</ele><time>2026-04-11T08:51:39.002Z</time></trkpt><trkpt lat="45.202343032041284" lon="8.497307848275065"><ele>107.66666666666666</ele><time>2026-04-11T08:51:40.002Z</time></trkpt><trkpt lat="45.20217947181254" lon="8.497286627074608"><ele>107.33333333333333</ele><time>2026-04-11T08:51:41.002Z</time></trkpt><trkpt lat="45.20201580176392" lon="8.49721987515601"><ele>107.0</ele><time>2026-04-11T08:51:42.002Z</time></trkpt><trkpt lat="45.20184250521876" lon="8.497122729132164"><ele>107.0</ele><time>2026-04-11T08:51:43.002Z</time></trkpt><trkpt lat="45.201661832944716" lon="8.497022430111185"><ele>107.0</ele><time>2026-04-11T08:51:44.002Z</time></trkpt><trkpt lat="45.201467092150175" lon="8.496924631292563"><ele>107.0</ele><time>2026-04-11T08:51:45.002Z</time></trkpt><trkpt lat="45.20126964586185" lon="8.49684423832613"><ele>107.0</ele><time>2026-04-11T08:51:46.002Z</time></trkpt><trkpt lat="45.20106676982542" lon="8.496779628573476"><ele>107.0</ele><time>2026-04-11T08:51:47.002Z</time></trkpt><trkpt lat="45.20086166066288" lon="8.496741516085427"><ele>107.0</ele><time>2026-04-11T08:51:48.002Z</time></trkpt><trkpt lat="45.20065671247745" lon="8.496723558046094"><ele>107.0</ele><time>2026-04-11T08:51:49.002Z</time></trkpt><trkpt lat="45.20044853888204" lon="8.496713286568275"><ele>107.0</ele><time>2026-04-11T08:51:50.002Z</time></trkpt><trkpt lat="45.2002349835401" lon="8.496697340064046"><ele>107.0</ele><time>2026-04-11T08:51:51.002Z</time></trkpt><trkpt lat="45.20001917837868" lon="8.496671626728261"><ele>106.66666666666666</ele><time>2026-04-11T08:51:52.002Z</time></trkpt><trkpt lat="45.19980917215754" lon="8.496642526995222"><ele>106.33333333333334</ele><time>2026-04-11T08:51:53.002Z</time></trkpt><trkpt lat="45.19961401553123" lon="8.496605174506787"><ele>106.0</ele><time>2026-04-11T08:51:54Z</time></trkpt><trkpt lat="45.1994294941465" lon="8.496564760691582"><ele>106.0</ele><time>2026-04-11T08:51:55Z</time></trkpt><trkpt lat="45.19924857214423" lon="8.496514449682365"><ele>106.0</ele><time>2026-04-11T08:51:56Z</time></trkpt><trkpt lat="45.19906495253971" lon="8.496449293221765"><ele>106.0</ele><time>2026-04-11T08:51:57Z</time></trkpt><trkpt lat="45.19887569701294" lon="8.496396115237198"><ele>106.33333333333334</ele><time>2026-04-11T08:51:58Z</time></trkpt><trkpt lat="45.198682346699826" lon="8.496356702085587"><ele>106.66666666666666</ele><time>2026-04-11T08:51:59Z</time></trkpt><trkpt lat="45.19848612119984" lon="8.496334080622303"><ele>107.0</ele><time>2026-04-11T08:52:00Z</time></trkpt><trkpt lat="45.19828813052219" lon="8.496308967652393"><ele>107.0</ele><time>2026-04-11T08:52:01Z</time></trkpt><trkpt lat="45.1980895118327" lon="8.496282996655516"><ele>107.0</ele><time>2026-04-11T08:52:02Z</time></trkpt><trkpt lat="45.197890011899496" lon="8.496259959244824"><ele>107.0</ele><time>2026-04-11T08:52:03Z</time></trkpt><trkpt lat="45.197700300147844" lon="8.496239823730399"><ele>107.0</ele><time>2026-04-11T08:52:04Z</time></trkpt><trkpt lat="45.197507408131216" lon="8.496223956137241"><ele>107.0</ele><time>2026-04-11T08:52:05Z</time></trkpt><trkpt lat="45.19731416050553" lon="8.496209094305698"><ele>107.0</ele><time>2026-04-11T08:52:06Z</time></trkpt><trkpt lat="45.1971246209838" lon="8.496201734532255"><ele>107.33333333333333</ele><time>2026-04-11T08:52:07Z</time></trkpt><trkpt lat="45.19693251350195" lon="8.496196433943254"><ele>107.66666666666666</ele><time>2026-04-11T08:52:08Z</time></trkpt><trkpt lat="45.19674016452759" lon="8.496181370610955"><ele>108.0</ele><time>2026-04-11T08:52:09Z</time></trkpt><trkpt lat="45.196548657523046" lon="8.49614621457466"><ele>107.33333333333334</ele><time>2026-04-11T08:52:10Z</time></trkpt><trkpt lat="45.19635320298623" lon="8.496095172214792"><ele>106.66666666666667</ele><time>2026-04-11T08:52:11Z</time></trkpt><trkpt lat="45.19615897779987" lon="8.496023414197149"><ele>106.0</ele><time>2026-04-11T08:52:12Z</time></trkpt><trkpt lat="45.19596522925596" lon="8.49593443432778"><ele>106.0</ele><time>2026-04-11T08:52:13Z</time></trkpt><trkpt lat="45.19577066309678" lon="8.495843106751417"><ele>106.0</ele><time>2026-04-11T08:52:14Z</time></trkpt><trkpt lat="45.195580021680264" lon="8.49575245525904"><ele>106.0</ele><time>2026-04-11T08:52:15Z</time></trkpt><trkpt lat="45.19538746480419" lon="8.495651486896705"><ele>106.66666666666667</ele><time>2026-04-11T08:52:16Z</time></trkpt><trkpt lat="45.19520318679039" lon="8.495546624496862"><ele>107.33333333333334</ele><time>2026-04-11T08:52:17Z</time></trkpt><trkpt lat="45.19501990022761" lon="8.495441424763301"><ele>108.0</ele><time>2026-04-11T08:52:18Z</time></trkpt><trkpt lat="45.194838361609385" lon="8.495346482143812"><ele>108.33333333333334</ele><time>2026-04-11T08:52:19Z</time></trkpt><trkpt lat="45.19464902216159" lon="8.495258872194908"><ele>108.66666666666667</ele><time>2026-04-11T08:52:20Z</time></trkpt><trkpt lat="45.19445626510634" lon="8.495182140061889"><ele>109.0</ele><time>2026-04-11T08:52:21Z</time></trkpt><trkpt lat="45.19426139208115" lon="8.495116131154212"><ele>109.0</ele><time>2026-04-11T08:52:22Z</time></trkpt><trkpt lat="45.19406994746197" lon="8.495073630423684"><ele>109.0</ele><time>2026-04-11T08:52:23Z</time></trkpt><trkpt lat="45.19387552641768" lon="8.495041874942087"><ele>109.0</ele><time>2026-04-11T08:52:24Z</time></trkpt><trkpt lat="45.19368098256173" lon="8.495032087692369"><ele>109.0</ele><time>2026-04-11T08:52:25Z</time></trkpt><trkpt lat="45.19348827556916" lon="8.495027489071735"><ele>109.0</ele><time>2026-04-11T08:52:26Z</time></trkpt><trkpt lat="45.19330364795784" lon="8.495038540295651"><ele>109.0</ele><time>2026-04-11T08:52:27Z</time></trkpt><trkpt lat="45.19313917381423" lon="8.495051179232902"><ele>109.33333333333334</ele><time>2026-04-11T08:52:28Z</time></trkpt><trkpt lat="45.19298492238452" lon="8.495057294583443"><ele>109.66666666666666</ele><time>2026-04-11T08:52:29Z</time></trkpt><trkpt lat="45.19282930764543" lon="8.495047854731471"><ele>110.0</ele><time>2026-04-11T08:52:30.001Z</time></trkpt><trkpt lat="45.19267459134508" lon="8.495013229384341"><ele>110.0</ele><time>2026-04-11T08:52:31.001Z</time></trkpt><trkpt lat="45.19251925489255" lon="8.494951712916379"><ele>110.0</ele><time>2026-04-11T08:52:32.001Z</time></trkpt><trkpt lat="45.1923656932051" lon="8.494870101144835"><ele>110.0</ele><time>2026-04-11T08:52:33.001Z</time></trkpt><trkpt lat="45.19222101501186" lon="8.494771840433483"><ele>110.0</ele><time>2026-04-11T08:52:34.001Z</time></trkpt><trkpt lat="45.19208542333033" lon="8.494648760070113"><ele>110.0</ele><time>2026-04-11T08:52:35.001Z</time></trkpt><trkpt lat="45.1919565616842" lon="8.494490340139023"><ele>110.0</ele><time>2026-04-11T08:52:36.001Z</time></trkpt><trkpt lat="45.191825935248126" lon="8.494329317657773"><ele>110.0</ele><time>2026-04-11T08:52:37.001Z</time></trkpt><trkpt lat="45.191697867898775" lon="8.494176496072503"><ele>110.0</ele><time>2026-04-11T08:52:38.001Z</time></trkpt><trkpt lat="45.19156112091709" lon="8.494017828672083"><ele>110.0</ele><time>2026-04-11T08:52:39.001Z</time></trkpt><trkpt lat="45.1914238051103" lon="8.4938638874244"><ele>110.33333333333333</ele><time>2026-04-11T08:52:40.001Z</time></trkpt><trkpt lat="45.19128327911247" lon="8.493706902849326"><ele>110.66666666666666</ele><time>2026-04-11T08:52:41.001Z</time></trkpt><trkpt lat="45.191138477913405" lon="8.493555264770665"><ele>111.0</ele><time>2026-04-11T08:52:42.001Z</time></trkpt><trkpt lat="45.190983731146794" lon="8.49340699072884"><ele>111.0</ele><time>2026-04-11T08:52:43.001Z</time></trkpt><trkpt lat="45.19081678010922" lon="8.49326505284476"><ele>111.0</ele><time>2026-04-11T08:52:44.001Z</time></trkpt><trkpt lat="45.190646720489035" lon="8.493122854036121"><ele>111.0</ele><time>2026-04-11T08:52:45.001Z</time></trkpt><trkpt lat="45.19047370991224" lon="8.492977987787738"><ele>110.33333333333334</ele><time>2026-04-11T08:52:46.001Z</time></trkpt><trkpt lat="45.190299689207706" lon="8.492831837985555"><ele>109.66666666666667</ele><time>2026-04-11T08:52:47.001Z</time></trkpt><trkpt lat="45.1901293202375" lon="8.492689569477582"><ele>109.0</ele><time>2026-04-11T08:52:48.001Z</time></trkpt><trkpt lat="45.18995919622646" lon="8.492551753845726"><ele>108.33333333333334</ele><time>2026-04-11T08:52:49.001Z</time></trkpt><trkpt lat="45.18980326133911" lon="8.492418551477781"><ele>107.66666666666666</ele><time>2026-04-11T08:52:50.001Z</time></trkpt><trkpt lat="45.1896437256242" lon="8.492285825363602"><ele>107.0</ele><time>2026-04-11T08:52:51.001Z</time></trkpt><trkpt lat="45.18948995664433" lon="8.492147821909821"><ele>107.33333333333333</ele><time>2026-04-11T08:52:52.001Z</time></trkpt><trkpt lat="45.189331132142065" lon="8.49200809431171"><ele>107.66666666666666</ele><time>2026-04-11T08:52:53.001Z</time></trkpt><trkpt lat="45.18917974793788" lon="8.491854720487824"><ele>108.0</ele><time>2026-04-11T08:52:54.001Z</time></trkpt><trkpt lat="45.18903642828055" lon="8.491680717873889"><ele>108.0</ele><time>2026-04-11T08:52:55.001Z</time></trkpt><trkpt lat="45.18889668600716" lon="8.491494467724621"><ele>108.0</ele><time>2026-04-11T08:52:56.001Z</time></trkpt><trkpt lat="45.18875377325688" lon="8.491301276499886"><ele>108.0</ele><time>2026-04-11T08:52:57.001Z</time></trkpt><trkpt lat="45.18860919146352" lon="8.491106895729988"><ele>108.0</ele><time>2026-04-11T08:52:58.001Z</time></trkpt><trkpt lat="45.18846317716318" lon="8.490908221552836"><ele>108.0</ele><time>2026-04-11T08:52:59.001Z</time></trkpt><trkpt lat="45.18831577664727" lon="8.49070712580215"><ele>108.0</ele><time>2026-04-11T08:53:00.001Z</time></trkpt><trkpt lat="45.188168660399086" lon="8.490505824868904"><ele>107.66666666666666</ele><time>2026-04-11T08:53:01.001Z</time></trkpt><trkpt lat="45.188023982983346" lon="8.490309560750797"><ele>107.33333333333333</ele><time>2026-04-11T08:53:02.001Z</time></trkpt><trkpt lat="45.18788499211158" lon="8.49011816708767"><ele>107.0</ele><time>2026-04-11T08:53:03.001Z</time></trkpt><trkpt lat="45.187749829206666" lon="8.489923803918014"><ele>107.0</ele><time>2026-04-11T08:53:04.001Z</time></trkpt><trkpt lat="45.18761992610953" lon="8.489718608330469"><ele>107.0</ele><time>2026-04-11T08:53:05.001Z</time></trkpt><trkpt lat="45.187502353163026" lon="8.48949386689662"><ele>107.0</ele><time>2026-04-11T08:53:06.001Z</time></trkpt><trkpt lat="45.187397128519585" lon="8.489251855282308"><ele>107.0</ele><time>2026-04-11T08:53:07.001Z</time></trkpt><trkpt lat="45.18729170280773" lon="8.489012238193684"><ele>107.0</ele><time>2026-04-11T08:53:08.001Z</time></trkpt><trkpt lat="45.18718869901587" lon="8.488781255860072"><ele>107.0</ele><time>2026-04-11T08:53:09.001Z</time></trkpt><trkpt lat="45.18709348713649" lon="8.488569545987101"><ele>107.0</ele><time>2026-04-11T08:53:10.001Z</time></trkpt><trkpt lat="45.18700651059937" lon="8.488379993561233"><ele>107.0</ele><time>2026-04-11T08:53:11.001Z</time></trkpt><trkpt lat="45.18692143962161" lon="8.488217921193186"><ele>107.0</ele><time>2026-04-11T08:53:12.001Z</time></trkpt><trkpt lat="45.18682704440655" lon="8.488078642435454"><ele>107.0</ele><time>2026-04-11T08:53:13.001Z</time></trkpt><trkpt lat="45.18671918213069" lon="8.487975903300079"><ele>107.33333333333333</ele><time>2026-04-11T08:53:14.001Z</time></trkpt><trkpt lat="45.186582615767186" lon="8.487904098501952"><ele>107.66666666666666</ele><time>2026-04-11T08:53:15.001Z</time></trkpt><trkpt lat="45.18642413606389" lon="8.48784455893802"><ele>108.0</ele><time>2026-04-11T08:53:16.001Z</time></trkpt><trkpt lat="45.18625730649976" lon="8.487772020585563"><ele>108.0</ele><time>2026-04-11T08:53:17.001Z</time></trkpt><trkpt lat="45.186084796648274" lon="8.487685983866667"><ele>108.0</ele><time>2026-04-11T08:53:18.001Z</time></trkpt><trkpt lat="45.185909921779846" lon="8.487597704932476"><ele>108.0</ele><time>2026-04-11T08:53:19.001Z</time></trkpt><trkpt lat="45.18572676059073" lon="8.487502770327106"><ele>108.0</ele><time>2026-04-11T08:53:20.001Z</time></trkpt><trkpt lat="45.18554250124918" lon="8.487412452811911"><ele>108.0</ele><time>2026-04-11T08:53:21.001Z</time></trkpt><trkpt lat="45.18535966586689" lon="8.487321983870949"><ele>108.0</ele><time>2026-04-11T08:53:22.001Z</time></trkpt><trkpt lat="45.18517339654986" lon="8.487232677578485"><ele>108.0</ele><time>2026-04-11T08:53:23.001Z</time></trkpt><trkpt lat="45.18498714312582" lon="8.487140557991951"><ele>108.0</ele><time>2026-04-11T08:53:24.001Z</time></trkpt><trkpt lat="45.18481095653973" lon="8.487051585416626"><ele>108.0</ele><time>2026-04-11T08:53:25.001Z</time></trkpt><trkpt lat="45.18464110078594" lon="8.4869667555294"><ele>108.66666666666666</ele><time>2026-04-11T08:53:26.001Z</time></trkpt><trkpt lat="45.18448669713191" lon="8.486890457820305"><ele>109.33333333333333</ele><time>2026-04-11T08:53:27.001Z</time></trkpt><trkpt lat="45.18434166486674" lon="8.486815737168886"><ele>110.0</ele><time>2026-04-11T08:53:28.001Z</time></trkpt><trkpt lat="45.184211401524095" lon="8.486748390494117"><ele>110.0</ele><time>2026-04-11T08:53:29.001Z</time></trkpt><trkpt lat="45.18409454579491" lon="8.486685711669566"><ele>110.0</ele><time>2026-04-11T08:53:30.002Z</time></trkpt><trkpt lat="45.183996182777896" lon="8.4866316029855"><ele>110.0</ele><time>2026-04-11T08:53:31.002Z</time></trkpt><trkpt lat="45.18390306793691" lon="8.486580593172038"><ele>110.0</ele><time>2026-04-11T08:53:32.002Z</time></trkpt><trkpt lat="45.18382699081491" lon="8.486535325705763"><ele>110.0</ele><time>2026-04-11T08:53:33.002Z</time></trkpt><trkpt lat="45.18376802672889" lon="8.486491335760286"><ele>109.6</ele><time>2026-04-11T08:53:34.002Z</time></trkpt><trkpt lat="45.18368436417739" lon="8.48643355616421"><ele>109.2</ele><time>2026-04-11T08:53:36.002Z</time></trkpt><trkpt lat="45.18361661358116" lon="8.486397183639756"><ele>108.80000000000001</ele><time>2026-04-11T08:53:38.002Z</time></trkpt><trkpt lat="45.183519714549675" lon="8.486345162946112"><ele>108.4</ele><time>2026-04-11T08:53:40.002Z</time></trkpt><trkpt lat="45.18351796738805" lon="8.486132960949488"><ele>108.0</ele><time>2026-04-11T08:53:41.002Z</time></trkpt><trkpt lat="45.18348988566022" lon="8.486013848079729"><ele>108.0</ele><time>2026-04-11T08:53:42.002Z</time></trkpt><trkpt lat="45.18346283657677" lon="8.485878172768057"><ele>108.0</ele><time>2026-04-11T08:53:43.002Z</time></trkpt><trkpt lat="45.18343729124693" lon="8.485713921193886"><ele>108.0</ele><time>2026-04-11T08:53:44.002Z</time></trkpt><trkpt lat="45.1834072931468" lon="8.485531597232896"><ele>108.0</ele><time>2026-04-11T08:53:45.002Z</time></trkpt><trkpt lat="45.183373532927384" lon="8.485348116353812"><ele>108.5</ele><time>2026-04-11T08:53:46.002Z</time></trkpt><trkpt lat="45.1833433195385" lon="8.485173137292835"><ele>109.0</ele><time>2026-04-11T08:53:47.002Z</time></trkpt><trkpt lat="45.18331315995236" lon="8.485001736009396"><ele>109.5</ele><time>2026-04-11T08:53:48.002Z</time></trkpt><trkpt lat="45.183279952914845" lon="8.484820232163818"><ele>110.0</ele><time>2026-04-11T08:53:49.002Z</time></trkpt><trkpt lat="45.183246328128774" lon="8.484637596245086"><ele>110.25</ele><time>2026-04-11T08:53:50.002Z</time></trkpt><trkpt lat="45.18321192972348" lon="8.484454610935206"><ele>110.5</ele><time>2026-04-11T08:53:51.002Z</time></trkpt><trkpt lat="45.183179199405515" lon="8.48427240528462"><ele>110.75</ele><time>2026-04-11T08:53:52.002Z</time></trkpt><trkpt lat="45.18314544491102" lon="8.484086334000164"><ele>111.0</ele><time>2026-04-11T08:53:53.002Z</time></trkpt><trkpt lat="45.183113190256854" lon="8.483899364296406"><ele>110.75</ele><time>2026-04-11T08:53:54.002Z</time></trkpt><trkpt lat="45.18308034905865" lon="8.483703683669304"><ele>110.5</ele><time>2026-04-11T08:53:55.002Z</time></trkpt><trkpt lat="45.18304265722972" lon="8.483513904891893"><ele>110.25</ele><time>2026-04-11T08:53:56.002Z</time></trkpt><trkpt lat="45.18300805884363" lon="8.483319211512562"><ele>110.0</ele><time>2026-04-11T08:53:57.002Z</time></trkpt><trkpt lat="45.18297398406646" lon="8.483128286398626"><ele>110.0</ele><time>2026-04-11T08:53:58.002Z</time></trkpt><trkpt lat="45.182938690036536" lon="8.48294606028689"><ele>110.0</ele><time>2026-04-11T08:53:59.002Z</time></trkpt><trkpt lat="45.18290408310126" lon="8.482759103535056"><ele>110.0</ele><time>2026-04-11T08:54:00Z</time></trkpt><trkpt lat="45.1828716342914" lon="8.48257208062028"><ele>110.0</ele><time>2026-04-11T08:54:01Z</time></trkpt><trkpt lat="45.18283874676996" lon="8.48238524807086"><ele>110.0</ele><time>2026-04-11T08:54:02Z</time></trkpt><trkpt lat="45.18280742430247" lon="8.482199590374533"><ele>110.0</ele><time>2026-04-11T08:54:03Z</time></trkpt><trkpt lat="45.18277796136537" lon="8.482018434071588"><ele>110.0</ele><time>2026-04-11T08:54:04Z</time></trkpt><trkpt lat="45.182755007626994" lon="8.48183847459095"><ele>110.0</ele><time>2026-04-11T08:54:05Z</time></trkpt><trkpt lat="45.182729831266" lon="8.481664927563813"><ele>110.2</ele><time>2026-04-11T08:54:06Z</time></trkpt><trkpt lat="45.182705561918915" lon="8.481492796755443"><ele>110.4</ele><time>2026-04-11T08:54:07Z</time></trkpt><trkpt lat="45.182682951800764" lon="8.481330400189544"><ele>110.6</ele><time>2026-04-11T08:54:08Z</time></trkpt><trkpt lat="45.182665659260735" lon="8.481186598554322"><ele>110.8</ele><time>2026-04-11T08:54:09Z</time></trkpt><trkpt lat="45.182643326303726" lon="8.481050151053296"><ele>111.0</ele><time>2026-04-11T08:54:10Z</time></trkpt><trkpt lat="45.18262267842745" lon="8.480927205796743"><ele>111.0</ele><time>2026-04-11T08:54:11Z</time></trkpt><trkpt lat="45.18260000751432" lon="8.480811294631188"><ele>111.0</ele><time>2026-04-11T08:54:12Z</time></trkpt><trkpt lat="45.18258252634485" lon="8.480707357144977"><ele>111.0</ele><time>2026-04-11T08:54:13Z</time></trkpt><trkpt lat="45.182561773148926" lon="8.480597367255612"><ele>111.0</ele><time>2026-04-11T08:54:15Z</time></trkpt><trkpt lat="45.182440784160654" lon="8.480620977723083"><ele>111.0</ele><time>2026-04-11T08:54:17Z</time></trkpt><trkpt lat="45.182356007762785" lon="8.480633927298655"><ele>111.0</ele><time>2026-04-11T08:54:18Z</time></trkpt><trkpt lat="45.18225767259826" lon="8.480620711358041"><ele>111.0</ele><time>2026-04-11T08:54:19Z</time></trkpt><trkpt lat="45.18214808644323" lon="8.480618934050293"><ele>111.0</ele><time>2026-04-11T08:54:20Z</time></trkpt><trkpt lat="45.18202698851217" lon="8.480634971673792"><ele>111.0</ele><time>2026-04-11T08:54:21Z</time></trkpt><trkpt lat="45.181926242754315" lon="8.480665735549675"><ele>111.0</ele><time>2026-04-11T08:54:22Z</time></trkpt><trkpt lat="45.18183240541392" lon="8.480684696872279"><ele>111.0</ele><time>2026-04-11T08:54:23Z</time></trkpt><trkpt lat="45.18173961930925" lon="8.480697065893489"><ele>111.0</ele><time>2026-04-11T08:54:24Z</time></trkpt><trkpt lat="45.18166506353218" lon="8.480717888699187"><ele>111.0</ele><time>2026-04-11T08:54:25Z</time></trkpt><trkpt lat="45.18156517200378" lon="8.480810977297915"><ele>111.0</ele><time>2026-04-11T08:54:27Z</time></trkpt><trkpt lat="45.181502776083626" lon="8.480872919096155"><ele>111.0</ele><time>2026-04-11T08:54:28Z</time></trkpt><trkpt lat="45.18141537294553" lon="8.480944094158378"><ele>111.0</ele><time>2026-04-11T08:54:29Z</time></trkpt><trkpt lat="45.18132529274809" lon="8.481019440945753"><ele>111.0</ele><time>2026-04-11T08:54:30Z</time></trkpt><trkpt lat="45.18123073460306" lon="8.481096048489272"><ele>111.0</ele><time>2026-04-11T08:54:31Z</time></trkpt><trkpt lat="45.18113037338799" lon="8.48116014922618"><ele>111.0</ele><time>2026-04-11T08:54:32Z</time></trkpt><trkpt lat="45.1810256021226" lon="8.481223082155102"><ele>111.0</ele><time>2026-04-11T08:54:33Z</time></trkpt><trkpt lat="45.180920620229756" lon="8.481280112491932"><ele>111.0</ele><time>2026-04-11T08:54:34Z</time></trkpt><trkpt lat="45.180822166398144" lon="8.481320215088845"><ele>110.8</ele><time>2026-04-11T08:54:35Z</time></trkpt><trkpt lat="45.180739270896" lon="8.481354741088692"><ele>110.6</ele><time>2026-04-11T08:54:36Z</time></trkpt><trkpt lat="45.180670185073915" lon="8.481389813409827"><ele>110.4</ele><time>2026-04-11T08:54:37.001Z</time></trkpt><trkpt lat="45.18059541919882" lon="8.481396024721684"><ele>110.2</ele><time>2026-04-11T08:54:39.001Z</time></trkpt><trkpt lat="45.18050834365696" lon="8.481260004520104"><ele>110.0</ele><time>2026-04-11T08:54:42.001Z</time></trkpt><trkpt lat="45.18046532586786" lon="8.48115354331348"><ele>109.99999999999999</ele><time>2026-04-11T08:54:43.001Z</time></trkpt><trkpt lat="45.18041499394159" lon="8.481044126915233"><ele>110.0</ele><time>2026-04-11T08:54:44.001Z</time></trkpt><trkpt lat="45.18036552988634" lon="8.480950382916912"><ele>110.0</ele><time>2026-04-11T08:54:45.001Z</time></trkpt><trkpt lat="45.180313740725424" lon="8.480855377086678"><ele>110.0</ele><time>2026-04-11T08:54:46.001Z</time></trkpt><trkpt lat="45.18026074907296" lon="8.480759250018094"><ele>109.99999999999999</ele><time>2026-04-11T08:54:47.001Z</time></trkpt><trkpt lat="45.1802201824398" lon="8.480680298496825"><ele>110.0</ele><time>2026-04-11T08:54:48.001Z</time></trkpt><trkpt lat="45.180150076952835" lon="8.480559752177005"><ele>109.99999999999999</ele><time>2026-04-11T08:54:50.001Z</time></trkpt><trkpt lat="45.18010157169229" lon="8.480500164327408"><ele>110.0</ele><time>2026-04-11T08:54:52.001Z</time></trkpt><trkpt lat="45.18006813572531" lon="8.48042191732513"><ele>110.0</ele><time>2026-04-11T08:54:56.001Z</time></trkpt><trkpt lat="45.179966804927325" lon="8.480519225084151"><ele>110.0</ele><time>2026-04-11T08:54:57.001Z</time></trkpt><trkpt lat="45.1799130782178" lon="8.480573287712158"><ele>109.99999999999999</ele><time>2026-04-11T08:54:58.001Z</time></trkpt><trkpt lat="45.17984905069417" lon="8.480623794048197"><ele>110.0</ele><time>2026-04-11T08:54:59.001Z</time></trkpt><trkpt lat="45.17979274616151" lon="8.480667262619251"><ele>109.8</ele><time>2026-04-11T08:55:00.001Z</time></trkpt><trkpt lat="45.17971510176638" lon="8.480725293379168"><ele>109.6</ele><time>2026-04-11T08:55:01.001Z</time></trkpt><trkpt lat="45.179626044982726" lon="8.480792637193991"><ele>109.4</ele><time>2026-04-11T08:55:02.001Z</time></trkpt><trkpt lat="45.17953545692713" lon="8.480862156908175"><ele>109.2</ele><time>2026-04-11T08:55:03.001Z</time></trkpt><trkpt lat="45.17944590955316" lon="8.480921116801518"><ele>109.0</ele><time>2026-04-11T08:55:04.001Z</time></trkpt><trkpt lat="45.17935119726379" lon="8.480967357781829"><ele>109.0</ele><time>2026-04-11T08:55:05.001Z</time></trkpt><trkpt lat="45.17925388427007" lon="8.480984190389496"><ele>109.0</ele><time>2026-04-11T08:55:06.001Z</time></trkpt><trkpt lat="45.17915344874764" lon="8.48096890402758"><ele>109.0</ele><time>2026-04-11T08:55:07.001Z</time></trkpt><trkpt lat="45.1790525046925" lon="8.480913388589443"><ele>109.0</ele><time>2026-04-11T08:55:08.001Z</time></trkpt><trkpt lat="45.17895346455387" lon="8.480827832683095"><ele>109.0</ele><time>2026-04-11T08:55:09.001Z</time></trkpt><trkpt lat="45.178849371771896" lon="8.480729791944903"><ele>108.75</ele><time>2026-04-11T08:55:10.001Z</time></trkpt><trkpt lat="45.17873707443839" lon="8.480628409166382"><ele>108.5</ele><time>2026-04-11T08:55:11.001Z</time></trkpt><trkpt lat="45.17862784376444" lon="8.4805298128219"><ele>108.25</ele><time>2026-04-11T08:55:12.001Z</time></trkpt><trkpt lat="45.1785193911242" lon="8.480429239812866"><ele>108.0</ele><time>2026-04-11T08:55:13.001Z</time></trkpt><trkpt lat="45.17841145051273" lon="8.480325015201807"><ele>107.75</ele><time>2026-04-11T08:55:14.001Z</time></trkpt><trkpt lat="45.17830216838171" lon="8.480227421680247"><ele>107.5</ele><time>2026-04-11T08:55:15.001Z</time></trkpt><trkpt lat="45.178195754212055" lon="8.480134830777775"><ele>107.25</ele><time>2026-04-11T08:55:16.001Z</time></trkpt><trkpt lat="45.17809923968451" lon="8.480048799962997"><ele>107.0</ele><time>2026-04-11T08:55:17.001Z</time></trkpt><trkpt lat="45.17800265671741" lon="8.479960034889933"><ele>107.0</ele><time>2026-04-11T08:55:18.001Z</time></trkpt><trkpt lat="45.17790779074981" lon="8.479855901353472"><ele>107.0</ele><time>2026-04-11T08:55:19.001Z</time></trkpt><trkpt lat="45.17781056404057" lon="8.479737588995908"><ele>107.0</ele><time>2026-04-11T08:55:20.001Z</time></trkpt><trkpt lat="45.177714229240756" lon="8.47961043946585"><ele>107.0</ele><time>2026-04-11T08:55:21.001Z</time></trkpt><trkpt lat="45.17762406955775" lon="8.479465468508046"><ele>107.0</ele><time>2026-04-11T08:55:22.001Z</time></trkpt><trkpt lat="45.17753210590127" lon="8.479301144712393"><ele>107.0</ele><time>2026-04-11T08:55:23.001Z</time></trkpt><trkpt lat="45.17743495584023" lon="8.479138403167047"><ele>107.0</ele><time>2026-04-11T08:55:24.001Z</time></trkpt><trkpt lat="45.17732549568521" lon="8.478970473703532"><ele>107.0</ele><time>2026-04-11T08:55:25.001Z</time></trkpt><trkpt lat="45.17721965912983" lon="8.47881642266386"><ele>107.0</ele><time>2026-04-11T08:55:26.001Z</time></trkpt><trkpt lat="45.17711381249447" lon="8.478641760779617"><ele>107.0</ele><time>2026-04-11T08:55:27.001Z</time></trkpt><trkpt lat="45.17701327215544" lon="8.478488039149779"><ele>107.0</ele><time>2026-04-11T08:55:28.001Z</time></trkpt><trkpt lat="45.1768917941057" lon="8.478316119093732"><ele>107.0</ele><time>2026-04-11T08:55:29.001Z</time></trkpt><trkpt lat="45.176774301704135" lon="8.478141522005478"><ele>107.0</ele><time>2026-04-11T08:55:30.001Z</time></trkpt><trkpt lat="45.17666014629932" lon="8.477967057692268"><ele>107.33333333333333</ele><time>2026-04-11T08:55:31.001Z</time></trkpt><trkpt lat="45.1765418556093" lon="8.477785396124347"><ele>107.66666666666666</ele><time>2026-04-11T08:55:32.001Z</time></trkpt><trkpt lat="45.17642609596029" lon="8.47761243030765"><ele>108.0</ele><time>2026-04-11T08:55:33.001Z</time></trkpt><trkpt lat="45.17631300826991" lon="8.477439669634432"><ele>108.0</ele><time>2026-04-11T08:55:34.001Z</time></trkpt><trkpt lat="45.1762031986549" lon="8.477272114163993"><ele>108.0</ele><time>2026-04-11T08:55:35.001Z</time></trkpt><trkpt lat="45.17609226306774" lon="8.477106258414274"><ele>108.0</ele><time>2026-04-11T08:55:36.001Z</time></trkpt><trkpt lat="45.175980111870395" lon="8.476942202139599"><ele>108.0</ele><time>2026-04-11T08:55:37.001Z</time></trkpt><trkpt lat="45.17586645698156" lon="8.476774670448819"><ele>108.0</ele><time>2026-04-11T08:55:38.001Z</time></trkpt><trkpt lat="45.17575344907733" lon="8.47660463035882"><ele>108.0</ele><time>2026-04-11T08:55:39.001Z</time></trkpt><trkpt lat="45.17563850780015" lon="8.476428689468532"><ele>108.25</ele><time>2026-04-11T08:55:40.001Z</time></trkpt><trkpt lat="45.175527082294636" lon="8.476255020737735"><ele>108.5</ele><time>2026-04-11T08:55:41.002Z</time></trkpt><trkpt lat="45.17542875486745" lon="8.476098381184345"><ele>108.75</ele><time>2026-04-11T08:55:42.002Z</time></trkpt><trkpt lat="45.17533948237558" lon="8.475968137970153"><ele>109.0</ele><time>2026-04-11T08:55:43.002Z</time></trkpt><trkpt lat="45.17525939416088" lon="8.47584737476841"><ele>109.0</ele><time>2026-04-11T08:55:44.002Z</time></trkpt><trkpt lat="45.17518129487402" lon="8.475724508447598"><ele>109.0</ele><time>2026-04-11T08:55:45.002Z</time></trkpt><trkpt lat="45.175115915378115" lon="8.475621338706278"><ele>109.0</ele><time>2026-04-11T08:55:46.002Z</time></trkpt><trkpt lat="45.175059797923865" lon="8.475533597598844"><ele>109.0</ele><time>2026-04-11T08:55:47.002Z</time></trkpt><trkpt lat="45.17501652313655" lon="8.475468471828377"><ele>109.0</ele><time>2026-04-11T08:55:48.002Z</time></trkpt><trkpt lat="45.17494466119946" lon="8.475353901435936"><ele>109.0</ele><time>2026-04-11T08:55:50.002Z</time></trkpt><trkpt lat="45.174912598357075" lon="8.475257571932339"><ele>109.0</ele><time>2026-04-11T08:55:53.002Z</time></trkpt><trkpt lat="45.17496480046592" lon="8.475395074068258"><ele>109.0</ele><time>2026-04-11T08:56:04.002Z</time></trkpt><trkpt lat="45.17504922259677" lon="8.475532133053262"><ele>109.0</ele><time>2026-04-11T08:56:05.002Z</time></trkpt><trkpt lat="45.17511959287311" lon="8.47571759066503"><ele>109.0</ele><time>2026-04-11T08:56:06Z</time></trkpt><trkpt lat="45.17520166620604" lon="8.475815220923105"><ele>109.0</ele><time>2026-04-11T08:56:07Z</time></trkpt><trkpt lat="45.175271114220855" lon="8.475932944838055"><ele>109.0</ele><time>2026-04-11T08:56:08Z</time></trkpt><trkpt lat="45.17534663194215" lon="8.476058122571843"><ele>109.0</ele><time>2026-04-11T08:56:09Z</time></trkpt><trkpt lat="45.17542480204122" lon="8.47617693740919"><ele>109.0</ele><time>2026-04-11T08:56:10Z</time></trkpt><trkpt lat="45.175503855097396" lon="8.476295740619253"><ele>109.0</ele><time>2026-04-11T08:56:11Z</time></trkpt><trkpt lat="45.17558203965199" lon="8.47641401838363"><ele>109.0</ele><time>2026-04-11T08:56:12Z</time></trkpt><trkpt lat="45.17565528974147" lon="8.476519034470542"><ele>109.0</ele><time>2026-04-11T08:56:13Z</time></trkpt><trkpt lat="45.17572604881237" lon="8.476620316018142"><ele>109.0</ele><time>2026-04-11T08:56:14Z</time></trkpt><trkpt lat="45.17578975485543" lon="8.476712813373892"><ele>109.0</ele><time>2026-04-11T08:56:15Z</time></trkpt><trkpt lat="45.17583730296429" lon="8.476787493974943"><ele>109.00000000000001</ele><time>2026-04-11T08:56:16Z</time></trkpt><trkpt lat="45.17579148299692" lon="8.476952120209676"><ele>109.0</ele><time>2026-04-11T08:56:18Z</time></trkpt><trkpt lat="45.17573105035317" lon="8.476989012297626"><ele>109.0</ele><time>2026-04-11T08:56:23Z</time></trkpt><trkpt lat="45.175654960619106" lon="8.477049488481269"><ele>109.0</ele><time>2026-04-11T08:56:25Z</time></trkpt><trkpt lat="45.175576282374685" lon="8.477080784606473"><ele>109.00000000000001</ele><time>2026-04-11T08:56:27Z</time></trkpt><trkpt lat="45.17549904796092" lon="8.477019178616272"><ele>109.0</ele><time>2026-04-11T08:56:29Z</time></trkpt><trkpt lat="45.17541602083006" lon="8.476899968755385"><ele>109.0</ele><time>2026-04-11T08:56:31Z</time></trkpt><trkpt lat="45.175366452587774" lon="8.476833015167957"><ele>109.0</ele><time>2026-04-11T08:56:32Z</time></trkpt><trkpt lat="45.17530997271883" lon="8.476756358233157"><ele>109.0</ele><time>2026-04-11T08:56:33Z</time></trkpt><trkpt lat="45.175241705704195" lon="8.476662871937892"><ele>109.0</ele><time>2026-04-11T08:56:34Z</time></trkpt><trkpt lat="45.175164628624145" lon="8.476556809060844"><ele>109.0</ele><time>2026-04-11T08:56:35Z</time></trkpt><trkpt lat="45.17507522511601" lon="8.476438927735815"><ele>109.0</ele><time>2026-04-11T08:56:36Z</time></trkpt><trkpt lat="45.174986949670384" lon="8.47632980079893"><ele>109.0</ele><time>2026-04-11T08:56:37Z</time></trkpt><trkpt lat="45.17490131456564" lon="8.476217996524793"><ele>109.0</ele><time>2026-04-11T08:56:38Z</time></trkpt><trkpt lat="45.17482395851802" lon="8.476080631963528"><ele>109.0</ele><time>2026-04-11T08:56:39Z</time></trkpt><trkpt lat="45.174729100961684" lon="8.475969363155395"><ele>109.0</ele><time>2026-04-11T08:56:40Z</time></trkpt><trkpt lat="45.17464046450833" lon="8.47584816421204"><ele>109.0</ele><time>2026-04-11T08:56:41Z</time></trkpt><trkpt lat="45.174557889426076" lon="8.475729253430115"><ele>109.0</ele><time>2026-04-11T08:56:42Z</time></trkpt><trkpt lat="45.17448038467309" lon="8.475619309893949"><ele>109.0</ele><time>2026-04-11T08:56:43Z</time></trkpt><trkpt lat="45.174405209148944" lon="8.475512834233939"><ele>109.00000000000001</ele><time>2026-04-11T08:56:44Z</time></trkpt><trkpt lat="45.17433819808125" lon="8.475414111627705"><ele>109.0</ele><time>2026-04-11T08:56:45Z</time></trkpt><trkpt lat="45.174278558172645" lon="8.475326768398299"><ele>109.0</ele><time>2026-04-11T08:56:46.001Z</time></trkpt><trkpt lat="45.17422350720272" lon="8.475254191172677"><ele>109.0</ele><time>2026-04-11T08:56:47.001Z</time></trkpt><trkpt lat="45.174130032756075" lon="8.475149592070034"><ele>109.00000000000001</ele><time>2026-04-11T08:56:49.001Z</time></trkpt><trkpt lat="45.17406155492827" lon="8.475171423692395"><ele>109.0</ele><time>2026-04-11T08:56:50.001Z</time></trkpt><trkpt lat="45.173994170220624" lon="8.475196299250166"><ele>108.25</ele><time>2026-04-11T08:56:51.001Z</time></trkpt><trkpt lat="45.17389684500391" lon="8.47523041521711"><ele>107.5</ele><time>2026-04-11T08:56:52.001Z</time></trkpt><trkpt lat="45.1737871038149" lon="8.475267802647554"><ele>106.75</ele><time>2026-04-11T08:56:53.001Z</time></trkpt><trkpt lat="45.1736532165743" lon="8.475302815659797"><ele>106.0</ele><time>2026-04-11T08:56:54.001Z</time></trkpt><trkpt lat="45.17351182735435" lon="8.475334817889157"><ele>106.0</ele><time>2026-04-11T08:56:55.001Z</time></trkpt><trkpt lat="45.17337422533427" lon="8.475364647912631"><ele>106.0</ele><time>2026-04-11T08:56:56.001Z</time></trkpt><trkpt lat="45.173238574559115" lon="8.475398134419493"><ele>106.0</ele><time>2026-04-11T08:56:57.001Z</time></trkpt><trkpt lat="45.1730985340827" lon="8.475434617111718"><ele>106.0</ele><time>2026-04-11T08:56:58.001Z</time></trkpt><trkpt lat="45.17297242436123" lon="8.475474876344425"><ele>106.25</ele><time>2026-04-11T08:56:59.001Z</time></trkpt><trkpt lat="45.1728588001934" lon="8.47551648388308"><ele>106.5</ele><time>2026-04-11T08:57:00.001Z</time></trkpt><trkpt lat="45.17274425781202" lon="8.4755638177937"><ele>106.75</ele><time>2026-04-11T08:57:01.001Z</time></trkpt><trkpt lat="45.172635882881295" lon="8.475610662888487"><ele>107.0</ele><time>2026-04-11T08:57:02.001Z</time></trkpt><trkpt lat="45.172537319935344" lon="8.475659470218213"><ele>106.99999999999999</ele><time>2026-04-11T08:57:03.001Z</time></trkpt><trkpt lat="45.17244892853786" lon="8.47569219195711"><ele>107.0</ele><time>2026-04-11T08:57:04.001Z</time></trkpt><trkpt lat="45.17236617624109" lon="8.475702107052317"><ele>107.0</ele><time>2026-04-11T08:57:05.001Z</time></trkpt><trkpt lat="45.17229076396569" lon="8.475695268153773"><ele>107.0</ele><time>2026-04-11T08:57:06.001Z</time></trkpt><trkpt lat="45.172231322051374" lon="8.47565546061286"><ele>106.99999999999999</ele><time>2026-04-11T08:57:07.001Z</time></trkpt><trkpt lat="45.17218652911134" lon="8.475591183282015"><ele>107.0</ele><time>2026-04-11T08:57:08.001Z</time></trkpt><trkpt lat="45.172158879048304" lon="8.475498336602035"><ele>107.39999999999999</ele><time>2026-04-11T08:57:09.001Z</time></trkpt><trkpt lat="45.172173669263465" lon="8.475369185304217"><ele>107.79999999999998</ele><time>2026-04-11T08:57:10.001Z</time></trkpt><trkpt lat="45.17215201165638" lon="8.47524137928625"><ele>108.2</ele><time>2026-04-11T08:57:11.001Z</time></trkpt><trkpt lat="45.17209895228166" lon="8.47511443385525"><ele>108.6</ele><time>2026-04-11T08:57:12.001Z</time></trkpt><trkpt lat="45.17204945778303" lon="8.47498995986184"><ele>109.0</ele><time>2026-04-11T08:57:13.001Z</time></trkpt><trkpt lat="45.17199119302266" lon="8.474902573231134"><ele>109.0</ele><time>2026-04-11T08:57:14.001Z</time></trkpt><trkpt lat="45.17191373000116" lon="8.474815376737876"><ele>109.0</ele><time>2026-04-11T08:57:15.001Z</time></trkpt><trkpt lat="45.171826051814115" lon="8.474738066108594"><ele>109.0</ele><time>2026-04-11T08:57:16.001Z</time></trkpt><trkpt lat="45.17172399170185" lon="8.474655433868259"><ele>109.0</ele><time>2026-04-11T08:57:17.001Z</time></trkpt><trkpt lat="45.17161306178819" lon="8.474579122585459"><ele>109.0</ele><time>2026-04-11T08:57:18.001Z</time></trkpt><trkpt lat="45.17149995524075" lon="8.47450262713583"><ele>108.0</ele><time>2026-04-11T08:57:19.001Z</time></trkpt><trkpt lat="45.17138052299067" lon="8.474419306517058"><ele>107.0</ele><time>2026-04-11T08:57:20.001Z</time></trkpt><trkpt lat="45.1712718438021" lon="8.474339298042038"><ele>106.0</ele><time>2026-04-11T08:57:21.001Z</time></trkpt><trkpt lat="45.17117407281564" lon="8.474266382135529"><ele>105.0</ele><time>2026-04-11T08:57:22.001Z</time></trkpt><trkpt lat="45.171096919734836" lon="8.47420041674717"><ele>105.0</ele><time>2026-04-11T08:57:23.001Z</time></trkpt><trkpt lat="45.17103725214388" lon="8.474133233703682"><ele>105.0</ele><time>2026-04-11T08:57:24.001Z</time></trkpt><trkpt lat="45.170988255122545" lon="8.474052780049012"><ele>105.0</ele><time>2026-04-11T08:57:25.001Z</time></trkpt><trkpt lat="45.17097110903453" lon="8.473938057137415"><ele>105.0</ele><time>2026-04-11T08:57:26.001Z</time></trkpt><trkpt lat="45.17094307540199" lon="8.473812066229632"><ele>105.0</ele><time>2026-04-11T08:57:27.001Z</time></trkpt><trkpt lat="45.17093015694657" lon="8.473683663846845"><ele>105.0</ele><time>2026-04-11T08:57:28.001Z</time></trkpt><trkpt lat="45.1708907637643" lon="8.473561350817937"><ele>105.4</ele><time>2026-04-11T08:57:29.001Z</time></trkpt><trkpt lat="45.17085903380475" lon="8.47344941185201"><ele>105.8</ele><time>2026-04-11T08:57:30.001Z</time></trkpt><trkpt lat="45.170809610926156" lon="8.473348594086252"><ele>106.19999999999999</ele><time>2026-04-11T08:57:31.001Z</time></trkpt><trkpt lat="45.1707429531015" lon="8.473267229662975"><ele>106.6</ele><time>2026-04-11T08:57:32.001Z</time></trkpt><trkpt lat="45.1706548506224" lon="8.47320674002436"><ele>107.0</ele><time>2026-04-11T08:57:33.001Z</time></trkpt><trkpt lat="45.17054642856754" lon="8.473144073232975"><ele>106.99999999999999</ele><time>2026-04-11T08:57:34.001Z</time></trkpt><trkpt lat="45.17044091310782" lon="8.473068275280621"><ele>107.0</ele><time>2026-04-11T08:57:35.001Z</time></trkpt><trkpt lat="45.170358208654434" lon="8.472999061996763"><ele>107.0</ele><time>2026-04-11T08:57:36.001Z</time></trkpt><trkpt lat="45.17028226751655" lon="8.47295379333244"><ele>107.0</ele><time>2026-04-11T08:57:37.001Z</time></trkpt><trkpt lat="45.17021087818398" lon="8.472926445034288"><ele>106.99999999999999</ele><time>2026-04-11T08:57:38.001Z</time></trkpt><trkpt lat="45.17013956073134" lon="8.472927200339411"><ele>107.0</ele><time>2026-04-11T08:57:39.001Z</time></trkpt><trkpt lat="45.17006247956051" lon="8.472956853065156"><ele>107.0</ele><time>2026-04-11T08:57:40.001Z</time></trkpt><trkpt lat="45.169998130825384" lon="8.473006933042202"><ele>106.99999999999999</ele><time>2026-04-11T08:57:41.001Z</time></trkpt><trkpt lat="45.16992068358661" lon="8.473066302155212"><ele>106.99999999999999</ele><time>2026-04-11T08:57:42.001Z</time></trkpt><trkpt lat="45.16982849554557" lon="8.473097236850515"><ele>107.0</ele><time>2026-04-11T08:57:43.001Z</time></trkpt><trkpt lat="45.16972323772584" lon="8.473102587151812"><ele>107.0</ele><time>2026-04-11T08:57:44.001Z</time></trkpt><trkpt lat="45.16961334065962" lon="8.473102977173152"><ele>107.0</ele><time>2026-04-11T08:57:45.001Z</time></trkpt><trkpt lat="45.169503768050646" lon="8.473107693113306"><ele>106.99999999999999</ele><time>2026-04-11T08:57:46.001Z</time></trkpt><trkpt lat="45.16940306773189" lon="8.473102078118897"><ele>106.99999999999999</ele><time>2026-04-11T08:57:47.001Z</time></trkpt><trkpt lat="45.16930741723265" lon="8.473088867535768"><ele>107.0</ele><time>2026-04-11T08:57:48.001Z</time></trkpt><trkpt lat="45.16920148704629" lon="8.473067119538069"><ele>107.0</ele><time>2026-04-11T08:57:49.002Z</time></trkpt><trkpt lat="45.16909663367032" lon="8.473060205293052"><ele>107.0</ele><time>2026-04-11T08:57:50.002Z</time></trkpt><trkpt lat="45.16896889673856" lon="8.473015538897352"><ele>107.0</ele><time>2026-04-11T08:57:51.002Z</time></trkpt><trkpt lat="45.16884993491531" lon="8.472968421406325"><ele>107.0</ele><time>2026-04-11T08:57:52.002Z</time></trkpt><trkpt lat="45.168725664937405" lon="8.472919443778933"><ele>107.0</ele><time>2026-04-11T08:57:53.002Z</time></trkpt><trkpt lat="45.168595779643724" lon="8.472882036676111"><ele>107.0</ele><time>2026-04-11T08:57:54.002Z</time></trkpt><trkpt lat="45.1684666740093" lon="8.472853640663983"><ele>107.0</ele><time>2026-04-11T08:57:55.002Z</time></trkpt><trkpt lat="45.1683292881122" lon="8.472828107591518"><ele>107.0</ele><time>2026-04-11T08:57:56.002Z</time></trkpt><trkpt lat="45.168198392229975" lon="8.472806258892195"><ele>107.0</ele><time>2026-04-11T08:57:57.002Z</time></trkpt><trkpt lat="45.16807515151114" lon="8.472781203917886"><ele>107.0</ele><time>2026-04-11T08:57:58.002Z</time></trkpt><trkpt lat="45.167958910186805" lon="8.47274936720687"><ele>106.99999999999999</ele><time>2026-04-11T08:57:59.002Z</time></trkpt><trkpt lat="45.167849038325755" lon="8.472714377801204"><ele>106.99999999999999</ele><time>2026-04-11T08:58:00.002Z</time></trkpt><trkpt lat="45.16774831619916" lon="8.472671981727215"><ele>107.0</ele><time>2026-04-11T08:58:01.002Z</time></trkpt><trkpt lat="45.167665517100694" lon="8.472629788048431"><ele>107.0</ele><time>2026-04-11T08:58:02.002Z</time></trkpt><trkpt lat="45.167591168190135" lon="8.47259227571597"><ele>107.0</ele><time>2026-04-11T08:58:03.002Z</time></trkpt><trkpt lat="45.16752992380113" lon="8.472558461279357"><ele>106.99999999999999</ele><time>2026-04-11T08:58:04.002Z</time></trkpt><trkpt lat="45.16745962833024" lon="8.472497914490416"><ele>106.99999999999999</ele><time>2026-04-11T08:58:07.002Z</time></trkpt><trkpt lat="45.16738314466076" lon="8.472451336808726"><ele>107.0</ele><time>2026-04-11T08:58:09.002Z</time></trkpt><trkpt lat="45.167382869500365" lon="8.472174746902"><ele>107.0</ele><time>2026-04-11T08:58:10.002Z</time></trkpt><trkpt lat="45.16734111413011" lon="8.472080583350332"><ele>107.39999999999999</ele><time>2026-04-11T08:58:11.002Z</time></trkpt><trkpt lat="45.16729143089813" lon="8.471991669117791"><ele>107.79999999999998</ele><time>2026-04-11T08:58:11.999Z</time></trkpt><trkpt lat="45.16722289623171" lon="8.471910763582825"><ele>108.2</ele><time>2026-04-11T08:58:12.999Z</time></trkpt><trkpt lat="45.167138697742146" lon="8.471829938127803"><ele>108.6</ele><time>2026-04-11T08:58:13.999Z</time></trkpt><trkpt lat="45.167048016337525" lon="8.471748813503051"><ele>109.0</ele><time>2026-04-11T08:58:14.999Z</time></trkpt><trkpt lat="45.16695631826257" lon="8.471656522580295"><ele>109.0</ele><time>2026-04-11T08:58:15.999Z</time></trkpt><trkpt lat="45.16686238004796" lon="8.471565466208572"><ele>109.0</ele><time>2026-04-11T08:58:16.999Z</time></trkpt><trkpt lat="45.1667678537723" lon="8.471480664292379"><ele>109.0</ele><time>2026-04-11T08:58:17.999Z</time></trkpt><trkpt lat="45.166684208919236" lon="8.471416135461887"><ele>109.0</ele><time>2026-04-11T08:58:18.999Z</time></trkpt><trkpt lat="45.16659866570304" lon="8.471356062414426"><ele>109.0</ele><time>2026-04-11T08:58:19.999Z</time></trkpt><trkpt lat="45.166496378698795" lon="8.471297607133515"><ele>108.75</ele><time>2026-04-11T08:58:20.999Z</time></trkpt><trkpt lat="45.16637719142404" lon="8.471244526053441"><ele>108.5</ele><time>2026-04-11T08:58:21.999Z</time></trkpt><trkpt lat="45.166245610362395" lon="8.471190159351176"><ele>108.25</ele><time>2026-04-11T08:58:22.999Z</time></trkpt><trkpt lat="45.16612016922796" lon="8.47113217994998"><ele>108.0</ele><time>2026-04-11T08:58:23.999Z</time></trkpt><trkpt lat="45.16600901059357" lon="8.47108080642231"><ele>108.0</ele><time>2026-04-11T08:58:24.999Z</time></trkpt><trkpt lat="45.16590726927285" lon="8.47104716611643"><ele>108.00000000000001</ele><time>2026-04-11T08:58:25.999Z</time></trkpt><trkpt lat="45.16582264726922" lon="8.471016229830177"><ele>108.00000000000001</ele><time>2026-04-11T08:58:26.999Z</time></trkpt><trkpt lat="45.1657563057881" lon="8.47098247036515"><ele>108.0</ele><time>2026-04-11T08:58:27.999Z</time></trkpt><trkpt lat="45.16568015845626" lon="8.470843763549306"><ele>108.0</ele><time>2026-04-11T08:58:29.999Z</time></trkpt><trkpt lat="45.165642133932025" lon="8.470722885001333"><ele>107.75</ele><time>2026-04-11T08:58:30.999Z</time></trkpt><trkpt lat="45.165599821036025" lon="8.470575486339344"><ele>107.5</ele><time>2026-04-11T08:58:31.999Z</time></trkpt><trkpt lat="45.1655545290302" lon="8.470406459995406"><ele>107.25</ele><time>2026-04-11T08:58:33Z</time></trkpt><trkpt lat="45.16550792117185" lon="8.470232838060989"><ele>107.0</ele><time>2026-04-11T08:58:34Z</time></trkpt><trkpt lat="45.16546566159911" lon="8.470076038868351"><ele>106.99999999999999</ele><time>2026-04-11T08:58:35Z</time></trkpt><trkpt lat="45.165426055282545" lon="8.469935769208947"><ele>107.0</ele><time>2026-04-11T08:58:36Z</time></trkpt><trkpt lat="45.16538830306536" lon="8.46979918001805"><ele>107.0</ele><time>2026-04-11T08:58:37Z</time></trkpt><trkpt lat="45.165354789527974" lon="8.469691916225848"><ele>107.0</ele><time>2026-04-11T08:58:38Z</time></trkpt><trkpt lat="45.16531415415156" lon="8.469613584687226"><ele>106.99999999999999</ele><time>2026-04-11T08:58:39Z</time></trkpt><trkpt lat="45.16525931275115" lon="8.469557576457023"><ele>107.0</ele><time>2026-04-11T08:58:40Z</time></trkpt><trkpt lat="45.16519116802713" lon="8.469516747015618"><ele>107.0</ele><time>2026-04-11T08:58:41Z</time></trkpt><trkpt lat="45.165099213745435" lon="8.469490473887264"><ele>107.0</ele><time>2026-04-11T08:58:42Z</time></trkpt><trkpt lat="45.164986120602" lon="8.469462273564439"><ele>107.0</ele><time>2026-04-11T08:58:43Z</time></trkpt><trkpt lat="45.164849192250365" lon="8.469422636031078"><ele>107.0</ele><time>2026-04-11T08:58:44Z</time></trkpt><trkpt lat="45.164698513701715" lon="8.469377897880955"><ele>107.33333333333333</ele><time>2026-04-11T08:58:45Z</time></trkpt><trkpt lat="45.16453557899995" lon="8.469332864978433"><ele>107.66666666666666</ele><time>2026-04-11T08:58:46Z</time></trkpt><trkpt lat="45.164374575348766" lon="8.469286523960958"><ele>108.0</ele><time>2026-04-11T08:58:47Z</time></trkpt><trkpt lat="45.164210607060284" lon="8.469239331914089"><ele>108.0</ele><time>2026-04-11T08:58:48Z</time></trkpt><trkpt lat="45.164064352353364" lon="8.4691972200545"><ele>108.0</ele><time>2026-04-11T08:58:49Z</time></trkpt><trkpt lat="45.16392878649287" lon="8.469152738287141"><ele>108.0</ele><time>2026-04-11T08:58:50Z</time></trkpt><trkpt lat="45.1638049782346" lon="8.46911335849453"><ele>108.0</ele><time>2026-04-11T08:58:51Z</time></trkpt><trkpt lat="45.16369298562648" lon="8.469079117644668"><ele>108.4</ele><time>2026-04-11T08:58:52Z</time></trkpt><trkpt lat="45.163595988420106" lon="8.469052061615828"><ele>108.80000000000001</ele><time>2026-04-11T08:58:53Z</time></trkpt><trkpt lat="45.1635035525443" lon="8.469023777110799"><ele>109.2</ele><time>2026-04-11T08:58:54Z</time></trkpt><trkpt lat="45.16341816728696" lon="8.468999382636566"><ele>109.6</ele><time>2026-04-11T08:58:55Z</time></trkpt><trkpt lat="45.16333184147916" lon="8.468974966772237"><ele>110.0</ele><time>2026-04-11T08:58:56Z</time></trkpt><trkpt lat="45.16322938444539" lon="8.468942573676111"><ele>109.75</ele><time>2026-04-11T08:58:57Z</time></trkpt><trkpt lat="45.16311716547391" lon="8.468898794449279"><ele>109.5</ele><time>2026-04-11T08:58:58Z</time></trkpt><trkpt lat="45.16299131100231" lon="8.468858251896757"><ele>109.25</ele><time>2026-04-11T08:58:59Z</time></trkpt><trkpt lat="45.16286581911855" lon="8.468824836984505"><ele>109.0</ele><time>2026-04-11T08:59:00Z</time></trkpt><trkpt lat="45.162749050745646" lon="8.46879370004782"><ele>108.83333333333334</ele><time>2026-04-11T08:59:01Z</time></trkpt><trkpt lat="45.162642361419415" lon="8.468765128999426"><ele>108.66666666666667</ele><time>2026-04-11T08:59:02Z</time></trkpt><trkpt lat="45.162554649860375" lon="8.468746160424919"><ele>108.5</ele><time>2026-04-11T08:59:03Z</time></trkpt><trkpt lat="45.16247588575177" lon="8.468724272511913"><ele>108.33333333333334</ele><time>2026-04-11T08:59:04Z</time></trkpt><trkpt lat="45.1624177102148" lon="8.468648810750386"><ele>108.16666666666667</ele><time>2026-04-11T08:59:06Z</time></trkpt><trkpt lat="45.16244798917594" lon="8.468545417316477"><ele>108.0</ele><time>2026-04-11T08:59:08Z</time></trkpt><trkpt lat="45.16253618700011" lon="8.468414981819528"><ele>108.0</ele><time>2026-04-11T08:59:10Z</time></trkpt><trkpt lat="45.16260835891249" lon="8.468328612914636"><ele>108.0</ele><time>2026-04-11T08:59:11Z</time></trkpt><trkpt lat="45.162709519877616" lon="8.468198111471965"><ele>108.0</ele><time>2026-04-11T08:59:12Z</time></trkpt><trkpt lat="45.16280989875762" lon="8.468055601516374"><ele>108.0</ele><time>2026-04-11T08:59:13Z</time></trkpt><trkpt lat="45.16290569817169" lon="8.467914533509882"><ele>107.75</ele><time>2026-04-11T08:59:14Z</time></trkpt><trkpt lat="45.162998686404414" lon="8.467769930506387"><ele>107.5</ele><time>2026-04-11T08:59:15Z</time></trkpt><trkpt lat="45.16307880648975" lon="8.467631213112137"><ele>107.25</ele><time>2026-04-11T08:59:16Z</time></trkpt><trkpt lat="45.1631456814067" lon="8.467498123144662"><ele>107.0</ele><time>2026-04-11T08:59:17.001Z</time></trkpt><trkpt lat="45.163204703515966" lon="8.467388104666782"><ele>107.8</ele><time>2026-04-11T08:59:18.001Z</time></trkpt><trkpt lat="45.16326756961677" lon="8.467272283563803"><ele>108.6</ele><time>2026-04-11T08:59:19.001Z</time></trkpt><trkpt lat="45.163328760571275" lon="8.467141473141064"><ele>109.39999999999999</ele><time>2026-04-11T08:59:20.001Z</time></trkpt><trkpt lat="45.16338522564457" lon="8.467005874397326"><ele>110.19999999999999</ele><time>2026-04-11T08:59:21.001Z</time></trkpt><trkpt lat="45.16343469048207" lon="8.466869196198417"><ele>111.0</ele><time>2026-04-11T08:59:22.001Z</time></trkpt><trkpt lat="45.16352301897248" lon="8.466750932935206"><ele>111.0</ele><time>2026-04-11T08:59:23.001Z</time></trkpt><trkpt lat="45.16359795327784" lon="8.46662083332823"><ele>111.0</ele><time>2026-04-11T08:59:24.001Z</time></trkpt><trkpt lat="45.16368651689277" lon="8.466475199209084"><ele>111.0</ele><time>2026-04-11T08:59:25.001Z</time></trkpt><trkpt lat="45.16377359239287" lon="8.466335058743105"><ele>111.0</ele><time>2026-04-11T08:59:26.001Z</time></trkpt><trkpt lat="45.16386909312038" lon="8.466182175767509"><ele>111.0</ele><time>2026-04-11T08:59:27.001Z</time></trkpt><trkpt lat="45.16396647584144" lon="8.466037827283897"><ele>111.0</ele><time>2026-04-11T08:59:28.001Z</time></trkpt><trkpt lat="45.16406747333396" lon="8.465905586806505"><ele>111.0</ele><time>2026-04-11T08:59:29.001Z</time></trkpt><trkpt lat="45.16417483907056" lon="8.46576648342792"><ele>111.0</ele><time>2026-04-11T08:59:30.001Z</time></trkpt><trkpt lat="45.16427783298022" lon="8.465623914404095"><ele>111.0</ele><time>2026-04-11T08:59:31.001Z</time></trkpt><trkpt lat="45.164373059388865" lon="8.465492097238704"><ele>111.0</ele><time>2026-04-11T08:59:32.001Z</time></trkpt><trkpt lat="45.16446748581221" lon="8.465361387373099"><ele>111.0</ele><time>2026-04-11T08:59:33.001Z</time></trkpt><trkpt lat="45.16456126819423" lon="8.465232998359093"><ele>111.0</ele><time>2026-04-11T08:59:34.001Z</time></trkpt><trkpt lat="45.164655631439004" lon="8.465102350498958"><ele>110.75</ele><time>2026-04-11T08:59:35.001Z</time></trkpt><trkpt lat="45.16474495828977" lon="8.464966314255978"><ele>110.5</ele><time>2026-04-11T08:59:36.001Z</time></trkpt><trkpt lat="45.16482735023013" lon="8.464828635187958"><ele>110.25</ele><time>2026-04-11T08:59:37.001Z</time></trkpt><trkpt lat="45.164900114030786" lon="8.464676317791323"><ele>110.0</ele><time>2026-04-11T08:59:38.001Z</time></trkpt><trkpt lat="45.16496501752012" lon="8.464525592896763"><ele>110.0</ele><time>2026-04-11T08:59:39.001Z</time></trkpt><trkpt lat="45.165025336133056" lon="8.464350659535068"><ele>110.0</ele><time>2026-04-11T08:59:40.001Z</time></trkpt><trkpt lat="45.16509363048762" lon="8.464165318896619"><ele>110.0</ele><time>2026-04-11T08:59:41.001Z</time></trkpt><trkpt lat="45.16515461748846" lon="8.46397867709193"><ele>110.0</ele><time>2026-04-11T08:59:42.001Z</time></trkpt><trkpt lat="45.16520427387166" lon="8.463804659889359"><ele>109.5</ele><time>2026-04-11T08:59:43.001Z</time></trkpt><trkpt lat="45.165264583810476" lon="8.463635559240176"><ele>109.0</ele><time>2026-04-11T08:59:44.001Z</time></trkpt><trkpt lat="45.165312038968786" lon="8.463469101879163"><ele>108.5</ele><time>2026-04-11T08:59:45.001Z</time></trkpt><trkpt lat="45.16534019873544" lon="8.46330845800317"><ele>108.0</ele><time>2026-04-11T08:59:46.001Z</time></trkpt><trkpt lat="45.165382052442915" lon="8.463166290484864"><ele>108.0</ele><time>2026-04-11T08:59:47.001Z</time></trkpt><trkpt lat="45.16543800091036" lon="8.463020974610494"><ele>108.0</ele><time>2026-04-11T08:59:48.001Z</time></trkpt><trkpt lat="45.16548328971872" lon="8.462856800659187"><ele>108.0</ele><time>2026-04-11T08:59:49.001Z</time></trkpt><trkpt lat="45.16551195713461" lon="8.462689713748771"><ele>108.0</ele><time>2026-04-11T08:59:50.001Z</time></trkpt><trkpt lat="45.16555485404082" lon="8.462542546094209"><ele>107.83333333333333</ele><time>2026-04-11T08:59:51.001Z</time></trkpt><trkpt lat="45.16558932848656" lon="8.46241599846799"><ele>107.66666666666666</ele><time>2026-04-11T08:59:52.001Z</time></trkpt><trkpt lat="45.16563239877715" lon="8.462316273041576"><ele>107.5</ele><time>2026-04-11T08:59:53.001Z</time></trkpt><trkpt lat="45.165659276080746" lon="8.462219234659463"><ele>107.33333333333333</ele><time>2026-04-11T08:59:54.001Z</time></trkpt><trkpt lat="45.16568407473279" lon="8.462101928715654"><ele>107.16666666666666</ele><time>2026-04-11T08:59:56.001Z</time></trkpt><trkpt lat="45.1657308480059" lon="8.462003230190598"><ele>107.0</ele><time>2026-04-11T08:59:59.001Z</time></trkpt><trkpt lat="45.165783005534465" lon="8.46194609217897"><ele>107.39999999999999</ele><time>2026-04-11T09:00:00.001Z</time></trkpt><trkpt lat="45.165801223129534" lon="8.461830064856967"><ele>107.79999999999998</ele><time>2026-04-11T09:00:02.001Z</time></trkpt><trkpt lat="45.16583908230723" lon="8.461696361888126"><ele>108.2</ele><time>2026-04-11T09:00:04.001Z</time></trkpt><trkpt lat="45.16588087227674" lon="8.461562086711488"><ele>108.6</ele><time>2026-04-11T09:00:06.001Z</time></trkpt><trkpt lat="45.16591386243993" lon="8.461447609169854"><ele>109.0</ele><time>2026-04-11T09:00:08.001Z</time></trkpt><trkpt lat="45.16595680649185" lon="8.461310504527006"><ele>109.16666666666667</ele><time>2026-04-11T09:00:10.001Z</time></trkpt><trkpt lat="45.1660017923042" lon="8.461180404975615"><ele>109.33333333333334</ele><time>2026-04-11T09:00:12.002Z</time></trkpt><trkpt lat="45.16605557076778" lon="8.461026085438798"><ele>109.5</ele><time>2026-04-11T09:00:14.002Z</time></trkpt><trkpt lat="45.16608686048781" lon="8.460942851166807"><ele>109.66666666666666</ele><time>2026-04-11T09:00:15.002Z</time></trkpt><trkpt lat="45.16612223417995" lon="8.460860657585973"><ele>109.83333333333333</ele><time>2026-04-11T09:00:16.002Z</time></trkpt><trkpt lat="45.16617236291671" lon="8.460797554711858"><ele>110.0</ele><time>2026-04-11T09:00:17.002Z</time></trkpt><trkpt lat="45.16621870186454" lon="8.460699116649598"><ele>109.99999999999999</ele><time>2026-04-11T09:00:18Z</time></trkpt><trkpt lat="45.16625468735032" lon="8.460607249493005"><ele>110.0</ele><time>2026-04-11T09:00:19Z</time></trkpt><trkpt lat="45.16628596529157" lon="8.460509628839363"><ele>110.0</ele><time>2026-04-11T09:00:20Z</time></trkpt><trkpt lat="45.16630890122803" lon="8.460416258895053"><ele>110.0</ele><time>2026-04-11T09:00:21Z</time></trkpt><trkpt lat="45.16632990472814" lon="8.460273533096636"><ele>109.99999999999999</ele><time>2026-04-11T09:00:23Z</time></trkpt><trkpt lat="45.16630390198404" lon="8.460187646418024"><ele>110.0</ele><time>2026-04-11T09:00:24Z</time></trkpt><trkpt lat="45.16631368410553" lon="8.460084834294705"><ele>110.16666666666666</ele><time>2026-04-11T09:00:25Z</time></trkpt><trkpt lat="45.166283523446566" lon="8.459999183616922"><ele>110.33333333333333</ele><time>2026-04-11T09:00:26Z</time></trkpt><trkpt lat="45.16629637679322" lon="8.459847674792176"><ele>110.5</ele><time>2026-04-11T09:00:28Z</time></trkpt><trkpt lat="45.16633384695569" lon="8.45971731844344"><ele>110.66666666666666</ele><time>2026-04-11T09:00:30Z</time></trkpt><trkpt lat="45.166364741618494" lon="8.459592931197545"><ele>110.83333333333333</ele><time>2026-04-11T09:00:32Z</time></trkpt><trkpt lat="45.16637935270317" lon="8.459499451755564"><ele>111.0</ele><time>2026-04-11T09:00:35Z</time></trkpt><trkpt lat="45.166272167040844" lon="8.459432825412174"><ele>111.0</ele><time>2026-04-11T09:00:36Z</time></trkpt><trkpt lat="45.166165175622304" lon="8.459326308546768"><ele>111.0</ele><time>2026-04-11T09:00:38Z</time></trkpt><trkpt lat="45.16607161480411" lon="8.459216509899194"><ele>111.0</ele><time>2026-04-11T09:00:39Z</time></trkpt><trkpt lat="45.165976527889896" lon="8.459104631966687"><ele>111.0</ele><time>2026-04-11T09:00:40Z</time></trkpt><trkpt lat="45.16587187314194" lon="8.458980153152654"><ele>111.0</ele><time>2026-04-11T09:00:41Z</time></trkpt><trkpt lat="45.16576216494827" lon="8.458853005770548"><ele>111.0</ele><time>2026-04-11T09:00:42Z</time></trkpt><trkpt lat="45.16565146151218" lon="8.458717222748257"><ele>111.0</ele><time>2026-04-11T09:00:43Z</time></trkpt><trkpt lat="45.16555473872407" lon="8.45857443832163"><ele>111.0</ele><time>2026-04-11T09:00:44Z</time></trkpt><trkpt lat="45.16545545258894" lon="8.458455015956872"><ele>110.75</ele><time>2026-04-11T09:00:45Z</time></trkpt><trkpt lat="45.16536376916771" lon="8.458346852586505"><ele>110.5</ele><time>2026-04-11T09:00:46Z</time></trkpt><trkpt lat="45.16526737687619" lon="8.458234985082745"><ele>110.25</ele><time>2026-04-11T09:00:47Z</time></trkpt><trkpt lat="45.16515424432171" lon="8.458132543479856"><ele>110.0</ele><time>2026-04-11T09:00:48Z</time></trkpt><trkpt lat="45.165071909967416" lon="8.458025188521415"><ele>109.8</ele><time>2026-04-11T09:00:49Z</time></trkpt><trkpt lat="45.164992846665754" lon="8.45793307267751"><ele>109.6</ele><time>2026-04-11T09:00:50Z</time></trkpt><trkpt lat="45.1649089677047" lon="8.457829368473908"><ele>109.4</ele><time>2026-04-11T09:00:51Z</time></trkpt><trkpt lat="45.16482225834661" lon="8.457723358626493"><ele>109.2</ele><time>2026-04-11T09:00:52Z</time></trkpt><trkpt lat="45.164730934718904" lon="8.457622189109602"><ele>109.0</ele><time>2026-04-11T09:00:53Z</time></trkpt><trkpt lat="45.16463711830405" lon="8.457513706502752"><ele>109.25</ele><time>2026-04-11T09:00:54Z</time></trkpt><trkpt lat="45.16453403383494" lon="8.45738927424178"><ele>109.5</ele><time>2026-04-11T09:00:55Z</time></trkpt><trkpt lat="45.16443585166609" lon="8.457237185017236"><ele>109.75</ele><time>2026-04-11T09:00:56Z</time></trkpt><trkpt lat="45.16432683387129" lon="8.457097263360945"><ele>110.0</ele><time>2026-04-11T09:00:57Z</time></trkpt><trkpt lat="45.16421235901346" lon="8.456961806160667"><ele>110.0</ele><time>2026-04-11T09:00:58Z</time></trkpt><trkpt lat="45.16409103673325" lon="8.456825356930821"><ele>110.0</ele><time>2026-04-11T09:00:59Z</time></trkpt><trkpt lat="45.16395212865728" lon="8.456697376738152"><ele>110.0</ele><time>2026-04-11T09:01:00Z</time></trkpt><trkpt lat="45.163816332871676" lon="8.456549055338265"><ele>110.0</ele><time>2026-04-11T09:01:01Z</time></trkpt><trkpt lat="45.16367543721825" lon="8.456399251539487"><ele>110.0</ele><time>2026-04-11T09:01:02Z</time></trkpt><trkpt lat="45.163551785473196" lon="8.456269179734385"><ele>110.0</ele><time>2026-04-11T09:01:03.001Z</time></trkpt><trkpt lat="45.16343616718447" lon="8.456158014254592"><ele>109.8</ele><time>2026-04-11T09:01:04.001Z</time></trkpt><trkpt lat="45.16333513823438" lon="8.456055904484948"><ele>109.6</ele><time>2026-04-11T09:01:05.001Z</time></trkpt><trkpt lat="45.16324461905414" lon="8.455963555201814"><ele>109.4</ele><time>2026-04-11T09:01:06.001Z</time></trkpt><trkpt lat="45.163185675688965" lon="8.455868135643282"><ele>109.2</ele><time>2026-04-11T09:01:07.001Z</time></trkpt><trkpt lat="45.16314578819143" lon="8.455772044675282"><ele>109.0</ele><time>2026-04-11T09:01:08.001Z</time></trkpt><trkpt lat="45.163128428514334" lon="8.455677689614715"><ele>109.0</ele><time>2026-04-11T09:01:09.001Z</time></trkpt><trkpt lat="45.16314907092147" lon="8.455573943619543"><ele>109.0</ele><time>2026-04-11T09:01:10.001Z</time></trkpt><trkpt lat="45.163169869626245" lon="8.455453958056587"><ele>109.0</ele><time>2026-04-11T09:01:11.001Z</time></trkpt><trkpt lat="45.16320762434237" lon="8.45532809690573"><ele>109.0</ele><time>2026-04-11T09:01:12.001Z</time></trkpt><trkpt lat="45.163256788430346" lon="8.455191288719401"><ele>109.0</ele><time>2026-04-11T09:01:13.001Z</time></trkpt><trkpt lat="45.16330805530623" lon="8.455039043764806"><ele>109.0</ele><time>2026-04-11T09:01:14.001Z</time></trkpt><trkpt lat="45.16336182045557" lon="8.454877350505104"><ele>109.0</ele><time>2026-04-11T09:01:15.001Z</time></trkpt><trkpt lat="45.16341550347831" lon="8.454715903637942"><ele>109.0</ele><time>2026-04-11T09:01:16.001Z</time></trkpt><trkpt lat="45.16346040392188" lon="8.45456992078016"><ele>109.0</ele><time>2026-04-11T09:01:17.001Z</time></trkpt><trkpt lat="45.16350140482239" lon="8.454428485332187"><ele>109.0</ele><time>2026-04-11T09:01:18.001Z</time></trkpt><trkpt lat="45.16353638249931" lon="8.454281841928974"><ele>109.0</ele><time>2026-04-11T09:01:19.001Z</time></trkpt><trkpt lat="45.16356660332351" lon="8.454139552644047"><ele>109.0</ele><time>2026-04-11T09:01:20.001Z</time></trkpt><trkpt lat="45.163594509648654" lon="8.453998707877505"><ele>109.0</ele><time>2026-04-11T09:01:21.001Z</time></trkpt><trkpt lat="45.16362107804279" lon="8.453848209292458"><ele>109.0</ele><time>2026-04-11T09:01:22.001Z</time></trkpt><trkpt lat="45.16364605759212" lon="8.45369890812555"><ele>109.0</ele><time>2026-04-11T09:01:23.001Z</time></trkpt><trkpt lat="45.16365293987549" lon="8.4535448639897"><ele>109.0</ele><time>2026-04-11T09:01:24.001Z</time></trkpt><trkpt lat="45.16367228480904" lon="8.453411336141759"><ele>109.0</ele><time>2026-04-11T09:01:25.001Z</time></trkpt><trkpt lat="45.163691704176784" lon="8.45325593710085"><ele>109.0</ele><time>2026-04-11T09:01:26.001Z</time></trkpt><trkpt lat="45.163703391342736" lon="8.453102027764368"><ele>109.0</ele><time>2026-04-11T09:01:27.001Z</time></trkpt><trkpt lat="45.16370471266205" lon="8.452946740058437"><ele>109.0</ele><time>2026-04-11T09:01:28.001Z</time></trkpt><trkpt lat="45.163693064961244" lon="8.452795939248988"><ele>109.0</ele><time>2026-04-11T09:01:29.001Z</time></trkpt><trkpt lat="45.16367473163114" lon="8.452641936906604"><ele>109.0</ele><time>2026-04-11T09:01:30.001Z</time></trkpt><trkpt lat="45.163660775322704" lon="8.452482909928358"><ele>109.0</ele><time>2026-04-11T09:01:31.001Z</time></trkpt><trkpt lat="45.16365430299779" lon="8.452317764958241"><ele>109.0</ele><time>2026-04-11T09:01:32.001Z</time></trkpt><trkpt lat="45.16363527602744" lon="8.452150982833164"><ele>109.2</ele><time>2026-04-11T09:01:33.001Z</time></trkpt><trkpt lat="45.1636161274333" lon="8.451994838597207"><ele>109.4</ele><time>2026-04-11T09:01:34.001Z</time></trkpt><trkpt lat="45.1635979716456" lon="8.451853282306256"><ele>109.6</ele><time>2026-04-11T09:01:35.001Z</time></trkpt><trkpt lat="45.163564393931615" lon="8.451721256489893"><ele>109.8</ele><time>2026-04-11T09:01:36.001Z</time></trkpt><trkpt lat="45.16355512803884" lon="8.451578733445455"><ele>110.0</ele><time>2026-04-11T09:01:37.001Z</time></trkpt><trkpt lat="45.16353722375551" lon="8.451428819915845"><ele>109.8</ele><time>2026-04-11T09:01:38.001Z</time></trkpt><trkpt lat="45.16353007567655" lon="8.451286039124218"><ele>109.6</ele><time>2026-04-11T09:01:39.001Z</time></trkpt><trkpt lat="45.16350343189311" lon="8.451158769872979"><ele>109.4</ele><time>2026-04-11T09:01:40.001Z</time></trkpt><trkpt lat="45.16345682581063" lon="8.451033521863954"><ele>109.2</ele><time>2026-04-11T09:01:41.001Z</time></trkpt><trkpt lat="45.16338390379059" lon="8.450925270337455"><ele>109.0</ele><time>2026-04-11T09:01:42.001Z</time></trkpt><trkpt lat="45.163321678785486" lon="8.450803394658973"><ele>109.0</ele><time>2026-04-11T09:01:43.001Z</time></trkpt><trkpt lat="45.16325391448104" lon="8.450685331617484"><ele>109.0</ele><time>2026-04-11T09:01:44.001Z</time></trkpt><trkpt lat="45.163179013431744" lon="8.450564500767562"><ele>109.0</ele><time>2026-04-11T09:01:45.001Z</time></trkpt><trkpt lat="45.16310450198237" lon="8.450453020880591"><ele>109.0</ele><time>2026-04-11T09:01:46.001Z</time></trkpt><trkpt lat="45.16302386118078" lon="8.450350628212036"><ele>109.0</ele><time>2026-04-11T09:01:47.001Z</time></trkpt><trkpt lat="45.16294796094424" lon="8.450249425161143"><ele>109.2</ele><time>2026-04-11T09:01:48.001Z</time></trkpt><trkpt lat="45.16285661441576" lon="8.450155150123349"><ele>109.4</ele><time>2026-04-11T09:01:49.001Z</time></trkpt><trkpt lat="45.16277134692511" lon="8.450061075911227"><ele>109.6</ele><time>2026-04-11T09:01:50.001Z</time></trkpt><trkpt lat="45.16268708100612" lon="8.449968380659664"><ele>109.8</ele><time>2026-04-11T09:01:51.001Z</time></trkpt><trkpt lat="45.16261355246267" lon="8.449881362687051"><ele>110.0</ele><time>2026-04-11T09:01:52.001Z</time></trkpt><trkpt lat="45.16256703660654" lon="8.449805394750289"><ele>109.99999999999999</ele><time>2026-04-11T09:01:53.001Z</time></trkpt><trkpt lat="45.162539145573064" lon="8.449720940765"><ele>110.0</ele><time>2026-04-11T09:01:54.001Z</time></trkpt><trkpt lat="45.162551332467984" lon="8.449610854457642"><ele>110.0</ele><time>2026-04-11T09:01:55.002Z</time></trkpt><trkpt lat="45.16257264827116" lon="8.449489700948803"><ele>110.0</ele><time>2026-04-11T09:01:56.002Z</time></trkpt><trkpt lat="45.1625936361268" lon="8.44934930375753"><ele>109.99999999999999</ele><time>2026-04-11T09:01:57.002Z</time></trkpt><trkpt lat="45.16261468572973" lon="8.44921703257529"><ele>110.0</ele><time>2026-04-11T09:01:58.002Z</time></trkpt><trkpt lat="45.16263428830445" lon="8.449088951950296"><ele>109.99999999999999</ele><time>2026-04-11T09:01:59.002Z</time></trkpt><trkpt lat="45.162645991261726" lon="8.448976591571597"><ele>110.0</ele><time>2026-04-11T09:02:00.002Z</time></trkpt><trkpt lat="45.1626423440028" lon="8.448886648352628"><ele>110.0</ele><time>2026-04-11T09:02:01.002Z</time></trkpt><trkpt lat="45.162582686367365" lon="8.44875067824851"><ele>110.0</ele><time>2026-04-11T09:02:03.002Z</time></trkpt><trkpt lat="45.16250553536441" lon="8.448731038165933"><ele>109.99999999999999</ele><time>2026-04-11T09:02:04.002Z</time></trkpt><trkpt lat="45.16243406362584" lon="8.448700400349843"><ele>110.0</ele><time>2026-04-11T09:02:05.002Z</time></trkpt><trkpt lat="45.16234384397331" lon="8.448672175553845"><ele>110.0</ele><time>2026-04-11T09:02:06.002Z</time></trkpt><trkpt lat="45.16224158122049" lon="8.448646576676426"><ele>110.0</ele><time>2026-04-11T09:02:07.002Z</time></trkpt><trkpt lat="45.16212578924028" lon="8.448615630897198"><ele>110.0</ele><time>2026-04-11T09:02:08.002Z</time></trkpt><trkpt lat="45.162003917947665" lon="8.448588564785636"><ele>110.0</ele><time>2026-04-11T09:02:09.002Z</time></trkpt><trkpt lat="45.16187475642453" lon="8.448562942430716"><ele>110.0</ele><time>2026-04-11T09:02:10.002Z</time></trkpt><trkpt lat="45.161745365977076" lon="8.448541084903608"><ele>110.0</ele><time>2026-04-11T09:02:11.002Z</time></trkpt><trkpt lat="45.161617590151316" lon="8.448519408892352"><ele>110.0</ele><time>2026-04-11T09:02:12.002Z</time></trkpt><trkpt lat="45.16149221511024" lon="8.448499596251068"><ele>110.0</ele><time>2026-04-11T09:02:13.002Z</time></trkpt><trkpt lat="45.16137141367849" lon="8.448475788401938"><ele>110.0</ele><time>2026-04-11T09:02:14.002Z</time></trkpt><trkpt lat="45.16125812694011" lon="8.448452202687719"><ele>110.0</ele><time>2026-04-11T09:02:15.002Z</time></trkpt><trkpt lat="45.16114248560205" lon="8.448423937550801"><ele>110.0</ele><time>2026-04-11T09:02:16.002Z</time></trkpt><trkpt lat="45.161026615482506" lon="8.448394711112092"><ele>110.0</ele><time>2026-04-11T09:02:17.002Z</time></trkpt><trkpt lat="45.16091128030043" lon="8.448363606738326"><ele>110.0</ele><time>2026-04-11T09:02:18.002Z</time></trkpt><trkpt lat="45.16079900645008" lon="8.448334118838225"><ele>110.0</ele><time>2026-04-11T09:02:19.002Z</time></trkpt><trkpt lat="45.16067926414813" lon="8.44830388859864"><ele>110.0</ele><time>2026-04-11T09:02:20.002Z</time></trkpt><trkpt lat="45.16055856804958" lon="8.448264132554653"><ele>110.0</ele><time>2026-04-11T09:02:21.002Z</time></trkpt><trkpt lat="45.16043276465026" lon="8.448218874292046"><ele>109.75</ele><time>2026-04-11T09:02:22.002Z</time></trkpt><trkpt lat="45.160305428564044" lon="8.44816019192876"><ele>109.5</ele><time>2026-04-11T09:02:23.002Z</time></trkpt><trkpt lat="45.16017756626653" lon="8.448088229113004"><ele>109.25</ele><time>2026-04-11T09:02:24.001Z</time></trkpt><trkpt lat="45.16005455548572" lon="8.448004352286574"><ele>109.0</ele><time>2026-04-11T09:02:25.001Z</time></trkpt><trkpt lat="45.15993182369416" lon="8.447909411204957"><ele>109.25</ele><time>2026-04-11T09:02:26.001Z</time></trkpt><trkpt lat="45.15982250578891" lon="8.447783698481299"><ele>109.5</ele><time>2026-04-11T09:02:27.001Z</time></trkpt><trkpt lat="45.15970691476683" lon="8.44766671882815"><ele>109.75</ele><time>2026-04-11T09:02:28.001Z</time></trkpt><trkpt lat="45.15958039064809" lon="8.447578973798448"><ele>110.0</ele><time>2026-04-11T09:02:29.001Z</time></trkpt><trkpt lat="45.159471743187915" lon="8.447465491062276"><ele>110.0</ele><time>2026-04-11T09:02:30.001Z</time></trkpt><trkpt lat="45.15935508618223" lon="8.447382156864336"><ele>110.0</ele><time>2026-04-11T09:02:31.001Z</time></trkpt><trkpt lat="45.15924192580626" lon="8.44731616841339"><ele>110.0</ele><time>2026-04-11T09:02:32.001Z</time></trkpt><trkpt lat="45.159137831050565" lon="8.447259048182174"><ele>110.0</ele><time>2026-04-11T09:02:33.001Z</time></trkpt><trkpt lat="45.15902243975341" lon="8.447200303696961"><ele>110.5</ele><time>2026-04-11T09:02:34.001Z</time></trkpt><trkpt lat="45.158903954411365" lon="8.44714170198575"><ele>111.0</ele><time>2026-04-11T09:02:35.001Z</time></trkpt><trkpt lat="45.158791395428054" lon="8.447083056993796"><ele>111.5</ele><time>2026-04-11T09:02:36.001Z</time></trkpt><trkpt lat="45.1586840592472" lon="8.447031571405317"><ele>112.0</ele><time>2026-04-11T09:02:37.001Z</time></trkpt><trkpt lat="45.15858568454253" lon="8.446978505469355"><ele>112.0</ele><time>2026-04-11T09:02:38.001Z</time></trkpt><trkpt lat="45.15849391704418" lon="8.446914783915465"><ele>111.99999999999999</ele><time>2026-04-11T09:02:39.001Z</time></trkpt><trkpt lat="45.15840300696161" lon="8.446844047954679"><ele>111.99999999999999</ele><time>2026-04-11T09:02:40.001Z</time></trkpt><trkpt lat="45.158312625383246" lon="8.446758957224969"><ele>112.0</ele><time>2026-04-11T09:02:41.001Z</time></trkpt><trkpt lat="45.1582261432438" lon="8.446671354228858"><ele>112.0</ele><time>2026-04-11T09:02:42.001Z</time></trkpt><trkpt lat="45.15814203604603" lon="8.446581917246208"><ele>112.0</ele><time>2026-04-11T09:02:43.001Z</time></trkpt><trkpt lat="45.158065049960655" lon="8.446493474893412"><ele>111.99999999999999</ele><time>2026-04-11T09:02:44.001Z</time></trkpt><trkpt lat="45.158001980352736" lon="8.446414241387505"><ele>111.99999999999999</ele><time>2026-04-11T09:02:45.001Z</time></trkpt><trkpt lat="45.157959854248396" lon="8.44631518079198"><ele>112.0</ele><time>2026-04-11T09:02:46.001Z</time></trkpt><trkpt lat="45.15789683783566" lon="8.44622954420847"><ele>112.0</ele><time>2026-04-11T09:02:47.001Z</time></trkpt><trkpt lat="45.15786144452781" lon="8.446079593361636"><ele>112.0</ele><time>2026-04-11T09:02:48.001Z</time></trkpt><trkpt lat="45.15779882994822" lon="8.445921447451786"><ele>112.0</ele><time>2026-04-11T09:02:49.001Z</time></trkpt><trkpt lat="45.15773270469412" lon="8.44575256549903"><ele>112.0</ele><time>2026-04-11T09:02:50.001Z</time></trkpt><trkpt lat="45.157669446948475" lon="8.445593357714397"><ele>112.0</ele><time>2026-04-11T09:02:51.001Z</time></trkpt><trkpt lat="45.15761155339403" lon="8.44545038442744"><ele>112.00000000000001</ele><time>2026-04-11T09:02:52.001Z</time></trkpt><trkpt lat="45.15754743431093" lon="8.44533419286516"><ele>112.0</ele><time>2026-04-11T09:02:53.001Z</time></trkpt><trkpt lat="45.1575012981712" lon="8.445213187398164"><ele>112.0</ele><time>2026-04-11T09:02:54.001Z</time></trkpt><trkpt lat="45.15745920130926" lon="8.445101086259987"><ele>112.0</ele><time>2026-04-11T09:02:55.001Z</time></trkpt><trkpt lat="45.15743101172286" lon="8.445015618785538"><ele>112.00000000000001</ele><time>2026-04-11T09:02:56.001Z</time></trkpt><trkpt lat="45.157347595907865" lon="8.444966911271806"><ele>112.0</ele><time>2026-04-11T09:03:01.001Z</time></trkpt><trkpt lat="45.15721145310489" lon="8.445019179134718"><ele>112.0</ele><time>2026-04-11T09:03:03.001Z</time></trkpt><trkpt lat="45.1571251982586" lon="8.44503564866231"><ele>111.99999999999999</ele><time>2026-04-11T09:03:04.001Z</time></trkpt><trkpt lat="45.15704254258893" lon="8.445051916812018"><ele>111.99999999999999</ele><time>2026-04-11T09:03:05.001Z</time></trkpt><trkpt lat="45.156959433965845" lon="8.44510835818661"><ele>112.0</ele><time>2026-04-11T09:03:06.001Z</time></trkpt><trkpt lat="45.15687108810924" lon="8.445194834083868"><ele>112.0</ele><time>2026-04-11T09:03:07.001Z</time></trkpt><trkpt lat="45.156790271363676" lon="8.44531234031535"><ele>112.0</ele><time>2026-04-11T09:03:08.001Z</time></trkpt><trkpt lat="45.15671694504208" lon="8.44544035940866"><ele>111.99999999999999</ele><time>2026-04-11T09:03:09.001Z</time></trkpt><trkpt lat="45.15664102460165" lon="8.445563445470627"><ele>111.99999999999999</ele><time>2026-04-11T09:03:10.001Z</time></trkpt><trkpt lat="45.156566378647106" lon="8.44568216754804"><ele>112.0</ele><time>2026-04-11T09:03:11.001Z</time></trkpt><trkpt lat="45.156494228278234" lon="8.445788125516987"><ele>112.0</ele><time>2026-04-11T09:03:12.001Z</time></trkpt><trkpt lat="45.15641131434607" lon="8.445882800551722"><ele>111.8</ele><time>2026-04-11T09:03:13.001Z</time></trkpt><trkpt lat="45.15632409395132" lon="8.44596847545417"><ele>111.6</ele><time>2026-04-11T09:03:14.001Z</time></trkpt><trkpt lat="45.156218772784406" lon="8.445996708985717"><ele>111.39999999999999</ele><time>2026-04-11T09:03:15.001Z</time></trkpt><trkpt lat="45.15612070168636" lon="8.446045141122779"><ele>111.19999999999999</ele><time>2026-04-11T09:03:16.001Z</time></trkpt><trkpt lat="45.15600547229874" lon="8.446065340109445"><ele>111.0</ele><time>2026-04-11T09:03:17.001Z</time></trkpt><trkpt lat="45.15588828121312" lon="8.446086791921832"><ele>111.0</ele><time>2026-04-11T09:03:18.001Z</time></trkpt><trkpt lat="45.15578317815764" lon="8.446107248753762"><ele>111.0</ele><time>2026-04-11T09:03:19.001Z</time></trkpt><trkpt lat="45.15569434296725" lon="8.446121761596881"><ele>111.0</ele><time>2026-04-11T09:03:20.001Z</time></trkpt><trkpt lat="45.15560858300851" lon="8.446142203529329"><ele>111.0</ele><time>2026-04-11T09:03:21.001Z</time></trkpt><trkpt lat="45.15552381060816" lon="8.446173466593594"><ele>111.0</ele><time>2026-04-11T09:03:22.001Z</time></trkpt><trkpt lat="45.15545235802521" lon="8.446232582944408"><ele>111.8</ele><time>2026-04-11T09:03:23.001Z</time></trkpt><trkpt lat="45.15538243732497" lon="8.446321358835563"><ele>112.6</ele><time>2026-04-11T09:03:24.001Z</time></trkpt><trkpt lat="45.15532116737632" lon="8.446445201622282"><ele>113.4</ele><time>2026-04-11T09:03:25.001Z</time></trkpt><trkpt lat="45.155262557922136" lon="8.446578816831215"><ele>114.2</ele><time>2026-04-11T09:03:26.001Z</time></trkpt><trkpt lat="45.15520481193153" lon="8.446714618093425"><ele>115.0</ele><time>2026-04-11T09:03:27.001Z</time></trkpt><trkpt lat="45.15513578253633" lon="8.446854690435275"><ele>115.0</ele><time>2026-04-11T09:03:28.001Z</time></trkpt><trkpt lat="45.15506423491958" lon="8.44700028707627"><ele>115.0</ele><time>2026-04-11T09:03:29.001Z</time></trkpt><trkpt lat="45.15499086058176" lon="8.447144530854985"><ele>115.0</ele><time>2026-04-11T09:03:30.001Z</time></trkpt><trkpt lat="45.154925383890344" lon="8.447267204871077"><ele>115.0</ele><time>2026-04-11T09:03:31.001Z</time></trkpt><trkpt lat="45.15486772938922" lon="8.447384107931807"><ele>114.50000000000001</ele><time>2026-04-11T09:03:32.001Z</time></trkpt><trkpt lat="45.15481369286733" lon="8.44749307063687"><ele>114.0</ele><time>2026-04-11T09:03:33.001Z</time></trkpt><trkpt lat="45.15476571060776" lon="8.447580535667518"><ele>113.5</ele><time>2026-04-11T09:03:34.001Z</time></trkpt><trkpt lat="45.15469818999107" lon="8.447674129770702"><ele>113.0</ele><time>2026-04-11T09:03:36.001Z</time></trkpt><trkpt lat="45.15463623764714" lon="8.447756932644504"><ele>112.50000000000001</ele><time>2026-04-11T09:03:45.002Z</time></trkpt><trkpt lat="45.15461023213463" lon="8.447840246634842"><ele>112.0</ele><time>2026-04-11T09:03:46.002Z</time></trkpt><trkpt lat="45.15454930045018" lon="8.447914477062668"><ele>111.8</ele><time>2026-04-11T09:03:47.002Z</time></trkpt><trkpt lat="45.15448876422389" lon="8.448023367695152"><ele>111.6</ele><time>2026-04-11T09:03:48.002Z</time></trkpt><trkpt lat="45.15442727181391" lon="8.448115981576402"><ele>111.39999999999999</ele><time>2026-04-11T09:03:49.002Z</time></trkpt><trkpt lat="45.15436476656517" lon="8.44820763837591"><ele>111.19999999999999</ele><time>2026-04-11T09:03:50.002Z</time></trkpt><trkpt lat="45.154288765331806" lon="8.448310825743453"><ele>111.0</ele><time>2026-04-11T09:03:51.002Z</time></trkpt><trkpt lat="45.154202167325025" lon="8.448419914647737"><ele>111.0</ele><time>2026-04-11T09:03:52.002Z</time></trkpt><trkpt lat="45.15410707268018" lon="8.448526456270503"><ele>111.0</ele><time>2026-04-11T09:03:53.002Z</time></trkpt><trkpt lat="45.15400673164861" lon="8.44863064273685"><ele>111.0</ele><time>2026-04-11T09:03:54.002Z</time></trkpt><trkpt lat="45.15391054511696" lon="8.44873095988855"><ele>111.0</ele><time>2026-04-11T09:03:55.002Z</time></trkpt><trkpt lat="45.15381916210121" lon="8.448817790723133"><ele>111.19999999999999</ele><time>2026-04-11T09:03:56.002Z</time></trkpt><trkpt lat="45.15373683126769" lon="8.448890886666776"><ele>111.39999999999999</ele><time>2026-04-11T09:03:57.002Z</time></trkpt><trkpt lat="45.15366227397435" lon="8.448961071326277"><ele>111.6</ele><time>2026-04-11T09:03:58.002Z</time></trkpt><trkpt lat="45.1535967157092" lon="8.44902709280954"><ele>111.8</ele><time>2026-04-11T09:03:59.002Z</time></trkpt><trkpt lat="45.1534839157668" lon="8.449127722604471"><ele>112.0</ele><time>2026-04-11T09:04:01.002Z</time></trkpt><trkpt lat="45.153414163781534" lon="8.449193891736245"><ele>112.00000000000001</ele><time>2026-04-11T09:04:02.002Z</time></trkpt><trkpt lat="45.1533421523685" lon="8.449248772420894"><ele>112.0</ele><time>2026-04-11T09:04:03.002Z</time></trkpt><trkpt lat="45.1532575923211" lon="8.44931263071336"><ele>112.0</ele><time>2026-04-11T09:04:04.002Z</time></trkpt><trkpt lat="45.15316552480595" lon="8.449375934414167"><ele>112.0</ele><time>2026-04-11T09:04:05.002Z</time></trkpt><trkpt lat="45.15309122201735" lon="8.449431754262255"><ele>112.00000000000001</ele><time>2026-04-11T09:04:06.002Z</time></trkpt><trkpt lat="45.153027400069774" lon="8.449480137037275"><ele>112.0</ele><time>2026-04-11T09:04:07.002Z</time></trkpt><trkpt lat="45.152966627233006" lon="8.449515720883797"><ele>112.00000000000001</ele><time>2026-04-11T09:04:08.002Z</time></trkpt><trkpt lat="45.152905433737125" lon="8.449551200743887"><ele>112.0</ele><time>2026-04-11T09:04:09.002Z</time></trkpt><trkpt lat="45.152839309718345" lon="8.44959663432821"><ele>112.0</ele><time>2026-04-11T09:04:10.002Z</time></trkpt><trkpt lat="45.15278497264943" lon="8.449642023848911"><ele>112.0</ele><time>2026-04-11T09:04:11.002Z</time></trkpt><trkpt lat="45.15270134627266" lon="8.449703715346008"><ele>112.00000000000001</ele><time>2026-04-11T09:04:12.002Z</time></trkpt><trkpt lat="45.15262658388871" lon="8.44976180406151"><ele>112.0</ele><time>2026-04-11T09:04:13.002Z</time></trkpt><trkpt lat="45.15254620188446" lon="8.449819634726968"><ele>112.0</ele><time>2026-04-11T09:04:14.002Z</time></trkpt><trkpt lat="45.1524632180277" lon="8.449869582193745"><ele>111.99999999999999</ele><time>2026-04-11T09:04:15.002Z</time></trkpt><trkpt lat="45.152386259890996" lon="8.449912322268416"><ele>111.99999999999999</ele><time>2026-04-11T09:04:16.002Z</time></trkpt><trkpt lat="45.15230045217362" lon="8.449952865458885"><ele>112.0</ele><time>2026-04-11T09:04:17.002Z</time></trkpt><trkpt lat="45.15219471246561" lon="8.450005517148828"><ele>112.0</ele><time>2026-04-11T09:04:18.002Z</time></trkpt><trkpt lat="45.152083308076165" lon="8.450063628738919"><ele>112.0</ele><time>2026-04-11T09:04:19.002Z</time></trkpt><trkpt lat="45.15196850782645" lon="8.450125046618556"><ele>112.0</ele><time>2026-04-11T09:04:20.002Z</time></trkpt><trkpt lat="45.151851138749606" lon="8.450182629754138"><ele>112.0</ele><time>2026-04-11T09:04:21.002Z</time></trkpt><trkpt lat="45.15173707198808" lon="8.450240739039101"><ele>112.0</ele><time>2026-04-11T09:04:22.002Z</time></trkpt><trkpt lat="45.15163104683317" lon="8.450296202436636"><ele>111.8</ele><time>2026-04-11T09:04:23.002Z</time></trkpt><trkpt lat="45.15153450133861" lon="8.450343453866394"><ele>111.6</ele><time>2026-04-11T09:04:24.002Z</time></trkpt><trkpt lat="45.1514391609546" lon="8.450383472807776"><ele>111.39999999999999</ele><time>2026-04-11T09:04:25.002Z</time></trkpt><trkpt lat="45.1513399185848" lon="8.450433036837142"><ele>111.19999999999999</ele><time>2026-04-11T09:04:26.002Z</time></trkpt><trkpt lat="45.15124249503342" lon="8.450485232719412"><ele>111.0</ele><time>2026-04-11T09:04:27.002Z</time></trkpt><trkpt lat="45.15113015954751" lon="8.450540725644833"><ele>111.0</ele><time>2026-04-11T09:04:28.002Z</time></trkpt><trkpt lat="45.15100710849536" lon="8.450601329258697"><ele>111.0</ele><time>2026-04-11T09:04:29.002Z</time></trkpt><trkpt lat="45.15089123690203" lon="8.450655387152791"><ele>111.0</ele><time>2026-04-11T09:04:30.001Z</time></trkpt><trkpt lat="45.150792633834314" lon="8.450700139429793"><ele>111.0</ele><time>2026-04-11T09:04:31.001Z</time></trkpt><trkpt lat="45.150701452804775" lon="8.450745662660788"><ele>111.0</ele><time>2026-04-11T09:04:32.001Z</time></trkpt><trkpt lat="45.15062262178106" lon="8.450792247004134"><ele>111.0</ele><time>2026-04-11T09:04:33.001Z</time></trkpt><trkpt lat="45.15056448581204" lon="8.450859379589392"><ele>111.0</ele><time>2026-04-11T09:04:34.001Z</time></trkpt><trkpt lat="45.150535085530876" lon="8.450949219248708"><ele>111.0</ele><time>2026-04-11T09:04:35.001Z</time></trkpt><trkpt lat="45.150534732285145" lon="8.451059471800889"><ele>111.0</ele><time>2026-04-11T09:04:36.001Z</time></trkpt><trkpt lat="45.15056140563254" lon="8.451173569779948"><ele>111.0</ele><time>2026-04-11T09:04:37.001Z</time></trkpt><trkpt lat="45.15060524114607" lon="8.451295617495497"><ele>111.0</ele><time>2026-04-11T09:04:38.001Z</time></trkpt><trkpt lat="45.150650908063234" lon="8.451434486952124"><ele>111.0</ele><time>2026-04-11T09:04:39.001Z</time></trkpt><trkpt lat="45.150703768805336" lon="8.451589907687373"><ele>111.0</ele><time>2026-04-11T09:04:40.001Z</time></trkpt><trkpt lat="45.15075978085275" lon="8.45174557846392"><ele>111.0</ele><time>2026-04-11T09:04:41.001Z</time></trkpt><trkpt lat="45.1508106185125" lon="8.451886249252896"><ele>110.8</ele><time>2026-04-11T09:04:42.001Z</time></trkpt><trkpt lat="45.15086118193058" lon="8.452006233447623"><ele>110.6</ele><time>2026-04-11T09:04:43.001Z</time></trkpt><trkpt lat="45.15090403307209" lon="8.452101055645159"><ele>110.4</ele><time>2026-04-11T09:04:44.001Z</time></trkpt><trkpt lat="45.15091021103245" lon="8.452192912238523"><ele>110.2</ele><time>2026-04-11T09:04:47.001Z</time></trkpt><trkpt lat="45.1508389857741" lon="8.45223741438242"><ele>110.0</ele><time>2026-04-11T09:04:55.001Z</time></trkpt><trkpt lat="45.15071823481928" lon="8.452159765828688"><ele>110.16666666666666</ele><time>2026-04-11T09:04:57.001Z</time></trkpt><trkpt lat="45.150654746615956" lon="8.45211563617537"><ele>110.33333333333333</ele><time>2026-04-11T09:04:58.001Z</time></trkpt><trkpt lat="45.150588596263454" lon="8.452083915266169"><ele>110.5</ele><time>2026-04-11T09:04:59.001Z</time></trkpt><trkpt lat="45.15050662613305" lon="8.452052762317876"><ele>110.66666666666666</ele><time>2026-04-11T09:05:00.001Z</time></trkpt><trkpt lat="45.15040942814717" lon="8.45201288221376"><ele>110.83333333333333</ele><time>2026-04-11T09:05:01.001Z</time></trkpt><trkpt lat="45.15030008310337" lon="8.451975129786023"><ele>111.0</ele><time>2026-04-11T09:05:02.001Z</time></trkpt><trkpt lat="45.150182330629654" lon="8.451930410293578"><ele>111.0</ele><time>2026-04-11T09:05:03.001Z</time></trkpt><trkpt lat="45.150051765205006" lon="8.451884207526698"><ele>111.0</ele><time>2026-04-11T09:05:04.001Z</time></trkpt><trkpt lat="45.149926357720595" lon="8.451842048328961"><ele>111.0</ele><time>2026-04-11T09:05:05.001Z</time></trkpt><trkpt lat="45.14980209657643" lon="8.451802874232975"><ele>111.0</ele><time>2026-04-11T09:05:06.001Z</time></trkpt><trkpt lat="45.149670708023095" lon="8.451760777476292"><ele>111.0</ele><time>2026-04-11T09:05:07.001Z</time></trkpt><trkpt lat="45.149535594436905" lon="8.451712981156193"><ele>111.0</ele><time>2026-04-11T09:05:08.001Z</time></trkpt><trkpt lat="45.149393432641595" lon="8.451670109178341"><ele>111.0</ele><time>2026-04-11T09:05:09.001Z</time></trkpt><trkpt lat="45.149255039662165" lon="8.451622965865035"><ele>111.0</ele><time>2026-04-11T09:05:10.001Z</time></trkpt><trkpt lat="45.149109923964" lon="8.451577559599126"><ele>111.0</ele><time>2026-04-11T09:05:11.001Z</time></trkpt><trkpt lat="45.14896586186521" lon="8.451531520882293"><ele>111.0</ele><time>2026-04-11T09:05:12.001Z</time></trkpt><trkpt lat="45.14881755918697" lon="8.451485971290422"><ele>111.0</ele><time>2026-04-11T09:05:13.001Z</time></trkpt><trkpt lat="45.1486708445054" lon="8.451437211790688"><ele>111.0</ele><time>2026-04-11T09:05:14.001Z</time></trkpt><trkpt lat="45.14852152477074" lon="8.451388497902311"><ele>111.0</ele><time>2026-04-11T09:05:15.001Z</time></trkpt><trkpt lat="45.1483750238612" lon="8.451339205474321"><ele>111.0</ele><time>2026-04-11T09:05:16.001Z</time></trkpt><trkpt lat="45.14823998049527" lon="8.451292902394187"><ele>111.0</ele><time>2026-04-11T09:05:17.001Z</time></trkpt><trkpt lat="45.14812125820717" lon="8.451252481338734"><ele>111.0</ele><time>2026-04-11T09:05:18.001Z</time></trkpt><trkpt lat="45.14801122105066" lon="8.451215357326191"><ele>111.0</ele><time>2026-04-11T09:05:19.001Z</time></trkpt><trkpt lat="45.14791090940147" lon="8.451185483262675"><ele>111.0</ele><time>2026-04-11T09:05:20.001Z</time></trkpt><trkpt lat="45.14782031384846" lon="8.45115113607175"><ele>111.0</ele><time>2026-04-11T09:05:21.001Z</time></trkpt><trkpt lat="45.14773088373154" lon="8.451122358024413"><ele>111.0</ele><time>2026-04-11T09:05:22.001Z</time></trkpt><trkpt lat="45.1476349097966" lon="8.451095570324032"><ele>111.0</ele><time>2026-04-11T09:05:23.001Z</time></trkpt><trkpt lat="45.14753908665934" lon="8.451065177813087"><ele>111.0</ele><time>2026-04-11T09:05:24.001Z</time></trkpt><trkpt lat="45.14743555111036" lon="8.451030921564199"><ele>111.0</ele><time>2026-04-11T09:05:25.001Z</time></trkpt><trkpt lat="45.14732352420468" lon="8.450992937554902"><ele>111.0</ele><time>2026-04-11T09:05:26.001Z</time></trkpt><trkpt lat="45.14720917113693" lon="8.450946933835928"><ele>111.0</ele><time>2026-04-11T09:05:27.001Z</time></trkpt><trkpt lat="45.14708455070474" lon="8.450904607756947"><ele>111.25</ele><time>2026-04-11T09:05:28.001Z</time></trkpt><trkpt lat="45.146960531018" lon="8.450860880393618"><ele>111.5</ele><time>2026-04-11T09:05:29.001Z</time></trkpt><trkpt lat="45.146837943131246" lon="8.450817965136798"><ele>111.75</ele><time>2026-04-11T09:05:30.001Z</time></trkpt><trkpt lat="45.14671890063338" lon="8.450773950344885"><ele>112.0</ele><time>2026-04-11T09:05:31.001Z</time></trkpt><trkpt lat="45.1466080160223" lon="8.45073838926827"><ele>112.0</ele><time>2026-04-11T09:05:32.001Z</time></trkpt><trkpt lat="45.146499705101625" lon="8.450703840921413"><ele>111.99999999999999</ele><time>2026-04-11T09:05:33.001Z</time></trkpt><trkpt lat="45.146392308849045" lon="8.450664605410788"><ele>111.99999999999999</ele><time>2026-04-11T09:05:34.001Z</time></trkpt><trkpt lat="45.14628079410587" lon="8.45062770563352"><ele>112.0</ele><time>2026-04-11T09:05:35.001Z</time></trkpt><trkpt lat="45.14617291187737" lon="8.450587630036754"><ele>112.0</ele><time>2026-04-11T09:05:36.001Z</time></trkpt><trkpt lat="45.14606299007492" lon="8.450551538665115"><ele>112.0</ele><time>2026-04-11T09:05:37.001Z</time></trkpt><trkpt lat="45.14595650534666" lon="8.450514930817526"><ele>112.0</ele><time>2026-04-11T09:05:38.001Z</time></trkpt><trkpt lat="45.14584411201591" lon="8.450475380344827"><ele>112.0</ele><time>2026-04-11T09:05:39.001Z</time></trkpt><trkpt lat="45.14572899867697" lon="8.450441626029038"><ele>112.0</ele><time>2026-04-11T09:05:40.001Z</time></trkpt><trkpt lat="45.145619034901664" lon="8.450404589893061"><ele>112.0</ele><time>2026-04-11T09:05:41.001Z</time></trkpt><trkpt lat="45.14551161420769" lon="8.450371292027848"><ele>111.99999999999999</ele><time>2026-04-11T09:05:42.001Z</time></trkpt><trkpt lat="45.145415975695364" lon="8.45034143348521"><ele>111.99999999999999</ele><time>2026-04-11T09:05:43.001Z</time></trkpt><trkpt lat="45.145325875501186" lon="8.450315455424983"><ele>112.0</ele><time>2026-04-11T09:05:44.001Z</time></trkpt><trkpt lat="45.14523243828745" lon="8.450279478672579"><ele>112.0</ele><time>2026-04-11T09:05:45.001Z</time></trkpt><trkpt lat="45.145141093019255" lon="8.450241023878185"><ele>112.00000000000001</ele><time>2026-04-11T09:05:46.001Z</time></trkpt><trkpt lat="45.14505966357544" lon="8.450198036426546"><ele>112.0</ele><time>2026-04-11T09:05:47.001Z</time></trkpt><trkpt lat="45.14498338031746" lon="8.450152619419772"><ele>112.0</ele><time>2026-04-11T09:05:48.001Z</time></trkpt><trkpt lat="45.14492656819748" lon="8.450103597688837"><ele>112.0</ele><time>2026-04-11T09:05:49.001Z</time></trkpt><trkpt lat="45.14487059912628" lon="8.450060545808169"><ele>112.00000000000001</ele><time>2026-04-11T09:05:50.001Z</time></trkpt><trkpt lat="45.14480167321179" lon="8.449991864374566"><ele>112.0</ele><time>2026-04-11T09:05:52.001Z</time></trkpt><trkpt lat="45.14472323243927" lon="8.449904339318751"><ele>111.8</ele><time>2026-04-11T09:05:54.001Z</time></trkpt><trkpt lat="45.14464143704485" lon="8.449776944642652"><ele>111.6</ele><time>2026-04-11T09:05:56.001Z</time></trkpt><trkpt lat="45.14458697199443" lon="8.449672256921945"><ele>111.39999999999999</ele><time>2026-04-11T09:05:57.002Z</time></trkpt><trkpt lat="45.14453438376476" lon="8.449564205300437"><ele>111.19999999999999</ele><time>2026-04-11T09:05:58.002Z</time></trkpt><trkpt lat="45.144486976259905" lon="8.449463159095632"><ele>111.0</ele><time>2026-04-11T09:05:59.002Z</time></trkpt><trkpt lat="45.14444233171105" lon="8.449357380833964"><ele>111.19999999999999</ele><time>2026-04-11T09:06:00.002Z</time></trkpt><trkpt lat="45.14439423827157" lon="8.4492511507105"><ele>111.39999999999999</ele><time>2026-04-11T09:06:01.002Z</time></trkpt><trkpt lat="45.1443420643322" lon="8.449143668244224"><ele>111.6</ele><time>2026-04-11T09:06:02.002Z</time></trkpt><trkpt lat="45.14429364123646" lon="8.449031733554046"><ele>111.8</ele><time>2026-04-11T09:06:03.002Z</time></trkpt><trkpt lat="45.14424848990572" lon="8.448910921796115"><ele>112.0</ele><time>2026-04-11T09:06:04.002Z</time></trkpt><trkpt lat="45.14419874214576" lon="8.448785849388909"><ele>112.0</ele><time>2026-04-11T09:06:05.002Z</time></trkpt><trkpt lat="45.14414021021039" lon="8.448679366363185"><ele>111.99999999999999</ele><time>2026-04-11T09:06:06.002Z</time></trkpt><trkpt lat="45.14409108754352" lon="8.448559688147448"><ele>111.99999999999999</ele><time>2026-04-11T09:06:07.002Z</time></trkpt><trkpt lat="45.14403807177823" lon="8.448442539232266"><ele>112.0</ele><time>2026-04-11T09:06:08.002Z</time></trkpt><trkpt lat="45.14398554318663" lon="8.448320411554974"><ele>112.0</ele><time>2026-04-11T09:06:09.002Z</time></trkpt><trkpt lat="45.14392943525394" lon="8.448198815838651"><ele>112.00000000000001</ele><time>2026-04-11T09:06:10.002Z</time></trkpt><trkpt lat="45.14387559675318" lon="8.448077627740497"><ele>112.0</ele><time>2026-04-11T09:06:11.002Z</time></trkpt><trkpt lat="45.14383496718988" lon="8.44798056621204"><ele>112.0</ele><time>2026-04-11T09:06:12.002Z</time></trkpt><trkpt lat="45.14378648590502" lon="8.447890329550606"><ele>112.0</ele><time>2026-04-11T09:06:13.002Z</time></trkpt><trkpt lat="45.14372393133105" lon="8.44781282448318"><ele>112.00000000000001</ele><time>2026-04-11T09:06:14.002Z</time></trkpt><trkpt lat="45.1436561539424" lon="8.447733301486887"><ele>112.0</ele><time>2026-04-11T09:06:15.002Z</time></trkpt><trkpt lat="45.14358228483753" lon="8.447660365741928"><ele>112.33333333333334</ele><time>2026-04-11T09:06:16.002Z</time></trkpt><trkpt lat="45.14350955622989" lon="8.447581177645135"><ele>112.66666666666667</ele><time>2026-04-11T09:06:17.002Z</time></trkpt><trkpt lat="45.143446252673755" lon="8.447503547277536"><ele>113.0</ele><time>2026-04-11T09:06:18.002Z</time></trkpt><trkpt lat="45.14338391862418" lon="8.447436379418882"><ele>113.33333333333334</ele><time>2026-04-11T09:06:19.002Z</time></trkpt><trkpt lat="45.1433373694754" lon="8.44737207043715"><ele>113.66666666666667</ele><time>2026-04-11T09:06:20.002Z</time></trkpt><trkpt lat="45.143261792100894" lon="8.447267375434247"><ele>114.0</ele><time>2026-04-11T09:06:22.002Z</time></trkpt><trkpt lat="45.143235109288376" lon="8.447179828860433"><ele>114.0</ele><time>2026-04-11T09:06:24.002Z</time></trkpt><trkpt lat="45.143224093405244" lon="8.447086100266667"><ele>114.0</ele><time>2026-04-11T09:06:31.002Z</time></trkpt><trkpt lat="45.143225659989" lon="8.446994945824034"><ele>114.0</ele><time>2026-04-11T09:06:33.002Z</time></trkpt><trkpt lat="45.14322254713858" lon="8.446824133745215"><ele>114.0</ele><time>2026-04-11T09:06:35.002Z</time></trkpt><trkpt lat="45.1431436994362" lon="8.446705079683856"><ele>114.0</ele><time>2026-04-11T09:06:37.001Z</time></trkpt><trkpt lat="45.1430472387313" lon="8.44663790511759"><ele>114.0</ele><time>2026-04-11T09:06:39.001Z</time></trkpt><trkpt lat="45.14297700747218" lon="8.44674857376626"><ele>114.0</ele><time>2026-04-11T09:06:40.001Z</time></trkpt><trkpt lat="45.14292456079196" lon="8.446818597595643"><ele>114.0</ele><time>2026-04-11T09:06:41.001Z</time></trkpt><trkpt lat="45.142872205943526" lon="8.446888546221437"><ele>114.0</ele><time>2026-04-11T09:06:42.001Z</time></trkpt><trkpt lat="45.14280787384352" lon="8.446956196019771"><ele>114.0</ele><time>2026-04-11T09:06:43.001Z</time></trkpt><trkpt lat="45.14273221555726" lon="8.447022199351062"><ele>114.0</ele><time>2026-04-11T09:06:44.001Z</time></trkpt><trkpt lat="45.142641424878796" lon="8.44708063690078"><ele>114.0</ele><time>2026-04-11T09:06:45.001Z</time></trkpt><trkpt lat="45.14254991780711" lon="8.447123546906482"><ele>114.0</ele><time>2026-04-11T09:06:46.001Z</time></trkpt><trkpt lat="45.14246723653456" lon="8.447164386417827"><ele>114.0</ele><time>2026-04-11T09:06:47.001Z</time></trkpt><trkpt lat="45.14238066181892" lon="8.447214424105912"><ele>114.0</ele><time>2026-04-11T09:06:48.001Z</time></trkpt><trkpt lat="45.14229135482216" lon="8.447263276056765"><ele>114.0</ele><time>2026-04-11T09:06:49.001Z</time></trkpt><trkpt lat="45.14220830011079" lon="8.447312392881104"><ele>112.6</ele><time>2026-04-11T09:06:50.001Z</time></trkpt><trkpt lat="45.14213006640439" lon="8.447357858524986"><ele>111.2</ele><time>2026-04-11T09:06:51.001Z</time></trkpt><trkpt lat="45.142060469256194" lon="8.44740053222753"><ele>109.79999999999998</ele><time>2026-04-11T09:06:52.001Z</time></trkpt><trkpt lat="45.141996070255615" lon="8.447437477311572"><ele>108.39999999999999</ele><time>2026-04-11T09:06:53.001Z</time></trkpt><trkpt lat="45.141882263626435" lon="8.447497657046341"><ele>107.0</ele><time>2026-04-11T09:06:55.001Z</time></trkpt><trkpt lat="45.141772704511084" lon="8.44755974643087"><ele>107.0</ele><time>2026-04-11T09:06:57.001Z</time></trkpt><trkpt lat="45.14171395165135" lon="8.447593074965921"><ele>106.99999999999999</ele><time>2026-04-11T09:06:58.001Z</time></trkpt><trkpt lat="45.14161002978406" lon="8.447651636629256"><ele>106.99999999999999</ele><time>2026-04-11T09:07:00.001Z</time></trkpt><trkpt lat="45.14151029973761" lon="8.447703408947786"><ele>107.0</ele><time>2026-04-11T09:07:02.001Z</time></trkpt><trkpt lat="45.14141608011796" lon="8.44775188227073"><ele>107.0</ele><time>2026-04-11T09:07:04.001Z</time></trkpt><trkpt lat="45.1413345041602" lon="8.447799706160838"><ele>107.99999999999999</ele><time>2026-04-11T09:07:06.001Z</time></trkpt><trkpt lat="45.141252349431355" lon="8.447848579957968"><ele>109.0</ele><time>2026-04-11T09:07:09.001Z</time></trkpt><trkpt lat="45.14117399477445" lon="8.447895474534016"><ele>110.0</ele><time>2026-04-11T09:07:12.001Z</time></trkpt><trkpt lat="45.14109153080068" lon="8.447939401403344"><ele>111.0</ele><time>2026-04-11T09:07:14.001Z</time></trkpt><trkpt lat="45.1410251432081" lon="8.44797208843023"><ele>111.99999999999999</ele><time>2026-04-11T09:07:16.001Z</time></trkpt><trkpt lat="45.14096449679152" lon="8.448010582440443"><ele>113.0</ele><time>2026-04-11T09:07:20.001Z</time></trkpt><trkpt lat="45.14088619120933" lon="8.448052795995748"><ele>113.66666666666666</ele><time>2026-04-11T09:07:26.001Z</time></trkpt><trkpt lat="45.14081203138637" lon="8.44810798709552"><ele>114.33333333333333</ele><time>2026-04-11T09:07:30.001Z</time></trkpt><trkpt lat="45.14074713506706" lon="8.448074475306921"><ele>115.0</ele><time>2026-04-11T09:07:32.001Z</time></trkpt><trkpt lat="45.140676700940105" lon="8.447970628954304"><ele>115.66666666666666</ele><time>2026-04-11T09:07:35.001Z</time></trkpt><trkpt lat="45.140591377264165" lon="8.447868180773332"><ele>116.33333333333333</ele><time>2026-04-11T09:07:37.001Z</time></trkpt><trkpt lat="45.14052679224862" lon="8.447796514898656"><ele>117.0</ele><time>2026-04-11T09:07:39.001Z</time></trkpt><trkpt lat="45.140470799795146" lon="8.447738854057498"><ele>117.66666666666667</ele><time>2026-04-11T09:09:20Z</time></trkpt><trkpt lat="45.140407428263714" lon="8.447617420718236"><ele>118.33333333333334</ele><time>2026-04-11T09:09:27.001Z</time></trkpt><trkpt lat="45.14036778634603" lon="8.447524092883944"><ele>119.0</ele><time>2026-04-11T09:09:28.001Z</time></trkpt><trkpt lat="45.14032062504589" lon="8.4474224518664"><ele>119.66666666666667</ele><time>2026-04-11T09:09:29.001Z</time></trkpt><trkpt lat="45.1402793551312" lon="8.447326835520665"><ele>120.33333333333334</ele><time>2026-04-11T09:09:30.001Z</time></trkpt><trkpt lat="45.14023166947781" lon="8.447227684185682"><ele>121.0</ele><time>2026-04-11T09:09:31.001Z</time></trkpt><trkpt lat="45.14016945251178" lon="8.447113855646554"><ele>120.4</ele><time>2026-04-11T09:09:32.001Z</time></trkpt><trkpt lat="45.1400979049735" lon="8.446989624486859"><ele>119.8</ele><time>2026-04-11T09:09:33.001Z</time></trkpt><trkpt lat="45.14001763905996" lon="8.446881827261045"><ele>119.20000000000002</ele><time>2026-04-11T09:09:34.001Z</time></trkpt><trkpt lat="45.13993296448916" lon="8.446807841091129"><ele>118.60000000000001</ele><time>2026-04-11T09:09:35.001Z</time></trkpt><trkpt lat="45.139847185122555" lon="8.446757971823057"><ele>118.0</ele><time>2026-04-11T09:09:36.001Z</time></trkpt><trkpt lat="45.1397568480501" lon="8.44671079921934"><ele>118.0</ele><time>2026-04-11T09:09:37.001Z</time></trkpt><trkpt lat="45.1396590851511" lon="8.446661395386439"><ele>118.00000000000001</ele><time>2026-04-11T09:09:38.001Z</time></trkpt><trkpt lat="45.139554637500154" lon="8.446620148246938"><ele>118.00000000000001</ele><time>2026-04-11T09:09:39.001Z</time></trkpt><trkpt lat="45.139449834201166" lon="8.446575731892386"><ele>118.0</ele><time>2026-04-11T09:09:40.001Z</time></trkpt><trkpt lat="45.13935376739737" lon="8.446529869024872"><ele>118.0</ele><time>2026-04-11T09:09:41.001Z</time></trkpt><trkpt lat="45.13926935491763" lon="8.446491181661791"><ele>118.00000000000001</ele><time>2026-04-11T09:09:42.001Z</time></trkpt><trkpt lat="45.13918960226324" lon="8.446460182654723"><ele>118.0</ele><time>2026-04-11T09:09:43.001Z</time></trkpt><trkpt lat="45.139106671397194" lon="8.44643125679945"><ele>118.0</ele><time>2026-04-11T09:09:44.001Z</time></trkpt><trkpt lat="45.139039964827134" lon="8.446410079965196"><ele>118.0</ele><time>2026-04-11T09:09:45.001Z</time></trkpt><trkpt lat="45.138959220443844" lon="8.446364690876347"><ele>118.00000000000001</ele><time>2026-04-11T09:09:48.001Z</time></trkpt><trkpt lat="45.13885864000081" lon="8.446277614468654"><ele>118.0</ele><time>2026-04-11T09:09:50.001Z</time></trkpt><trkpt lat="45.138787535316595" lon="8.446216339450492"><ele>117.60000000000001</ele><time>2026-04-11T09:09:51.001Z</time></trkpt><trkpt lat="45.13871643260033" lon="8.446139624060535"><ele>117.20000000000002</ele><time>2026-04-11T09:09:52.001Z</time></trkpt><trkpt lat="45.13865639714765" lon="8.446044694014873"><ele>116.8</ele><time>2026-04-11T09:09:53.001Z</time></trkpt><trkpt lat="45.13859577010302" lon="8.445939994671921"><ele>116.4</ele><time>2026-04-11T09:09:54.001Z</time></trkpt><trkpt lat="45.13852823667153" lon="8.44583135314011"><ele>116.0</ele><time>2026-04-11T09:09:55.001Z</time></trkpt><trkpt lat="45.13845086749696" lon="8.445722757688328"><ele>116.0</ele><time>2026-04-11T09:09:56.001Z</time></trkpt><trkpt lat="45.13836882809199" lon="8.445622813671987"><ele>116.0</ele><time>2026-04-11T09:09:57.001Z</time></trkpt><trkpt lat="45.13828861861344" lon="8.445516464604543"><ele>116.0</ele><time>2026-04-11T09:09:58.001Z</time></trkpt><trkpt lat="45.13819889786191" lon="8.44540177718683"><ele>116.0</ele><time>2026-04-11T09:09:59.001Z</time></trkpt><trkpt lat="45.138111952764774" lon="8.445278976142493"><ele>116.5</ele><time>2026-04-11T09:10:00.001Z</time></trkpt><trkpt lat="45.13803131610529" lon="8.445161636175921"><ele>117.0</ele><time>2026-04-11T09:10:01.001Z</time></trkpt><trkpt lat="45.13794912028803" lon="8.4450517520052"><ele>117.5</ele><time>2026-04-11T09:10:02.001Z</time></trkpt><trkpt lat="45.13786703356162" lon="8.444942009597774"><ele>118.0</ele><time>2026-04-11T09:10:03.001Z</time></trkpt><trkpt lat="45.137783306387135" lon="8.444825699338878"><ele>118.0</ele><time>2026-04-11T09:10:04.001Z</time></trkpt><trkpt lat="45.137698061334206" lon="8.44472720410884"><ele>118.00000000000001</ele><time>2026-04-11T09:10:05.001Z</time></trkpt><trkpt lat="45.13761459635414" lon="8.4446518735027"><ele>118.00000000000001</ele><time>2026-04-11T09:10:06.001Z</time></trkpt><trkpt lat="45.1375292930776" lon="8.444584849326644"><ele>118.0</ele><time>2026-04-11T09:10:07.001Z</time></trkpt><trkpt lat="45.13743629102275" lon="8.444541291324933"><ele>118.0</ele><time>2026-04-11T09:10:08.001Z</time></trkpt><trkpt lat="45.13733398099887" lon="8.44451474829743"><ele>118.0</ele><time>2026-04-11T09:10:09.001Z</time></trkpt><trkpt lat="45.13722251984689" lon="8.444500330868616"><ele>118.0</ele><time>2026-04-11T09:10:10.001Z</time></trkpt><trkpt lat="45.137104196647144" lon="8.444486844841844"><ele>118.0</ele><time>2026-04-11T09:10:11.001Z</time></trkpt><trkpt lat="45.13698592479296" lon="8.444467705439482"><ele>118.0</ele><time>2026-04-11T09:10:12.001Z</time></trkpt><trkpt lat="45.13687771627115" lon="8.4444479931321"><ele>118.00000000000001</ele><time>2026-04-11T09:10:13.001Z</time></trkpt><trkpt lat="45.136781220768796" lon="8.444428261345925"><ele>118.0</ele><time>2026-04-11T09:10:14.001Z</time></trkpt><trkpt lat="45.13669870558431" lon="8.444409842914805"><ele>118.0</ele><time>2026-04-11T09:10:15.001Z</time></trkpt><trkpt lat="45.136620338444665" lon="8.444396258077541"><ele>118.0</ele><time>2026-04-11T09:10:16.001Z</time></trkpt><trkpt lat="45.13654967805267" lon="8.44437608622459"><ele>118.00000000000001</ele><time>2026-04-11T09:10:17.001Z</time></trkpt><trkpt lat="45.13644894029059" lon="8.444360726957933"><ele>118.0</ele><time>2026-04-11T09:10:19.001Z</time></trkpt><trkpt lat="45.136384059653395" lon="8.444348695406225"><ele>118.00000000000001</ele><time>2026-04-11T09:10:21.001Z</time></trkpt><trkpt lat="45.13631013202943" lon="8.444333910997594"><ele>118.0</ele><time>2026-04-11T09:10:23.001Z</time></trkpt><trkpt lat="45.13622222170459" lon="8.44430812836037"><ele>118.0</ele><time>2026-04-11T09:10:25.001Z</time></trkpt><trkpt lat="45.13612540727388" lon="8.444273140778572"><ele>118.0</ele><time>2026-04-11T09:10:28.001Z</time></trkpt><trkpt lat="45.1360152291365" lon="8.44424939342732"><ele>118.00000000000001</ele><time>2026-04-11T09:10:30.001Z</time></trkpt><trkpt lat="45.13595011052589" lon="8.444240293800169"><ele>118.0</ele><time>2026-04-11T09:10:31.001Z</time></trkpt><trkpt lat="45.13588128209713" lon="8.444250144695271"><ele>118.00000000000001</ele><time>2026-04-11T09:10:32.001Z</time></trkpt><trkpt lat="45.13581250549908" lon="8.444259458266787"><ele>118.0</ele><time>2026-04-11T09:10:33.001Z</time></trkpt><trkpt lat="45.13573209562463" lon="8.4442616832479"><ele>118.0</ele><time>2026-04-11T09:10:34.001Z</time></trkpt><trkpt lat="45.135652125623956" lon="8.444253905829173"><ele>118.0</ele><time>2026-04-11T09:10:35.001Z</time></trkpt><trkpt lat="45.13558256576539" lon="8.444248410796604"><ele>118.00000000000001</ele><time>2026-04-11T09:10:36.001Z</time></trkpt><trkpt lat="45.135516851782455" lon="8.44425124171355"><ele>118.0</ele><time>2026-04-11T09:10:37.001Z</time></trkpt><trkpt lat="45.13540219400189" lon="8.444264014649079"><ele>117.66666666666667</ele><time>2026-04-11T09:10:39.001Z</time></trkpt><trkpt lat="45.1352856136555" lon="8.444278606137471"><ele>117.33333333333334</ele><time>2026-04-11T09:10:41.001Z</time></trkpt><trkpt lat="45.13522177040135" lon="8.444278298846747"><ele>117.0</ele><time>2026-04-11T09:10:42.001Z</time></trkpt><trkpt lat="45.13511375079474" lon="8.44428497419908"><ele>116.66666666666666</ele><time>2026-04-11T09:10:44.001Z</time></trkpt><trkpt lat="45.13503035002918" lon="8.44429141510186"><ele>116.33333333333333</ele><time>2026-04-11T09:10:46.001Z</time></trkpt><trkpt lat="45.13495654193234" lon="8.444300355606254"><ele>116.0</ele><time>2026-04-11T09:10:48.001Z</time></trkpt><trkpt lat="45.13488184311976" lon="8.444308966297118"><ele>116.0</ele><time>2026-04-11T09:10:50.001Z</time></trkpt><trkpt lat="45.134797270008804" lon="8.444307112143957"><ele>116.0</ele><time>2026-04-11T09:10:52.001Z</time></trkpt><trkpt lat="45.13466048300416" lon="8.444289953225745"><ele>116.0</ele><time>2026-04-11T09:10:54.001Z</time></trkpt><trkpt lat="45.13457199444338" lon="8.444296061366535"><ele>116.0</ele><time>2026-04-11T09:10:55.001Z</time></trkpt><trkpt lat="45.13449229995263" lon="8.444309327016766"><ele>116.0</ele><time>2026-04-11T09:10:56.001Z</time></trkpt><trkpt lat="45.13442433599985" lon="8.44431876043978"><ele>116.00000000000001</ele><time>2026-04-11T09:10:57.001Z</time></trkpt><trkpt lat="45.13435790743721" lon="8.444322161367579"><ele>116.0</ele><time>2026-04-11T09:10:58.001Z</time></trkpt><trkpt lat="45.13428055920346" lon="8.44432744910424"><ele>116.00000000000001</ele><time>2026-04-11T09:10:59.001Z</time></trkpt><trkpt lat="45.134203845200716" lon="8.444335773823562"><ele>116.00000000000001</ele><time>2026-04-11T09:11:00.001Z</time></trkpt><trkpt lat="45.13412922776117" lon="8.44434239235024"><ele>116.0</ele><time>2026-04-11T09:11:01.001Z</time></trkpt><trkpt lat="45.134050541158786" lon="8.44435054582717"><ele>116.00000000000001</ele><time>2026-04-11T09:11:02.001Z</time></trkpt><trkpt lat="45.13397860642735" lon="8.444359237187541"><ele>116.00000000000001</ele><time>2026-04-11T09:11:03.001Z</time></trkpt><trkpt lat="45.13391058385346" lon="8.444376123663385"><ele>115.99999999999999</ele><time>2026-04-11T09:11:04.001Z</time></trkpt><trkpt lat="45.1338465583702" lon="8.444400741347891"><ele>116.0</ele><time>2026-04-11T09:11:05.001Z</time></trkpt><trkpt lat="45.133785719636904" lon="8.444432967168074"><ele>116.0</ele><time>2026-04-11T09:11:06.001Z</time></trkpt><trkpt lat="45.13372694325778" lon="8.444467297301387"><ele>116.0</ele><time>2026-04-11T09:11:07.001Z</time></trkpt><trkpt lat="45.133638860727906" lon="8.444533217016067"><ele>115.99999999999999</ele><time>2026-04-11T09:11:09.001Z</time></trkpt><trkpt lat="45.13358246731663" lon="8.44459502346061"><ele>116.0</ele><time>2026-04-11T09:11:13.001Z</time></trkpt><trkpt lat="45.13349299526676" lon="8.444673088261768"><ele>116.16666666666666</ele><time>2026-04-11T09:11:16.001Z</time></trkpt><trkpt lat="45.133418851325864" lon="8.444702002421064"><ele>116.33333333333333</ele><time>2026-04-11T09:11:18.001Z</time></trkpt><trkpt lat="45.133309407211456" lon="8.444658538943596"><ele>116.5</ele><time>2026-04-11T09:11:20.001Z</time></trkpt><trkpt lat="45.13320953761172" lon="8.444589011196761"><ele>116.66666666666666</ele><time>2026-04-11T09:11:22.001Z</time></trkpt><trkpt lat="45.13314379781185" lon="8.444542325959485"><ele>116.83333333333333</ele><time>2026-04-11T09:11:24.001Z</time></trkpt><trkpt lat="45.13307760109225" lon="8.444507028685639"><ele>117.0</ele><time>2026-04-11T09:11:26.001Z</time></trkpt><trkpt lat="45.13301195527923" lon="8.44454325950656"><ele>117.6</ele><time>2026-04-11T09:11:28.001Z</time></trkpt><trkpt lat="45.13293690246565" lon="8.444705112017639"><ele>118.19999999999999</ele><time>2026-04-11T09:11:30.001Z</time></trkpt><trkpt lat="45.13289648600262" lon="8.444796447353646"><ele>118.8</ele><time>2026-04-11T09:11:31.001Z</time></trkpt><trkpt lat="45.13284855165141" lon="8.444896462581628"><ele>119.4</ele><time>2026-04-11T09:11:32.001Z</time></trkpt><trkpt lat="45.13278919754182" lon="8.444998084008272"><ele>120.0</ele><time>2026-04-11T09:11:33.001Z</time></trkpt><trkpt lat="45.13271708686183" lon="8.445105029055428"><ele>120.0</ele><time>2026-04-11T09:11:34.001Z</time></trkpt><trkpt lat="45.13264405033489" lon="8.445212040409647"><ele>120.0</ele><time>2026-04-11T09:11:35.001Z</time></trkpt><trkpt lat="45.13257268196728" lon="8.44531532562022"><ele>120.0</ele><time>2026-04-11T09:11:36.001Z</time></trkpt><trkpt lat="45.13250090826313" lon="8.44541847364934"><ele>120.0</ele><time>2026-04-11T09:11:37.001Z</time></trkpt><trkpt lat="45.13242704204107" lon="8.445525176236371"><ele>120.0</ele><time>2026-04-11T09:11:38.001Z</time></trkpt><trkpt lat="45.13235137858723" lon="8.445638400821029"><ele>119.0</ele><time>2026-04-11T09:11:39.001Z</time></trkpt><trkpt lat="45.1322709172419" lon="8.44575561730254"><ele>118.0</ele><time>2026-04-11T09:11:40.001Z</time></trkpt><trkpt lat="45.132191957318845" lon="8.445875928011395"><ele>117.0</ele><time>2026-04-11T09:11:41.001Z</time></trkpt><trkpt lat="45.132112197082364" lon="8.445998905724954"><ele>116.0</ele><time>2026-04-11T09:11:42.001Z</time></trkpt><trkpt lat="45.132034544039236" lon="8.446114763527055"><ele>116.0</ele><time>2026-04-11T09:11:43.001Z</time></trkpt><trkpt lat="45.13195920813894" lon="8.446227409709396"><ele>116.0</ele><time>2026-04-11T09:11:44.001Z</time></trkpt><trkpt lat="45.13189324496054" lon="8.44632660257842"><ele>116.0</ele><time>2026-04-11T09:11:45.001Z</time></trkpt><trkpt lat="45.131833802887705" lon="8.446416679845216"><ele>116.0</ele><time>2026-04-11T09:11:46.001Z</time></trkpt><trkpt lat="45.1317726739738" lon="8.446510483692654"><ele>116.0</ele><time>2026-04-11T09:11:47.001Z</time></trkpt><trkpt lat="45.13171862781551" lon="8.446592847549898"><ele>115.99999999999999</ele><time>2026-04-11T09:11:48.001Z</time></trkpt><trkpt lat="45.13166274497898" lon="8.446672079691677"><ele>116.0</ele><time>2026-04-11T09:11:49.001Z</time></trkpt><trkpt lat="45.13160952567517" lon="8.446749603337535"><ele>116.0</ele><time>2026-04-11T09:11:50.001Z</time></trkpt><trkpt lat="45.1315557068946" lon="8.446829102005541"><ele>116.0</ele><time>2026-04-11T09:11:51.001Z</time></trkpt><trkpt lat="45.13150026960944" lon="8.446912958029355"><ele>115.99999999999999</ele><time>2026-04-11T09:11:52.001Z</time></trkpt><trkpt lat="45.13144990940501" lon="8.44698831559962"><ele>116.0</ele><time>2026-04-11T09:11:53.001Z</time></trkpt><trkpt lat="45.13139424646154" lon="8.447067097871688"><ele>116.16666666666666</ele><time>2026-04-11T09:11:54.001Z</time></trkpt><trkpt lat="45.131330326432526" lon="8.447157559637855"><ele>116.33333333333333</ele><time>2026-04-11T09:11:55.001Z</time></trkpt><trkpt lat="45.13126796617578" lon="8.447244310990719"><ele>116.5</ele><time>2026-04-11T09:11:56.001Z</time></trkpt><trkpt lat="45.131205118749705" lon="8.447331075505453"><ele>116.66666666666666</ele><time>2026-04-11T09:11:57.001Z</time></trkpt><trkpt lat="45.131153458544034" lon="8.447405670906358"><ele>116.83333333333333</ele><time>2026-04-11T09:11:58.001Z</time></trkpt><trkpt lat="45.13110841899097" lon="8.447478079092715"><ele>117.0</ele><time>2026-04-11T09:11:59.001Z</time></trkpt><trkpt lat="45.13103624431771" lon="8.447613337716229"><ele>117.0</ele><time>2026-04-11T09:12:01.001Z</time></trkpt><trkpt lat="45.13099264297226" lon="8.447686029265018"><ele>117.00000000000001</ele><time>2026-04-11T09:12:02.001Z</time></trkpt><trkpt lat="45.130944790622195" lon="8.447760499869732"><ele>117.0</ele><time>2026-04-11T09:12:03.001Z</time></trkpt><trkpt lat="45.13089315353235" lon="8.447831979826416"><ele>117.0</ele><time>2026-04-11T09:12:04.001Z</time></trkpt><trkpt lat="45.130844490017765" lon="8.447900414734162"><ele>117.00000000000001</ele><time>2026-04-11T09:12:05.001Z</time></trkpt><trkpt lat="45.13079861816554" lon="8.447968811269314"><ele>117.0</ele><time>2026-04-11T09:12:06.001Z</time></trkpt><trkpt lat="45.13075568213342" lon="8.448034725827016"><ele>117.0</ele><time>2026-04-11T09:12:07.001Z</time></trkpt><trkpt lat="45.130674929000534" lon="8.44815514043086"><ele>117.33333333333333</ele><time>2026-04-11T09:12:09.001Z</time></trkpt><trkpt lat="45.130607985158285" lon="8.4482499394154"><ele>117.66666666666666</ele><time>2026-04-11T09:12:11.001Z</time></trkpt><trkpt lat="45.13055486864874" lon="8.448332103125573"><ele>118.0</ele><time>2026-04-11T09:12:13.001Z</time></trkpt><trkpt lat="45.13050223697007" lon="8.448405108223035"><ele>118.33333333333333</ele><time>2026-04-11T09:12:15.001Z</time></trkpt><trkpt lat="45.130435512743354" lon="8.448450289967676"><ele>118.66666666666666</ele><time>2026-04-11T09:12:17.001Z</time></trkpt><trkpt lat="45.130386799051614" lon="8.4485306393616"><ele>119.0</ele><time>2026-04-11T09:12:19.001Z</time></trkpt><trkpt lat="45.13030019227025" lon="8.448560933583565"><ele>119.0</ele><time>2026-04-11T09:12:21.001Z</time></trkpt><trkpt lat="45.13023780237736" lon="8.448608832214541"><ele>119.0</ele><time>2026-04-11T09:12:22.001Z</time></trkpt><trkpt lat="45.13020038005757" lon="8.44877124501935"><ele>119.0</ele><time>2026-04-11T09:12:24.001Z</time></trkpt><trkpt lat="45.13015572675033" lon="8.448892010954927"><ele>119.0</ele><time>2026-04-11T09:12:26.001Z</time></trkpt><trkpt lat="45.130107566260726" lon="8.448977841864806"><ele>119.0</ele><time>2026-04-11T09:12:28.001Z</time></trkpt><trkpt lat="45.13004910266988" lon="8.44906488483795"><ele>119.0</ele><time>2026-04-11T09:12:30.001Z</time></trkpt><trkpt lat="45.12998213385368" lon="8.449150260617616"><ele>119.0</ele><time>2026-04-11T09:12:32.001Z</time></trkpt><trkpt lat="45.12992353812412" lon="8.449232668242928"><ele>119.0</ele><time>2026-04-11T09:12:34.001Z</time></trkpt><trkpt lat="45.12985824650975" lon="8.449334788392113"><ele>119.0</ele><time>2026-04-11T09:12:36.001Z</time></trkpt><trkpt lat="45.129787375414395" lon="8.4494475587003"><ele>119.0</ele><time>2026-04-11T09:12:38.001Z</time></trkpt><trkpt lat="45.12970448103226" lon="8.44955594932519"><ele>118.75</ele><time>2026-04-11T09:12:40.001Z</time></trkpt><trkpt lat="45.12962634905248" lon="8.449675022455091"><ele>118.5</ele><time>2026-04-11T09:12:42.001Z</time></trkpt><trkpt lat="45.12954279938986" lon="8.449791969309652"><ele>118.25</ele><time>2026-04-11T09:12:44.001Z</time></trkpt><trkpt lat="45.129461611103636" lon="8.449907486458947"><ele>118.0</ele><time>2026-04-11T09:12:46.001Z</time></trkpt><trkpt lat="45.12937971954227" lon="8.450024794455617"><ele>118.00000000000001</ele><time>2026-04-11T09:12:48.001Z</time></trkpt><trkpt lat="45.129319620947406" lon="8.450118026343649"><ele>118.0</ele><time>2026-04-11T09:12:50.001Z</time></trkpt><trkpt lat="45.129274110877496" lon="8.450186292645132"><ele>118.0</ele><time>2026-04-11T09:12:55.001Z</time></trkpt><trkpt lat="45.12923462990266" lon="8.450264704977823"><ele>118.0</ele><time>2026-04-11T09:12:58.001Z</time></trkpt><trkpt lat="45.129195940845094" lon="8.4503359421078"><ele>118.00000000000001</ele><time>2026-04-11T09:13:00.001Z</time></trkpt><trkpt lat="45.12913560478951" lon="8.450443965403435"><ele>118.0</ele><time>2026-04-11T09:13:03.001Z</time></trkpt><trkpt lat="45.12903607201623" lon="8.450562441600235"><ele>117.83333333333334</ele><time>2026-04-11T09:13:05.001Z</time></trkpt><trkpt lat="45.12898290462934" lon="8.45062394255604"><ele>117.66666666666667</ele><time>2026-04-11T09:13:06.001Z</time></trkpt><trkpt lat="45.12891025261516" lon="8.450673409069282"><ele>117.5</ele><time>2026-04-11T09:13:07.001Z</time></trkpt><trkpt lat="45.12883472780221" lon="8.450686306841641"><ele>117.33333333333334</ele><time>2026-04-11T09:13:08.001Z</time></trkpt><trkpt lat="45.128745581332765" lon="8.450690698669002"><ele>117.16666666666667</ele><time>2026-04-11T09:13:09.001Z</time></trkpt><trkpt lat="45.12865481248352" lon="8.450700515258363"><ele>117.0</ele><time>2026-04-11T09:13:10.001Z</time></trkpt><trkpt lat="45.12856232608596" lon="8.450707330931824"><ele>117.0</ele><time>2026-04-11T09:13:11.001Z</time></trkpt><trkpt lat="45.12846832914506" lon="8.450718470320998"><ele>116.99999999999999</ele><time>2026-04-11T09:13:12.001Z</time></trkpt><trkpt lat="45.128360576515696" lon="8.450733959148069"><ele>116.99999999999999</ele><time>2026-04-11T09:13:13.001Z</time></trkpt><trkpt lat="45.128248055137796" lon="8.450738094110374"><ele>117.0</ele><time>2026-04-11T09:13:14.001Z</time></trkpt><trkpt lat="45.12813628728812" lon="8.450751443842751"><ele>117.0</ele><time>2026-04-11T09:13:15.001Z</time></trkpt><trkpt lat="45.128027154505084" lon="8.45076420394666"><ele>117.0</ele><time>2026-04-11T09:13:16Z</time></trkpt><trkpt lat="45.12791906467682" lon="8.45077521048436"><ele>116.99999999999999</ele><time>2026-04-11T09:13:17Z</time></trkpt><trkpt lat="45.127818052512275" lon="8.450779844942053"><ele>116.99999999999999</ele><time>2026-04-11T09:13:18Z</time></trkpt><trkpt lat="45.12772301899641" lon="8.45077963221449"><ele>117.0</ele><time>2026-04-11T09:13:19Z</time></trkpt><trkpt lat="45.12762434686299" lon="8.450802654583246"><ele>117.0</ele><time>2026-04-11T09:13:20Z</time></trkpt><trkpt lat="45.12753051507017" lon="8.450806017013237"><ele>117.0</ele><time>2026-04-11T09:13:21Z</time></trkpt><trkpt lat="45.127434879641505" lon="8.450808897962013"><ele>116.99999999999999</ele><time>2026-04-11T09:13:22Z</time></trkpt><trkpt lat="45.12733857149001" lon="8.450812168273089"><ele>116.99999999999999</ele><time>2026-04-11T09:13:23Z</time></trkpt><trkpt lat="45.12723898001213" lon="8.45081865108347"><ele>117.0</ele><time>2026-04-11T09:13:24Z</time></trkpt><trkpt lat="45.127150205525346" lon="8.450821786695236"><ele>117.0</ele><time>2026-04-11T09:13:25Z</time></trkpt><trkpt lat="45.12705885320227" lon="8.450825237359181"><ele>117.16666666666667</ele><time>2026-04-11T09:13:26Z</time></trkpt><trkpt lat="45.12697078812661" lon="8.450823891240093"><ele>117.33333333333334</ele><time>2026-04-11T09:13:27Z</time></trkpt><trkpt lat="45.12688294687587" lon="8.45081569905311"><ele>117.5</ele><time>2026-04-11T09:13:28Z</time></trkpt><trkpt lat="45.12681097637661" lon="8.450819353924215"><ele>117.66666666666667</ele><time>2026-04-11T09:13:29Z</time></trkpt><trkpt lat="45.126721959288275" lon="8.450816407216621"><ele>117.83333333333334</ele><time>2026-04-11T09:13:31Z</time></trkpt><trkpt lat="45.126649689372755" lon="8.450819880796988"><ele>118.0</ele><time>2026-04-11T09:13:34Z</time></trkpt><trkpt lat="45.1265863155208" lon="8.45082746420549"><ele>118.0</ele><time>2026-04-11T09:13:36Z</time></trkpt><trkpt lat="45.12651327213574" lon="8.450830787924765"><ele>118.0</ele><time>2026-04-11T09:13:38Z</time></trkpt><trkpt lat="45.1264498495759" lon="8.45083357318831"><ele>118.0</ele><time>2026-04-11T09:13:40Z</time></trkpt><trkpt lat="45.126357981016675" lon="8.450825454694677"><ele>118.0</ele><time>2026-04-11T09:13:43Z</time></trkpt><trkpt lat="45.12629415809665" lon="8.450829339979409"><ele>118.0</ele><time>2026-04-11T09:13:45Z</time></trkpt><trkpt lat="45.12622244579357" lon="8.450835807153203"><ele>118.0</ele><time>2026-04-11T09:13:47Z</time></trkpt><trkpt lat="45.12615603192124" lon="8.450839892194226"><ele>118.0</ele><time>2026-04-11T09:13:55.001Z</time></trkpt><trkpt lat="45.126085575502195" lon="8.450841867462042"><ele>118.00000000000001</ele><time>2026-04-11T09:14:01.001Z</time></trkpt><trkpt lat="45.12600993447104" lon="8.450838847679934"><ele>118.0</ele><time>2026-04-11T09:14:13.001Z</time></trkpt><trkpt lat="45.12593096212671" lon="8.450844102134404"><ele>118.0</ele><time>2026-04-11T09:14:16.001Z</time></trkpt><trkpt lat="45.125864077445286" lon="8.450850126299624"><ele>118.0</ele><time>2026-04-11T09:14:19.001Z</time></trkpt><trkpt lat="45.125786359631455" lon="8.450862613412434"><ele>118.00000000000001</ele><time>2026-04-11T09:14:23.001Z</time></trkpt><trkpt lat="45.12571822707207" lon="8.450865159210206"><ele>118.0</ele><time>2026-04-11T09:14:25.001Z</time></trkpt><trkpt lat="45.125622742758885" lon="8.450872309102412"><ele>117.66666666666667</ele><time>2026-04-11T09:14:28.001Z</time></trkpt><trkpt lat="45.12555176260896" lon="8.450880465692201"><ele>117.33333333333334</ele><time>2026-04-11T09:14:30.001Z</time></trkpt><trkpt lat="45.125483025413736" lon="8.450880436198686"><ele>117.0</ele><time>2026-04-11T09:14:32.001Z</time></trkpt><trkpt lat="45.125416771450844" lon="8.45088449601555"><ele>116.66666666666666</ele><time>2026-04-11T09:14:34.001Z</time></trkpt><trkpt lat="45.12534057971204" lon="8.45088466738686"><ele>116.33333333333333</ele><time>2026-04-11T09:14:37.001Z</time></trkpt><trkpt lat="45.12524630741067" lon="8.450890216326107"><ele>116.0</ele><time>2026-04-11T09:14:39.001Z</time></trkpt><trkpt lat="45.12515017739158" lon="8.450895625899296"><ele>115.99999999999999</ele><time>2026-04-11T09:14:41.001Z</time></trkpt><trkpt lat="45.12506032753161" lon="8.45089092863679"><ele>116.0</ele><time>2026-04-11T09:14:43.001Z</time></trkpt><trkpt lat="45.124977023797825" lon="8.450892024491566"><ele>116.0</ele><time>2026-04-11T09:14:45.001Z</time></trkpt><trkpt lat="45.12491290583746" lon="8.450867206253195"><ele>116.0</ele><time>2026-04-11T09:14:48.001Z</time></trkpt><trkpt lat="45.1248605242138" lon="8.450802773120886"><ele>115.99999999999999</ele><time>2026-04-11T09:21:27.001Z</time></trkpt><trkpt lat="45.12479917119506" lon="8.450769415281256"><ele>116.0</ele><time>2026-04-11T09:21:36.001Z</time></trkpt><trkpt lat="45.124711409633136" lon="8.450801230009125"><ele>116.0</ele><time>2026-04-11T09:22:48.001Z</time></trkpt><trkpt lat="45.12469612933627" lon="8.45069208429593"><ele>116.0</ele><time>2026-04-11T09:22:50.001Z</time></trkpt><trkpt lat="45.124938295707935" lon="8.450860123430763"><ele>116.0</ele><time>2026-04-11T09:23:59.378Z</time></trkpt><trkpt lat="45.12501976772677" lon="8.450924270288708"><ele>116.0</ele><time>2026-04-11T09:24:00.689Z</time></trkpt><trkpt lat="45.12465989687052" lon="8.450692277409555"><ele>116.0</ele><time>2026-04-11T09:24:10.001Z</time></trkpt><trkpt lat="45.12490540102383" lon="8.450824966288783"><ele>116.0</ele><time>2026-04-11T09:24:12.001Z</time></trkpt><trkpt lat="45.12486628026704" lon="8.450743832871721"><ele>116.0</ele><time>2026-04-11T09:24:13.001Z</time></trkpt><trkpt lat="45.12479020565459" lon="8.450806985215598"><ele>116.0</ele><time>2026-04-11T09:24:56Z</time></trkpt><trkpt lat="45.12478991409683" lon="8.450642709455547"><ele>115.99999999999999</ele><time>2026-04-11T09:26:25.001Z</time></trkpt><trkpt lat="45.124790234853" lon="8.4507789649594"><ele>116.0</ele><time>2026-04-11T09:26:36Z</time></trkpt><trkpt lat="45.124832200032486" lon="8.450849500752286"><ele>116.0</ele><time>2026-04-11T09:26:42Z</time></trkpt><trkpt lat="45.12495521789458" lon="8.450819671608327"><ele>116.0</ele><time>2026-04-11T09:26:55Z</time></trkpt><trkpt lat="45.12488332236893" lon="8.450853932855258"><ele>115.99999999999999</ele><time>2026-04-11T09:38:53.997Z</time></trkpt><trkpt lat="45.12480741108152" lon="8.450878525566306"><ele>116.0</ele><time>2026-04-11T09:38:55.997Z</time></trkpt><trkpt lat="45.124723035707056" lon="8.450884902603491"><ele>116.0</ele><time>2026-04-11T09:38:57.997Z</time></trkpt><trkpt lat="45.1246369669195" lon="8.45088460640602"><ele>116.0</ele><time>2026-04-11T09:38:59.997Z</time></trkpt><trkpt lat="45.1245533257332" lon="8.450883273856805"><ele>116.0</ele><time>2026-04-11T09:39:01.997Z</time></trkpt><trkpt lat="45.12448091363291" lon="8.450881434688934"><ele>116.0</ele><time>2026-04-11T09:39:03.997Z</time></trkpt><trkpt lat="45.1243828829331" lon="8.450903009968911"><ele>116.0</ele><time>2026-04-11T09:39:06.998Z</time></trkpt><trkpt lat="45.124266261683516" lon="8.450922006222726"><ele>115.99999999999999</ele><time>2026-04-11T09:39:08.998Z</time></trkpt><trkpt lat="45.12419805657302" lon="8.450923551333055"><ele>116.0</ele><time>2026-04-11T09:39:09.998Z</time></trkpt><trkpt lat="45.12406264303746" lon="8.45093603657886"><ele>116.0</ele><time>2026-04-11T09:39:11.998Z</time></trkpt><trkpt lat="45.12398306824447" lon="8.450943609769075"><ele>116.0</ele><time>2026-04-11T09:39:12.998Z</time></trkpt><trkpt lat="45.1239068583234" lon="8.450948651009236"><ele>115.99999999999999</ele><time>2026-04-11T09:39:13.998Z</time></trkpt><trkpt lat="45.12382244065322" lon="8.450959465777201"><ele>116.0</ele><time>2026-04-11T09:39:14.998Z</time></trkpt><trkpt lat="45.123747871282355" lon="8.450963805989305"><ele>116.33333333333333</ele><time>2026-04-11T09:39:15.998Z</time></trkpt><trkpt lat="45.12367640032609" lon="8.450970156741489"><ele>116.66666666666666</ele><time>2026-04-11T09:39:16.998Z</time></trkpt><trkpt lat="45.12357890990335" lon="8.450975210613663"><ele>117.0</ele><time>2026-04-11T09:39:17.998Z</time></trkpt><trkpt lat="45.12347691785519" lon="8.450982586772936"><ele>117.33333333333334</ele><time>2026-04-11T09:39:18.998Z</time></trkpt><trkpt lat="45.123390048745286" lon="8.450991047111229"><ele>117.66666666666667</ele><time>2026-04-11T09:39:19.998Z</time></trkpt><trkpt lat="45.12330342337261" lon="8.450991929323777"><ele>118.0</ele><time>2026-04-11T09:39:20.998Z</time></trkpt><trkpt lat="45.12321079829572" lon="8.45099647974085"><ele>118.16666666666667</ele><time>2026-04-11T09:39:21.998Z</time></trkpt><trkpt lat="45.123117181871265" lon="8.450999899235894"><ele>118.33333333333334</ele><time>2026-04-11T09:39:22.998Z</time></trkpt><trkpt lat="45.1230168031559" lon="8.451008412717824"><ele>118.5</ele><time>2026-04-11T09:39:23.998Z</time></trkpt><trkpt lat="45.12293402733117" lon="8.451021270599275"><ele>118.66666666666666</ele><time>2026-04-11T09:39:24.998Z</time></trkpt><trkpt lat="45.122846188748554" lon="8.451022175803995"><ele>118.83333333333333</ele><time>2026-04-11T09:39:25.998Z</time></trkpt><trkpt lat="45.12276291016136" lon="8.451019073343078"><ele>119.0</ele><time>2026-04-11T09:39:26.999Z</time></trkpt><trkpt lat="45.122681910152245" lon="8.451028167796434"><ele>118.99999999999999</ele><time>2026-04-11T09:39:27.999Z</time></trkpt><trkpt lat="45.12260893741143" lon="8.45103421549437"><ele>119.0</ele><time>2026-04-11T09:39:28.999Z</time></trkpt><trkpt lat="45.122529538366564" lon="8.45104060472368"><ele>119.0</ele><time>2026-04-11T09:39:29.999Z</time></trkpt><trkpt lat="45.12244802455441" lon="8.451045667404566"><ele>119.0</ele><time>2026-04-11T09:39:30.999Z</time></trkpt><trkpt lat="45.12235948306852" lon="8.451053297757992"><ele>118.99999999999999</ele><time>2026-04-11T09:39:31.999Z</time></trkpt><trkpt lat="45.122274638981885" lon="8.451056917382155"><ele>119.0</ele><time>2026-04-11T09:39:32.999Z</time></trkpt><trkpt lat="45.122197490885036" lon="8.451058378645872"><ele>119.2</ele><time>2026-04-11T09:39:33.999Z</time></trkpt><trkpt lat="45.12211068896911" lon="8.451059927630496"><ele>119.4</ele><time>2026-04-11T09:39:34.999Z</time></trkpt><trkpt lat="45.1220319351003" lon="8.451059976099675"><ele>119.6</ele><time>2026-04-11T09:39:35.999Z</time></trkpt><trkpt lat="45.121957555703624" lon="8.451062152612177"><ele>119.8</ele><time>2026-04-11T09:39:36.999Z</time></trkpt><trkpt lat="45.12183346231128" lon="8.45105718086324"><ele>120.0</ele><time>2026-04-11T09:39:38.999Z</time></trkpt><trkpt lat="45.121711601361255" lon="8.451032034832872"><ele>120.0</ele><time>2026-04-11T09:39:40.999Z</time></trkpt><trkpt lat="45.12161620682289" lon="8.450924238414132"><ele>120.0</ele><time>2026-04-11T09:39:42.999Z</time></trkpt><trkpt lat="45.12155157271394" lon="8.450905894500998"><ele>120.0</ele><time>2026-04-11T09:39:43.999Z</time></trkpt><trkpt lat="45.12149208830074" lon="8.45095979139347"><ele>120.0</ele><time>2026-04-11T09:39:44.999Z</time></trkpt><trkpt lat="45.121435080101975" lon="8.45100491729401"><ele>120.0</ele><time>2026-04-11T09:39:45.999Z</time></trkpt><trkpt lat="45.12137682922736" lon="8.451057717481445"><ele>120.0</ele><time>2026-04-11T09:39:46.999Z</time></trkpt><trkpt lat="45.12131456252852" lon="8.451098569439715"><ele>119.83333333333333</ele><time>2026-04-11T09:39:47.999Z</time></trkpt><trkpt lat="45.12123963799392" lon="8.45111355440958"><ele>119.66666666666666</ele><time>2026-04-11T09:39:48.999Z</time></trkpt><trkpt lat="45.12116376424072" lon="8.451110022180357"><ele>119.5</ele><time>2026-04-11T09:39:49.999Z</time></trkpt><trkpt lat="45.12108594971239" lon="8.451107257066285"><ele>119.33333333333333</ele><time>2026-04-11T09:39:50.999Z</time></trkpt><trkpt lat="45.12101749779057" lon="8.451104688857809"><ele>119.16666666666666</ele><time>2026-04-11T09:39:51.999Z</time></trkpt><trkpt lat="45.12095333977099" lon="8.451100186533939"><ele>119.0</ele><time>2026-04-11T09:39:52.999Z</time></trkpt><trkpt lat="45.120827562716784" lon="8.451118321976125"><ele>119.0</ele><time>2026-04-11T09:39:54.999Z</time></trkpt><trkpt lat="45.120759995173735" lon="8.451117296678456"><ele>119.0</ele><time>2026-04-11T09:39:55.999Z</time></trkpt><trkpt lat="45.12068170761523" lon="8.45111955909457"><ele>119.0</ele><time>2026-04-11T09:39:56.999Z</time></trkpt><trkpt lat="45.12060470755178" lon="8.451117542421503"><ele>119.0</ele><time>2026-04-11T09:39:57.999Z</time></trkpt><trkpt lat="45.12053580664173" lon="8.451111467428374"><ele>119.0</ele><time>2026-04-11T09:39:58.999Z</time></trkpt><trkpt lat="45.12047316782965" lon="8.451097404710842"><ele>119.0</ele><time>2026-04-11T09:39:59.999Z</time></trkpt><trkpt lat="45.12041043300522" lon="8.451066987754482"><ele>119.0</ele><time>2026-04-11T09:40:02.999Z</time></trkpt><trkpt lat="45.120317884760006" lon="8.451027528132276"><ele>119.0</ele><time>2026-04-11T09:40:04.999Z</time></trkpt><trkpt lat="45.12022978032548" lon="8.451046471766206"><ele>119.0</ele><time>2026-04-11T09:40:06.999Z</time></trkpt><trkpt lat="45.12015018266068" lon="8.451130962244918"><ele>119.0</ele><time>2026-04-11T09:40:08.999Z</time></trkpt><trkpt lat="45.120079048117354" lon="8.451187008672068"><ele>119.0</ele><time>2026-04-11T09:40:10.999Z</time></trkpt><trkpt lat="45.11998315899447" lon="8.45120080856017"><ele>119.0</ele><time>2026-04-11T09:40:12.999Z</time></trkpt><trkpt lat="45.119874960538" lon="8.451211414994514"><ele>118.99999999999999</ele><time>2026-04-11T09:40:14.999Z</time></trkpt><trkpt lat="45.11978700615056" lon="8.45120305213644"><ele>119.0</ele><time>2026-04-11T09:40:16.999Z</time></trkpt><trkpt lat="45.11967936009205" lon="8.451201855259873"><ele>119.0</ele><time>2026-04-11T09:40:18.999Z</time></trkpt><trkpt lat="45.11961564670517" lon="8.451205288858654"><ele>119.0</ele><time>2026-04-11T09:40:19.999Z</time></trkpt><trkpt lat="45.11954599132603" lon="8.451208359549778"><ele>118.99999999999999</ele><time>2026-04-11T09:40:20.999Z</time></trkpt><trkpt lat="45.11947185778626" lon="8.45120836825835"><ele>119.0</ele><time>2026-04-11T09:40:21.999Z</time></trkpt><trkpt lat="45.11938631321498" lon="8.451215057439985"><ele>119.0</ele><time>2026-04-11T09:40:22.999Z</time></trkpt><trkpt lat="45.11929402243092" lon="8.45121927575281"><ele>119.0</ele><time>2026-04-11T09:40:23.999Z</time></trkpt><trkpt lat="45.11919921580694" lon="8.451223739356632"><ele>119.0</ele><time>2026-04-11T09:40:24.999Z</time></trkpt><trkpt lat="45.11909689324491" lon="8.451220112811491"><ele>119.0</ele><time>2026-04-11T09:40:25.999Z</time></trkpt><trkpt lat="45.11900075635527" lon="8.451228965928092"><ele>119.0</ele><time>2026-04-11T09:40:26.999Z</time></trkpt><trkpt lat="45.118897210967" lon="8.451241503105242"><ele>119.2</ele><time>2026-04-11T09:40:27.999Z</time></trkpt><trkpt lat="45.11879064958804" lon="8.451246021577633"><ele>119.4</ele><time>2026-04-11T09:40:28.999Z</time></trkpt><trkpt lat="45.11868787906143" lon="8.451251426030504"><ele>119.6</ele><time>2026-04-11T09:40:29.999Z</time></trkpt><trkpt lat="45.11857570358767" lon="8.451258997894655"><ele>119.8</ele><time>2026-04-11T09:40:30.999Z</time></trkpt><trkpt lat="45.118459645277376" lon="8.451277090719332"><ele>120.0</ele><time>2026-04-11T09:40:31.999Z</time></trkpt><trkpt lat="45.11833496080408" lon="8.451282553869033"><ele>119.25</ele><time>2026-04-11T09:40:32.999Z</time></trkpt><trkpt lat="45.11820180610324" lon="8.45129181555922"><ele>118.5</ele><time>2026-04-11T09:40:33.999Z</time></trkpt><trkpt lat="45.11805879194757" lon="8.451304219204172"><ele>117.75</ele><time>2026-04-11T09:40:35.011Z</time></trkpt><trkpt lat="45.11790627050937" lon="8.451318573592955"><ele>117.0</ele><time>2026-04-11T09:40:36.014Z</time></trkpt><trkpt lat="45.11774229635388" lon="8.45133119622945"><ele>117.0</ele><time>2026-04-11T09:40:37.013Z</time></trkpt><trkpt lat="45.11757655500861" lon="8.451321033526355"><ele>117.0</ele><time>2026-04-11T09:40:38.014Z</time></trkpt><trkpt lat="45.117160482374125" lon="8.451308682568792"><ele>116.66666666666666</ele><time>2026-04-11T09:40:41.999Z</time></trkpt><trkpt lat="45.1170235987142" lon="8.45131461573679"><ele>116.33333333333333</ele><time>2026-04-11T09:40:42.999Z</time></trkpt><trkpt lat="45.116842954994006" lon="8.451341031392596"><ele>116.0</ele><time>2026-04-11T09:40:43.999Z</time></trkpt><trkpt lat="45.116703431127874" lon="8.451367621831794"><ele>116.0</ele><time>2026-04-11T09:40:44.999Z</time></trkpt><trkpt lat="45.1165771615203" lon="8.451380477762577"><ele>116.0</ele><time>2026-04-11T09:40:45.999Z</time></trkpt><trkpt lat="45.11645329851538" lon="8.451387660731914"><ele>116.0</ele><time>2026-04-11T09:40:46.999Z</time></trkpt><trkpt lat="45.116330323179184" lon="8.451388410332763"><ele>116.0</ele><time>2026-04-11T09:40:47.999Z</time></trkpt><trkpt lat="45.116227178483385" lon="8.451392721769741"><ele>116.16666666666666</ele><time>2026-04-11T09:40:48.999Z</time></trkpt><trkpt lat="45.116138731820044" lon="8.451396208212264"><ele>116.33333333333333</ele><time>2026-04-11T09:40:49.999Z</time></trkpt><trkpt lat="45.11605883835804" lon="8.45136322984442"><ele>116.5</ele><time>2026-04-11T09:40:50.999Z</time></trkpt><trkpt lat="45.11598756821959" lon="8.451315721257187"><ele>116.66666666666666</ele><time>2026-04-11T09:40:51.999Z</time></trkpt><trkpt lat="45.11591341933472" lon="8.451250553000081"><ele>116.83333333333333</ele><time>2026-04-11T09:40:52.999Z</time></trkpt><trkpt lat="45.115836726579545" lon="8.451175935072424"><ele>117.0</ele><time>2026-04-11T09:40:53.999Z</time></trkpt><trkpt lat="45.11576655821587" lon="8.451090237754887"><ele>117.19999999999999</ele><time>2026-04-11T09:40:54.999Z</time></trkpt><trkpt lat="45.11570541611046" lon="8.450981878380594"><ele>117.39999999999999</ele><time>2026-04-11T09:40:55.999Z</time></trkpt><trkpt lat="45.11564564259575" lon="8.45086496227204"><ele>117.60000000000001</ele><time>2026-04-11T09:40:56.999Z</time></trkpt><trkpt lat="45.11558458924491" lon="8.450759329177785"><ele>117.80000000000001</ele><time>2026-04-11T09:40:57.995Z</time></trkpt><trkpt lat="45.11551008135316" lon="8.450671149923375"><ele>118.0</ele><time>2026-04-11T09:40:58.995Z</time></trkpt><trkpt lat="45.11542482962666" lon="8.45061672296601"><ele>118.0</ele><time>2026-04-11T09:40:59.995Z</time></trkpt><trkpt lat="45.11533777512169" lon="8.45060325352993"><ele>118.00000000000001</ele><time>2026-04-11T09:41:00.995Z</time></trkpt><trkpt lat="45.11525005292981" lon="8.450617799934644"><ele>118.00000000000001</ele><time>2026-04-11T09:41:01.995Z</time></trkpt><trkpt lat="45.11516707689245" lon="8.450677744587967"><ele>118.0</ele><time>2026-04-11T09:41:02.995Z</time></trkpt><trkpt lat="45.11510082688477" lon="8.450762361651458"><ele>118.0</ele><time>2026-04-11T09:41:03.995Z</time></trkpt><trkpt lat="45.11506309364924" lon="8.45088305877426"><ele>118.0</ele><time>2026-04-11T09:41:04.995Z</time></trkpt><trkpt lat="45.1150480932232" lon="8.451012122437191"><ele>118.00000000000001</ele><time>2026-04-11T09:41:05.995Z</time></trkpt><trkpt lat="45.1150352819292" lon="8.451127978998077"><ele>118.00000000000001</ele><time>2026-04-11T09:41:06.995Z</time></trkpt><trkpt lat="45.11504241743884" lon="8.451230179273567"><ele>118.0</ele><time>2026-04-11T09:41:07.996Z</time></trkpt><trkpt lat="45.11517151994629" lon="8.451378713715691"><ele>118.0</ele><time>2026-04-11T09:41:09.996Z</time></trkpt><trkpt lat="45.115240366973914" lon="8.45142763338342"><ele>118.2</ele><time>2026-04-11T09:41:10.996Z</time></trkpt><trkpt lat="45.11532969065271" lon="8.45146277867882"><ele>118.4</ele><time>2026-04-11T09:41:11.996Z</time></trkpt><trkpt lat="45.11542946751997" lon="8.451475544307998"><ele>118.60000000000001</ele><time>2026-04-11T09:41:12.996Z</time></trkpt><trkpt lat="45.11553453687505" lon="8.451468179025522"><ele>118.80000000000001</ele><time>2026-04-11T09:41:13.996Z</time></trkpt><trkpt lat="45.11564389573146" lon="8.451460645691737"><ele>119.0</ele><time>2026-04-11T09:41:14.996Z</time></trkpt><trkpt lat="45.115751232775224" lon="8.451457411437682"><ele>118.6</ele><time>2026-04-11T09:41:15.997Z</time></trkpt><trkpt lat="45.11584752674839" lon="8.45145521309308"><ele>118.2</ele><time>2026-04-11T09:41:16.997Z</time></trkpt><trkpt lat="45.11592292011236" lon="8.451476283756762"><ele>117.79999999999998</ele><time>2026-04-11T09:41:17.997Z</time></trkpt><trkpt lat="45.11596963798897" lon="8.451628529613558"><ele>117.39999999999999</ele><time>2026-04-11T09:41:19.997Z</time></trkpt><trkpt lat="45.11595627545349" lon="8.451798002284415"><ele>117.0</ele><time>2026-04-11T09:41:21.997Z</time></trkpt><trkpt lat="45.115944152310234" lon="8.451926054219028"><ele>117.0</ele><time>2026-04-11T09:41:22.997Z</time></trkpt><trkpt lat="45.1159180597538" lon="8.452044560041951"><ele>117.0</ele><time>2026-04-11T09:41:23.997Z</time></trkpt><trkpt lat="45.11589610513884" lon="8.45217114098142"><ele>117.0</ele><time>2026-04-11T09:41:24.997Z</time></trkpt><trkpt lat="45.115900268496894" lon="8.452288722199482"><ele>117.0</ele><time>2026-04-11T09:41:25.997Z</time></trkpt><trkpt lat="45.11592540003738" lon="8.45238170395296"><ele>117.0</ele><time>2026-04-11T09:41:26.998Z</time></trkpt><trkpt lat="45.11596731825116" lon="8.452454316222438"><ele>117.0</ele><time>2026-04-11T09:41:27.998Z</time></trkpt><trkpt lat="45.11602494536105" lon="8.452522789686823"><ele>117.0</ele><time>2026-04-11T09:41:28.998Z</time></trkpt><trkpt lat="45.11610926210242" lon="8.452582259792752"><ele>116.99999999999999</ele><time>2026-04-11T09:41:29.998Z</time></trkpt><trkpt lat="45.11620958373905" lon="8.452614242668593"><ele>116.99999999999999</ele><time>2026-04-11T09:41:30.998Z</time></trkpt><trkpt lat="45.116321000314954" lon="8.452626384848108"><ele>117.0</ele><time>2026-04-11T09:41:31.998Z</time></trkpt><trkpt lat="45.1164445742765" lon="8.452642242105325"><ele>117.0</ele><time>2026-04-11T09:41:32.998Z</time></trkpt><trkpt lat="45.11657377065971" lon="8.452673525711665"><ele>117.0</ele><time>2026-04-11T09:41:33.998Z</time></trkpt><trkpt lat="45.11671139761391" lon="8.45269672162173"><ele>117.0</ele><time>2026-04-11T09:41:34.998Z</time></trkpt><trkpt lat="45.116855893266994" lon="8.452728023898075"><ele>117.0</ele><time>2026-04-11T09:41:35.998Z</time></trkpt><trkpt lat="45.11700422146506" lon="8.452758619365607"><ele>117.0</ele><time>2026-04-11T09:41:36.998Z</time></trkpt><trkpt lat="45.11713532812959" lon="8.452786359846566"><ele>117.0</ele><time>2026-04-11T09:41:37.998Z</time></trkpt><trkpt lat="45.11726225295157" lon="8.452811101176454"><ele>116.99999999999999</ele><time>2026-04-11T09:41:38.998Z</time></trkpt><trkpt lat="45.1173700379387" lon="8.452831617366822"><ele>116.99999999999999</ele><time>2026-04-11T09:41:39.998Z</time></trkpt><trkpt lat="45.117455938227984" lon="8.452852445396168"><ele>117.0</ele><time>2026-04-11T09:41:40.998Z</time></trkpt><trkpt lat="45.11753100930684" lon="8.452870525982172"><ele>117.0</ele><time>2026-04-11T09:41:41.998Z</time></trkpt><trkpt lat="45.1176330196669" lon="8.4528896123332"><ele>117.0</ele><time>2026-04-11T09:41:43.998Z</time></trkpt><trkpt lat="45.11754491658272" lon="8.452877677243437"><ele>116.99999999999999</ele><time>2026-04-11T09:41:55.999Z</time></trkpt><trkpt lat="45.11747394378832" lon="8.452863803973061"><ele>116.99999999999999</ele><time>2026-04-11T09:41:56.999Z</time></trkpt><trkpt lat="45.11739583531082" lon="8.452848535860543"><ele>117.0</ele><time>2026-04-11T09:41:57.999Z</time></trkpt><trkpt lat="45.1173157745997" lon="8.45283288636392"><ele>117.0</ele><time>2026-04-11T09:41:58.999Z</time></trkpt><trkpt lat="45.1171866065556" lon="8.452803845325557"><ele>117.0</ele><time>2026-04-11T09:41:59.999Z</time></trkpt><trkpt lat="45.1170515263044" lon="8.452723043002402"><ele>116.99999999999999</ele><time>2026-04-11T09:42:00.999Z</time></trkpt><trkpt lat="45.1169455091506" lon="8.45269783951761"><ele>116.99999999999999</ele><time>2026-04-11T09:42:01.999Z</time></trkpt><trkpt lat="45.11684918764696" lon="8.45267802868192"><ele>117.0</ele><time>2026-04-11T09:42:02.999Z</time></trkpt><trkpt lat="45.11676473761649" lon="8.452660488045057"><ele>117.0</ele><time>2026-04-11T09:42:03.999Z</time></trkpt><trkpt lat="45.116689780431415" lon="8.45264166790579"><ele>117.0</ele><time>2026-04-11T09:42:04.999Z</time></trkpt><trkpt lat="45.11661887506012" lon="8.452623235479551"><ele>117.0</ele><time>2026-04-11T09:42:05.999Z</time></trkpt><trkpt lat="45.11654408358095" lon="8.452605514332353"><ele>117.0</ele><time>2026-04-11T09:42:06.999Z</time></trkpt><trkpt lat="45.1164673894192" lon="8.45259230733054"><ele>117.0</ele><time>2026-04-11T09:42:07.999Z</time></trkpt><trkpt lat="45.116384690185974" lon="8.452580392664888"><ele>117.0</ele><time>2026-04-11T09:42:08.999Z</time></trkpt><trkpt lat="45.11630029456275" lon="8.452568092118932"><ele>117.0</ele><time>2026-04-11T09:42:09.999Z</time></trkpt><trkpt lat="45.11622353225411" lon="8.452555242449083"><ele>116.83333333333333</ele><time>2026-04-11T09:42:10.999Z</time></trkpt><trkpt lat="45.116152393887496" lon="8.45253651863258"><ele>116.66666666666666</ele><time>2026-04-11T09:42:11.999Z</time></trkpt><trkpt lat="45.11608530864528" lon="8.452510960597118"><ele>116.5</ele><time>2026-04-11T09:42:12.999Z</time></trkpt><trkpt lat="45.11598727397626" lon="8.452423300314145"><ele>116.33333333333333</ele><time>2026-04-11T09:42:14.999Z</time></trkpt><trkpt lat="45.11595263925518" lon="8.45233387845259"><ele>116.16666666666666</ele><time>2026-04-11T09:42:16.999Z</time></trkpt><trkpt lat="45.115907080715296" lon="8.452444837211601"><ele>116.0</ele><time>2026-04-11T09:42:26.999Z</time></trkpt><trkpt lat="45.11582453277813" lon="8.45272894451495"><ele>115.99999999999999</ele><time>2026-04-11T09:42:27.999Z</time></trkpt><trkpt lat="45.11579400128744" lon="8.452837632676234"><ele>116.0</ele><time>2026-04-11T09:42:28.999Z</time></trkpt><trkpt lat="45.11575766363375" lon="8.452956593277479"><ele>116.0</ele><time>2026-04-11T09:42:29.999Z</time></trkpt><trkpt lat="45.11573057231528" lon="8.453065058639513"><ele>116.0</ele><time>2026-04-11T09:42:30.999Z</time></trkpt><trkpt lat="45.1157081456698" lon="8.453170411188358"><ele>115.99999999999999</ele><time>2026-04-11T09:42:31.999Z</time></trkpt><trkpt lat="45.11568811685792" lon="8.453277151389289"><ele>116.0</ele><time>2026-04-11T09:42:32.999Z</time></trkpt><trkpt lat="45.11566417163474" lon="8.45343095646607"><ele>116.0</ele><time>2026-04-11T09:42:34.999Z</time></trkpt><trkpt lat="45.11561540345844" lon="8.453529762992785"><ele>116.0</ele><time>2026-04-11T09:42:37Z</time></trkpt><trkpt lat="45.11553757426626" lon="8.45359207669916"><ele>116.0</ele><time>2026-04-11T09:42:39Z</time></trkpt><trkpt lat="45.115514515783275" lon="8.453717918314172"><ele>116.0</ele><time>2026-04-11T09:42:41Z</time></trkpt><trkpt lat="45.11550884397942" lon="8.45389387263939"><ele>116.0</ele><time>2026-04-11T09:42:43Z</time></trkpt><trkpt lat="45.11551040508925" lon="8.45399842205135"><ele>115.99999999999999</ele><time>2026-04-11T09:42:44Z</time></trkpt><trkpt lat="45.11550531613362" lon="8.454104685270313"><ele>116.0</ele><time>2026-04-11T09:42:45Z</time></trkpt><trkpt lat="45.11549897304158" lon="8.454229806454787"><ele>116.0</ele><time>2026-04-11T09:42:46Z</time></trkpt><trkpt lat="45.115491273009155" lon="8.454339141414115"><ele>116.0</ele><time>2026-04-11T09:42:47Z</time></trkpt><trkpt lat="45.11548486234961" lon="8.454446133011231"><ele>115.99999999999999</ele><time>2026-04-11T09:42:48Z</time></trkpt><trkpt lat="45.1154795036567" lon="8.454548428608541"><ele>116.0</ele><time>2026-04-11T09:42:49Z</time></trkpt><trkpt lat="45.115476698582256" lon="8.454649209933633"><ele>115.99999999999999</ele><time>2026-04-11T09:42:50Z</time></trkpt><trkpt lat="45.11547234889299" lon="8.454754377415961"><ele>116.0</ele><time>2026-04-11T09:42:51Z</time></trkpt><trkpt lat="45.11546762117078" lon="8.45486288489714"><ele>116.0</ele><time>2026-04-11T09:42:52Z</time></trkpt><trkpt lat="45.115463719811004" lon="8.454972111583654"><ele>116.0</ele><time>2026-04-11T09:42:53Z</time></trkpt><trkpt lat="45.115456663178705" lon="8.455094377053351"><ele>115.99999999999999</ele><time>2026-04-11T09:42:54Z</time></trkpt><trkpt lat="45.115448320281985" lon="8.455234092567334"><ele>116.0</ele><time>2026-04-11T09:42:55Z</time></trkpt><trkpt lat="45.115440903878884" lon="8.455374595691582"><ele>115.66666666666666</ele><time>2026-04-11T09:42:56Z</time></trkpt><trkpt lat="45.1154366577679" lon="8.45549542190895"><ele>115.33333333333333</ele><time>2026-04-11T09:42:57Z</time></trkpt><trkpt lat="45.11543395048947" lon="8.455607792359245"><ele>115.0</ele><time>2026-04-11T09:42:58Z</time></trkpt><trkpt lat="45.11542899833554" lon="8.455739535227174"><ele>114.66666666666666</ele><time>2026-04-11T09:42:59Z</time></trkpt><trkpt lat="45.11542707772247" lon="8.455843266278725"><ele>114.33333333333333</ele><time>2026-04-11T09:43:00Z</time></trkpt><trkpt lat="45.1154227255414" lon="8.455942321012314"><ele>114.0</ele><time>2026-04-11T09:43:01Z</time></trkpt><trkpt lat="45.11541716956117" lon="8.456035649177839"><ele>114.0</ele><time>2026-04-11T09:43:02Z</time></trkpt><trkpt lat="45.11541163244239" lon="8.456138919178535"><ele>114.0</ele><time>2026-04-11T09:43:03Z</time></trkpt><trkpt lat="45.11540466266814" lon="8.456251133211554"><ele>114.0</ele><time>2026-04-11T09:43:03.996Z</time></trkpt><trkpt lat="45.11539664719182" lon="8.45635936314115"><ele>114.0</ele><time>2026-04-11T09:43:04.996Z</time></trkpt><trkpt lat="45.11538643218985" lon="8.456465202877565"><ele>114.0</ele><time>2026-04-11T09:43:05.996Z</time></trkpt><trkpt lat="45.11537509878974" lon="8.456579998479036"><ele>114.0</ele><time>2026-04-11T09:43:06.996Z</time></trkpt><trkpt lat="45.11536779942247" lon="8.456682275435313"><ele>114.0</ele><time>2026-04-11T09:43:07.996Z</time></trkpt><trkpt lat="45.115365058017936" lon="8.456787868744296"><ele>114.0</ele><time>2026-04-11T09:43:08.996Z</time></trkpt><trkpt lat="45.11535972291073" lon="8.456890378616311"><ele>114.0</ele><time>2026-04-11T09:43:09.996Z</time></trkpt><trkpt lat="45.11534525286447" lon="8.457017195683127"><ele>114.0</ele><time>2026-04-11T09:43:10.996Z</time></trkpt><trkpt lat="45.11533216747149" lon="8.457147882231192"><ele>114.0</ele><time>2026-04-11T09:43:11.996Z</time></trkpt><trkpt lat="45.11531842153874" lon="8.457274656092611"><ele>114.0</ele><time>2026-04-11T09:43:12.996Z</time></trkpt><trkpt lat="45.11530997404242" lon="8.457420522534564"><ele>113.6</ele><time>2026-04-11T09:43:13.996Z</time></trkpt><trkpt lat="45.11530231233332" lon="8.457564239191518"><ele>113.2</ele><time>2026-04-11T09:43:14.996Z</time></trkpt><trkpt lat="45.11529581958607" lon="8.457704737189998"><ele>112.79999999999998</ele><time>2026-04-11T09:43:15.996Z</time></trkpt><trkpt lat="45.1152918490529" lon="8.457856726211912"><ele>112.39999999999999</ele><time>2026-04-11T09:43:16.997Z</time></trkpt><trkpt lat="45.115286035033556" lon="8.45800171433466"><ele>112.0</ele><time>2026-04-11T09:43:17.997Z</time></trkpt><trkpt lat="45.11527812712266" lon="8.458148301625902"><ele>112.0</ele><time>2026-04-11T09:43:18.997Z</time></trkpt><trkpt lat="45.11527167740981" lon="8.458304088938618"><ele>111.99999999999999</ele><time>2026-04-11T09:43:19.997Z</time></trkpt><trkpt lat="45.11526452769123" lon="8.45845036322452"><ele>111.99999999999999</ele><time>2026-04-11T09:43:20.997Z</time></trkpt><trkpt lat="45.11525901935813" lon="8.458589728941238"><ele>112.0</ele><time>2026-04-11T09:43:21.997Z</time></trkpt><trkpt lat="45.11525259790199" lon="8.458729509509352"><ele>112.0</ele><time>2026-04-11T09:43:22.997Z</time></trkpt><trkpt lat="45.11524580254034" lon="8.458864970531433"><ele>111.8</ele><time>2026-04-11T09:43:23.997Z</time></trkpt><trkpt lat="45.11524120902661" lon="8.458989748787245"><ele>111.6</ele><time>2026-04-11T09:43:24.998Z</time></trkpt><trkpt lat="45.115235013696065" lon="8.45911610679663"><ele>111.39999999999999</ele><time>2026-04-11T09:43:25.998Z</time></trkpt><trkpt lat="45.11523127260197" lon="8.45924215585456"><ele>111.19999999999999</ele><time>2026-04-11T09:43:26.998Z</time></trkpt><trkpt lat="45.11522535223412" lon="8.459376550108615"><ele>111.0</ele><time>2026-04-11T09:43:27.998Z</time></trkpt><trkpt lat="45.1152239099703" lon="8.459510696207513"><ele>111.33333333333333</ele><time>2026-04-11T09:43:28.998Z</time></trkpt><trkpt lat="45.115223870589354" lon="8.459654910339571"><ele>111.66666666666666</ele><time>2026-04-11T09:43:29.998Z</time></trkpt><trkpt lat="45.115223226544565" lon="8.45979475471718"><ele>112.0</ele><time>2026-04-11T09:43:30.998Z</time></trkpt><trkpt lat="45.11522220067687" lon="8.459918543847616"><ele>112.33333333333333</ele><time>2026-04-11T09:43:31.998Z</time></trkpt><trkpt lat="45.115221022935245" lon="8.460011425640808"><ele>112.66666666666666</ele><time>2026-04-11T09:43:32.998Z</time></trkpt><trkpt lat="45.115218017127994" lon="8.460104228583436"><ele>113.0</ele><time>2026-04-11T09:43:33.998Z</time></trkpt><trkpt lat="45.115213719331585" lon="8.460207105879487"><ele>113.0</ele><time>2026-04-11T09:43:34.998Z</time></trkpt><trkpt lat="45.11520980999915" lon="8.460307929771632"><ele>113.0</ele><time>2026-04-11T09:43:35.998Z</time></trkpt><trkpt lat="45.11521237411799" lon="8.460399748194398"><ele>113.0</ele><time>2026-04-11T09:43:36.998Z</time></trkpt><trkpt lat="45.115210634343946" lon="8.460499567750396"><ele>113.0</ele><time>2026-04-11T09:43:37.998Z</time></trkpt><trkpt lat="45.1152072238266" lon="8.460601414440612"><ele>113.0</ele><time>2026-04-11T09:43:38.999Z</time></trkpt><trkpt lat="45.11520451207083" lon="8.460699840778904"><ele>113.0</ele><time>2026-04-11T09:43:39.999Z</time></trkpt><trkpt lat="45.11520370537514" lon="8.460799176443778"><ele>113.0</ele><time>2026-04-11T09:43:40.999Z</time></trkpt><trkpt lat="45.11519889559484" lon="8.46089275762888"><ele>113.2</ele><time>2026-04-11T09:43:41.999Z</time></trkpt><trkpt lat="45.11518791436804" lon="8.461034896728426"><ele>113.4</ele><time>2026-04-11T09:43:43.999Z</time></trkpt><trkpt lat="45.11510216627482" lon="8.461090266389206"><ele>113.60000000000001</ele><time>2026-04-11T09:43:46.999Z</time></trkpt><trkpt lat="45.11499189438415" lon="8.461071352149927"><ele>113.80000000000001</ele><time>2026-04-11T09:43:48.999Z</time></trkpt><trkpt lat="45.11490951907897" lon="8.461074838219531"><ele>114.0</ele><time>2026-04-11T09:43:49.999Z</time></trkpt><trkpt lat="45.11481478213852" lon="8.461083482504337"><ele>114.0</ele><time>2026-04-11T09:43:50.999Z</time></trkpt><trkpt lat="45.11470749847339" lon="8.461087069962641"><ele>114.0</ele><time>2026-04-11T09:43:51.999Z</time></trkpt><trkpt lat="45.11461917888514" lon="8.461090906170075"><ele>114.0</ele><time>2026-04-11T09:43:52.999Z</time></trkpt><trkpt lat="45.11453574261922" lon="8.461093819170783"><ele>114.0</ele><time>2026-04-11T09:43:53.999Z</time></trkpt><trkpt lat="45.1144394502989" lon="8.461099062778185"><ele>114.0</ele><time>2026-04-11T09:43:54.999Z</time></trkpt><trkpt lat="45.114339784959256" lon="8.461101429112052"><ele>114.0</ele><time>2026-04-11T09:43:55.999Z</time></trkpt><trkpt lat="45.1142369731704" lon="8.461110624938602"><ele>114.0</ele><time>2026-04-11T09:43:56.999Z</time></trkpt><trkpt lat="45.11413188828018" lon="8.461114927368984"><ele>114.0</ele><time>2026-04-11T09:43:57.999Z</time></trkpt><trkpt lat="45.11402441136928" lon="8.461118143310395"><ele>114.0</ele><time>2026-04-11T09:43:58.999Z</time></trkpt><trkpt lat="45.11391149162547" lon="8.461122737390573"><ele>114.0</ele><time>2026-04-11T09:43:59.999Z</time></trkpt><trkpt lat="45.11380387019511" lon="8.461125639541198"><ele>114.0</ele><time>2026-04-11T09:44:01Z</time></trkpt><trkpt lat="45.11369600525546" lon="8.461132093305917"><ele>114.0</ele><time>2026-04-11T09:44:02Z</time></trkpt><trkpt lat="45.11358886398119" lon="8.461135166981025"><ele>114.0</ele><time>2026-04-11T09:44:03Z</time></trkpt><trkpt lat="45.11348578110537" lon="8.461138107201243"><ele>114.0</ele><time>2026-04-11T09:44:04Z</time></trkpt><trkpt lat="45.11338542472221" lon="8.461140496069278"><ele>114.0</ele><time>2026-04-11T09:44:05Z</time></trkpt><trkpt lat="45.11329349715915" lon="8.461145603230234"><ele>114.0</ele><time>2026-04-11T09:44:06Z</time></trkpt><trkpt lat="45.11321379408168" lon="8.461148189788581"><ele>114.0</ele><time>2026-04-11T09:44:07Z</time></trkpt><trkpt lat="45.113140448976495" lon="8.461150105886777"><ele>114.0</ele><time>2026-04-11T09:44:08Z</time></trkpt><trkpt lat="45.11307201707729" lon="8.461150248239901"><ele>114.0</ele><time>2026-04-11T09:44:09Z</time></trkpt><trkpt lat="45.11300616048774" lon="8.461175374957747"><ele>114.0</ele><time>2026-04-11T09:44:11Z</time></trkpt><trkpt lat="45.112992527341866" lon="8.461316653984712"><ele>114.0</ele><time>2026-04-11T09:44:14Z</time></trkpt><trkpt lat="45.11301203526592" lon="8.461438616572323"><ele>113.80000000000001</ele><time>2026-04-11T09:44:16Z</time></trkpt><trkpt lat="45.11302477313888" lon="8.46159784814387"><ele>113.60000000000001</ele><time>2026-04-11T09:44:18Z</time></trkpt><trkpt lat="45.11304131808826" lon="8.461738266294029"><ele>113.4</ele><time>2026-04-11T09:44:20Z</time></trkpt><trkpt lat="45.11306129030031" lon="8.461862475381515"><ele>113.2</ele><time>2026-04-11T09:44:22Z</time></trkpt><trkpt lat="45.11307215378905" lon="8.461975520740928"><ele>113.0</ele><time>2026-04-11T09:44:24Z</time></trkpt><trkpt lat="45.11308829903131" lon="8.46214276524533"><ele>113.0</ele><time>2026-04-11T09:44:26Z</time></trkpt><trkpt lat="45.11310326222399" lon="8.462247208179294"><ele>113.00000000000001</ele><time>2026-04-11T09:44:27Z</time></trkpt><trkpt lat="45.113120111958864" lon="8.46237660669582"><ele>113.00000000000001</ele><time>2026-04-11T09:44:28Z</time></trkpt><trkpt lat="45.11314017718674" lon="8.462526319266267"><ele>113.0</ele><time>2026-04-11T09:44:29Z</time></trkpt><trkpt lat="45.113158218539226" lon="8.4626669396426"><ele>113.0</ele><time>2026-04-11T09:44:30Z</time></trkpt><trkpt lat="45.11317367679349" lon="8.46281553596325"><ele>112.75</ele><time>2026-04-11T09:44:31Z</time></trkpt><trkpt lat="45.11319239359655" lon="8.462975336974457"><ele>112.5</ele><time>2026-04-11T09:44:32Z</time></trkpt><trkpt lat="45.11321280140758" lon="8.463141107262244"><ele>112.25</ele><time>2026-04-11T09:44:33.001Z</time></trkpt><trkpt lat="45.11323798856959" lon="8.463310017911935"><ele>112.0</ele><time>2026-04-11T09:44:34.001Z</time></trkpt><trkpt lat="45.113256682789064" lon="8.463472430982925"><ele>112.39999999999999</ele><time>2026-04-11T09:44:35.001Z</time></trkpt><trkpt lat="45.113274707537116" lon="8.463623151203382"><ele>112.79999999999998</ele><time>2026-04-11T09:44:36.001Z</time></trkpt><trkpt lat="45.1132941194132" lon="8.46377656989552"><ele>113.2</ele><time>2026-04-11T09:44:37.001Z</time></trkpt><trkpt lat="45.11330887879755" lon="8.463913052896762"><ele>113.6</ele><time>2026-04-11T09:44:38.001Z</time></trkpt><trkpt lat="45.113329613820596" lon="8.46405165666102"><ele>114.0</ele><time>2026-04-11T09:44:39.001Z</time></trkpt><trkpt lat="45.11334819817674" lon="8.464178941285137"><ele>114.2</ele><time>2026-04-11T09:44:40.001Z</time></trkpt><trkpt lat="45.11337529802097" lon="8.464302886259183"><ele>114.4</ele><time>2026-04-11T09:44:41.001Z</time></trkpt><trkpt lat="45.11342474306453" lon="8.464424953222354"><ele>114.6</ele><time>2026-04-11T09:44:42.001Z</time></trkpt><trkpt lat="45.113481525721596" lon="8.464541786039753"><ele>114.8</ele><time>2026-04-11T09:44:43.001Z</time></trkpt><trkpt lat="45.11354645850538" lon="8.464654690528693"><ele>115.0</ele><time>2026-04-11T09:44:44.001Z</time></trkpt><trkpt lat="45.11361384572853" lon="8.464766648393597"><ele>114.6</ele><time>2026-04-11T09:44:45.001Z</time></trkpt><trkpt lat="45.113686873365786" lon="8.464865142962962"><ele>114.2</ele><time>2026-04-11T09:44:46.001Z</time></trkpt><trkpt lat="45.113763926766325" lon="8.464946991449391"><ele>113.80000000000001</ele><time>2026-04-11T09:44:47.001Z</time></trkpt><trkpt lat="45.113851127678245" lon="8.465005605526052"><ele>113.4</ele><time>2026-04-11T09:44:48.001Z</time></trkpt><trkpt lat="45.1139485697514" lon="8.465045683324153"><ele>113.0</ele><time>2026-04-11T09:44:49.001Z</time></trkpt><trkpt lat="45.1140557612718" lon="8.46508127664089"><ele>113.25</ele><time>2026-04-11T09:44:50.001Z</time></trkpt><trkpt lat="45.11417344536494" lon="8.46512569159693"><ele>113.5</ele><time>2026-04-11T09:44:51.001Z</time></trkpt><trkpt lat="45.114287262559124" lon="8.465204246942113"><ele>113.75</ele><time>2026-04-11T09:44:52.001Z</time></trkpt><trkpt lat="45.11439267110003" lon="8.465288321322845"><ele>114.0</ele><time>2026-04-11T09:44:53.001Z</time></trkpt><trkpt lat="45.11448763133727" lon="8.465376498393994"><ele>113.80000000000001</ele><time>2026-04-11T09:44:54.001Z</time></trkpt><trkpt lat="45.11457255199782" lon="8.465474175496706"><ele>113.60000000000001</ele><time>2026-04-11T09:44:55.001Z</time></trkpt><trkpt lat="45.11465275945008" lon="8.465583974838436"><ele>113.4</ele><time>2026-04-11T09:44:56.001Z</time></trkpt><trkpt lat="45.11472798977922" lon="8.465706700635195"><ele>113.2</ele><time>2026-04-11T09:44:57.001Z</time></trkpt><trkpt lat="45.114793628876036" lon="8.465829884941025"><ele>113.0</ele><time>2026-04-11T09:44:58.001Z</time></trkpt><trkpt lat="45.11487195502273" lon="8.46594937038656"><ele>113.0</ele><time>2026-04-11T09:44:59.001Z</time></trkpt><trkpt lat="45.11495142961262" lon="8.46605966658579"><ele>113.00000000000001</ele><time>2026-04-11T09:45:00.001Z</time></trkpt><trkpt lat="45.11503113088886" lon="8.466176763849877"><ele>113.00000000000001</ele><time>2026-04-11T09:45:01.001Z</time></trkpt><trkpt lat="45.115120162007926" lon="8.466281488197534"><ele>113.0</ele><time>2026-04-11T09:45:02.001Z</time></trkpt><trkpt lat="45.11519676118539" lon="8.466382068907109"><ele>113.0</ele><time>2026-04-11T09:45:03.001Z</time></trkpt><trkpt lat="45.115253257936935" lon="8.466484407321223"><ele>113.0</ele><time>2026-04-11T09:45:04.001Z</time></trkpt><trkpt lat="45.11531418623204" lon="8.466570184670566"><ele>113.00000000000001</ele><time>2026-04-11T09:45:05.001Z</time></trkpt><trkpt lat="45.11535844511343" lon="8.466638143857352"><ele>113.00000000000001</ele><time>2026-04-11T09:45:06.001Z</time></trkpt><trkpt lat="45.11541244883473" lon="8.466701994029892"><ele>113.0</ele><time>2026-04-11T09:45:09.002Z</time></trkpt><trkpt lat="45.1153006189687" lon="8.466832096518727"><ele>113.0</ele><time>2026-04-11T09:45:17.998Z</time></trkpt><trkpt lat="45.115217592692204" lon="8.46687466279136"><ele>113.0</ele><time>2026-04-11T09:45:18.998Z</time></trkpt><trkpt lat="45.115144956039394" lon="8.466919335224498"><ele>113.00000000000001</ele><time>2026-04-11T09:45:19.998Z</time></trkpt><trkpt lat="45.1150539480418" lon="8.466986199093201"><ele>113.00000000000001</ele><time>2026-04-11T09:45:20.998Z</time></trkpt><trkpt lat="45.114951232492466" lon="8.467054449461974"><ele>113.0</ele><time>2026-04-11T09:45:21.998Z</time></trkpt><trkpt lat="45.114855296406446" lon="8.46712493471955"><ele>113.0</ele><time>2026-04-11T09:45:22.998Z</time></trkpt><trkpt lat="45.114754683538514" lon="8.467197167639286"><ele>112.75</ele><time>2026-04-11T09:45:23.998Z</time></trkpt><trkpt lat="45.11464798590587" lon="8.467275058966173"><ele>112.5</ele><time>2026-04-11T09:45:24.998Z</time></trkpt><trkpt lat="45.1145385116294" lon="8.46735428159245"><ele>112.25</ele><time>2026-04-11T09:45:25.998Z</time></trkpt><trkpt lat="45.11442605263589" lon="8.467433448352509"><ele>112.0</ele><time>2026-04-11T09:45:26.998Z</time></trkpt><trkpt lat="45.11430820084386" lon="8.467516975502267"><ele>112.0</ele><time>2026-04-11T09:45:27.999Z</time></trkpt><trkpt lat="45.11418438659781" lon="8.467601941333195"><ele>112.0</ele><time>2026-04-11T09:45:28.999Z</time></trkpt><trkpt lat="45.114060683706846" lon="8.46768824998718"><ele>112.0</ele><time>2026-04-11T09:45:29.999Z</time></trkpt><trkpt lat="45.11394695409401" lon="8.467773345275406"><ele>112.0</ele><time>2026-04-11T09:45:30.999Z</time></trkpt><trkpt lat="45.11384115047521" lon="8.467851859501549"><ele>111.5</ele><time>2026-04-11T09:45:31.999Z</time></trkpt><trkpt lat="45.11372642282049" lon="8.467943665622725"><ele>111.0</ele><time>2026-04-11T09:45:32.999Z</time></trkpt><trkpt lat="45.113602232586565" lon="8.46803669699129"><ele>110.5</ele><time>2026-04-11T09:45:33.999Z</time></trkpt><trkpt lat="45.113468470339456" lon="8.468136769550696"><ele>110.0</ele><time>2026-04-11T09:45:34.999Z</time></trkpt><trkpt lat="45.11332297593809" lon="8.468243304181168"><ele>111.0</ele><time>2026-04-11T09:45:35.999Z</time></trkpt><trkpt lat="45.11317191394021" lon="8.468356443850087"><ele>112.0</ele><time>2026-04-11T09:45:36.999Z</time></trkpt><trkpt lat="45.113018759088064" lon="8.46847007615803"><ele>113.0</ele><time>2026-04-11T09:45:37.999Z</time></trkpt><trkpt lat="45.11287546165142" lon="8.46857690877886"><ele>113.0</ele><time>2026-04-11T09:45:38.999Z</time></trkpt><trkpt lat="45.11273694864621" lon="8.468681886133972"><ele>113.0</ele><time>2026-04-11T09:45:39.999Z</time></trkpt><trkpt lat="45.11259290329947" lon="8.468788575622039"><ele>113.0</ele><time>2026-04-11T09:45:40.999Z</time></trkpt><trkpt lat="45.112451076921985" lon="8.468893341213656"><ele>112.75</ele><time>2026-04-11T09:45:41.999Z</time></trkpt><trkpt lat="45.11231602336044" lon="8.468994471679363"><ele>112.5</ele><time>2026-04-11T09:45:42.999Z</time></trkpt><trkpt lat="45.11218198935708" lon="8.469095831628094"><ele>112.25</ele><time>2026-04-11T09:45:44Z</time></trkpt><trkpt lat="45.11206009303415" lon="8.469194455147433"><ele>112.0</ele><time>2026-04-11T09:45:45Z</time></trkpt><trkpt lat="45.11194620900927" lon="8.469288081738997"><ele>112.0</ele><time>2026-04-11T09:45:46Z</time></trkpt><trkpt lat="45.11183937844046" lon="8.469377925831331"><ele>111.99999999999999</ele><time>2026-04-11T09:45:47Z</time></trkpt><trkpt lat="45.11174369766398" lon="8.469466309118458"><ele>111.99999999999999</ele><time>2026-04-11T09:45:48Z</time></trkpt><trkpt lat="45.11166135924286" lon="8.469550430681767"><ele>112.0</ele><time>2026-04-11T09:45:49Z</time></trkpt><trkpt lat="45.111595943620266" lon="8.46962543557341"><ele>112.0</ele><time>2026-04-11T09:45:50Z</time></trkpt><trkpt lat="45.111537642148505" lon="8.469691567183197"><ele>111.8</ele><time>2026-04-11T09:45:51Z</time></trkpt><trkpt lat="45.11147219543149" lon="8.469746755231993"><ele>111.6</ele><time>2026-04-11T09:45:52Z</time></trkpt><trkpt lat="45.111387253609635" lon="8.469794816279006"><ele>111.39999999999999</ele><time>2026-04-11T09:45:53Z</time></trkpt><trkpt lat="45.11127666788579" lon="8.46984017544555"><ele>111.19999999999999</ele><time>2026-04-11T09:45:54Z</time></trkpt><trkpt lat="45.11115799754479" lon="8.469878947539685"><ele>111.0</ele><time>2026-04-11T09:45:55Z</time></trkpt><trkpt lat="45.111041685700144" lon="8.469913894987137"><ele>111.0</ele><time>2026-04-11T09:45:56Z</time></trkpt><trkpt lat="45.11092017894691" lon="8.469966992231683"><ele>111.0</ele><time>2026-04-11T09:45:57Z</time></trkpt><trkpt lat="45.11079703707086" lon="8.470019998547722"><ele>111.0</ele><time>2026-04-11T09:45:58Z</time></trkpt><trkpt lat="45.110668535614856" lon="8.470062694416056"><ele>111.0</ele><time>2026-04-11T09:45:59Z</time></trkpt><trkpt lat="45.110537823470644" lon="8.470099672746867"><ele>111.0</ele><time>2026-04-11T09:46:00Z</time></trkpt><trkpt lat="45.110407910109394" lon="8.47013566769843"><ele>111.0</ele><time>2026-04-11T09:46:01Z</time></trkpt><trkpt lat="45.11028007749351" lon="8.470173117385324"><ele>111.0</ele><time>2026-04-11T09:46:02Z</time></trkpt><trkpt lat="45.110147188645655" lon="8.470211846924542"><ele>111.0</ele><time>2026-04-11T09:46:03Z</time></trkpt><trkpt lat="45.1100078396505" lon="8.470258303264096"><ele>111.0</ele><time>2026-04-11T09:46:04Z</time></trkpt><trkpt lat="45.10986241654017" lon="8.470303836338442"><ele>111.0</ele><time>2026-04-11T09:46:05Z</time></trkpt><trkpt lat="45.109720783231936" lon="8.470347805104566"><ele>111.0</ele><time>2026-04-11T09:46:06Z</time></trkpt><trkpt lat="45.10957478322568" lon="8.470392915888866"><ele>111.0</ele><time>2026-04-11T09:46:07Z</time></trkpt><trkpt lat="45.109426531236885" lon="8.470437913117516"><ele>111.0</ele><time>2026-04-11T09:46:08Z</time></trkpt><trkpt lat="45.10927799199659" lon="8.470484117426842"><ele>111.0</ele><time>2026-04-11T09:46:09.001Z</time></trkpt><trkpt lat="45.10912405959454" lon="8.47052687399814"><ele>111.0</ele><time>2026-04-11T09:46:10.001Z</time></trkpt><trkpt lat="45.10898908404651" lon="8.47056922133275"><ele>111.0</ele><time>2026-04-11T09:46:11.001Z</time></trkpt><trkpt lat="45.10885865467015" lon="8.470610212217652"><ele>111.0</ele><time>2026-04-11T09:46:12.001Z</time></trkpt><trkpt lat="45.10872592522471" lon="8.470649853122792"><ele>111.0</ele><time>2026-04-11T09:46:13.001Z</time></trkpt><trkpt lat="45.108595609533" lon="8.470690097278508"><ele>111.0</ele><time>2026-04-11T09:46:14.001Z</time></trkpt><trkpt lat="45.108456607744046" lon="8.470730794191924"><ele>111.0</ele><time>2026-04-11T09:46:15.001Z</time></trkpt><trkpt lat="45.108318617087455" lon="8.470773738227866"><ele>111.0</ele><time>2026-04-11T09:46:16.001Z</time></trkpt><trkpt lat="45.108174756707754" lon="8.470817163050192"><ele>111.0</ele><time>2026-04-11T09:46:17.001Z</time></trkpt><trkpt lat="45.108032006398105" lon="8.470860521580127"><ele>111.0</ele><time>2026-04-11T09:46:18.001Z</time></trkpt><trkpt lat="45.10790581153911" lon="8.470902037742182"><ele>111.0</ele><time>2026-04-11T09:46:19.001Z</time></trkpt><trkpt lat="45.10779589275392" lon="8.470929426490839"><ele>111.0</ele><time>2026-04-11T09:46:20.001Z</time></trkpt><trkpt lat="45.10769012344335" lon="8.470973273632978"><ele>111.0</ele><time>2026-04-11T09:46:21.001Z</time></trkpt><trkpt lat="45.10757187826892" lon="8.471001600328764"><ele>111.0</ele><time>2026-04-11T09:46:22.001Z</time></trkpt><trkpt lat="45.1074514369428" lon="8.471040625365385"><ele>111.0</ele><time>2026-04-11T09:46:23.001Z</time></trkpt><trkpt lat="45.107322894578665" lon="8.471063082059677"><ele>111.0</ele><time>2026-04-11T09:46:24.001Z</time></trkpt><trkpt lat="45.10720090712374" lon="8.471118366700836"><ele>111.0</ele><time>2026-04-11T09:46:25.001Z</time></trkpt><trkpt lat="45.10707312284231" lon="8.471157318882515"><ele>111.0</ele><time>2026-04-11T09:46:26.001Z</time></trkpt><trkpt lat="45.10693560812077" lon="8.47119959982682"><ele>111.0</ele><time>2026-04-11T09:46:27.001Z</time></trkpt><trkpt lat="45.10680215431171" lon="8.471235348855522"><ele>111.0</ele><time>2026-04-11T09:46:28.001Z</time></trkpt><trkpt lat="45.10666605172031" lon="8.471268754000556"><ele>111.0</ele><time>2026-04-11T09:46:29.001Z</time></trkpt><trkpt lat="45.106520085525304" lon="8.471303640081956"><ele>111.0</ele><time>2026-04-11T09:46:30.001Z</time></trkpt><trkpt lat="45.10637982750624" lon="8.47133111405175"><ele>111.0</ele><time>2026-04-11T09:46:31.001Z</time></trkpt><trkpt lat="45.10622910484847" lon="8.471363593839841"><ele>110.66666666666666</ele><time>2026-04-11T09:46:32.001Z</time></trkpt><trkpt lat="45.10608087213427" lon="8.47139492769508"><ele>110.33333333333333</ele><time>2026-04-11T09:46:33.001Z</time></trkpt><trkpt lat="45.105931086911866" lon="8.471428692793511"><ele>110.0</ele><time>2026-04-11T09:46:34.001Z</time></trkpt><trkpt lat="45.10578438231992" lon="8.4714580762808"><ele>109.75</ele><time>2026-04-11T09:46:35.001Z</time></trkpt><trkpt lat="45.10563889634918" lon="8.47148773156615"><ele>109.5</ele><time>2026-04-11T09:46:36.001Z</time></trkpt><trkpt lat="45.10549294616126" lon="8.471517379050843"><ele>109.25</ele><time>2026-04-11T09:46:37.001Z</time></trkpt><trkpt lat="45.10535362613704" lon="8.471543188847793"><ele>109.0</ele><time>2026-04-11T09:46:38.001Z</time></trkpt><trkpt lat="45.10521151911246" lon="8.471574062536005"><ele>109.0</ele><time>2026-04-11T09:46:39.001Z</time></trkpt><trkpt lat="45.105082421026204" lon="8.471598333205762"><ele>109.0</ele><time>2026-04-11T09:46:40.002Z</time></trkpt><trkpt lat="45.104958597489805" lon="8.471626775357903"><ele>109.0</ele><time>2026-04-11T09:46:41.002Z</time></trkpt><trkpt lat="45.10482493009052" lon="8.47166134764705"><ele>109.0</ele><time>2026-04-11T09:46:42.002Z</time></trkpt><trkpt lat="45.10468638552727" lon="8.4716866880316"><ele>108.75</ele><time>2026-04-11T09:46:43.002Z</time></trkpt><trkpt lat="45.10455109419328" lon="8.471717930736435"><ele>108.5</ele><time>2026-04-11T09:46:44.002Z</time></trkpt><trkpt lat="45.10442032157346" lon="8.471747693608988"><ele>108.25</ele><time>2026-04-11T09:46:45.002Z</time></trkpt><trkpt lat="45.10429463204693" lon="8.471771027717448"><ele>108.0</ele><time>2026-04-11T09:46:46.002Z</time></trkpt><trkpt lat="45.10416736424632" lon="8.471798179203857"><ele>108.0</ele><time>2026-04-11T09:46:47.002Z</time></trkpt><trkpt lat="45.10403631348254" lon="8.471807426207794"><ele>108.0</ele><time>2026-04-11T09:46:48.002Z</time></trkpt><trkpt lat="45.10390343764743" lon="8.47185145164009"><ele>108.0</ele><time>2026-04-11T09:46:49.002Z</time></trkpt><trkpt lat="45.10376637138168" lon="8.471880730846308"><ele>108.0</ele><time>2026-04-11T09:46:50.002Z</time></trkpt><trkpt lat="45.10362349113619" lon="8.471913906155516"><ele>108.0</ele><time>2026-04-11T09:46:51.002Z</time></trkpt><trkpt lat="45.10347840690321" lon="8.471945311374869"><ele>108.0</ele><time>2026-04-11T09:46:52.002Z</time></trkpt><trkpt lat="45.1033299583958" lon="8.471977998199945"><ele>108.0</ele><time>2026-04-11T09:46:53.002Z</time></trkpt><trkpt lat="45.10318483868205" lon="8.472009669982564"><ele>108.0</ele><time>2026-04-11T09:46:54.002Z</time></trkpt><trkpt lat="45.10303878174851" lon="8.472039986500299"><ele>108.0</ele><time>2026-04-11T09:46:55.002Z</time></trkpt><trkpt lat="45.10288867889456" lon="8.472064328790674"><ele>108.0</ele><time>2026-04-11T09:46:56.002Z</time></trkpt><trkpt lat="45.102735981363324" lon="8.472095540372326"><ele>108.0</ele><time>2026-04-11T09:46:57.002Z</time></trkpt><trkpt lat="45.10258205349142" lon="8.472126565757605"><ele>108.0</ele><time>2026-04-11T09:46:58.002Z</time></trkpt><trkpt lat="45.10242909543712" lon="8.472161306779109"><ele>108.0</ele><time>2026-04-11T09:46:59.002Z</time></trkpt><trkpt lat="45.10228874877922" lon="8.472186175343385"><ele>108.0</ele><time>2026-04-11T09:47:00.002Z</time></trkpt><trkpt lat="45.1021648078522" lon="8.47220717152044"><ele>108.0</ele><time>2026-04-11T09:47:01.002Z</time></trkpt><trkpt lat="45.102042788251744" lon="8.472228649811106"><ele>108.25</ele><time>2026-04-11T09:47:02.002Z</time></trkpt><trkpt lat="45.10190821174021" lon="8.472241497369307"><ele>108.5</ele><time>2026-04-11T09:47:03.002Z</time></trkpt><trkpt lat="45.101762852967035" lon="8.472257595090522"><ele>108.75</ele><time>2026-04-11T09:47:04.002Z</time></trkpt><trkpt lat="45.10162559662767" lon="8.472273460522581"><ele>109.0</ele><time>2026-04-11T09:47:05.002Z</time></trkpt><trkpt lat="45.101501970052105" lon="8.472288479408576"><ele>109.0</ele><time>2026-04-11T09:47:06.002Z</time></trkpt><trkpt lat="45.101375355956996" lon="8.472307663921114"><ele>109.0</ele><time>2026-04-11T09:47:07.002Z</time></trkpt><trkpt lat="45.10125249261385" lon="8.472322183286616"><ele>109.0</ele><time>2026-04-11T09:47:08.002Z</time></trkpt><trkpt lat="45.101142866261405" lon="8.47233665701196"><ele>109.0</ele><time>2026-04-11T09:47:09.002Z</time></trkpt><trkpt lat="45.10104077334641" lon="8.472346248661788"><ele>109.0</ele><time>2026-04-11T09:47:10.002Z</time></trkpt><trkpt lat="45.10094067240105" lon="8.472341240041464"><ele>109.0</ele><time>2026-04-11T09:47:11.002Z</time></trkpt><trkpt lat="45.10083889754226" lon="8.472371849973584"><ele>109.0</ele><time>2026-04-11T09:47:12.002Z</time></trkpt><trkpt lat="45.10073233262421" lon="8.472385340851108"><ele>109.0</ele><time>2026-04-11T09:47:13.002Z</time></trkpt><trkpt lat="45.100626087369264" lon="8.472399973553562"><ele>109.0</ele><time>2026-04-11T09:47:14.003Z</time></trkpt><trkpt lat="45.100514139263346" lon="8.472389872434505"><ele>108.75</ele><time>2026-04-11T09:47:15.003Z</time></trkpt><trkpt lat="45.10040899803871" lon="8.472417358387043"><ele>108.5</ele><time>2026-04-11T09:47:15.999Z</time></trkpt><trkpt lat="45.10029170809199" lon="8.472439000595944"><ele>108.25</ele><time>2026-04-11T09:47:16.999Z</time></trkpt><trkpt lat="45.100143559998045" lon="8.472456899879855"><ele>108.0</ele><time>2026-04-11T09:47:18Z</time></trkpt><trkpt lat="45.099969826814956" lon="8.472474955400056"><ele>107.66666666666666</ele><time>2026-04-11T09:47:19Z</time></trkpt><trkpt lat="45.099785025080365" lon="8.472501424095702"><ele>107.33333333333333</ele><time>2026-04-11T09:47:20Z</time></trkpt><trkpt lat="45.09960679679255" lon="8.472523314926356"><ele>107.0</ele><time>2026-04-11T09:47:21Z</time></trkpt><trkpt lat="45.099430911618825" lon="8.472545996596542"><ele>107.0</ele><time>2026-04-11T09:47:22Z</time></trkpt><trkpt lat="45.09926138080707" lon="8.472564315928445"><ele>107.0</ele><time>2026-04-11T09:47:23Z</time></trkpt><trkpt lat="45.09910275469849" lon="8.472579573391519"><ele>107.0</ele><time>2026-04-11T09:47:24Z</time></trkpt><trkpt lat="45.09893610818964" lon="8.47259957181305"><ele>107.0</ele><time>2026-04-11T09:47:25Z</time></trkpt><trkpt lat="45.098776303693015" lon="8.472619028181503"><ele>107.0</ele><time>2026-04-11T09:47:26Z</time></trkpt><trkpt lat="45.09862175321569" lon="8.472645779473304"><ele>107.0</ele><time>2026-04-11T09:47:27Z</time></trkpt><trkpt lat="45.09848273409507" lon="8.472653708893008"><ele>107.0</ele><time>2026-04-11T09:47:28Z</time></trkpt><trkpt lat="45.09835400875902" lon="8.472723671721344"><ele>107.0</ele><time>2026-04-11T09:47:29Z</time></trkpt><trkpt lat="45.09823264536317" lon="8.472780445734742"><ele>107.0</ele><time>2026-04-11T09:47:30Z</time></trkpt><trkpt lat="45.098107283214766" lon="8.472845585368084"><ele>107.0</ele><time>2026-04-11T09:47:31Z</time></trkpt><trkpt lat="45.09798022943429" lon="8.472955153859672"><ele>107.33333333333333</ele><time>2026-04-11T09:47:32Z</time></trkpt><trkpt lat="45.097836025449226" lon="8.473059476990041"><ele>107.66666666666666</ele><time>2026-04-11T09:47:33Z</time></trkpt><trkpt lat="45.09766190694581" lon="8.473156110552326"><ele>108.0</ele><time>2026-04-11T09:47:34Z</time></trkpt><trkpt lat="45.09750640629749" lon="8.4732631306068"><ele>107.66666666666666</ele><time>2026-04-11T09:47:35Z</time></trkpt><trkpt lat="45.09734932324561" lon="8.47337123973217"><ele>107.33333333333333</ele><time>2026-04-11T09:47:36Z</time></trkpt><trkpt lat="45.09721345091046" lon="8.473464639835678"><ele>107.0</ele><time>2026-04-11T09:47:37Z</time></trkpt><trkpt lat="45.09709025193456" lon="8.473545609754531"><ele>107.0</ele><time>2026-04-11T09:47:38Z</time></trkpt><trkpt lat="45.096980631256436" lon="8.47360570841312"><ele>107.0</ele><time>2026-04-11T09:47:39Z</time></trkpt><trkpt lat="45.09686135909279" lon="8.47364548634136"><ele>107.0</ele><time>2026-04-11T09:47:40Z</time></trkpt><trkpt lat="45.096736005179004" lon="8.473647796711045"><ele>107.0</ele><time>2026-04-11T09:47:41Z</time></trkpt><trkpt lat="45.096603165438836" lon="8.473635819287551"><ele>107.0</ele><time>2026-04-11T09:47:42Z</time></trkpt><trkpt lat="45.096460662476495" lon="8.473618435295196"><ele>107.0</ele><time>2026-04-11T09:47:43Z</time></trkpt><trkpt lat="45.09629534914323" lon="8.47359535584011"><ele>107.0</ele><time>2026-04-11T09:47:44Z</time></trkpt><trkpt lat="45.09610534526912" lon="8.473568829317275"><ele>107.0</ele><time>2026-04-11T09:47:45Z</time></trkpt><trkpt lat="45.09592017919521" lon="8.47356518478164"><ele>107.0</ele><time>2026-04-11T09:47:46.001Z</time></trkpt><trkpt lat="45.095738380915954" lon="8.4735385014588"><ele>107.0</ele><time>2026-04-11T09:47:47.001Z</time></trkpt><trkpt lat="45.095578363170006" lon="8.473517556147087"><ele>107.25</ele><time>2026-04-11T09:47:48.001Z</time></trkpt><trkpt lat="45.09543867175206" lon="8.473495579359342"><ele>107.5</ele><time>2026-04-11T09:47:49.001Z</time></trkpt><trkpt lat="45.09530698877951" lon="8.47347734389163"><ele>107.75</ele><time>2026-04-11T09:47:50.001Z</time></trkpt><trkpt lat="45.09518720217709" lon="8.47343622497613"><ele>108.0</ele><time>2026-04-11T09:47:51.001Z</time></trkpt><trkpt lat="45.095076257344445" lon="8.473443077019862"><ele>108.0</ele><time>2026-04-11T09:47:52.001Z</time></trkpt><trkpt lat="45.09495003765709" lon="8.473422632517499"><ele>108.0</ele><time>2026-04-11T09:47:53.001Z</time></trkpt><trkpt lat="45.09480323615286" lon="8.47339968207583"><ele>108.0</ele><time>2026-04-11T09:47:54.001Z</time></trkpt><trkpt lat="45.09464850212543" lon="8.473381789560117"><ele>108.0</ele><time>2026-04-11T09:47:55.001Z</time></trkpt><trkpt lat="45.09449242293721" lon="8.473363722208756"><ele>108.0</ele><time>2026-04-11T09:47:56.001Z</time></trkpt><trkpt lat="45.0943466103447" lon="8.473346151827476"><ele>108.0</ele><time>2026-04-11T09:47:57.001Z</time></trkpt><trkpt lat="45.094194292921806" lon="8.473319669381013"><ele>108.0</ele><time>2026-04-11T09:47:58.001Z</time></trkpt><trkpt lat="45.0940351294423" lon="8.47329654460652"><ele>108.0</ele><time>2026-04-11T09:47:59.001Z</time></trkpt><trkpt lat="45.09386918954163" lon="8.47327236491466"><ele>108.0</ele><time>2026-04-11T09:48:00.001Z</time></trkpt><trkpt lat="45.09369124506195" lon="8.47324486263308"><ele>108.0</ele><time>2026-04-11T09:48:01.001Z</time></trkpt><trkpt lat="45.0934988816483" lon="8.47321503878398"><ele>108.0</ele><time>2026-04-11T09:48:02.001Z</time></trkpt><trkpt lat="45.09330935045963" lon="8.473193685386418"><ele>108.0</ele><time>2026-04-11T09:48:03.001Z</time></trkpt><trkpt lat="45.09312445535529" lon="8.473170220759682"><ele>108.0</ele><time>2026-04-11T09:48:04.001Z</time></trkpt><trkpt lat="45.09295317104461" lon="8.473145391185168"><ele>107.0</ele><time>2026-04-11T09:48:05.001Z</time></trkpt><trkpt lat="45.092785172242905" lon="8.473117724133406"><ele>106.0</ele><time>2026-04-11T09:48:06.001Z</time></trkpt><trkpt lat="45.09261200133875" lon="8.473091568653455"><ele>105.0</ele><time>2026-04-11T09:48:07.001Z</time></trkpt><trkpt lat="45.092445058273384" lon="8.473068188170183"><ele>106.0</ele><time>2026-04-11T09:48:08.001Z</time></trkpt><trkpt lat="45.0922681258639" lon="8.473045222958763"><ele>107.0</ele><time>2026-04-11T09:48:09.001Z</time></trkpt><trkpt lat="45.09208339944091" lon="8.473021639588724"><ele>108.0</ele><time>2026-04-11T09:48:10.001Z</time></trkpt><trkpt lat="45.0918978745505" lon="8.472995488418839"><ele>108.0</ele><time>2026-04-11T09:48:11.001Z</time></trkpt><trkpt lat="45.09171887976847" lon="8.472974592224803"><ele>108.0</ele><time>2026-04-11T09:48:12.001Z</time></trkpt><trkpt lat="45.09154774851902" lon="8.472949546616345"><ele>108.0</ele><time>2026-04-11T09:48:13.001Z</time></trkpt><trkpt lat="45.091397814832106" lon="8.472926563744625"><ele>107.75</ele><time>2026-04-11T09:48:14.001Z</time></trkpt><trkpt lat="45.09125714507738" lon="8.47290243682144"><ele>107.5</ele><time>2026-04-11T09:48:15.001Z</time></trkpt><trkpt lat="45.091132394231494" lon="8.4728881864262"><ele>107.25</ele><time>2026-04-11T09:48:16.001Z</time></trkpt><trkpt lat="45.09101428457194" lon="8.47287572055301"><ele>107.0</ele><time>2026-04-11T09:48:17.001Z</time></trkpt><trkpt lat="45.09089899790207" lon="8.472873409817714"><ele>107.0</ele><time>2026-04-11T09:48:18.002Z</time></trkpt><trkpt lat="45.09077059193742" lon="8.47284114490087"><ele>107.0</ele><time>2026-04-11T09:48:19.002Z</time></trkpt><trkpt lat="45.09062258909025" lon="8.472833980652627"><ele>107.0</ele><time>2026-04-11T09:48:20.002Z</time></trkpt><trkpt lat="45.09045944657706" lon="8.472815323830666"><ele>107.0</ele><time>2026-04-11T09:48:21.002Z</time></trkpt><trkpt lat="45.09028815167608" lon="8.472796363137762"><ele>107.0</ele><time>2026-04-11T09:48:22.002Z</time></trkpt><trkpt lat="45.09011390822669" lon="8.472749651170131"><ele>107.0</ele><time>2026-04-11T09:48:23.002Z</time></trkpt><trkpt lat="45.08993964861399" lon="8.472724171563227"><ele>107.0</ele><time>2026-04-11T09:48:24.002Z</time></trkpt><trkpt lat="45.08974832906482" lon="8.472716848352825"><ele>107.33333333333333</ele><time>2026-04-11T09:48:25.002Z</time></trkpt><trkpt lat="45.089560582566605" lon="8.472693053365985"><ele>107.66666666666666</ele><time>2026-04-11T09:48:26.002Z</time></trkpt><trkpt lat="45.08937098723522" lon="8.472645101149029"><ele>108.0</ele><time>2026-04-11T09:48:27.002Z</time></trkpt><trkpt lat="45.089200373824504" lon="8.4726215927224"><ele>108.66666666666666</ele><time>2026-04-11T09:48:28.002Z</time></trkpt><trkpt lat="45.08903977445331" lon="8.47259946413572"><ele>109.33333333333333</ele><time>2026-04-11T09:48:29.002Z</time></trkpt><trkpt lat="45.088886532364434" lon="8.47257813910793"><ele>110.0</ele><time>2026-04-11T09:48:30.002Z</time></trkpt><trkpt lat="45.08874922499974" lon="8.472559028383209"><ele>110.0</ele><time>2026-04-11T09:48:31.002Z</time></trkpt><trkpt lat="45.08862896851156" lon="8.47256236706498"><ele>110.0</ele><time>2026-04-11T09:48:32.002Z</time></trkpt><trkpt lat="45.08852264970281" lon="8.472545579575307"><ele>110.0</ele><time>2026-04-11T09:48:33.002Z</time></trkpt><trkpt lat="45.08843493138109" lon="8.472533813125771"><ele>110.0</ele><time>2026-04-11T09:48:34.002Z</time></trkpt><trkpt lat="45.08836111709636" lon="8.472536607122457"><ele>110.0</ele><time>2026-04-11T09:48:35.002Z</time></trkpt><trkpt lat="45.0882934902809" lon="8.47255978979567"><ele>109.99999999999999</ele><time>2026-04-11T09:48:36.002Z</time></trkpt><trkpt lat="45.08823191669674" lon="8.472610435602856"><ele>110.0</ele><time>2026-04-11T09:48:37.002Z</time></trkpt><trkpt lat="45.088179604855" lon="8.472676633234338"><ele>110.0</ele><time>2026-04-11T09:48:38.002Z</time></trkpt><trkpt lat="45.08812679909889" lon="8.472742536628687"><ele>110.0</ele><time>2026-04-11T09:48:39.002Z</time></trkpt><trkpt lat="45.08810814716137" lon="8.472854270361447"><ele>109.99999999999999</ele><time>2026-04-11T09:48:40.002Z</time></trkpt><trkpt lat="45.0880518269939" lon="8.47295149717794"><ele>110.0</ele><time>2026-04-11T09:48:41.002Z</time></trkpt><trkpt lat="45.08798314403632" lon="8.473100314286782"><ele>109.66666666666666</ele><time>2026-04-11T09:48:42.002Z</time></trkpt><trkpt lat="45.08790160845064" lon="8.473273111664835"><ele>109.33333333333334</ele><time>2026-04-11T09:48:43.002Z</time></trkpt><trkpt lat="45.08782056063974" lon="8.473478180242966"><ele>109.0</ele><time>2026-04-11T09:48:44.002Z</time></trkpt><trkpt lat="45.087726315126375" lon="8.473676417261574"><ele>109.0</ele><time>2026-04-11T09:48:45.002Z</time></trkpt><trkpt lat="45.08763465265625" lon="8.473872047021109"><ele>109.0</ele><time>2026-04-11T09:48:46.002Z</time></trkpt><trkpt lat="45.08753488210146" lon="8.474078665099732"><ele>109.0</ele><time>2026-04-11T09:48:47.002Z</time></trkpt><trkpt lat="45.08744786393329" lon="8.474263120135712"><ele>109.0</ele><time>2026-04-11T09:48:48.002Z</time></trkpt><trkpt lat="45.08736564404487" lon="8.47443083128775"><ele>109.0</ele><time>2026-04-11T09:48:49.002Z</time></trkpt><trkpt lat="45.087293757440115" lon="8.474578675131733"><ele>109.0</ele><time>2026-04-11T09:48:50.002Z</time></trkpt><trkpt lat="45.08722569868548" lon="8.474718663186838"><ele>109.0</ele><time>2026-04-11T09:48:51.002Z</time></trkpt><trkpt lat="45.087159270067154" lon="8.474844561097642"><ele>109.0</ele><time>2026-04-11T09:48:52.003Z</time></trkpt><trkpt lat="45.0870864402048" lon="8.474974558066641"><ele>109.0</ele><time>2026-04-11T09:48:53.003Z</time></trkpt><trkpt lat="45.08701674094862" lon="8.475121713450875"><ele>109.0</ele><time>2026-04-11T09:48:54.003Z</time></trkpt><trkpt lat="45.08694130280629" lon="8.475285680407763"><ele>109.0</ele><time>2026-04-11T09:48:55.003Z</time></trkpt><trkpt lat="45.08685669075684" lon="8.47546655550594"><ele>109.0</ele><time>2026-04-11T09:48:56.003Z</time></trkpt><trkpt lat="45.086770354322546" lon="8.475648499918718"><ele>109.0</ele><time>2026-04-11T09:48:57.003Z</time></trkpt><trkpt lat="45.086681038419854" lon="8.475834521417706"><ele>109.0</ele><time>2026-04-11T09:48:58.003Z</time></trkpt><trkpt lat="45.086595574239105" lon="8.476015875199145"><ele>109.0</ele><time>2026-04-11T09:48:59.003Z</time></trkpt><trkpt lat="45.086515389062484" lon="8.476181374843053"><ele>109.0</ele><time>2026-04-11T09:49:00.003Z</time></trkpt><trkpt lat="45.08642963177322" lon="8.476365914436556"><ele>109.0</ele><time>2026-04-11T09:49:01.003Z</time></trkpt><trkpt lat="45.08635626871982" lon="8.476524169403058"><ele>109.0</ele><time>2026-04-11T09:49:02.003Z</time></trkpt><trkpt lat="45.08628374613598" lon="8.476683849479636"><ele>109.0</ele><time>2026-04-11T09:49:03.003Z</time></trkpt><trkpt lat="45.086204106459974" lon="8.476845757358525"><ele>109.0</ele><time>2026-04-11T09:49:04.003Z</time></trkpt><trkpt lat="45.0861252339119" lon="8.477003552253546"><ele>109.0</ele><time>2026-04-11T09:49:05.003Z</time></trkpt><trkpt lat="45.08605601693149" lon="8.477149947347504"><ele>109.0</ele><time>2026-04-11T09:49:06.003Z</time></trkpt><trkpt lat="45.085993752083645" lon="8.477287834653012"><ele>109.0</ele><time>2026-04-11T09:49:07.003Z</time></trkpt><trkpt lat="45.085931308225106" lon="8.477416375014993"><ele>109.0</ele><time>2026-04-11T09:49:08.003Z</time></trkpt><trkpt lat="45.085873595841925" lon="8.477538364589275"><ele>109.0</ele><time>2026-04-11T09:49:09.003Z</time></trkpt><trkpt lat="45.08582544467838" lon="8.477640572376474"><ele>109.0</ele><time>2026-04-11T09:49:10.003Z</time></trkpt><trkpt lat="45.08577864401545" lon="8.477729970519087"><ele>109.0</ele><time>2026-04-11T09:49:11.003Z</time></trkpt><trkpt lat="45.08573132019297" lon="8.47781766177093"><ele>109.4</ele><time>2026-04-11T09:49:13.003Z</time></trkpt><trkpt lat="45.085660386303196" lon="8.477758429430324"><ele>109.80000000000001</ele><time>2026-04-11T09:49:17.003Z</time></trkpt><trkpt lat="45.08563732169772" lon="8.477603260769714"><ele>110.19999999999999</ele><time>2026-04-11T09:49:19.003Z</time></trkpt><trkpt lat="45.08561863893335" lon="8.477491538021882"><ele>110.6</ele><time>2026-04-11T09:49:20.003Z</time></trkpt><trkpt lat="45.085578747234685" lon="8.477344407363047"><ele>111.0</ele><time>2026-04-11T09:49:21.003Z</time></trkpt><trkpt lat="45.08552429636234" lon="8.477143983666245"><ele>110.8</ele><time>2026-04-11T09:49:22.001Z</time></trkpt><trkpt lat="45.08547490976968" lon="8.476964766016621"><ele>110.6</ele><time>2026-04-11T09:49:23.001Z</time></trkpt><trkpt lat="45.08543846558041" lon="8.476826559974754"><ele>110.4</ele><time>2026-04-11T09:49:24.001Z</time></trkpt><trkpt lat="45.08541106652947" lon="8.476721003041392"><ele>110.2</ele><time>2026-04-11T09:49:25.001Z</time></trkpt><trkpt lat="45.08536954704927" lon="8.476594715588428"><ele>110.0</ele><time>2026-04-11T09:49:27Z</time></trkpt><trkpt lat="45.08528872241216" lon="8.47660438234776"><ele>110.0</ele><time>2026-04-11T09:49:30Z</time></trkpt><trkpt lat="45.08526920310054" lon="8.476711864444221"><ele>110.0</ele><time>2026-04-11T09:49:32Z</time></trkpt><trkpt lat="45.08526965752783" lon="8.476835064832583"><ele>110.0</ele><time>2026-04-11T09:49:33Z</time></trkpt><trkpt lat="45.08526342605489" lon="8.47698930886548"><ele>110.0</ele><time>2026-04-11T09:49:34Z</time></trkpt><trkpt lat="45.085246286546635" lon="8.477142097829615"><ele>110.0</ele><time>2026-04-11T09:49:35Z</time></trkpt><trkpt lat="45.08522198779934" lon="8.477329106105039"><ele>110.25</ele><time>2026-04-11T09:49:36Z</time></trkpt><trkpt lat="45.085188175687954" lon="8.477531190223823"><ele>110.5</ele><time>2026-04-11T09:49:37Z</time></trkpt><trkpt lat="45.0851452878785" lon="8.47771173433053"><ele>110.75</ele><time>2026-04-11T09:49:38Z</time></trkpt><trkpt lat="45.08509462330714" lon="8.477902675513443"><ele>111.0</ele><time>2026-04-11T09:49:39Z</time></trkpt><trkpt lat="45.08503598447527" lon="8.478116255918378"><ele>111.0</ele><time>2026-04-11T09:49:40Z</time></trkpt><trkpt lat="45.08497358705251" lon="8.47833741885618"><ele>111.0</ele><time>2026-04-11T09:49:41Z</time></trkpt><trkpt lat="45.0849116664964" lon="8.478546554267908"><ele>111.0</ele><time>2026-04-11T09:49:42Z</time></trkpt><trkpt lat="45.084856159380976" lon="8.478729621646258"><ele>110.75</ele><time>2026-04-11T09:49:43Z</time></trkpt><trkpt lat="45.08480618457124" lon="8.478896161276259"><ele>110.5</ele><time>2026-04-11T09:49:44Z</time></trkpt><trkpt lat="45.08476155056887" lon="8.479049398176453"><ele>110.25</ele><time>2026-04-11T09:49:45Z</time></trkpt><trkpt lat="45.08471826562773" lon="8.479191024250593"><ele>110.0</ele><time>2026-04-11T09:49:46Z</time></trkpt><trkpt lat="45.08467607374102" lon="8.479330505381775"><ele>110.0</ele><time>2026-04-11T09:49:47Z</time></trkpt><trkpt lat="45.08463424209306" lon="8.479459025753028"><ele>110.0</ele><time>2026-04-11T09:49:48Z</time></trkpt><trkpt lat="45.0845929742378" lon="8.479583679226684"><ele>110.0</ele><time>2026-04-11T09:49:49Z</time></trkpt><trkpt lat="45.084554530929736" lon="8.479703222974193"><ele>110.0</ele><time>2026-04-11T09:49:50Z</time></trkpt><trkpt lat="45.08452192973979" lon="8.479814895960384"><ele>110.0</ele><time>2026-04-11T09:49:51Z</time></trkpt><trkpt lat="45.08449307342406" lon="8.479921333869862"><ele>110.0</ele><time>2026-04-11T09:49:52Z</time></trkpt><trkpt lat="45.0844550611641" lon="8.480035735760879"><ele>110.0</ele><time>2026-04-11T09:49:53Z</time></trkpt><trkpt lat="45.08441424144492" lon="8.480167421535311"><ele>110.0</ele><time>2026-04-11T09:49:54Z</time></trkpt><trkpt lat="45.08437451690125" lon="8.480297417012228"><ele>110.0</ele><time>2026-04-11T09:49:55.001Z</time></trkpt><trkpt lat="45.08434224269657" lon="8.4804146787646"><ele>110.0</ele><time>2026-04-11T09:49:56.001Z</time></trkpt><trkpt lat="45.08431549771521" lon="8.480543691395546"><ele>110.0</ele><time>2026-04-11T09:49:57.001Z</time></trkpt><trkpt lat="45.084296137726724" lon="8.480690294745989"><ele>110.0</ele><time>2026-04-11T09:49:58.001Z</time></trkpt><trkpt lat="45.084276177110276" lon="8.480844681435322"><ele>110.0</ele><time>2026-04-11T09:49:59.001Z</time></trkpt><trkpt lat="45.08425447037539" lon="8.481001515527542"><ele>110.0</ele><time>2026-04-11T09:50:00.001Z</time></trkpt><trkpt lat="45.08423142662682" lon="8.48116955472041"><ele>110.25</ele><time>2026-04-11T09:50:01.001Z</time></trkpt><trkpt lat="45.08420678562141" lon="8.481340239942368"><ele>110.5</ele><time>2026-04-11T09:50:02.001Z</time></trkpt><trkpt lat="45.084181966604405" lon="8.481519863402367"><ele>110.75</ele><time>2026-04-11T09:50:03.001Z</time></trkpt><trkpt lat="45.08415610547728" lon="8.48170334382135"><ele>111.0</ele><time>2026-04-11T09:50:04.001Z</time></trkpt><trkpt lat="45.08413203919937" lon="8.481891393925315"><ele>111.0</ele><time>2026-04-11T09:50:05.001Z</time></trkpt><trkpt lat="45.084105545059934" lon="8.482081185874312"><ele>111.0</ele><time>2026-04-11T09:50:06.001Z</time></trkpt><trkpt lat="45.0840770309439" lon="8.482273154611974"><ele>111.0</ele><time>2026-04-11T09:50:07.001Z</time></trkpt><trkpt lat="45.084047702977" lon="8.48246397592489"><ele>111.0</ele><time>2026-04-11T09:50:08.001Z</time></trkpt><trkpt lat="45.08401628181566" lon="8.48265525306929"><ele>111.0</ele><time>2026-04-11T09:50:09.001Z</time></trkpt><trkpt lat="45.083984940404584" lon="8.482846979961687"><ele>111.0</ele><time>2026-04-11T09:50:10.001Z</time></trkpt><trkpt lat="45.08395492882497" lon="8.483032912042823"><ele>111.0</ele><time>2026-04-11T09:50:11.001Z</time></trkpt><trkpt lat="45.083924494823165" lon="8.48322409595887"><ele>111.0</ele><time>2026-04-11T09:50:12.001Z</time></trkpt><trkpt lat="45.083896093846754" lon="8.483420433815354"><ele>110.75</ele><time>2026-04-11T09:50:13.001Z</time></trkpt><trkpt lat="45.083866073029796" lon="8.48362150420313"><ele>110.5</ele><time>2026-04-11T09:50:14.001Z</time></trkpt><trkpt lat="45.083833034245465" lon="8.483830085940612"><ele>110.25</ele><time>2026-04-11T09:50:15.001Z</time></trkpt><trkpt lat="45.083800368957256" lon="8.484038752653502"><ele>110.0</ele><time>2026-04-11T09:50:16.001Z</time></trkpt><trkpt lat="45.08376676178425" lon="8.484244834320652"><ele>110.33333333333333</ele><time>2026-04-11T09:50:17.001Z</time></trkpt><trkpt lat="45.083733818822225" lon="8.48445264291262"><ele>110.66666666666666</ele><time>2026-04-11T09:50:18.001Z</time></trkpt><trkpt lat="45.083701483927335" lon="8.484659717859108"><ele>111.0</ele><time>2026-04-11T09:50:19.001Z</time></trkpt><trkpt lat="45.08366840987463" lon="8.48487051874436"><ele>111.0</ele><time>2026-04-11T09:50:20.001Z</time></trkpt><trkpt lat="45.08363746627497" lon="8.485075199769492"><ele>111.0</ele><time>2026-04-11T09:50:21.001Z</time></trkpt><trkpt lat="45.08360609797019" lon="8.485277589914777"><ele>111.0</ele><time>2026-04-11T09:50:22.001Z</time></trkpt><trkpt lat="45.083573920238514" lon="8.485480577773592"><ele>111.0</ele><time>2026-04-11T09:50:23.001Z</time></trkpt><trkpt lat="45.08354274751739" lon="8.485677527844414"><ele>111.0</ele><time>2026-04-11T09:50:24.001Z</time></trkpt><trkpt lat="45.08351369894574" lon="8.485863276252488"><ele>111.0</ele><time>2026-04-11T09:50:25.001Z</time></trkpt><trkpt lat="45.083484991425664" lon="8.486043579884212"><ele>111.0</ele><time>2026-04-11T09:50:26.001Z</time></trkpt><trkpt lat="45.08345510576968" lon="8.486230429400534"><ele>111.0</ele><time>2026-04-11T09:50:27.001Z</time></trkpt><trkpt lat="45.083426539064455" lon="8.486414670512762"><ele>111.0</ele><time>2026-04-11T09:50:28.001Z</time></trkpt><trkpt lat="45.08340401313728" lon="8.486600435664458"><ele>111.0</ele><time>2026-04-11T09:50:29.001Z</time></trkpt><trkpt lat="45.0833868705836" lon="8.486797236431972"><ele>111.0</ele><time>2026-04-11T09:50:30.001Z</time></trkpt><trkpt lat="45.08337142324927" lon="8.487005921959511"><ele>111.0</ele><time>2026-04-11T09:50:31.001Z</time></trkpt><trkpt lat="45.08335718470748" lon="8.487216128605475"><ele>111.25</ele><time>2026-04-11T09:50:32.001Z</time></trkpt><trkpt lat="45.08334473477521" lon="8.487422479681381"><ele>111.5</ele><time>2026-04-11T09:50:33.001Z</time></trkpt><trkpt lat="45.08333130009915" lon="8.48763385764091"><ele>111.75</ele><time>2026-04-11T09:50:34.001Z</time></trkpt><trkpt lat="45.08331490274161" lon="8.487835734305587"><ele>112.0</ele><time>2026-04-11T09:50:35.001Z</time></trkpt><trkpt lat="45.08329855264376" lon="8.488030315866721"><ele>112.0</ele><time>2026-04-11T09:50:36.001Z</time></trkpt><trkpt lat="45.083281157895215" lon="8.488216142079395"><ele>112.0</ele><time>2026-04-11T09:50:37.001Z</time></trkpt><trkpt lat="45.0832638283364" lon="8.488407837035366"><ele>112.0</ele><time>2026-04-11T09:50:38.002Z</time></trkpt><trkpt lat="45.08324552698019" lon="8.4886014408673"><ele>112.0</ele><time>2026-04-11T09:50:39.002Z</time></trkpt><trkpt lat="45.08322714038696" lon="8.488792246054446"><ele>112.0</ele><time>2026-04-11T09:50:40.002Z</time></trkpt><trkpt lat="45.08321207678121" lon="8.488970929049572"><ele>112.0</ele><time>2026-04-11T09:50:41.002Z</time></trkpt><trkpt lat="45.08319585904821" lon="8.489155049445989"><ele>112.0</ele><time>2026-04-11T09:50:42.002Z</time></trkpt><trkpt lat="45.083178858019195" lon="8.489341222569546"><ele>112.0</ele><time>2026-04-11T09:50:43.002Z</time></trkpt><trkpt lat="45.08316188327038" lon="8.489520498334834"><ele>112.0</ele><time>2026-04-11T09:50:44.002Z</time></trkpt><trkpt lat="45.08314060445685" lon="8.489701544613805"><ele>112.0</ele><time>2026-04-11T09:50:45.002Z</time></trkpt><trkpt lat="45.08311792376575" lon="8.489887617210314"><ele>112.0</ele><time>2026-04-11T09:50:46.002Z</time></trkpt><trkpt lat="45.08308845409607" lon="8.49007096678326"><ele>112.0</ele><time>2026-04-11T09:50:47.002Z</time></trkpt><trkpt lat="45.083062971851504" lon="8.490244579251797"><ele>112.0</ele><time>2026-04-11T09:50:48.002Z</time></trkpt><trkpt lat="45.083040898440075" lon="8.490400969194347"><ele>112.0</ele><time>2026-04-11T09:50:49.002Z</time></trkpt><trkpt lat="45.08301582837472" lon="8.490553283626502"><ele>112.0</ele><time>2026-04-11T09:50:50.002Z</time></trkpt><trkpt lat="45.08299528752658" lon="8.490719529678403"><ele>112.0</ele><time>2026-04-11T09:50:51.002Z</time></trkpt><trkpt lat="45.08297041791239" lon="8.490879842451703"><ele>111.83333333333334</ele><time>2026-04-11T09:50:52.002Z</time></trkpt><trkpt lat="45.082945669834416" lon="8.491018406541459"><ele>111.66666666666667</ele><time>2026-04-11T09:50:53.002Z</time></trkpt><trkpt lat="45.08292061391993" lon="8.491152663051377"><ele>111.5</ele><time>2026-04-11T09:50:54.002Z</time></trkpt><trkpt lat="45.08287861252935" lon="8.491265526554802"><ele>111.33333333333334</ele><time>2026-04-11T09:50:55.002Z</time></trkpt><trkpt lat="45.08284545583066" lon="8.491371010647505"><ele>111.16666666666667</ele><time>2026-04-11T09:50:56.002Z</time></trkpt><trkpt lat="45.08281629024455" lon="8.491453495380235"><ele>111.0</ele><time>2026-04-11T09:50:57.002Z</time></trkpt><trkpt lat="45.08276211843273" lon="8.491595781007605"><ele>110.5</ele><time>2026-04-11T09:50:59.002Z</time></trkpt><trkpt lat="45.08269101061913" lon="8.491752848280353"><ele>110.0</ele><time>2026-04-11T09:51:01.002Z</time></trkpt><trkpt lat="45.08262723356463" lon="8.491847697221571"><ele>109.5</ele><time>2026-04-11T09:51:02.002Z</time></trkpt><trkpt lat="45.08254026864383" lon="8.491961738661313"><ele>109.0</ele><time>2026-04-11T09:51:03.002Z</time></trkpt><trkpt lat="45.08244872777043" lon="8.49208755632877"><ele>109.25</ele><time>2026-04-11T09:51:04.002Z</time></trkpt><trkpt lat="45.082363791567445" lon="8.49220796821992"><ele>109.5</ele><time>2026-04-11T09:51:05.002Z</time></trkpt><trkpt lat="45.082271172428094" lon="8.492340536375282"><ele>109.75</ele><time>2026-04-11T09:51:06.002Z</time></trkpt><trkpt lat="45.0821779487413" lon="8.492471760173252"><ele>110.0</ele><time>2026-04-11T09:51:07.002Z</time></trkpt><trkpt lat="45.082083092150384" lon="8.492598434892866"><ele>110.0</ele><time>2026-04-11T09:51:08.002Z</time></trkpt><trkpt lat="45.08198458832653" lon="8.492730988156872"><ele>110.0</ele><time>2026-04-11T09:51:09.002Z</time></trkpt><trkpt lat="45.08189394449092" lon="8.492857198723213"><ele>110.0</ele><time>2026-04-11T09:51:10.002Z</time></trkpt><trkpt lat="45.081810523652344" lon="8.49298019889243"><ele>110.0</ele><time>2026-04-11T09:51:11.002Z</time></trkpt><trkpt lat="45.08172587346418" lon="8.493107326969389"><ele>110.0</ele><time>2026-04-11T09:51:12.002Z</time></trkpt><trkpt lat="45.08162757596753" lon="8.493250398190469"><ele>110.0</ele><time>2026-04-11T09:51:13.002Z</time></trkpt><trkpt lat="45.08151493053555" lon="8.493404759080926"><ele>110.0</ele><time>2026-04-11T09:51:14.002Z</time></trkpt><trkpt lat="45.081403836382606" lon="8.493549351470069"><ele>110.0</ele><time>2026-04-11T09:51:15.002Z</time></trkpt><trkpt lat="45.081299791813144" lon="8.493688981389264"><ele>109.66666666666666</ele><time>2026-04-11T09:51:16.002Z</time></trkpt><trkpt lat="45.08119558007418" lon="8.493832847408415"><ele>109.33333333333334</ele><time>2026-04-11T09:51:17.002Z</time></trkpt><trkpt lat="45.08108848733515" lon="8.493979755516516"><ele>109.0</ele><time>2026-04-11T09:51:18.003Z</time></trkpt><trkpt lat="45.08097563920033" lon="8.494133983513235"><ele>109.0</ele><time>2026-04-11T09:51:19.003Z</time></trkpt><trkpt lat="45.08087321684722" lon="8.494269839341184"><ele>109.0</ele><time>2026-04-11T09:51:20.003Z</time></trkpt><trkpt lat="45.080765806085346" lon="8.494417925825529"><ele>109.0</ele><time>2026-04-11T09:51:21.003Z</time></trkpt><trkpt lat="45.08065862955655" lon="8.49456658400479"><ele>109.0</ele><time>2026-04-11T09:51:22.003Z</time></trkpt><trkpt lat="45.08054970904789" lon="8.49471369700442"><ele>109.33333333333334</ele><time>2026-04-11T09:51:23.003Z</time></trkpt><trkpt lat="45.08044011005796" lon="8.494860657640055"><ele>109.66666666666666</ele><time>2026-04-11T09:51:24.003Z</time></trkpt><trkpt lat="45.08032955422467" lon="8.495010093524813"><ele>110.0</ele><time>2026-04-11T09:51:25.003Z</time></trkpt><trkpt lat="45.08021635282773" lon="8.495165934589169"><ele>110.0</ele><time>2026-04-11T09:51:26.003Z</time></trkpt><trkpt lat="45.08010504031635" lon="8.495316062342551"><ele>110.0</ele><time>2026-04-11T09:51:27.003Z</time></trkpt><trkpt lat="45.080003017652885" lon="8.495452979677689"><ele>110.0</ele><time>2026-04-11T09:51:28Z</time></trkpt><trkpt lat="45.079912874401124" lon="8.495579375871149"><ele>110.0</ele><time>2026-04-11T09:51:29Z</time></trkpt><trkpt lat="45.07982240742182" lon="8.495703538707593"><ele>111.25</ele><time>2026-04-11T09:51:30Z</time></trkpt><trkpt lat="45.07972700306951" lon="8.495835596409025"><ele>112.5</ele><time>2026-04-11T09:51:31Z</time></trkpt><trkpt lat="45.079633415577995" lon="8.49595842838257"><ele>113.75</ele><time>2026-04-11T09:51:32Z</time></trkpt><trkpt lat="45.0795343512865" lon="8.496094424417926"><ele>115.0</ele><time>2026-04-11T09:51:33Z</time></trkpt><trkpt lat="45.079440704437175" lon="8.49622705703194"><ele>114.0</ele><time>2026-04-11T09:51:34Z</time></trkpt><trkpt lat="45.079347902078204" lon="8.496350324663963"><ele>113.0</ele><time>2026-04-11T09:51:35Z</time></trkpt><trkpt lat="45.079265787425236" lon="8.496463410837896"><ele>112.0</ele><time>2026-04-11T09:51:36Z</time></trkpt><trkpt lat="45.07918896619083" lon="8.496566024472887"><ele>111.0</ele><time>2026-04-11T09:51:37Z</time></trkpt><trkpt lat="45.07912289617281" lon="8.496646807427627"><ele>110.0</ele><time>2026-04-11T09:51:38Z</time></trkpt><trkpt lat="45.079063073721976" lon="8.496712115383078"><ele>109.83333333333333</ele><time>2026-04-11T09:51:39Z</time></trkpt><trkpt lat="45.07899312142404" lon="8.496751183280837"><ele>109.66666666666666</ele><time>2026-04-11T09:51:41Z</time></trkpt><trkpt lat="45.0789468404647" lon="8.496824346172424"><ele>109.5</ele><time>2026-04-11T09:51:48Z</time></trkpt><trkpt lat="45.07886905861694" lon="8.496882948502082"><ele>109.33333333333334</ele><time>2026-04-11T09:51:52Z</time></trkpt><trkpt lat="45.078777780949906" lon="8.496905876173194"><ele>109.16666666666667</ele><time>2026-04-11T09:51:59Z</time></trkpt><trkpt lat="45.07868559600088" lon="8.49697348758939"><ele>109.0</ele><time>2026-04-11T09:52:01Z</time></trkpt><trkpt lat="45.07861711624499" lon="8.497051476147202"><ele>109.0</ele><time>2026-04-11T09:52:03.001Z</time></trkpt><trkpt lat="45.078546994749836" lon="8.49709808070084"><ele>109.0</ele><time>2026-04-11T09:52:59.002Z</time></trkpt><trkpt lat="45.07842150674253" lon="8.497192980990885"><ele>109.0</ele><time>2026-04-11T09:53:01.002Z</time></trkpt><trkpt lat="45.07833326480654" lon="8.497265371225629"><ele>109.0</ele><time>2026-04-11T09:53:02.002Z</time></trkpt><trkpt lat="45.07824523800117" lon="8.497337783591943"><ele>109.0</ele><time>2026-04-11T09:53:03.002Z</time></trkpt><trkpt lat="45.07814175698603" lon="8.497420697855873"><ele>109.0</ele><time>2026-04-11T09:53:04.002Z</time></trkpt><trkpt lat="45.07803875895132" lon="8.497505345028456"><ele>109.0</ele><time>2026-04-11T09:53:05.002Z</time></trkpt><trkpt lat="45.07793348987656" lon="8.49759071381414"><ele>109.0</ele><time>2026-04-11T09:53:06.002Z</time></trkpt><trkpt lat="45.077836834874645" lon="8.49766983993863"><ele>109.0</ele><time>2026-04-11T09:53:07.002Z</time></trkpt><trkpt lat="45.07773424343149" lon="8.49775003905462"><ele>109.0</ele><time>2026-04-11T09:53:08.002Z</time></trkpt><trkpt lat="45.07763238586348" lon="8.497835164663316"><ele>109.0</ele><time>2026-04-11T09:53:09.002Z</time></trkpt><trkpt lat="45.077527033819955" lon="8.497922528936162"><ele>109.0</ele><time>2026-04-11T09:53:10.002Z</time></trkpt><trkpt lat="45.077417769458236" lon="8.498011996674563"><ele>109.0</ele><time>2026-04-11T09:53:11.002Z</time></trkpt><trkpt lat="45.077313127539405" lon="8.498097882409024"><ele>109.2</ele><time>2026-04-11T09:53:12.002Z</time></trkpt><trkpt lat="45.07721441254464" lon="8.498179575008377"><ele>109.4</ele><time>2026-04-11T09:53:13.002Z</time></trkpt><trkpt lat="45.077123320366425" lon="8.498250415239688"><ele>109.6</ele><time>2026-04-11T09:53:14.002Z</time></trkpt><trkpt lat="45.07704818375069" lon="8.49831192691801"><ele>109.8</ele><time>2026-04-11T09:53:15.002Z</time></trkpt><trkpt lat="45.07697918979155" lon="8.498370855870727"><ele>110.0</ele><time>2026-04-11T09:53:16.002Z</time></trkpt><trkpt lat="45.076904451375476" lon="8.498433955072365"><ele>109.99999999999999</ele><time>2026-04-11T09:53:17.002Z</time></trkpt><trkpt lat="45.07682936733115" lon="8.498478907239134"><ele>110.0</ele><time>2026-04-11T09:53:18.002Z</time></trkpt><trkpt lat="45.07675740296945" lon="8.498505295825867"><ele>110.0</ele><time>2026-04-11T09:53:19.002Z</time></trkpt><trkpt lat="45.076653195914126" lon="8.498526969496053"><ele>110.0</ele><time>2026-04-11T09:53:21.003Z</time></trkpt><trkpt lat="45.07659871227633" lon="8.49858543064288"><ele>109.99999999999999</ele><time>2026-04-11T09:53:23.003Z</time></trkpt><trkpt lat="45.07657673589312" lon="8.498683818263078"><ele>110.0</ele><time>2026-04-11T09:53:25.003Z</time></trkpt><trkpt lat="45.076512779562655" lon="8.498773538533413"><ele>109.6</ele><time>2026-04-11T09:53:27.003Z</time></trkpt><trkpt lat="45.076441963744564" lon="8.498825085588834"><ele>109.2</ele><time>2026-04-11T09:53:28.003Z</time></trkpt><trkpt lat="45.07635806702326" lon="8.49889068115956"><ele>108.80000000000001</ele><time>2026-04-11T09:53:29.003Z</time></trkpt><trkpt lat="45.07626638595058" lon="8.498963994467212"><ele>108.4</ele><time>2026-04-11T09:53:30.003Z</time></trkpt><trkpt lat="45.0761694439521" lon="8.49904275255532"><ele>108.0</ele><time>2026-04-11T09:53:31.003Z</time></trkpt><trkpt lat="45.07605993756133" lon="8.499131468962211"><ele>108.0</ele><time>2026-04-11T09:53:32.003Z</time></trkpt><trkpt lat="45.07595883080338" lon="8.499213586298678"><ele>108.00000000000001</ele><time>2026-04-11T09:53:33.003Z</time></trkpt><trkpt lat="45.07585477592755" lon="8.499298488764"><ele>108.00000000000001</ele><time>2026-04-11T09:53:34.001Z</time></trkpt><trkpt lat="45.07576216274295" lon="8.499372368276628"><ele>108.0</ele><time>2026-04-11T09:53:35.001Z</time></trkpt><trkpt lat="45.07567046498534" lon="8.499448612260812"><ele>108.0</ele><time>2026-04-11T09:53:36.001Z</time></trkpt><trkpt lat="45.07557284222764" lon="8.499526365310926"><ele>107.75</ele><time>2026-04-11T09:53:37.001Z</time></trkpt><trkpt lat="45.07546919479591" lon="8.499607672601828"><ele>107.5</ele><time>2026-04-11T09:53:38.001Z</time></trkpt><trkpt lat="45.07537041588966" lon="8.499690580295475"><ele>107.25</ele><time>2026-04-11T09:53:39.001Z</time></trkpt><trkpt lat="45.07527484277552" lon="8.499771828477087"><ele>107.0</ele><time>2026-04-11T09:53:40.001Z</time></trkpt><trkpt lat="45.075175739402624" lon="8.499851183574684"><ele>107.0</ele><time>2026-04-11T09:53:41.001Z</time></trkpt><trkpt lat="45.07508165253802" lon="8.499924733216973"><ele>106.99999999999999</ele><time>2026-04-11T09:53:42.001Z</time></trkpt><trkpt lat="45.07498803560657" lon="8.499998213274186"><ele>106.99999999999999</ele><time>2026-04-11T09:53:43.001Z</time></trkpt><trkpt lat="45.07489553607521" lon="8.500070258127337"><ele>107.0</ele><time>2026-04-11T09:53:44.001Z</time></trkpt><trkpt lat="45.07480708640015" lon="8.500142204177887"><ele>107.0</ele><time>2026-04-11T09:53:45.001Z</time></trkpt><trkpt lat="45.07471721703484" lon="8.500216856211862"><ele>107.25</ele><time>2026-04-11T09:53:46.001Z</time></trkpt><trkpt lat="45.074622729574656" lon="8.500298758546318"><ele>107.5</ele><time>2026-04-11T09:53:47.001Z</time></trkpt><trkpt lat="45.07452426880674" lon="8.500381990464533"><ele>107.75</ele><time>2026-04-11T09:53:48.001Z</time></trkpt><trkpt lat="45.07442103469778" lon="8.500464707514297"><ele>108.0</ele><time>2026-04-11T09:53:49.001Z</time></trkpt><trkpt lat="45.07432462110918" lon="8.50053756820645"><ele>108.2</ele><time>2026-04-11T09:53:50.001Z</time></trkpt><trkpt lat="45.07422719504853" lon="8.500614221283197"><ele>108.4</ele><time>2026-04-11T09:53:51.001Z</time></trkpt><trkpt lat="45.074127559502315" lon="8.500696525881422"><ele>108.60000000000001</ele><time>2026-04-11T09:53:52.001Z</time></trkpt><trkpt lat="45.07403360435741" lon="8.500775145937327"><ele>108.80000000000001</ele><time>2026-04-11T09:53:53.001Z</time></trkpt><trkpt lat="45.07393587612978" lon="8.500856275317815"><ele>109.0</ele><time>2026-04-11T09:53:54.001Z</time></trkpt><trkpt lat="45.07383876234996" lon="8.500938018668803"><ele>109.2</ele><time>2026-04-11T09:53:55.001Z</time></trkpt><trkpt lat="45.073753319313795" lon="8.501010116827418"><ele>109.4</ele><time>2026-04-11T09:53:56.001Z</time></trkpt><trkpt lat="45.07368018165721" lon="8.501069498376078"><ele>109.6</ele><time>2026-04-11T09:53:57.001Z</time></trkpt><trkpt lat="45.07360413068768" lon="8.501131740716032"><ele>109.8</ele><time>2026-04-11T09:53:58.001Z</time></trkpt><trkpt lat="45.07351185201349" lon="8.501203813419824"><ele>110.0</ele><time>2026-04-11T09:53:59.001Z</time></trkpt><trkpt lat="45.07341185070267" lon="8.501283275029863"><ele>109.25</ele><time>2026-04-11T09:54:00.001Z</time></trkpt><trkpt lat="45.073308757821856" lon="8.501364741409933"><ele>108.5</ele><time>2026-04-11T09:54:01.001Z</time></trkpt><trkpt lat="45.07320071802794" lon="8.501449830722585"><ele>107.75</ele><time>2026-04-11T09:54:02.001Z</time></trkpt><trkpt lat="45.07309010460085" lon="8.50154017463144"><ele>107.0</ele><time>2026-04-11T09:54:03.001Z</time></trkpt><trkpt lat="45.07297781532962" lon="8.501633940832425"><ele>107.0</ele><time>2026-04-11T09:54:04.001Z</time></trkpt><trkpt lat="45.07286490690503" lon="8.501724663542177"><ele>107.0</ele><time>2026-04-11T09:54:05.001Z</time></trkpt><trkpt lat="45.07275246156491" lon="8.501815212502486"><ele>107.0</ele><time>2026-04-11T09:54:06.001Z</time></trkpt><trkpt lat="45.072646343937" lon="8.501902688131068"><ele>107.0</ele><time>2026-04-11T09:54:07.001Z</time></trkpt><trkpt lat="45.07253961387272" lon="8.501989785272011"><ele>107.5</ele><time>2026-04-11T09:54:08.001Z</time></trkpt><trkpt lat="45.07242814845255" lon="8.502079351885927"><ele>108.0</ele><time>2026-04-11T09:54:09.001Z</time></trkpt><trkpt lat="45.07232232755318" lon="8.50216672699895"><ele>108.5</ele><time>2026-04-11T09:54:10.001Z</time></trkpt><trkpt lat="45.07222544470723" lon="8.50224661611496"><ele>109.0</ele><time>2026-04-11T09:54:11.001Z</time></trkpt><trkpt lat="45.07213082627689" lon="8.502323590825359"><ele>109.0</ele><time>2026-04-11T09:54:12.001Z</time></trkpt><trkpt lat="45.07203410621407" lon="8.502405774407125"><ele>109.0</ele><time>2026-04-11T09:54:13.001Z</time></trkpt><trkpt lat="45.071933991321565" lon="8.502485801637144"><ele>109.0</ele><time>2026-04-11T09:54:14.001Z</time></trkpt><trkpt lat="45.071830580727514" lon="8.502568892558143"><ele>109.0</ele><time>2026-04-11T09:54:15.001Z</time></trkpt><trkpt lat="45.071721403111056" lon="8.502657934677892"><ele>109.0</ele><time>2026-04-11T09:54:16.001Z</time></trkpt><trkpt lat="45.07161312008473" lon="8.502746267935999"><ele>109.0</ele><time>2026-04-11T09:54:17.001Z</time></trkpt><trkpt lat="45.07150145832178" lon="8.50283710432995"><ele>109.0</ele><time>2026-04-11T09:54:18.001Z</time></trkpt><trkpt lat="45.071392733833875" lon="8.502926912242204"><ele>109.0</ele><time>2026-04-11T09:54:19.001Z</time></trkpt><trkpt lat="45.07128689326304" lon="8.503013436105533"><ele>108.80000000000001</ele><time>2026-04-11T09:54:20.001Z</time></trkpt><trkpt lat="45.07118443693627" lon="8.50309748754863"><ele>108.60000000000001</ele><time>2026-04-11T09:54:21.001Z</time></trkpt><trkpt lat="45.07108322082571" lon="8.503178324316185"><ele>108.4</ele><time>2026-04-11T09:54:22.001Z</time></trkpt><trkpt lat="45.0709914853062" lon="8.503255658131817"><ele>108.2</ele><time>2026-04-11T09:54:23.001Z</time></trkpt><trkpt lat="45.07090797272626" lon="8.503322109084737"><ele>108.0</ele><time>2026-04-11T09:54:24.001Z</time></trkpt><trkpt lat="45.07083750963485" lon="8.503378968025919"><ele>108.0</ele><time>2026-04-11T09:54:25.001Z</time></trkpt><trkpt lat="45.070774818493696" lon="8.503430102227338"><ele>108.00000000000001</ele><time>2026-04-11T09:54:26.001Z</time></trkpt><trkpt lat="45.07072033218362" lon="8.503477056319282"><ele>108.00000000000001</ele><time>2026-04-11T09:54:27.001Z</time></trkpt><trkpt lat="45.070652768781656" lon="8.503528938799473"><ele>108.0</ele><time>2026-04-11T09:54:28.001Z</time></trkpt><trkpt lat="45.07055826958537" lon="8.503605761306433"><ele>108.0</ele><time>2026-04-11T09:54:29.001Z</time></trkpt><trkpt lat="45.070443728663" lon="8.503702127049763"><ele>107.75</ele><time>2026-04-11T09:54:30.001Z</time></trkpt><trkpt lat="45.07032422531546" lon="8.50379975037203"><ele>107.5</ele><time>2026-04-11T09:54:31.001Z</time></trkpt><trkpt lat="45.07020398789305" lon="8.503894463405228"><ele>107.25</ele><time>2026-04-11T09:54:32.001Z</time></trkpt><trkpt lat="45.070076159875654" lon="8.503997291028737"><ele>107.0</ele><time>2026-04-11T09:54:33.001Z</time></trkpt><trkpt lat="45.06995969018507" lon="8.504089455426248"><ele>107.25</ele><time>2026-04-11T09:54:34.001Z</time></trkpt><trkpt lat="45.06984262718257" lon="8.50418506819714"><ele>107.5</ele><time>2026-04-11T09:54:35.001Z</time></trkpt><trkpt lat="45.06971414308391" lon="8.504289091647678"><ele>107.75</ele><time>2026-04-11T09:54:36.001Z</time></trkpt><trkpt lat="45.06957959522642" lon="8.504393712492767"><ele>108.0</ele><time>2026-04-11T09:54:37.001Z</time></trkpt><trkpt lat="45.06944357272299" lon="8.504508278948482"><ele>107.33333333333334</ele><time>2026-04-11T09:54:38.001Z</time></trkpt><trkpt lat="45.06931700229096" lon="8.504611549466599"><ele>106.66666666666667</ele><time>2026-04-11T09:54:39.002Z</time></trkpt><trkpt lat="45.06918321611327" lon="8.504717701450256"><ele>106.0</ele><time>2026-04-11T09:54:40.002Z</time></trkpt><trkpt lat="45.069051689538135" lon="8.504825563190511"><ele>106.0</ele><time>2026-04-11T09:54:41.002Z</time></trkpt><trkpt lat="45.06891768375303" lon="8.504930028995203"><ele>106.0</ele><time>2026-04-11T09:54:42.002Z</time></trkpt><trkpt lat="45.06878885102363" lon="8.505036231188337"><ele>106.0</ele><time>2026-04-11T09:54:43.002Z</time></trkpt><trkpt lat="45.068654987482056" lon="8.505148645861235"><ele>106.0</ele><time>2026-04-11T09:54:44.002Z</time></trkpt><trkpt lat="45.06852218441882" lon="8.505256565579852"><ele>106.0</ele><time>2026-04-11T09:54:45.002Z</time></trkpt><trkpt lat="45.06838808881448" lon="8.505363021333135"><ele>106.0</ele><time>2026-04-11T09:54:46.002Z</time></trkpt><trkpt lat="45.06825575284557" lon="8.505470527256676"><ele>106.33333333333334</ele><time>2026-04-11T09:54:47.002Z</time></trkpt><trkpt lat="45.06812294748659" lon="8.505578012378697"><ele>106.66666666666666</ele><time>2026-04-11T09:54:48.002Z</time></trkpt><trkpt lat="45.06799080218172" lon="8.505692393940551"><ele>107.0</ele><time>2026-04-11T09:54:49.002Z</time></trkpt><trkpt lat="45.0678528163565" lon="8.5058140154534"><ele>107.0</ele><time>2026-04-11T09:54:50.002Z</time></trkpt><trkpt lat="45.067714795966985" lon="8.505920360154184"><ele>107.0</ele><time>2026-04-11T09:54:51.002Z</time></trkpt><trkpt lat="45.06757168553093" lon="8.506035465407342"><ele>107.0</ele><time>2026-04-11T09:54:52.002Z</time></trkpt><trkpt lat="45.06743077307604" lon="8.506145713879977"><ele>106.66666666666666</ele><time>2026-04-11T09:54:53.002Z</time></trkpt><trkpt lat="45.0672937685015" lon="8.506257549197437"><ele>106.33333333333334</ele><time>2026-04-11T09:54:54.002Z</time></trkpt><trkpt lat="45.06715969979822" lon="8.506366349391598"><ele>106.0</ele><time>2026-04-11T09:54:55.002Z</time></trkpt><trkpt lat="45.067030961301455" lon="8.506473976745296"><ele>106.0</ele><time>2026-04-11T09:54:56.002Z</time></trkpt><trkpt lat="45.0668998585382" lon="8.506584543514702"><ele>106.0</ele><time>2026-04-11T09:54:57.002Z</time></trkpt><trkpt lat="45.066745962199406" lon="8.506709820510967"><ele>106.0</ele><time>2026-04-11T09:54:58.002Z</time></trkpt><trkpt lat="45.066606205281516" lon="8.506822674169609"><ele>106.0</ele><time>2026-04-11T09:54:59.002Z</time></trkpt><trkpt lat="45.06646746726008" lon="8.506932708829964"><ele>106.0</ele><time>2026-04-11T09:55:00.002Z</time></trkpt><trkpt lat="45.06633763449633" lon="8.50703980464684"><ele>106.0</ele><time>2026-04-11T09:55:01.002Z</time></trkpt><trkpt lat="45.066212773000224" lon="8.507141877842635"><ele>106.0</ele><time>2026-04-11T09:55:02.002Z</time></trkpt><trkpt lat="45.06609031295489" lon="8.507237706603432"><ele>106.0</ele><time>2026-04-11T09:55:03.002Z</time></trkpt><trkpt lat="45.06596960842105" lon="8.507335650482801"><ele>106.0</ele><time>2026-04-11T09:55:04.002Z</time></trkpt><trkpt lat="45.06586354916106" lon="8.507422621274486"><ele>106.0</ele><time>2026-04-11T09:55:05.002Z</time></trkpt><trkpt lat="45.065767125242836" lon="8.50750056356761"><ele>106.33333333333334</ele><time>2026-04-11T09:55:06.002Z</time></trkpt><trkpt lat="45.065677019634194" lon="8.507569198556952"><ele>106.66666666666667</ele><time>2026-04-11T09:55:07.002Z</time></trkpt><trkpt lat="45.065604953686105" lon="8.50762555295888"><ele>107.0</ele><time>2026-04-11T09:55:08.002Z</time></trkpt><trkpt lat="45.065547426982874" lon="8.507672938034814"><ele>107.33333333333334</ele><time>2026-04-11T09:55:09.002Z</time></trkpt><trkpt lat="45.06548526817388" lon="8.507712610479503"><ele>107.66666666666667</ele><time>2026-04-11T09:55:12.002Z</time></trkpt><trkpt lat="45.06542569085681" lon="8.507655822451664"><ele>108.0</ele><time>2026-04-11T09:55:14.002Z</time></trkpt><trkpt lat="45.06536714841534" lon="8.507592849997595"><ele>108.0</ele><time>2026-04-11T09:55:15.002Z</time></trkpt><trkpt lat="45.06529278215616" lon="8.507518760447846"><ele>108.00000000000001</ele><time>2026-04-11T09:55:16.002Z</time></trkpt><trkpt lat="45.0652204773874" lon="8.507462429186349"><ele>108.00000000000001</ele><time>2026-04-11T09:55:17.002Z</time></trkpt><trkpt lat="45.065149865674385" lon="8.507413105639257"><ele>108.0</ele><time>2026-04-11T09:55:18.002Z</time></trkpt><trkpt lat="45.06505742329603" lon="8.507344684517795"><ele>108.0</ele><time>2026-04-11T09:55:19.002Z</time></trkpt><trkpt lat="45.064959368612314" lon="8.507265060700814"><ele>108.25</ele><time>2026-04-11T09:55:20.002Z</time></trkpt><trkpt lat="45.0648618593072" lon="8.50718250225119"><ele>108.5</ele><time>2026-04-11T09:55:21.002Z</time></trkpt><trkpt lat="45.06476771136338" lon="8.507105961138015"><ele>108.75</ele><time>2026-04-11T09:55:22.002Z</time></trkpt><trkpt lat="45.06467454380764" lon="8.507023494497167"><ele>109.0</ele><time>2026-04-11T09:55:23.002Z</time></trkpt><trkpt lat="45.064570734437574" lon="8.506938387422897"><ele>109.25</ele><time>2026-04-11T09:55:24.002Z</time></trkpt><trkpt lat="45.06446410766325" lon="8.5068531000457"><ele>109.5</ele><time>2026-04-11T09:55:25.003Z</time></trkpt><trkpt lat="45.0643540024824" lon="8.506763202501451"><ele>109.75</ele><time>2026-04-11T09:55:26.003Z</time></trkpt><trkpt lat="45.06424489333305" lon="8.506673671238913"><ele>110.0</ele><time>2026-04-11T09:55:27.003Z</time></trkpt><trkpt lat="45.064132987502525" lon="8.506579843933661"><ele>110.0</ele><time>2026-04-11T09:55:28.003Z</time></trkpt><trkpt lat="45.064019058413955" lon="8.506486237769405"><ele>110.0</ele><time>2026-04-11T09:55:29.003Z</time></trkpt><trkpt lat="45.06390585931932" lon="8.506394272914914"><ele>110.0</ele><time>2026-04-11T09:55:30.003Z</time></trkpt><trkpt lat="45.06379408061588" lon="8.506303475400015"><ele>110.0</ele><time>2026-04-11T09:55:31.003Z</time></trkpt><trkpt lat="45.06368398023045" lon="8.506219638813791"><ele>110.25</ele><time>2026-04-11T09:55:32.003Z</time></trkpt><trkpt lat="45.06357111574356" lon="8.506126406876211"><ele>110.5</ele><time>2026-04-11T09:55:33.003Z</time></trkpt><trkpt lat="45.063458925846426" lon="8.506025793129504"><ele>110.75</ele><time>2026-04-11T09:55:34.003Z</time></trkpt><trkpt lat="45.063344947467996" lon="8.505926177276962"><ele>111.0</ele><time>2026-04-11T09:55:35.003Z</time></trkpt><trkpt lat="45.063229755803285" lon="8.505828380575844"><ele>111.5</ele><time>2026-04-11T09:55:36.003Z</time></trkpt><trkpt lat="45.063116778937776" lon="8.505730880701453"><ele>112.0</ele><time>2026-04-11T09:55:37.003Z</time></trkpt><trkpt lat="45.063010074858376" lon="8.505636881605682"><ele>112.5</ele><time>2026-04-11T09:55:38.003Z</time></trkpt><trkpt lat="45.06290988548388" lon="8.505549209267102"><ele>113.0</ele><time>2026-04-11T09:55:39.003Z</time></trkpt><trkpt lat="45.06281248995321" lon="8.505472827702556"><ele>112.60000000000001</ele><time>2026-04-11T09:55:40Z</time></trkpt><trkpt lat="45.06272135783245" lon="8.505407001140723"><ele>112.20000000000002</ele><time>2026-04-11T09:55:41Z</time></trkpt><trkpt lat="45.06263593317097" lon="8.505351101682653"><ele>111.8</ele><time>2026-04-11T09:55:42Z</time></trkpt><trkpt lat="45.06255896623016" lon="8.505303772304433"><ele>111.4</ele><time>2026-04-11T09:55:43Z</time></trkpt><trkpt lat="45.06249403143651" lon="8.505203041028322"><ele>111.0</ele><time>2026-04-11T09:55:45Z</time></trkpt><trkpt lat="45.06247444706605" lon="8.505032320328878"><ele>111.0</ele><time>2026-04-11T09:55:47Z</time></trkpt><trkpt lat="45.0624612982264" lon="8.504944505248933"><ele>111.0</ele><time>2026-04-11T09:55:48Z</time></trkpt><trkpt lat="45.062368711258486" lon="8.504873282050207"><ele>111.0</ele><time>2026-04-11T09:55:50Z</time></trkpt><trkpt lat="45.062303109043725" lon="8.504889780877484"><ele>111.0</ele><time>2026-04-11T09:55:51Z</time></trkpt><trkpt lat="45.06222802337848" lon="8.504932575607848"><ele>111.0</ele><time>2026-04-11T09:55:52Z</time></trkpt><trkpt lat="45.06214149509404" lon="8.50499204129074"><ele>111.0</ele><time>2026-04-11T09:55:53Z</time></trkpt><trkpt lat="45.06205155194455" lon="8.505009907579534"><ele>111.6</ele><time>2026-04-11T09:55:54Z</time></trkpt><trkpt lat="45.0619506006748" lon="8.504994395730787"><ele>112.19999999999999</ele><time>2026-04-11T09:55:55Z</time></trkpt><trkpt lat="45.06185796683675" lon="8.504951202300823"><ele>112.80000000000001</ele><time>2026-04-11T09:55:56Z</time></trkpt><trkpt lat="45.061764543747344" lon="8.50488729402785"><ele>113.4</ele><time>2026-04-11T09:55:57Z</time></trkpt><trkpt lat="45.06166295485596" lon="8.50481372538011"><ele>114.0</ele><time>2026-04-11T09:55:58Z</time></trkpt><trkpt lat="45.06156224259586" lon="8.50473953167326"><ele>114.0</ele><time>2026-04-11T09:55:59Z</time></trkpt><trkpt lat="45.06145998736788" lon="8.504668818918756"><ele>114.0</ele><time>2026-04-11T09:56:00Z</time></trkpt><trkpt lat="45.061354620693706" lon="8.504601650651633"><ele>114.0</ele><time>2026-04-11T09:56:01Z</time></trkpt><trkpt lat="45.06123794440801" lon="8.50454225180846"><ele>114.0</ele><time>2026-04-11T09:56:02Z</time></trkpt><trkpt lat="45.06112543159886" lon="8.504468005516465"><ele>114.0</ele><time>2026-04-11T09:56:03Z</time></trkpt><trkpt lat="45.06100974534242" lon="8.504408094902978"><ele>114.0</ele><time>2026-04-11T09:56:04Z</time></trkpt><trkpt lat="45.06090884258356" lon="8.504360749622274"><ele>114.0</ele><time>2026-04-11T09:56:05Z</time></trkpt><trkpt lat="45.06081945044356" lon="8.504340841349102"><ele>114.0</ele><time>2026-04-11T09:56:06Z</time></trkpt><trkpt lat="45.06073744702401" lon="8.50435320798074"><ele>114.0</ele><time>2026-04-11T09:56:07Z</time></trkpt><trkpt lat="45.060674028758505" lon="8.504403935424353"><ele>114.0</ele><time>2026-04-11T09:56:08Z</time></trkpt><trkpt lat="45.060623434441304" lon="8.504489391576474"><ele>114.0</ele><time>2026-04-11T09:56:09Z</time></trkpt><trkpt lat="45.06058182647757" lon="8.504624342879026"><ele>114.0</ele><time>2026-04-11T09:56:10Z</time></trkpt><trkpt lat="45.0605305913404" lon="8.504758167012017"><ele>114.0</ele><time>2026-04-11T09:56:11Z</time></trkpt><trkpt lat="45.06050225171057" lon="8.504889847146698"><ele>114.0</ele><time>2026-04-11T09:56:12Z</time></trkpt><trkpt lat="45.060467559414725" lon="8.505001442307565"><ele>114.2</ele><time>2026-04-11T09:56:13Z</time></trkpt><trkpt lat="45.060434382275076" lon="8.505101141212313"><ele>114.4</ele><time>2026-04-11T09:56:14Z</time></trkpt><trkpt lat="45.06038787899385" lon="8.505231045783157"><ele>114.6</ele><time>2026-04-11T09:56:15Z</time></trkpt><trkpt lat="45.06034345415805" lon="8.505355032491398"><ele>114.8</ele><time>2026-04-11T09:56:16Z</time></trkpt><trkpt lat="45.06031002814993" lon="8.505512457940307"><ele>115.0</ele><time>2026-04-11T09:56:17.001Z</time></trkpt><trkpt lat="45.06027340734635" lon="8.505636844011867"><ele>114.99999999999999</ele><time>2026-04-11T09:56:18.001Z</time></trkpt><trkpt lat="45.06024585293986" lon="8.505730837125562"><ele>115.0</ele><time>2026-04-11T09:56:19.001Z</time></trkpt><trkpt lat="45.06021826642745" lon="8.505829838565553"><ele>114.99999999999999</ele><time>2026-04-11T09:56:20.001Z</time></trkpt><trkpt lat="45.060191530734194" lon="8.505928757699838"><ele>114.99999999999999</ele><time>2026-04-11T09:56:21.001Z</time></trkpt><trkpt lat="45.060154100282624" lon="8.506025164180341"><ele>115.0</ele><time>2026-04-11T09:56:22.001Z</time></trkpt><trkpt lat="45.06012544568098" lon="8.506116455553318"><ele>114.99999999999999</ele><time>2026-04-11T09:56:23.001Z</time></trkpt><trkpt lat="45.06010579954687" lon="8.506202020924146"><ele>114.99999999999999</ele><time>2026-04-11T09:56:24.001Z</time></trkpt><trkpt lat="45.060059755095125" lon="8.506362935248074"><ele>115.0</ele><time>2026-04-11T09:56:26.001Z</time></trkpt><trkpt lat="45.06000592768476" lon="8.506504161100368"><ele>115.0</ele><time>2026-04-11T09:56:28.001Z</time></trkpt><trkpt lat="45.059968187036894" lon="8.50665151062974"><ele>115.0</ele><time>2026-04-11T09:56:30.001Z</time></trkpt><trkpt lat="45.05992717948974" lon="8.506774822544518"><ele>115.0</ele><time>2026-04-11T09:56:32.001Z</time></trkpt><trkpt lat="45.05989645435431" lon="8.506855020389342"><ele>115.0</ele><time>2026-04-11T09:56:38.001Z</time></trkpt><trkpt lat="45.05985894124582" lon="8.506931761344285"><ele>114.66666666666667</ele><time>2026-04-11T09:56:40.001Z</time></trkpt><trkpt lat="45.05979033331918" lon="8.5069220023203"><ele>114.33333333333334</ele><time>2026-04-11T09:56:42.001Z</time></trkpt><trkpt lat="45.0596867188226" lon="8.506819200834858"><ele>114.0</ele><time>2026-04-11T09:56:44.001Z</time></trkpt><trkpt lat="45.05962612618604" lon="8.506772757517911"><ele>113.66666666666666</ele><time>2026-04-11T09:56:45.001Z</time></trkpt><trkpt lat="45.05955866794077" lon="8.506737558164906"><ele>113.33333333333333</ele><time>2026-04-11T09:56:46.001Z</time></trkpt><trkpt lat="45.059492763045306" lon="8.506701767975917"><ele>113.0</ele><time>2026-04-11T09:56:47.001Z</time></trkpt><trkpt lat="45.059423326259655" lon="8.506651878961383"><ele>112.99999999999999</ele><time>2026-04-11T09:56:48.001Z</time></trkpt><trkpt lat="45.05934611023652" lon="8.506605626494945"><ele>113.0</ele><time>2026-04-11T09:56:49.001Z</time></trkpt><trkpt lat="45.05927012718794" lon="8.506546814712964"><ele>113.0</ele><time>2026-04-11T09:56:50.001Z</time></trkpt><trkpt lat="45.059198558805406" lon="8.50649237420062"><ele>113.0</ele><time>2026-04-11T09:56:51.001Z</time></trkpt><trkpt lat="45.05911189384761" lon="8.506456150810347"><ele>112.99999999999999</ele><time>2026-04-11T09:56:52.001Z</time></trkpt><trkpt lat="45.059028469312686" lon="8.506410307295837"><ele>113.0</ele><time>2026-04-11T09:56:53.001Z</time></trkpt><trkpt lat="45.05894557617622" lon="8.506357035823553"><ele>113.0</ele><time>2026-04-11T09:56:54.001Z</time></trkpt><trkpt lat="45.05887589093625" lon="8.506282220616786"><ele>113.00000000000001</ele><time>2026-04-11T09:56:55.001Z</time></trkpt><trkpt lat="45.05879743556446" lon="8.506232994335756"><ele>113.00000000000001</ele><time>2026-04-11T09:56:56.001Z</time></trkpt><trkpt lat="45.05870942980129" lon="8.506181817890996"><ele>113.0</ele><time>2026-04-11T09:56:57.001Z</time></trkpt><trkpt lat="45.05862459451216" lon="8.506111315759993"><ele>113.0</ele><time>2026-04-11T09:56:58.001Z</time></trkpt><trkpt lat="45.05853654503952" lon="8.506056638144011"><ele>112.99999999999999</ele><time>2026-04-11T09:56:59.001Z</time></trkpt><trkpt lat="45.05846024449796" lon="8.506005213957073"><ele>113.0</ele><time>2026-04-11T09:57:00.001Z</time></trkpt><trkpt lat="45.05838412459653" lon="8.505952879719683"><ele>113.0</ele><time>2026-04-11T09:57:01.001Z</time></trkpt><trkpt lat="45.05831186755479" lon="8.50590320129808"><ele>113.0</ele><time>2026-04-11T09:57:02.001Z</time></trkpt><trkpt lat="45.05823431499072" lon="8.505871034277407"><ele>112.99999999999999</ele><time>2026-04-11T09:57:03.002Z</time></trkpt><trkpt lat="45.05817470521543" lon="8.505816592263477"><ele>113.0</ele><time>2026-04-11T09:57:04.002Z</time></trkpt><trkpt lat="45.05810699659765" lon="8.50576100314304"><ele>112.66666666666666</ele><time>2026-04-11T09:57:05.002Z</time></trkpt><trkpt lat="45.058046764359425" lon="8.50571415808154"><ele>112.33333333333333</ele><time>2026-04-11T09:57:06.002Z</time></trkpt><trkpt lat="45.05799247951428" lon="8.505668308128183"><ele>112.0</ele><time>2026-04-11T09:57:07.002Z</time></trkpt><trkpt lat="45.05793226642321" lon="8.505609419552073"><ele>111.66666666666666</ele><time>2026-04-11T09:57:12.002Z</time></trkpt><trkpt lat="45.05798658503239" lon="8.505488538039796"><ele>111.33333333333333</ele><time>2026-04-11T09:57:13.002Z</time></trkpt><trkpt lat="45.058007813068606" lon="8.505372369831509"><ele>111.0</ele><time>2026-04-11T09:57:14.002Z</time></trkpt><trkpt lat="45.058041677698206" lon="8.505288775124468"><ele>111.0</ele><time>2026-04-11T09:57:15.002Z</time></trkpt><trkpt lat="45.058067853414684" lon="8.505202136430158"><ele>111.0</ele><time>2026-04-11T09:57:16.002Z</time></trkpt><trkpt lat="45.05809724159617" lon="8.505102152660745"><ele>111.0</ele><time>2026-04-11T09:57:17.002Z</time></trkpt><trkpt lat="45.05812769483982" lon="8.504987485804673"><ele>111.0</ele><time>2026-04-11T09:57:18.002Z</time></trkpt><trkpt lat="45.05816183915029" lon="8.50486337021064"><ele>111.0</ele><time>2026-04-11T09:57:19.002Z</time></trkpt><trkpt lat="45.05820027800634" lon="8.504730179774413"><ele>111.0</ele><time>2026-04-11T09:57:20.002Z</time></trkpt><trkpt lat="45.05824088753537" lon="8.50458662368431"><ele>111.4</ele><time>2026-04-11T09:57:21.002Z</time></trkpt><trkpt lat="45.05828527792807" lon="8.504452400178911"><ele>111.8</ele><time>2026-04-11T09:57:22.002Z</time></trkpt><trkpt lat="45.05832316371309" lon="8.504318699156592"><ele>112.20000000000002</ele><time>2026-04-11T09:57:23.002Z</time></trkpt><trkpt lat="45.05835616602149" lon="8.504201381801073"><ele>112.60000000000001</ele><time>2026-04-11T09:57:24.002Z</time></trkpt><trkpt lat="45.05840184626742" lon="8.504070575868099"><ele>113.0</ele><time>2026-04-11T09:57:26.002Z</time></trkpt><trkpt lat="45.05826245966997" lon="8.503925407900036"><ele>113.25</ele><time>2026-04-11T09:57:28.002Z</time></trkpt><trkpt lat="45.05818468655248" lon="8.503837897781004"><ele>113.5</ele><time>2026-04-11T09:57:29.002Z</time></trkpt><trkpt lat="45.05809298863029" lon="8.503734755854747"><ele>113.75</ele><time>2026-04-11T09:57:30.002Z</time></trkpt><trkpt lat="45.05800399017071" lon="8.503629060007066"><ele>114.0</ele><time>2026-04-11T09:57:31.002Z</time></trkpt><trkpt lat="45.057919676773444" lon="8.50351197243783"><ele>114.0</ele><time>2026-04-11T09:57:32.002Z</time></trkpt><trkpt lat="45.05783696922199" lon="8.503379568688443"><ele>114.0</ele><time>2026-04-11T09:57:33.002Z</time></trkpt><trkpt lat="45.05775304605859" lon="8.503229753858284"><ele>114.0</ele><time>2026-04-11T09:57:34.002Z</time></trkpt><trkpt lat="45.05766659198217" lon="8.503070433653633"><ele>114.0</ele><time>2026-04-11T09:57:35.002Z</time></trkpt><trkpt lat="45.057581742534474" lon="8.502907363816117"><ele>114.0</ele><time>2026-04-11T09:57:36.002Z</time></trkpt><trkpt lat="45.05750045320148" lon="8.502748523894036"><ele>114.0</ele><time>2026-04-11T09:57:37.002Z</time></trkpt><trkpt lat="45.05742731987062" lon="8.50261520246972"><ele>114.0</ele><time>2026-04-11T09:57:38.002Z</time></trkpt><trkpt lat="45.05736661625105" lon="8.502506060677648"><ele>114.0</ele><time>2026-04-11T09:57:39.002Z</time></trkpt><trkpt lat="45.057313326982005" lon="8.502413206609237"><ele>114.0</ele><time>2026-04-11T09:57:40.002Z</time></trkpt><trkpt lat="45.057268936055756" lon="8.502329121081429"><ele>113.33333333333334</ele><time>2026-04-11T09:57:41.002Z</time></trkpt><trkpt lat="45.05721354095554" lon="8.502215039037717"><ele>112.66666666666667</ele><time>2026-04-11T09:57:43.002Z</time></trkpt><trkpt lat="45.05712099072735" lon="8.502220012979702"><ele>112.0</ele><time>2026-04-11T09:57:51Z</time></trkpt><trkpt lat="45.0571250552111" lon="8.502722283384834"><ele>112.0</ele><time>2026-04-11T09:57:52Z</time></trkpt><trkpt lat="45.05719097606059" lon="8.502801310262408"><ele>112.0</ele><time>2026-04-11T09:57:53Z</time></trkpt><trkpt lat="45.05725666754487" lon="8.502880062190396"><ele>112.0</ele><time>2026-04-11T09:57:54Z</time></trkpt><trkpt lat="45.05747004685907" lon="8.502738973443176"><ele>112.0</ele><time>2026-04-11T09:57:55Z</time></trkpt><trkpt lat="45.05752709494749" lon="8.502847684286357"><ele>112.00000000000001</ele><time>2026-04-11T09:57:56Z</time></trkpt><trkpt lat="45.05757666755267" lon="8.50294227381964"><ele>112.0</ele><time>2026-04-11T09:57:57Z</time></trkpt><trkpt lat="45.05760087493444" lon="8.503044590803803"><ele>112.0</ele><time>2026-04-11T09:57:58Z</time></trkpt><trkpt lat="45.057624665079736" lon="8.503134899543358"><ele>112.0</ele><time>2026-04-11T09:58:01Z</time></trkpt><trkpt lat="45.05751186800379" lon="8.503164101096912"><ele>112.00000000000001</ele><time>2026-04-11T09:58:03Z</time></trkpt><trkpt lat="45.05743031780999" lon="8.503131281743876"><ele>112.0</ele><time>2026-04-11T09:58:04Z</time></trkpt><trkpt lat="45.05733506733375" lon="8.503127185813526"><ele>112.25</ele><time>2026-04-11T09:58:05Z</time></trkpt><trkpt lat="45.057223032085666" lon="8.503120945582145"><ele>112.5</ele><time>2026-04-11T09:58:06Z</time></trkpt><trkpt lat="45.057120958758524" lon="8.503114809822828"><ele>112.75</ele><time>2026-04-11T09:58:07Z</time></trkpt><trkpt lat="45.05700534494434" lon="8.503108959189856"><ele>113.0</ele><time>2026-04-11T09:58:08Z</time></trkpt><trkpt lat="45.056885135736174" lon="8.503099930079621"><ele>113.0</ele><time>2026-04-11T09:58:09Z</time></trkpt><trkpt lat="45.05676456989479" lon="8.503089868779295"><ele>113.0</ele><time>2026-04-11T09:58:10Z</time></trkpt><trkpt lat="45.056643888941124" lon="8.503078380971271"><ele>113.0</ele><time>2026-04-11T09:58:11Z</time></trkpt><trkpt lat="45.056529063131634" lon="8.503069349949616"><ele>113.0</ele><time>2026-04-11T09:58:12Z</time></trkpt><trkpt lat="45.05642381777467" lon="8.503057385048464"><ele>112.5</ele><time>2026-04-11T09:58:13Z</time></trkpt><trkpt lat="45.05631151062302" lon="8.503030006355841"><ele>112.0</ele><time>2026-04-11T09:58:14Z</time></trkpt><trkpt lat="45.05618961261107" lon="8.502988537227585"><ele>111.5</ele><time>2026-04-11T09:58:15Z</time></trkpt><trkpt lat="45.056046796652694" lon="8.502927784409277"><ele>111.0</ele><time>2026-04-11T09:58:16Z</time></trkpt><trkpt lat="45.055905952993854" lon="8.502873030684128"><ele>111.0</ele><time>2026-04-11T09:58:17Z</time></trkpt><trkpt lat="45.055770345331254" lon="8.50282330425187"><ele>111.0</ele><time>2026-04-11T09:58:18Z</time></trkpt><trkpt lat="45.055632766212156" lon="8.502772684935804"><ele>111.0</ele><time>2026-04-11T09:58:19Z</time></trkpt><trkpt lat="45.05548273508806" lon="8.50271566977839"><ele>111.0</ele><time>2026-04-11T09:58:20.001Z</time></trkpt><trkpt lat="45.05533565668073" lon="8.502657333210694"><ele>111.0</ele><time>2026-04-11T09:58:21.001Z</time></trkpt><trkpt lat="45.055193900102495" lon="8.502604726536727"><ele>111.0</ele><time>2026-04-11T09:58:22.001Z</time></trkpt><trkpt lat="45.055051517364326" lon="8.502555106128247"><ele>111.0</ele><time>2026-04-11T09:58:23.001Z</time></trkpt><trkpt lat="45.05490094046648" lon="8.502502991750502"><ele>111.0</ele><time>2026-04-11T09:58:24.001Z</time></trkpt><trkpt lat="45.054750340776" lon="8.50244913365017"><ele>111.0</ele><time>2026-04-11T09:58:25.001Z</time></trkpt><trkpt lat="45.05459447662485" lon="8.502392490622334"><ele>111.0</ele><time>2026-04-11T09:58:26.001Z</time></trkpt><trkpt lat="45.054436559852505" lon="8.502339182203372"><ele>111.0</ele><time>2026-04-11T09:58:27.001Z</time></trkpt><trkpt lat="45.054276930734815" lon="8.502282006983041"><ele>110.66666666666666</ele><time>2026-04-11T09:58:28.001Z</time></trkpt><trkpt lat="45.05411708969426" lon="8.502225377917382"><ele>110.33333333333333</ele><time>2026-04-11T09:58:29.001Z</time></trkpt><trkpt lat="45.053965845334616" lon="8.50216983367286"><ele>110.0</ele><time>2026-04-11T09:58:30.001Z</time></trkpt><trkpt lat="45.05382054294096" lon="8.50211644426975"><ele>110.33333333333333</ele><time>2026-04-11T09:58:31.001Z</time></trkpt><trkpt lat="45.05366777230581" lon="8.502059229798997"><ele>110.66666666666666</ele><time>2026-04-11T09:58:32.001Z</time></trkpt><trkpt lat="45.053516515745166" lon="8.502003148320936"><ele>111.0</ele><time>2026-04-11T09:58:33.001Z</time></trkpt><trkpt lat="45.05336433750947" lon="8.501948067644165"><ele>111.33333333333334</ele><time>2026-04-11T09:58:34.001Z</time></trkpt><trkpt lat="45.0532107677389" lon="8.501893085797947"><ele>111.66666666666667</ele><time>2026-04-11T09:58:35.001Z</time></trkpt><trkpt lat="45.05305678568429" lon="8.501838356056744"><ele>112.0</ele><time>2026-04-11T09:58:36.001Z</time></trkpt><trkpt lat="45.052902212994475" lon="8.501783123350377"><ele>112.0</ele><time>2026-04-11T09:58:37.001Z</time></trkpt><trkpt lat="45.05274828972364" lon="8.501726365074903"><ele>112.0</ele><time>2026-04-11T09:58:38.001Z</time></trkpt><trkpt lat="45.0525901701157" lon="8.501663495320049"><ele>112.0</ele><time>2026-04-11T09:58:39.001Z</time></trkpt><trkpt lat="45.05243007942215" lon="8.501600005801023"><ele>112.0</ele><time>2026-04-11T09:58:40.001Z</time></trkpt><trkpt lat="45.05227719691609" lon="8.501537697742892"><ele>112.0</ele><time>2026-04-11T09:58:41.001Z</time></trkpt><trkpt lat="45.05212016676091" lon="8.501472166451235"><ele>112.0</ele><time>2026-04-11T09:58:42.001Z</time></trkpt><trkpt lat="45.051964302150346" lon="8.501405265310673"><ele>112.0</ele><time>2026-04-11T09:58:43.001Z</time></trkpt><trkpt lat="45.05180849786532" lon="8.501340146532053"><ele>112.0</ele><time>2026-04-11T09:58:44.001Z</time></trkpt><trkpt lat="45.05165274035755" lon="8.501272689082297"><ele>112.0</ele><time>2026-04-11T09:58:45.001Z</time></trkpt><trkpt lat="45.051500223049054" lon="8.50120622821661"><ele>112.0</ele><time>2026-04-11T09:58:46.001Z</time></trkpt><trkpt lat="45.05135372143053" lon="8.501139953175066"><ele>112.0</ele><time>2026-04-11T09:58:47.001Z</time></trkpt><trkpt lat="45.05121110582325" lon="8.501081144105122"><ele>112.0</ele><time>2026-04-11T09:58:48.001Z</time></trkpt><trkpt lat="45.05106588295121" lon="8.50102183488998"><ele>112.0</ele><time>2026-04-11T09:58:49.001Z</time></trkpt><trkpt lat="45.050924900242336" lon="8.500964560446604"><ele>112.0</ele><time>2026-04-11T09:58:50.001Z</time></trkpt><trkpt lat="45.05079605598682" lon="8.500918975937578"><ele>112.0</ele><time>2026-04-11T09:58:51.001Z</time></trkpt><trkpt lat="45.05068243783584" lon="8.500888416188461"><ele>112.0</ele><time>2026-04-11T09:58:52.001Z</time></trkpt><trkpt lat="45.05057475527629" lon="8.500875774234544"><ele>112.0</ele><time>2026-04-11T09:58:53.001Z</time></trkpt><trkpt lat="45.0504732061333" lon="8.500884831160182"><ele>112.0</ele><time>2026-04-11T09:58:54.001Z</time></trkpt><trkpt lat="45.05036241884072" lon="8.500913195905062"><ele>112.0</ele><time>2026-04-11T09:58:55.001Z</time></trkpt><trkpt lat="45.05024585311474" lon="8.500956679325753"><ele>112.0</ele><time>2026-04-11T09:58:56.001Z</time></trkpt><trkpt lat="45.05012317368802" lon="8.501010108217772"><ele>112.0</ele><time>2026-04-11T09:58:57.001Z</time></trkpt><trkpt lat="45.04998606561252" lon="8.50106621758645"><ele>112.0</ele><time>2026-04-11T09:58:58.001Z</time></trkpt><trkpt lat="45.04984331099622" lon="8.501122253677785"><ele>112.0</ele><time>2026-04-11T09:58:59.001Z</time></trkpt><trkpt lat="45.04969901883865" lon="8.501176599437567"><ele>112.0</ele><time>2026-04-11T09:59:00.001Z</time></trkpt><trkpt lat="45.04956245550382" lon="8.501226916827262"><ele>112.19999999999999</ele><time>2026-04-11T09:59:01.001Z</time></trkpt><trkpt lat="45.0494481397587" lon="8.501287095043933"><ele>112.39999999999999</ele><time>2026-04-11T09:59:02.002Z</time></trkpt><trkpt lat="45.04934558101802" lon="8.501329281407303"><ele>112.60000000000001</ele><time>2026-04-11T09:59:03.002Z</time></trkpt><trkpt lat="45.04925576546977" lon="8.501389894204642"><ele>112.80000000000001</ele><time>2026-04-11T09:59:04.002Z</time></trkpt><trkpt lat="45.04916405290669" lon="8.501451853271504"><ele>113.0</ele><time>2026-04-11T09:59:05.002Z</time></trkpt><trkpt lat="45.04907501432088" lon="8.501521557157456"><ele>115.25</ele><time>2026-04-11T09:59:06.002Z</time></trkpt><trkpt lat="45.04898616425768" lon="8.501596505446493"><ele>117.5</ele><time>2026-04-11T09:59:07.002Z</time></trkpt><trkpt lat="45.048869264140805" lon="8.501639827678433"><ele>119.75</ele><time>2026-04-11T09:59:08.002Z</time></trkpt><trkpt lat="45.04876468224857" lon="8.501693427261289"><ele>122.0</ele><time>2026-04-11T09:59:09.002Z</time></trkpt><trkpt lat="45.048631382326306" lon="8.501715898757903"><ele>122.0</ele><time>2026-04-11T09:59:10.002Z</time></trkpt><trkpt lat="45.04849545348988" lon="8.501752386655655"><ele>122.0</ele><time>2026-04-11T09:59:11.002Z</time></trkpt><trkpt lat="45.04835476317311" lon="8.501795385492285"><ele>122.0</ele><time>2026-04-11T09:59:12.002Z</time></trkpt><trkpt lat="45.04821434246637" lon="8.501833342847974"><ele>122.0</ele><time>2026-04-11T09:59:13.002Z</time></trkpt><trkpt lat="45.048087438512944" lon="8.501878208717544"><ele>122.66666666666666</ele><time>2026-04-11T09:59:14.002Z</time></trkpt><trkpt lat="45.04798209130296" lon="8.50190977436821"><ele>123.33333333333333</ele><time>2026-04-11T09:59:15.002Z</time></trkpt><trkpt lat="45.04789109610453" lon="8.501923619847357"><ele>124.0</ele><time>2026-04-11T09:59:16.002Z</time></trkpt><trkpt lat="45.04780602845629" lon="8.501931165356059"><ele>124.66666666666666</ele><time>2026-04-11T09:59:17.002Z</time></trkpt><trkpt lat="45.04774069229612" lon="8.50187072898589"><ele>125.33333333333333</ele><time>2026-04-11T09:59:18.002Z</time></trkpt><trkpt lat="45.047694692941285" lon="8.501796523697218"><ele>126.0</ele><time>2026-04-11T09:59:19.002Z</time></trkpt><trkpt lat="45.04765389337316" lon="8.501716132750369"><ele>126.0</ele><time>2026-04-11T09:59:20.002Z</time></trkpt><trkpt lat="45.04758849861956" lon="8.501616315302186"><ele>126.0</ele><time>2026-04-11T09:59:21.002Z</time></trkpt><trkpt lat="45.04754985045788" lon="8.501494182172083"><ele>126.0</ele><time>2026-04-11T09:59:22.002Z</time></trkpt><trkpt lat="45.047515278968724" lon="8.501396593827748"><ele>126.0</ele><time>2026-04-11T09:59:23.002Z</time></trkpt><trkpt lat="45.04744660458273" lon="8.501276154970192"><ele>126.0</ele><time>2026-04-11T09:59:25.002Z</time></trkpt><trkpt lat="45.0473944542722" lon="8.501185893536197"><ele>125.8</ele><time>2026-04-11T09:59:27.002Z</time></trkpt><trkpt lat="45.04733339974648" lon="8.501078460056368"><ele>125.6</ele><time>2026-04-11T09:59:29.002Z</time></trkpt><trkpt lat="45.047264201186515" lon="8.500957723665525"><ele>125.4</ele><time>2026-04-11T09:59:31.002Z</time></trkpt><trkpt lat="45.0472168414913" lon="8.50089137134287"><ele>125.2</ele><time>2026-04-11T09:59:32.002Z</time></trkpt><trkpt lat="45.04716092809431" lon="8.500801794318196"><ele>125.0</ele><time>2026-04-11T09:59:33.002Z</time></trkpt><trkpt lat="45.047104710110624" lon="8.500695039867814"><ele>124.99999999999999</ele><time>2026-04-11T09:59:34.002Z</time></trkpt><trkpt lat="45.04705129726784" lon="8.500589189704128"><ele>125.0</ele><time>2026-04-11T09:59:35.002Z</time></trkpt><trkpt lat="45.04699549795872" lon="8.50046349989536"><ele>125.0</ele><time>2026-04-11T09:59:36.002Z</time></trkpt><trkpt lat="45.04694537500594" lon="8.500345776895784"><ele>125.0</ele><time>2026-04-11T09:59:37.002Z</time></trkpt><trkpt lat="45.04689982441786" lon="8.50025231923673"><ele>124.99999999999999</ele><time>2026-04-11T09:59:38.002Z</time></trkpt><trkpt lat="45.04685828906778" lon="8.500172033039028"><ele>125.0</ele><time>2026-04-11T09:59:39.002Z</time></trkpt><trkpt lat="45.04681132519883" lon="8.500101535759473"><ele>125.0</ele><time>2026-04-11T09:59:40.002Z</time></trkpt><trkpt lat="45.04674648732196" lon="8.500022454793193"><ele>125.0</ele><time>2026-04-11T09:59:41.002Z</time></trkpt><trkpt lat="45.04666925903332" lon="8.49993991787039"><ele>125.0</ele><time>2026-04-11T09:59:42.002Z</time></trkpt><trkpt lat="45.04658293340912" lon="8.499844020096923"><ele>125.0</ele><time>2026-04-11T09:59:43.002Z</time></trkpt><trkpt lat="45.046499909438374" lon="8.49975398291158"><ele>125.0</ele><time>2026-04-11T09:59:44.002Z</time></trkpt><trkpt lat="45.04642296400245" lon="8.499664440894971"><ele>125.75</ele><time>2026-04-11T09:59:45.002Z</time></trkpt><trkpt lat="45.046335033640574" lon="8.499560238150723"><ele>126.5</ele><time>2026-04-11T09:59:46.003Z</time></trkpt><trkpt lat="45.04624451661136" lon="8.499452425362854"><ele>127.25</ele><time>2026-04-11T09:59:47.003Z</time></trkpt><trkpt lat="45.046156989582094" lon="8.499349114343879"><ele>128.0</ele><time>2026-04-11T09:59:48.003Z</time></trkpt><trkpt lat="45.04607532229659" lon="8.49925786280985"><ele>128.0</ele><time>2026-04-11T09:59:49.003Z</time></trkpt><trkpt lat="45.04599470645103" lon="8.499174413721738"><ele>128.0</ele><time>2026-04-11T09:59:50.003Z</time></trkpt><trkpt lat="45.04590066072048" lon="8.499076813286694"><ele>128.0</ele><time>2026-04-11T09:59:51.003Z</time></trkpt><trkpt lat="45.04580408299176" lon="8.498987304414378"><ele>128.0</ele><time>2026-04-11T09:59:52Z</time></trkpt><trkpt lat="45.04570402228992" lon="8.498903015057715"><ele>128.0</ele><time>2026-04-11T09:59:53Z</time></trkpt><trkpt lat="45.04560294871535" lon="8.498827070085502"><ele>128.25</ele><time>2026-04-11T09:59:54Z</time></trkpt><trkpt lat="45.045494607455566" lon="8.498751097221014"><ele>128.5</ele><time>2026-04-11T09:59:55Z</time></trkpt><trkpt lat="45.045382954861836" lon="8.498688143065415"><ele>128.75</ele><time>2026-04-11T09:59:56Z</time></trkpt><trkpt lat="45.04526424752472" lon="8.498631542721048"><ele>129.0</ele><time>2026-04-11T09:59:57Z</time></trkpt><trkpt lat="45.04513698635258" lon="8.498575467673225"><ele>129.0</ele><time>2026-04-11T09:59:58Z</time></trkpt><trkpt lat="45.04500083390951" lon="8.498516859756588"><ele>129.0</ele><time>2026-04-11T09:59:59Z</time></trkpt><trkpt lat="45.04486316500426" lon="8.498458318098523"><ele>129.0</ele><time>2026-04-11T10:00:00Z</time></trkpt><trkpt lat="45.044735150102795" lon="8.498407597359867"><ele>129.0</ele><time>2026-04-11T10:00:01Z</time></trkpt><trkpt lat="45.04460964800614" lon="8.498357081564876"><ele>129.0</ele><time>2026-04-11T10:00:02Z</time></trkpt><trkpt lat="45.04448477470591" lon="8.498307330558402"><ele>129.0</ele><time>2026-04-11T10:00:03Z</time></trkpt><trkpt lat="45.04436277258888" lon="8.498261237341532"><ele>129.0</ele><time>2026-04-11T10:00:04Z</time></trkpt><trkpt lat="45.04423432125758" lon="8.498214311583132"><ele>129.0</ele><time>2026-04-11T10:00:05Z</time></trkpt><trkpt lat="45.044113434459376" lon="8.498168005340652"><ele>129.0</ele><time>2026-04-11T10:00:06Z</time></trkpt><trkpt lat="45.043991739709" lon="8.498125055132281"><ele>129.0</ele><time>2026-04-11T10:00:07Z</time></trkpt><trkpt lat="45.043875328159224" lon="8.498069148085268"><ele>129.0</ele><time>2026-04-11T10:00:08Z</time></trkpt><trkpt lat="45.043770070271755" lon="8.4980230620775"><ele>129.0</ele><time>2026-04-11T10:00:09Z</time></trkpt><trkpt lat="45.04367459094235" lon="8.49798100428675"><ele>129.0</ele><time>2026-04-11T10:00:10Z</time></trkpt><trkpt lat="45.04359065352783" lon="8.49793484146759"><ele>129.0</ele><time>2026-04-11T10:00:11Z</time></trkpt><trkpt lat="45.043519509980435" lon="8.497875217159704"><ele>129.0</ele><time>2026-04-11T10:00:12Z</time></trkpt><trkpt lat="45.043467523332026" lon="8.497793131547356"><ele>129.0</ele><time>2026-04-11T10:00:13Z</time></trkpt><trkpt lat="45.04343543695992" lon="8.497696531699022"><ele>129.0</ele><time>2026-04-11T10:00:14Z</time></trkpt><trkpt lat="45.043417782595675" lon="8.497585190799859"><ele>129.0</ele><time>2026-04-11T10:00:15Z</time></trkpt><trkpt lat="45.04339697148324" lon="8.497492805967024"><ele>129.33333333333334</ele><time>2026-04-11T10:00:16.001Z</time></trkpt><trkpt lat="45.04330557407144" lon="8.497396246107167"><ele>129.66666666666666</ele><time>2026-04-11T10:00:18.001Z</time></trkpt><trkpt lat="45.04324203454979" lon="8.497391203336397"><ele>130.0</ele><time>2026-04-11T10:00:19.001Z</time></trkpt><trkpt lat="45.0431683453768" lon="8.497408740708568"><ele>130.33333333333331</ele><time>2026-04-11T10:00:20.001Z</time></trkpt><trkpt lat="45.04308017143519" lon="8.49742076235121"><ele>130.66666666666666</ele><time>2026-04-11T10:00:21.001Z</time></trkpt><trkpt lat="45.04297607224517" lon="8.497425608824631"><ele>131.0</ele><time>2026-04-11T10:00:22.001Z</time></trkpt><trkpt lat="45.04286492649058" lon="8.497423235895027"><ele>131.0</ele><time>2026-04-11T10:00:23.001Z</time></trkpt><trkpt lat="45.04275026911312" lon="8.497409425895816"><ele>131.0</ele><time>2026-04-11T10:00:24.001Z</time></trkpt><trkpt lat="45.042635851137156" lon="8.49737852936452"><ele>131.0</ele><time>2026-04-11T10:00:25.001Z</time></trkpt><trkpt lat="45.04251917353042" lon="8.497334139517958"><ele>131.0</ele><time>2026-04-11T10:00:26.001Z</time></trkpt><trkpt lat="45.04241281588761" lon="8.497303193979315"><ele>130.75</ele><time>2026-04-11T10:00:27.001Z</time></trkpt><trkpt lat="45.04230285300856" lon="8.497285380013764"><ele>130.5</ele><time>2026-04-11T10:00:28.001Z</time></trkpt><trkpt lat="45.04218506721036" lon="8.497266863477643"><ele>130.25</ele><time>2026-04-11T10:00:29.001Z</time></trkpt><trkpt lat="45.04206300122888" lon="8.4972557405337"><ele>130.0</ele><time>2026-04-11T10:00:30.001Z</time></trkpt><trkpt lat="45.04194406431314" lon="8.497248148862125"><ele>130.0</ele><time>2026-04-11T10:00:31.001Z</time></trkpt><trkpt lat="45.04182388620742" lon="8.49724660246777"><ele>130.0</ele><time>2026-04-11T10:00:32.001Z</time></trkpt><trkpt lat="45.04171052807468" lon="8.497238826555463"><ele>130.0</ele><time>2026-04-11T10:00:33.001Z</time></trkpt><trkpt lat="45.041593108447515" lon="8.497235580098318"><ele>130.0</ele><time>2026-04-11T10:00:34.001Z</time></trkpt><trkpt lat="45.04147168857552" lon="8.497232452521848"><ele>130.5</ele><time>2026-04-11T10:00:35.001Z</time></trkpt><trkpt lat="45.041350945876744" lon="8.497231931472935"><ele>131.0</ele><time>2026-04-11T10:00:36.001Z</time></trkpt><trkpt lat="45.04123155586007" lon="8.497235252926588"><ele>131.5</ele><time>2026-04-11T10:00:37.001Z</time></trkpt><trkpt lat="45.0411122851823" lon="8.49723985500127"><ele>132.0</ele><time>2026-04-11T10:00:38.001Z</time></trkpt><trkpt lat="45.04099414648435" lon="8.497246323188945"><ele>132.0</ele><time>2026-04-11T10:00:39.001Z</time></trkpt><trkpt lat="45.040881496822905" lon="8.497252388989908"><ele>132.0</ele><time>2026-04-11T10:00:40.001Z</time></trkpt><trkpt lat="45.04077909011214" lon="8.497251456852187"><ele>132.0</ele><time>2026-04-11T10:00:41.001Z</time></trkpt><trkpt lat="45.04067101581959" lon="8.497255644064358"><ele>132.0</ele><time>2026-04-11T10:00:42.001Z</time></trkpt><trkpt lat="45.0405635553145" lon="8.497270032096349"><ele>132.0</ele><time>2026-04-11T10:00:43.001Z</time></trkpt><trkpt lat="45.04046198929037" lon="8.497298089751682"><ele>132.2</ele><time>2026-04-11T10:00:44.001Z</time></trkpt><trkpt lat="45.0403729706983" lon="8.497335134532985"><ele>132.39999999999998</ele><time>2026-04-11T10:00:45.001Z</time></trkpt><trkpt lat="45.04028891398586" lon="8.497367629915152"><ele>132.60000000000002</ele><time>2026-04-11T10:00:46.001Z</time></trkpt><trkpt lat="45.0401847120824" lon="8.49739981042599"><ele>132.8</ele><time>2026-04-11T10:00:47.001Z</time></trkpt><trkpt lat="45.04007761423304" lon="8.497427283171783"><ele>133.0</ele><time>2026-04-11T10:00:48.001Z</time></trkpt><trkpt lat="45.03996165856743" lon="8.49745017287713"><ele>133.0</ele><time>2026-04-11T10:00:49.001Z</time></trkpt><trkpt lat="45.03984984203114" lon="8.49747183976727"><ele>133.0</ele><time>2026-04-11T10:00:50.001Z</time></trkpt><trkpt lat="45.039739816677844" lon="8.497490044662534"><ele>133.0</ele><time>2026-04-11T10:00:51.001Z</time></trkpt><trkpt lat="45.03962884052785" lon="8.497493504162398"><ele>133.0</ele><time>2026-04-11T10:00:52.001Z</time></trkpt><trkpt lat="45.03953120952802" lon="8.497496734531431"><ele>133.0</ele><time>2026-04-11T10:00:53.001Z</time></trkpt><trkpt lat="45.03944248904474" lon="8.497507773369106"><ele>133.0</ele><time>2026-04-11T10:00:54.001Z</time></trkpt><trkpt lat="45.039344778672415" lon="8.497520607602292"><ele>133.0</ele><time>2026-04-11T10:00:55.001Z</time></trkpt><trkpt lat="45.03923407989145" lon="8.497539027888898"><ele>133.0</ele><time>2026-04-11T10:00:56.001Z</time></trkpt><trkpt lat="45.03911963378005" lon="8.497555611699774"><ele>133.0</ele><time>2026-04-11T10:00:57.001Z</time></trkpt><trkpt lat="45.03900343406721" lon="8.497566003286458"><ele>133.0</ele><time>2026-04-11T10:00:58.001Z</time></trkpt><trkpt lat="45.038887237714654" lon="8.497577003539156"><ele>132.75</ele><time>2026-04-11T10:00:59.001Z</time></trkpt><trkpt lat="45.03876786937879" lon="8.497589559100666"><ele>132.5</ele><time>2026-04-11T10:01:00.001Z</time></trkpt><trkpt lat="45.0386568580167" lon="8.497614503846943"><ele>132.25</ele><time>2026-04-11T10:01:01.001Z</time></trkpt><trkpt lat="45.03854333741493" lon="8.49763891421329"><ele>132.0</ele><time>2026-04-11T10:01:02.001Z</time></trkpt><trkpt lat="45.03843435314994" lon="8.49762747918895"><ele>132.0</ele><time>2026-04-11T10:01:03.001Z</time></trkpt><trkpt lat="45.03832542682666" lon="8.49761684504267"><ele>132.0</ele><time>2026-04-11T10:01:04.001Z</time></trkpt><trkpt lat="45.03820917169144" lon="8.497617928283818"><ele>132.0</ele><time>2026-04-11T10:01:05.001Z</time></trkpt><trkpt lat="45.03808352180445" lon="8.497595729380924"><ele>132.0</ele><time>2026-04-11T10:01:06.002Z</time></trkpt><trkpt lat="45.03795483502373" lon="8.497581698641124"><ele>131.75</ele><time>2026-04-11T10:01:07.002Z</time></trkpt><trkpt lat="45.03782651342155" lon="8.497564552401787"><ele>131.5</ele><time>2026-04-11T10:01:08.002Z</time></trkpt><trkpt lat="45.03769847499551" lon="8.497541316304977"><ele>131.25</ele><time>2026-04-11T10:01:09.002Z</time></trkpt><trkpt lat="45.037574060746515" lon="8.497521216365172"><ele>131.0</ele><time>2026-04-11T10:01:10.002Z</time></trkpt><trkpt lat="45.03744360287234" lon="8.49750422223839"><ele>130.75</ele><time>2026-04-11T10:01:11.002Z</time></trkpt><trkpt lat="45.03731146837999" lon="8.497485039253448"><ele>130.5</ele><time>2026-04-11T10:01:12.002Z</time></trkpt><trkpt lat="45.03717690385107" lon="8.497465877150425"><ele>130.25</ele><time>2026-04-11T10:01:13.002Z</time></trkpt><trkpt lat="45.037049086149146" lon="8.497444758366552"><ele>130.0</ele><time>2026-04-11T10:01:14.002Z</time></trkpt><trkpt lat="45.03692095072238" lon="8.497427456362207"><ele>130.0</ele><time>2026-04-11T10:01:15.002Z</time></trkpt><trkpt lat="45.03679129930884" lon="8.497408115048193"><ele>130.0</ele><time>2026-04-11T10:01:16.002Z</time></trkpt><trkpt lat="45.03666160988211" lon="8.497388951907462"><ele>130.0</ele><time>2026-04-11T10:01:17.002Z</time></trkpt><trkpt lat="45.03653510860357" lon="8.497375569089494"><ele>130.0</ele><time>2026-04-11T10:01:18.002Z</time></trkpt><trkpt lat="45.03641692546026" lon="8.497355818623562"><ele>130.2</ele><time>2026-04-11T10:01:19.002Z</time></trkpt><trkpt lat="45.036305982837206" lon="8.49731522534623"><ele>130.4</ele><time>2026-04-11T10:01:20.002Z</time></trkpt><trkpt lat="45.0361983768138" lon="8.497313080025107"><ele>130.6</ele><time>2026-04-11T10:01:21.002Z</time></trkpt><trkpt lat="45.03609178712105" lon="8.49729191210897"><ele>130.8</ele><time>2026-04-11T10:01:22.002Z</time></trkpt><trkpt lat="45.03598491573518" lon="8.497269722871543"><ele>131.0</ele><time>2026-04-11T10:01:23.002Z</time></trkpt><trkpt lat="45.03589332086503" lon="8.497247975051879"><ele>130.83333333333331</ele><time>2026-04-11T10:01:24.002Z</time></trkpt><trkpt lat="45.035796298779275" lon="8.497224214586652"><ele>130.66666666666666</ele><time>2026-04-11T10:01:25.002Z</time></trkpt><trkpt lat="45.03571070601149" lon="8.497202077076324"><ele>130.5</ele><time>2026-04-11T10:01:26.002Z</time></trkpt><trkpt lat="45.0356359822652" lon="8.497170419607627"><ele>130.33333333333334</ele><time>2026-04-11T10:01:27.002Z</time></trkpt><trkpt lat="45.03557337362583" lon="8.497109850302762"><ele>130.16666666666669</ele><time>2026-04-11T10:01:28.002Z</time></trkpt><trkpt lat="45.035480189826224" lon="8.497059832702757"><ele>130.0</ele><time>2026-04-11T10:01:30.002Z</time></trkpt><trkpt lat="45.035420073036086" lon="8.496982648926384"><ele>130.0</ele><time>2026-04-11T10:01:32.002Z</time></trkpt><trkpt lat="45.035315167687735" lon="8.496822847141077"><ele>130.0</ele><time>2026-04-11T10:01:34.002Z</time></trkpt><trkpt lat="45.03526450278712" lon="8.496710935645568"><ele>130.0</ele><time>2026-04-11T10:01:35.002Z</time></trkpt><trkpt lat="45.03522226374661" lon="8.496572944877903"><ele>130.0</ele><time>2026-04-11T10:01:36.002Z</time></trkpt><trkpt lat="45.03519652699395" lon="8.496416302291491"><ele>130.0</ele><time>2026-04-11T10:01:37.002Z</time></trkpt><trkpt lat="45.035153826444265" lon="8.496255809125742"><ele>130.0</ele><time>2026-04-11T10:01:38.002Z</time></trkpt><trkpt lat="45.035098454882046" lon="8.49608238340743"><ele>130.0</ele><time>2026-04-11T10:01:39.002Z</time></trkpt><trkpt lat="45.03504776918673" lon="8.495892827671414"><ele>130.0</ele><time>2026-04-11T10:01:40.002Z</time></trkpt><trkpt lat="45.03500303528262" lon="8.49572140224719"><ele>130.0</ele><time>2026-04-11T10:01:41.002Z</time></trkpt><trkpt lat="45.0349576028286" lon="8.495551028520666"><ele>130.0</ele><time>2026-04-11T10:01:42.002Z</time></trkpt><trkpt lat="45.03490999105734" lon="8.495367422179683"><ele>130.0</ele><time>2026-04-11T10:01:43.002Z</time></trkpt><trkpt lat="45.03485989185361" lon="8.495175901132471"><ele>130.0</ele><time>2026-04-11T10:01:44.002Z</time></trkpt><trkpt lat="45.03480707320093" lon="8.49497888604346"><ele>130.0</ele><time>2026-04-11T10:01:45.002Z</time></trkpt><trkpt lat="45.03476189692194" lon="8.494786610682565"><ele>130.0</ele><time>2026-04-11T10:01:46.002Z</time></trkpt><trkpt lat="45.034701351762614" lon="8.494603953501027"><ele>130.0</ele><time>2026-04-11T10:01:47.002Z</time></trkpt><trkpt lat="45.03464483700745" lon="8.494410432998539"><ele>130.0</ele><time>2026-04-11T10:01:48.002Z</time></trkpt><trkpt lat="45.03459132815945" lon="8.494230006406607"><ele>130.25</ele><time>2026-04-11T10:01:49.002Z</time></trkpt><trkpt lat="45.03453609802313" lon="8.494049028160381"><ele>130.5</ele><time>2026-04-11T10:01:50.002Z</time></trkpt><trkpt lat="45.03447886254988" lon="8.49387599026483"><ele>130.75</ele><time>2026-04-11T10:01:51.002Z</time></trkpt><trkpt lat="45.03441693782427" lon="8.493711682106794"><ele>131.0</ele><time>2026-04-11T10:01:52.003Z</time></trkpt><trkpt lat="45.03434297019" lon="8.493543327775582"><ele>131.0</ele><time>2026-04-11T10:01:53.003Z</time></trkpt><trkpt lat="45.034265679144006" lon="8.493380097754242"><ele>131.0</ele><time>2026-04-11T10:01:54.003Z</time></trkpt><trkpt lat="45.034179053220456" lon="8.493210832859974"><ele>131.0</ele><time>2026-04-11T10:01:55.003Z</time></trkpt><trkpt lat="45.034092161797126" lon="8.493036717575523"><ele>131.0</ele><time>2026-04-11T10:01:56.003Z</time></trkpt><trkpt lat="45.034009309042666" lon="8.492846089825841"><ele>131.33333333333331</ele><time>2026-04-11T10:01:57.003Z</time></trkpt><trkpt lat="45.03391398372424" lon="8.492679931611244"><ele>131.66666666666666</ele><time>2026-04-11T10:01:58.001Z</time></trkpt><trkpt lat="45.033827302308914" lon="8.492499626775633"><ele>132.0</ele><time>2026-04-11T10:01:59.001Z</time></trkpt><trkpt lat="45.033747948048266" lon="8.492313707111675"><ele>132.0</ele><time>2026-04-11T10:02:00.001Z</time></trkpt><trkpt lat="45.03367396226502" lon="8.492121706491616"><ele>132.0</ele><time>2026-04-11T10:02:01.001Z</time></trkpt><trkpt lat="45.03360572469765" lon="8.491929007423515"><ele>132.0</ele><time>2026-04-11T10:02:02.001Z</time></trkpt><trkpt lat="45.03353900610893" lon="8.491754021086253"><ele>132.0</ele><time>2026-04-11T10:02:03.001Z</time></trkpt><trkpt lat="45.033477449916624" lon="8.49157445364598"><ele>132.0</ele><time>2026-04-11T10:02:04.001Z</time></trkpt><trkpt lat="45.033419721404336" lon="8.491392674823093"><ele>132.0</ele><time>2026-04-11T10:02:05.001Z</time></trkpt><trkpt lat="45.033362281133414" lon="8.491200557694357"><ele>132.0</ele><time>2026-04-11T10:02:06.001Z</time></trkpt><trkpt lat="45.033314626075935" lon="8.491017314955476"><ele>132.0</ele><time>2026-04-11T10:02:07.001Z</time></trkpt><trkpt lat="45.03326850649403" lon="8.490825833584156"><ele>132.0</ele><time>2026-04-11T10:02:08Z</time></trkpt><trkpt lat="45.03322235075388" lon="8.490628904362074"><ele>132.0</ele><time>2026-04-11T10:02:09.001Z</time></trkpt><trkpt lat="45.03317642230906" lon="8.490432334985416"><ele>132.0</ele><time>2026-04-11T10:02:10Z</time></trkpt><trkpt lat="45.03313094962297" lon="8.490231725525932"><ele>132.0</ele><time>2026-04-11T10:02:11Z</time></trkpt><trkpt lat="45.03308535538615" lon="8.490026248391159"><ele>132.0</ele><time>2026-04-11T10:02:12Z</time></trkpt><trkpt lat="45.03304081102697" lon="8.48982201719184"><ele>132.0</ele><time>2026-04-11T10:02:13Z</time></trkpt><trkpt lat="45.032993606744526" lon="8.489609158420715"><ele>132.0</ele><time>2026-04-11T10:02:14Z</time></trkpt><trkpt lat="45.03295032408172" lon="8.489409927160498"><ele>132.0</ele><time>2026-04-11T10:02:15Z</time></trkpt><trkpt lat="45.03290494699505" lon="8.489211507966633"><ele>132.0</ele><time>2026-04-11T10:02:16.001Z</time></trkpt><trkpt lat="45.03285825423788" lon="8.489024283198834"><ele>132.0</ele><time>2026-04-11T10:02:17.001Z</time></trkpt><trkpt lat="45.032797629296574" lon="8.488820399981803"><ele>132.0</ele><time>2026-04-11T10:02:18.001Z</time></trkpt><trkpt lat="45.03273889662924" lon="8.488632538154928"><ele>132.33333333333334</ele><time>2026-04-11T10:02:19.001Z</time></trkpt><trkpt lat="45.03267676845508" lon="8.48844272283924"><ele>132.66666666666669</ele><time>2026-04-11T10:02:20.001Z</time></trkpt><trkpt lat="45.03260593271554" lon="8.488248308874896"><ele>133.0</ele><time>2026-04-11T10:02:21.001Z</time></trkpt><trkpt lat="45.0325281191446" lon="8.488048028614035"><ele>133.0</ele><time>2026-04-11T10:02:22.001Z</time></trkpt><trkpt lat="45.03245102514049" lon="8.487836636078207"><ele>133.0</ele><time>2026-04-11T10:02:23.001Z</time></trkpt><trkpt lat="45.03238367217053" lon="8.487635183861865"><ele>133.0</ele><time>2026-04-11T10:02:24.001Z</time></trkpt><trkpt lat="45.03231689312805" lon="8.487432536434971"><ele>133.0</ele><time>2026-04-11T10:02:25.001Z</time></trkpt><trkpt lat="45.0322507579657" lon="8.487232452345314"><ele>133.0</ele><time>2026-04-11T10:02:26.001Z</time></trkpt><trkpt lat="45.032187491500444" lon="8.487039470639619"><ele>133.0</ele><time>2026-04-11T10:02:27.001Z</time></trkpt><trkpt lat="45.03212526974657" lon="8.486846527592666"><ele>133.0</ele><time>2026-04-11T10:02:28.001Z</time></trkpt><trkpt lat="45.032057840319574" lon="8.48665154503323"><ele>133.0</ele><time>2026-04-11T10:02:29.001Z</time></trkpt><trkpt lat="45.03198833218953" lon="8.486457677522605"><ele>133.0</ele><time>2026-04-11T10:02:30.001Z</time></trkpt><trkpt lat="45.03191845657026" lon="8.486268714557783"><ele>133.5</ele><time>2026-04-11T10:02:31.001Z</time></trkpt><trkpt lat="45.031848212885606" lon="8.486094110873134"><ele>134.0</ele><time>2026-04-11T10:02:32.001Z</time></trkpt><trkpt lat="45.0317734238412" lon="8.485922855516389"><ele>134.5</ele><time>2026-04-11T10:02:33.001Z</time></trkpt><trkpt lat="45.03169826015799" lon="8.48576798056319"><ele>135.0</ele><time>2026-04-11T10:02:34.001Z</time></trkpt><trkpt lat="45.03160932362725" lon="8.485601201037792"><ele>135.0</ele><time>2026-04-11T10:02:35.001Z</time></trkpt><trkpt lat="45.0315194552283" lon="8.485429806047428"><ele>135.0</ele><time>2026-04-11T10:02:36.001Z</time></trkpt><trkpt lat="45.03143131705714" lon="8.485260968827177"><ele>135.0</ele><time>2026-04-11T10:02:37.001Z</time></trkpt><trkpt lat="45.03135012579721" lon="8.485098009136456"><ele>135.0</ele><time>2026-04-11T10:02:38.001Z</time></trkpt><trkpt lat="45.03126859771173" lon="8.484942626856599"><ele>135.0</ele><time>2026-04-11T10:02:39.001Z</time></trkpt><trkpt lat="45.03118978916318" lon="8.48479640286993"><ele>135.0</ele><time>2026-04-11T10:02:40.001Z</time></trkpt><trkpt lat="45.031114489508155" lon="8.48465742804392"><ele>135.0</ele><time>2026-04-11T10:02:41.001Z</time></trkpt><trkpt lat="45.031036780251505" lon="8.484530357198919"><ele>135.0</ele><time>2026-04-11T10:02:42.001Z</time></trkpt><trkpt lat="45.03094771020432" lon="8.48441045386124"><ele>134.75</ele><time>2026-04-11T10:02:43.001Z</time></trkpt><trkpt lat="45.03085485717739" lon="8.484302211964803"><ele>134.5</ele><time>2026-04-11T10:02:44.001Z</time></trkpt><trkpt lat="45.03074869357458" lon="8.484190942307192"><ele>134.25</ele><time>2026-04-11T10:02:45.001Z</time></trkpt><trkpt lat="45.030627794373274" lon="8.484069178190454"><ele>134.0</ele><time>2026-04-11T10:02:46.001Z</time></trkpt><trkpt lat="45.03049742398146" lon="8.483942863203572"><ele>134.66666666666666</ele><time>2026-04-11T10:02:47.001Z</time></trkpt><trkpt lat="45.03036696764488" lon="8.483818558064646"><ele>135.33333333333334</ele><time>2026-04-11T10:02:48.001Z</time></trkpt><trkpt lat="45.03024649507" lon="8.483696657891947"><ele>136.0</ele><time>2026-04-11T10:02:49.001Z</time></trkpt><trkpt lat="45.030123833514736" lon="8.483580840367397"><ele>136.0</ele><time>2026-04-11T10:02:50.001Z</time></trkpt><trkpt lat="45.0300174745468" lon="8.48347598016346"><ele>136.0</ele><time>2026-04-11T10:02:51.001Z</time></trkpt><trkpt lat="45.02991342622256" lon="8.483370586880183"><ele>136.0</ele><time>2026-04-11T10:02:52.001Z</time></trkpt><trkpt lat="45.02981569602298" lon="8.483268128418732"><ele>136.0</ele><time>2026-04-11T10:02:53.001Z</time></trkpt><trkpt lat="45.029727335954306" lon="8.483173679335577"><ele>135.8</ele><time>2026-04-11T10:02:54.001Z</time></trkpt><trkpt lat="45.02964706220613" lon="8.48309187962012"><ele>135.6</ele><time>2026-04-11T10:02:55.001Z</time></trkpt><trkpt lat="45.029574072407506" lon="8.483006279295731"><ele>135.4</ele><time>2026-04-11T10:02:56.001Z</time></trkpt><trkpt lat="45.02949958445034" lon="8.482927584019384"><ele>135.2</ele><time>2026-04-11T10:02:57.001Z</time></trkpt><trkpt lat="45.029416979295654" lon="8.48285117197559"><ele>135.0</ele><time>2026-04-11T10:02:58.001Z</time></trkpt><trkpt lat="45.029334334675134" lon="8.48277273795283"><ele>134.0</ele><time>2026-04-11T10:02:59.001Z</time></trkpt><trkpt lat="45.02926067118127" lon="8.482705748686856"><ele>133.0</ele><time>2026-04-11T10:03:00.001Z</time></trkpt><trkpt lat="45.02918035262237" lon="8.482639929182806"><ele>132.0</ele><time>2026-04-11T10:03:01.001Z</time></trkpt><trkpt lat="45.02908999644394" lon="8.482583275883183"><ele>131.0</ele><time>2026-04-11T10:03:02.001Z</time></trkpt><trkpt lat="45.02899804738242" lon="8.482531065561682"><ele>130.0</ele><time>2026-04-11T10:03:03.001Z</time></trkpt><trkpt lat="45.02891814373048" lon="8.482493272518068"><ele>129.5</ele><time>2026-04-11T10:03:04.001Z</time></trkpt><trkpt lat="45.02884388381629" lon="8.482460670324164"><ele>129.0</ele><time>2026-04-11T10:03:05.001Z</time></trkpt><trkpt lat="45.02877770860852" lon="8.48243602029602"><ele>128.5</ele><time>2026-04-11T10:03:06.001Z</time></trkpt><trkpt lat="45.02868652472521" lon="8.482396844745917"><ele>128.0</ele><time>2026-04-11T10:03:08.001Z</time></trkpt><trkpt lat="45.02870789648097" lon="8.482244685240566"><ele>127.50000000000001</ele><time>2026-04-11T10:03:13.002Z</time></trkpt><trkpt lat="45.02876526779512" lon="8.482195793594295"><ele>127.0</ele><time>2026-04-11T10:03:14.002Z</time></trkpt><trkpt lat="45.02882176818212" lon="8.482012914575172"><ele>126.19999999999999</ele><time>2026-04-11T10:03:16.002Z</time></trkpt><trkpt lat="45.02883338235138" lon="8.481903341572094"><ele>125.39999999999999</ele><time>2026-04-11T10:03:17.002Z</time></trkpt><trkpt lat="45.02884726664031" lon="8.481747241315379"><ele>124.60000000000001</ele><time>2026-04-11T10:03:18.002Z</time></trkpt><trkpt lat="45.028862735798576" lon="8.481585909346657"><ele>123.80000000000001</ele><time>2026-04-11T10:03:19.002Z</time></trkpt><trkpt lat="45.02888270690888" lon="8.481414830764678"><ele>123.0</ele><time>2026-04-11T10:03:20.002Z</time></trkpt><trkpt lat="45.02890282123861" lon="8.481240019412006"><ele>122.75</ele><time>2026-04-11T10:03:21.002Z</time></trkpt><trkpt lat="45.02892255413161" lon="8.48105405653871"><ele>122.5</ele><time>2026-04-11T10:03:22.002Z</time></trkpt><trkpt lat="45.028941644723915" lon="8.480875176283707"><ele>122.25</ele><time>2026-04-11T10:03:23.002Z</time></trkpt><trkpt lat="45.028958020609615" lon="8.480698362937977"><ele>122.0</ele><time>2026-04-11T10:03:24.002Z</time></trkpt><trkpt lat="45.02898317636178" lon="8.480511530905831"><ele>122.5</ele><time>2026-04-11T10:03:25.002Z</time></trkpt><trkpt lat="45.02900179759491" lon="8.480337824177804"><ele>123.0</ele><time>2026-04-11T10:03:26.002Z</time></trkpt><trkpt lat="45.02902305462834" lon="8.480168088123282"><ele>123.5</ele><time>2026-04-11T10:03:27.002Z</time></trkpt><trkpt lat="45.029045834161764" lon="8.47999430442999"><ele>124.0</ele><time>2026-04-11T10:03:28.002Z</time></trkpt><trkpt lat="45.029063324455116" lon="8.479844601771354"><ele>124.0</ele><time>2026-04-11T10:03:29.002Z</time></trkpt><trkpt lat="45.02907945946402" lon="8.479713895035488"><ele>124.0</ele><time>2026-04-11T10:03:30.002Z</time></trkpt><trkpt lat="45.02911624126988" lon="8.479576240552385"><ele>124.0</ele><time>2026-04-11T10:03:31.002Z</time></trkpt><trkpt lat="45.029114460841114" lon="8.479454682296312"><ele>124.0</ele><time>2026-04-11T10:03:32.002Z</time></trkpt><trkpt lat="45.02912931280485" lon="8.479333832128118"><ele>124.0</ele><time>2026-04-11T10:03:33.002Z</time></trkpt><trkpt lat="45.02916977146792" lon="8.47918545914435"><ele>123.33333333333334</ele><time>2026-04-11T10:03:35.002Z</time></trkpt><trkpt lat="45.02918584416812" lon="8.479083719058679"><ele>122.66666666666667</ele><time>2026-04-11T10:03:36.002Z</time></trkpt><trkpt lat="45.02922369079087" lon="8.478990963926481"><ele>122.0</ele><time>2026-04-11T10:03:37.002Z</time></trkpt><trkpt lat="45.02925721120443" lon="8.478893683300797"><ele>121.33333333333334</ele><time>2026-04-11T10:03:38.002Z</time></trkpt><trkpt lat="45.029260025246856" lon="8.478724800526193"><ele>120.66666666666667</ele><time>2026-04-11T10:03:40.002Z</time></trkpt><trkpt lat="45.02923538493061" lon="8.478623762856643"><ele>120.0</ele><time>2026-04-11T10:03:41.002Z</time></trkpt><trkpt lat="45.02919113785021" lon="8.478534402774805"><ele>120.2</ele><time>2026-04-11T10:03:42.002Z</time></trkpt><trkpt lat="45.02913647247603" lon="8.478447642510607"><ele>120.4</ele><time>2026-04-11T10:03:43.002Z</time></trkpt><trkpt lat="45.02906271524285" lon="8.478357601833224"><ele>120.6</ele><time>2026-04-11T10:03:44.002Z</time></trkpt><trkpt lat="45.028983737541786" lon="8.478291182918284"><ele>120.8</ele><time>2026-04-11T10:03:45.002Z</time></trkpt><trkpt lat="45.02890531862943" lon="8.478245896090087"><ele>121.0</ele><time>2026-04-11T10:03:46.002Z</time></trkpt><trkpt lat="45.02882444171803" lon="8.478179343822452"><ele>121.0</ele><time>2026-04-11T10:03:47.002Z</time></trkpt><trkpt lat="45.028747226473385" lon="8.478124272280686"><ele>121.0</ele><time>2026-04-11T10:03:48.002Z</time></trkpt><trkpt lat="45.02865637832649" lon="8.478059572677939"><ele>121.0</ele><time>2026-04-11T10:03:49.002Z</time></trkpt><trkpt lat="45.02854892212954" lon="8.477983209783167"><ele>121.0</ele><time>2026-04-11T10:03:50.002Z</time></trkpt><trkpt lat="45.02845470042544" lon="8.477885305594267"><ele>121.0</ele><time>2026-04-11T10:03:51.002Z</time></trkpt><trkpt lat="45.02836932635718" lon="8.477820313895235"><ele>121.00000000000001</ele><time>2026-04-11T10:03:52.002Z</time></trkpt><trkpt lat="45.02828238839354" lon="8.477752257006667"><ele>121.0</ele><time>2026-04-11T10:03:53.002Z</time></trkpt><trkpt lat="45.028201233558015" lon="8.477687357954466"><ele>121.0</ele><time>2026-04-11T10:03:54.002Z</time></trkpt><trkpt lat="45.02812720104156" lon="8.477622515454199"><ele>121.0</ele><time>2026-04-11T10:03:55.002Z</time></trkpt><trkpt lat="45.02806492685279" lon="8.477555063642122"><ele>121.00000000000001</ele><time>2026-04-11T10:03:56.002Z</time></trkpt><trkpt lat="45.02801739703646" lon="8.477486973519316"><ele>121.0</ele><time>2026-04-11T10:03:57.002Z</time></trkpt><trkpt lat="45.027974721330466" lon="8.477336377641093"><ele>121.0</ele><time>2026-04-11T10:03:59.002Z</time></trkpt><trkpt lat="45.02797802224934" lon="8.477210604724833"><ele>121.0</ele><time>2026-04-11T10:04:00.002Z</time></trkpt><trkpt lat="45.02797029251845" lon="8.477057975447742"><ele>121.0</ele><time>2026-04-11T10:04:01.003Z</time></trkpt><trkpt lat="45.027979898297104" lon="8.476878942713858"><ele>121.0</ele><time>2026-04-11T10:04:02.003Z</time></trkpt><trkpt lat="45.027983616949314" lon="8.476710470073245"><ele>121.0</ele><time>2026-04-11T10:04:03.003Z</time></trkpt><trkpt lat="45.02798882952942" lon="8.476556779411334"><ele>121.33333333333334</ele><time>2026-04-11T10:04:04Z</time></trkpt><trkpt lat="45.02798854957665" lon="8.476442825490112"><ele>121.66666666666667</ele><time>2026-04-11T10:04:05Z</time></trkpt><trkpt lat="45.02798757780726" lon="8.476347725884349"><ele>122.0</ele><time>2026-04-11T10:04:06Z</time></trkpt><trkpt lat="45.02799094921706" lon="8.476252421574305"><ele>122.33333333333334</ele><time>2026-04-11T10:04:09Z</time></trkpt><trkpt lat="45.027879448821615" lon="8.47624963994098"><ele>122.66666666666667</ele><time>2026-04-11T10:04:11Z</time></trkpt><trkpt lat="45.027806559351944" lon="8.476262445623671"><ele>123.0</ele><time>2026-04-11T10:04:12Z</time></trkpt><trkpt lat="45.02771152823061" lon="8.476284817597174"><ele>123.0</ele><time>2026-04-11T10:04:13Z</time></trkpt><trkpt lat="45.02760814055921" lon="8.47629935696338"><ele>123.0</ele><time>2026-04-11T10:04:14Z</time></trkpt><trkpt lat="45.02747805500636" lon="8.476306245300135"><ele>123.0</ele><time>2026-04-11T10:04:15Z</time></trkpt><trkpt lat="45.02734096924886" lon="8.47631581025574"><ele>123.0</ele><time>2026-04-11T10:04:16Z</time></trkpt><trkpt lat="45.02719615577946" lon="8.476331018442643"><ele>123.25</ele><time>2026-04-11T10:04:17Z</time></trkpt><trkpt lat="45.027041477329384" lon="8.476347941463674"><ele>123.5</ele><time>2026-04-11T10:04:18Z</time></trkpt><trkpt lat="45.02688330117155" lon="8.476350653289034"><ele>123.75</ele><time>2026-04-11T10:04:19Z</time></trkpt><trkpt lat="45.02675337572051" lon="8.47635409791645"><ele>124.0</ele><time>2026-04-11T10:04:20Z</time></trkpt><trkpt lat="45.02662227503871" lon="8.476345649888584"><ele>124.25</ele><time>2026-04-11T10:04:21Z</time></trkpt><trkpt lat="45.02650148191848" lon="8.476302590533805"><ele>124.5</ele><time>2026-04-11T10:04:22Z</time></trkpt><trkpt lat="45.02638909227009" lon="8.476276543236605"><ele>124.75</ele><time>2026-04-11T10:04:23Z</time></trkpt><trkpt lat="45.02627842731018" lon="8.476252142824325"><ele>125.0</ele><time>2026-04-11T10:04:24Z</time></trkpt><trkpt lat="45.026181751927126" lon="8.476220096420759"><ele>125.0</ele><time>2026-04-11T10:04:25Z</time></trkpt><trkpt lat="45.02608748311811" lon="8.476171267359843"><ele>125.0</ele><time>2026-04-11T10:04:26Z</time></trkpt><trkpt lat="45.025994284437424" lon="8.476101119294519"><ele>125.0</ele><time>2026-04-11T10:04:27Z</time></trkpt><trkpt lat="45.025898292067595" lon="8.476013178925863"><ele>125.0</ele><time>2026-04-11T10:04:28Z</time></trkpt><trkpt lat="45.0257954358736" lon="8.47592031973667"><ele>125.0</ele><time>2026-04-11T10:04:29Z</time></trkpt><trkpt lat="45.02568118498564" lon="8.475809125036474"><ele>125.0</ele><time>2026-04-11T10:04:30Z</time></trkpt><trkpt lat="45.02555971243438" lon="8.475690122675974"><ele>125.0</ele><time>2026-04-11T10:04:31Z</time></trkpt><trkpt lat="45.025437905548436" lon="8.475578765847656"><ele>125.0</ele><time>2026-04-11T10:04:32Z</time></trkpt><trkpt lat="45.02531375840202" lon="8.475480952783508"><ele>125.0</ele><time>2026-04-11T10:04:33Z</time></trkpt><trkpt lat="45.025178267468526" lon="8.47538699586247"><ele>125.25</ele><time>2026-04-11T10:04:34Z</time></trkpt><trkpt lat="45.02503756918602" lon="8.47528877639426"><ele>125.5</ele><time>2026-04-11T10:04:35Z</time></trkpt><trkpt lat="45.02490599190325" lon="8.475205895720453"><ele>125.75</ele><time>2026-04-11T10:04:36Z</time></trkpt><trkpt lat="45.02478694009968" lon="8.475130581561546"><ele>126.0</ele><time>2026-04-11T10:04:37Z</time></trkpt><trkpt lat="45.02466620390903" lon="8.475059901479757"><ele>126.25</ele><time>2026-04-11T10:04:38Z</time></trkpt><trkpt lat="45.024538154358595" lon="8.474991022576722"><ele>126.5</ele><time>2026-04-11T10:04:39Z</time></trkpt><trkpt lat="45.024409150877766" lon="8.474934061998773"><ele>126.75</ele><time>2026-04-11T10:04:40Z</time></trkpt><trkpt lat="45.0242758721229" lon="8.474885865074642"><ele>127.0</ele><time>2026-04-11T10:04:41.001Z</time></trkpt><trkpt lat="45.0241460016038" lon="8.474850790036138"><ele>126.5</ele><time>2026-04-11T10:04:42.001Z</time></trkpt><trkpt lat="45.02401620085288" lon="8.474818841307526"><ele>126.0</ele><time>2026-04-11T10:04:43.001Z</time></trkpt><trkpt lat="45.023895370509585" lon="8.474779428514857"><ele>125.5</ele><time>2026-04-11T10:04:44.001Z</time></trkpt><trkpt lat="45.02378377311929" lon="8.474725319261925"><ele>125.0</ele><time>2026-04-11T10:04:45.001Z</time></trkpt><trkpt lat="45.02367661203755" lon="8.474650659781982"><ele>125.0</ele><time>2026-04-11T10:04:46.001Z</time></trkpt><trkpt lat="45.023569501688016" lon="8.474552774052757"><ele>125.0</ele><time>2026-04-11T10:04:47.001Z</time></trkpt><trkpt lat="45.02345845165357" lon="8.474439782510878"><ele>125.0</ele><time>2026-04-11T10:04:48.001Z</time></trkpt><trkpt lat="45.02334988846268" lon="8.474348198873344"><ele>125.0</ele><time>2026-04-11T10:04:49.001Z</time></trkpt><trkpt lat="45.02322684688751" lon="8.4742603833955"><ele>125.0</ele><time>2026-04-11T10:04:50.001Z</time></trkpt><trkpt lat="45.02308215152137" lon="8.474191598865415"><ele>125.0</ele><time>2026-04-11T10:04:51.001Z</time></trkpt><trkpt lat="45.022923620762704" lon="8.474115197833683"><ele>125.0</ele><time>2026-04-11T10:04:52.001Z</time></trkpt><trkpt lat="45.02277937743614" lon="8.47404577356165"><ele>125.0</ele><time>2026-04-11T10:04:53.001Z</time></trkpt><trkpt lat="45.0226429932396" lon="8.473981010235956"><ele>125.0</ele><time>2026-04-11T10:04:54.001Z</time></trkpt><trkpt lat="45.022505577240885" lon="8.473913879154813"><ele>125.0</ele><time>2026-04-11T10:04:55.001Z</time></trkpt><trkpt lat="45.02236534075851" lon="8.473839913228414"><ele>125.0</ele><time>2026-04-11T10:04:56.001Z</time></trkpt><trkpt lat="45.022227564648205" lon="8.473752938849847"><ele>125.66666666666666</ele><time>2026-04-11T10:04:57.001Z</time></trkpt><trkpt lat="45.02209168229419" lon="8.473652857978117"><ele>126.33333333333334</ele><time>2026-04-11T10:04:58.001Z</time></trkpt><trkpt lat="45.02195558795723" lon="8.473547670809527"><ele>127.0</ele><time>2026-04-11T10:04:59.001Z</time></trkpt><trkpt lat="45.02183114925815" lon="8.473446618042738"><ele>127.0</ele><time>2026-04-11T10:05:00.001Z</time></trkpt><trkpt lat="45.021710308439665" lon="8.473351235074537"><ele>127.0</ele><time>2026-04-11T10:05:01.001Z</time></trkpt><trkpt lat="45.02158118495085" lon="8.473263902296765"><ele>127.0</ele><time>2026-04-11T10:05:02.001Z</time></trkpt><trkpt lat="45.021449772132755" lon="8.473175845263434"><ele>127.0</ele><time>2026-04-11T10:05:03.001Z</time></trkpt><trkpt lat="45.02133850180555" lon="8.473102885828078"><ele>127.0</ele><time>2026-04-11T10:05:04.001Z</time></trkpt><trkpt lat="45.021229769723234" lon="8.47302439721017"><ele>127.0</ele><time>2026-04-11T10:05:05.001Z</time></trkpt><trkpt lat="45.02112004470205" lon="8.472934455726204"><ele>127.0</ele><time>2026-04-11T10:05:06.001Z</time></trkpt><trkpt lat="45.021014626083485" lon="8.472827364886522"><ele>127.0</ele><time>2026-04-11T10:05:07.001Z</time></trkpt><trkpt lat="45.0209114638699" lon="8.472702249472476"><ele>127.0</ele><time>2026-04-11T10:05:08.001Z</time></trkpt><trkpt lat="45.02081745632691" lon="8.472567746556365"><ele>127.0</ele><time>2026-04-11T10:05:09.001Z</time></trkpt><trkpt lat="45.02073325831732" lon="8.472425150929983"><ele>127.0</ele><time>2026-04-11T10:05:10.001Z</time></trkpt><trkpt lat="45.02065272689708" lon="8.472276052759243"><ele>127.0</ele><time>2026-04-11T10:05:11.001Z</time></trkpt><trkpt lat="45.02057274735711" lon="8.472130543703045"><ele>127.25</ele><time>2026-04-11T10:05:12.001Z</time></trkpt><trkpt lat="45.020488606830654" lon="8.471991930085327"><ele>127.5</ele><time>2026-04-11T10:05:13.001Z</time></trkpt><trkpt lat="45.02039597211719" lon="8.471855265824185"><ele>127.75</ele><time>2026-04-11T10:05:14.001Z</time></trkpt><trkpt lat="45.02029518751748" lon="8.471731171102615"><ele>128.0</ele><time>2026-04-11T10:05:15.001Z</time></trkpt><trkpt lat="45.020183871127784" lon="8.471605279817927"><ele>128.0</ele><time>2026-04-11T10:05:16.001Z</time></trkpt><trkpt lat="45.020073431593055" lon="8.471495191389835"><ele>128.0</ele><time>2026-04-11T10:05:17.001Z</time></trkpt><trkpt lat="45.01995503630952" lon="8.471387947459485"><ele>128.0</ele><time>2026-04-11T10:05:18.001Z</time></trkpt><trkpt lat="45.019835814588646" lon="8.471291516135489"><ele>128.0</ele><time>2026-04-11T10:05:19.001Z</time></trkpt><trkpt lat="45.01971110465912" lon="8.471198827894675"><ele>128.0</ele><time>2026-04-11T10:05:20.001Z</time></trkpt><trkpt lat="45.019577807088204" lon="8.47110012157173"><ele>128.0</ele><time>2026-04-11T10:05:21.001Z</time></trkpt><trkpt lat="45.01943877581632" lon="8.471006651461032"><ele>128.0</ele><time>2026-04-11T10:05:22.001Z</time></trkpt><trkpt lat="45.01930002858261" lon="8.470915488626032"><ele>128.0</ele><time>2026-04-11T10:05:23.001Z</time></trkpt><trkpt lat="45.01916757213002" lon="8.470822705187079"><ele>128.0</ele><time>2026-04-11T10:05:24.001Z</time></trkpt><trkpt lat="45.01903821668361" lon="8.470740649423371"><ele>128.0</ele><time>2026-04-11T10:05:25.001Z</time></trkpt><trkpt lat="45.01891555523919" lon="8.470666229361681"><ele>128.0</ele><time>2026-04-11T10:05:26.001Z</time></trkpt><trkpt lat="45.01879709573407" lon="8.470594602118151"><ele>127.75</ele><time>2026-04-11T10:05:27.001Z</time></trkpt><trkpt lat="45.01868818907766" lon="8.47052029608127"><ele>127.5</ele><time>2026-04-11T10:05:28.001Z</time></trkpt><trkpt lat="45.01859317869004" lon="8.470436840083744"><ele>127.25</ele><time>2026-04-11T10:05:29.002Z</time></trkpt><trkpt lat="45.018501258195" lon="8.470336067054898"><ele>127.0</ele><time>2026-04-11T10:05:30.002Z</time></trkpt><trkpt lat="45.018415998117256" lon="8.470215461294046"><ele>127.0</ele><time>2026-04-11T10:05:31.002Z</time></trkpt><trkpt lat="45.01833237307559" lon="8.470071674786062"><ele>127.0</ele><time>2026-04-11T10:05:32.002Z</time></trkpt><trkpt lat="45.01824447274537" lon="8.469902153155338"><ele>127.0</ele><time>2026-04-11T10:05:33.002Z</time></trkpt><trkpt lat="45.01815786209162" lon="8.469715836317285"><ele>127.0</ele><time>2026-04-11T10:05:34.002Z</time></trkpt><trkpt lat="45.018076646049956" lon="8.469513104263136"><ele>127.0</ele><time>2026-04-11T10:05:35.002Z</time></trkpt><trkpt lat="45.01800366645265" lon="8.469310639854951"><ele>127.0</ele><time>2026-04-11T10:05:36.002Z</time></trkpt><trkpt lat="45.01793247021705" lon="8.469108736890647"><ele>127.0</ele><time>2026-04-11T10:05:37.002Z</time></trkpt><trkpt lat="45.017869680139725" lon="8.468925650509934"><ele>127.75</ele><time>2026-04-11T10:05:38.002Z</time></trkpt><trkpt lat="45.0178131005457" lon="8.468744417883029"><ele>128.5</ele><time>2026-04-11T10:05:39.002Z</time></trkpt><trkpt lat="45.01776114255191" lon="8.468572293192771"><ele>129.25</ele><time>2026-04-11T10:05:40.002Z</time></trkpt><trkpt lat="45.01771717724007" lon="8.468398052447316"><ele>130.0</ele><time>2026-04-11T10:05:41.002Z</time></trkpt><trkpt lat="45.01767454394407" lon="8.468221782033439"><ele>130.0</ele><time>2026-04-11T10:05:42.002Z</time></trkpt><trkpt lat="45.01763069645103" lon="8.468052618691534"><ele>130.0</ele><time>2026-04-11T10:05:43.002Z</time></trkpt><trkpt lat="45.017582381897824" lon="8.467898101076354"><ele>130.0</ele><time>2026-04-11T10:05:44.002Z</time></trkpt><trkpt lat="45.01751733722438" lon="8.467742623981566"><ele>130.0</ele><time>2026-04-11T10:05:45.002Z</time></trkpt><trkpt lat="45.017447344123845" lon="8.467561694845267"><ele>129.66666666666669</ele><time>2026-04-11T10:05:46.002Z</time></trkpt><trkpt lat="45.017365854823744" lon="8.467372477954651"><ele>129.33333333333334</ele><time>2026-04-11T10:05:47.002Z</time></trkpt><trkpt lat="45.01727614786384" lon="8.467163450271034"><ele>129.0</ele><time>2026-04-11T10:05:48.002Z</time></trkpt><trkpt lat="45.01719288693153" lon="8.466957322567572"><ele>129.0</ele><time>2026-04-11T10:05:49.002Z</time></trkpt><trkpt lat="45.01711773344651" lon="8.466781698504182"><ele>129.0</ele><time>2026-04-11T10:05:50.002Z</time></trkpt><trkpt lat="45.017049229280836" lon="8.466627141826097"><ele>129.0</ele><time>2026-04-11T10:05:51.002Z</time></trkpt><trkpt lat="45.01697447122782" lon="8.466493528304605"><ele>129.0</ele><time>2026-04-11T10:05:52.002Z</time></trkpt><trkpt lat="45.01689915057762" lon="8.466372569302365"><ele>129.0</ele><time>2026-04-11T10:05:53.002Z</time></trkpt><trkpt lat="45.0168124029744" lon="8.466255948295744"><ele>129.0</ele><time>2026-04-11T10:05:54.002Z</time></trkpt><trkpt lat="45.0167252205936" lon="8.466145015436576"><ele>129.0</ele><time>2026-04-11T10:05:55.002Z</time></trkpt><trkpt lat="45.01662358631529" lon="8.466049947247706"><ele>129.0</ele><time>2026-04-11T10:05:56.002Z</time></trkpt><trkpt lat="45.01650792714949" lon="8.465957315769352"><ele>129.0</ele><time>2026-04-11T10:05:57.002Z</time></trkpt><trkpt lat="45.0163809287421" lon="8.465854961672381"><ele>129.0</ele><time>2026-04-11T10:05:58.002Z</time></trkpt><trkpt lat="45.016255979882494" lon="8.465737014414909"><ele>129.0</ele><time>2026-04-11T10:05:59.002Z</time></trkpt><trkpt lat="45.01613826042272" lon="8.465612308513894"><ele>129.0</ele><time>2026-04-11T10:06:00.002Z</time></trkpt><trkpt lat="45.01603248421439" lon="8.46548381909263"><ele>129.5</ele><time>2026-04-11T10:06:01.002Z</time></trkpt><trkpt lat="45.015926073319214" lon="8.465348905391052"><ele>130.0</ele><time>2026-04-11T10:06:02.002Z</time></trkpt><trkpt lat="45.01581874378023" lon="8.465206636842687"><ele>130.5</ele><time>2026-04-11T10:06:03.002Z</time></trkpt><trkpt lat="45.015712941824354" lon="8.465055536259266"><ele>131.0</ele><time>2026-04-11T10:06:04.002Z</time></trkpt><trkpt lat="45.015615861021956" lon="8.464907107653039"><ele>131.0</ele><time>2026-04-11T10:06:05.002Z</time></trkpt><trkpt lat="45.01553337078475" lon="8.46476755460289"><ele>131.0</ele><time>2026-04-11T10:06:06.002Z</time></trkpt><trkpt lat="45.01546646507983" lon="8.464625686373749"><ele>131.0</ele><time>2026-04-11T10:06:07.002Z</time></trkpt><trkpt lat="45.01540618358583" lon="8.46445942774928"><ele>131.0</ele><time>2026-04-11T10:06:08.002Z</time></trkpt><trkpt lat="45.01535062478027" lon="8.464281745694631"><ele>131.5</ele><time>2026-04-11T10:06:09.002Z</time></trkpt><trkpt lat="45.01529349900436" lon="8.464105451057305"><ele>132.0</ele><time>2026-04-11T10:06:10Z</time></trkpt><trkpt lat="45.01523465407602" lon="8.463947584893251"><ele>132.5</ele><time>2026-04-11T10:06:11Z</time></trkpt><trkpt lat="45.01517101963421" lon="8.463805390037088"><ele>133.0</ele><time>2026-04-11T10:06:12Z</time></trkpt><trkpt lat="45.01510601854466" lon="8.463683056275766"><ele>133.0</ele><time>2026-04-11T10:06:13Z</time></trkpt><trkpt lat="45.015046734361015" lon="8.463579098816936"><ele>133.0</ele><time>2026-04-11T10:06:14Z</time></trkpt><trkpt lat="45.01500074231429" lon="8.463506825778426"><ele>133.0</ele><time>2026-04-11T10:06:15Z</time></trkpt><trkpt lat="45.014955291894815" lon="8.463431573981044"><ele>133.0</ele><time>2026-04-11T10:06:17Z</time></trkpt><trkpt lat="45.01491914022112" lon="8.46330553677434"><ele>133.0</ele><time>2026-04-11T10:06:20Z</time></trkpt><trkpt lat="45.01488747911977" lon="8.463215344467816"><ele>133.0</ele><time>2026-04-11T10:06:21Z</time></trkpt><trkpt lat="45.01484684924145" lon="8.463099603437765"><ele>132.75</ele><time>2026-04-11T10:06:22Z</time></trkpt><trkpt lat="45.01470384767204" lon="8.463041803442515"><ele>132.5</ele><time>2026-04-11T10:06:23Z</time></trkpt><trkpt lat="45.014624715396806" lon="8.462916458228726"><ele>132.25</ele><time>2026-04-11T10:06:24Z</time></trkpt><trkpt lat="45.01453736926931" lon="8.462763422303398"><ele>132.0</ele><time>2026-04-11T10:06:25Z</time></trkpt><trkpt lat="45.01445568025778" lon="8.462611979875499"><ele>132.0</ele><time>2026-04-11T10:06:26Z</time></trkpt><trkpt lat="45.01437720591442" lon="8.46246307205584"><ele>132.0</ele><time>2026-04-11T10:06:27Z</time></trkpt><trkpt lat="45.01429213824558" lon="8.46230651739405"><ele>132.0</ele><time>2026-04-11T10:06:28Z</time></trkpt><trkpt lat="45.014205923908065" lon="8.462141329125782"><ele>132.0</ele><time>2026-04-11T10:06:29Z</time></trkpt><trkpt lat="45.01412428159854" lon="8.461973111341573"><ele>131.5</ele><time>2026-04-11T10:06:30Z</time></trkpt><trkpt lat="45.01405853425634" lon="8.461818032433774"><ele>131.0</ele><time>2026-04-11T10:06:31Z</time></trkpt><trkpt lat="45.014001225713024" lon="8.461676593161384"><ele>130.5</ele><time>2026-04-11T10:06:32Z</time></trkpt><trkpt lat="45.01394270392859" lon="8.461521846259005"><ele>130.0</ele><time>2026-04-11T10:06:33Z</time></trkpt><trkpt lat="45.013884156275786" lon="8.461355475531208"><ele>130.4</ele><time>2026-04-11T10:06:34Z</time></trkpt><trkpt lat="45.01383009826972" lon="8.461201982449003"><ele>130.8</ele><time>2026-04-11T10:06:35.001Z</time></trkpt><trkpt lat="45.01378168380058" lon="8.461064514896618"><ele>131.2</ele><time>2026-04-11T10:06:36.001Z</time></trkpt><trkpt lat="45.013738510191374" lon="8.4609374266927"><ele>131.6</ele><time>2026-04-11T10:06:37.001Z</time></trkpt><trkpt lat="45.01369943010253" lon="8.46082405895229"><ele>132.0</ele><time>2026-04-11T10:06:38.001Z</time></trkpt><trkpt lat="45.013656887610566" lon="8.460737973935878"><ele>132.0</ele><time>2026-04-11T10:06:39.001Z</time></trkpt><trkpt lat="45.013601951206475" lon="8.460682337774394"><ele>132.0</ele><time>2026-04-11T10:06:40.001Z</time></trkpt><trkpt lat="45.013536993556144" lon="8.460660986385792"><ele>132.0</ele><time>2026-04-11T10:06:41.001Z</time></trkpt><trkpt lat="45.013465716316915" lon="8.460671480744148"><ele>132.0</ele><time>2026-04-11T10:06:42.001Z</time></trkpt><trkpt lat="45.01338856570938" lon="8.460714927862298"><ele>132.0</ele><time>2026-04-11T10:06:43.001Z</time></trkpt><trkpt lat="45.01329331162065" lon="8.460776718060844"><ele>132.0</ele><time>2026-04-11T10:06:44.001Z</time></trkpt><trkpt lat="45.01319899594405" lon="8.460814248444192"><ele>132.0</ele><time>2026-04-11T10:06:45.001Z</time></trkpt><trkpt lat="45.013127161088306" lon="8.46080081893607"><ele>132.0</ele><time>2026-04-11T10:06:46.001Z</time></trkpt><trkpt lat="45.013066991067575" lon="8.460746841400125"><ele>132.0</ele><time>2026-04-11T10:06:47.001Z</time></trkpt><trkpt lat="45.01301490218209" lon="8.460660796781129"><ele>132.0</ele><time>2026-04-11T10:06:48.001Z</time></trkpt><trkpt lat="45.01297407818698" lon="8.460567210830163"><ele>132.0</ele><time>2026-04-11T10:06:49.001Z</time></trkpt><trkpt lat="45.012924782654636" lon="8.460459773283134"><ele>132.0</ele><time>2026-04-11T10:06:50.001Z</time></trkpt><trkpt lat="45.012859686053545" lon="8.460336981146082"><ele>132.0</ele><time>2026-04-11T10:06:51.001Z</time></trkpt><trkpt lat="45.01279037485695" lon="8.46020555088189"><ele>132.0</ele><time>2026-04-11T10:06:52.001Z</time></trkpt><trkpt lat="45.012736028291876" lon="8.460090036529417"><ele>132.0</ele><time>2026-04-11T10:06:53.001Z</time></trkpt><trkpt lat="45.01269613574208" lon="8.459978653636371"><ele>132.0</ele><time>2026-04-11T10:06:54.001Z</time></trkpt><trkpt lat="45.01266186771589" lon="8.459874463757538"><ele>132.0</ele><time>2026-04-11T10:06:55.001Z</time></trkpt><trkpt lat="45.01263258706475" lon="8.459782287875884"><ele>132.0</ele><time>2026-04-11T10:06:56.001Z</time></trkpt><trkpt lat="45.01257802971213" lon="8.459630443276673"><ele>132.0</ele><time>2026-04-11T10:06:58.001Z</time></trkpt><trkpt lat="45.01251399591959" lon="8.459458251164607"><ele>132.0</ele><time>2026-04-11T10:07:00.001Z</time></trkpt><trkpt lat="45.01247503231326" lon="8.459338603028945"><ele>132.0</ele><time>2026-04-11T10:07:01.001Z</time></trkpt><trkpt lat="45.01242937951382" lon="8.459179581998455"><ele>131.5</ele><time>2026-04-11T10:07:02.001Z</time></trkpt><trkpt lat="45.012382206890024" lon="8.45901737169129"><ele>131.0</ele><time>2026-04-11T10:07:03.001Z</time></trkpt><trkpt lat="45.01234211019766" lon="8.458863904028407"><ele>130.5</ele><time>2026-04-11T10:07:04.001Z</time></trkpt><trkpt lat="45.01230479788857" lon="8.458717454594975"><ele>130.0</ele><time>2026-04-11T10:07:05.001Z</time></trkpt><trkpt lat="45.01226641573036" lon="8.458555469821373"><ele>130.0</ele><time>2026-04-11T10:07:06.001Z</time></trkpt><trkpt lat="45.012236434025986" lon="8.458387370544626"><ele>130.0</ele><time>2026-04-11T10:07:07.001Z</time></trkpt><trkpt lat="45.01222193089826" lon="8.458234079301079"><ele>130.0</ele><time>2026-04-11T10:07:08.001Z</time></trkpt><trkpt lat="45.01221953166349" lon="8.458098089921451"><ele>130.0</ele><time>2026-04-11T10:07:09.001Z</time></trkpt><trkpt lat="45.012234936928685" lon="8.457975131482145"><ele>130.0</ele><time>2026-04-11T10:07:10.001Z</time></trkpt><trkpt lat="45.01226698836857" lon="8.457855618064272"><ele>130.16666666666669</ele><time>2026-04-11T10:07:11.001Z</time></trkpt><trkpt lat="45.01231776092724" lon="8.457751807003977"><ele>130.33333333333334</ele><time>2026-04-11T10:07:12.001Z</time></trkpt><trkpt lat="45.0123699863134" lon="8.457658689497269"><ele>130.5</ele><time>2026-04-11T10:07:13.001Z</time></trkpt><trkpt lat="45.012399341191035" lon="8.457566313437864"><ele>130.66666666666666</ele><time>2026-04-11T10:07:14.001Z</time></trkpt><trkpt lat="45.01240008868697" lon="8.457468311676479"><ele>130.83333333333331</ele><time>2026-04-11T10:07:15.001Z</time></trkpt><trkpt lat="45.01237121480053" lon="8.457366137114459"><ele>131.0</ele><time>2026-04-11T10:07:16.001Z</time></trkpt><trkpt lat="45.01231763356453" lon="8.457251807714837"><ele>131.0</ele><time>2026-04-11T10:07:17.001Z</time></trkpt><trkpt lat="45.01224177979594" lon="8.457121247324567"><ele>131.0</ele><time>2026-04-11T10:07:18.001Z</time></trkpt><trkpt lat="45.01215682419091" lon="8.45696758333638"><ele>131.0</ele><time>2026-04-11T10:07:19.001Z</time></trkpt><trkpt lat="45.01207144152659" lon="8.456818821468703"><ele>131.0</ele><time>2026-04-11T10:07:20.001Z</time></trkpt><trkpt lat="45.01199691494059" lon="8.456682919438366"><ele>130.5</ele><time>2026-04-11T10:07:21.001Z</time></trkpt><trkpt lat="45.01192331869046" lon="8.456541643372132"><ele>130.0</ele><time>2026-04-11T10:07:22.001Z</time></trkpt><trkpt lat="45.01185291745105" lon="8.456396460737126"><ele>129.5</ele><time>2026-04-11T10:07:23.001Z</time></trkpt><trkpt lat="45.01178160511418" lon="8.456246690647015"><ele>129.0</ele><time>2026-04-11T10:07:24.001Z</time></trkpt><trkpt lat="45.011714536846604" lon="8.456099316156076"><ele>129.0</ele><time>2026-04-11T10:07:25.001Z</time></trkpt><trkpt lat="45.01165130746808" lon="8.455957717579304"><ele>129.0</ele><time>2026-04-11T10:07:26.001Z</time></trkpt><trkpt lat="45.01159598728308" lon="8.455817968932006"><ele>129.0</ele><time>2026-04-11T10:07:27.001Z</time></trkpt><trkpt lat="45.01155365339982" lon="8.455701177765725"><ele>129.0</ele><time>2026-04-11T10:07:28.001Z</time></trkpt><trkpt lat="45.0115162773664" lon="8.455610912921816"><ele>129.0</ele><time>2026-04-11T10:07:29.001Z</time></trkpt><trkpt lat="45.01148733318956" lon="8.455524879866857"><ele>129.33333333333334</ele><time>2026-04-11T10:07:30.001Z</time></trkpt><trkpt lat="45.011447875536064" lon="8.455428971378867"><ele>129.66666666666666</ele><time>2026-04-11T10:07:31.001Z</time></trkpt><trkpt lat="45.0113988092397" lon="8.455325352629334"><ele>130.0</ele><time>2026-04-11T10:07:32.001Z</time></trkpt><trkpt lat="45.01135079844657" lon="8.455226898436498"><ele>130.33333333333331</ele><time>2026-04-11T10:07:33.002Z</time></trkpt><trkpt lat="45.011302706416124" lon="8.455118158200117"><ele>130.66666666666666</ele><time>2026-04-11T10:07:34.002Z</time></trkpt><trkpt lat="45.011246417722234" lon="8.45499310279575"><ele>131.0</ele><time>2026-04-11T10:07:35.002Z</time></trkpt><trkpt lat="45.01120366078069" lon="8.454897890233303"><ele>131.0</ele><time>2026-04-11T10:07:36.002Z</time></trkpt><trkpt lat="45.01115553460245" lon="8.454773600167748"><ele>131.0</ele><time>2026-04-11T10:07:37.002Z</time></trkpt><trkpt lat="45.01112380232789" lon="8.454663448077314"><ele>131.0</ele><time>2026-04-11T10:07:38.002Z</time></trkpt><trkpt lat="45.011103591719674" lon="8.454565605509798"><ele>131.0</ele><time>2026-04-11T10:07:39.002Z</time></trkpt><trkpt lat="45.01107832905865" lon="8.454462687415123"><ele>131.0</ele><time>2026-04-11T10:07:40.002Z</time></trkpt><trkpt lat="45.011041538172194" lon="8.45433249745142"><ele>131.0</ele><time>2026-04-11T10:07:41.002Z</time></trkpt><trkpt lat="45.01099644457109" lon="8.454201030566775"><ele>131.0</ele><time>2026-04-11T10:07:42.002Z</time></trkpt><trkpt lat="45.01093089501234" lon="8.454076106494876"><ele>131.0</ele><time>2026-04-11T10:07:43.002Z</time></trkpt><trkpt lat="45.01085419284452" lon="8.453948097392466"><ele>131.0</ele><time>2026-04-11T10:07:44.002Z</time></trkpt><trkpt lat="45.01077928465229" lon="8.453809566311293"><ele>131.0</ele><time>2026-04-11T10:07:45.002Z</time></trkpt><trkpt lat="45.01070499838748" lon="8.453668875703848"><ele>131.2</ele><time>2026-04-11T10:07:46.002Z</time></trkpt><trkpt lat="45.01063461804344" lon="8.45352772303456"><ele>131.39999999999998</ele><time>2026-04-11T10:07:47.002Z</time></trkpt><trkpt lat="45.01057061015075" lon="8.453399365985481"><ele>131.6</ele><time>2026-04-11T10:07:48.002Z</time></trkpt><trkpt lat="45.010508662666986" lon="8.453272754651287"><ele>131.79999999999998</ele><time>2026-04-11T10:07:49.002Z</time></trkpt><trkpt lat="45.010449951948175" lon="8.453150832813964"><ele>132.0</ele><time>2026-04-11T10:07:50.002Z</time></trkpt><trkpt lat="45.01040546955638" lon="8.453043452158854"><ele>132.16666666666666</ele><time>2026-04-11T10:07:51.002Z</time></trkpt><trkpt lat="45.0103580250278" lon="8.452939265632322"><ele>132.33333333333334</ele><time>2026-04-11T10:07:52.002Z</time></trkpt><trkpt lat="45.01031809425387" lon="8.452847182767764"><ele>132.5</ele><time>2026-04-11T10:07:53.002Z</time></trkpt><trkpt lat="45.01027117176846" lon="8.452738987436227"><ele>132.66666666666669</ele><time>2026-04-11T10:07:54.002Z</time></trkpt><trkpt lat="45.01021091461864" lon="8.45263587864415"><ele>132.83333333333334</ele><time>2026-04-11T10:07:55.002Z</time></trkpt><trkpt lat="45.01014114115638" lon="8.452560370951742"><ele>133.0</ele><time>2026-04-11T10:07:56.002Z</time></trkpt><trkpt lat="45.01005992082845" lon="8.452502781792012"><ele>132.8</ele><time>2026-04-11T10:07:57.002Z</time></trkpt><trkpt lat="45.009965089092404" lon="8.452426112760966"><ele>132.60000000000002</ele><time>2026-04-11T10:07:58.002Z</time></trkpt><trkpt lat="45.00986663383743" lon="8.45233670334331"><ele>132.39999999999998</ele><time>2026-04-11T10:07:59.002Z</time></trkpt><trkpt lat="45.009769297062" lon="8.45224715866444"><ele>132.2</ele><time>2026-04-11T10:08:00.002Z</time></trkpt><trkpt lat="45.00968046615926" lon="8.452167282769613"><ele>132.0</ele><time>2026-04-11T10:08:01.002Z</time></trkpt><trkpt lat="45.009601593269046" lon="8.452095178401262"><ele>132.0</ele><time>2026-04-11T10:08:02.002Z</time></trkpt><trkpt lat="45.00954372220213" lon="8.452037570071969"><ele>132.0</ele><time>2026-04-11T10:08:03.002Z</time></trkpt><trkpt lat="45.0094726068872" lon="8.451966380420716"><ele>132.0</ele><time>2026-04-11T10:08:04.002Z</time></trkpt><trkpt lat="45.00940151025654" lon="8.451880501946569"><ele>132.0</ele><time>2026-04-11T10:08:05.002Z</time></trkpt><trkpt lat="45.00935121661386" lon="8.451785256940433"><ele>132.0</ele><time>2026-04-11T10:08:06.002Z</time></trkpt><trkpt lat="45.009327193793695" lon="8.451673317089881"><ele>132.0</ele><time>2026-04-11T10:08:07.002Z</time></trkpt><trkpt lat="45.00932451736768" lon="8.4515649754191"><ele>132.0</ele><time>2026-04-11T10:08:08.002Z</time></trkpt><trkpt lat="45.00932389324747" lon="8.451433586789822"><ele>132.0</ele><time>2026-04-11T10:08:09.002Z</time></trkpt><trkpt lat="45.00930822969663" lon="8.451301709647417"><ele>132.0</ele><time>2026-04-11T10:08:10.002Z</time></trkpt><trkpt lat="45.009269412104324" lon="8.451167066814554"><ele>132.0</ele><time>2026-04-11T10:08:11.002Z</time></trkpt><trkpt lat="45.00920707297075" lon="8.451038931568185"><ele>132.0</ele><time>2026-04-11T10:08:12.002Z</time></trkpt><trkpt lat="45.00912756811033" lon="8.45091041970039"><ele>132.0</ele><time>2026-04-11T10:08:13.002Z</time></trkpt><trkpt lat="45.009045196213194" lon="8.45077114094716"><ele>132.0</ele><time>2026-04-11T10:08:14.002Z</time></trkpt><trkpt lat="45.00896029895597" lon="8.450637006570972"><ele>132.0</ele><time>2026-04-11T10:08:15.002Z</time></trkpt><trkpt lat="45.008875389820616" lon="8.450515042848023"><ele>132.0</ele><time>2026-04-11T10:08:16.001Z</time></trkpt><trkpt lat="45.00878568319917" lon="8.450400356048622"><ele>132.0</ele><time>2026-04-11T10:08:17.001Z</time></trkpt><trkpt lat="45.00868731892597" lon="8.450282718765333"><ele>132.0</ele><time>2026-04-11T10:08:18.001Z</time></trkpt><trkpt lat="45.00858672177478" lon="8.450167379698023"><ele>132.0</ele><time>2026-04-11T10:08:19.001Z</time></trkpt><trkpt lat="45.00848870432656" lon="8.450056256476367"><ele>132.0</ele><time>2026-04-11T10:08:20.001Z</time></trkpt><trkpt lat="45.0083983489237" lon="8.449955875560455"><ele>132.2</ele><time>2026-04-11T10:08:21.001Z</time></trkpt><trkpt lat="45.00831652814878" lon="8.449858131329282"><ele>132.39999999999998</ele><time>2026-04-11T10:08:22.001Z</time></trkpt><trkpt lat="45.008249125189764" lon="8.44975793367044"><ele>132.60000000000002</ele><time>2026-04-11T10:08:23.001Z</time></trkpt><trkpt lat="45.00819464135846" lon="8.449656186748603"><ele>132.8</ele><time>2026-04-11T10:08:24.001Z</time></trkpt><trkpt lat="45.00816810729106" lon="8.44957091647716"><ele>133.0</ele><time>2026-04-11T10:08:25.001Z</time></trkpt><trkpt lat="45.00818936686478" lon="8.449411441325195"><ele>133.0</ele><time>2026-04-11T10:08:27.001Z</time></trkpt><trkpt lat="45.00823005321449" lon="8.449307819620753"><ele>133.0</ele><time>2026-04-11T10:08:28.001Z</time></trkpt><trkpt lat="45.0082856550477" lon="8.449189652291796"><ele>133.0</ele><time>2026-04-11T10:08:29.001Z</time></trkpt><trkpt lat="45.008346229511574" lon="8.449067171079031"><ele>133.0</ele><time>2026-04-11T10:08:30.001Z</time></trkpt><trkpt lat="45.008414436348964" lon="8.448920913117945"><ele>133.0</ele><time>2026-04-11T10:08:31.001Z</time></trkpt><trkpt lat="45.008489021017134" lon="8.448766953899714"><ele>134.0</ele><time>2026-04-11T10:08:32.001Z</time></trkpt><trkpt lat="45.00856932140618" lon="8.448609321863069"><ele>135.0</ele><time>2026-04-11T10:08:33.001Z</time></trkpt><trkpt lat="45.00864418383817" lon="8.448463933043437"><ele>136.0</ele><time>2026-04-11T10:08:34.001Z</time></trkpt><trkpt lat="45.008707750156326" lon="8.448347196048159"><ele>137.0</ele><time>2026-04-11T10:08:35.001Z</time></trkpt><trkpt lat="45.008774636117806" lon="8.448242144545835"><ele>137.0</ele><time>2026-04-11T10:08:36.001Z</time></trkpt><trkpt lat="45.008849289184354" lon="8.448146515364297"><ele>137.0</ele><time>2026-04-11T10:08:37.001Z</time></trkpt><trkpt lat="45.00892253065756" lon="8.448047682549948"><ele>137.0</ele><time>2026-04-11T10:08:38.001Z</time></trkpt><trkpt lat="45.00898807999473" lon="8.447954180556206"><ele>137.0</ele><time>2026-04-11T10:08:39.001Z</time></trkpt><trkpt lat="45.00903305953713" lon="8.447886720439602"><ele>137.0</ele><time>2026-04-11T10:08:40.001Z</time></trkpt><trkpt lat="45.00904143063813" lon="8.447779986223885"><ele>137.0</ele><time>2026-04-11T10:08:43.001Z</time></trkpt><trkpt lat="45.00896803466432" lon="8.447729391376985"><ele>138.2</ele><time>2026-04-11T10:08:45.001Z</time></trkpt><trkpt lat="45.008888259369684" lon="8.447699803009515"><ele>139.39999999999998</ele><time>2026-04-11T10:08:46.001Z</time></trkpt><trkpt lat="45.00880320256392" lon="8.447658484453063"><ele>140.60000000000002</ele><time>2026-04-11T10:08:47.001Z</time></trkpt><trkpt lat="45.008696399311034" lon="8.447591084301711"><ele>141.8</ele><time>2026-04-11T10:08:48.001Z</time></trkpt><trkpt lat="45.00857236350521" lon="8.447517010105498"><ele>143.0</ele><time>2026-04-11T10:08:49.001Z</time></trkpt><trkpt lat="45.00845975678344" lon="8.447449549132779"><ele>143.0</ele><time>2026-04-11T10:08:50.001Z</time></trkpt><trkpt lat="45.0083493536743" lon="8.447372680318422"><ele>143.0</ele><time>2026-04-11T10:08:51.001Z</time></trkpt><trkpt lat="45.008235512861056" lon="8.447315287705328"><ele>143.0</ele><time>2026-04-11T10:08:52.001Z</time></trkpt><trkpt lat="45.0081116701478" lon="8.447263025107095"><ele>143.0</ele><time>2026-04-11T10:08:53.001Z</time></trkpt><trkpt lat="45.00798164330802" lon="8.447205635769759"><ele>142.25</ele><time>2026-04-11T10:08:54.001Z</time></trkpt><trkpt lat="45.007859522839404" lon="8.447145209502462"><ele>141.5</ele><time>2026-04-11T10:08:55.001Z</time></trkpt><trkpt lat="45.007750808570236" lon="8.447090989089679"><ele>140.75</ele><time>2026-04-11T10:08:56.001Z</time></trkpt><trkpt lat="45.00764431820759" lon="8.447063627859848"><ele>140.0</ele><time>2026-04-11T10:08:57.001Z</time></trkpt><trkpt lat="45.007537177586045" lon="8.44704167674092"><ele>140.4</ele><time>2026-04-11T10:08:58.001Z</time></trkpt><trkpt lat="45.00742630423928" lon="8.447039644859055"><ele>140.8</ele><time>2026-04-11T10:08:59.001Z</time></trkpt><trkpt lat="45.007325423143605" lon="8.447049780093492"><ele>141.2</ele><time>2026-04-11T10:09:00.001Z</time></trkpt><trkpt lat="45.0072284663313" lon="8.447063422725686"><ele>141.6</ele><time>2026-04-11T10:09:01.001Z</time></trkpt><trkpt lat="45.00715179117582" lon="8.447086236179931"><ele>142.0</ele><time>2026-04-11T10:09:02.001Z</time></trkpt><trkpt lat="45.00707923877518" lon="8.447138635591346"><ele>141.0</ele><time>2026-04-11T10:09:03.001Z</time></trkpt><trkpt lat="45.0070189021131" lon="8.447210219206385"><ele>140.0</ele><time>2026-04-11T10:09:04.001Z</time></trkpt><trkpt lat="45.00696166264752" lon="8.447312187696573"><ele>139.0</ele><time>2026-04-11T10:09:05.001Z</time></trkpt><trkpt lat="45.006906568903055" lon="8.447418604306158"><ele>138.0</ele><time>2026-04-11T10:09:06.001Z</time></trkpt><trkpt lat="45.00684625491394" lon="8.447482523100687"><ele>137.0</ele><time>2026-04-11T10:09:07.001Z</time></trkpt><trkpt lat="45.006768765034224" lon="8.447502575838502"><ele>136.0</ele><time>2026-04-11T10:09:08.001Z</time></trkpt><trkpt lat="45.00668940941013" lon="8.447453066771974"><ele>136.0</ele><time>2026-04-11T10:09:09.001Z</time></trkpt><trkpt lat="45.006606137877476" lon="8.447407025976647"><ele>136.0</ele><time>2026-04-11T10:09:10.001Z</time></trkpt><trkpt lat="45.006490561821344" lon="8.447357663263476"><ele>136.0</ele><time>2026-04-11T10:09:11.001Z</time></trkpt><trkpt lat="45.006390849034716" lon="8.447262600989886"><ele>136.0</ele><time>2026-04-11T10:09:12.001Z</time></trkpt><trkpt lat="45.00626515380381" lon="8.44719012550075"><ele>136.25</ele><time>2026-04-11T10:09:13.001Z</time></trkpt><trkpt lat="45.00613545392781" lon="8.447097123002854"><ele>136.5</ele><time>2026-04-11T10:09:14.001Z</time></trkpt><trkpt lat="45.006018408501916" lon="8.446997187797193"><ele>136.75</ele><time>2026-04-11T10:09:15.001Z</time></trkpt><trkpt lat="45.00590534305463" lon="8.44690884283287"><ele>137.0</ele><time>2026-04-11T10:09:16.001Z</time></trkpt><trkpt lat="45.00580433245632" lon="8.446822105884312"><ele>137.0</ele><time>2026-04-11T10:09:17.001Z</time></trkpt><trkpt lat="45.005709385073686" lon="8.446743899787064"><ele>137.0</ele><time>2026-04-11T10:09:18.001Z</time></trkpt><trkpt lat="45.00560739702413" lon="8.446682174967812"><ele>137.0</ele><time>2026-04-11T10:09:19.001Z</time></trkpt><trkpt lat="45.00549922299501" lon="8.446635168104102"><ele>137.0</ele><time>2026-04-11T10:09:20.001Z</time></trkpt><trkpt lat="45.00538689791801" lon="8.446600604103967"><ele>137.0</ele><time>2026-04-11T10:09:21.001Z</time></trkpt><trkpt lat="45.00529017227143" lon="8.446573221644794"><ele>137.0</ele><time>2026-04-11T10:09:22.001Z</time></trkpt><trkpt lat="45.00519904187922" lon="8.446549759754094"><ele>137.0</ele><time>2026-04-11T10:09:23.001Z</time></trkpt><trkpt lat="45.005099992595405" lon="8.446531259380498"><ele>137.0</ele><time>2026-04-11T10:09:24.001Z</time></trkpt><trkpt lat="45.00499620628356" lon="8.446532287995574"><ele>137.0</ele><time>2026-04-11T10:09:25.001Z</time></trkpt><trkpt lat="45.00488451227597" lon="8.446553120065092"><ele>137.0</ele><time>2026-04-11T10:09:26.001Z</time></trkpt><trkpt lat="45.00476694114736" lon="8.446576410470348"><ele>136.75</ele><time>2026-04-11T10:09:27.001Z</time></trkpt><trkpt lat="45.00464084066018" lon="8.446554486138036"><ele>136.5</ele><time>2026-04-11T10:09:28.001Z</time></trkpt><trkpt lat="45.00450896281853" lon="8.446568831481425"><ele>136.25</ele><time>2026-04-11T10:09:29.001Z</time></trkpt><trkpt lat="45.004372592240145" lon="8.44656160497315"><ele>136.0</ele><time>2026-04-11T10:09:30.001Z</time></trkpt><trkpt lat="45.004229640933" lon="8.44654834413893"><ele>136.0</ele><time>2026-04-11T10:09:31.001Z</time></trkpt><trkpt lat="45.00408663791383" lon="8.446534160806806"><ele>136.0</ele><time>2026-04-11T10:09:32.001Z</time></trkpt><trkpt lat="45.003955172033166" lon="8.446522143996344"><ele>136.0</ele><time>2026-04-11T10:09:33.001Z</time></trkpt><trkpt lat="45.00382278370846" lon="8.446509647724419"><ele>136.0</ele><time>2026-04-11T10:09:34.001Z</time></trkpt><trkpt lat="45.003683725281824" lon="8.44650300151131"><ele>136.0</ele><time>2026-04-11T10:09:35.001Z</time></trkpt><trkpt lat="45.00353737017237" lon="8.44649761392023"><ele>136.0</ele><time>2026-04-11T10:09:36.001Z</time></trkpt><trkpt lat="45.00338846851692" lon="8.446486343561709"><ele>136.0</ele><time>2026-04-11T10:09:37.001Z</time></trkpt><trkpt lat="45.00324504609576" lon="8.446469313955934"><ele>136.0</ele><time>2026-04-11T10:09:38.001Z</time></trkpt><trkpt lat="45.00310582527963" lon="8.446457166081565"><ele>135.0</ele><time>2026-04-11T10:09:39.002Z</time></trkpt><trkpt lat="45.00297823295954" lon="8.446444640142989"><ele>134.0</ele><time>2026-04-11T10:09:40.002Z</time></trkpt><trkpt lat="45.00284917007651" lon="8.4464448400028"><ele>133.0</ele><time>2026-04-11T10:09:41.002Z</time></trkpt><trkpt lat="45.002732097521495" lon="8.44643890917428"><ele>132.0</ele><time>2026-04-11T10:09:42.002Z</time></trkpt><trkpt lat="45.00263048787506" lon="8.446434827047208"><ele>132.0</ele><time>2026-04-11T10:09:43.002Z</time></trkpt><trkpt lat="45.002537287868414" lon="8.446415863592236"><ele>132.0</ele><time>2026-04-11T10:09:44.002Z</time></trkpt><trkpt lat="45.002475779223616" lon="8.446378759508205"><ele>132.0</ele><time>2026-04-11T10:09:45.002Z</time></trkpt><trkpt lat="45.002427373398454" lon="8.44629719569999"><ele>132.0</ele><time>2026-04-11T10:09:46.002Z</time></trkpt><trkpt lat="45.00237683472628" lon="8.446208085214222"><ele>132.0</ele><time>2026-04-11T10:09:47.002Z</time></trkpt><trkpt lat="45.00233480753912" lon="8.446092889583744"><ele>132.0</ele><time>2026-04-11T10:09:48.002Z</time></trkpt><trkpt lat="45.002276665122054" lon="8.445961343209651"><ele>132.5</ele><time>2026-04-11T10:09:49.002Z</time></trkpt><trkpt lat="45.00220732240815" lon="8.445803139422413"><ele>133.0</ele><time>2026-04-11T10:09:50.002Z</time></trkpt><trkpt lat="45.00212315929673" lon="8.445656710323785"><ele>133.5</ele><time>2026-04-11T10:09:51.002Z</time></trkpt><trkpt lat="45.00205094347857" lon="8.445504572186309"><ele>134.0</ele><time>2026-04-11T10:09:52.002Z</time></trkpt><trkpt lat="45.001991149320986" lon="8.445372555383301"><ele>134.0</ele><time>2026-04-11T10:09:53.002Z</time></trkpt><trkpt lat="45.001935055082015" lon="8.445244569966647"><ele>134.0</ele><time>2026-04-11T10:09:54.002Z</time></trkpt><trkpt lat="45.00187654331994" lon="8.445110293340253"><ele>134.0</ele><time>2026-04-11T10:09:55.002Z</time></trkpt><trkpt lat="45.00180860972067" lon="8.444977693011612"><ele>134.0</ele><time>2026-04-11T10:09:56.002Z</time></trkpt><trkpt lat="45.00172717537551" lon="8.444840374963889"><ele>134.0</ele><time>2026-04-11T10:09:57.002Z</time></trkpt><trkpt lat="45.001632717618584" lon="8.444690036727511"><ele>134.0</ele><time>2026-04-11T10:09:58.002Z</time></trkpt><trkpt lat="45.00154041533315" lon="8.444533897059971"><ele>134.0</ele><time>2026-04-11T10:09:59.002Z</time></trkpt><trkpt lat="45.00144375739934" lon="8.44439358066015"><ele>134.0</ele><time>2026-04-11T10:10:00.002Z</time></trkpt><trkpt lat="45.00135676196143" lon="8.444264736398443"><ele>134.0</ele><time>2026-04-11T10:10:01.002Z</time></trkpt><trkpt lat="45.00127436930002" lon="8.444135147008959"><ele>134.0</ele><time>2026-04-11T10:10:02.002Z</time></trkpt><trkpt lat="45.00119130848546" lon="8.444013657863124"><ele>134.0</ele><time>2026-04-11T10:10:03.002Z</time></trkpt><trkpt lat="45.00109867816117" lon="8.443887991971966"><ele>134.0</ele><time>2026-04-11T10:10:04.002Z</time></trkpt><trkpt lat="45.00100556743938" lon="8.44375207356635"><ele>134.25</ele><time>2026-04-11T10:10:05.002Z</time></trkpt><trkpt lat="45.000901585003646" lon="8.443643021444467"><ele>134.5</ele><time>2026-04-11T10:10:06.002Z</time></trkpt><trkpt lat="45.000798655041244" lon="8.443540344467541"><ele>134.75</ele><time>2026-04-11T10:10:07.002Z</time></trkpt><trkpt lat="45.00068447471174" lon="8.443444828358238"><ele>135.0</ele><time>2026-04-11T10:10:08.002Z</time></trkpt><trkpt lat="45.00056992510542" lon="8.443365105913333"><ele>135.0</ele><time>2026-04-11T10:10:09.002Z</time></trkpt><trkpt lat="45.00046818012066" lon="8.44329940145022"><ele>135.0</ele><time>2026-04-11T10:10:10.002Z</time></trkpt><trkpt lat="45.000376030796254" lon="8.443244942212699"><ele>135.0</ele><time>2026-04-11T10:10:11.002Z</time></trkpt><trkpt lat="45.00029885325858" lon="8.443192765972686"><ele>135.0</ele><time>2026-04-11T10:10:12.002Z</time></trkpt><trkpt lat="45.000249305860166" lon="8.443117781456934"><ele>135.0</ele><time>2026-04-11T10:10:13.002Z</time></trkpt><trkpt lat="45.00018023246508" lon="8.443018129214847"><ele>135.33333333333334</ele><time>2026-04-11T10:10:15.002Z</time></trkpt><trkpt lat="45.00008066078591" lon="8.442882679785303"><ele>135.66666666666669</ele><time>2026-04-11T10:10:17.002Z</time></trkpt><trkpt lat="45.00007442804981" lon="8.442786491661014"><ele>136.0</ele><time>2026-04-11T10:10:18.002Z</time></trkpt><trkpt lat="44.99979950376318" lon="8.44291257232452"><ele>136.0</ele><time>2026-04-11T10:10:19.002Z</time></trkpt><trkpt lat="44.99968758080589" lon="8.442870210221116"><ele>136.0</ele><time>2026-04-11T10:10:20.002Z</time></trkpt><trkpt lat="44.999575686376225" lon="8.44282776028949"><ele>136.0</ele><time>2026-04-11T10:10:21.002Z</time></trkpt><trkpt lat="44.999471310887124" lon="8.442793759999336"><ele>136.0</ele><time>2026-04-11T10:10:22Z</time></trkpt><trkpt lat="44.99935665466169" lon="8.442762111393353"><ele>136.0</ele><time>2026-04-11T10:10:23Z</time></trkpt><trkpt lat="44.99924656117543" lon="8.442740978210828"><ele>136.0</ele><time>2026-04-11T10:10:24Z</time></trkpt><trkpt lat="44.99914552915186" lon="8.442728121529807"><ele>136.0</ele><time>2026-04-11T10:10:25Z</time></trkpt><trkpt lat="44.99904649169154" lon="8.44272174852789"><ele>136.0</ele><time>2026-04-11T10:10:26Z</time></trkpt><trkpt lat="44.998964778528546" lon="8.4427198794092"><ele>136.0</ele><time>2026-04-11T10:10:27Z</time></trkpt><trkpt lat="44.9989002630329" lon="8.442710871132965"><ele>136.0</ele><time>2026-04-11T10:10:28Z</time></trkpt><trkpt lat="44.99882619529998" lon="8.442709077187889"><ele>136.0</ele><time>2026-04-11T10:10:29Z</time></trkpt><trkpt lat="44.99875652089068" lon="8.44270323318425"><ele>136.0</ele><time>2026-04-11T10:10:30Z</time></trkpt><trkpt lat="44.99869203065832" lon="8.442686022789394"><ele>136.0</ele><time>2026-04-11T10:10:31Z</time></trkpt><trkpt lat="44.9986346111262" lon="8.442647889358053"><ele>136.0</ele><time>2026-04-11T10:10:32Z</time></trkpt><trkpt lat="44.99853388226571" lon="8.44254485891487"><ele>136.0</ele><time>2026-04-11T10:10:34Z</time></trkpt><trkpt lat="44.99848125302595" lon="8.442474374087034"><ele>136.0</ele><time>2026-04-11T10:10:35Z</time></trkpt><trkpt lat="44.99843098959245" lon="8.44238430235383"><ele>136.0</ele><time>2026-04-11T10:10:36Z</time></trkpt><trkpt lat="44.99837668016919" lon="8.442285603990992"><ele>136.0</ele><time>2026-04-11T10:10:37Z</time></trkpt><trkpt lat="44.998313586850436" lon="8.442184876034466"><ele>136.0</ele><time>2026-04-11T10:10:38Z</time></trkpt><trkpt lat="44.99824984270713" lon="8.442099245927658"><ele>136.0</ele><time>2026-04-11T10:10:39Z</time></trkpt><trkpt lat="44.99819234206654" lon="8.44202070527046"><ele>136.0</ele><time>2026-04-11T10:10:40Z</time></trkpt><trkpt lat="44.9981441831709" lon="8.441952623856407"><ele>136.4</ele><time>2026-04-11T10:10:41Z</time></trkpt><trkpt lat="44.998067932447455" lon="8.441854409949487"><ele>136.8</ele><time>2026-04-11T10:10:43Z</time></trkpt><trkpt lat="44.99796319472301" lon="8.441728527373803"><ele>137.20000000000002</ele><time>2026-04-11T10:10:45Z</time></trkpt><trkpt lat="44.9978921304284" lon="8.441642361859163"><ele>137.6</ele><time>2026-04-11T10:10:46Z</time></trkpt><trkpt lat="44.99783364092262" lon="8.44156876463143"><ele>138.0</ele><time>2026-04-11T10:10:47Z</time></trkpt><trkpt lat="44.99776651634564" lon="8.441491923123401"><ele>138.0</ele><time>2026-04-11T10:10:49Z</time></trkpt><trkpt lat="44.99767665775252" lon="8.441398940172462"><ele>138.0</ele><time>2026-04-11T10:10:51.001Z</time></trkpt><trkpt lat="44.99757714122229" lon="8.441311067345696"><ele>138.0</ele><time>2026-04-11T10:10:53.001Z</time></trkpt><trkpt lat="44.99750873722565" lon="8.441253374935089"><ele>138.0</ele><time>2026-04-11T10:10:54.001Z</time></trkpt><trkpt lat="44.997424904242344" lon="8.44118449813914"><ele>138.0</ele><time>2026-04-11T10:10:55.001Z</time></trkpt><trkpt lat="44.99733644323595" lon="8.441110562886736"><ele>139.6</ele><time>2026-04-11T10:10:56.001Z</time></trkpt><trkpt lat="44.9972568460745" lon="8.441037498404661"><ele>141.20000000000002</ele><time>2026-04-11T10:10:57.001Z</time></trkpt><trkpt lat="44.99717665136666" lon="8.440962525294065"><ele>142.8</ele><time>2026-04-11T10:10:58.001Z</time></trkpt><trkpt lat="44.99709238674419" lon="8.440884532546425"><ele>144.4</ele><time>2026-04-11T10:10:59.001Z</time></trkpt><trkpt lat="44.99701998834313" lon="8.440820731713295"><ele>146.0</ele><time>2026-04-11T10:11:00.001Z</time></trkpt><trkpt lat="44.99695309673079" lon="8.440763340722427"><ele>146.0</ele><time>2026-04-11T10:11:01.001Z</time></trkpt><trkpt lat="44.99689412024669" lon="8.440707680206698"><ele>146.0</ele><time>2026-04-11T10:11:02.001Z</time></trkpt><trkpt lat="44.99680447083694" lon="8.440611414631556"><ele>146.0</ele><time>2026-04-11T10:11:04.001Z</time></trkpt><trkpt lat="44.99685690526762" lon="8.44066668170172"><ele>146.0</ele><time>2026-04-11T10:11:23.001Z</time></trkpt><trkpt lat="44.99692392747292" lon="8.44075189234527"><ele>146.0</ele><time>2026-04-11T10:11:24.001Z</time></trkpt><trkpt lat="44.99698588035102" lon="8.440810802012422"><ele>146.0</ele><time>2026-04-11T10:11:25.001Z</time></trkpt><trkpt lat="44.99704388740893" lon="8.440867201455628"><ele>146.0</ele><time>2026-04-11T10:11:26.001Z</time></trkpt><trkpt lat="44.997115262719376" lon="8.44093256932557"><ele>146.0</ele><time>2026-04-11T10:11:27.001Z</time></trkpt><trkpt lat="44.99719776632922" lon="8.441001469615138"><ele>146.0</ele><time>2026-04-11T10:11:28.001Z</time></trkpt><trkpt lat="44.99728841550017" lon="8.441076040770835"><ele>146.0</ele><time>2026-04-11T10:11:29.001Z</time></trkpt><trkpt lat="44.997384121019394" lon="8.441159613712948"><ele>146.0</ele><time>2026-04-11T10:11:30.001Z</time></trkpt><trkpt lat="44.997479337257204" lon="8.441241720659145"><ele>144.66666666666666</ele><time>2026-04-11T10:11:31.001Z</time></trkpt><trkpt lat="44.997569279416616" lon="8.441319827360672"><ele>143.33333333333331</ele><time>2026-04-11T10:11:32.001Z</time></trkpt><trkpt lat="44.99765702830796" lon="8.44139828510152"><ele>142.0</ele><time>2026-04-11T10:11:33.001Z</time></trkpt><trkpt lat="44.9977341212957" lon="8.441461895657877"><ele>140.66666666666666</ele><time>2026-04-11T10:11:34.001Z</time></trkpt><trkpt lat="44.99776848352164" lon="8.441547046325143"><ele>139.33333333333334</ele><time>2026-04-11T10:11:35.001Z</time></trkpt><trkpt lat="44.997824327560146" lon="8.441590966579348"><ele>138.0</ele><time>2026-04-11T10:11:38.001Z</time></trkpt><trkpt lat="44.99776220854231" lon="8.441612467130751"><ele>138.0</ele><time>2026-04-11T10:11:42.001Z</time></trkpt><trkpt lat="44.99767163803649" lon="8.441577344274732"><ele>138.0</ele><time>2026-04-11T10:11:44.001Z</time></trkpt><trkpt lat="44.99759186132036" lon="8.441553781521192"><ele>138.0</ele><time>2026-04-11T10:11:45.001Z</time></trkpt><trkpt lat="44.99751831001554" lon="8.441531069568262"><ele>138.0</ele><time>2026-04-11T10:11:46.001Z</time></trkpt><trkpt lat="44.99741876962503" lon="8.441507185230426"><ele>138.0</ele><time>2026-04-11T10:11:47.001Z</time></trkpt><trkpt lat="44.997316797320536" lon="8.44148444957684"><ele>138.0</ele><time>2026-04-11T10:11:48.001Z</time></trkpt><trkpt lat="44.99720254232322" lon="8.441471483470663"><ele>138.0</ele><time>2026-04-11T10:11:49.001Z</time></trkpt><trkpt lat="44.99708452929775" lon="8.441459778306164"><ele>138.0</ele><time>2026-04-11T10:11:50.001Z</time></trkpt><trkpt lat="44.99698027015483" lon="8.441454963859561"><ele>138.0</ele><time>2026-04-11T10:11:51.001Z</time></trkpt><trkpt lat="44.996879338965776" lon="8.441424405094764"><ele>138.0</ele><time>2026-04-11T10:11:52.001Z</time></trkpt><trkpt lat="44.99676918504077" lon="8.441415363063312"><ele>137.4</ele><time>2026-04-11T10:11:53.001Z</time></trkpt><trkpt lat="44.99665600360599" lon="8.441427772417148"><ele>136.8</ele><time>2026-04-11T10:11:54.002Z</time></trkpt><trkpt lat="44.99655011117244" lon="8.441408877677558"><ele>136.2</ele><time>2026-04-11T10:11:55.002Z</time></trkpt><trkpt lat="44.9964515484735" lon="8.44139463501144"><ele>135.6</ele><time>2026-04-11T10:11:56.002Z</time></trkpt><trkpt lat="44.99634937641761" lon="8.441365298833562"><ele>135.0</ele><time>2026-04-11T10:11:57.002Z</time></trkpt><trkpt lat="44.99625093727886" lon="8.441331106301504"><ele>136.0</ele><time>2026-04-11T10:11:58.002Z</time></trkpt><trkpt lat="44.99616917967379" lon="8.441295587592606"><ele>137.0</ele><time>2026-04-11T10:11:59.002Z</time></trkpt><trkpt lat="44.99610040976778" lon="8.441260094841097"><ele>138.0</ele><time>2026-04-11T10:12:00.002Z</time></trkpt><trkpt lat="44.996023600394615" lon="8.441212445460755"><ele>139.0</ele><time>2026-04-11T10:12:01.002Z</time></trkpt><trkpt lat="44.995941878617586" lon="8.441158275256388"><ele>140.0</ele><time>2026-04-11T10:12:02.002Z</time></trkpt><trkpt lat="44.99586213506017" lon="8.441110698522754"><ele>141.0</ele><time>2026-04-11T10:12:03.002Z</time></trkpt><trkpt lat="44.99577762964113" lon="8.441061151749617"><ele>141.0</ele><time>2026-04-11T10:12:04.002Z</time></trkpt><trkpt lat="44.99568461920525" lon="8.441004098963093"><ele>141.0</ele><time>2026-04-11T10:12:05.002Z</time></trkpt><trkpt lat="44.995595076299786" lon="8.440944247893203"><ele>141.0</ele><time>2026-04-11T10:12:06.002Z</time></trkpt><trkpt lat="44.995502903528894" lon="8.440880226983127"><ele>141.0</ele><time>2026-04-11T10:12:07.002Z</time></trkpt><trkpt lat="44.99540184242326" lon="8.440816013068726"><ele>141.0</ele><time>2026-04-11T10:12:08.002Z</time></trkpt><trkpt lat="44.99530437945895" lon="8.440760767646651"><ele>141.0</ele><time>2026-04-11T10:12:09.002Z</time></trkpt><trkpt lat="44.995215661480344" lon="8.44071416389753"><ele>141.0</ele><time>2026-04-11T10:12:10.002Z</time></trkpt><trkpt lat="44.99513306829029" lon="8.440673090627095"><ele>141.0</ele><time>2026-04-11T10:12:11.002Z</time></trkpt><trkpt lat="44.9950619750828" lon="8.44064091384415"><ele>141.0</ele><time>2026-04-11T10:12:12.002Z</time></trkpt><trkpt lat="44.994999956517326" lon="8.44060717021188"><ele>141.0</ele><time>2026-04-11T10:12:13.002Z</time></trkpt><trkpt lat="44.99493229464358" lon="8.440546612672577"><ele>141.0</ele><time>2026-04-11T10:12:14.002Z</time></trkpt><trkpt lat="44.99485485322076" lon="8.440500365457847"><ele>141.0</ele><time>2026-04-11T10:12:15.002Z</time></trkpt><trkpt lat="44.99474599862142" lon="8.440446316781724"><ele>141.0</ele><time>2026-04-11T10:12:16.002Z</time></trkpt><trkpt lat="44.99464660477196" lon="8.440378418403462"><ele>141.0</ele><time>2026-04-11T10:12:17.002Z</time></trkpt><trkpt lat="44.994540506931344" lon="8.440288002529764"><ele>141.0</ele><time>2026-04-11T10:12:18.002Z</time></trkpt><trkpt lat="44.99443360676139" lon="8.440209177950882"><ele>141.0</ele><time>2026-04-11T10:12:19.002Z</time></trkpt><trkpt lat="44.99433192455068" lon="8.440154747129679"><ele>141.0</ele><time>2026-04-11T10:12:20.002Z</time></trkpt><trkpt lat="44.99422579646758" lon="8.440103669428646"><ele>141.0</ele><time>2026-04-11T10:12:21.002Z</time></trkpt><trkpt lat="44.99411098712074" lon="8.440061056595313"><ele>141.0</ele><time>2026-04-11T10:12:22.002Z</time></trkpt><trkpt lat="44.99399119362763" lon="8.440024003035557"><ele>140.25</ele><time>2026-04-11T10:12:23.002Z</time></trkpt><trkpt lat="44.993878174375105" lon="8.439987088501157"><ele>139.5</ele><time>2026-04-11T10:12:24.002Z</time></trkpt><trkpt lat="44.99376554147811" lon="8.439942408971952"><ele>138.75</ele><time>2026-04-11T10:12:25.002Z</time></trkpt><trkpt lat="44.99365369257909" lon="8.439894060558546"><ele>138.0</ele><time>2026-04-11T10:12:26.002Z</time></trkpt><trkpt lat="44.99354959324616" lon="8.439845754891044"><ele>138.0</ele><time>2026-04-11T10:12:27.002Z</time></trkpt><trkpt lat="44.99346561461377" lon="8.43979338047033"><ele>138.0</ele><time>2026-04-11T10:12:28Z</time></trkpt><trkpt lat="44.99337247481474" lon="8.439758366822202"><ele>138.0</ele><time>2026-04-11T10:12:29Z</time></trkpt><trkpt lat="44.99329574130576" lon="8.439711783654252"><ele>138.0</ele><time>2026-04-11T10:12:30Z</time></trkpt><trkpt lat="44.99321157781951" lon="8.439700519644976"><ele>138.0</ele><time>2026-04-11T10:12:31Z</time></trkpt><trkpt lat="44.993116067475356" lon="8.439690052088245"><ele>138.0</ele><time>2026-04-11T10:12:32Z</time></trkpt><trkpt lat="44.99301355536664" lon="8.439668099173227"><ele>138.0</ele><time>2026-04-11T10:12:33Z</time></trkpt><trkpt lat="44.992919557135885" lon="8.439621382451879"><ele>138.0</ele><time>2026-04-11T10:12:34Z</time></trkpt><trkpt lat="44.99286688607686" lon="8.439543443555221"><ele>138.0</ele><time>2026-04-11T10:12:35Z</time></trkpt><trkpt lat="44.99280548728161" lon="8.4395041776462"><ele>138.0</ele><time>2026-04-11T10:12:36Z</time></trkpt><trkpt lat="44.99275722523129" lon="8.439439799346248"><ele>138.0</ele><time>2026-04-11T10:12:37Z</time></trkpt><trkpt lat="44.99270124693902" lon="8.439378147848934"><ele>138.0</ele><time>2026-04-11T10:12:38Z</time></trkpt><trkpt lat="44.99262961342924" lon="8.439302974194995"><ele>138.0</ele><time>2026-04-11T10:12:39Z</time></trkpt><trkpt lat="44.99254811777832" lon="8.439207698832357"><ele>138.0</ele><time>2026-04-11T10:12:40Z</time></trkpt><trkpt lat="44.992464493497955" lon="8.43910995542152"><ele>138.0</ele><time>2026-04-11T10:12:41Z</time></trkpt><trkpt lat="44.992374562725736" lon="8.439001645681607"><ele>138.0</ele><time>2026-04-11T10:12:42Z</time></trkpt><trkpt lat="44.992292253263244" lon="8.438885434707531"><ele>138.75</ele><time>2026-04-11T10:12:43Z</time></trkpt><trkpt lat="44.99221394673221" lon="8.4387681855777"><ele>139.5</ele><time>2026-04-11T10:12:44Z</time></trkpt><trkpt lat="44.99213637611526" lon="8.438638578116706"><ele>140.25</ele><time>2026-04-11T10:12:45Z</time></trkpt><trkpt lat="44.99205923748485" lon="8.438507836189501"><ele>141.0</ele><time>2026-04-11T10:12:46Z</time></trkpt><trkpt lat="44.99198278365435" lon="8.438393676979006"><ele>141.0</ele><time>2026-04-11T10:12:47Z</time></trkpt><trkpt lat="44.99190613106405" lon="8.438280829149695"><ele>141.0</ele><time>2026-04-11T10:12:48Z</time></trkpt><trkpt lat="44.99182585689708" lon="8.43816175110499"><ele>141.0</ele><time>2026-04-11T10:12:49Z</time></trkpt><trkpt lat="44.991742432157594" lon="8.43804479629678"><ele>141.0</ele><time>2026-04-11T10:12:50Z</time></trkpt><trkpt lat="44.991657688304656" lon="8.437921543311123"><ele>140.75</ele><time>2026-04-11T10:12:51Z</time></trkpt><trkpt lat="44.991572236519985" lon="8.4377906514176"><ele>140.5</ele><time>2026-04-11T10:12:52Z</time></trkpt><trkpt lat="44.99148420932909" lon="8.437659313942142"><ele>140.25</ele><time>2026-04-11T10:12:53Z</time></trkpt><trkpt lat="44.991387982894075" lon="8.437526385445564"><ele>140.0</ele><time>2026-04-11T10:12:54Z</time></trkpt><trkpt lat="44.991295227535474" lon="8.437391831863703"><ele>140.0</ele><time>2026-04-11T10:12:55Z</time></trkpt><trkpt lat="44.99120380219422" lon="8.437258356471022"><ele>140.0</ele><time>2026-04-11T10:12:56Z</time></trkpt><trkpt lat="44.99111365612045" lon="8.437126560930256"><ele>140.0</ele><time>2026-04-11T10:12:57Z</time></trkpt><trkpt lat="44.99102838995109" lon="8.437003670843026"><ele>140.0</ele><time>2026-04-11T10:12:58Z</time></trkpt><trkpt lat="44.99094302905142" lon="8.436882857614494"><ele>140.2</ele><time>2026-04-11T10:12:59Z</time></trkpt><trkpt lat="44.99086039530758" lon="8.436764553171825"><ele>140.4</ele><time>2026-04-11T10:13:00Z</time></trkpt><trkpt lat="44.99078143381138" lon="8.436653219293195"><ele>140.6</ele><time>2026-04-11T10:13:01Z</time></trkpt><trkpt lat="44.99070421798564" lon="8.43655024456653"><ele>140.8</ele><time>2026-04-11T10:13:02Z</time></trkpt><trkpt lat="44.990653229187416" lon="8.436430792083291"><ele>141.0</ele><time>2026-04-11T10:13:03Z</time></trkpt><trkpt lat="44.990607135997955" lon="8.436320411743297"><ele>140.6</ele><time>2026-04-11T10:13:04Z</time></trkpt><trkpt lat="44.9905723901132" lon="8.436190009974966"><ele>140.2</ele><time>2026-04-11T10:13:05Z</time></trkpt><trkpt lat="44.99054400466563" lon="8.436044077005167"><ele>139.8</ele><time>2026-04-11T10:13:06Z</time></trkpt><trkpt lat="44.990506280089456" lon="8.435897714954791"><ele>139.4</ele><time>2026-04-11T10:13:07Z</time></trkpt><trkpt lat="44.99049018964252" lon="8.435764194903014"><ele>139.0</ele><time>2026-04-11T10:13:08Z</time></trkpt><trkpt lat="44.99046597521562" lon="8.435623147640925"><ele>139.0</ele><time>2026-04-11T10:13:09Z</time></trkpt><trkpt lat="44.99044475858709" lon="8.435493371736596"><ele>139.0</ele><time>2026-04-11T10:13:10.001Z</time></trkpt><trkpt lat="44.99039976101823" lon="8.43537131095388"><ele>139.0</ele><time>2026-04-11T10:13:11.001Z</time></trkpt><trkpt lat="44.99033680619361" lon="8.435245340620206"><ele>139.0</ele><time>2026-04-11T10:13:12.001Z</time></trkpt><trkpt lat="44.990260420041636" lon="8.435141771752361"><ele>139.0</ele><time>2026-04-11T10:13:13.001Z</time></trkpt><trkpt lat="44.99017396697718" lon="8.43502905627223"><ele>139.5</ele><time>2026-04-11T10:13:14.001Z</time></trkpt><trkpt lat="44.990129523169664" lon="8.434909979254748"><ele>140.0</ele><time>2026-04-11T10:13:15.001Z</time></trkpt><trkpt lat="44.99008112971217" lon="8.434818582975593"><ele>140.5</ele><time>2026-04-11T10:13:16.001Z</time></trkpt><trkpt lat="44.99006186150777" lon="8.434725895495601"><ele>141.0</ele><time>2026-04-11T10:13:17.001Z</time></trkpt><trkpt lat="44.99003742740016" lon="8.434612322557332"><ele>141.5</ele><time>2026-04-11T10:13:18.001Z</time></trkpt><trkpt lat="44.99003949281132" lon="8.434468576281251"><ele>142.0</ele><time>2026-04-11T10:13:19.001Z</time></trkpt><trkpt lat="44.99003645144369" lon="8.434354973105295"><ele>142.4</ele><time>2026-04-11T10:13:20.001Z</time></trkpt><trkpt lat="44.99003978842651" lon="8.434243869294347"><ele>142.79999999999998</ele><time>2026-04-11T10:13:21.001Z</time></trkpt><trkpt lat="44.990052357295724" lon="8.434118879471232"><ele>143.2</ele><time>2026-04-11T10:13:22.001Z</time></trkpt><trkpt lat="44.99006172260951" lon="8.433992772113422"><ele>143.6</ele><time>2026-04-11T10:13:23.001Z</time></trkpt><trkpt lat="44.990119238109266" lon="8.433863211939146"><ele>144.0</ele><time>2026-04-11T10:13:24.001Z</time></trkpt><trkpt lat="44.990140544251844" lon="8.433714127512731"><ele>144.2</ele><time>2026-04-11T10:13:25.001Z</time></trkpt><trkpt lat="44.99016630881918" lon="8.433592304870885"><ele>144.4</ele><time>2026-04-11T10:13:26.001Z</time></trkpt><trkpt lat="44.99017603684271" lon="8.433473132137268"><ele>144.6</ele><time>2026-04-11T10:13:27.001Z</time></trkpt><trkpt lat="44.99017733749064" lon="8.433342450130517"><ele>144.8</ele><time>2026-04-11T10:13:28.001Z</time></trkpt><trkpt lat="44.99016294663181" lon="8.43320507233539"><ele>145.0</ele><time>2026-04-11T10:13:29.001Z</time></trkpt><trkpt lat="44.990132403431495" lon="8.433052621638224"><ele>146.0</ele><time>2026-04-11T10:13:30.001Z</time></trkpt><trkpt lat="44.99009885190919" lon="8.432884442808204"><ele>147.0</ele><time>2026-04-11T10:13:31.001Z</time></trkpt><trkpt lat="44.99006981655382" lon="8.432718250817775"><ele>148.0</ele><time>2026-04-11T10:13:32.001Z</time></trkpt><trkpt lat="44.990048268977034" lon="8.432565843454535"><ele>149.0</ele><time>2026-04-11T10:13:33.001Z</time></trkpt><trkpt lat="44.99002997604688" lon="8.432425072516722"><ele>149.0</ele><time>2026-04-11T10:13:34.001Z</time></trkpt><trkpt lat="44.990010473151024" lon="8.43228544166251"><ele>149.0</ele><time>2026-04-11T10:13:35.001Z</time></trkpt><trkpt lat="44.98998917130345" lon="8.432135804985775"><ele>149.0</ele><time>2026-04-11T10:13:36.001Z</time></trkpt><trkpt lat="44.9899607764421" lon="8.431965708225189"><ele>149.0</ele><time>2026-04-11T10:13:37.001Z</time></trkpt><trkpt lat="44.989926083730026" lon="8.431792772819396"><ele>147.75</ele><time>2026-04-11T10:13:38.001Z</time></trkpt><trkpt lat="44.989891080907405" lon="8.431633212157074"><ele>146.5</ele><time>2026-04-11T10:13:39.001Z</time></trkpt><trkpt lat="44.98985122612559" lon="8.431475448154348"><ele>145.25</ele><time>2026-04-11T10:13:40.001Z</time></trkpt><trkpt lat="44.9898077574278" lon="8.431313428600097"><ele>144.0</ele><time>2026-04-11T10:13:41.001Z</time></trkpt><trkpt lat="44.989768294329025" lon="8.431151640069192"><ele>144.0</ele><time>2026-04-11T10:13:42.001Z</time></trkpt><trkpt lat="44.989733301091775" lon="8.43100577365315"><ele>144.0</ele><time>2026-04-11T10:13:43.001Z</time></trkpt><trkpt lat="44.989700318576" lon="8.430876592095892"><ele>144.0</ele><time>2026-04-11T10:13:44.001Z</time></trkpt><trkpt lat="44.98966415720295" lon="8.430748759383945"><ele>144.0</ele><time>2026-04-11T10:13:45.001Z</time></trkpt><trkpt lat="44.98961663509545" lon="8.430620626692923"><ele>144.0</ele><time>2026-04-11T10:13:46.001Z</time></trkpt><trkpt lat="44.98956137115938" lon="8.430505917700062"><ele>144.0</ele><time>2026-04-11T10:13:47.001Z</time></trkpt><trkpt lat="44.98950131163509" lon="8.430370946030495"><ele>144.0</ele><time>2026-04-11T10:13:48.001Z</time></trkpt><trkpt lat="44.989450691919544" lon="8.430238398082185"><ele>144.0</ele><time>2026-04-11T10:13:49.001Z</time></trkpt><trkpt lat="44.98939683146405" lon="8.43010226307759"><ele>144.0</ele><time>2026-04-11T10:13:50.001Z</time></trkpt><trkpt lat="44.989349556886616" lon="8.429961260196515"><ele>144.0</ele><time>2026-04-11T10:13:51.001Z</time></trkpt><trkpt lat="44.989309875418094" lon="8.429821535784233"><ele>144.0</ele><time>2026-04-11T10:13:52.001Z</time></trkpt><trkpt lat="44.98927765067729" lon="8.429689029727145"><ele>144.0</ele><time>2026-04-11T10:13:53.001Z</time></trkpt><trkpt lat="44.98925258894877" lon="8.429556274604108"><ele>144.0</ele><time>2026-04-11T10:13:54.001Z</time></trkpt><trkpt lat="44.989228310232555" lon="8.429426783163136"><ele>144.0</ele><time>2026-04-11T10:13:55.001Z</time></trkpt><trkpt lat="44.98923259896566" lon="8.429298794575177"><ele>144.0</ele><time>2026-04-11T10:13:56.001Z</time></trkpt><trkpt lat="44.989237020376926" lon="8.42918822819625"><ele>143.6</ele><time>2026-04-11T10:13:57.001Z</time></trkpt><trkpt lat="44.98926566985453" lon="8.42907801767473"><ele>143.2</ele><time>2026-04-11T10:13:58.001Z</time></trkpt><trkpt lat="44.989319403448896" lon="8.428959381355138"><ele>142.79999999999998</ele><time>2026-04-11T10:13:59.001Z</time></trkpt><trkpt lat="44.98937490280308" lon="8.428849853141648"><ele>142.4</ele><time>2026-04-11T10:14:00.001Z</time></trkpt><trkpt lat="44.98943907132991" lon="8.428735784608074"><ele>142.0</ele><time>2026-04-11T10:14:01.001Z</time></trkpt><trkpt lat="44.98950499960679" lon="8.428650413630363"><ele>142.0</ele><time>2026-04-11T10:14:02.001Z</time></trkpt><trkpt lat="44.989570122915055" lon="8.428591732625351"><ele>142.0</ele><time>2026-04-11T10:14:03.001Z</time></trkpt><trkpt lat="44.989637457585964" lon="8.428555771758251"><ele>142.0</ele><time>2026-04-11T10:14:04.001Z</time></trkpt><trkpt lat="44.98970703381383" lon="8.428551364703559"><ele>142.0</ele><time>2026-04-11T10:14:05.001Z</time></trkpt><trkpt lat="44.9897851408024" lon="8.428528757377403"><ele>142.0</ele><time>2026-04-11T10:14:06.001Z</time></trkpt><trkpt lat="44.98985624247397" lon="8.42852926679723"><ele>142.0</ele><time>2026-04-11T10:14:07.001Z</time></trkpt><trkpt lat="44.98994239197033" lon="8.428428720828283"><ele>142.0</ele><time>2026-04-11T10:14:09.001Z</time></trkpt><trkpt lat="44.9899604465335" lon="8.428254237193528"><ele>142.0</ele><time>2026-04-11T10:14:11.002Z</time></trkpt><trkpt lat="44.98995000987528" lon="8.428113988346771"><ele>142.0</ele><time>2026-04-11T10:14:12.002Z</time></trkpt><trkpt lat="44.98992950409261" lon="8.427946809615369"><ele>142.0</ele><time>2026-04-11T10:14:13.002Z</time></trkpt><trkpt lat="44.98990299301056" lon="8.427768998805897"><ele>143.25</ele><time>2026-04-11T10:14:14.002Z</time></trkpt><trkpt lat="44.98985179366966" lon="8.42759943399659"><ele>144.5</ele><time>2026-04-11T10:14:15.002Z</time></trkpt><trkpt lat="44.98982519258237" lon="8.427421620207001"><ele>145.75</ele><time>2026-04-11T10:14:16.002Z</time></trkpt><trkpt lat="44.989788435601284" lon="8.427265810895337"><ele>147.0</ele><time>2026-04-11T10:14:17.002Z</time></trkpt><trkpt lat="44.98976116416673" lon="8.427112893881946"><ele>147.6</ele><time>2026-04-11T10:14:18.002Z</time></trkpt><trkpt lat="44.98974448931203" lon="8.426978836321942"><ele>148.2</ele><time>2026-04-11T10:14:19.002Z</time></trkpt><trkpt lat="44.98972946417443" lon="8.42684058455828"><ele>148.8</ele><time>2026-04-11T10:14:20.002Z</time></trkpt><trkpt lat="44.989714958587626" lon="8.426701572135935"><ele>149.4</ele><time>2026-04-11T10:14:21.002Z</time></trkpt><trkpt lat="44.989680799260235" lon="8.426568087219547"><ele>150.0</ele><time>2026-04-11T10:14:22.002Z</time></trkpt><trkpt lat="44.98964161968289" lon="8.42644355982299"><ele>150.0</ele><time>2026-04-11T10:14:23.002Z</time></trkpt><trkpt lat="44.989591052022234" lon="8.42632052672814"><ele>150.0</ele><time>2026-04-11T10:14:24.002Z</time></trkpt><trkpt lat="44.98953168424293" lon="8.426174894622537"><ele>150.0</ele><time>2026-04-11T10:14:25.002Z</time></trkpt><trkpt lat="44.989470134779424" lon="8.426018025752784"><ele>150.0</ele><time>2026-04-11T10:14:26.002Z</time></trkpt><trkpt lat="44.989407895225035" lon="8.425850704863278"><ele>149.8</ele><time>2026-04-11T10:14:27.002Z</time></trkpt><trkpt lat="44.98935380846791" lon="8.425711085604435"><ele>149.6</ele><time>2026-04-11T10:14:28.002Z</time></trkpt><trkpt lat="44.989298688696614" lon="8.425585179123864"><ele>149.4</ele><time>2026-04-11T10:14:29.002Z</time></trkpt><trkpt lat="44.98925739356146" lon="8.425465880430371"><ele>149.2</ele><time>2026-04-11T10:14:30.002Z</time></trkpt><trkpt lat="44.989208390330965" lon="8.425359435243543"><ele>149.0</ele><time>2026-04-11T10:14:31.002Z</time></trkpt><trkpt lat="44.9891565499081" lon="8.425267830258925"><ele>148.2</ele><time>2026-04-11T10:14:32.002Z</time></trkpt><trkpt lat="44.98908738462693" lon="8.425172203879725"><ele>147.4</ele><time>2026-04-11T10:14:33.002Z</time></trkpt><trkpt lat="44.9890067670574" lon="8.425066046180522"><ele>146.6</ele><time>2026-04-11T10:14:34Z</time></trkpt><trkpt lat="44.98892662879831" lon="8.424948841348876"><ele>145.8</ele><time>2026-04-11T10:14:35Z</time></trkpt><trkpt lat="44.98886552908138" lon="8.424841214083699"><ele>145.0</ele><time>2026-04-11T10:14:36Z</time></trkpt><trkpt lat="44.98882219545754" lon="8.424726753944054"><ele>145.6</ele><time>2026-04-11T10:14:37Z</time></trkpt><trkpt lat="44.98878630388726" lon="8.424593205269202"><ele>146.2</ele><time>2026-04-11T10:14:38Z</time></trkpt><trkpt lat="44.98875865272978" lon="8.424441704196308"><ele>146.8</ele><time>2026-04-11T10:14:39Z</time></trkpt><trkpt lat="44.988735290174326" lon="8.424276710121548"><ele>147.4</ele><time>2026-04-11T10:14:40Z</time></trkpt><trkpt lat="44.988743216922664" lon="8.424115681269686"><ele>148.0</ele><time>2026-04-11T10:14:41Z</time></trkpt><trkpt lat="44.98874456097854" lon="8.423966809437607"><ele>148.20000000000002</ele><time>2026-04-11T10:14:42Z</time></trkpt><trkpt lat="44.98874075987047" lon="8.423810807217565"><ele>148.4</ele><time>2026-04-11T10:14:43Z</time></trkpt><trkpt lat="44.988780853308945" lon="8.423660107460604"><ele>148.60000000000002</ele><time>2026-04-11T10:14:44Z</time></trkpt><trkpt lat="44.98881491208002" lon="8.423515152217579"><ele>148.8</ele><time>2026-04-11T10:14:45Z</time></trkpt><trkpt lat="44.98886363736012" lon="8.42337173433599"><ele>149.0</ele><time>2026-04-11T10:14:46Z</time></trkpt><trkpt lat="44.988921572404124" lon="8.423236928680746"><ele>149.0</ele><time>2026-04-11T10:14:47Z</time></trkpt><trkpt lat="44.98898042695804" lon="8.42310460010584"><ele>149.0</ele><time>2026-04-11T10:14:48Z</time></trkpt><trkpt lat="44.98900741319845" lon="8.422983906139581"><ele>149.0</ele><time>2026-04-11T10:14:49Z</time></trkpt><trkpt lat="44.989027454448724" lon="8.422877434469115"><ele>149.0</ele><time>2026-04-11T10:14:50Z</time></trkpt><trkpt lat="44.9890348458683" lon="8.42274847889284"><ele>149.0</ele><time>2026-04-11T10:14:51Z</time></trkpt><trkpt lat="44.98903105648817" lon="8.42259132759889"><ele>149.0</ele><time>2026-04-11T10:14:52Z</time></trkpt><trkpt lat="44.98903174125922" lon="8.422409712577435"><ele>149.0</ele><time>2026-04-11T10:14:53Z</time></trkpt><trkpt lat="44.989033070192164" lon="8.42221623889871"><ele>149.0</ele><time>2026-04-11T10:14:54Z</time></trkpt><trkpt lat="44.98902699531563" lon="8.422048477179876"><ele>149.0</ele><time>2026-04-11T10:14:55Z</time></trkpt><trkpt lat="44.989022254563494" lon="8.42190555389266"><ele>149.0</ele><time>2026-04-11T10:14:56Z</time></trkpt><trkpt lat="44.98901345636773" lon="8.421764565440485"><ele>149.0</ele><time>2026-04-11T10:14:57Z</time></trkpt><trkpt lat="44.98900513869171" lon="8.421637933115626"><ele>149.0</ele><time>2026-04-11T10:14:58Z</time></trkpt><trkpt lat="44.988996501816594" lon="8.421495545279122"><ele>149.0</ele><time>2026-04-11T10:14:59Z</time></trkpt><trkpt lat="44.98898399856027" lon="8.42134279945107"><ele>149.0</ele><time>2026-04-11T10:15:00Z</time></trkpt><trkpt lat="44.98896792978453" lon="8.421180179213875"><ele>149.16666666666666</ele><time>2026-04-11T10:15:01Z</time></trkpt><trkpt lat="44.9889547109246" lon="8.421041657679451"><ele>149.33333333333331</ele><time>2026-04-11T10:15:02Z</time></trkpt><trkpt lat="44.988946001624115" lon="8.4209143228575"><ele>149.5</ele><time>2026-04-11T10:15:03Z</time></trkpt><trkpt lat="44.98894632931391" lon="8.420794289483226"><ele>149.66666666666666</ele><time>2026-04-11T10:15:04Z</time></trkpt><trkpt lat="44.988955714684224" lon="8.42068628314095"><ele>149.83333333333334</ele><time>2026-04-11T10:15:05Z</time></trkpt><trkpt lat="44.98896445183937" lon="8.420565799078902"><ele>150.0</ele><time>2026-04-11T10:15:06Z</time></trkpt><trkpt lat="44.9889576197568" lon="8.42046869911581"><ele>150.0</ele><time>2026-04-11T10:15:07Z</time></trkpt><trkpt lat="44.98893473466098" lon="8.420369602454073"><ele>150.0</ele><time>2026-04-11T10:15:08Z</time></trkpt><trkpt lat="44.98891792617817" lon="8.420245062701573"><ele>150.0</ele><time>2026-04-11T10:15:09Z</time></trkpt><trkpt lat="44.9888982447266" lon="8.420097467942272"><ele>150.0</ele><time>2026-04-11T10:15:10Z</time></trkpt><trkpt lat="44.988876549860045" lon="8.419945048134968"><ele>150.0</ele><time>2026-04-11T10:15:11Z</time></trkpt><trkpt lat="44.98884596701925" lon="8.419784963765776"><ele>150.5</ele><time>2026-04-11T10:15:12Z</time></trkpt><trkpt lat="44.98881331712141" lon="8.419619737034425"><ele>151.0</ele><time>2026-04-11T10:15:13Z</time></trkpt><trkpt lat="44.98878182353737" lon="8.419450319869306"><ele>151.5</ele><time>2026-04-11T10:15:14Z</time></trkpt><trkpt lat="44.988752437777094" lon="8.419277442790655"><ele>152.0</ele><time>2026-04-11T10:15:15Z</time></trkpt><trkpt lat="44.98871992860858" lon="8.419101593990277"><ele>152.0</ele><time>2026-04-11T10:15:16Z</time></trkpt><trkpt lat="44.98869085756361" lon="8.418935398302073"><ele>152.0</ele><time>2026-04-11T10:15:17.001Z</time></trkpt><trkpt lat="44.988668317581606" lon="8.4187939829678"><ele>152.0</ele><time>2026-04-11T10:15:18.001Z</time></trkpt><trkpt lat="44.98865178300169" lon="8.418660006004908"><ele>152.0</ele><time>2026-04-11T10:15:19.001Z</time></trkpt><trkpt lat="44.9886394256577" lon="8.418536793512398"><ele>152.0</ele><time>2026-04-11T10:15:20.001Z</time></trkpt><trkpt lat="44.98863158769171" lon="8.418421886734036"><ele>152.0</ele><time>2026-04-11T10:15:21.001Z</time></trkpt><trkpt lat="44.98866115473179" lon="8.418296485838129"><ele>152.0</ele><time>2026-04-11T10:15:22.001Z</time></trkpt><trkpt lat="44.988682711381365" lon="8.418168091124942"><ele>152.0</ele><time>2026-04-11T10:15:23.001Z</time></trkpt><trkpt lat="44.988712652390134" lon="8.418031646905941"><ele>152.0</ele><time>2026-04-11T10:15:24.001Z</time></trkpt><trkpt lat="44.988743210104495" lon="8.417921492464977"><ele>152.0</ele><time>2026-04-11T10:15:25.001Z</time></trkpt><trkpt lat="44.98877092425122" lon="8.41781737000233"><ele>151.4</ele><time>2026-04-11T10:15:26.001Z</time></trkpt><trkpt lat="44.98880986357203" lon="8.41769639611386"><ele>150.79999999999998</ele><time>2026-04-11T10:15:27.001Z</time></trkpt><trkpt lat="44.98884465072429" lon="8.417573960045072"><ele>150.2</ele><time>2026-04-11T10:15:28.001Z</time></trkpt><trkpt lat="44.98888382588006" lon="8.41744002345569"><ele>149.6</ele><time>2026-04-11T10:15:29.001Z</time></trkpt><trkpt lat="44.9889208334614" lon="8.417294207935486"><ele>149.0</ele><time>2026-04-11T10:15:30.001Z</time></trkpt><trkpt lat="44.988981879698535" lon="8.417172479342685"><ele>148.2</ele><time>2026-04-11T10:15:31.001Z</time></trkpt><trkpt lat="44.98904206981518" lon="8.417045114819675"><ele>147.4</ele><time>2026-04-11T10:15:32.001Z</time></trkpt><trkpt lat="44.989109004940715" lon="8.416914425937792"><ele>146.6</ele><time>2026-04-11T10:15:33.001Z</time></trkpt><trkpt lat="44.98917172924286" lon="8.416781073410199"><ele>145.8</ele><time>2026-04-11T10:15:34.001Z</time></trkpt><trkpt lat="44.98923968576126" lon="8.41666045717572"><ele>145.0</ele><time>2026-04-11T10:15:35.001Z</time></trkpt><trkpt lat="44.98930918804221" lon="8.416553834565912"><ele>146.5</ele><time>2026-04-11T10:15:36.001Z</time></trkpt><trkpt lat="44.98937831064764" lon="8.416440029761604"><ele>148.0</ele><time>2026-04-11T10:15:37.001Z</time></trkpt><trkpt lat="44.989448687190965" lon="8.41631086084867"><ele>149.5</ele><time>2026-04-11T10:15:38.001Z</time></trkpt><trkpt lat="44.98951816112888" lon="8.41616645460688"><ele>151.0</ele><time>2026-04-11T10:15:39.001Z</time></trkpt><trkpt lat="44.98957725562644" lon="8.416033338964791"><ele>151.0</ele><time>2026-04-11T10:15:40.001Z</time></trkpt><trkpt lat="44.989626629429765" lon="8.41590324911991"><ele>151.0</ele><time>2026-04-11T10:15:41.001Z</time></trkpt><trkpt lat="44.98966486837824" lon="8.415781439144302"><ele>151.0</ele><time>2026-04-11T10:15:42.001Z</time></trkpt><trkpt lat="44.9896935172171" lon="8.415654956754622"><ele>151.0</ele><time>2026-04-11T10:15:43.001Z</time></trkpt><trkpt lat="44.98971396758858" lon="8.415534901084753"><ele>151.0</ele><time>2026-04-11T10:15:44.001Z</time></trkpt><trkpt lat="44.9897317335127" lon="8.415398073166688"><ele>150.75</ele><time>2026-04-11T10:15:45.001Z</time></trkpt><trkpt lat="44.98975225025518" lon="8.415236960609313"><ele>150.5</ele><time>2026-04-11T10:15:46.001Z</time></trkpt><trkpt lat="44.98977173952876" lon="8.415072187092013"><ele>150.25</ele><time>2026-04-11T10:15:47.001Z</time></trkpt><trkpt lat="44.98978322985842" lon="8.414899750132411"><ele>150.0</ele><time>2026-04-11T10:15:48.001Z</time></trkpt><trkpt lat="44.98979628262658" lon="8.414719631628186"><ele>149.75</ele><time>2026-04-11T10:15:49.001Z</time></trkpt><trkpt lat="44.989805121107125" lon="8.414537253843662"><ele>149.5</ele><time>2026-04-11T10:15:50.001Z</time></trkpt><trkpt lat="44.9898189670392" lon="8.414353448442153"><ele>149.25</ele><time>2026-04-11T10:15:51.001Z</time></trkpt><trkpt lat="44.989821769858466" lon="8.414166833079452"><ele>149.0</ele><time>2026-04-11T10:15:52.001Z</time></trkpt><trkpt lat="44.989827973335025" lon="8.414004545296624"><ele>149.0</ele><time>2026-04-11T10:15:53.001Z</time></trkpt><trkpt lat="44.98983262107958" lon="8.413855912692224"><ele>149.0</ele><time>2026-04-11T10:15:54.001Z</time></trkpt><trkpt lat="44.98983688268984" lon="8.413719556027694"><ele>149.0</ele><time>2026-04-11T10:15:55.001Z</time></trkpt><trkpt lat="44.98983955173576" lon="8.41359490437548"><ele>149.0</ele><time>2026-04-11T10:15:56.001Z</time></trkpt><trkpt lat="44.98984630965501" lon="8.413478921209142"><ele>149.0</ele><time>2026-04-11T10:15:57.001Z</time></trkpt><trkpt lat="44.98985117086045" lon="8.413379391901625"><ele>149.0</ele><time>2026-04-11T10:15:58.001Z</time></trkpt><trkpt lat="44.98985590687096" lon="8.41327623618674"><ele>148.83333333333331</ele><time>2026-04-11T10:15:59.001Z</time></trkpt><trkpt lat="44.98985964942081" lon="8.413186396003082"><ele>148.66666666666666</ele><time>2026-04-11T10:16:00.001Z</time></trkpt><trkpt lat="44.98987929806883" lon="8.413009855073456"><ele>148.5</ele><time>2026-04-11T10:16:02.001Z</time></trkpt><trkpt lat="44.9898841795346" lon="8.41290204210095"><ele>148.33333333333334</ele><time>2026-04-11T10:16:03.001Z</time></trkpt><trkpt lat="44.98989925565764" lon="8.412796361879854"><ele>148.16666666666669</ele><time>2026-04-11T10:16:04.001Z</time></trkpt><trkpt lat="44.98991376022372" lon="8.41270129331503"><ele>148.0</ele><time>2026-04-11T10:16:05.001Z</time></trkpt><trkpt lat="44.98992630644726" lon="8.412604910917844"><ele>148.0</ele><time>2026-04-11T10:16:06.001Z</time></trkpt><trkpt lat="44.989943318451516" lon="8.412482345966007"><ele>148.0</ele><time>2026-04-11T10:16:07.001Z</time></trkpt><trkpt lat="44.98995983332302" lon="8.412383923703915"><ele>148.0</ele><time>2026-04-11T10:16:08.001Z</time></trkpt><trkpt lat="44.98998293344223" lon="8.4122872313737"><ele>148.0</ele><time>2026-04-11T10:16:09.001Z</time></trkpt><trkpt lat="44.990011948476706" lon="8.412175628113168"><ele>148.0</ele><time>2026-04-11T10:16:10.001Z</time></trkpt><trkpt lat="44.990042176818235" lon="8.412065313387988"><ele>148.0</ele><time>2026-04-11T10:16:11.001Z</time></trkpt><trkpt lat="44.99007531254631" lon="8.41193703971603"><ele>148.20000000000002</ele><time>2026-04-11T10:16:12.001Z</time></trkpt><trkpt lat="44.99011064864862" lon="8.411802542556467"><ele>148.4</ele><time>2026-04-11T10:16:13.001Z</time></trkpt><trkpt lat="44.99015086282955" lon="8.411664069621235"><ele>148.60000000000002</ele><time>2026-04-11T10:16:14.001Z</time></trkpt><trkpt lat="44.99018285586359" lon="8.411535490279451"><ele>148.8</ele><time>2026-04-11T10:16:15.001Z</time></trkpt><trkpt lat="44.99021874083498" lon="8.41139998476698"><ele>149.0</ele><time>2026-04-11T10:16:16.001Z</time></trkpt><trkpt lat="44.99025639868217" lon="8.411289873906643"><ele>149.0</ele><time>2026-04-11T10:16:17.002Z</time></trkpt><trkpt lat="44.99027576940879" lon="8.411191800393267"><ele>149.0</ele><time>2026-04-11T10:16:18.002Z</time></trkpt><trkpt lat="44.99030641734604" lon="8.41110265155293"><ele>149.0</ele><time>2026-04-11T10:16:19.002Z</time></trkpt><trkpt lat="44.99030792578625" lon="8.410998357628074"><ele>149.0</ele><time>2026-04-11T10:16:20.002Z</time></trkpt><trkpt lat="44.99031193502311" lon="8.410894381634245"><ele>149.0</ele><time>2026-04-11T10:16:21.002Z</time></trkpt><trkpt lat="44.9902996931143" lon="8.410786292912853"><ele>149.0</ele><time>2026-04-11T10:16:22.002Z</time></trkpt><trkpt lat="44.99028010329484" lon="8.410672810364584"><ele>149.0</ele><time>2026-04-11T10:16:23.002Z</time></trkpt><trkpt lat="44.99024735926657" lon="8.410562435652507"><ele>149.0</ele><time>2026-04-11T10:16:24.002Z</time></trkpt><trkpt lat="44.990238899124925" lon="8.410441532214293"><ele>149.0</ele><time>2026-04-11T10:16:25.002Z</time></trkpt><trkpt lat="44.99025072921602" lon="8.410329080741041"><ele>149.0</ele><time>2026-04-11T10:16:26.002Z</time></trkpt><trkpt lat="44.99025599960723" lon="8.410200284630834"><ele>149.0</ele><time>2026-04-11T10:16:27.002Z</time></trkpt><trkpt lat="44.99027834995634" lon="8.410068014907731"><ele>149.0</ele><time>2026-04-11T10:16:28.002Z</time></trkpt><trkpt lat="44.99030530882136" lon="8.409979201658707"><ele>149.4</ele><time>2026-04-11T10:16:29.002Z</time></trkpt><trkpt lat="44.990395693251486" lon="8.409878008227722"><ele>149.8</ele><time>2026-04-11T10:16:31.002Z</time></trkpt><trkpt lat="44.99046008560319" lon="8.409894536691855"><ele>150.2</ele><time>2026-04-11T10:16:32.002Z</time></trkpt><trkpt lat="44.990559473844" lon="8.409888229591859"><ele>150.6</ele><time>2026-04-11T10:16:34.002Z</time></trkpt><trkpt lat="44.990643904596695" lon="8.409837670153374"><ele>151.0</ele><time>2026-04-11T10:16:36.002Z</time></trkpt><trkpt lat="44.99068898111564" lon="8.409713784520564"><ele>150.8</ele><time>2026-04-11T10:16:38.002Z</time></trkpt><trkpt lat="44.9907118274126" lon="8.409617036458146"><ele>150.6</ele><time>2026-04-11T10:16:39.002Z</time></trkpt><trkpt lat="44.9907466477941" lon="8.40947677033116"><ele>150.4</ele><time>2026-04-11T10:16:40Z</time></trkpt><trkpt lat="44.99076609893409" lon="8.409336795149347"><ele>150.2</ele><time>2026-04-11T10:16:41Z</time></trkpt><trkpt lat="44.990796892285985" lon="8.409214759930546"><ele>150.0</ele><time>2026-04-11T10:16:42Z</time></trkpt><trkpt lat="44.99084084735706" lon="8.409079483555452"><ele>150.5</ele><time>2026-04-11T10:16:43Z</time></trkpt><trkpt lat="44.990884770213256" lon="8.408995180015657"><ele>151.0</ele><time>2026-04-11T10:16:44Z</time></trkpt><trkpt lat="44.99094138668068" lon="8.408918214401771"><ele>151.5</ele><time>2026-04-11T10:16:45Z</time></trkpt><trkpt lat="44.990991437531086" lon="8.40885429616057"><ele>152.0</ele><time>2026-04-11T10:16:46Z</time></trkpt><trkpt lat="44.99106179619378" lon="8.40872961475351"><ele>152.5</ele><time>2026-04-11T10:16:48Z</time></trkpt><trkpt lat="44.991104888474716" lon="8.408632252227948"><ele>153.0</ele><time>2026-04-11T10:16:49Z</time></trkpt><trkpt lat="44.991174857902344" lon="8.40855175933603"><ele>153.0</ele><time>2026-04-11T10:16:50Z</time></trkpt><trkpt lat="44.99122422244884" lon="8.408456249977402"><ele>153.0</ele><time>2026-04-11T10:16:51Z</time></trkpt><trkpt lat="44.99130637549521" lon="8.4084341692596"><ele>153.0</ele><time>2026-04-11T10:16:52Z</time></trkpt><trkpt lat="44.9913819350647" lon="8.40838717270448"><ele>153.0</ele><time>2026-04-11T10:16:53Z</time></trkpt><trkpt lat="44.99145258479721" lon="8.408340320966044"><ele>153.0</ele><time>2026-04-11T10:16:54Z</time></trkpt><trkpt lat="44.99153369984404" lon="8.408286529489674"><ele>153.0</ele><time>2026-04-11T10:16:55Z</time></trkpt><trkpt lat="44.99162812811524" lon="8.408223909250967"><ele>153.4</ele><time>2026-04-11T10:16:56Z</time></trkpt><trkpt lat="44.991717136819794" lon="8.408162026573633"><ele>153.8</ele><time>2026-04-11T10:16:57Z</time></trkpt><trkpt lat="44.9918062249987" lon="8.408091995694614"><ele>154.2</ele><time>2026-04-11T10:16:58Z</time></trkpt><trkpt lat="44.99188492582042" lon="8.408020729603873"><ele>154.6</ele><time>2026-04-11T10:16:59Z</time></trkpt><trkpt lat="44.9919570441453" lon="8.40793192396142"><ele>155.0</ele><time>2026-04-11T10:17:00Z</time></trkpt><trkpt lat="44.992006994706195" lon="8.407808597429995"><ele>154.0</ele><time>2026-04-11T10:17:01Z</time></trkpt><trkpt lat="44.992060091970586" lon="8.407685546259698"><ele>153.0</ele><time>2026-04-11T10:17:02Z</time></trkpt><trkpt lat="44.992113656705605" lon="8.407554842064464"><ele>152.0</ele><time>2026-04-11T10:17:03Z</time></trkpt><trkpt lat="44.99215219069446" lon="8.40742973718216"><ele>151.0</ele><time>2026-04-11T10:17:04Z</time></trkpt><trkpt lat="44.992165674234606" lon="8.407316565850815"><ele>150.0</ele><time>2026-04-11T10:17:05Z</time></trkpt><trkpt lat="44.99219592140013" lon="8.407227437076628"><ele>149.6</ele><time>2026-04-11T10:17:06Z</time></trkpt><trkpt lat="44.99223129923506" lon="8.407094600178064"><ele>149.2</ele><time>2026-04-11T10:17:08Z</time></trkpt><trkpt lat="44.99228103959456" lon="8.406928903654052"><ele>148.8</ele><time>2026-04-11T10:17:10Z</time></trkpt><trkpt lat="44.992304012772436" lon="8.406832687226814"><ele>148.4</ele><time>2026-04-11T10:17:11Z</time></trkpt><trkpt lat="44.992342229437476" lon="8.406671994899703"><ele>148.0</ele><time>2026-04-11T10:17:13Z</time></trkpt><trkpt lat="44.99237601124802" lon="8.406526646860044"><ele>148.0</ele><time>2026-04-11T10:17:15Z</time></trkpt><trkpt lat="44.99240796368983" lon="8.406389169534048"><ele>148.0</ele><time>2026-04-11T10:17:17Z</time></trkpt><trkpt lat="44.9924313922846" lon="8.406288366061666"><ele>148.0</ele><time>2026-04-11T10:17:18Z</time></trkpt><trkpt lat="44.992461129297105" lon="8.40616042095445"><ele>148.0</ele><time>2026-04-11T10:17:19Z</time></trkpt><trkpt lat="44.9924929237013" lon="8.406023623563295"><ele>148.0</ele><time>2026-04-11T10:17:20Z</time></trkpt><trkpt lat="44.9925167040125" lon="8.405921392314573"><ele>148.33333333333334</ele><time>2026-04-11T10:17:21Z</time></trkpt><trkpt lat="44.99255839698078" lon="8.405742794680101"><ele>148.66666666666669</ele><time>2026-04-11T10:17:23.001Z</time></trkpt><trkpt lat="44.99258026321216" lon="8.405650264873437"><ele>149.0</ele><time>2026-04-11T10:17:24.001Z</time></trkpt><trkpt lat="44.992608094585556" lon="8.405536002014536"><ele>149.33333333333334</ele><time>2026-04-11T10:17:25.001Z</time></trkpt><trkpt lat="44.992632999439415" lon="8.405440423401213"><ele>149.66666666666666</ele><time>2026-04-11T10:17:26.001Z</time></trkpt><trkpt lat="44.992652984057514" lon="8.40533188174317"><ele>150.0</ele><time>2026-04-11T10:17:27.001Z</time></trkpt><trkpt lat="44.99268288491587" lon="8.40523782627526"><ele>150.16666666666666</ele><time>2026-04-11T10:17:28.001Z</time></trkpt><trkpt lat="44.992734144775554" lon="8.405095695557067"><ele>150.33333333333334</ele><time>2026-04-11T10:17:30.001Z</time></trkpt><trkpt lat="44.992761893551084" lon="8.404998548165198"><ele>150.5</ele><time>2026-04-11T10:17:32.001Z</time></trkpt><trkpt lat="44.9928268244582" lon="8.404858198887862"><ele>150.66666666666669</ele><time>2026-04-11T10:17:34.001Z</time></trkpt><trkpt lat="44.99285911631346" lon="8.404771326096718"><ele>150.83333333333334</ele><time>2026-04-11T10:17:35.001Z</time></trkpt><trkpt lat="44.99289194205874" lon="8.40468425579214"><ele>151.0</ele><time>2026-04-11T10:17:36.001Z</time></trkpt><trkpt lat="44.99292357508291" lon="8.404600349181942"><ele>150.6</ele><time>2026-04-11T10:17:37.001Z</time></trkpt><trkpt lat="44.99294698023805" lon="8.404492416400805"><ele>150.2</ele><time>2026-04-11T10:17:38.001Z</time></trkpt><trkpt lat="44.99298376818663" lon="8.404414889096117"><ele>149.8</ele><time>2026-04-11T10:17:39.001Z</time></trkpt><trkpt lat="44.993041416626184" lon="8.404263360505732"><ele>149.4</ele><time>2026-04-11T10:17:41.001Z</time></trkpt><trkpt lat="44.99308041602296" lon="8.40415024405054"><ele>149.0</ele><time>2026-04-11T10:17:42.001Z</time></trkpt><trkpt lat="44.99312474793821" lon="8.404028028818413"><ele>149.0</ele><time>2026-04-11T10:17:43.001Z</time></trkpt><trkpt lat="44.99315996320352" lon="8.403924347561343"><ele>149.0</ele><time>2026-04-11T10:17:44.001Z</time></trkpt><trkpt lat="44.9931891007059" lon="8.403841213176516"><ele>149.0</ele><time>2026-04-11T10:17:45.001Z</time></trkpt><trkpt lat="44.993231794252054" lon="8.403659613166099"><ele>149.0</ele><time>2026-04-11T10:17:47.001Z</time></trkpt><trkpt lat="44.99325744901844" lon="8.403545062682781"><ele>149.0</ele><time>2026-04-11T10:17:48.001Z</time></trkpt><trkpt lat="44.99329235590977" lon="8.403392012017763"><ele>148.75</ele><time>2026-04-11T10:17:49.001Z</time></trkpt><trkpt lat="44.993328410512" lon="8.403238133006454"><ele>148.5</ele><time>2026-04-11T10:17:50.001Z</time></trkpt><trkpt lat="44.99336992789206" lon="8.403082275820468"><ele>148.25</ele><time>2026-04-11T10:17:51.001Z</time></trkpt><trkpt lat="44.99343094615053" lon="8.40294236445735"><ele>148.0</ele><time>2026-04-11T10:17:52.001Z</time></trkpt><trkpt lat="44.993459043088045" lon="8.40279471092191"><ele>148.0</ele><time>2026-04-11T10:17:53.001Z</time></trkpt><trkpt lat="44.99349990244407" lon="8.402666106350816"><ele>148.0</ele><time>2026-04-11T10:17:54.001Z</time></trkpt><trkpt lat="44.993527363861844" lon="8.402547605830836"><ele>148.0</ele><time>2026-04-11T10:17:55.001Z</time></trkpt><trkpt lat="44.99355527194406" lon="8.402430095187325"><ele>148.0</ele><time>2026-04-11T10:17:56.001Z</time></trkpt><trkpt lat="44.993598317923315" lon="8.402335997259785"><ele>148.0</ele><time>2026-04-11T10:17:57.001Z</time></trkpt><trkpt lat="44.9936268367863" lon="8.402234256554141"><ele>148.0</ele><time>2026-04-11T10:17:58.001Z</time></trkpt><trkpt lat="44.99365823354013" lon="8.402120229014667"><ele>148.0</ele><time>2026-04-11T10:17:59.001Z</time></trkpt><trkpt lat="44.99368005015385" lon="8.401977001862974"><ele>148.0</ele><time>2026-04-11T10:18:00.001Z</time></trkpt><trkpt lat="44.99372806353289" lon="8.401845937114084"><ele>148.0</ele><time>2026-04-11T10:18:01.001Z</time></trkpt><trkpt lat="44.993764961671296" lon="8.401695590847636"><ele>148.0</ele><time>2026-04-11T10:18:02.001Z</time></trkpt><trkpt lat="44.99380484572057" lon="8.40154692888989"><ele>148.0</ele><time>2026-04-11T10:18:03.001Z</time></trkpt><trkpt lat="44.99385022402615" lon="8.401397539656408"><ele>148.8</ele><time>2026-04-11T10:18:04.001Z</time></trkpt><trkpt lat="44.99389441840768" lon="8.401256572934559"><ele>149.60000000000002</ele><time>2026-04-11T10:18:05.001Z</time></trkpt><trkpt lat="44.99393715890192" lon="8.401120433859857"><ele>150.39999999999998</ele><time>2026-04-11T10:18:06.001Z</time></trkpt><trkpt lat="44.99397878116966" lon="8.401002492473467"><ele>151.2</ele><time>2026-04-11T10:18:07.001Z</time></trkpt><trkpt lat="44.99400076620556" lon="8.400895589382852"><ele>152.0</ele><time>2026-04-11T10:18:08.001Z</time></trkpt><trkpt lat="44.9940269204715" lon="8.4007957600538"><ele>152.0</ele><time>2026-04-11T10:18:09.001Z</time></trkpt><trkpt lat="44.99404910508121" lon="8.40070997433791"><ele>152.0</ele><time>2026-04-11T10:18:10.001Z</time></trkpt><trkpt lat="44.99406084544158" lon="8.400615694635407"><ele>152.0</ele><time>2026-04-11T10:18:11.001Z</time></trkpt><trkpt lat="44.994087501059624" lon="8.400505992733988"><ele>152.0</ele><time>2026-04-11T10:18:12.001Z</time></trkpt><trkpt lat="44.9941116593069" lon="8.400393226777439"><ele>152.0</ele><time>2026-04-11T10:18:13.001Z</time></trkpt><trkpt lat="44.99413229464451" lon="8.40027167778067"><ele>152.0</ele><time>2026-04-11T10:18:14.001Z</time></trkpt><trkpt lat="44.994144712737736" lon="8.400176087369204"><ele>151.79999999999998</ele><time>2026-04-11T10:18:15.001Z</time></trkpt><trkpt lat="44.99415641877918" lon="8.400084960741236"><ele>151.6</ele><time>2026-04-11T10:18:16.001Z</time></trkpt><trkpt lat="44.99417838250409" lon="8.399952996726112"><ele>151.39999999999998</ele><time>2026-04-11T10:18:17.001Z</time></trkpt><trkpt lat="44.99420658347456" lon="8.399802413187588"><ele>151.2</ele><time>2026-04-11T10:18:18.001Z</time></trkpt><trkpt lat="44.99422521947017" lon="8.39965744474978"><ele>151.0</ele><time>2026-04-11T10:18:19.001Z</time></trkpt><trkpt lat="44.99425869799739" lon="8.399514461935475"><ele>150.75</ele><time>2026-04-11T10:18:20.001Z</time></trkpt><trkpt lat="44.99428143546871" lon="8.399367462785825"><ele>150.5</ele><time>2026-04-11T10:18:21.001Z</time></trkpt><trkpt lat="44.9943127468033" lon="8.39920843189072"><ele>150.25</ele><time>2026-04-11T10:18:22.002Z</time></trkpt><trkpt lat="44.994344433892415" lon="8.39904821663144"><ele>150.0</ele><time>2026-04-11T10:18:23.002Z</time></trkpt><trkpt lat="44.99437477708402" lon="8.398887726841298"><ele>150.5</ele><time>2026-04-11T10:18:24.002Z</time></trkpt><trkpt lat="44.994401124687" lon="8.398732436861478"><ele>151.0</ele><time>2026-04-11T10:18:25.002Z</time></trkpt><trkpt lat="44.99442907580437" lon="8.398568346494924"><ele>151.5</ele><time>2026-04-11T10:18:26.002Z</time></trkpt><trkpt lat="44.99445508399458" lon="8.398403687948978"><ele>152.0</ele><time>2026-04-11T10:18:27.002Z</time></trkpt><trkpt lat="44.9944777451092" lon="8.398244871645282"><ele>152.0</ele><time>2026-04-11T10:18:28.002Z</time></trkpt><trkpt lat="44.99449855760895" lon="8.398093934259853"><ele>152.0</ele><time>2026-04-11T10:18:29.002Z</time></trkpt><trkpt lat="44.9945190729281" lon="8.39795267778755"><ele>152.0</ele><time>2026-04-11T10:18:30.002Z</time></trkpt><trkpt lat="44.994538297355135" lon="8.397828863603587"><ele>152.0</ele><time>2026-04-11T10:18:31.002Z</time></trkpt><trkpt lat="44.994582312982764" lon="8.397713016207192"><ele>152.0</ele><time>2026-04-11T10:18:32.002Z</time></trkpt><trkpt lat="44.99461160398522" lon="8.397601744724899"><ele>152.0</ele><time>2026-04-11T10:18:33.002Z</time></trkpt><trkpt lat="44.994645890988664" lon="8.39749325069292"><ele>152.0</ele><time>2026-04-11T10:18:34.002Z</time></trkpt><trkpt lat="44.99468118370952" lon="8.397408233468536"><ele>152.0</ele><time>2026-04-11T10:18:35.002Z</time></trkpt><trkpt lat="44.99478212341383" lon="8.397277065254976"><ele>152.0</ele><time>2026-04-11T10:18:37.002Z</time></trkpt><trkpt lat="44.99483965822172" lon="8.397190450620833"><ele>152.0</ele><time>2026-04-11T10:18:38.002Z</time></trkpt><trkpt lat="44.994876460204715" lon="8.397095330009671"><ele>151.83333333333331</ele><time>2026-04-11T10:18:39.002Z</time></trkpt><trkpt lat="44.99492253231976" lon="8.397015386175301"><ele>151.66666666666666</ele><time>2026-04-11T10:18:40.002Z</time></trkpt><trkpt lat="44.994948050963956" lon="8.396924339354397"><ele>151.5</ele><time>2026-04-11T10:18:41.002Z</time></trkpt><trkpt lat="44.994964925070974" lon="8.396791561528227"><ele>151.33333333333334</ele><time>2026-04-11T10:18:43.002Z</time></trkpt><trkpt lat="44.994897892180084" lon="8.39671804502288"><ele>151.16666666666669</ele><time>2026-04-11T10:18:45.002Z</time></trkpt><trkpt lat="44.994814861068114" lon="8.396670399174035"><ele>151.0</ele><time>2026-04-11T10:18:47Z</time></trkpt><trkpt lat="44.99468738040628" lon="8.396603216978377"><ele>151.0</ele><time>2026-04-11T10:18:49Z</time></trkpt><trkpt lat="44.994615565728125" lon="8.396573406952987"><ele>151.0</ele><time>2026-04-11T10:18:50Z</time></trkpt><trkpt lat="44.99452359087607" lon="8.396541056851591"><ele>151.0</ele><time>2026-04-11T10:18:51Z</time></trkpt><trkpt lat="44.99442041967659" lon="8.396509756906086"><ele>151.0</ele><time>2026-04-11T10:18:52Z</time></trkpt><trkpt lat="44.994309708906535" lon="8.396466617056229"><ele>151.0</ele><time>2026-04-11T10:18:53Z</time></trkpt><trkpt lat="44.99420963898969" lon="8.396417912031945"><ele>150.8</ele><time>2026-04-11T10:18:54Z</time></trkpt><trkpt lat="44.994116753451294" lon="8.396372858128096"><ele>150.6</ele><time>2026-04-11T10:18:55Z</time></trkpt><trkpt lat="44.994026981375015" lon="8.396327728041264"><ele>150.4</ele><time>2026-04-11T10:18:56Z</time></trkpt><trkpt lat="44.9939383230989" lon="8.396285899694213"><ele>150.2</ele><time>2026-04-11T10:18:57Z</time></trkpt><trkpt lat="44.99383717997677" lon="8.396235753729494"><ele>150.0</ele><time>2026-04-11T10:18:58Z</time></trkpt><trkpt lat="44.99374010096331" lon="8.396188315876717"><ele>150.0</ele><time>2026-04-11T10:18:59Z</time></trkpt><trkpt lat="44.99363510537709" lon="8.396139468128997"><ele>150.0</ele><time>2026-04-11T10:19:00Z</time></trkpt><trkpt lat="44.99353738430322" lon="8.396093580162058"><ele>150.0</ele><time>2026-04-11T10:19:01Z</time></trkpt><trkpt lat="44.99345142426829" lon="8.396049325688981"><ele>150.0</ele><time>2026-04-11T10:19:02Z</time></trkpt><trkpt lat="44.99337217052407" lon="8.396004473983941"><ele>150.0</ele><time>2026-04-11T10:19:03Z</time></trkpt><trkpt lat="44.99330187385905" lon="8.395975302906669"><ele>150.0</ele><time>2026-04-11T10:19:04Z</time></trkpt><trkpt lat="44.99323288662542" lon="8.395956397254055"><ele>150.0</ele><time>2026-04-11T10:19:06Z</time></trkpt><trkpt lat="44.99313536694797" lon="8.396117919398478"><ele>150.0</ele><time>2026-04-11T10:19:14Z</time></trkpt><trkpt lat="44.99311346779835" lon="8.396225573269147"><ele>150.0</ele><time>2026-04-11T10:19:15Z</time></trkpt><trkpt lat="44.99308526163528" lon="8.396357202848321"><ele>150.0</ele><time>2026-04-11T10:19:16Z</time></trkpt><trkpt lat="44.9930506518736" lon="8.39650302629575"><ele>150.0</ele><time>2026-04-11T10:19:17Z</time></trkpt><trkpt lat="44.993012435095146" lon="8.39664984467153"><ele>150.0</ele><time>2026-04-11T10:19:18Z</time></trkpt><trkpt lat="44.99297671059683" lon="8.396782456055234"><ele>150.0</ele><time>2026-04-11T10:19:19Z</time></trkpt><trkpt lat="44.99294876033601" lon="8.396886470815756"><ele>150.0</ele><time>2026-04-11T10:19:20Z</time></trkpt><trkpt lat="44.99292578517797" lon="8.396980125733343"><ele>150.0</ele><time>2026-04-11T10:19:21Z</time></trkpt><trkpt lat="44.99283776446014" lon="8.397024501890986"><ele>150.0</ele><time>2026-04-11T10:19:24Z</time></trkpt><trkpt lat="44.99276232889121" lon="8.397018653727416"><ele>150.0</ele><time>2026-04-11T10:19:25Z</time></trkpt><trkpt lat="44.9926672298364" lon="8.397022688388965"><ele>150.0</ele><time>2026-04-11T10:19:26Z</time></trkpt><trkpt lat="44.99257924984852" lon="8.397008817250358"><ele>150.0</ele><time>2026-04-11T10:19:27Z</time></trkpt><trkpt lat="44.9925249493892" lon="8.396939537202044"><ele>150.0</ele><time>2026-04-11T10:19:28Z</time></trkpt><trkpt lat="44.992488221407775" lon="8.396862269390676"><ele>150.0</ele><time>2026-04-11T10:19:29Z</time></trkpt><trkpt lat="44.992468034940394" lon="8.396754887171006"><ele>150.75</ele><time>2026-04-11T10:19:30Z</time></trkpt><trkpt lat="44.99246492738118" lon="8.396626258683652"><ele>151.5</ele><time>2026-04-11T10:19:31Z</time></trkpt><trkpt lat="44.99245872956911" lon="8.396449838596189"><ele>152.25</ele><time>2026-04-11T10:19:32Z</time></trkpt><trkpt lat="44.99243740968469" lon="8.396271285136601"><ele>153.0</ele><time>2026-04-11T10:19:33Z</time></trkpt><trkpt lat="44.99242984174834" lon="8.396104290425951"><ele>153.0</ele><time>2026-04-11T10:19:34Z</time></trkpt><trkpt lat="44.99243433618245" lon="8.395927104702125"><ele>153.0</ele><time>2026-04-11T10:19:35Z</time></trkpt><trkpt lat="44.99242431201199" lon="8.395744553098057"><ele>153.0</ele><time>2026-04-11T10:19:36.001Z</time></trkpt><trkpt lat="44.992398839724196" lon="8.395564746733113"><ele>153.0</ele><time>2026-04-11T10:19:37.001Z</time></trkpt><trkpt lat="44.992393414002755" lon="8.395395071551311"><ele>152.8</ele><time>2026-04-11T10:19:38.001Z</time></trkpt><trkpt lat="44.99238888347413" lon="8.395244369764912"><ele>152.60000000000002</ele><time>2026-04-11T10:19:39.001Z</time></trkpt><trkpt lat="44.99238174097341" lon="8.395119656945667"><ele>152.39999999999998</ele><time>2026-04-11T10:19:40.001Z</time></trkpt><trkpt lat="44.99236598187534" lon="8.394966713425788"><ele>152.2</ele><time>2026-04-11T10:19:42.001Z</time></trkpt><trkpt lat="44.99233082460739" lon="8.394828582980194"><ele>152.0</ele><time>2026-04-11T10:19:44.001Z</time></trkpt><trkpt lat="44.99227215739147" lon="8.394791290705708"><ele>152.0</ele><time>2026-04-11T10:19:45.001Z</time></trkpt><trkpt lat="44.99225067795822" lon="8.394670882058046"><ele>152.0</ele><time>2026-04-11T10:20:31.002Z</time></trkpt><trkpt lat="44.992146050245516" lon="8.39460613701337"><ele>152.0</ele><time>2026-04-11T10:20:33.002Z</time></trkpt><trkpt lat="44.99209294164708" lon="8.394538423244754"><ele>152.0</ele><time>2026-04-11T10:20:34.002Z</time></trkpt><trkpt lat="44.992046286083" lon="8.394468749333997"><ele>152.0</ele><time>2026-04-11T10:20:35.002Z</time></trkpt><trkpt lat="44.991982309036835" lon="8.394397366037165"><ele>152.0</ele><time>2026-04-11T10:20:36.002Z</time></trkpt><trkpt lat="44.99210756889729" lon="8.394043840367228"><ele>152.0</ele><time>2026-04-11T10:20:37.002Z</time></trkpt><trkpt lat="44.992068201726056" lon="8.393944057997986"><ele>152.0</ele><time>2026-04-11T10:20:38.002Z</time></trkpt><trkpt lat="44.992029555782636" lon="8.393847189061452"><ele>152.0</ele><time>2026-04-11T10:20:39.002Z</time></trkpt><trkpt lat="44.99198863951033" lon="8.393738422642004"><ele>152.0</ele><time>2026-04-11T10:20:40.002Z</time></trkpt><trkpt lat="44.99195067506167" lon="8.393630540515408"><ele>152.0</ele><time>2026-04-11T10:20:41.002Z</time></trkpt><trkpt lat="44.99191692802076" lon="8.393513417306737"><ele>152.0</ele><time>2026-04-11T10:20:42.002Z</time></trkpt><trkpt lat="44.99188299238911" lon="8.393392597722963"><ele>152.0</ele><time>2026-04-11T10:20:43.002Z</time></trkpt><trkpt lat="44.991848549660695" lon="8.393266754579667"><ele>152.0</ele><time>2026-04-11T10:20:44.002Z</time></trkpt><trkpt lat="44.99180921524346" lon="8.393146270241957"><ele>152.0</ele><time>2026-04-11T10:20:45.002Z</time></trkpt><trkpt lat="44.99177444093609" lon="8.393026340346145"><ele>152.0</ele><time>2026-04-11T10:20:46.002Z</time></trkpt><trkpt lat="44.991740001958355" lon="8.392914270103054"><ele>152.0</ele><time>2026-04-11T10:20:47.002Z</time></trkpt><trkpt lat="44.9917133454331" lon="8.3928178982918"><ele>152.0</ele><time>2026-04-11T10:20:48.002Z</time></trkpt><trkpt lat="44.991683568954095" lon="8.3927081296832"><ele>152.33333333333331</ele><time>2026-04-11T10:20:49.002Z</time></trkpt><trkpt lat="44.99165144920499" lon="8.392602220773997"><ele>152.66666666666666</ele><time>2026-04-11T10:20:50.002Z</time></trkpt><trkpt lat="44.9916201041771" lon="8.392500698912425"><ele>153.0</ele><time>2026-04-11T10:20:51.002Z</time></trkpt><trkpt lat="44.99159047166781" lon="8.39238116075389"><ele>153.33333333333334</ele><time>2026-04-11T10:20:52Z</time></trkpt><trkpt lat="44.99155806975351" lon="8.39225220842152"><ele>153.66666666666669</ele><time>2026-04-11T10:20:53Z</time></trkpt><trkpt lat="44.991530842818605" lon="8.392141149172339"><ele>154.0</ele><time>2026-04-11T10:20:54Z</time></trkpt><trkpt lat="44.99150640997817" lon="8.392024929557754"><ele>154.0</ele><time>2026-04-11T10:20:55Z</time></trkpt><trkpt lat="44.991471735073446" lon="8.391904820400503"><ele>154.0</ele><time>2026-04-11T10:20:56Z</time></trkpt><trkpt lat="44.99144533627896" lon="8.391796172745792"><ele>154.0</ele><time>2026-04-11T10:20:57Z</time></trkpt><trkpt lat="44.99141925195519" lon="8.391694016132277"><ele>154.0</ele><time>2026-04-11T10:20:58Z</time></trkpt><trkpt lat="44.99140270364475" lon="8.391606899315777"><ele>154.0</ele><time>2026-04-11T10:20:59Z</time></trkpt><trkpt lat="44.99138625604896" lon="8.391501737901349"><ele>154.0</ele><time>2026-04-11T10:21:00Z</time></trkpt><trkpt lat="44.99137316003591" lon="8.39138052501494"><ele>154.0</ele><time>2026-04-11T10:21:01Z</time></trkpt><trkpt lat="44.991362100536044" lon="8.3912507386507"><ele>154.0</ele><time>2026-04-11T10:21:02Z</time></trkpt><trkpt lat="44.991352818249744" lon="8.391124784109431"><ele>154.0</ele><time>2026-04-11T10:21:03Z</time></trkpt><trkpt lat="44.991338241661616" lon="8.390987067651691"><ele>154.0</ele><time>2026-04-11T10:21:04Z</time></trkpt><trkpt lat="44.99132021789907" lon="8.390863519532145"><ele>154.0</ele><time>2026-04-11T10:21:05Z</time></trkpt><trkpt lat="44.99130188068449" lon="8.390754495847077"><ele>154.0</ele><time>2026-04-11T10:21:06Z</time></trkpt><trkpt lat="44.9912768835331" lon="8.390649025381"><ele>154.0</ele><time>2026-04-11T10:21:07Z</time></trkpt><trkpt lat="44.99124144547094" lon="8.390532930301575"><ele>154.0</ele><time>2026-04-11T10:21:08Z</time></trkpt><trkpt lat="44.991199968058375" lon="8.390411336704586"><ele>154.0</ele><time>2026-04-11T10:21:09Z</time></trkpt><trkpt lat="44.99115113140737" lon="8.39028947274755"><ele>154.0</ele><time>2026-04-11T10:21:10Z</time></trkpt><trkpt lat="44.99110232056491" lon="8.390176474174455"><ele>154.0</ele><time>2026-04-11T10:21:11Z</time></trkpt><trkpt lat="44.991056566600854" lon="8.390074848430308"><ele>154.0</ele><time>2026-04-11T10:21:12Z</time></trkpt><trkpt lat="44.991006425695964" lon="8.38997652744362"><ele>154.0</ele><time>2026-04-11T10:21:13Z</time></trkpt><trkpt lat="44.990950788087915" lon="8.38987584047486"><ele>154.0</ele><time>2026-04-11T10:21:14Z</time></trkpt><trkpt lat="44.99089385178515" lon="8.389783552165495"><ele>154.0</ele><time>2026-04-11T10:21:15Z</time></trkpt><trkpt lat="44.99084301551878" lon="8.389689096199817"><ele>154.0</ele><time>2026-04-11T10:21:16Z</time></trkpt><trkpt lat="44.990784760564196" lon="8.389605264594978"><ele>154.0</ele><time>2026-04-11T10:21:17Z</time></trkpt><trkpt lat="44.99072547092308" lon="8.389536545379661"><ele>153.5</ele><time>2026-04-11T10:21:18Z</time></trkpt><trkpt lat="44.99067308055045" lon="8.389471941753257"><ele>153.0</ele><time>2026-04-11T10:21:19Z</time></trkpt><trkpt lat="44.990604989705226" lon="8.389393149926653"><ele>152.5</ele><time>2026-04-11T10:21:20Z</time></trkpt><trkpt lat="44.99054028389441" lon="8.389318543892701"><ele>152.0</ele><time>2026-04-11T10:21:21Z</time></trkpt><trkpt lat="44.99047081050611" lon="8.389250296327981"><ele>151.5</ele><time>2026-04-11T10:21:22Z</time></trkpt><trkpt lat="44.99038778108953" lon="8.38917441590069"><ele>151.0</ele><time>2026-04-11T10:21:23Z</time></trkpt><trkpt lat="44.99030835697105" lon="8.389096575780668"><ele>151.0</ele><time>2026-04-11T10:21:24Z</time></trkpt><trkpt lat="44.99022628641481" lon="8.389013119860321"><ele>151.0</ele><time>2026-04-11T10:21:25Z</time></trkpt><trkpt lat="44.99013913977029" lon="8.388919487451702"><ele>151.0</ele><time>2026-04-11T10:21:26Z</time></trkpt><trkpt lat="44.99005993999292" lon="8.388836263277968"><ele>151.0</ele><time>2026-04-11T10:21:27Z</time></trkpt><trkpt lat="44.98998277475898" lon="8.388752860931733"><ele>151.0</ele><time>2026-04-11T10:21:28Z</time></trkpt><trkpt lat="44.98990137147899" lon="8.388674991020773"><ele>151.2</ele><time>2026-04-11T10:21:29Z</time></trkpt><trkpt lat="44.98981471121259" lon="8.388600289550563"><ele>151.39999999999998</ele><time>2026-04-11T10:21:30Z</time></trkpt><trkpt lat="44.989729897941075" lon="8.388535912598293"><ele>151.6</ele><time>2026-04-11T10:21:31Z</time></trkpt><trkpt lat="44.98963692110971" lon="8.388474966520272"><ele>151.79999999999998</ele><time>2026-04-11T10:21:32Z</time></trkpt><trkpt lat="44.98953997443676" lon="8.388408530739218"><ele>152.0</ele><time>2026-04-11T10:21:33Z</time></trkpt><trkpt lat="44.98944030660687" lon="8.388335300087387"><ele>152.0</ele><time>2026-04-11T10:21:34Z</time></trkpt><trkpt lat="44.989343917563524" lon="8.388258836503331"><ele>152.0</ele><time>2026-04-11T10:21:35Z</time></trkpt><trkpt lat="44.989250799370446" lon="8.38817413450267"><ele>152.0</ele><time>2026-04-11T10:21:36Z</time></trkpt><trkpt lat="44.9891701659929" lon="8.38808550290864"><ele>152.0</ele><time>2026-04-11T10:21:37.001Z</time></trkpt><trkpt lat="44.98911239586207" lon="8.388000514688807"><ele>152.0</ele><time>2026-04-11T10:21:38.001Z</time></trkpt><trkpt lat="44.98906716275637" lon="8.38790146633355"><ele>152.0</ele><time>2026-04-11T10:21:39.001Z</time></trkpt><trkpt lat="44.98904127626449" lon="8.387783813189333"><ele>152.0</ele><time>2026-04-11T10:21:40.001Z</time></trkpt><trkpt lat="44.9890037487976" lon="8.387645451124076"><ele>152.0</ele><time>2026-04-11T10:21:41.001Z</time></trkpt><trkpt lat="44.988962031853035" lon="8.387505987492705"><ele>152.0</ele><time>2026-04-11T10:21:42.001Z</time></trkpt><trkpt lat="44.988911304594154" lon="8.387357206851402"><ele>152.0</ele><time>2026-04-11T10:21:43.001Z</time></trkpt><trkpt lat="44.98885204484801" lon="8.387207792781819"><ele>152.0</ele><time>2026-04-11T10:21:44.001Z</time></trkpt><trkpt lat="44.98879029202505" lon="8.387065397994238"><ele>152.0</ele><time>2026-04-11T10:21:45.001Z</time></trkpt><trkpt lat="44.98872894572254" lon="8.386923049904569"><ele>152.0</ele><time>2026-04-11T10:21:46.001Z</time></trkpt><trkpt lat="44.98867304957393" lon="8.386786379008027"><ele>152.0</ele><time>2026-04-11T10:21:47.001Z</time></trkpt><trkpt lat="44.9886272441839" lon="8.38665546428702"><ele>152.0</ele><time>2026-04-11T10:21:48.001Z</time></trkpt><trkpt lat="44.98859264648311" lon="8.386536168000996"><ele>152.0</ele><time>2026-04-11T10:21:49.001Z</time></trkpt><trkpt lat="44.98855070688835" lon="8.386442671363387"><ele>152.0</ele><time>2026-04-11T10:21:50.001Z</time></trkpt><trkpt lat="44.98849424133547" lon="8.386334007405248"><ele>152.0</ele><time>2026-04-11T10:21:51.001Z</time></trkpt><trkpt lat="44.98843096845459" lon="8.386229017944027"><ele>152.0</ele><time>2026-04-11T10:21:52.001Z</time></trkpt><trkpt lat="44.98836775477402" lon="8.386119423786093"><ele>152.2</ele><time>2026-04-11T10:21:53.001Z</time></trkpt><trkpt lat="44.988300059862645" lon="8.385997041422637"><ele>152.39999999999998</ele><time>2026-04-11T10:21:54.001Z</time></trkpt><trkpt lat="44.98823246830722" lon="8.385880299453495"><ele>152.60000000000002</ele><time>2026-04-11T10:21:55.001Z</time></trkpt><trkpt lat="44.988187699467225" lon="8.385750333139928"><ele>152.8</ele><time>2026-04-11T10:21:56.001Z</time></trkpt><trkpt lat="44.98812953160334" lon="8.385604035960826"><ele>153.0</ele><time>2026-04-11T10:21:57.001Z</time></trkpt><trkpt lat="44.988080543474496" lon="8.385468529560704"><ele>152.4</ele><time>2026-04-11T10:21:58.001Z</time></trkpt><trkpt lat="44.98803938851457" lon="8.385344279033157"><ele>151.8</ele><time>2026-04-11T10:21:59.001Z</time></trkpt><trkpt lat="44.98799004800572" lon="8.385214378001676"><ele>151.2</ele><time>2026-04-11T10:22:00.001Z</time></trkpt><trkpt lat="44.987927951700556" lon="8.385096489282269"><ele>150.6</ele><time>2026-04-11T10:22:01.001Z</time></trkpt><trkpt lat="44.98785413137285" lon="8.385003343218427"><ele>150.0</ele><time>2026-04-11T10:22:02.001Z</time></trkpt><trkpt lat="44.987785145925606" lon="8.384903351853247"><ele>150.0</ele><time>2026-04-11T10:22:03.001Z</time></trkpt><trkpt lat="44.98770511832648" lon="8.38481204987833"><ele>150.0</ele><time>2026-04-11T10:22:04.001Z</time></trkpt><trkpt lat="44.987619961181196" lon="8.38473394814662"><ele>150.0</ele><time>2026-04-11T10:22:05.001Z</time></trkpt><trkpt lat="44.98753089786665" lon="8.384653071911332"><ele>150.0</ele><time>2026-04-11T10:22:06.001Z</time></trkpt><trkpt lat="44.98744008854645" lon="8.38459184438279"><ele>150.0</ele><time>2026-04-11T10:22:07.001Z</time></trkpt><trkpt lat="44.98736266757304" lon="8.384513496177801"><ele>150.33333333333334</ele><time>2026-04-11T10:22:08.001Z</time></trkpt><trkpt lat="44.98729309204442" lon="8.384460753874729"><ele>150.66666666666666</ele><time>2026-04-11T10:22:09.001Z</time></trkpt><trkpt lat="44.98719779758698" lon="8.384378997251712"><ele>151.0</ele><time>2026-04-11T10:22:11.001Z</time></trkpt><trkpt lat="44.98712097226155" lon="8.384263729396952"><ele>151.33333333333331</ele><time>2026-04-11T10:22:13.001Z</time></trkpt><trkpt lat="44.9870730762442" lon="8.3841890180695"><ele>151.66666666666666</ele><time>2026-04-11T10:22:14.001Z</time></trkpt><trkpt lat="44.98702441945314" lon="8.38411482648403"><ele>152.0</ele><time>2026-04-11T10:22:15.001Z</time></trkpt><trkpt lat="44.98697644180183" lon="8.384055910929987"><ele>152.0</ele><time>2026-04-11T10:22:16.001Z</time></trkpt><trkpt lat="44.98691997979753" lon="8.384015035230684"><ele>152.0</ele><time>2026-04-11T10:22:30.001Z</time></trkpt><trkpt lat="44.9868355463278" lon="8.38423006547713"><ele>152.0</ele><time>2026-04-11T10:22:32.002Z</time></trkpt><trkpt lat="44.98681281070369" lon="8.384342145673857"><ele>152.0</ele><time>2026-04-11T10:22:33.002Z</time></trkpt><trkpt lat="44.9867732966174" lon="8.384437684257472"><ele>152.0</ele><time>2026-04-11T10:22:34.002Z</time></trkpt><trkpt lat="44.98672461674393" lon="8.3845373639767"><ele>153.2</ele><time>2026-04-11T10:22:35.002Z</time></trkpt><trkpt lat="44.98665642210894" lon="8.38463951472307"><ele>154.39999999999998</ele><time>2026-04-11T10:22:36.002Z</time></trkpt><trkpt lat="44.9865756117611" lon="8.384729018765052"><ele>155.60000000000002</ele><time>2026-04-11T10:22:37.002Z</time></trkpt><trkpt lat="44.98648583171475" lon="8.384798697696242"><ele>156.8</ele><time>2026-04-11T10:22:38.002Z</time></trkpt><trkpt lat="44.986394517711275" lon="8.384861237579539"><ele>158.0</ele><time>2026-04-11T10:22:39.002Z</time></trkpt><trkpt lat="44.98629957968492" lon="8.384919991218405"><ele>158.4</ele><time>2026-04-11T10:22:40.002Z</time></trkpt><trkpt lat="44.986207233924326" lon="8.384987019046632"><ele>158.8</ele><time>2026-04-11T10:22:41.002Z</time></trkpt><trkpt lat="44.98611216489767" lon="8.38505732759532"><ele>159.2</ele><time>2026-04-11T10:22:42.002Z</time></trkpt><trkpt lat="44.98602131679415" lon="8.385125462852526"><ele>159.6</ele><time>2026-04-11T10:22:43.002Z</time></trkpt><trkpt lat="44.98593429167083" lon="8.385189674759332"><ele>160.0</ele><time>2026-04-11T10:22:44.002Z</time></trkpt><trkpt lat="44.98585058073046" lon="8.385251848218807"><ele>160.33333333333334</ele><time>2026-04-11T10:22:45.002Z</time></trkpt><trkpt lat="44.98577356123007" lon="8.385304439529776"><ele>160.66666666666669</ele><time>2026-04-11T10:22:46.002Z</time></trkpt><trkpt lat="44.98571405739385" lon="8.385338221335187"><ele>161.0</ele><time>2026-04-11T10:22:47.002Z</time></trkpt><trkpt lat="44.98561537368641" lon="8.385375558031138"><ele>161.33333333333334</ele><time>2026-04-11T10:22:49.002Z</time></trkpt><trkpt lat="44.98554983975649" lon="8.385412235151724"><ele>161.66666666666666</ele><time>2026-04-11T10:22:50.002Z</time></trkpt><trkpt lat="44.985451816286876" lon="8.385458940215436"><ele>162.0</ele><time>2026-04-11T10:22:51.002Z</time></trkpt><trkpt lat="44.98535154919787" lon="8.385479816921157"><ele>162.0</ele><time>2026-04-11T10:22:52.002Z</time></trkpt><trkpt lat="44.98524588584103" lon="8.385494227788193"><ele>162.0</ele><time>2026-04-11T10:22:53.002Z</time></trkpt><trkpt lat="44.98513965042197" lon="8.385509574432454"><ele>162.0</ele><time>2026-04-11T10:22:54.002Z</time></trkpt><trkpt lat="44.98504203531162" lon="8.38551861801772"><ele>162.0</ele><time>2026-04-11T10:22:55.002Z</time></trkpt><trkpt lat="44.98495575820339" lon="8.385524000671548"><ele>162.0</ele><time>2026-04-11T10:22:56.002Z</time></trkpt><trkpt lat="44.98488703562082" lon="8.385528288130162"><ele>161.66666666666666</ele><time>2026-04-11T10:22:57.002Z</time></trkpt><trkpt lat="44.98480800762259" lon="8.385533218527659"><ele>161.33333333333331</ele><time>2026-04-11T10:22:58Z</time></trkpt><trkpt lat="44.98470689711264" lon="8.385524850014214"><ele>161.0</ele><time>2026-04-11T10:23:00Z</time></trkpt><trkpt lat="44.98460146799535" lon="8.38479202087902"><ele>161.0</ele><time>2026-04-11T10:23:02Z</time></trkpt><trkpt lat="44.984560178336444" lon="8.384691489390402"><ele>161.0</ele><time>2026-04-11T10:23:03Z</time></trkpt><trkpt lat="44.98451625914449" lon="8.384589548245321"><ele>161.0</ele><time>2026-04-11T10:23:04Z</time></trkpt><trkpt lat="44.98446985720681" lon="8.384489815633048"><ele>161.0</ele><time>2026-04-11T10:23:05Z</time></trkpt><trkpt lat="44.984411821996794" lon="8.38436506667495"><ele>161.0</ele><time>2026-04-11T10:23:06Z</time></trkpt><trkpt lat="44.98435394813971" lon="8.384229556024502"><ele>159.75</ele><time>2026-04-11T10:23:07Z</time></trkpt><trkpt lat="44.98427965558207" lon="8.384079879001073"><ele>158.5</ele><time>2026-04-11T10:23:08Z</time></trkpt><trkpt lat="44.984207330486576" lon="8.383941403900012"><ele>157.25</ele><time>2026-04-11T10:23:09Z</time></trkpt><trkpt lat="44.98413548281037" lon="8.383811911957014"><ele>156.0</ele><time>2026-04-11T10:23:10Z</time></trkpt><trkpt lat="44.984063922686026" lon="8.383689500961733"><ele>155.25</ele><time>2026-04-11T10:23:11Z</time></trkpt><trkpt lat="44.98399586220389" lon="8.38356663177794"><ele>154.5</ele><time>2026-04-11T10:23:12Z</time></trkpt><trkpt lat="44.98392791246489" lon="8.383431714972108"><ele>153.75</ele><time>2026-04-11T10:23:13Z</time></trkpt><trkpt lat="44.98386147970205" lon="8.383290845946231"><ele>153.0</ele><time>2026-04-11T10:23:14Z</time></trkpt><trkpt lat="44.983799164202765" lon="8.3831461716953"><ele>153.0</ele><time>2026-04-11T10:23:15Z</time></trkpt><trkpt lat="44.983743311434374" lon="8.382996723483481"><ele>153.0</ele><time>2026-04-11T10:23:16Z</time></trkpt><trkpt lat="44.98369669070438" lon="8.382851288003343"><ele>153.0</ele><time>2026-04-11T10:23:17Z</time></trkpt><trkpt lat="44.983655750497846" lon="8.382707052662337"><ele>153.0</ele><time>2026-04-11T10:23:18Z</time></trkpt><trkpt lat="44.98362049380945" lon="8.382565567976501"><ele>153.0</ele><time>2026-04-11T10:23:19Z</time></trkpt><trkpt lat="44.98359146953047" lon="8.38244065248737"><ele>153.0</ele><time>2026-04-11T10:23:20Z</time></trkpt><trkpt lat="44.983566507920614" lon="8.382326893896709"><ele>153.0</ele><time>2026-04-11T10:23:21Z</time></trkpt><trkpt lat="44.983543497878834" lon="8.382216829558967"><ele>153.0</ele><time>2026-04-11T10:23:22Z</time></trkpt><trkpt lat="44.983536690017715" lon="8.382109142532839"><ele>153.0</ele><time>2026-04-11T10:23:23Z</time></trkpt><trkpt lat="44.98354199392479" lon="8.381995376728984"><ele>153.0</ele><time>2026-04-11T10:23:24Z</time></trkpt><trkpt lat="44.9835508547339" lon="8.381869577173953"><ele>153.0</ele><time>2026-04-11T10:23:25Z</time></trkpt><trkpt lat="44.98355839909552" lon="8.381713880668618"><ele>153.0</ele><time>2026-04-11T10:23:26Z</time></trkpt><trkpt lat="44.98356765903801" lon="8.381554309313435"><ele>153.0</ele><time>2026-04-11T10:23:27Z</time></trkpt><trkpt lat="44.983575011528465" lon="8.38139105558469"><ele>153.0</ele><time>2026-04-11T10:23:28Z</time></trkpt><trkpt lat="44.98357640073686" lon="8.381227430790616"><ele>153.0</ele><time>2026-04-11T10:23:29Z</time></trkpt><trkpt lat="44.983576339984474" lon="8.381065621713379"><ele>153.0</ele><time>2026-04-11T10:23:30Z</time></trkpt><trkpt lat="44.98356618579891" lon="8.380902825444052"><ele>153.0</ele><time>2026-04-11T10:23:31Z</time></trkpt><trkpt lat="44.98355594432151" lon="8.380723933709925"><ele>153.0</ele><time>2026-04-11T10:23:32Z</time></trkpt><trkpt lat="44.983545924625105" lon="8.380547681009263"><ele>153.0</ele><time>2026-04-11T10:23:33Z</time></trkpt><trkpt lat="44.98354066071587" lon="8.380366983973285"><ele>153.25</ele><time>2026-04-11T10:23:34Z</time></trkpt><trkpt lat="44.983542883330756" lon="8.38018892447356"><ele>153.5</ele><time>2026-04-11T10:23:35Z</time></trkpt><trkpt lat="44.98354858864591" lon="8.380013424705005"><ele>153.75</ele><time>2026-04-11T10:23:36Z</time></trkpt><trkpt lat="44.98354931453109" lon="8.379847121894707"><ele>154.0</ele><time>2026-04-11T10:23:37Z</time></trkpt><trkpt lat="44.98354906159047" lon="8.379689956684455"><ele>154.0</ele><time>2026-04-11T10:23:38Z</time></trkpt><trkpt lat="44.9835454964667" lon="8.379538419077868"><ele>154.0</ele><time>2026-04-11T10:23:39Z</time></trkpt><trkpt lat="44.983533013697276" lon="8.379396411892097"><ele>154.0</ele><time>2026-04-11T10:23:40Z</time></trkpt><trkpt lat="44.983514723339894" lon="8.379252270508598"><ele>154.0</ele><time>2026-04-11T10:23:41Z</time></trkpt><trkpt lat="44.98348561513433" lon="8.379109327411749"><ele>154.0</ele><time>2026-04-11T10:23:42Z</time></trkpt><trkpt lat="44.983456065394584" lon="8.378972374147962"><ele>154.4</ele><time>2026-04-11T10:23:43Z</time></trkpt><trkpt lat="44.98342999258089" lon="8.378831871092462"><ele>154.8</ele><time>2026-04-11T10:23:44.001Z</time></trkpt><trkpt lat="44.983412879195605" lon="8.378715364570043"><ele>155.2</ele><time>2026-04-11T10:23:45.001Z</time></trkpt><trkpt lat="44.98339675713475" lon="8.378605066376805"><ele>155.6</ele><time>2026-04-11T10:23:46.001Z</time></trkpt><trkpt lat="44.98338390000131" lon="8.378480530362017"><ele>156.0</ele><time>2026-04-11T10:23:47.001Z</time></trkpt><trkpt lat="44.983362165161616" lon="8.37834772066991"><ele>156.16666666666666</ele><time>2026-04-11T10:23:48.001Z</time></trkpt><trkpt lat="44.983339391609206" lon="8.378226571422166"><ele>156.33333333333334</ele><time>2026-04-11T10:23:49.001Z</time></trkpt><trkpt lat="44.98331566595087" lon="8.378103783209763"><ele>156.5</ele><time>2026-04-11T10:23:50.001Z</time></trkpt><trkpt lat="44.98329805230972" lon="8.377990757981514"><ele>156.66666666666669</ele><time>2026-04-11T10:23:51.001Z</time></trkpt><trkpt lat="44.98328060866103" lon="8.377863302127835"><ele>156.83333333333334</ele><time>2026-04-11T10:23:52.001Z</time></trkpt><trkpt lat="44.98326046092291" lon="8.377731850998991"><ele>157.0</ele><time>2026-04-11T10:23:53.001Z</time></trkpt><trkpt lat="44.983244881343936" lon="8.377614578486424"><ele>157.0</ele><time>2026-04-11T10:23:54.001Z</time></trkpt><trkpt lat="44.983222912447616" lon="8.37746298399079"><ele>157.0</ele><time>2026-04-11T10:23:55.001Z</time></trkpt><trkpt lat="44.98321103677738" lon="8.377324286589387"><ele>157.0</ele><time>2026-04-11T10:23:56.001Z</time></trkpt><trkpt lat="44.98320396410719" lon="8.377203135537224"><ele>157.0</ele><time>2026-04-11T10:23:57.001Z</time></trkpt><trkpt lat="44.9831954837335" lon="8.37705564552344"><ele>157.0</ele><time>2026-04-11T10:23:58.001Z</time></trkpt><trkpt lat="44.983190151954325" lon="8.376895247601194"><ele>157.2</ele><time>2026-04-11T10:23:59.001Z</time></trkpt><trkpt lat="44.98318773208009" lon="8.376738388354813"><ele>157.39999999999998</ele><time>2026-04-11T10:24:00.001Z</time></trkpt><trkpt lat="44.98319002916784" lon="8.376586078894348"><ele>157.60000000000002</ele><time>2026-04-11T10:24:01.001Z</time></trkpt><trkpt lat="44.98319057581064" lon="8.376441343144947"><ele>157.8</ele><time>2026-04-11T10:24:02.001Z</time></trkpt><trkpt lat="44.98318182461112" lon="8.376308898362918"><ele>158.0</ele><time>2026-04-11T10:24:03.001Z</time></trkpt><trkpt lat="44.98316364693659" lon="8.376162988875267"><ele>157.5</ele><time>2026-04-11T10:24:04.001Z</time></trkpt><trkpt lat="44.98315177956544" lon="8.376041648976969"><ele>157.0</ele><time>2026-04-11T10:24:05.001Z</time></trkpt><trkpt lat="44.98314257141646" lon="8.375907505237114"><ele>156.5</ele><time>2026-04-11T10:24:06.001Z</time></trkpt><trkpt lat="44.98313573995584" lon="8.375798862800364"><ele>156.0</ele><time>2026-04-11T10:24:07.001Z</time></trkpt><trkpt lat="44.983133438984055" lon="8.375683694655711"><ele>155.5</ele><time>2026-04-11T10:24:08.001Z</time></trkpt><trkpt lat="44.983124905562384" lon="8.375594013707847"><ele>155.0</ele><time>2026-04-11T10:24:09.001Z</time></trkpt><trkpt lat="44.983104017374444" lon="8.375499166871125"><ele>154.83333333333331</ele><time>2026-04-11T10:24:10.001Z</time></trkpt><trkpt lat="44.9830778547765" lon="8.375391169277151"><ele>154.66666666666666</ele><time>2026-04-11T10:24:11.001Z</time></trkpt><trkpt lat="44.983062068740075" lon="8.37528913792874"><ele>154.5</ele><time>2026-04-11T10:24:12.001Z</time></trkpt><trkpt lat="44.983049339528435" lon="8.37518565136885"><ele>154.33333333333334</ele><time>2026-04-11T10:24:13.001Z</time></trkpt><trkpt lat="44.983044579294344" lon="8.375079972317849"><ele>154.16666666666669</ele><time>2026-04-11T10:24:14.001Z</time></trkpt><trkpt lat="44.9830372916638" lon="8.37495127571256"><ele>154.0</ele><time>2026-04-11T10:24:15.001Z</time></trkpt><trkpt lat="44.98304141235027" lon="8.37482174957215"><ele>154.0</ele><time>2026-04-11T10:24:16.001Z</time></trkpt><trkpt lat="44.983048291910805" lon="8.374693712023419"><ele>154.0</ele><time>2026-04-11T10:24:17.001Z</time></trkpt><trkpt lat="44.98306365152948" lon="8.374564891847424"><ele>154.0</ele><time>2026-04-11T10:24:18.001Z</time></trkpt><trkpt lat="44.98308568301465" lon="8.374424470696592"><ele>154.0</ele><time>2026-04-11T10:24:19.001Z</time></trkpt><trkpt lat="44.98310913659538" lon="8.374301438625018"><ele>154.0</ele><time>2026-04-11T10:24:20.001Z</time></trkpt><trkpt lat="44.98313976725037" lon="8.374184634511332"><ele>154.16666666666669</ele><time>2026-04-11T10:24:21.001Z</time></trkpt><trkpt lat="44.9831764905277" lon="8.374070963023536"><ele>154.33333333333334</ele><time>2026-04-11T10:24:22.001Z</time></trkpt><trkpt lat="44.98321607157224" lon="8.373977600971156"><ele>154.5</ele><time>2026-04-11T10:24:23.001Z</time></trkpt><trkpt lat="44.98325025008253" lon="8.373876982069817"><ele>154.66666666666666</ele><time>2026-04-11T10:24:24.001Z</time></trkpt><trkpt lat="44.983271200268426" lon="8.373785141145508"><ele>154.83333333333331</ele><time>2026-04-11T10:24:25.001Z</time></trkpt><trkpt lat="44.98328834290466" lon="8.373678914881454"><ele>155.0</ele><time>2026-04-11T10:24:26.001Z</time></trkpt><trkpt lat="44.983300955391" lon="8.373577984389085"><ele>155.14285714285714</ele><time>2026-04-11T10:24:27.001Z</time></trkpt><trkpt lat="44.98331326967453" lon="8.37347168674434"><ele>155.28571428571428</ele><time>2026-04-11T10:24:28.001Z</time></trkpt><trkpt lat="44.98332763435492" lon="8.373370936038858"><ele>155.42857142857144</ele><time>2026-04-11T10:24:29.001Z</time></trkpt><trkpt lat="44.9833420167954" lon="8.373259730928138"><ele>155.57142857142856</ele><time>2026-04-11T10:24:30.001Z</time></trkpt><trkpt lat="44.98334758754675" lon="8.373163568032142"><ele>155.7142857142857</ele><time>2026-04-11T10:24:31.001Z</time></trkpt><trkpt lat="44.98333464969877" lon="8.373072352758667"><ele>155.85714285714286</ele><time>2026-04-11T10:24:32.001Z</time></trkpt><trkpt lat="44.983322119122874" lon="8.37298171338513"><ele>156.0</ele><time>2026-04-11T10:24:33.001Z</time></trkpt><trkpt lat="44.9833110609402" lon="8.372871880408406"><ele>156.0</ele><time>2026-04-11T10:24:34.001Z</time></trkpt><trkpt lat="44.98330224090905" lon="8.372711530568107"><ele>156.0</ele><time>2026-04-11T10:24:36.002Z</time></trkpt><trkpt lat="44.98330064700883" lon="8.372621500995795"><ele>156.0</ele><time>2026-04-11T10:24:37.002Z</time></trkpt><trkpt lat="44.98329545213333" lon="8.372519238692801"><ele>156.0</ele><time>2026-04-11T10:24:38.002Z</time></trkpt><trkpt lat="44.98326466399027" lon="8.372340921771075"><ele>156.0</ele><time>2026-04-11T10:24:40.002Z</time></trkpt><trkpt lat="44.983253970742815" lon="8.372238860699413"><ele>156.33333333333334</ele><time>2026-04-11T10:24:41.002Z</time></trkpt><trkpt lat="44.98324274721812" lon="8.372136045889645"><ele>156.66666666666666</ele><time>2026-04-11T10:24:42.002Z</time></trkpt><trkpt lat="44.98322160578176" lon="8.372034656571143"><ele>157.0</ele><time>2026-04-11T10:24:43.002Z</time></trkpt><trkpt lat="44.98320044502678" lon="8.37193070691944"><ele>157.33333333333331</ele><time>2026-04-11T10:24:44.002Z</time></trkpt><trkpt lat="44.98317012519804" lon="8.371827957775517"><ele>157.66666666666666</ele><time>2026-04-11T10:24:45.002Z</time></trkpt><trkpt lat="44.983134637708375" lon="8.371711487190654"><ele>158.0</ele><time>2026-04-11T10:24:46.002Z</time></trkpt><trkpt lat="44.983096772752354" lon="8.371583749907678"><ele>158.0</ele><time>2026-04-11T10:24:47.002Z</time></trkpt><trkpt lat="44.98306513360363" lon="8.37146968630806"><ele>158.0</ele><time>2026-04-11T10:24:48.002Z</time></trkpt><trkpt lat="44.983030593905646" lon="8.371344469304459"><ele>158.0</ele><time>2026-04-11T10:24:49.002Z</time></trkpt><trkpt lat="44.98299351723634" lon="8.371219376171405"><ele>158.0</ele><time>2026-04-11T10:24:50.002Z</time></trkpt><trkpt lat="44.98295438174751" lon="8.37108534561635"><ele>158.0</ele><time>2026-04-11T10:24:51.002Z</time></trkpt><trkpt lat="44.98292045144294" lon="8.370964102579448"><ele>158.0</ele><time>2026-04-11T10:24:52.002Z</time></trkpt><trkpt lat="44.98289246282833" lon="8.37086050533308"><ele>158.0</ele><time>2026-04-11T10:24:53.002Z</time></trkpt><trkpt lat="44.98286295920105" lon="8.37073164400845"><ele>158.0</ele><time>2026-04-11T10:24:54.002Z</time></trkpt><trkpt lat="44.98284041429107" lon="8.37062212877024"><ele>158.0</ele><time>2026-04-11T10:24:55.002Z</time></trkpt><trkpt lat="44.9828175338694" lon="8.370510136944832"><ele>158.0</ele><time>2026-04-11T10:24:56.002Z</time></trkpt><trkpt lat="44.98279481891628" lon="8.370419877667825"><ele>158.0</ele><time>2026-04-11T10:24:57.002Z</time></trkpt><trkpt lat="44.98277130812513" lon="8.370321548985542"><ele>158.00000000000003</ele><time>2026-04-11T10:24:58.002Z</time></trkpt><trkpt lat="44.98275720997956" lon="8.37023050720243"><ele>158.0</ele><time>2026-04-11T10:24:59.002Z</time></trkpt><trkpt lat="44.98275565794734" lon="8.370127963316373"><ele>158.0</ele><time>2026-04-11T10:25:00.002Z</time></trkpt><trkpt lat="44.98274909788047" lon="8.37002204622032"><ele>158.0</ele><time>2026-04-11T10:25:01.002Z</time></trkpt><trkpt lat="44.982764058904586" lon="8.36990483063817"><ele>158.0</ele><time>2026-04-11T10:25:02.002Z</time></trkpt><trkpt lat="44.98276635230004" lon="8.369809978745728"><ele>158.00000000000003</ele><time>2026-04-11T10:25:03.002Z</time></trkpt><trkpt lat="44.982754963817" lon="8.36971378079049"><ele>158.0</ele><time>2026-04-11T10:25:03.999Z</time></trkpt><trkpt lat="44.98275847152933" lon="8.369604184099533"><ele>158.16666666666666</ele><time>2026-04-11T10:25:04.999Z</time></trkpt><trkpt lat="44.982760832749776" lon="8.369489864622933"><ele>158.33333333333331</ele><time>2026-04-11T10:25:05.999Z</time></trkpt><trkpt lat="44.98275912684706" lon="8.36936989046473"><ele>158.5</ele><time>2026-04-11T10:25:06.999Z</time></trkpt><trkpt lat="44.98275974683315" lon="8.369257876849042"><ele>158.66666666666666</ele><time>2026-04-11T10:25:07.999Z</time></trkpt><trkpt lat="44.98276504971993" lon="8.369157967051452"><ele>158.83333333333334</ele><time>2026-04-11T10:25:08.999Z</time></trkpt><trkpt lat="44.98276716695317" lon="8.369036221084995"><ele>159.0</ele><time>2026-04-11T10:25:09.999Z</time></trkpt><trkpt lat="44.982767987979386" lon="8.368903238259351"><ele>159.16666666666666</ele><time>2026-04-11T10:25:10.999Z</time></trkpt><trkpt lat="44.98276549844268" lon="8.368764909249016"><ele>159.33333333333334</ele><time>2026-04-11T10:25:11.999Z</time></trkpt><trkpt lat="44.98276015869745" lon="8.368632406049096"><ele>159.5</ele><time>2026-04-11T10:25:12.999Z</time></trkpt><trkpt lat="44.98275708368396" lon="8.368518269141934"><ele>159.66666666666669</ele><time>2026-04-11T10:25:13.999Z</time></trkpt><trkpt lat="44.982751789648525" lon="8.368406465117305"><ele>159.83333333333334</ele><time>2026-04-11T10:25:14.999Z</time></trkpt><trkpt lat="44.98274537399972" lon="8.368305370232166"><ele>160.0</ele><time>2026-04-11T10:25:15.999Z</time></trkpt><trkpt lat="44.9827391821296" lon="8.368203644822193"><ele>160.0</ele><time>2026-04-11T10:25:16.999Z</time></trkpt><trkpt lat="44.98273271628091" lon="8.368074737980328"><ele>160.0</ele><time>2026-04-11T10:25:18Z</time></trkpt><trkpt lat="44.98272818629575" lon="8.367930414191393"><ele>160.0</ele><time>2026-04-11T10:25:19Z</time></trkpt><trkpt lat="44.98272843992763" lon="8.367803146537186"><ele>160.0</ele><time>2026-04-11T10:25:20Z</time></trkpt><trkpt lat="44.982734413339735" lon="8.367683395109468"><ele>160.0</ele><time>2026-04-11T10:25:21Z</time></trkpt><trkpt lat="44.982743605619866" lon="8.367591420353326"><ele>160.0</ele><time>2026-04-11T10:25:22Z</time></trkpt><trkpt lat="44.982746531277876" lon="8.367494170105966"><ele>160.0</ele><time>2026-04-11T10:25:23Z</time></trkpt><trkpt lat="44.98274101816199" lon="8.367345243371656"><ele>160.0</ele><time>2026-04-11T10:25:25Z</time></trkpt><trkpt lat="44.98267976645634" lon="8.367262168001178"><ele>160.0</ele><time>2026-04-11T10:25:36Z</time></trkpt><trkpt lat="44.982611045720255" lon="8.367208781726434"><ele>160.0</ele><time>2026-04-11T10:25:38Z</time></trkpt><trkpt lat="44.98254571766164" lon="8.367151135924294"><ele>160.0</ele><time>2026-04-11T10:25:40Z</time></trkpt><trkpt lat="44.98244714605367" lon="8.367085881046531"><ele>160.8</ele><time>2026-04-11T10:25:42Z</time></trkpt><trkpt lat="44.98236199445059" lon="8.367012564282401"><ele>161.6</ele><time>2026-04-11T10:25:44Z</time></trkpt><trkpt lat="44.982318736107175" lon="8.366921616580635"><ele>162.39999999999998</ele><time>2026-04-11T10:25:47Z</time></trkpt><trkpt lat="44.982305765725066" lon="8.366823572344542"><ele>163.2</ele><time>2026-04-11T10:25:50Z</time></trkpt><trkpt lat="44.982294909153" lon="8.366688472801334"><ele>164.0</ele><time>2026-04-11T10:25:52.001Z</time></trkpt><trkpt lat="44.98228674170818" lon="8.366509380291589"><ele>164.0</ele><time>2026-04-11T10:25:54.001Z</time></trkpt><trkpt lat="44.98228253941276" lon="8.366411550503807"><ele>164.0</ele><time>2026-04-11T10:25:55.001Z</time></trkpt><trkpt lat="44.98227744870768" lon="8.366236045681188"><ele>164.0</ele><time>2026-04-11T10:25:57.001Z</time></trkpt><trkpt lat="44.98227318394792" lon="8.366131393091921"><ele>164.0</ele><time>2026-04-11T10:25:58.001Z</time></trkpt><trkpt lat="44.98226891479197" lon="8.366024768601717"><ele>164.0</ele><time>2026-04-11T10:25:59.001Z</time></trkpt><trkpt lat="44.98226444629914" lon="8.365932156583067"><ele>164.0</ele><time>2026-04-11T10:26:00.001Z</time></trkpt><trkpt lat="44.98226809989218" lon="8.36578787702172"><ele>164.39999999999998</ele><time>2026-04-11T10:26:02.001Z</time></trkpt><trkpt lat="44.9822681216589" lon="8.365627081924442"><ele>164.8</ele><time>2026-04-11T10:26:04.001Z</time></trkpt><trkpt lat="44.982261269832954" lon="8.365476582956001"><ele>165.2</ele><time>2026-04-11T10:26:06.001Z</time></trkpt><trkpt lat="44.98226195938351" lon="8.365289494417675"><ele>165.60000000000002</ele><time>2026-04-11T10:26:08.001Z</time></trkpt><trkpt lat="44.98226249370815" lon="8.365191389604078"><ele>166.0</ele><time>2026-04-11T10:26:09.001Z</time></trkpt><trkpt lat="44.98226007743952" lon="8.365063067659937"><ele>166.83333333333334</ele><time>2026-04-11T10:26:10.001Z</time></trkpt><trkpt lat="44.982257384766235" lon="8.364942978106326"><ele>167.66666666666669</ele><time>2026-04-11T10:26:11.001Z</time></trkpt><trkpt lat="44.98226108412313" lon="8.364844089033532"><ele>168.5</ele><time>2026-04-11T10:26:12.001Z</time></trkpt><trkpt lat="44.982259810218935" lon="8.364748746015957"><ele>169.33333333333334</ele><time>2026-04-11T10:26:13.001Z</time></trkpt><trkpt lat="44.982262438067494" lon="8.364649459051183"><ele>170.16666666666666</ele><time>2026-04-11T10:26:14.001Z</time></trkpt><trkpt lat="44.982265923635666" lon="8.364554756561047"><ele>171.0</ele><time>2026-04-11T10:26:15.001Z</time></trkpt><trkpt lat="44.98229008174151" lon="8.364397924701953"><ele>171.66666666666666</ele><time>2026-04-11T10:26:17.001Z</time></trkpt><trkpt lat="44.98230507592057" lon="8.364298626431307"><ele>172.33333333333334</ele><time>2026-04-11T10:26:18.001Z</time></trkpt><trkpt lat="44.982328565078745" lon="8.364194730657243"><ele>173.0</ele><time>2026-04-11T10:26:19.001Z</time></trkpt><trkpt lat="44.98235416013047" lon="8.36407822836677"><ele>173.66666666666669</ele><time>2026-04-11T10:26:20.001Z</time></trkpt><trkpt lat="44.98236940087106" lon="8.363970567980724"><ele>174.33333333333334</ele><time>2026-04-11T10:26:21.001Z</time></trkpt><trkpt lat="44.98238690494636" lon="8.363857027304233"><ele>175.0</ele><time>2026-04-11T10:26:22.001Z</time></trkpt><trkpt lat="44.982409360086805" lon="8.363752858718188"><ele>175.83333333333334</ele><time>2026-04-11T10:26:23.001Z</time></trkpt><trkpt lat="44.98243563997444" lon="8.363622436099412"><ele>176.66666666666669</ele><time>2026-04-11T10:26:24.001Z</time></trkpt><trkpt lat="44.982445887704344" lon="8.363524106839618"><ele>177.5</ele><time>2026-04-11T10:26:25.001Z</time></trkpt><trkpt lat="44.98245064182588" lon="8.36342324783592"><ele>178.33333333333334</ele><time>2026-04-11T10:26:26.001Z</time></trkpt><trkpt lat="44.98246425832991" lon="8.363321765681102"><ele>179.16666666666666</ele><time>2026-04-11T10:26:27.001Z</time></trkpt><trkpt lat="44.982470486259764" lon="8.363230142351243"><ele>180.0</ele><time>2026-04-11T10:26:28.001Z</time></trkpt><trkpt lat="44.982467063370635" lon="8.363105938105884"><ele>180.83333333333334</ele><time>2026-04-11T10:26:30.001Z</time></trkpt><trkpt lat="44.982460874689316" lon="8.362989411023774"><ele>181.66666666666666</ele><time>2026-04-11T10:26:32.001Z</time></trkpt><trkpt lat="44.98241474333146" lon="8.362855216221682"><ele>182.5</ele><time>2026-04-11T10:26:35.001Z</time></trkpt><trkpt lat="44.982399823541186" lon="8.36276100852326"><ele>183.33333333333331</ele><time>2026-04-11T10:27:57.001Z</time></trkpt><trkpt lat="44.9823770547556" lon="8.362674414541745"><ele>184.16666666666666</ele><time>2026-04-11T10:28:04.001Z</time></trkpt><trkpt lat="44.98234835179645" lon="8.36258733429168"><ele>185.0</ele><time>2026-04-11T10:28:09.001Z</time></trkpt><trkpt lat="44.98230731118364" lon="8.362504861453425"><ele>184.99999999999997</ele><time>2026-04-11T10:28:14.001Z</time></trkpt><trkpt lat="44.98224321326467" lon="8.362478558464376"><ele>185.0</ele><time>2026-04-11T10:28:51.002Z</time></trkpt><trkpt lat="44.98217035616657" lon="8.362478375260745"><ele>185.0</ele><time>2026-04-11T10:28:55.002Z</time></trkpt><trkpt lat="44.982108872181534" lon="8.36250979588925"><ele>185.0</ele><time>2026-04-11T10:29:00.002Z</time></trkpt><trkpt lat="44.98203829297135" lon="8.36253524338622"><ele>185.0</ele><time>2026-04-11T10:29:05.002Z</time></trkpt><trkpt lat="44.98197717278968" lon="8.362568309356035"><ele>184.99999999999997</ele><time>2026-04-11T10:29:06.002Z</time></trkpt><trkpt lat="44.98191467864046" lon="8.362607881878489"><ele>185.0</ele><time>2026-04-11T10:29:08.002Z</time></trkpt><trkpt lat="44.9818338457114" lon="8.362673608506796"><ele>185.0</ele><time>2026-04-11T10:29:10.002Z</time></trkpt><trkpt lat="44.98173466744802" lon="8.362731808749672"><ele>185.0</ele><time>2026-04-11T10:29:12.002Z</time></trkpt><trkpt lat="44.98164494166243" lon="8.362801197254903"><ele>185.0</ele><time>2026-04-11T10:29:14.002Z</time></trkpt><trkpt lat="44.98155145077946" lon="8.362861529350594"><ele>185.0</ele><time>2026-04-11T10:29:16.001Z</time></trkpt><trkpt lat="44.98147003285189" lon="8.362909598519831"><ele>185.0</ele><time>2026-04-11T10:29:18.001Z</time></trkpt><trkpt lat="44.98136315281217" lon="8.362973699317752"><ele>187.0</ele><time>2026-04-11T10:29:20.001Z</time></trkpt><trkpt lat="44.98125867610294" lon="8.363034764035042"><ele>189.0</ele><time>2026-04-11T10:29:22.001Z</time></trkpt><trkpt lat="44.98119696100997" lon="8.363071194959911"><ele>191.0</ele><time>2026-04-11T10:29:23.001Z</time></trkpt><trkpt lat="44.98113039166378" lon="8.363104217542952"><ele>193.0</ele><time>2026-04-11T10:29:24.001Z</time></trkpt><trkpt lat="44.98106607698557" lon="8.36314274041164"><ele>195.00000000000003</ele><time>2026-04-11T10:29:25.001Z</time></trkpt><trkpt lat="44.98098932824312" lon="8.36316231325794"><ele>197.0</ele><time>2026-04-11T10:29:26.001Z</time></trkpt><trkpt lat="44.98090683252532" lon="8.363209775012688"><ele>197.16666666666669</ele><time>2026-04-11T10:29:27.001Z</time></trkpt><trkpt lat="44.98082657178572" lon="8.363255950976647"><ele>197.33333333333334</ele><time>2026-04-11T10:29:28.001Z</time></trkpt><trkpt lat="44.98074474811537" lon="8.36330302614747"><ele>197.5</ele><time>2026-04-11T10:29:29Z</time></trkpt><trkpt lat="44.98066102160866" lon="8.363350469092214"><ele>197.66666666666669</ele><time>2026-04-11T10:29:30Z</time></trkpt><trkpt lat="44.98058465285027" lon="8.363393353694859"><ele>197.83333333333334</ele><time>2026-04-11T10:29:31Z</time></trkpt><trkpt lat="44.98051333130799" lon="8.363430884945464"><ele>198.0</ele><time>2026-04-11T10:29:32Z</time></trkpt><trkpt lat="44.98044120788545" lon="8.363468288208015"><ele>198.0</ele><time>2026-04-11T10:29:33Z</time></trkpt><trkpt lat="44.980366536327864" lon="8.363530104675359"><ele>198.0</ele><time>2026-04-11T10:29:34Z</time></trkpt><trkpt lat="44.98028476985801" lon="8.36356920111792"><ele>198.0</ele><time>2026-04-11T10:29:35.001Z</time></trkpt><trkpt lat="44.98020849519326" lon="8.363598642077463"><ele>198.0</ele><time>2026-04-11T10:29:36.001Z</time></trkpt><trkpt lat="44.98014209545187" lon="8.363618105113128"><ele>198.0</ele><time>2026-04-11T10:29:37.001Z</time></trkpt><trkpt lat="44.9800339459852" lon="8.363580175688782"><ele>198.0</ele><time>2026-04-11T10:29:39.001Z</time></trkpt><trkpt lat="44.97995011013746" lon="8.363484367008333"><ele>197.66666666666666</ele><time>2026-04-11T10:29:41.001Z</time></trkpt><trkpt lat="44.97991722059861" lon="8.363403983461263"><ele>197.33333333333331</ele><time>2026-04-11T10:29:42.001Z</time></trkpt><trkpt lat="44.979891081734905" lon="8.363322002488793"><ele>197.0</ele><time>2026-04-11T10:29:43.001Z</time></trkpt><trkpt lat="44.97985346723652" lon="8.363220472123084"><ele>196.66666666666666</ele><time>2026-04-11T10:29:44.001Z</time></trkpt><trkpt lat="44.979811140219546" lon="8.363113032011855"><ele>196.33333333333331</ele><time>2026-04-11T10:29:45.001Z</time></trkpt><trkpt lat="44.97976543417388" lon="8.362999511164219"><ele>196.0</ele><time>2026-04-11T10:29:46.001Z</time></trkpt><trkpt lat="44.97971519606448" lon="8.362893633797693"><ele>197.66666666666666</ele><time>2026-04-11T10:29:47.001Z</time></trkpt><trkpt lat="44.97964849287762" lon="8.362819043155971"><ele>199.33333333333331</ele><time>2026-04-11T10:29:48.001Z</time></trkpt><trkpt lat="44.97958502140664" lon="8.36275243608278"><ele>201.0</ele><time>2026-04-11T10:29:49.001Z</time></trkpt><trkpt lat="44.97951163450017" lon="8.362706466771579"><ele>202.66666666666669</ele><time>2026-04-11T10:29:50.001Z</time></trkpt><trkpt lat="44.97941878220487" lon="8.362676407935782"><ele>204.33333333333334</ele><time>2026-04-11T10:29:51.001Z</time></trkpt><trkpt lat="44.97932962048898" lon="8.36260634896205"><ele>206.0</ele><time>2026-04-11T10:29:52.001Z</time></trkpt><trkpt lat="44.97924395564738" lon="8.362556705834702"><ele>206.50000000000003</ele><time>2026-04-11T10:29:53.001Z</time></trkpt><trkpt lat="44.97917631716352" lon="8.362514131076285"><ele>207.0</ele><time>2026-04-11T10:29:54.001Z</time></trkpt><trkpt lat="44.979116684454645" lon="8.362474986952632"><ele>207.5</ele><time>2026-04-11T10:29:55.001Z</time></trkpt><trkpt lat="44.9790186893658" lon="8.362403607932345"><ele>208.0</ele><time>2026-04-11T10:29:57.001Z</time></trkpt><trkpt lat="44.97893364036295" lon="8.362321571527575"><ele>208.50000000000003</ele><time>2026-04-11T10:29:59.001Z</time></trkpt><trkpt lat="44.9788715592158" lon="8.362247820796462"><ele>209.0</ele><time>2026-04-11T10:30:01.001Z</time></trkpt><trkpt lat="44.97882629751439" lon="8.362185928858032"><ele>209.0</ele><time>2026-04-11T10:30:03.001Z</time></trkpt><trkpt lat="44.9788654647541" lon="8.362368442486538"><ele>209.0</ele><time>2026-04-11T10:30:16.001Z</time></trkpt><trkpt lat="44.97889559499281" lon="8.36246543893505"><ele>209.0</ele><time>2026-04-11T10:30:18.001Z</time></trkpt><trkpt lat="44.9789286384449" lon="8.362611202276838"><ele>209.0</ele><time>2026-04-11T10:30:20.001Z</time></trkpt><trkpt lat="44.978967640934684" lon="8.362747585139239"><ele>209.0</ele><time>2026-04-11T10:30:22.001Z</time></trkpt><trkpt lat="44.97898827664416" lon="8.362842306963662"><ele>209.0</ele><time>2026-04-11T10:30:24.001Z</time></trkpt><trkpt lat="44.97901167398033" lon="8.363005670105414"><ele>209.0</ele><time>2026-04-11T10:30:26.001Z</time></trkpt><trkpt lat="44.97902082783238" lon="8.363143374729221"><ele>209.0</ele><time>2026-04-11T10:30:27.001Z</time></trkpt><trkpt lat="44.97903890992025" lon="8.363263290944483"><ele>209.0</ele><time>2026-04-11T10:30:28.001Z</time></trkpt><trkpt lat="44.979057041078875" lon="8.36338353247927"><ele>209.0</ele><time>2026-04-11T10:30:29.001Z</time></trkpt><trkpt lat="44.979079076159614" lon="8.36350537462787"><ele>207.16666666666669</ele><time>2026-04-11T10:30:30.001Z</time></trkpt><trkpt lat="44.9790966264636" lon="8.363621993802894"><ele>205.33333333333334</ele><time>2026-04-11T10:30:31.001Z</time></trkpt><trkpt lat="44.97910882218899" lon="8.363747590862156"><ele>203.5</ele><time>2026-04-11T10:30:32.001Z</time></trkpt><trkpt lat="44.97912647677619" lon="8.363870937058671"><ele>201.66666666666669</ele><time>2026-04-11T10:30:33.002Z</time></trkpt><trkpt lat="44.97914533675971" lon="8.363976502549697"><ele>199.83333333333334</ele><time>2026-04-11T10:30:34.002Z</time></trkpt><trkpt lat="44.97916448261487" lon="8.364079416431194"><ele>198.0</ele><time>2026-04-11T10:30:35.002Z</time></trkpt><trkpt lat="44.97918058953033" lon="8.364170176271873"><ele>197.60000000000002</ele><time>2026-04-11T10:30:36.002Z</time></trkpt><trkpt lat="44.97918888743956" lon="8.364309068052828"><ele>197.20000000000002</ele><time>2026-04-11T10:30:38.002Z</time></trkpt><trkpt lat="44.97924735222276" lon="8.364431053959196"><ele>196.8</ele><time>2026-04-11T10:30:42.002Z</time></trkpt><trkpt lat="44.979321617791534" lon="8.364336626332157"><ele>196.4</ele><time>2026-04-11T10:30:44.002Z</time></trkpt><trkpt lat="44.97943301997925" lon="8.364251037369245"><ele>196.0</ele><time>2026-04-11T10:30:46.002Z</time></trkpt><trkpt lat="44.97948767308113" lon="8.36417809570289"><ele>195.99999999999997</ele><time>2026-04-11T10:30:47.002Z</time></trkpt><trkpt lat="44.97957305523611" lon="8.364158708822867"><ele>196.0</ele><time>2026-04-11T10:30:48.002Z</time></trkpt><trkpt lat="44.979679933592394" lon="8.364084205179545"><ele>196.0</ele><time>2026-04-11T10:30:50.002Z</time></trkpt><trkpt lat="44.97973559200862" lon="8.364036510880766"><ele>196.0</ele><time>2026-04-11T10:30:51.002Z</time></trkpt><trkpt lat="44.97979621757605" lon="8.36398825959194"><ele>195.99999999999997</ele><time>2026-04-11T10:30:52.002Z</time></trkpt><trkpt lat="44.97985143778196" lon="8.36394056937287"><ele>196.0</ele><time>2026-04-11T10:30:53.002Z</time></trkpt><trkpt lat="44.979905693292615" lon="8.363886706055425"><ele>196.0</ele><time>2026-04-11T10:30:54.002Z</time></trkpt><trkpt lat="44.979957147155204" lon="8.36382338044152"><ele>196.0</ele><time>2026-04-11T10:30:55.002Z</time></trkpt><trkpt lat="44.980040358946496" lon="8.363708609517097"><ele>196.0</ele><time>2026-04-11T10:30:57.002Z</time></trkpt><trkpt lat="44.98012824220293" lon="8.363631180559643"><ele>196.0</ele><time>2026-04-11T10:30:59.002Z</time></trkpt><trkpt lat="44.98024246509985" lon="8.363585566354713"><ele>196.0</ele><time>2026-04-11T10:31:01.002Z</time></trkpt><trkpt lat="44.98032224085502" lon="8.36355600659062"><ele>196.4</ele><time>2026-04-11T10:31:02.002Z</time></trkpt><trkpt lat="44.98041166692819" lon="8.36351831211914"><ele>196.8</ele><time>2026-04-11T10:31:03.002Z</time></trkpt><trkpt lat="44.98049946983416" lon="8.363473980915316"><ele>197.20000000000002</ele><time>2026-04-11T10:31:04.002Z</time></trkpt><trkpt lat="44.98058744321555" lon="8.36342561628489"><ele>197.60000000000002</ele><time>2026-04-11T10:31:05.002Z</time></trkpt><trkpt lat="44.980671839056946" lon="8.363374896572797"><ele>198.0</ele><time>2026-04-11T10:31:06.002Z</time></trkpt><trkpt lat="44.980754200702336" lon="8.36332886283454"><ele>198.0</ele><time>2026-04-11T10:31:07.002Z</time></trkpt><trkpt lat="44.98084217563603" lon="8.363280711588173"><ele>198.0</ele><time>2026-04-11T10:31:08.002Z</time></trkpt><trkpt lat="44.98093144120428" lon="8.363230526851364"><ele>198.0</ele><time>2026-04-11T10:31:09.002Z</time></trkpt><trkpt lat="44.9810196737584" lon="8.363179908681976"><ele>198.0</ele><time>2026-04-11T10:31:10.002Z</time></trkpt><trkpt lat="44.981106613194335" lon="8.363132306977914"><ele>198.0</ele><time>2026-04-11T10:31:11.002Z</time></trkpt><trkpt lat="44.98119227104299" lon="8.363080958073628"><ele>197.8</ele><time>2026-04-11T10:31:12.002Z</time></trkpt><trkpt lat="44.981272422952394" lon="8.36304157973784"><ele>197.60000000000002</ele><time>2026-04-11T10:31:13.002Z</time></trkpt><trkpt lat="44.98134259709868" lon="8.363002701719099"><ele>197.39999999999998</ele><time>2026-04-11T10:31:14.002Z</time></trkpt><trkpt lat="44.981409547611946" lon="8.362992848530013"><ele>197.2</ele><time>2026-04-11T10:31:15.002Z</time></trkpt><trkpt lat="44.9815261177244" lon="8.36293311062934"><ele>197.0</ele><time>2026-04-11T10:31:17.002Z</time></trkpt><trkpt lat="44.981613130606746" lon="8.36283183489803"><ele>195.00000000000003</ele><time>2026-04-11T10:31:19.002Z</time></trkpt><trkpt lat="44.98169533334005" lon="8.362757188818232"><ele>193.0</ele><time>2026-04-11T10:31:21.003Z</time></trkpt><trkpt lat="44.98174438597443" lon="8.362695060014058"><ele>191.0</ele><time>2026-04-11T10:31:23Z</time></trkpt><trkpt lat="44.98182969669376" lon="8.362662006194425"><ele>189.0</ele><time>2026-04-11T10:31:25Z</time></trkpt><trkpt lat="44.98191294541055" lon="8.362594216753065"><ele>187.0</ele><time>2026-04-11T10:31:27Z</time></trkpt><trkpt lat="44.98199015121315" lon="8.362551585362239"><ele>185.0</ele><time>2026-04-11T10:31:29Z</time></trkpt><trkpt lat="44.982057841642565" lon="8.362535562166446"><ele>184.99999999999997</ele><time>2026-04-11T10:31:33Z</time></trkpt><trkpt lat="44.98212726247582" lon="8.362485080577109"><ele>185.0</ele><time>2026-04-11T10:31:37Z</time></trkpt><trkpt lat="44.98220545976958" lon="8.362449351938672"><ele>185.0</ele><time>2026-04-11T10:31:40Z</time></trkpt><trkpt lat="44.98227518899653" lon="8.36247293093034"><ele>185.0</ele><time>2026-04-11T10:31:44Z</time></trkpt><trkpt lat="44.982324509379886" lon="8.362546671446124"><ele>185.0</ele><time>2026-04-11T10:31:49Z</time></trkpt><trkpt lat="44.982340203241705" lon="8.362634718676059"><ele>184.99999999999997</ele><time>2026-04-11T10:31:53Z</time></trkpt><trkpt lat="44.98236393032975" lon="8.362717231153457"><ele>185.0</ele><time>2026-04-11T10:31:56Z</time></trkpt><trkpt lat="44.98238321322316" lon="8.362813747547264"><ele>184.99999999999997</ele><time>2026-04-11T10:31:59Z</time></trkpt><trkpt lat="44.98240291139279" lon="8.362917573370465"><ele>185.0</ele><time>2026-04-11T10:32:03Z</time></trkpt><trkpt lat="44.98243638882817" lon="8.36299405226555"><ele>185.0</ele><time>2026-04-11T10:32:09.001Z</time></trkpt><trkpt lat="44.98245125281851" lon="8.363091653227073"><ele>185.0</ele><time>2026-04-11T10:32:13.001Z</time></trkpt><trkpt lat="44.98244887359956" lon="8.363198045051803"><ele>185.0</ele><time>2026-04-11T10:32:17.001Z</time></trkpt><trkpt lat="44.98244405041589" lon="8.363288503203043"><ele>184.99999999999997</ele><time>2026-04-11T10:32:19.001Z</time></trkpt><trkpt lat="44.98242944183926" lon="8.363401020043273"><ele>185.0</ele><time>2026-04-11T10:32:21.001Z</time></trkpt><trkpt lat="44.98242439364883" lon="8.363523735673"><ele>184.16666666666666</ele><time>2026-04-11T10:32:23.001Z</time></trkpt><trkpt lat="44.982415756832815" lon="8.36363921749437"><ele>183.33333333333331</ele><time>2026-04-11T10:32:25.001Z</time></trkpt><trkpt lat="44.98238513190769" lon="8.36375166305904"><ele>182.5</ele><time>2026-04-11T10:32:27.001Z</time></trkpt><trkpt lat="44.98236145098118" lon="8.363870719991947"><ele>181.66666666666666</ele><time>2026-04-11T10:32:29.001Z</time></trkpt><trkpt lat="44.98234210402489" lon="8.3639812611426"><ele>180.83333333333334</ele><time>2026-04-11T10:32:31.001Z</time></trkpt><trkpt lat="44.98233338975092" lon="8.364113060502502"><ele>180.0</ele><time>2026-04-11T10:32:33.001Z</time></trkpt><trkpt lat="44.98231283919924" lon="8.36424869196319"><ele>179.16666666666666</ele><time>2026-04-11T10:32:35.001Z</time></trkpt><trkpt lat="44.98227537094461" lon="8.364346687569979"><ele>178.33333333333334</ele><time>2026-04-11T10:32:37.001Z</time></trkpt><trkpt lat="44.982251716342006" lon="8.364487931981282"><ele>177.5</ele><time>2026-04-11T10:32:39.001Z</time></trkpt><trkpt lat="44.98224630641361" lon="8.364596730215291"><ele>176.66666666666669</ele><time>2026-04-11T10:32:41.001Z</time></trkpt><trkpt lat="44.982249602744275" lon="8.364728355329154"><ele>175.83333333333334</ele><time>2026-04-11T10:32:43.001Z</time></trkpt><trkpt lat="44.98225158921004" lon="8.364865991290856"><ele>175.0</ele><time>2026-04-11T10:32:45.001Z</time></trkpt><trkpt lat="44.98225546504954" lon="8.364986191244496"><ele>174.2</ele><time>2026-04-11T10:32:47.001Z</time></trkpt><trkpt lat="44.98225013675551" lon="8.36512204137225"><ele>173.4</ele><time>2026-04-11T10:32:49.001Z</time></trkpt><trkpt lat="44.98225307890644" lon="8.36528475318309"><ele>172.60000000000002</ele><time>2026-04-11T10:32:51.001Z</time></trkpt><trkpt lat="44.98225231892074" lon="8.365429144396552"><ele>171.8</ele><time>2026-04-11T10:32:53.002Z</time></trkpt><trkpt lat="44.982250975846114" lon="8.365591272747775"><ele>171.0</ele><time>2026-04-11T10:32:55.002Z</time></trkpt><trkpt lat="44.98225354727724" lon="8.365727691514286"><ele>170.16666666666666</ele><time>2026-04-11T10:32:57.002Z</time></trkpt><trkpt lat="44.98225257019762" lon="8.365829637821726"><ele>169.33333333333334</ele><time>2026-04-11T10:32:59.002Z</time></trkpt><trkpt lat="44.98225222820944" lon="8.365925274384818"><ele>168.5</ele><time>2026-04-11T10:33:01.002Z</time></trkpt><trkpt lat="44.98224783591075" lon="8.3660578574049"><ele>167.66666666666669</ele><time>2026-04-11T10:33:03.002Z</time></trkpt><trkpt lat="44.98225059819548" lon="8.366150874572666"><ele>166.83333333333334</ele><time>2026-04-11T10:33:04.002Z</time></trkpt><trkpt lat="44.982253028289534" lon="8.366240712207516"><ele>166.0</ele><time>2026-04-11T10:33:05.002Z</time></trkpt><trkpt lat="44.98226746668864" lon="8.366411499811939"><ele>165.60000000000002</ele><time>2026-04-11T10:33:07.002Z</time></trkpt><trkpt lat="44.982280087260534" lon="8.36657935458502"><ele>165.2</ele><time>2026-04-11T10:33:09.002Z</time></trkpt><trkpt lat="44.98228404282179" lon="8.36673169509483"><ele>164.8</ele><time>2026-04-11T10:33:11.002Z</time></trkpt><trkpt lat="44.98230703980551" lon="8.366870558550424"><ele>164.39999999999998</ele><time>2026-04-11T10:33:13.002Z</time></trkpt><trkpt lat="44.982346381094004" lon="8.366988631719874"><ele>164.0</ele><time>2026-04-11T10:33:15.002Z</time></trkpt><trkpt lat="44.98240927424401" lon="8.367056135326298"><ele>164.0</ele><time>2026-04-11T10:33:17.002Z</time></trkpt><trkpt lat="44.98250690934572" lon="8.367119271764563"><ele>164.0</ele><time>2026-04-11T10:33:19.002Z</time></trkpt><trkpt lat="44.98261997750381" lon="8.36719839735463"><ele>164.0</ele><time>2026-04-11T10:33:21.002Z</time></trkpt><trkpt lat="44.98270119724883" lon="8.367270896863694"><ele>164.0</ele><time>2026-04-11T10:33:23.002Z</time></trkpt><trkpt lat="44.98276677547357" lon="8.367296579053846"><ele>164.0</ele><time>2026-04-11T10:33:27.002Z</time></trkpt><trkpt lat="44.98282436533144" lon="8.36717732570277"><ele>163.42857142857142</ele><time>2026-04-11T10:33:29.999Z</time></trkpt><trkpt lat="44.9828462914819" lon="8.367092257620511"><ele>162.85714285714286</ele><time>2026-04-11T10:33:30.999Z</time></trkpt><trkpt lat="44.982873340872004" lon="8.366997863903771"><ele>162.28571428571428</ele><time>2026-04-11T10:33:31.999Z</time></trkpt><trkpt lat="44.982901308362166" lon="8.366904398578214"><ele>161.71428571428572</ele><time>2026-04-11T10:33:32.999Z</time></trkpt><trkpt lat="44.98292888637007" lon="8.366808914895882"><ele>161.14285714285714</ele><time>2026-04-11T10:33:33.999Z</time></trkpt><trkpt lat="44.982954961602736" lon="8.366710174727668"><ele>160.57142857142856</ele><time>2026-04-11T10:33:34.999Z</time></trkpt><trkpt lat="44.98297923449795" lon="8.366617743487678"><ele>160.0</ele><time>2026-04-11T10:33:35.999Z</time></trkpt><trkpt lat="44.98300536802242" lon="8.366516340004887"><ele>160.0</ele><time>2026-04-11T10:33:36.999Z</time></trkpt><trkpt lat="44.983040275109815" lon="8.36639682264251"><ele>160.0</ele><time>2026-04-11T10:33:37.999Z</time></trkpt><trkpt lat="44.983078356569465" lon="8.366261592040749"><ele>160.0</ele><time>2026-04-11T10:33:38.999Z</time></trkpt><trkpt lat="44.983113965726496" lon="8.366137701019225"><ele>160.0</ele><time>2026-04-11T10:33:39.999Z</time></trkpt><trkpt lat="44.98314697854081" lon="8.366022869188"><ele>160.0</ele><time>2026-04-11T10:33:40.999Z</time></trkpt><trkpt lat="44.98318205448345" lon="8.365902545684946"><ele>160.0</ele><time>2026-04-11T10:33:41.999Z</time></trkpt><trkpt lat="44.98321422813717" lon="8.365791826738022"><ele>160.0</ele><time>2026-04-11T10:33:42.999Z</time></trkpt><trkpt lat="44.9832442790197" lon="8.365693230662629"><ele>160.0</ele><time>2026-04-11T10:33:43.999Z</time></trkpt><trkpt lat="44.98327393760997" lon="8.365584164554246"><ele>160.0</ele><time>2026-04-11T10:33:44.999Z</time></trkpt><trkpt lat="44.98330808859591" lon="8.365465098768741"><ele>160.0</ele><time>2026-04-11T10:33:45.999Z</time></trkpt><trkpt lat="44.98334266628415" lon="8.365350351206587"><ele>160.0</ele><time>2026-04-11T10:33:46.999Z</time></trkpt><trkpt lat="44.98337731443504" lon="8.365243074245644"><ele>159.66666666666669</ele><time>2026-04-11T10:33:47.999Z</time></trkpt><trkpt lat="44.98340887992135" lon="8.365132982643594"><ele>159.33333333333334</ele><time>2026-04-11T10:33:48.999Z</time></trkpt><trkpt lat="44.98343318656388" lon="8.365022031201176"><ele>159.0</ele><time>2026-04-11T10:33:49.999Z</time></trkpt><trkpt lat="44.98345193883486" lon="8.364914737364339"><ele>158.66666666666666</ele><time>2026-04-11T10:33:50.999Z</time></trkpt><trkpt lat="44.98346591946325" lon="8.364806767820296"><ele>158.33333333333331</ele><time>2026-04-11T10:33:51.999Z</time></trkpt><trkpt lat="44.98348210957314" lon="8.36469297671447"><ele>158.0</ele><time>2026-04-11T10:33:52.999Z</time></trkpt><trkpt lat="44.983506022767756" lon="8.364580536643194"><ele>158.8</ele><time>2026-04-11T10:33:53.999Z</time></trkpt><trkpt lat="44.98352778927654" lon="8.364454621831804"><ele>159.60000000000002</ele><time>2026-04-11T10:33:55Z</time></trkpt><trkpt lat="44.98355592601933" lon="8.364328951299864"><ele>160.39999999999998</ele><time>2026-04-11T10:33:56Z</time></trkpt><trkpt lat="44.98358231427221" lon="8.364197483373497"><ele>161.2</ele><time>2026-04-11T10:33:57Z</time></trkpt><trkpt lat="44.98361276839587" lon="8.364061820830186"><ele>162.0</ele><time>2026-04-11T10:33:58Z</time></trkpt><trkpt lat="44.98364533779868" lon="8.363935406160406"><ele>162.0</ele><time>2026-04-11T10:33:59Z</time></trkpt><trkpt lat="44.98367328531236" lon="8.3638231030491"><ele>162.0</ele><time>2026-04-11T10:34:00Z</time></trkpt><trkpt lat="44.983705833125974" lon="8.36370876906874"><ele>162.0</ele><time>2026-04-11T10:34:01Z</time></trkpt><trkpt lat="44.98374372697747" lon="8.363591537366377"><ele>162.0</ele><time>2026-04-11T10:34:02Z</time></trkpt><trkpt lat="44.98378122978757" lon="8.363461870311403"><ele>162.0</ele><time>2026-04-11T10:34:03Z</time></trkpt><trkpt lat="44.98382002825817" lon="8.363340987848453"><ele>162.0</ele><time>2026-04-11T10:34:04Z</time></trkpt><trkpt lat="44.983852614644704" lon="8.363235473156145"><ele>162.0</ele><time>2026-04-11T10:34:05Z</time></trkpt><trkpt lat="44.98389339485737" lon="8.363105002589746"><ele>162.0</ele><time>2026-04-11T10:34:06Z</time></trkpt><trkpt lat="44.98393102784981" lon="8.362976608835982"><ele>162.0</ele><time>2026-04-11T10:34:07Z</time></trkpt><trkpt lat="44.98396140741389" lon="8.362848161799619"><ele>162.0</ele><time>2026-04-11T10:34:08Z</time></trkpt><trkpt lat="44.98398757195155" lon="8.362712650765339"><ele>162.39999999999998</ele><time>2026-04-11T10:34:09Z</time></trkpt><trkpt lat="44.98401145613449" lon="8.362582119242425"><ele>162.79999999999998</ele><time>2026-04-11T10:34:10Z</time></trkpt><trkpt lat="44.98404027320293" lon="8.362456916043639"><ele>163.2</ele><time>2026-04-11T10:34:11Z</time></trkpt><trkpt lat="44.98406999451028" lon="8.36233040908031"><ele>163.6</ele><time>2026-04-11T10:34:12Z</time></trkpt><trkpt lat="44.984100775943226" lon="8.362196236834755"><ele>164.0</ele><time>2026-04-11T10:34:13Z</time></trkpt><trkpt lat="44.98412427482258" lon="8.362061134912286"><ele>164.0</ele><time>2026-04-11T10:34:14Z</time></trkpt><trkpt lat="44.984138966315825" lon="8.361930252618443"><ele>164.0</ele><time>2026-04-11T10:34:15Z</time></trkpt><trkpt lat="44.984156925555574" lon="8.36180980681575"><ele>164.0</ele><time>2026-04-11T10:34:16Z</time></trkpt><trkpt lat="44.984182542607236" lon="8.361679758630592"><ele>164.0</ele><time>2026-04-11T10:34:17Z</time></trkpt><trkpt lat="44.98421487155142" lon="8.361542225023232"><ele>164.0</ele><time>2026-04-11T10:34:18Z</time></trkpt><trkpt lat="44.98425885449922" lon="8.361418040588758"><ele>164.0</ele><time>2026-04-11T10:34:19Z</time></trkpt><trkpt lat="44.9843048211603" lon="8.361334853956539"><ele>164.0</ele><time>2026-04-11T10:34:20Z</time></trkpt><trkpt lat="44.984349423646734" lon="8.361261350536946"><ele>164.0</ele><time>2026-04-11T10:34:21Z</time></trkpt><trkpt lat="44.98440421419831" lon="8.361192359677156"><ele>164.0</ele><time>2026-04-11T10:34:22Z</time></trkpt><trkpt lat="44.984457309998135" lon="8.36112747613939"><ele>164.0</ele><time>2026-04-11T10:34:23Z</time></trkpt><trkpt lat="44.98454167020389" lon="8.361015161691807"><ele>164.0</ele><time>2026-04-11T10:34:25Z</time></trkpt><trkpt lat="44.98460299953892" lon="8.360910691229321"><ele>164.0</ele><time>2026-04-11T10:34:27.001Z</time></trkpt><trkpt lat="44.98465082494942" lon="8.360796294956923"><ele>164.0</ele><time>2026-04-11T10:34:29.001Z</time></trkpt><trkpt lat="44.98471254904772" lon="8.360636466295425"><ele>164.0</ele><time>2026-04-11T10:34:31.001Z</time></trkpt><trkpt lat="44.98474189400434" lon="8.360537314570747"><ele>164.0</ele><time>2026-04-11T10:34:32.001Z</time></trkpt><trkpt lat="44.98476449692763" lon="8.360426596171449"><ele>164.0</ele><time>2026-04-11T10:34:33.001Z</time></trkpt><trkpt lat="44.98477600942703" lon="8.360317100710965"><ele>163.66666666666666</ele><time>2026-04-11T10:34:34.001Z</time></trkpt><trkpt lat="44.98479136380593" lon="8.36018119316325"><ele>163.33333333333331</ele><time>2026-04-11T10:34:35.001Z</time></trkpt><trkpt lat="44.984809049125836" lon="8.360056950075595"><ele>163.0</ele><time>2026-04-11T10:34:36.001Z</time></trkpt><trkpt lat="44.98482739374284" lon="8.35994986119085"><ele>162.66666666666666</ele><time>2026-04-11T10:34:37.001Z</time></trkpt><trkpt lat="44.98484227434156" lon="8.359862283141306"><ele>162.33333333333334</ele><time>2026-04-11T10:34:38.001Z</time></trkpt><trkpt lat="44.98485539782196" lon="8.359749849557394"><ele>162.0</ele><time>2026-04-11T10:34:39.001Z</time></trkpt><trkpt lat="44.98487034611846" lon="8.359620975809987"><ele>161.66666666666666</ele><time>2026-04-11T10:34:40.001Z</time></trkpt><trkpt lat="44.984891024270055" lon="8.359499179594712"><ele>161.33333333333334</ele><time>2026-04-11T10:34:41.001Z</time></trkpt><trkpt lat="44.98491943217913" lon="8.359390948439941"><ele>161.0</ele><time>2026-04-11T10:34:42.001Z</time></trkpt><trkpt lat="44.98493913446549" lon="8.359265725172506"><ele>160.66666666666669</ele><time>2026-04-11T10:34:43.001Z</time></trkpt><trkpt lat="44.984953519419626" lon="8.359150259522979"><ele>160.33333333333334</ele><time>2026-04-11T10:34:44.001Z</time></trkpt><trkpt lat="44.98494433498633" lon="8.359053661517326"><ele>160.0</ele><time>2026-04-11T10:34:45.001Z</time></trkpt><trkpt lat="44.9849463975518" lon="8.35895822845937"><ele>160.0</ele><time>2026-04-11T10:34:46.001Z</time></trkpt><trkpt lat="44.98496841667791" lon="8.358871523759976"><ele>160.0</ele><time>2026-04-11T10:34:47.001Z</time></trkpt><trkpt lat="44.98506626800644" lon="8.358806967880186"><ele>160.0</ele><time>2026-04-11T10:34:49.001Z</time></trkpt><trkpt lat="44.98518642947777" lon="8.358811443625537"><ele>160.0</ele><time>2026-04-11T10:34:51.001Z</time></trkpt><trkpt lat="44.98525852334237" lon="8.35885701022408"><ele>160.0</ele><time>2026-04-11T10:34:52.001Z</time></trkpt><trkpt lat="44.98531607410342" lon="8.358933451374487"><ele>160.4</ele><time>2026-04-11T10:34:53.001Z</time></trkpt><trkpt lat="44.98538338485402" lon="8.359017538297188"><ele>160.8</ele><time>2026-04-11T10:34:54.001Z</time></trkpt><trkpt lat="44.98546352442319" lon="8.359106937518309"><ele>161.2</ele><time>2026-04-11T10:34:55.001Z</time></trkpt><trkpt lat="44.98553853212087" lon="8.359186964202912"><ele>161.6</ele><time>2026-04-11T10:34:56.001Z</time></trkpt><trkpt lat="44.98566563194585" lon="8.359284729620914"><ele>162.0</ele><time>2026-04-11T10:34:58.001Z</time></trkpt><trkpt lat="44.98574753114966" lon="8.359319316729918"><ele>162.0</ele><time>2026-04-11T10:34:59.001Z</time></trkpt><trkpt lat="44.985825859799895" lon="8.359337804170167"><ele>162.0</ele><time>2026-04-11T10:35:00.001Z</time></trkpt><trkpt lat="44.98590245335104" lon="8.359359099383369"><ele>162.0</ele><time>2026-04-11T10:35:01.001Z</time></trkpt><trkpt lat="44.98596982957774" lon="8.359378939819504"><ele>162.0</ele><time>2026-04-11T10:35:02.001Z</time></trkpt><trkpt lat="44.98603578550375" lon="8.35939612676321"><ele>162.0</ele><time>2026-04-11T10:35:03.001Z</time></trkpt><trkpt lat="44.98614676987169" lon="8.359429159809897"><ele>162.0</ele><time>2026-04-11T10:35:05.002Z</time></trkpt><trkpt lat="44.98622754107695" lon="8.359444892836722"><ele>162.16666666666666</ele><time>2026-04-11T10:35:07.002Z</time></trkpt><trkpt lat="44.98633298159101" lon="8.359471564903796"><ele>162.33333333333334</ele><time>2026-04-11T10:35:26.002Z</time></trkpt><trkpt lat="44.98644788998263" lon="8.359496159662926"><ele>162.5</ele><time>2026-04-11T10:35:28.002Z</time></trkpt><trkpt lat="44.986516306713455" lon="8.359515245799173"><ele>162.66666666666669</ele><time>2026-04-11T10:35:29.002Z</time></trkpt><trkpt lat="44.986585299947826" lon="8.359527442735995"><ele>162.83333333333334</ele><time>2026-04-11T10:35:30.002Z</time></trkpt><trkpt lat="44.98666493553285" lon="8.359541788345537"><ele>163.0</ele><time>2026-04-11T10:35:31.002Z</time></trkpt><trkpt lat="44.98674943677263" lon="8.359562117336614"><ele>162.66666666666669</ele><time>2026-04-11T10:35:32.002Z</time></trkpt><trkpt lat="44.986829670119945" lon="8.359584483082006"><ele>162.33333333333334</ele><time>2026-04-11T10:35:33.002Z</time></trkpt><trkpt lat="44.98690650800796" lon="8.359609335063405"><ele>162.0</ele><time>2026-04-11T10:35:33.999Z</time></trkpt><trkpt lat="44.9869886462708" lon="8.359632287231362"><ele>161.66666666666666</ele><time>2026-04-11T10:35:34.999Z</time></trkpt><trkpt lat="44.987060298015315" lon="8.359642803795444"><ele>161.33333333333331</ele><time>2026-04-11T10:35:35.999Z</time></trkpt><trkpt lat="44.987179589562636" lon="8.359621564453231"><ele>161.0</ele><time>2026-04-11T10:35:37.999Z</time></trkpt><trkpt lat="44.98725143744902" lon="8.359587187277404"><ele>161.0</ele><time>2026-04-11T10:35:38.999Z</time></trkpt><trkpt lat="44.98733795996585" lon="8.359535025450343"><ele>161.0</ele><time>2026-04-11T10:35:39.999Z</time></trkpt><trkpt lat="44.98742886230942" lon="8.35948537515104"><ele>161.0</ele><time>2026-04-11T10:35:40.999Z</time></trkpt><trkpt lat="44.9875174995025" lon="8.359440394920137"><ele>161.0</ele><time>2026-04-11T10:35:41.999Z</time></trkpt><trkpt lat="44.987587995944146" lon="8.359403267388908"><ele>161.0</ele><time>2026-04-11T10:35:42.999Z</time></trkpt><trkpt lat="44.98766065210395" lon="8.359355294571504"><ele>161.0</ele><time>2026-04-11T10:35:43.999Z</time></trkpt><trkpt lat="44.98774340000118" lon="8.359284673316456"><ele>162.0</ele><time>2026-04-11T10:35:44.999Z</time></trkpt><trkpt lat="44.9878303353018" lon="8.359200040879976"><ele>163.0</ele><time>2026-04-11T10:35:45.999Z</time></trkpt><trkpt lat="44.98790872285729" lon="8.359103015299842"><ele>164.0</ele><time>2026-04-11T10:35:46.999Z</time></trkpt><trkpt lat="44.9879796412055" lon="8.358990823543847"><ele>165.0</ele><time>2026-04-11T10:35:47.999Z</time></trkpt><trkpt lat="44.98803813586383" lon="8.35887431843655"><ele>166.0</ele><time>2026-04-11T10:35:48.999Z</time></trkpt><trkpt lat="44.98807639324176" lon="8.35878066871448"><ele>166.0</ele><time>2026-04-11T10:35:49.999Z</time></trkpt><trkpt lat="44.988113820136626" lon="8.358704311003605"><ele>166.0</ele><time>2026-04-11T10:35:50.999Z</time></trkpt><trkpt lat="44.98815250318254" lon="8.35862541085949"><ele>166.0</ele><time>2026-04-11T10:35:51.999Z</time></trkpt><trkpt lat="44.98824128207871" lon="8.35853439803915"><ele>166.0</ele><time>2026-04-11T10:35:53.999Z</time></trkpt><trkpt lat="44.98836242875374" lon="8.358543589609402"><ele>166.0</ele><time>2026-04-11T10:35:56Z</time></trkpt><trkpt lat="44.98843515092671" lon="8.358583885271306"><ele>166.0</ele><time>2026-04-11T10:35:57Z</time></trkpt><trkpt lat="44.98851871282294" lon="8.358640525226113"><ele>166.60000000000002</ele><time>2026-04-11T10:35:58Z</time></trkpt><trkpt lat="44.98861482870058" lon="8.358704328858558"><ele>167.2</ele><time>2026-04-11T10:35:59Z</time></trkpt><trkpt lat="44.98871530797241" lon="8.358762342679892"><ele>167.8</ele><time>2026-04-11T10:36:00Z</time></trkpt><trkpt lat="44.98881604232767" lon="8.358817746192841"><ele>168.39999999999998</ele><time>2026-04-11T10:36:01Z</time></trkpt><trkpt lat="44.98891392456577" lon="8.35886681839597"><ele>169.0</ele><time>2026-04-11T10:36:02Z</time></trkpt><trkpt lat="44.98900300633204" lon="8.358899387091212"><ele>169.0</ele><time>2026-04-11T10:36:03Z</time></trkpt><trkpt lat="44.98907369086528" lon="8.358920742047728"><ele>169.0</ele><time>2026-04-11T10:36:04Z</time></trkpt><trkpt lat="44.98914482459395" lon="8.358947663648213"><ele>169.0</ele><time>2026-04-11T10:36:05Z</time></trkpt><trkpt lat="44.98921524258029" lon="8.358978449591508"><ele>169.0</ele><time>2026-04-11T10:36:06Z</time></trkpt><trkpt lat="44.989276549379376" lon="8.359004238833954"><ele>169.0</ele><time>2026-04-11T10:36:07Z</time></trkpt><trkpt lat="44.98940351306269" lon="8.359015117853222"><ele>169.0</ele><time>2026-04-11T10:36:09Z</time></trkpt><trkpt lat="44.98946511105915" lon="8.358985124520098"><ele>169.0</ele><time>2026-04-11T10:36:10Z</time></trkpt><trkpt lat="44.98953200179788" lon="8.358939339002331"><ele>169.0</ele><time>2026-04-11T10:36:11Z</time></trkpt><trkpt lat="44.98959539379118" lon="8.358890334417529"><ele>169.0</ele><time>2026-04-11T10:36:12Z</time></trkpt><trkpt lat="44.98966136242208" lon="8.358840227699375"><ele>169.0</ele><time>2026-04-11T10:36:13Z</time></trkpt><trkpt lat="44.98973021372809" lon="8.358781725571822"><ele>169.0</ele><time>2026-04-11T10:36:14Z</time></trkpt><trkpt lat="44.98980212183782" lon="8.358715984524972"><ele>169.0</ele><time>2026-04-11T10:36:15Z</time></trkpt><trkpt lat="44.98986989675945" lon="8.358647417506802"><ele>170.16666666666669</ele><time>2026-04-11T10:36:16Z</time></trkpt><trkpt lat="44.989935273873535" lon="8.358584685742677"><ele>171.33333333333334</ele><time>2026-04-11T10:36:17Z</time></trkpt><trkpt lat="44.990002131895096" lon="8.358520994633484"><ele>172.5</ele><time>2026-04-11T10:36:18Z</time></trkpt><trkpt lat="44.990071211073776" lon="8.358452874043309"><ele>173.66666666666666</ele><time>2026-04-11T10:36:19Z</time></trkpt><trkpt lat="44.99013717950323" lon="8.358392149263391"><ele>174.83333333333331</ele><time>2026-04-11T10:36:20Z</time></trkpt><trkpt lat="44.99019880796445" lon="8.358343727811572"><ele>176.0</ele><time>2026-04-11T10:36:21Z</time></trkpt><trkpt lat="44.990301191053305" lon="8.358251981584091"><ele>176.33333333333331</ele><time>2026-04-11T10:36:23.001Z</time></trkpt><trkpt lat="44.990417956470914" lon="8.358145907965207"><ele>176.66666666666666</ele><time>2026-04-11T10:36:25.001Z</time></trkpt><trkpt lat="44.99048122030736" lon="8.358084460371511"><ele>177.0</ele><time>2026-04-11T10:36:26.001Z</time></trkpt><trkpt lat="44.99053786498924" lon="8.358023514296372"><ele>177.33333333333334</ele><time>2026-04-11T10:36:27.001Z</time></trkpt><trkpt lat="44.990596506513626" lon="8.357964418392124"><ele>177.66666666666669</ele><time>2026-04-11T10:36:28.001Z</time></trkpt><trkpt lat="44.99065493812463" lon="8.3579086693202"><ele>178.0</ele><time>2026-04-11T10:36:29.001Z</time></trkpt><trkpt lat="44.99071787232891" lon="8.35784705502744"><ele>178.83333333333334</ele><time>2026-04-11T10:36:30.001Z</time></trkpt><trkpt lat="44.99078271553244" lon="8.357781428362332"><ele>179.66666666666669</ele><time>2026-04-11T10:36:31.001Z</time></trkpt><trkpt lat="44.990845410696046" lon="8.357709134142917"><ele>180.5</ele><time>2026-04-11T10:36:32.001Z</time></trkpt><trkpt lat="44.99089617427172" lon="8.357649093372485"><ele>181.33333333333334</ele><time>2026-04-11T10:36:33.001Z</time></trkpt><trkpt lat="44.99094914493348" lon="8.357579140793284"><ele>182.16666666666666</ele><time>2026-04-11T10:36:34.001Z</time></trkpt><trkpt lat="44.99101199904957" lon="8.357493805400313"><ele>183.0</ele><time>2026-04-11T10:36:35.001Z</time></trkpt><trkpt lat="44.99107077994896" lon="8.357415528548076"><ele>183.0</ele><time>2026-04-11T10:36:36.001Z</time></trkpt><trkpt lat="44.99112979737932" lon="8.357334237929335"><ele>183.0</ele><time>2026-04-11T10:36:37.001Z</time></trkpt><trkpt lat="44.99118792986286" lon="8.357246877551324"><ele>183.0</ele><time>2026-04-11T10:36:38.001Z</time></trkpt><trkpt lat="44.99124734158541" lon="8.35715380709896"><ele>183.0</ele><time>2026-04-11T10:36:39.001Z</time></trkpt><trkpt lat="44.991297853669806" lon="8.357071333751705"><ele>183.0</ele><time>2026-04-11T10:36:40.001Z</time></trkpt><trkpt lat="44.991348685542945" lon="8.35698029062286"><ele>183.0</ele><time>2026-04-11T10:36:41.001Z</time></trkpt><trkpt lat="44.99140404948265" lon="8.356884485268282"><ele>183.60000000000002</ele><time>2026-04-11T10:36:42.001Z</time></trkpt><trkpt lat="44.99146035811819" lon="8.356786905672482"><ele>184.20000000000002</ele><time>2026-04-11T10:36:43.001Z</time></trkpt><trkpt lat="44.99152979665973" lon="8.356681174840132"><ele>184.8</ele><time>2026-04-11T10:36:44.001Z</time></trkpt><trkpt lat="44.991583976295075" lon="8.356602900176323"><ele>185.4</ele><time>2026-04-11T10:36:45.001Z</time></trkpt><trkpt lat="44.99165131555829" lon="8.3564956309897"><ele>186.0</ele><time>2026-04-11T10:36:46.001Z</time></trkpt><trkpt lat="44.991722240862124" lon="8.356390442909374"><ele>187.0</ele><time>2026-04-11T10:36:47.001Z</time></trkpt><trkpt lat="44.991795728328604" lon="8.35627864437581"><ele>188.0</ele><time>2026-04-11T10:36:48.001Z</time></trkpt><trkpt lat="44.99187145225167" lon="8.356175089466273"><ele>189.0</ele><time>2026-04-11T10:36:49.001Z</time></trkpt><trkpt lat="44.99194691396624" lon="8.356075209090216"><ele>190.0</ele><time>2026-04-11T10:36:50.001Z</time></trkpt><trkpt lat="44.99202646544992" lon="8.35597499311882"><ele>191.0</ele><time>2026-04-11T10:36:51.001Z</time></trkpt><trkpt lat="44.99210346581676" lon="8.35586614184794"><ele>191.0</ele><time>2026-04-11T10:36:52.001Z</time></trkpt><trkpt lat="44.99217667215535" lon="8.355749113935465"><ele>191.0</ele><time>2026-04-11T10:36:53.001Z</time></trkpt><trkpt lat="44.992240919431374" lon="8.355629290561069"><ele>191.0</ele><time>2026-04-11T10:36:54.001Z</time></trkpt><trkpt lat="44.99230443062255" lon="8.355518271149945"><ele>191.0</ele><time>2026-04-11T10:36:55.001Z</time></trkpt><trkpt lat="44.99236604654622" lon="8.355419063417868"><ele>191.0</ele><time>2026-04-11T10:36:56.002Z</time></trkpt><trkpt lat="44.99243401571028" lon="8.355325914361366"><ele>193.0</ele><time>2026-04-11T10:36:57.002Z</time></trkpt><trkpt lat="44.99250746669741" lon="8.355228539523383"><ele>195.0</ele><time>2026-04-11T10:36:58.002Z</time></trkpt><trkpt lat="44.992574676124086" lon="8.35513539481353"><ele>197.0</ele><time>2026-04-11T10:36:59.002Z</time></trkpt><trkpt lat="44.99263364459052" lon="8.355051061946986"><ele>199.0</ele><time>2026-04-11T10:37:00.002Z</time></trkpt><trkpt lat="44.992700773464016" lon="8.354960592803463"><ele>201.0</ele><time>2026-04-11T10:37:01.002Z</time></trkpt><trkpt lat="44.992766313336816" lon="8.354877666335003"><ele>201.0</ele><time>2026-04-11T10:37:02.002Z</time></trkpt><trkpt lat="44.99282976054937" lon="8.354801594752487"><ele>201.0</ele><time>2026-04-11T10:37:03.002Z</time></trkpt><trkpt lat="44.99290185675715" lon="8.354714420586534"><ele>201.0</ele><time>2026-04-11T10:37:04.002Z</time></trkpt><trkpt lat="44.992963257334004" lon="8.35465117875189"><ele>201.0</ele><time>2026-04-11T10:37:05.002Z</time></trkpt><trkpt lat="44.99303236517641" lon="8.354580230708486"><ele>201.0</ele><time>2026-04-11T10:37:06.002Z</time></trkpt><trkpt lat="44.99310858119405" lon="8.354504316031981"><ele>201.0</ele><time>2026-04-11T10:37:07.002Z</time></trkpt><trkpt lat="44.99318469984502" lon="8.354426197221025"><ele>202.0</ele><time>2026-04-11T10:37:08.002Z</time></trkpt><trkpt lat="44.99325886175247" lon="8.354351857756278"><ele>203.0</ele><time>2026-04-11T10:37:09.002Z</time></trkpt><trkpt lat="44.99333249657049" lon="8.354275303110121"><ele>204.0</ele><time>2026-04-11T10:37:10.002Z</time></trkpt><trkpt lat="44.993397303886304" lon="8.354208802440258"><ele>205.0</ele><time>2026-04-11T10:37:11.002Z</time></trkpt><trkpt lat="44.993472230040865" lon="8.354122050155528"><ele>206.0</ele><time>2026-04-11T10:37:12.002Z</time></trkpt><trkpt lat="44.993541394216265" lon="8.354047464350533"><ele>207.0</ele><time>2026-04-11T10:37:13.002Z</time></trkpt><trkpt lat="44.99361679548389" lon="8.353969957231929"><ele>207.16666666666666</ele><time>2026-04-11T10:37:14.002Z</time></trkpt><trkpt lat="44.993699390477815" lon="8.353896968747591"><ele>207.33333333333331</ele><time>2026-04-11T10:37:15.002Z</time></trkpt><trkpt lat="44.99377544655989" lon="8.353851377841192"><ele>207.5</ele><time>2026-04-11T10:37:16.002Z</time></trkpt><trkpt lat="44.99384644235612" lon="8.353804447005638"><ele>207.66666666666666</ele><time>2026-04-11T10:37:17.002Z</time></trkpt><trkpt lat="44.99391116892661" lon="8.35376269463139"><ele>207.83333333333331</ele><time>2026-04-11T10:37:18.002Z</time></trkpt><trkpt lat="44.993983759764916" lon="8.353720617666855"><ele>208.0</ele><time>2026-04-11T10:37:19.002Z</time></trkpt><trkpt lat="44.994051658227065" lon="8.35368679796888"><ele>208.2</ele><time>2026-04-11T10:37:20.002Z</time></trkpt><trkpt lat="44.99412442250292" lon="8.353705077422227"><ele>208.4</ele><time>2026-04-11T10:37:21.002Z</time></trkpt><trkpt lat="44.99419482006324" lon="8.353670343594876"><ele>208.6</ele><time>2026-04-11T10:37:22.002Z</time></trkpt><trkpt lat="44.994291015410454" lon="8.353614949848557"><ele>208.79999999999998</ele><time>2026-04-11T10:37:23.002Z</time></trkpt><trkpt lat="44.99438535891937" lon="8.353554701539535"><ele>209.0</ele><time>2026-04-11T10:37:24.002Z</time></trkpt><trkpt lat="44.99448475582129" lon="8.353483992780758"><ele>209.79999999999998</ele><time>2026-04-11T10:37:25.002Z</time></trkpt><trkpt lat="44.994566511126074" lon="8.353409628552013"><ele>210.6</ele><time>2026-04-11T10:37:26.002Z</time></trkpt><trkpt lat="44.99465505934226" lon="8.353339550066107"><ele>211.4</ele><time>2026-04-11T10:37:27.002Z</time></trkpt><trkpt lat="44.99472905893165" lon="8.353270383611932"><ele>212.2</ele><time>2026-04-11T10:37:28.002Z</time></trkpt><trkpt lat="44.99479005779385" lon="8.353213368764564"><ele>213.0</ele><time>2026-04-11T10:37:29.002Z</time></trkpt><trkpt lat="44.994866871597885" lon="8.35314715681345"><ele>213.0</ele><time>2026-04-11T10:37:30.002Z</time></trkpt><trkpt lat="44.99493947941357" lon="8.353058024929442"><ele>213.0</ele><time>2026-04-11T10:37:31.003Z</time></trkpt><trkpt lat="44.99502995195358" lon="8.352990722503774"><ele>213.0</ele><time>2026-04-11T10:37:32.003Z</time></trkpt><trkpt lat="44.995131372262776" lon="8.352903424296564"><ele>213.0</ele><time>2026-04-11T10:37:33.003Z</time></trkpt><trkpt lat="44.9952331486488" lon="8.352814617465567"><ele>213.0</ele><time>2026-04-11T10:37:34.003Z</time></trkpt><trkpt lat="44.99533311324877" lon="8.35272950385959"><ele>214.5</ele><time>2026-04-11T10:37:35.003Z</time></trkpt><trkpt lat="44.99543375082958" lon="8.352636481654535"><ele>216.0</ele><time>2026-04-11T10:37:36.003Z</time></trkpt><trkpt lat="44.99553322377985" lon="8.352547832028343"><ele>217.5</ele><time>2026-04-11T10:37:37.003Z</time></trkpt><trkpt lat="44.995626686921476" lon="8.352462416991159"><ele>219.0</ele><time>2026-04-11T10:37:38.003Z</time></trkpt><trkpt lat="44.99571476740829" lon="8.352381017056114"><ele>219.0</ele><time>2026-04-11T10:37:39.003Z</time></trkpt><trkpt lat="44.995793923557876" lon="8.352306227407732"><ele>218.99999999999997</ele><time>2026-04-11T10:37:39.999Z</time></trkpt><trkpt lat="44.99588013183471" lon="8.352276633758"><ele>218.99999999999997</ele><time>2026-04-11T10:37:40.999Z</time></trkpt><trkpt lat="44.99597413491706" lon="8.352234565563439"><ele>219.0</ele><time>2026-04-11T10:37:41.999Z</time></trkpt><trkpt lat="44.99607278848355" lon="8.352201267835468"><ele>219.0</ele><time>2026-04-11T10:37:42.999Z</time></trkpt><trkpt lat="44.99617894424066" lon="8.352141286688102"><ele>219.0</ele><time>2026-04-11T10:37:43.999Z</time></trkpt><trkpt lat="44.99630048717619" lon="8.352103702652268"><ele>219.0</ele><time>2026-04-11T10:37:45Z</time></trkpt><trkpt lat="44.99642320236207" lon="8.352057207789676"><ele>219.0</ele><time>2026-04-11T10:37:46Z</time></trkpt><trkpt lat="44.99654524295944" lon="8.35201383718341"><ele>219.0</ele><time>2026-04-11T10:37:47Z</time></trkpt><trkpt lat="44.996662221906696" lon="8.3519972634185"><ele>218.79999999999998</ele><time>2026-04-11T10:37:48Z</time></trkpt><trkpt lat="44.996768003870145" lon="8.351946308780725"><ele>218.59999999999997</ele><time>2026-04-11T10:37:49Z</time></trkpt><trkpt lat="44.99687816084735" lon="8.351941462863914"><ele>218.4</ele><time>2026-04-11T10:37:50Z</time></trkpt><trkpt lat="44.9969847364352" lon="8.35189412979974"><ele>218.2</ele><time>2026-04-11T10:37:51Z</time></trkpt><trkpt lat="44.9970983636358" lon="8.351873349533717"><ele>218.0</ele><time>2026-04-11T10:37:52Z</time></trkpt><trkpt lat="44.99719646840134" lon="8.351853132690115"><ele>218.0</ele><time>2026-04-11T10:37:53Z</time></trkpt><trkpt lat="44.99729459313114" lon="8.351832807073457"><ele>218.0</ele><time>2026-04-11T10:37:54Z</time></trkpt><trkpt lat="44.99740133964882" lon="8.351810842795894"><ele>218.0</ele><time>2026-04-11T10:37:55Z</time></trkpt><trkpt lat="44.99751152588977" lon="8.35178114144217"><ele>218.0</ele><time>2026-04-11T10:37:56Z</time></trkpt><trkpt lat="44.997622055519486" lon="8.351767016379654"><ele>218.0</ele><time>2026-04-11T10:37:57Z</time></trkpt><trkpt lat="44.99773030285225" lon="8.351734916113072"><ele>218.8</ele><time>2026-04-11T10:37:58Z</time></trkpt><trkpt lat="44.99784108826566" lon="8.351699246895928"><ele>219.60000000000002</ele><time>2026-04-11T10:37:59Z</time></trkpt><trkpt lat="44.99794184749118" lon="8.351661826188192"><ele>220.39999999999998</ele><time>2026-04-11T10:38:00Z</time></trkpt><trkpt lat="44.998028303387784" lon="8.351619532232196"><ele>221.2</ele><time>2026-04-11T10:38:01Z</time></trkpt><trkpt lat="44.99810846233155" lon="8.351576614717754"><ele>222.0</ele><time>2026-04-11T10:38:02Z</time></trkpt><trkpt lat="44.998184002238084" lon="8.351535147508182"><ele>222.0</ele><time>2026-04-11T10:38:03Z</time></trkpt><trkpt lat="44.9982563866632" lon="8.351492671929043"><ele>222.0</ele><time>2026-04-11T10:38:04Z</time></trkpt><trkpt lat="44.998334483583065" lon="8.351443936142251"><ele>222.0</ele><time>2026-04-11T10:38:05Z</time></trkpt><trkpt lat="44.99840259436556" lon="8.35139452241559"><ele>222.0</ele><time>2026-04-11T10:38:06Z</time></trkpt><trkpt lat="44.99847426626654" lon="8.351338149207256"><ele>222.0</ele><time>2026-04-11T10:38:07Z</time></trkpt><trkpt lat="44.99854463469675" lon="8.351273678935705"><ele>222.0</ele><time>2026-04-11T10:38:08Z</time></trkpt><trkpt lat="44.99861282007169" lon="8.351200982616954"><ele>222.6</ele><time>2026-04-11T10:38:09Z</time></trkpt><trkpt lat="44.9986921967932" lon="8.35115138120193"><ele>223.2</ele><time>2026-04-11T10:38:10Z</time></trkpt><trkpt lat="44.998771036396874" lon="8.351080637766795"><ele>223.8</ele><time>2026-04-11T10:38:11Z</time></trkpt><trkpt lat="44.998852752776266" lon="8.351015005148781"><ele>224.4</ele><time>2026-04-11T10:38:12Z</time></trkpt><trkpt lat="44.99893718013613" lon="8.350951169242723"><ele>225.0</ele><time>2026-04-11T10:38:13Z</time></trkpt><trkpt lat="44.99902290056429" lon="8.350890892458454"><ele>225.0</ele><time>2026-04-11T10:38:14Z</time></trkpt><trkpt lat="44.999110546985506" lon="8.350806778663127"><ele>225.0</ele><time>2026-04-11T10:38:15Z</time></trkpt><trkpt lat="44.99920618738985" lon="8.350745889873242"><ele>225.0</ele><time>2026-04-11T10:38:16Z</time></trkpt><trkpt lat="44.99930766483864" lon="8.350711487994976"><ele>225.0</ele><time>2026-04-11T10:38:17.001Z</time></trkpt><trkpt lat="44.999406238157704" lon="8.350662173302634"><ele>225.0</ele><time>2026-04-11T10:38:18.001Z</time></trkpt><trkpt lat="44.999500261963796" lon="8.350599316725845"><ele>225.0</ele><time>2026-04-11T10:38:19.001Z</time></trkpt><trkpt lat="44.99959879073747" lon="8.350551721571838"><ele>225.0</ele><time>2026-04-11T10:38:20.001Z</time></trkpt><trkpt lat="44.999683914491015" lon="8.350505162808533"><ele>225.0</ele><time>2026-04-11T10:38:21.001Z</time></trkpt><trkpt lat="44.999767212579684" lon="8.35043749171102"><ele>225.0</ele><time>2026-04-11T10:38:22.001Z</time></trkpt><trkpt lat="44.99986296021877" lon="8.350401659536148"><ele>225.0</ele><time>2026-04-11T10:38:23.001Z</time></trkpt><trkpt lat="44.999957206305936" lon="8.3503635205022"><ele>225.8</ele><time>2026-04-11T10:38:24.001Z</time></trkpt><trkpt lat="45.00005788852149" lon="8.350334711822155"><ele>226.6</ele><time>2026-04-11T10:38:25.001Z</time></trkpt><trkpt lat="45.00016338310973" lon="8.350313086200833"><ele>227.39999999999998</ele><time>2026-04-11T10:38:26.001Z</time></trkpt><trkpt lat="45.00026659203359" lon="8.35027373491219"><ele>228.2</ele><time>2026-04-11T10:38:27.001Z</time></trkpt><trkpt lat="45.00036617273371" lon="8.350261591281528"><ele>229.0</ele><time>2026-04-11T10:38:28.001Z</time></trkpt><trkpt lat="45.00046270995879" lon="8.35025238617363"><ele>228.99999999999997</ele><time>2026-04-11T10:38:29.001Z</time></trkpt><trkpt lat="45.00054562899902" lon="8.350243783873038"><ele>229.0</ele><time>2026-04-11T10:38:30.001Z</time></trkpt><trkpt lat="45.00062826284958" lon="8.350227624367868"><ele>229.0</ele><time>2026-04-11T10:38:31.001Z</time></trkpt><trkpt lat="45.000700207609306" lon="8.350188373026933"><ele>229.0</ele><time>2026-04-11T10:38:32.001Z</time></trkpt><trkpt lat="45.00077481269865" lon="8.350137155439072"><ele>228.99999999999997</ele><time>2026-04-11T10:38:33.001Z</time></trkpt><trkpt lat="45.000856099366494" lon="8.35008054975913"><ele>229.0</ele><time>2026-04-11T10:38:34.001Z</time></trkpt><trkpt lat="45.00094905346914" lon="8.350037638353806"><ele>229.6</ele><time>2026-04-11T10:38:35.001Z</time></trkpt><trkpt lat="45.00103607707764" lon="8.349970030215811"><ele>230.2</ele><time>2026-04-11T10:38:36.001Z</time></trkpt><trkpt lat="45.00111521200785" lon="8.349905764271716"><ele>230.79999999999998</ele><time>2026-04-11T10:38:37.001Z</time></trkpt><trkpt lat="45.001193976199204" lon="8.349824954244044"><ele>231.39999999999998</ele><time>2026-04-11T10:38:38.001Z</time></trkpt><trkpt lat="45.00126890793364" lon="8.349728992684325"><ele>232.0</ele><time>2026-04-11T10:38:39.001Z</time></trkpt><trkpt lat="45.001340363678345" lon="8.349635638127141"><ele>232.16666666666666</ele><time>2026-04-11T10:38:40.001Z</time></trkpt><trkpt lat="45.00141519565028" lon="8.34957073158004"><ele>232.33333333333331</ele><time>2026-04-11T10:38:41.001Z</time></trkpt><trkpt lat="45.00148539024321" lon="8.349488720647022"><ele>232.5</ele><time>2026-04-11T10:38:42.001Z</time></trkpt><trkpt lat="45.00153796475369" lon="8.349427564756636"><ele>232.66666666666669</ele><time>2026-04-11T10:38:43.001Z</time></trkpt><trkpt lat="45.00160333716765" lon="8.349352933822802"><ele>232.83333333333334</ele><time>2026-04-11T10:38:44.001Z</time></trkpt><trkpt lat="45.001666958372056" lon="8.349282515300468"><ele>233.0</ele><time>2026-04-11T10:38:45.001Z</time></trkpt><trkpt lat="45.00172997649266" lon="8.349216863576075"><ele>233.50000000000003</ele><time>2026-04-11T10:38:46.001Z</time></trkpt><trkpt lat="45.00178056427767" lon="8.349137755579768"><ele>234.0</ele><time>2026-04-11T10:38:47.001Z</time></trkpt><trkpt lat="45.001841735216146" lon="8.349079230696036"><ele>234.5</ele><time>2026-04-11T10:38:48.001Z</time></trkpt><trkpt lat="45.001921358249746" lon="8.349025597566971"><ele>235.0</ele><time>2026-04-11T10:38:49.002Z</time></trkpt><trkpt lat="45.001988659094145" lon="8.348961230345854"><ele>235.50000000000003</ele><time>2026-04-11T10:38:50.002Z</time></trkpt><trkpt lat="45.002043511357954" lon="8.348889484121063"><ele>236.0</ele><time>2026-04-11T10:38:51.002Z</time></trkpt><trkpt lat="45.00212005915521" lon="8.34884343953342"><ele>236.00000000000003</ele><time>2026-04-11T10:38:52.002Z</time></trkpt><trkpt lat="45.00219730212416" lon="8.348780778393147"><ele>236.0</ele><time>2026-04-11T10:38:53.002Z</time></trkpt><trkpt lat="45.002272607668935" lon="8.34870896532786"><ele>236.0</ele><time>2026-04-11T10:38:54.002Z</time></trkpt><trkpt lat="45.00235448778495" lon="8.348680917246545"><ele>236.0</ele><time>2026-04-11T10:38:55.002Z</time></trkpt><trkpt lat="45.00243581757909" lon="8.34864165347524"><ele>236.00000000000003</ele><time>2026-04-11T10:38:56.002Z</time></trkpt><trkpt lat="45.00251405784335" lon="8.348584109830444"><ele>236.0</ele><time>2026-04-11T10:38:57.002Z</time></trkpt><trkpt lat="45.00260369302438" lon="8.348548975036017"><ele>237.50000000000003</ele><time>2026-04-11T10:38:58.002Z</time></trkpt><trkpt lat="45.00269287591264" lon="8.348516661035834"><ele>239.0</ele><time>2026-04-11T10:38:59.002Z</time></trkpt><trkpt lat="45.002774397464414" lon="8.348497747835559"><ele>240.5</ele><time>2026-04-11T10:39:00.002Z</time></trkpt><trkpt lat="45.002868071527416" lon="8.34849827143494"><ele>242.0</ele><time>2026-04-11T10:39:01.002Z</time></trkpt><trkpt lat="45.00294449595075" lon="8.348464363722147"><ele>243.50000000000003</ele><time>2026-04-11T10:39:02.002Z</time></trkpt><trkpt lat="45.0030257317037" lon="8.348450438408497"><ele>245.0</ele><time>2026-04-11T10:39:03.002Z</time></trkpt><trkpt lat="45.0031167943412" lon="8.348426552069856"><ele>245.00000000000003</ele><time>2026-04-11T10:39:04.002Z</time></trkpt><trkpt lat="45.00320120145839" lon="8.348391100949556"><ele>245.0</ele><time>2026-04-11T10:39:05.002Z</time></trkpt><trkpt lat="45.00327060227123" lon="8.348366054847197"><ele>245.0</ele><time>2026-04-11T10:39:06.002Z</time></trkpt><trkpt lat="45.00334527453873" lon="8.348328283229378"><ele>245.0</ele><time>2026-04-11T10:39:07.002Z</time></trkpt><trkpt lat="45.00341063012759" lon="8.348293129666319"><ele>245.00000000000003</ele><time>2026-04-11T10:39:08.002Z</time></trkpt><trkpt lat="45.003475905729594" lon="8.348256897232147"><ele>245.0</ele><time>2026-04-11T10:39:09.002Z</time></trkpt><trkpt lat="45.00355507997719" lon="8.348235117504805"><ele>244.66666666666669</ele><time>2026-04-11T10:39:10.002Z</time></trkpt><trkpt lat="45.00361865027644" lon="8.348200361259675"><ele>244.33333333333334</ele><time>2026-04-11T10:39:11.002Z</time></trkpt><trkpt lat="45.00368431665962" lon="8.348163509791396"><ele>244.0</ele><time>2026-04-11T10:39:12.002Z</time></trkpt><trkpt lat="45.00375607732041" lon="8.34812451302884"><ele>243.66666666666669</ele><time>2026-04-11T10:39:13.002Z</time></trkpt><trkpt lat="45.00384084552255" lon="8.348083958206924"><ele>243.33333333333334</ele><time>2026-04-11T10:39:14.002Z</time></trkpt><trkpt lat="45.00391132893112" lon="8.348052612330422"><ele>243.0</ele><time>2026-04-11T10:39:15.002Z</time></trkpt><trkpt lat="45.003996988342124" lon="8.347994544010701"><ele>243.0</ele><time>2026-04-11T10:39:16.002Z</time></trkpt><trkpt lat="45.0040947071069" lon="8.347965101146718"><ele>243.0</ele><time>2026-04-11T10:39:17.002Z</time></trkpt><trkpt lat="45.00416298403872" lon="8.347939315634568"><ele>243.0</ele><time>2026-04-11T10:39:18.002Z</time></trkpt><trkpt lat="45.00423848135353" lon="8.347921683212823"><ele>243.0</ele><time>2026-04-11T10:39:19.002Z</time></trkpt><trkpt lat="45.00430449257404" lon="8.34790859920553"><ele>243.0</ele><time>2026-04-11T10:39:20.002Z</time></trkpt><trkpt lat="45.00438833061551" lon="8.347904955750236"><ele>243.0</ele><time>2026-04-11T10:39:21.002Z</time></trkpt><trkpt lat="45.00446610969615" lon="8.347860981325486"><ele>242.83333333333334</ele><time>2026-04-11T10:39:22.003Z</time></trkpt><trkpt lat="45.00454323466659" lon="8.347833899377308"><ele>242.66666666666669</ele><time>2026-04-11T10:39:23.003Z</time></trkpt><trkpt lat="45.00460558783271" lon="8.347800716854774"><ele>242.5</ele><time>2026-04-11T10:39:24.003Z</time></trkpt><trkpt lat="45.004678693180104" lon="8.347761490542407"><ele>242.33333333333334</ele><time>2026-04-11T10:39:25.003Z</time></trkpt><trkpt lat="45.00476497782516" lon="8.347733654535658"><ele>242.16666666666669</ele><time>2026-04-11T10:39:26.003Z</time></trkpt><trkpt lat="45.00483459999407" lon="8.347674020667531"><ele>242.0</ele><time>2026-04-11T10:39:27.003Z</time></trkpt><trkpt lat="45.004906442799125" lon="8.347640574449857"><ele>242.0</ele><time>2026-04-11T10:39:28.003Z</time></trkpt><trkpt lat="45.00497724087407" lon="8.347622598049034"><ele>241.99999999999997</ele><time>2026-04-11T10:39:29.003Z</time></trkpt><trkpt lat="45.00504420220453" lon="8.34755984072958"><ele>242.0</ele><time>2026-04-11T10:39:30.003Z</time></trkpt><trkpt lat="45.00511804796179" lon="8.347517352590776"><ele>242.0</ele><time>2026-04-11T10:39:31.003Z</time></trkpt><trkpt lat="45.00518799750165" lon="8.347474997779624"><ele>241.99999999999997</ele><time>2026-04-11T10:39:32.003Z</time></trkpt><trkpt lat="45.00525104778911" lon="8.347439647252587"><ele>242.0</ele><time>2026-04-11T10:39:33.003Z</time></trkpt><trkpt lat="45.00531436545661" lon="8.347400494532122"><ele>242.0</ele><time>2026-04-11T10:39:34.003Z</time></trkpt><trkpt lat="45.00538496551351" lon="8.347391964144714"><ele>241.83333333333334</ele><time>2026-04-11T10:39:35.003Z</time></trkpt><trkpt lat="45.0054479654887" lon="8.347399305898819"><ele>241.66666666666669</ele><time>2026-04-11T10:39:36.003Z</time></trkpt><trkpt lat="45.00551481105923" lon="8.347400963712241"><ele>241.5</ele><time>2026-04-11T10:39:37.003Z</time></trkpt><trkpt lat="45.00559500641117" lon="8.3474009637134"><ele>241.33333333333331</ele><time>2026-04-11T10:39:38.003Z</time></trkpt><trkpt lat="45.00568132961746" lon="8.347376569299264"><ele>241.16666666666666</ele><time>2026-04-11T10:39:39.003Z</time></trkpt><trkpt lat="45.00576002470529" lon="8.347376344649835"><ele>241.0</ele><time>2026-04-11T10:39:40.003Z</time></trkpt><trkpt lat="45.005845517293196" lon="8.347380267811127"><ele>240.0</ele><time>2026-04-11T10:39:41.003Z</time></trkpt><trkpt lat="45.00593971001805" lon="8.34737658517244"><ele>239.00000000000003</ele><time>2026-04-11T10:39:42.003Z</time></trkpt><trkpt lat="45.00604395158702" lon="8.347368547239935"><ele>238.00000000000003</ele><time>2026-04-11T10:39:43.003Z</time></trkpt><trkpt lat="45.006147719316886" lon="8.347372261455021"><ele>237.0</ele><time>2026-04-11T10:39:44.003Z</time></trkpt><trkpt lat="45.00623982592866" lon="8.347379898073466"><ele>236.0</ele><time>2026-04-11T10:39:45.003Z</time></trkpt><trkpt lat="45.00633615016925" lon="8.347389807189836"><ele>236.0</ele><time>2026-04-11T10:39:46Z</time></trkpt><trkpt lat="45.006430293538344" lon="8.347402692354285"><ele>236.00000000000003</ele><time>2026-04-11T10:39:47Z</time></trkpt><trkpt lat="45.006519472205525" lon="8.347412885516482"><ele>236.00000000000003</ele><time>2026-04-11T10:39:48Z</time></trkpt><trkpt lat="45.006620162216244" lon="8.347434915989641"><ele>236.0</ele><time>2026-04-11T10:39:49Z</time></trkpt><trkpt lat="45.00671286199107" lon="8.347459758194915"><ele>236.0</ele><time>2026-04-11T10:39:50Z</time></trkpt><trkpt lat="45.00680537794278" lon="8.3474919277305"><ele>236.0</ele><time>2026-04-11T10:39:51Z</time></trkpt><trkpt lat="45.00689901267627" lon="8.3475155751705"><ele>236.00000000000003</ele><time>2026-04-11T10:39:52Z</time></trkpt><trkpt lat="45.00698812643012" lon="8.347539474573885"><ele>236.00000000000003</ele><time>2026-04-11T10:39:53Z</time></trkpt><trkpt lat="45.00708320969811" lon="8.34753869561608"><ele>236.0</ele><time>2026-04-11T10:39:54Z</time></trkpt><trkpt lat="45.00717161814003" lon="8.34753064588272"><ele>236.0</ele><time>2026-04-11T10:39:55Z</time></trkpt><trkpt lat="45.00727039233563" lon="8.347510350120325"><ele>236.0</ele><time>2026-04-11T10:39:56Z</time></trkpt><trkpt lat="45.00738020251949" lon="8.347496283922796"><ele>236.00000000000003</ele><time>2026-04-11T10:39:57Z</time></trkpt><trkpt lat="45.00748391806096" lon="8.347456963441656"><ele>236.00000000000003</ele><time>2026-04-11T10:39:58Z</time></trkpt><trkpt lat="45.007576974527126" lon="8.347409577124777"><ele>236.0</ele><time>2026-04-11T10:39:59Z</time></trkpt><trkpt lat="45.00767370054044" lon="8.347345274472001"><ele>236.0</ele><time>2026-04-11T10:40:00Z</time></trkpt><trkpt lat="45.00776362911593" lon="8.347277875721126"><ele>236.0</ele><time>2026-04-11T10:40:01Z</time></trkpt><trkpt lat="45.00785089065426" lon="8.347222436408694"><ele>236.00000000000003</ele><time>2026-04-11T10:40:02Z</time></trkpt><trkpt lat="45.0079358246368" lon="8.34715752005071"><ele>236.00000000000003</ele><time>2026-04-11T10:40:03Z</time></trkpt><trkpt lat="45.00803261671228" lon="8.347117737943899"><ele>236.0</ele><time>2026-04-11T10:40:04Z</time></trkpt><trkpt lat="45.008123133097364" lon="8.34707200119568"><ele>236.0</ele><time>2026-04-11T10:40:05Z</time></trkpt><trkpt lat="45.00821935469679" lon="8.347012217572969"><ele>235.60000000000002</ele><time>2026-04-11T10:40:06Z</time></trkpt><trkpt lat="45.008318515564234" lon="8.346973027703307"><ele>235.20000000000002</ele><time>2026-04-11T10:40:07Z</time></trkpt><trkpt lat="45.00841483590525" lon="8.346940275159824"><ele>234.79999999999998</ele><time>2026-04-11T10:40:08Z</time></trkpt><trkpt lat="45.00852399511709" lon="8.346928662599401"><ele>234.39999999999998</ele><time>2026-04-11T10:40:09Z</time></trkpt><trkpt lat="45.008621526868744" lon="8.346876027875656"><ele>234.0</ele><time>2026-04-11T10:40:10Z</time></trkpt><trkpt lat="45.00871708394352" lon="8.34683908711244"><ele>234.0</ele><time>2026-04-11T10:40:11Z</time></trkpt><trkpt lat="45.00880525772117" lon="8.346807650165594"><ele>234.0</ele><time>2026-04-11T10:40:12Z</time></trkpt><trkpt lat="45.00887114566886" lon="8.346746586990417"><ele>234.0</ele><time>2026-04-11T10:40:13Z</time></trkpt><trkpt lat="45.008930945205186" lon="8.346696950656767"><ele>234.0</ele><time>2026-04-11T10:40:14.001Z</time></trkpt><trkpt lat="45.008991973258915" lon="8.346619116638745"><ele>234.0</ele><time>2026-04-11T10:40:15.001Z</time></trkpt><trkpt lat="45.00906716071943" lon="8.346519106096027"><ele>234.0</ele><time>2026-04-11T10:40:16.001Z</time></trkpt><trkpt lat="45.00917093268129" lon="8.346424019008673"><ele>233.0</ele><time>2026-04-11T10:40:17.001Z</time></trkpt><trkpt lat="45.009266723141806" lon="8.346308699490558"><ele>232.0</ele><time>2026-04-11T10:40:18.001Z</time></trkpt><trkpt lat="45.009350291342095" lon="8.346178537307402"><ele>231.0</ele><time>2026-04-11T10:40:19.001Z</time></trkpt><trkpt lat="45.009452935443655" lon="8.346086681479129"><ele>230.0</ele><time>2026-04-11T10:40:20.001Z</time></trkpt><trkpt lat="45.00954060860655" lon="8.345986586178544"><ele>230.0</ele><time>2026-04-11T10:40:21.001Z</time></trkpt><trkpt lat="45.009625041953804" lon="8.345865931702361"><ele>230.0</ele><time>2026-04-11T10:40:22.001Z</time></trkpt><trkpt lat="45.00973124225814" lon="8.345776113306085"><ele>230.0</ele><time>2026-04-11T10:40:23.001Z</time></trkpt><trkpt lat="45.00982811606173" lon="8.345670024490591"><ele>230.0</ele><time>2026-04-11T10:40:24.001Z</time></trkpt><trkpt lat="45.0099121450938" lon="8.3455494944024"><ele>231.25</ele><time>2026-04-11T10:40:25.001Z</time></trkpt><trkpt lat="45.00999994441689" lon="8.345443767552423"><ele>232.5</ele><time>2026-04-11T10:40:26.001Z</time></trkpt><trkpt lat="45.010096624248106" lon="8.34536288799696"><ele>233.75</ele><time>2026-04-11T10:40:27.001Z</time></trkpt><trkpt lat="45.01018782652843" lon="8.345258408964334"><ele>235.0</ele><time>2026-04-11T10:40:28.001Z</time></trkpt><trkpt lat="45.010277066661416" lon="8.345159577725905"><ele>235.0</ele><time>2026-04-11T10:40:29.001Z</time></trkpt><trkpt lat="45.01036842493139" lon="8.34507153016101"><ele>235.0</ele><time>2026-04-11T10:40:30.001Z</time></trkpt><trkpt lat="45.010462229559764" lon="8.3449896703257"><ele>235.0</ele><time>2026-04-11T10:40:31.001Z</time></trkpt><trkpt lat="45.010546932225594" lon="8.344890885787809"><ele>235.0</ele><time>2026-04-11T10:40:32.001Z</time></trkpt><trkpt lat="45.010645175721294" lon="8.34480557413715"><ele>235.0</ele><time>2026-04-11T10:40:33.001Z</time></trkpt><trkpt lat="45.01073962604782" lon="8.344721749904714"><ele>237.0</ele><time>2026-04-11T10:40:34.001Z</time></trkpt><trkpt lat="45.010836270209055" lon="8.344630640182608"><ele>239.0</ele><time>2026-04-11T10:40:35.001Z</time></trkpt><trkpt lat="45.01094471043459" lon="8.344530666863593"><ele>241.0</ele><time>2026-04-11T10:40:36.001Z</time></trkpt><trkpt lat="45.01106170094825" lon="8.344425825298554"><ele>243.0</ele><time>2026-04-11T10:40:37.001Z</time></trkpt><trkpt lat="45.01117633521166" lon="8.34432351181274"><ele>243.0</ele><time>2026-04-11T10:40:38.001Z</time></trkpt><trkpt lat="45.011295099467404" lon="8.34424475373919"><ele>243.0</ele><time>2026-04-11T10:40:39.001Z</time></trkpt><trkpt lat="45.01141070540122" lon="8.344142224990389"><ele>243.0</ele><time>2026-04-11T10:40:40.001Z</time></trkpt><trkpt lat="45.01151782807143" lon="8.344028793679742"><ele>243.0</ele><time>2026-04-11T10:40:41.001Z</time></trkpt><trkpt lat="45.01164336161325" lon="8.343935791902764"><ele>244.0</ele><time>2026-04-11T10:40:42.001Z</time></trkpt><trkpt lat="45.011748615372326" lon="8.343818475066024"><ele>245.0</ele><time>2026-04-11T10:40:43.001Z</time></trkpt><trkpt lat="45.01186096779983" lon="8.343715179063748"><ele>246.0</ele><time>2026-04-11T10:40:44.001Z</time></trkpt><trkpt lat="45.01197088628782" lon="8.343618494019495"><ele>247.0</ele><time>2026-04-11T10:40:45.001Z</time></trkpt><trkpt lat="45.012079279290646" lon="8.34352324878553"><ele>247.0</ele><time>2026-04-11T10:40:46.001Z</time></trkpt><trkpt lat="45.01219138710732" lon="8.343422622716627"><ele>247.0</ele><time>2026-04-11T10:40:47.001Z</time></trkpt><trkpt lat="45.0122956569986" lon="8.343329933514383"><ele>247.0</ele><time>2026-04-11T10:40:48.002Z</time></trkpt><trkpt lat="45.012394549817564" lon="8.343240960972164"><ele>247.0</ele><time>2026-04-11T10:40:49.002Z</time></trkpt><trkpt lat="45.01249617794074" lon="8.343171282049706"><ele>246.6</ele><time>2026-04-11T10:40:50.002Z</time></trkpt><trkpt lat="45.01257334938012" lon="8.343074047303768"><ele>246.2</ele><time>2026-04-11T10:40:51.002Z</time></trkpt><trkpt lat="45.01265357294081" lon="8.342995172555327"><ele>245.8</ele><time>2026-04-11T10:40:52.002Z</time></trkpt><trkpt lat="45.012725096579196" lon="8.342920192452809"><ele>245.4</ele><time>2026-04-11T10:40:53.002Z</time></trkpt><trkpt lat="45.01280037629519" lon="8.342838785610596"><ele>245.0</ele><time>2026-04-11T10:40:54.002Z</time></trkpt><trkpt lat="45.012876025661164" lon="8.342748387358991"><ele>246.0</ele><time>2026-04-11T10:40:55.002Z</time></trkpt><trkpt lat="45.01295953033386" lon="8.342647686089009"><ele>247.0</ele><time>2026-04-11T10:40:56.002Z</time></trkpt><trkpt lat="45.01304489624505" lon="8.342536875999079"><ele>248.0</ele><time>2026-04-11T10:40:57.002Z</time></trkpt><trkpt lat="45.01313531774697" lon="8.3424489441749"><ele>249.0</ele><time>2026-04-11T10:40:58.002Z</time></trkpt><trkpt lat="45.01320366006958" lon="8.342364493135294"><ele>250.0</ele><time>2026-04-11T10:40:59.002Z</time></trkpt><trkpt lat="45.01326383163049" lon="8.342290138807336"><ele>249.8</ele><time>2026-04-11T10:41:00.002Z</time></trkpt><trkpt lat="45.01330702755987" lon="8.342204926239301"><ele>249.6</ele><time>2026-04-11T10:41:01.002Z</time></trkpt><trkpt lat="45.01335735029104" lon="8.34213792728735"><ele>249.39999999999998</ele><time>2026-04-11T10:41:02.002Z</time></trkpt><trkpt lat="45.0134776870201" lon="8.342107295498431"><ele>249.2</ele><time>2026-04-11T10:41:04.002Z</time></trkpt><trkpt lat="45.01357205260166" lon="8.342063114461123"><ele>249.0</ele><time>2026-04-11T10:41:05.002Z</time></trkpt><trkpt lat="45.01369020338656" lon="8.342027467353981"><ele>249.0</ele><time>2026-04-11T10:41:06.002Z</time></trkpt><trkpt lat="45.01382527337416" lon="8.342007220612112"><ele>249.0</ele><time>2026-04-11T10:41:07.002Z</time></trkpt><trkpt lat="45.013952575751986" lon="8.341969402348647"><ele>249.0</ele><time>2026-04-11T10:41:08.002Z</time></trkpt><trkpt lat="45.0140788950142" lon="8.341928716032541"><ele>249.0</ele><time>2026-04-11T10:41:09.002Z</time></trkpt><trkpt lat="45.01421118802207" lon="8.34188588694341"><ele>247.5</ele><time>2026-04-11T10:41:10.002Z</time></trkpt><trkpt lat="45.01434940635266" lon="8.34184076695726"><ele>246.0</ele><time>2026-04-11T10:41:11.002Z</time></trkpt><trkpt lat="45.0144882501955" lon="8.341768247699552"><ele>244.5</ele><time>2026-04-11T10:41:12.002Z</time></trkpt><trkpt lat="45.01462957525015" lon="8.341726465817764"><ele>243.0</ele><time>2026-04-11T10:41:13.002Z</time></trkpt><trkpt lat="45.01476652005461" lon="8.341680362399927"><ele>243.0</ele><time>2026-04-11T10:41:14.002Z</time></trkpt><trkpt lat="45.01489615873365" lon="8.341616057461902"><ele>243.0</ele><time>2026-04-11T10:41:15.002Z</time></trkpt><trkpt lat="45.01503442254051" lon="8.341561378193706"><ele>243.0</ele><time>2026-04-11T10:41:16.002Z</time></trkpt><trkpt lat="45.01518242472896" lon="8.341509070155041"><ele>243.0</ele><time>2026-04-11T10:41:17.002Z</time></trkpt><trkpt lat="45.01532507444968" lon="8.341460118143187"><ele>243.0</ele><time>2026-04-11T10:41:18.002Z</time></trkpt><trkpt lat="45.015472563686004" lon="8.34141302150131"><ele>243.0</ele><time>2026-04-11T10:41:19.002Z</time></trkpt><trkpt lat="45.015624520175926" lon="8.341380827249663"><ele>243.0</ele><time>2026-04-11T10:41:20.002Z</time></trkpt><trkpt lat="45.01577913432345" lon="8.341350056124616"><ele>241.75</ele><time>2026-04-11T10:41:21.002Z</time></trkpt><trkpt lat="45.01592935659319" lon="8.341316453415125"><ele>240.5</ele><time>2026-04-11T10:41:22.003Z</time></trkpt><trkpt lat="45.01607655699793" lon="8.341292948761524"><ele>239.25</ele><time>2026-04-11T10:41:23.003Z</time></trkpt><trkpt lat="45.016224191716404" lon="8.341267743083211"><ele>238.0</ele><time>2026-04-11T10:41:24.003Z</time></trkpt><trkpt lat="45.01636708671838" lon="8.341246055283946"><ele>238.0</ele><time>2026-04-11T10:41:25.003Z</time></trkpt><trkpt lat="45.01649895841062" lon="8.341218293265603"><ele>238.0</ele><time>2026-04-11T10:41:26.003Z</time></trkpt><trkpt lat="45.01662398032953" lon="8.341179049239505"><ele>238.0</ele><time>2026-04-11T10:41:27.003Z</time></trkpt><trkpt lat="45.016742741295936" lon="8.341126456495775"><ele>238.0</ele><time>2026-04-11T10:41:28.003Z</time></trkpt><trkpt lat="45.0168369788127" lon="8.341073459186815"><ele>238.71428571428572</ele><time>2026-04-11T10:41:29.003Z</time></trkpt><trkpt lat="45.016898520742906" lon="8.341035306619643"><ele>239.42857142857144</ele><time>2026-04-11T10:41:30.003Z</time></trkpt><trkpt lat="45.01695672687668" lon="8.341000690927178"><ele>240.14285714285714</ele><time>2026-04-11T10:41:32.003Z</time></trkpt><trkpt lat="45.01705139845315" lon="8.34092930325028"><ele>240.85714285714286</ele><time>2026-04-11T10:42:02Z</time></trkpt><trkpt lat="45.01711366797807" lon="8.340885514123693"><ele>241.57142857142858</ele><time>2026-04-11T10:42:03Z</time></trkpt><trkpt lat="45.01717213338916" lon="8.340844883310778"><ele>242.28571428571428</ele><time>2026-04-11T10:42:04Z</time></trkpt><trkpt lat="45.01723292486283" lon="8.340800480122418"><ele>243.0</ele><time>2026-04-11T10:42:05Z</time></trkpt><trkpt lat="45.01733829543141" lon="8.340753263105638"><ele>243.0</ele><time>2026-04-11T10:42:07Z</time></trkpt><trkpt lat="45.01743451688835" lon="8.340698749575203"><ele>243.0</ele><time>2026-04-11T10:42:09Z</time></trkpt><trkpt lat="45.017504357596714" lon="8.340646722078285"><ele>243.0</ele><time>2026-04-11T10:42:11Z</time></trkpt><trkpt lat="45.01755815422177" lon="8.340755933791435"><ele>243.0</ele><time>2026-04-11T10:42:15Z</time></trkpt><trkpt lat="45.01756443901962" lon="8.34084854790324"><ele>243.0</ele><time>2026-04-11T10:42:18.001Z</time></trkpt><trkpt lat="45.017593666755594" lon="8.340933144086373"><ele>243.0</ele><time>2026-04-11T10:42:20.001Z</time></trkpt><trkpt lat="45.01764862074699" lon="8.340990783748225"><ele>243.0</ele><time>2026-04-11T10:42:21.001Z</time></trkpt><trkpt lat="45.01768751035595" lon="8.341079316158627"><ele>243.0</ele><time>2026-04-11T10:42:22.001Z</time></trkpt><trkpt lat="45.01772297105382" lon="8.341160043004328"><ele>243.0</ele><time>2026-04-11T10:42:23.001Z</time></trkpt><trkpt lat="45.01775879615297" lon="8.341241599161386"><ele>243.0</ele><time>2026-04-11T10:42:24.001Z</time></trkpt><trkpt lat="45.017816563560444" lon="8.341373107169504"><ele>243.0</ele><time>2026-04-11T10:42:26.001Z</time></trkpt><trkpt lat="45.017791124805896" lon="8.341515519327054"><ele>243.0</ele><time>2026-04-11T10:42:27.001Z</time></trkpt><trkpt lat="45.0178140564095" lon="8.341607280554443"><ele>242.33333333333334</ele><time>2026-04-11T10:42:28.001Z</time></trkpt><trkpt lat="45.017836697443265" lon="8.341720260713624"><ele>241.66666666666669</ele><time>2026-04-11T10:42:29.001Z</time></trkpt><trkpt lat="45.01787120002594" lon="8.341908850673699"><ele>241.0</ele><time>2026-04-11T10:42:31.001Z</time></trkpt><trkpt lat="45.01793089779192" lon="8.341973119428127"><ele>240.33333333333334</ele><time>2026-04-11T10:42:32.001Z</time></trkpt><trkpt lat="45.01797776378054" lon="8.342055663895295"><ele>239.66666666666669</ele><time>2026-04-11T10:42:33.001Z</time></trkpt><trkpt lat="45.01802936465113" lon="8.34212025736905"><ele>239.0</ele><time>2026-04-11T10:42:34.001Z</time></trkpt><trkpt lat="45.01810562391637" lon="8.342190398232544"><ele>237.83333333333334</ele><time>2026-04-11T10:42:35.001Z</time></trkpt><trkpt lat="45.0181831132029" lon="8.34224306849128"><ele>236.66666666666669</ele><time>2026-04-11T10:42:36.001Z</time></trkpt><trkpt lat="45.01825036059624" lon="8.342290153694977"><ele>235.5</ele><time>2026-04-11T10:42:37.001Z</time></trkpt><trkpt lat="45.01833542701848" lon="8.342352317438495"><ele>234.33333333333331</ele><time>2026-04-11T10:42:38.001Z</time></trkpt><trkpt lat="45.018414364372475" lon="8.342410384630956"><ele>233.16666666666666</ele><time>2026-04-11T10:42:39.001Z</time></trkpt><trkpt lat="45.01849019186227" lon="8.342460891054705"><ele>232.0</ele><time>2026-04-11T10:42:40.001Z</time></trkpt><trkpt lat="45.01858231433592" lon="8.342521391677643"><ele>231.6</ele><time>2026-04-11T10:42:41.001Z</time></trkpt><trkpt lat="45.018670821559994" lon="8.342584909074683"><ele>231.2</ele><time>2026-04-11T10:42:42.001Z</time></trkpt><trkpt lat="45.01876594332637" lon="8.342662103421619"><ele>230.8</ele><time>2026-04-11T10:42:43.001Z</time></trkpt><trkpt lat="45.01883986851267" lon="8.342734459029217"><ele>230.4</ele><time>2026-04-11T10:42:44.001Z</time></trkpt><trkpt lat="45.01890782849963" lon="8.342810861555126"><ele>230.0</ele><time>2026-04-11T10:42:45.001Z</time></trkpt><trkpt lat="45.01896603972094" lon="8.342880794596574"><ele>230.00000000000003</ele><time>2026-04-11T10:42:46.001Z</time></trkpt><trkpt lat="45.019023396864995" lon="8.342965524674979"><ele>230.0</ele><time>2026-04-11T10:42:47.001Z</time></trkpt><trkpt lat="45.019061468420574" lon="8.34305127683198"><ele>230.0</ele><time>2026-04-11T10:42:48.001Z</time></trkpt><trkpt lat="45.01908599492756" lon="8.343156154546676"><ele>230.0</ele><time>2026-04-11T10:42:49.001Z</time></trkpt><trkpt lat="45.01910431776026" lon="8.34327247835761"><ele>230.00000000000003</ele><time>2026-04-11T10:42:50.001Z</time></trkpt><trkpt lat="45.01912197275367" lon="8.343383233532931"><ele>230.0</ele><time>2026-04-11T10:42:51.001Z</time></trkpt><trkpt lat="45.01915116160874" lon="8.343501092138291"><ele>229.8</ele><time>2026-04-11T10:42:52.001Z</time></trkpt><trkpt lat="45.019169925435705" lon="8.343636488416978"><ele>229.6</ele><time>2026-04-11T10:42:53.001Z</time></trkpt><trkpt lat="45.01919387074869" lon="8.34377185604714"><ele>229.39999999999998</ele><time>2026-04-11T10:42:54.001Z</time></trkpt><trkpt lat="45.019217349442556" lon="8.343905063358186"><ele>229.2</ele><time>2026-04-11T10:42:55.001Z</time></trkpt><trkpt lat="45.01922803070675" lon="8.34403401639956"><ele>229.0</ele><time>2026-04-11T10:42:56.001Z</time></trkpt><trkpt lat="45.019236871193314" lon="8.344146168450052"><ele>228.83333333333331</ele><time>2026-04-11T10:42:57.002Z</time></trkpt><trkpt lat="45.01924307645896" lon="8.344245195349508"><ele>228.66666666666666</ele><time>2026-04-11T10:42:58.002Z</time></trkpt><trkpt lat="45.01925205025963" lon="8.34440997528784"><ele>228.5</ele><time>2026-04-11T10:43:00.002Z</time></trkpt><trkpt lat="45.01925658407243" lon="8.344517662155205"><ele>228.33333333333331</ele><time>2026-04-11T10:43:01.002Z</time></trkpt><trkpt lat="45.01926304273953" lon="8.344615036093726"><ele>228.16666666666666</ele><time>2026-04-11T10:43:02.002Z</time></trkpt><trkpt lat="45.01927395280516" lon="8.344719358124989"><ele>228.0</ele><time>2026-04-11T10:43:03.002Z</time></trkpt><trkpt lat="45.01928661513645" lon="8.344851375904382"><ele>227.83333333333334</ele><time>2026-04-11T10:43:04.002Z</time></trkpt><trkpt lat="45.01929912259544" lon="8.344988550027763"><ele>227.66666666666669</ele><time>2026-04-11T10:43:05.002Z</time></trkpt><trkpt lat="45.01930460387293" lon="8.345104500802082"><ele>227.5</ele><time>2026-04-11T10:43:06.002Z</time></trkpt><trkpt lat="45.01930684450432" lon="8.345203513142293"><ele>227.33333333333334</ele><time>2026-04-11T10:43:07.002Z</time></trkpt><trkpt lat="45.0193195156016" lon="8.345373514235463"><ele>227.16666666666669</ele><time>2026-04-11T10:43:09.002Z</time></trkpt><trkpt lat="45.01933219426513" lon="8.345472920618437"><ele>227.0</ele><time>2026-04-11T10:43:10.002Z</time></trkpt><trkpt lat="45.01934701848898" lon="8.345571247676673"><ele>227.00000000000003</ele><time>2026-04-11T10:43:11.002Z</time></trkpt><trkpt lat="45.01936433153329" lon="8.34568410835835"><ele>227.0</ele><time>2026-04-11T10:43:12.002Z</time></trkpt><trkpt lat="45.01938631418407" lon="8.345801756146267"><ele>227.0</ele><time>2026-04-11T10:43:13.002Z</time></trkpt><trkpt lat="45.01941405021611" lon="8.345917333550414"><ele>227.0</ele><time>2026-04-11T10:43:14.002Z</time></trkpt><trkpt lat="45.01944508479846" lon="8.346034691533076"><ele>227.00000000000003</ele><time>2026-04-11T10:43:15.002Z</time></trkpt><trkpt lat="45.01947983477502" lon="8.34614060053074"><ele>227.0</ele><time>2026-04-11T10:43:16.002Z</time></trkpt><trkpt lat="45.01951956310346" lon="8.34623507012644"><ele>227.00000000000003</ele><time>2026-04-11T10:43:17.002Z</time></trkpt><trkpt lat="45.019564551864505" lon="8.346334832450577"><ele>227.0</ele><time>2026-04-11T10:43:18.002Z</time></trkpt><trkpt lat="45.01961550326592" lon="8.346453435381484"><ele>227.0</ele><time>2026-04-11T10:43:19.002Z</time></trkpt><trkpt lat="45.01965774114802" lon="8.34655596306798"><ele>227.0</ele><time>2026-04-11T10:43:20.002Z</time></trkpt><trkpt lat="45.01969401884804" lon="8.346642620129415"><ele>227.00000000000003</ele><time>2026-04-11T10:43:21.002Z</time></trkpt><trkpt lat="45.01973112329501" lon="8.34673909819344"><ele>227.0</ele><time>2026-04-11T10:43:22.002Z</time></trkpt><trkpt lat="45.01976957028111" lon="8.346839259449755"><ele>226.6</ele><time>2026-04-11T10:43:23.002Z</time></trkpt><trkpt lat="45.01981247395697" lon="8.346946775384845"><ele>226.2</ele><time>2026-04-11T10:43:24.002Z</time></trkpt><trkpt lat="45.01985758332112" lon="8.347048126200743"><ele>225.8</ele><time>2026-04-11T10:43:25.002Z</time></trkpt><trkpt lat="45.019907159589486" lon="8.347162012446049"><ele>225.4</ele><time>2026-04-11T10:43:26.002Z</time></trkpt><trkpt lat="45.01995384765348" lon="8.347273844322103"><ele>225.0</ele><time>2026-04-11T10:43:27.002Z</time></trkpt><trkpt lat="45.02000815956267" lon="8.347397961223788"><ele>226.33333333333334</ele><time>2026-04-11T10:43:28.002Z</time></trkpt><trkpt lat="45.020057998724674" lon="8.347510003482775"><ele>227.66666666666669</ele><time>2026-04-11T10:43:29.002Z</time></trkpt><trkpt lat="45.0200989149255" lon="8.347597523020422"><ele>229.0</ele><time>2026-04-11T10:43:30.002Z</time></trkpt><trkpt lat="45.020147479670925" lon="8.347688899995804"><ele>230.33333333333334</ele><time>2026-04-11T10:43:31.002Z</time></trkpt><trkpt lat="45.020200053101206" lon="8.347770046650217"><ele>231.66666666666669</ele><time>2026-04-11T10:43:32.002Z</time></trkpt><trkpt lat="45.02025826789429" lon="8.347833364001437"><ele>233.0</ele><time>2026-04-11T10:43:33.003Z</time></trkpt><trkpt lat="45.02032584524787" lon="8.347892059502698"><ele>233.0</ele><time>2026-04-11T10:43:34.003Z</time></trkpt><trkpt lat="45.02039181219164" lon="8.347939359949548"><ele>233.0</ele><time>2026-04-11T10:43:35.003Z</time></trkpt><trkpt lat="45.02046324884541" lon="8.34798359963773"><ele>233.0</ele><time>2026-04-11T10:43:36.003Z</time></trkpt><trkpt lat="45.0205344357928" lon="8.34802797239925"><ele>233.0</ele><time>2026-04-11T10:43:37.003Z</time></trkpt><trkpt lat="45.02060375671068" lon="8.348066675602356"><ele>233.0</ele><time>2026-04-11T10:43:38.003Z</time></trkpt><trkpt lat="45.02067707607405" lon="8.348102655749575"><ele>233.0</ele><time>2026-04-11T10:43:39.003Z</time></trkpt><trkpt lat="45.020739305819305" lon="8.348130269390529"><ele>233.0</ele><time>2026-04-11T10:43:40.003Z</time></trkpt><trkpt lat="45.020825894342494" lon="8.3481577468745"><ele>234.60000000000002</ele><time>2026-04-11T10:43:42.003Z</time></trkpt><trkpt lat="45.020902794626245" lon="8.348082353757167"><ele>236.20000000000002</ele><time>2026-04-11T10:43:55.003Z</time></trkpt><trkpt lat="45.02092079586317" lon="8.347996108244706"><ele>237.8</ele><time>2026-04-11T10:43:56.003Z</time></trkpt><trkpt lat="45.02093449028363" lon="8.34784468283632"><ele>239.4</ele><time>2026-04-11T10:43:57.999Z</time></trkpt><trkpt lat="45.02099440513268" lon="8.347677916085186"><ele>241.0</ele><time>2026-04-11T10:43:59.999Z</time></trkpt><trkpt lat="45.021041748211076" lon="8.347576641649276"><ele>241.0</ele><time>2026-04-11T10:44:00.999Z</time></trkpt><trkpt lat="45.021105488974186" lon="8.347484602939877"><ele>241.00000000000003</ele><time>2026-04-11T10:44:01.999Z</time></trkpt><trkpt lat="45.021132801250474" lon="8.347368544109779"><ele>241.00000000000003</ele><time>2026-04-11T10:44:02.999Z</time></trkpt><trkpt lat="45.0211624134646" lon="8.347238677119506"><ele>241.0</ele><time>2026-04-11T10:44:03.999Z</time></trkpt><trkpt lat="45.02119393943058" lon="8.347096498351979"><ele>241.0</ele><time>2026-04-11T10:44:04.999Z</time></trkpt><trkpt lat="45.021227810120884" lon="8.34694144099073"><ele>241.75</ele><time>2026-04-11T10:44:06Z</time></trkpt><trkpt lat="45.02126262148849" lon="8.34678186738254"><ele>242.5</ele><time>2026-04-11T10:44:07Z</time></trkpt><trkpt lat="45.021299290780526" lon="8.346613777292962"><ele>243.25</ele><time>2026-04-11T10:44:08Z</time></trkpt><trkpt lat="45.02133704122708" lon="8.346440724562928"><ele>244.0</ele><time>2026-04-11T10:44:09Z</time></trkpt><trkpt lat="45.02137158195762" lon="8.346282354136246"><ele>244.2</ele><time>2026-04-11T10:44:10Z</time></trkpt><trkpt lat="45.021404547377166" lon="8.346134590176252"><ele>244.39999999999998</ele><time>2026-04-11T10:44:11Z</time></trkpt><trkpt lat="45.021437324088396" lon="8.345991971137725"><ele>244.6</ele><time>2026-04-11T10:44:12Z</time></trkpt><trkpt lat="45.021470731756075" lon="8.345853436529932"><ele>244.8</ele><time>2026-04-11T10:44:13Z</time></trkpt><trkpt lat="45.02150159338641" lon="8.345736825086956"><ele>245.0</ele><time>2026-04-11T10:44:14Z</time></trkpt><trkpt lat="45.02152853438" lon="8.345636640878261"><ele>245.16666666666669</ele><time>2026-04-11T10:44:16Z</time></trkpt><trkpt lat="45.0215520678519" lon="8.345513156781113"><ele>245.33333333333334</ele><time>2026-04-11T10:44:24Z</time></trkpt><trkpt lat="45.02157239017325" lon="8.345421676090112"><ele>245.5</ele><time>2026-04-11T10:44:25Z</time></trkpt><trkpt lat="45.02160268273874" lon="8.345325512678068"><ele>245.66666666666669</ele><time>2026-04-11T10:44:26Z</time></trkpt><trkpt lat="45.02163820883454" lon="8.345211074513383"><ele>245.83333333333334</ele><time>2026-04-11T10:44:27Z</time></trkpt><trkpt lat="45.02166817746482" lon="8.345110845737613"><ele>246.0</ele><time>2026-04-11T10:44:28Z</time></trkpt><trkpt lat="45.02169448954445" lon="8.345024704375804"><ele>246.60000000000002</ele><time>2026-04-11T10:44:29Z</time></trkpt><trkpt lat="45.02174117185299" lon="8.344911655507216"><ele>247.20000000000002</ele><time>2026-04-11T10:44:31Z</time></trkpt><trkpt lat="45.02189283228326" lon="8.344942192206638"><ele>247.79999999999998</ele><time>2026-04-11T10:44:37.001Z</time></trkpt><trkpt lat="45.02196574134652" lon="8.344949685252084"><ele>248.39999999999998</ele><time>2026-04-11T10:44:39.001Z</time></trkpt><trkpt lat="45.02206485609161" lon="8.344948409840184"><ele>249.0</ele><time>2026-04-11T10:44:41.001Z</time></trkpt><trkpt lat="45.02219331442921" lon="8.344934980744187"><ele>249.0</ele><time>2026-04-11T10:44:43.001Z</time></trkpt><trkpt lat="45.02232038131543" lon="8.344906806299807"><ele>248.99999999999997</ele><time>2026-04-11T10:44:45.001Z</time></trkpt><trkpt lat="45.02239263360338" lon="8.34488482620245"><ele>248.99999999999997</ele><time>2026-04-11T10:44:46.001Z</time></trkpt><trkpt lat="45.022470960302186" lon="8.34485722615344"><ele>249.0</ele><time>2026-04-11T10:44:47.001Z</time></trkpt><trkpt lat="45.02255034521009" lon="8.344834224304938"><ele>249.0</ele><time>2026-04-11T10:44:48.001Z</time></trkpt><trkpt lat="45.02264062290209" lon="8.3448092778859"><ele>248.6</ele><time>2026-04-11T10:44:49.001Z</time></trkpt><trkpt lat="45.02273722485823" lon="8.344782801061811"><ele>248.2</ele><time>2026-04-11T10:44:50.001Z</time></trkpt><trkpt lat="45.02283216142026" lon="8.344749745499934"><ele>247.79999999999998</ele><time>2026-04-11T10:44:51.001Z</time></trkpt><trkpt lat="45.02293263195646" lon="8.344712527783816"><ele>247.39999999999998</ele><time>2026-04-11T10:44:52.001Z</time></trkpt><trkpt lat="45.02303329558433" lon="8.344679280662737"><ele>247.0</ele><time>2026-04-11T10:44:53.001Z</time></trkpt><trkpt lat="45.02313009549766" lon="8.344650010915553"><ele>249.2</ele><time>2026-04-11T10:44:54.001Z</time></trkpt><trkpt lat="45.023228768961914" lon="8.344627319647554"><ele>251.39999999999998</ele><time>2026-04-11T10:44:55.001Z</time></trkpt><trkpt lat="45.02332851345409" lon="8.344606198452725"><ele>253.60000000000002</ele><time>2026-04-11T10:44:56.001Z</time></trkpt><trkpt lat="45.023430641741875" lon="8.34458156611021"><ele>255.8</ele><time>2026-04-11T10:44:57.001Z</time></trkpt><trkpt lat="45.02353497914394" lon="8.344559425292736"><ele>258.0</ele><time>2026-04-11T10:44:58.001Z</time></trkpt><trkpt lat="45.02363851179172" lon="8.3445357218327"><ele>258.0</ele><time>2026-04-11T10:44:59.001Z</time></trkpt><trkpt lat="45.02373688526191" lon="8.344510339780664"><ele>258.0</ele><time>2026-04-11T10:45:00.001Z</time></trkpt><trkpt lat="45.02384370067169" lon="8.344480566805782"><ele>258.0</ele><time>2026-04-11T10:45:01.001Z</time></trkpt><trkpt lat="45.023952473759216" lon="8.34444905959645"><ele>258.0</ele><time>2026-04-11T10:45:02.001Z</time></trkpt><trkpt lat="45.02405948055494" lon="8.344419930547362"><ele>258.0</ele><time>2026-04-11T10:45:03.001Z</time></trkpt><trkpt lat="45.024157742536666" lon="8.34438858795819"><ele>257.0</ele><time>2026-04-11T10:45:04.002Z</time></trkpt><trkpt lat="45.02425635058048" lon="8.3443592256277"><ele>256.0</ele><time>2026-04-11T10:45:05.002Z</time></trkpt><trkpt lat="45.02435485920428" lon="8.344330608465956"><ele>255.0</ele><time>2026-04-11T10:45:06.002Z</time></trkpt><trkpt lat="45.024452306100734" lon="8.344313819379884"><ele>254.0</ele><time>2026-04-11T10:45:07.002Z</time></trkpt><trkpt lat="45.024546188765356" lon="8.344298710923281"><ele>253.0</ele><time>2026-04-11T10:45:08.002Z</time></trkpt><trkpt lat="45.02463299244033" lon="8.344280315247596"><ele>253.0</ele><time>2026-04-11T10:45:09.002Z</time></trkpt><trkpt lat="45.024719777017914" lon="8.344251622770464"><ele>253.0</ele><time>2026-04-11T10:45:10.002Z</time></trkpt><trkpt lat="45.0248064581754" lon="8.344199553567286"><ele>253.0</ele><time>2026-04-11T10:45:11.002Z</time></trkpt><trkpt lat="45.02489204457918" lon="8.344139333637095"><ele>253.0</ele><time>2026-04-11T10:45:12.002Z</time></trkpt><trkpt lat="45.024982653312435" lon="8.34407310717221"><ele>253.0</ele><time>2026-04-11T10:45:13.002Z</time></trkpt><trkpt lat="45.025071165450534" lon="8.344015159219516"><ele>252.60000000000002</ele><time>2026-04-11T10:45:14.002Z</time></trkpt><trkpt lat="45.0251673972649" lon="8.343959590693894"><ele>252.20000000000002</ele><time>2026-04-11T10:45:15.002Z</time></trkpt><trkpt lat="45.02526524303872" lon="8.343920555787074"><ele>251.8</ele><time>2026-04-11T10:45:16.002Z</time></trkpt><trkpt lat="45.02535309559692" lon="8.343877439006953"><ele>251.4</ele><time>2026-04-11T10:45:17.002Z</time></trkpt><trkpt lat="45.025435874781984" lon="8.343830107318485"><ele>251.0</ele><time>2026-04-11T10:45:18.002Z</time></trkpt><trkpt lat="45.02551711928547" lon="8.343768011505402"><ele>253.00000000000003</ele><time>2026-04-11T10:45:19.002Z</time></trkpt><trkpt lat="45.02558242201509" lon="8.34369085152053"><ele>255.0</ele><time>2026-04-11T10:45:20.002Z</time></trkpt><trkpt lat="45.02563567277056" lon="8.343604318267962"><ele>257.0</ele><time>2026-04-11T10:45:21.002Z</time></trkpt><trkpt lat="45.02567999048777" lon="8.34351003870305"><ele>259.0</ele><time>2026-04-11T10:45:22.002Z</time></trkpt><trkpt lat="45.02572763608022" lon="8.343402512440864"><ele>261.0</ele><time>2026-04-11T10:45:23.002Z</time></trkpt><trkpt lat="45.02575537753014" lon="8.343291710531503"><ele>263.0</ele><time>2026-04-11T10:45:24.002Z</time></trkpt><trkpt lat="45.02576357465216" lon="8.34313600641933"><ele>262.8</ele><time>2026-04-11T10:45:26.002Z</time></trkpt><trkpt lat="45.02581210006757" lon="8.343032521601769"><ele>262.6</ele><time>2026-04-11T10:45:28.002Z</time></trkpt><trkpt lat="45.02591627931129" lon="8.342916462101014"><ele>262.4</ele><time>2026-04-11T10:45:30.002Z</time></trkpt><trkpt lat="45.02598038087951" lon="8.342832842115982"><ele>262.2</ele><time>2026-04-11T10:45:31.002Z</time></trkpt><trkpt lat="45.02604397463826" lon="8.342751630819441"><ele>262.0</ele><time>2026-04-11T10:45:32.002Z</time></trkpt><trkpt lat="45.02608744659814" lon="8.342684043162434"><ele>262.0</ele><time>2026-04-11T10:45:33.002Z</time></trkpt><trkpt lat="45.02614491485144" lon="8.342592684879044"><ele>262.0</ele><time>2026-04-11T10:45:34.002Z</time></trkpt><trkpt lat="45.02620009590137" lon="8.342507644049446"><ele>262.0</ele><time>2026-04-11T10:45:35.002Z</time></trkpt><trkpt lat="45.026251200900596" lon="8.342424709701413"><ele>262.0</ele><time>2026-04-11T10:45:36.002Z</time></trkpt><trkpt lat="45.026305858141896" lon="8.342332841545097"><ele>262.0</ele><time>2026-04-11T10:45:37.002Z</time></trkpt><trkpt lat="45.026361056632645" lon="8.342239188044603"><ele>262.0</ele><time>2026-04-11T10:45:38.003Z</time></trkpt><trkpt lat="45.02640220405431" lon="8.342168066260907"><ele>261.5</ele><time>2026-04-11T10:45:39.003Z</time></trkpt><trkpt lat="45.02645368393101" lon="8.342084037060799"><ele>261.0</ele><time>2026-04-11T10:45:40.003Z</time></trkpt><trkpt lat="45.02650694941054" lon="8.342003150111786"><ele>260.5</ele><time>2026-04-11T10:45:41.003Z</time></trkpt><trkpt lat="45.026557106343645" lon="8.341935910281467"><ele>260.0</ele><time>2026-04-11T10:45:42.003Z</time></trkpt><trkpt lat="45.02662667115852" lon="8.34183427944586"><ele>259.5</ele><time>2026-04-11T10:45:43.003Z</time></trkpt><trkpt lat="45.026696297097295" lon="8.341762266309313"><ele>259.0</ele><time>2026-04-11T10:45:44.003Z</time></trkpt><trkpt lat="45.0267682197662" lon="8.34171384720613"><ele>258.8333333333333</ele><time>2026-04-11T10:45:45.003Z</time></trkpt><trkpt lat="45.026842949586566" lon="8.341677804273765"><ele>258.66666666666663</ele><time>2026-04-11T10:45:46.003Z</time></trkpt><trkpt lat="45.02690875378642" lon="8.341632767988962"><ele>258.5</ele><time>2026-04-11T10:45:47.003Z</time></trkpt><trkpt lat="45.02696222988094" lon="8.341563255726843"><ele>258.3333333333333</ele><time>2026-04-11T10:45:48.003Z</time></trkpt><trkpt lat="45.02701848820154" lon="8.341472361010599"><ele>258.1666666666667</ele><time>2026-04-11T10:45:49.003Z</time></trkpt><trkpt lat="45.02707722137846" lon="8.341379457818618"><ele>258.0</ele><time>2026-04-11T10:45:50.003Z</time></trkpt><trkpt lat="45.02714449522306" lon="8.341279441457882"><ele>258.0</ele><time>2026-04-11T10:45:51.003Z</time></trkpt><trkpt lat="45.02720164018503" lon="8.341211204189156"><ele>258.0</ele><time>2026-04-11T10:45:52.003Z</time></trkpt><trkpt lat="45.02726423911112" lon="8.341118661695823"><ele>258.0</ele><time>2026-04-11T10:45:53.003Z</time></trkpt><trkpt lat="45.027327898844284" lon="8.341037428227116"><ele>258.0</ele><time>2026-04-11T10:45:54.003Z</time></trkpt><trkpt lat="45.027390071045325" lon="8.340988957805726"><ele>258.0</ele><time>2026-04-11T10:45:55.003Z</time></trkpt><trkpt lat="45.0274488453785" lon="8.340944332909597"><ele>258.0</ele><time>2026-04-11T10:45:56.003Z</time></trkpt><trkpt lat="45.02752082351563" lon="8.340894756386083"><ele>259.5</ele><time>2026-04-11T10:45:57.003Z</time></trkpt><trkpt lat="45.02760373938398" lon="8.340775578091918"><ele>261.0</ele><time>2026-04-11T10:45:59.003Z</time></trkpt><trkpt lat="45.02763086718286" lon="8.340690497673423"><ele>262.5</ele><time>2026-04-11T10:46:00.003Z</time></trkpt><trkpt lat="45.02764315249949" lon="8.340595081165228"><ele>264.0</ele><time>2026-04-11T10:46:01.003Z</time></trkpt><trkpt lat="45.02769417314728" lon="8.340461275748781"><ele>265.5</ele><time>2026-04-11T10:46:03.003Z</time></trkpt><trkpt lat="45.027723039300334" lon="8.340372577645505"><ele>267.0</ele><time>2026-04-11T10:46:17Z</time></trkpt><trkpt lat="45.02776786559051" lon="8.340251463197925"><ele>267.3333333333333</ele><time>2026-04-11T10:46:19Z</time></trkpt><trkpt lat="45.027825346590454" lon="8.340109604596407"><ele>267.6666666666667</ele><time>2026-04-11T10:46:21Z</time></trkpt><trkpt lat="45.02786658421679" lon="8.340022734991283"><ele>268.0</ele><time>2026-04-11T10:46:23Z</time></trkpt><trkpt lat="45.02789625322221" lon="8.339936041742433"><ele>268.33333333333337</ele><time>2026-04-11T11:01:40.001Z</time></trkpt><trkpt lat="45.02794832413247" lon="8.339819663261553"><ele>268.6666666666667</ele><time>2026-04-11T11:01:47.001Z</time></trkpt><trkpt lat="45.027986184206576" lon="8.33972037394084"><ele>269.0</ele><time>2026-04-11T11:01:49.001Z</time></trkpt><trkpt lat="45.02802689265293" lon="8.339616605817602"><ele>269.0</ele><time>2026-04-11T11:01:51.001Z</time></trkpt><trkpt lat="45.02808252731543" lon="8.339514572166983"><ele>269.0</ele><time>2026-04-11T11:01:53.001Z</time></trkpt><trkpt lat="45.028148255563416" lon="8.33941720820619"><ele>269.0</ele><time>2026-04-11T11:01:55.001Z</time></trkpt><trkpt lat="45.02821831499333" lon="8.339300084236168"><ele>269.0</ele><time>2026-04-11T11:01:57.001Z</time></trkpt><trkpt lat="45.02828912953083" lon="8.339168807721613"><ele>269.0</ele><time>2026-04-11T11:01:59.001Z</time></trkpt><trkpt lat="45.02835854124825" lon="8.33904084875464"><ele>269.0</ele><time>2026-04-11T11:02:01.001Z</time></trkpt><trkpt lat="45.028419722353924" lon="8.338911498323625"><ele>269.0</ele><time>2026-04-11T11:02:03.001Z</time></trkpt><trkpt lat="45.028469815277795" lon="8.338822261209428"><ele>269.0</ele><time>2026-04-11T11:02:05.001Z</time></trkpt><trkpt lat="45.028516396930456" lon="8.338696439594075"><ele>269.0</ele><time>2026-04-11T11:02:09.002Z</time></trkpt><trkpt lat="45.028566591390586" lon="8.338536962897816"><ele>269.0</ele><time>2026-04-11T11:02:11.002Z</time></trkpt><trkpt lat="45.028605975697566" lon="8.338423366534554"><ele>268.1666666666667</ele><time>2026-04-11T11:02:12.002Z</time></trkpt><trkpt lat="45.02863672114133" lon="8.338301810459514"><ele>267.33333333333337</ele><time>2026-04-11T11:02:13.002Z</time></trkpt><trkpt lat="45.028663652273245" lon="8.338201895272803"><ele>266.5</ele><time>2026-04-11T11:02:14.002Z</time></trkpt><trkpt lat="45.0286876914747" lon="8.338093670631613"><ele>265.6666666666667</ele><time>2026-04-11T11:02:15.002Z</time></trkpt><trkpt lat="45.02872289456859" lon="8.337954748138626"><ele>264.8333333333333</ele><time>2026-04-11T11:02:16.002Z</time></trkpt><trkpt lat="45.02875629736325" lon="8.337843007580162"><ele>264.0</ele><time>2026-04-11T11:02:17.002Z</time></trkpt><trkpt lat="45.028780140400755" lon="8.337730443114564"><ele>262.42857142857144</ele><time>2026-04-11T11:02:18.002Z</time></trkpt><trkpt lat="45.028802371800076" lon="8.33764237874827"><ele>260.8571428571429</ele><time>2026-04-11T11:02:19.002Z</time></trkpt><trkpt lat="45.02883086201282" lon="8.337535732765845"><ele>259.28571428571433</ele><time>2026-04-11T11:02:20.002Z</time></trkpt><trkpt lat="45.02885377991273" lon="8.337449237513855"><ele>257.7142857142857</ele><time>2026-04-11T11:02:21.002Z</time></trkpt><trkpt lat="45.02888304070273" lon="8.337360870596857"><ele>256.14285714285717</ele><time>2026-04-11T11:02:22.002Z</time></trkpt><trkpt lat="45.02891434225586" lon="8.337273308966349"><ele>254.5714285714286</ele><time>2026-04-11T11:02:23.002Z</time></trkpt><trkpt lat="45.028952912326545" lon="8.337153607475527"><ele>253.00000000000003</ele><time>2026-04-11T11:02:24.002Z</time></trkpt><trkpt lat="45.02901284813904" lon="8.337002481444175"><ele>251.33333333333331</ele><time>2026-04-11T11:02:26.002Z</time></trkpt><trkpt lat="45.02903882424004" lon="8.336918712658644"><ele>249.66666666666666</ele><time>2026-04-11T11:02:27.002Z</time></trkpt><trkpt lat="45.029056881776484" lon="8.336832493987334"><ele>248.0</ele><time>2026-04-11T11:02:28.002Z</time></trkpt><trkpt lat="45.02907398120916" lon="8.336735131788709"><ele>246.33333333333331</ele><time>2026-04-11T11:02:29.002Z</time></trkpt><trkpt lat="45.029095055494984" lon="8.336641825852181"><ele>244.66666666666666</ele><time>2026-04-11T11:02:30.002Z</time></trkpt><trkpt lat="45.02912646901814" lon="8.336466886551387"><ele>243.0</ele><time>2026-04-11T11:02:32.002Z</time></trkpt><trkpt lat="45.02913890221333" lon="8.336378827483387"><ele>245.0</ele><time>2026-04-11T11:02:33.002Z</time></trkpt><trkpt lat="45.02916414440246" lon="8.336215147687984"><ele>247.0</ele><time>2026-04-11T11:02:35.002Z</time></trkpt><trkpt lat="45.029181173930795" lon="8.3360387956929"><ele>249.0</ele><time>2026-04-11T11:02:37.002Z</time></trkpt><trkpt lat="45.02920664213261" lon="8.33587104047512"><ele>251.0</ele><time>2026-04-11T11:02:39.002Z</time></trkpt><trkpt lat="45.029232708860924" lon="8.335712175191242"><ele>251.0</ele><time>2026-04-11T11:02:41.002Z</time></trkpt><trkpt lat="45.029253607931466" lon="8.335602331253579"><ele>251.0</ele><time>2026-04-11T11:02:43.002Z</time></trkpt><trkpt lat="45.029314887073284" lon="8.335478447341277"><ele>251.0</ele><time>2026-04-11T11:02:46.002Z</time></trkpt><trkpt lat="45.02937986765621" lon="8.335332221772044"><ele>251.0</ele><time>2026-04-11T11:02:48.002Z</time></trkpt><trkpt lat="45.029399210760516" lon="8.335134996840011"><ele>250.16666666666669</ele><time>2026-04-11T11:02:50.002Z</time></trkpt><trkpt lat="45.02940078829332" lon="8.335016583144956"><ele>249.33333333333334</ele><time>2026-04-11T11:02:51.002Z</time></trkpt><trkpt lat="45.02941394301226" lon="8.334886318368685"><ele>248.5</ele><time>2026-04-11T11:02:51.999Z</time></trkpt><trkpt lat="45.02943718657955" lon="8.33478143300422"><ele>247.66666666666669</ele><time>2026-04-11T11:02:52.999Z</time></trkpt><trkpt lat="45.02946674900104" lon="8.334693919018529"><ele>246.83333333333334</ele><time>2026-04-11T11:02:53.999Z</time></trkpt><trkpt lat="45.02950720838712" lon="8.334591847289007"><ele>246.0</ele><time>2026-04-11T11:02:54.999Z</time></trkpt><trkpt lat="45.029552645734704" lon="8.33448225183501"><ele>245.4</ele><time>2026-04-11T11:02:55.999Z</time></trkpt><trkpt lat="45.02959810035085" lon="8.334374028271622"><ele>244.8</ele><time>2026-04-11T11:02:56.999Z</time></trkpt><trkpt lat="45.02964539607" lon="8.334262134654798"><ele>244.20000000000002</ele><time>2026-04-11T11:02:57.999Z</time></trkpt><trkpt lat="45.029690932447394" lon="8.334142049698036"><ele>243.60000000000002</ele><time>2026-04-11T11:02:58.999Z</time></trkpt><trkpt lat="45.02973936401111" lon="8.334005438403226"><ele>243.0</ele><time>2026-04-11T11:02:59.999Z</time></trkpt><trkpt lat="45.029789034556146" lon="8.33387847308622"><ele>242.4</ele><time>2026-04-11T11:03:00.999Z</time></trkpt><trkpt lat="45.02983780474263" lon="8.333753318315337"><ele>241.8</ele><time>2026-04-11T11:03:01.999Z</time></trkpt><trkpt lat="45.029882628088764" lon="8.333635072438236"><ele>241.2</ele><time>2026-04-11T11:03:02.999Z</time></trkpt><trkpt lat="45.0299292311107" lon="8.333514204049076"><ele>240.6</ele><time>2026-04-11T11:03:03.999Z</time></trkpt><trkpt lat="45.02997458841811" lon="8.333400589743976"><ele>240.0</ele><time>2026-04-11T11:03:04.999Z</time></trkpt><trkpt lat="45.030022770876215" lon="8.333291373766318"><ele>243.6</ele><time>2026-04-11T11:03:05.999Z</time></trkpt><trkpt lat="45.0300711514567" lon="8.333205140839118"><ele>247.2</ele><time>2026-04-11T11:03:06.999Z</time></trkpt><trkpt lat="45.03012417498597" lon="8.333141868706328"><ele>250.8</ele><time>2026-04-11T11:03:07.999Z</time></trkpt><trkpt lat="45.030244390173365" lon="8.33308217426734"><ele>254.4</ele><time>2026-04-11T11:03:09.999Z</time></trkpt><trkpt lat="45.03032742840018" lon="8.333072585355342"><ele>258.0</ele><time>2026-04-11T11:03:10.999Z</time></trkpt><trkpt lat="45.03041999406948" lon="8.333057624813307"><ele>257.1666666666667</ele><time>2026-04-11T11:03:11.999Z</time></trkpt><trkpt lat="45.03050490396035" lon="8.333021009575653"><ele>256.3333333333333</ele><time>2026-04-11T11:03:12.999Z</time></trkpt><trkpt lat="45.03059363657509" lon="8.332994133953829"><ele>255.5</ele><time>2026-04-11T11:03:13.999Z</time></trkpt><trkpt lat="45.030677153727936" lon="8.332944989804442"><ele>254.66666666666666</ele><time>2026-04-11T11:03:14.999Z</time></trkpt><trkpt lat="45.03075397343425" lon="8.332899278081"><ele>253.83333333333331</ele><time>2026-04-11T11:03:16Z</time></trkpt><trkpt lat="45.03083903858238" lon="8.332857893692937"><ele>253.0</ele><time>2026-04-11T11:03:17Z</time></trkpt><trkpt lat="45.030927837279116" lon="8.332817958403012"><ele>255.33333333333331</ele><time>2026-04-11T11:03:18Z</time></trkpt><trkpt lat="45.031009311693296" lon="8.332774635434657"><ele>257.66666666666663</ele><time>2026-04-11T11:03:19Z</time></trkpt><trkpt lat="45.031094782660524" lon="8.332721093548646"><ele>260.0</ele><time>2026-04-11T11:03:20Z</time></trkpt><trkpt lat="45.03115910728649" lon="8.3326680880189"><ele>262.3333333333333</ele><time>2026-04-11T11:03:21Z</time></trkpt><trkpt lat="45.03122184554677" lon="8.332598657303118"><ele>264.6666666666667</ele><time>2026-04-11T11:03:22Z</time></trkpt><trkpt lat="45.03127380205186" lon="8.33253001818469"><ele>267.0</ele><time>2026-04-11T11:03:23Z</time></trkpt><trkpt lat="45.0313271744392" lon="8.332448668312438"><ele>267.0</ele><time>2026-04-11T11:03:24Z</time></trkpt><trkpt lat="45.03137217914961" lon="8.332369925100684"><ele>267.0</ele><time>2026-04-11T11:03:25Z</time></trkpt><trkpt lat="45.03142390059954" lon="8.332284766770204"><ele>267.0</ele><time>2026-04-11T11:03:26Z</time></trkpt><trkpt lat="45.03145881644355" lon="8.332208611232836"><ele>267.0</ele><time>2026-04-11T11:03:27Z</time></trkpt><trkpt lat="45.03150401866513" lon="8.332041738940616"><ele>267.0</ele><time>2026-04-11T11:03:29Z</time></trkpt><trkpt lat="45.03152186868029" lon="8.33192716088692"><ele>267.0</ele><time>2026-04-11T11:03:30Z</time></trkpt><trkpt lat="45.031540174956255" lon="8.33178766314829"><ele>266.8</ele><time>2026-04-11T11:03:31Z</time></trkpt><trkpt lat="45.03155880443526" lon="8.331639406761365"><ele>266.6</ele><time>2026-04-11T11:03:32Z</time></trkpt><trkpt lat="45.031585618853484" lon="8.331480983028225"><ele>266.40000000000003</ele><time>2026-04-11T11:03:33Z</time></trkpt><trkpt lat="45.031609102250236" lon="8.331341532498703"><ele>266.2</ele><time>2026-04-11T11:03:34Z</time></trkpt><trkpt lat="45.031628890502155" lon="8.331219005846165"><ele>266.0</ele><time>2026-04-11T11:03:35Z</time></trkpt><trkpt lat="45.03164999764619" lon="8.33110424165688"><ele>267.1666666666667</ele><time>2026-04-11T11:03:36Z</time></trkpt><trkpt lat="45.03167123395395" lon="8.331005550776638"><ele>268.33333333333337</ele><time>2026-04-11T11:03:37Z</time></trkpt><trkpt lat="45.031693247359875" lon="8.330913166007841"><ele>269.5</ele><time>2026-04-11T11:03:38Z</time></trkpt><trkpt lat="45.031714281715594" lon="8.330806591511008"><ele>270.6666666666667</ele><time>2026-04-11T11:03:39Z</time></trkpt><trkpt lat="45.03172602471722" lon="8.330690005480552"><ele>271.8333333333333</ele><time>2026-04-11T11:03:40Z</time></trkpt><trkpt lat="45.031736991552584" lon="8.33057415359827"><ele>273.0</ele><time>2026-04-11T11:03:41Z</time></trkpt><trkpt lat="45.03175227999028" lon="8.330462590715666"><ele>273.0</ele><time>2026-04-11T11:03:42Z</time></trkpt><trkpt lat="45.03176991262542" lon="8.330359018400738"><ele>273.0</ele><time>2026-04-11T11:03:43Z</time></trkpt><trkpt lat="45.03179634333592" lon="8.330275600247447"><ele>273.0</ele><time>2026-04-11T11:03:44Z</time></trkpt><trkpt lat="45.03183585280749" lon="8.330203982260327"><ele>273.0</ele><time>2026-04-11T11:03:45Z</time></trkpt><trkpt lat="45.031888316663455" lon="8.330125082553677"><ele>273.0</ele><time>2026-04-11T11:03:46.001Z</time></trkpt><trkpt lat="45.031949472902134" lon="8.330025009187587"><ele>273.0</ele><time>2026-04-11T11:03:47.001Z</time></trkpt><trkpt lat="45.032017444736745" lon="8.329921010965782"><ele>273.0</ele><time>2026-04-11T11:03:48.001Z</time></trkpt><trkpt lat="45.0320912442306" lon="8.329816156708072"><ele>273.0</ele><time>2026-04-11T11:03:49.001Z</time></trkpt><trkpt lat="45.0321620824418" lon="8.329731551626725"><ele>273.0</ele><time>2026-04-11T11:03:50.001Z</time></trkpt><trkpt lat="45.032228024991845" lon="8.329660409417112"><ele>273.0</ele><time>2026-04-11T11:03:51.001Z</time></trkpt><trkpt lat="45.03229125538358" lon="8.329605482029393"><ele>273.0</ele><time>2026-04-11T11:03:52.001Z</time></trkpt><trkpt lat="45.03236427298551" lon="8.329570500909204"><ele>273.0</ele><time>2026-04-11T11:03:53.001Z</time></trkpt><trkpt lat="45.032447573999434" lon="8.329543497445808"><ele>274.6</ele><time>2026-04-11T11:03:54.001Z</time></trkpt><trkpt lat="45.03253739627622" lon="8.329516886895975"><ele>276.20000000000005</ele><time>2026-04-11T11:03:55.001Z</time></trkpt><trkpt lat="45.03263489795071" lon="8.32948715738354"><ele>277.8</ele><time>2026-04-11T11:03:56.001Z</time></trkpt><trkpt lat="45.032722084956205" lon="8.32945631127141"><ele>279.40000000000003</ele><time>2026-04-11T11:03:57.001Z</time></trkpt><trkpt lat="45.03280220246432" lon="8.32941657633966"><ele>281.0</ele><time>2026-04-11T11:03:58.001Z</time></trkpt><trkpt lat="45.03288174227069" lon="8.329360054687358"><ele>281.0</ele><time>2026-04-11T11:03:59.001Z</time></trkpt><trkpt lat="45.03295674998919" lon="8.329316069648268"><ele>281.0</ele><time>2026-04-11T11:04:00.001Z</time></trkpt><trkpt lat="45.03303509164432" lon="8.329282152049986"><ele>281.0</ele><time>2026-04-11T11:04:01.001Z</time></trkpt><trkpt lat="45.033119470961836" lon="8.329249199373445"><ele>281.0</ele><time>2026-04-11T11:04:02.001Z</time></trkpt><trkpt lat="45.03320386488566" lon="8.329218109355681"><ele>281.0</ele><time>2026-04-11T11:04:03.001Z</time></trkpt><trkpt lat="45.03328304085242" lon="8.329180571809024"><ele>281.0</ele><time>2026-04-11T11:04:04.001Z</time></trkpt><trkpt lat="45.03335825905829" lon="8.329130003888316"><ele>282.0</ele><time>2026-04-11T11:04:05.001Z</time></trkpt><trkpt lat="45.03342298630995" lon="8.329076179141135"><ele>283.0</ele><time>2026-04-11T11:04:06.001Z</time></trkpt><trkpt lat="45.03348612364178" lon="8.329012852648141"><ele>284.0</ele><time>2026-04-11T11:04:07.001Z</time></trkpt><trkpt lat="45.03353500628012" lon="8.328942752930725"><ele>285.0</ele><time>2026-04-11T11:04:08.001Z</time></trkpt><trkpt lat="45.03360366246099" lon="8.328802964305023"><ele>286.0</ele><time>2026-04-11T11:04:10.001Z</time></trkpt><trkpt lat="45.033680853730644" lon="8.32864377146153"><ele>286.0</ele><time>2026-04-11T11:04:12.001Z</time></trkpt><trkpt lat="45.03373600430953" lon="8.328557036224572"><ele>286.0</ele><time>2026-04-11T11:04:13.001Z</time></trkpt><trkpt lat="45.03378301746087" lon="8.328462544837585"><ele>286.0</ele><time>2026-04-11T11:04:14.001Z</time></trkpt><trkpt lat="45.033820217962564" lon="8.328335937428681"><ele>286.0</ele><time>2026-04-11T11:04:15.001Z</time></trkpt><trkpt lat="45.03385944242039" lon="8.328218756624189"><ele>286.0</ele><time>2026-04-11T11:04:16.001Z</time></trkpt><trkpt lat="45.03390890798233" lon="8.32810433408267"><ele>286.0</ele><time>2026-04-11T11:04:17.001Z</time></trkpt><trkpt lat="45.03396180647493" lon="8.327986942865586"><ele>284.40000000000003</ele><time>2026-04-11T11:04:18.001Z</time></trkpt><trkpt lat="45.03401600287205" lon="8.327880368151652"><ele>282.8</ele><time>2026-04-11T11:04:19.001Z</time></trkpt><trkpt lat="45.03407777148647" lon="8.327787713113153"><ele>281.20000000000005</ele><time>2026-04-11T11:04:20.001Z</time></trkpt><trkpt lat="45.03414572436702" lon="8.327694798617323"><ele>279.6</ele><time>2026-04-11T11:04:21.001Z</time></trkpt><trkpt lat="45.034215685287904" lon="8.327610678911805"><ele>278.0</ele><time>2026-04-11T11:04:22.001Z</time></trkpt><trkpt lat="45.03429137710944" lon="8.327515300593568"><ele>278.0</ele><time>2026-04-11T11:04:23.001Z</time></trkpt><trkpt lat="45.03436210471712" lon="8.327437323973841"><ele>278.0</ele><time>2026-04-11T11:04:24.002Z</time></trkpt><trkpt lat="45.03442526277985" lon="8.327387958254668"><ele>278.0</ele><time>2026-04-11T11:04:25.002Z</time></trkpt><trkpt lat="45.03451057002767" lon="8.327329539444076"><ele>278.0</ele><time>2026-04-11T11:04:26.002Z</time></trkpt><trkpt lat="45.03460366897601" lon="8.327274400219531"><ele>278.0</ele><time>2026-04-11T11:04:27.002Z</time></trkpt><trkpt lat="45.03469763417948" lon="8.327237584015958"><ele>276.6666666666667</ele><time>2026-04-11T11:04:28.002Z</time></trkpt><trkpt lat="45.03477935413189" lon="8.327198197139241"><ele>275.33333333333337</ele><time>2026-04-11T11:04:29.002Z</time></trkpt><trkpt lat="45.034861001072564" lon="8.327162755803746"><ele>274.0</ele><time>2026-04-11T11:04:30.002Z</time></trkpt><trkpt lat="45.03492430375063" lon="8.327147494000911"><ele>272.6666666666667</ele><time>2026-04-11T11:04:31.002Z</time></trkpt><trkpt lat="45.03498610938152" lon="8.327079622312402"><ele>271.3333333333333</ele><time>2026-04-11T11:04:32.002Z</time></trkpt><trkpt lat="45.03505480257705" lon="8.326996017285579"><ele>270.0</ele><time>2026-04-11T11:04:33.002Z</time></trkpt><trkpt lat="45.03511796805807" lon="8.326916828637703"><ele>270.0</ele><time>2026-04-11T11:04:34.002Z</time></trkpt><trkpt lat="45.03519090195449" lon="8.32683993760884"><ele>270.0</ele><time>2026-04-11T11:04:35.002Z</time></trkpt><trkpt lat="45.0352615063835" lon="8.32675817258955"><ele>270.0</ele><time>2026-04-11T11:04:36.002Z</time></trkpt><trkpt lat="45.03533340466357" lon="8.326695985998159"><ele>270.0</ele><time>2026-04-11T11:04:37.002Z</time></trkpt><trkpt lat="45.035395269534284" lon="8.32662559760502"><ele>270.0</ele><time>2026-04-11T11:04:38.002Z</time></trkpt><trkpt lat="45.03546018306691" lon="8.326541479019667"><ele>270.0</ele><time>2026-04-11T11:04:39.002Z</time></trkpt><trkpt lat="45.03551873311445" lon="8.326471523005955"><ele>269.1666666666667</ele><time>2026-04-11T11:04:40.002Z</time></trkpt><trkpt lat="45.035590041307216" lon="8.326391474269263"><ele>268.3333333333333</ele><time>2026-04-11T11:04:41.002Z</time></trkpt><trkpt lat="45.03565186024176" lon="8.326319064497135"><ele>267.5</ele><time>2026-04-11T11:04:42.002Z</time></trkpt><trkpt lat="45.035717403514866" lon="8.32625016825159"><ele>266.66666666666663</ele><time>2026-04-11T11:04:43.002Z</time></trkpt><trkpt lat="45.035785820926634" lon="8.326196006130894"><ele>265.8333333333333</ele><time>2026-04-11T11:04:44.002Z</time></trkpt><trkpt lat="45.03586446780912" lon="8.326151376999105"><ele>265.0</ele><time>2026-04-11T11:04:45.002Z</time></trkpt><trkpt lat="45.03593682569619" lon="8.326123457136765"><ele>265.0</ele><time>2026-04-11T11:04:46.002Z</time></trkpt><trkpt lat="45.03602027003114" lon="8.326121674664478"><ele>265.0</ele><time>2026-04-11T11:04:47.002Z</time></trkpt><trkpt lat="45.03609902332718" lon="8.326129600833372"><ele>265.0</ele><time>2026-04-11T11:04:48.002Z</time></trkpt><trkpt lat="45.03617327746447" lon="8.326146764316922"><ele>265.0</ele><time>2026-04-11T11:04:49.002Z</time></trkpt><trkpt lat="45.03624322871473" lon="8.326151905348329"><ele>265.0</ele><time>2026-04-11T11:04:50.002Z</time></trkpt><trkpt lat="45.036343343918276" lon="8.326143362242123"><ele>265.0</ele><time>2026-04-11T11:04:52.002Z</time></trkpt><trkpt lat="45.03642484851456" lon="8.326076999916538"><ele>265.0</ele><time>2026-04-11T11:04:54.002Z</time></trkpt><trkpt lat="45.03648920475037" lon="8.325972940115966"><ele>265.0</ele><time>2026-04-11T11:04:56.002Z</time></trkpt><trkpt lat="45.036546161975274" lon="8.325809245352954"><ele>265.0</ele><time>2026-04-11T11:04:57.998Z</time></trkpt><trkpt lat="45.036577794681236" lon="8.325696634023984"><ele>265.0</ele><time>2026-04-11T11:04:58.998Z</time></trkpt><trkpt lat="45.03660626329644" lon="8.325576928907271"><ele>265.0</ele><time>2026-04-11T11:04:59.998Z</time></trkpt><trkpt lat="45.03663622853706" lon="8.325452267573958"><ele>263.8333333333333</ele><time>2026-04-11T11:05:00.998Z</time></trkpt><trkpt lat="45.036672076242134" lon="8.325322777854025"><ele>262.66666666666663</ele><time>2026-04-11T11:05:01.998Z</time></trkpt><trkpt lat="45.036702675064554" lon="8.325197849115588"><ele>261.5</ele><time>2026-04-11T11:05:02.998Z</time></trkpt><trkpt lat="45.03672865705323" lon="8.325091028508307"><ele>260.3333333333333</ele><time>2026-04-11T11:05:03.998Z</time></trkpt><trkpt lat="45.036751256636975" lon="8.324975056983941"><ele>259.1666666666667</ele><time>2026-04-11T11:05:04.998Z</time></trkpt><trkpt lat="45.03677394577775" lon="8.324867285498128"><ele>258.0</ele><time>2026-04-11T11:05:05.998Z</time></trkpt><trkpt lat="45.036781852018606" lon="8.324752964171495"><ele>258.0</ele><time>2026-04-11T11:05:06.998Z</time></trkpt><trkpt lat="45.03677990030431" lon="8.324645838276716"><ele>258.0</ele><time>2026-04-11T11:05:07.998Z</time></trkpt><trkpt lat="45.036767262984995" lon="8.324519436247765"><ele>258.0</ele><time>2026-04-11T11:05:08.998Z</time></trkpt><trkpt lat="45.03674821162915" lon="8.324409245371326"><ele>258.0</ele><time>2026-04-11T11:05:09.998Z</time></trkpt><trkpt lat="45.036722717486256" lon="8.324291286523152"><ele>258.0</ele><time>2026-04-11T11:05:10.998Z</time></trkpt><trkpt lat="45.03669101903209" lon="8.324187137565119"><ele>258.0</ele><time>2026-04-11T11:05:11.999Z</time></trkpt><trkpt lat="45.03665879572385" lon="8.324089043915736"><ele>257.99999999999994</ele><time>2026-04-11T11:05:12.999Z</time></trkpt><trkpt lat="45.03665131627044" lon="8.323996317365602"><ele>258.0</ele><time>2026-04-11T11:05:13.999Z</time></trkpt><trkpt lat="45.03665822155841" lon="8.323899751050023"><ele>258.0</ele><time>2026-04-11T11:05:14.999Z</time></trkpt><trkpt lat="45.036695208204456" lon="8.3238253101245"><ele>258.0</ele><time>2026-04-11T11:05:15.999Z</time></trkpt><trkpt lat="45.03674058546079" lon="8.323749860555735"><ele>258.0</ele><time>2026-04-11T11:05:16.999Z</time></trkpt><trkpt lat="45.03680115847407" lon="8.323669739072212"><ele>257.99999999999994</ele><time>2026-04-11T11:05:17.999Z</time></trkpt><trkpt lat="45.03687903172279" lon="8.32358777292826"><ele>258.0</ele><time>2026-04-11T11:05:18.999Z</time></trkpt><trkpt lat="45.03696597115324" lon="8.323503466844627"><ele>256.6</ele><time>2026-04-11T11:05:19.999Z</time></trkpt><trkpt lat="45.037059596500335" lon="8.323421331479109"><ele>255.20000000000002</ele><time>2026-04-11T11:05:20.999Z</time></trkpt><trkpt lat="45.03714780377363" lon="8.323340064759781"><ele>253.8</ele><time>2026-04-11T11:05:21.999Z</time></trkpt><trkpt lat="45.03723422837025" lon="8.32325891016026"><ele>252.4</ele><time>2026-04-11T11:05:22.999Z</time></trkpt><trkpt lat="45.03731676335782" lon="8.323174392084479"><ele>251.0</ele><time>2026-04-11T11:05:23.999Z</time></trkpt><trkpt lat="45.037393505455334" lon="8.323087663066143"><ele>251.8</ele><time>2026-04-11T11:05:24.999Z</time></trkpt><trkpt lat="45.03746929863436" lon="8.322994065109322"><ele>252.60000000000002</ele><time>2026-04-11T11:05:25.999Z</time></trkpt><trkpt lat="45.0375422535764" lon="8.322902910706123"><ele>253.4</ele><time>2026-04-11T11:05:26.999Z</time></trkpt><trkpt lat="45.037610343919425" lon="8.322798389032227"><ele>254.2</ele><time>2026-04-11T11:05:28Z</time></trkpt><trkpt lat="45.037680257284016" lon="8.322705132615772"><ele>255.0</ele><time>2026-04-11T11:05:29Z</time></trkpt><trkpt lat="45.03774812369927" lon="8.322616687546105"><ele>255.0</ele><time>2026-04-11T11:05:30Z</time></trkpt><trkpt lat="45.03780599626742" lon="8.322527818642648"><ele>255.0</ele><time>2026-04-11T11:05:31Z</time></trkpt><trkpt lat="45.03785842023829" lon="8.322443098663841"><ele>255.0</ele><time>2026-04-11T11:05:32Z</time></trkpt><trkpt lat="45.03789099886091" lon="8.322348298896632"><ele>255.0</ele><time>2026-04-11T11:05:33Z</time></trkpt><trkpt lat="45.03791352754463" lon="8.32224736046982"><ele>255.0</ele><time>2026-04-11T11:05:34Z</time></trkpt><trkpt lat="45.03792640828277" lon="8.322140732356234"><ele>255.0</ele><time>2026-04-11T11:05:35Z</time></trkpt><trkpt lat="45.03793089280067" lon="8.322029189043299"><ele>254.42857142857144</ele><time>2026-04-11T11:05:36Z</time></trkpt><trkpt lat="45.037931652225225" lon="8.321915163393605"><ele>253.8571428571429</ele><time>2026-04-11T11:05:37Z</time></trkpt><trkpt lat="45.03793178381951" lon="8.32180797963513"><ele>253.28571428571428</ele><time>2026-04-11T11:05:38Z</time></trkpt><trkpt lat="45.0379386427561" lon="8.321717937481646"><ele>252.71428571428572</ele><time>2026-04-11T11:05:39Z</time></trkpt><trkpt lat="45.03793982303075" lon="8.321625427978871"><ele>252.14285714285714</ele><time>2026-04-11T11:05:40Z</time></trkpt><trkpt lat="45.03794239802005" lon="8.32152006708403"><ele>251.57142857142856</ele><time>2026-04-11T11:05:41Z</time></trkpt><trkpt lat="45.03794753780135" lon="8.321422867365857"><ele>250.99999999999997</ele><time>2026-04-11T11:05:42Z</time></trkpt><trkpt lat="45.0379544625408" lon="8.321311233760174"><ele>252.33333333333334</ele><time>2026-04-11T11:05:43Z</time></trkpt><trkpt lat="45.03797043458259" lon="8.321197295351986"><ele>253.66666666666669</ele><time>2026-04-11T11:05:44Z</time></trkpt><trkpt lat="45.037994221741286" lon="8.32110139901357"><ele>255.0</ele><time>2026-04-11T11:05:45Z</time></trkpt><trkpt lat="45.038032646122595" lon="8.321026051100917"><ele>256.3333333333333</ele><time>2026-04-11T11:05:46Z</time></trkpt><trkpt lat="45.03807223329312" lon="8.320939557463463"><ele>257.66666666666663</ele><time>2026-04-11T11:05:47Z</time></trkpt><trkpt lat="45.03812310772423" lon="8.320844061922632"><ele>259.0</ele><time>2026-04-11T11:05:48Z</time></trkpt><trkpt lat="45.038177233293396" lon="8.320733266601284"><ele>259.0</ele><time>2026-04-11T11:05:49Z</time></trkpt><trkpt lat="45.038228026675114" lon="8.320606351517306"><ele>259.0</ele><time>2026-04-11T11:05:50Z</time></trkpt><trkpt lat="45.03827884283975" lon="8.320460770319466"><ele>259.0</ele><time>2026-04-11T11:05:51Z</time></trkpt><trkpt lat="45.03832317875609" lon="8.320300404146389"><ele>259.0</ele><time>2026-04-11T11:05:52Z</time></trkpt><trkpt lat="45.03837418718086" lon="8.320133782695498"><ele>261.25</ele><time>2026-04-11T11:05:53Z</time></trkpt><trkpt lat="45.038424393790436" lon="8.319965880206928"><ele>263.5</ele><time>2026-04-11T11:05:54Z</time></trkpt><trkpt lat="45.03847666959573" lon="8.319803185886068"><ele>265.75</ele><time>2026-04-11T11:05:55.001Z</time></trkpt><trkpt lat="45.03853123874066" lon="8.319647186247574"><ele>268.0</ele><time>2026-04-11T11:05:56.001Z</time></trkpt><trkpt lat="45.03856550826181" lon="8.319490212070912"><ele>270.25</ele><time>2026-04-11T11:05:57.001Z</time></trkpt><trkpt lat="45.03858304633266" lon="8.319332287741155"><ele>272.5</ele><time>2026-04-11T11:05:58.001Z</time></trkpt><trkpt lat="45.03856939108183" lon="8.319161995614683"><ele>274.75</ele><time>2026-04-11T11:05:59.001Z</time></trkpt><trkpt lat="45.038576075220234" lon="8.31900069581472"><ele>277.0</ele><time>2026-04-11T11:06:00.001Z</time></trkpt><trkpt lat="45.038585301866" lon="8.318840532199589"><ele>277.0</ele><time>2026-04-11T11:06:01.001Z</time></trkpt><trkpt lat="45.03859651167562" lon="8.3186924871938"><ele>277.0</ele><time>2026-04-11T11:06:02.001Z</time></trkpt><trkpt lat="45.03859665919878" lon="8.31856425118003"><ele>277.0</ele><time>2026-04-11T11:06:03.001Z</time></trkpt><trkpt lat="45.03861215834463" lon="8.318434542588676"><ele>277.0</ele><time>2026-04-11T11:06:04.001Z</time></trkpt><trkpt lat="45.038626471303466" lon="8.318331349167918"><ele>277.0</ele><time>2026-04-11T11:06:05.001Z</time></trkpt><trkpt lat="45.038641308850956" lon="8.318236184312452"><ele>277.0</ele><time>2026-04-11T11:06:06.001Z</time></trkpt><trkpt lat="45.03865632307802" lon="8.318123568653657"><ele>277.2</ele><time>2026-04-11T11:06:07.001Z</time></trkpt><trkpt lat="45.038667229797674" lon="8.317987783522321"><ele>277.4</ele><time>2026-04-11T11:06:08.001Z</time></trkpt><trkpt lat="45.03867661473942" lon="8.317832139746935"><ele>277.6</ele><time>2026-04-11T11:06:09.001Z</time></trkpt><trkpt lat="45.03869186743955" lon="8.317671104697181"><ele>277.8</ele><time>2026-04-11T11:06:10.001Z</time></trkpt><trkpt lat="45.03870216113142" lon="8.317508603553362"><ele>278.0</ele><time>2026-04-11T11:06:11.001Z</time></trkpt><trkpt lat="45.03871936979655" lon="8.317356215427443"><ele>276.6</ele><time>2026-04-11T11:06:12.001Z</time></trkpt><trkpt lat="45.03873453215665" lon="8.317214645095854"><ele>275.20000000000005</ele><time>2026-04-11T11:06:13.001Z</time></trkpt><trkpt lat="45.038757882175254" lon="8.317075011344278"><ele>273.8</ele><time>2026-04-11T11:06:14.001Z</time></trkpt><trkpt lat="45.03879069128879" lon="8.316949944235159"><ele>272.40000000000003</ele><time>2026-04-11T11:06:15.001Z</time></trkpt><trkpt lat="45.03884182769814" lon="8.31682268250364"><ele>271.0</ele><time>2026-04-11T11:06:16.001Z</time></trkpt><trkpt lat="45.03889721507476" lon="8.316706143103419"><ele>271.0</ele><time>2026-04-11T11:06:17.001Z</time></trkpt><trkpt lat="45.03895574350278" lon="8.316596585320466"><ele>271.0</ele><time>2026-04-11T11:06:18.001Z</time></trkpt><trkpt lat="45.039009093581285" lon="8.316488349328441"><ele>271.0</ele><time>2026-04-11T11:06:19.001Z</time></trkpt><trkpt lat="45.039060452620056" lon="8.316383466983323"><ele>271.0</ele><time>2026-04-11T11:06:20.001Z</time></trkpt><trkpt lat="45.03910234632911" lon="8.316294173894471"><ele>271.0</ele><time>2026-04-11T11:06:21.001Z</time></trkpt><trkpt lat="45.039139682794264" lon="8.316163199490273"><ele>269.16666666666663</ele><time>2026-04-11T11:06:23.001Z</time></trkpt><trkpt lat="45.03909383879658" lon="8.316036867228668"><ele>267.3333333333333</ele><time>2026-04-11T11:06:25.001Z</time></trkpt><trkpt lat="45.039065884540925" lon="8.31595123744358"><ele>265.5</ele><time>2026-04-11T11:06:26.001Z</time></trkpt><trkpt lat="45.039042420202904" lon="8.315860623397525"><ele>263.6666666666667</ele><time>2026-04-11T11:06:27.002Z</time></trkpt><trkpt lat="45.03902126824685" lon="8.31575233067964"><ele>261.83333333333337</ele><time>2026-04-11T11:06:28.002Z</time></trkpt><trkpt lat="45.0390066327156" lon="8.315641924941984"><ele>260.0</ele><time>2026-04-11T11:06:29.002Z</time></trkpt><trkpt lat="45.03899428617875" lon="8.315507847870844"><ele>260.0</ele><time>2026-04-11T11:06:30.002Z</time></trkpt><trkpt lat="45.03897818884138" lon="8.315362893682211"><ele>260.0</ele><time>2026-04-11T11:06:31.002Z</time></trkpt><trkpt lat="45.03895920478056" lon="8.315214401878952"><ele>260.0</ele><time>2026-04-11T11:06:32.002Z</time></trkpt><trkpt lat="45.03894561098903" lon="8.31505978238664"><ele>260.0</ele><time>2026-04-11T11:06:33.002Z</time></trkpt><trkpt lat="45.038929246920205" lon="8.314906025069005"><ele>260.0</ele><time>2026-04-11T11:06:34.002Z</time></trkpt><trkpt lat="45.038908872799745" lon="8.314767096614437"><ele>261.6666666666667</ele><time>2026-04-11T11:06:35.002Z</time></trkpt><trkpt lat="45.038899128654734" lon="8.314629100181152"><ele>263.33333333333337</ele><time>2026-04-11T11:06:36.002Z</time></trkpt><trkpt lat="45.03889347673787" lon="8.314505619112749"><ele>265.0</ele><time>2026-04-11T11:06:37.002Z</time></trkpt><trkpt lat="45.03887718428582" lon="8.314386582941749"><ele>266.6666666666667</ele><time>2026-04-11T11:06:38.002Z</time></trkpt><trkpt lat="45.03886724612951" lon="8.314280170987782"><ele>268.3333333333333</ele><time>2026-04-11T11:06:39.002Z</time></trkpt><trkpt lat="45.038847466933035" lon="8.314191920062248"><ele>270.0</ele><time>2026-04-11T11:06:40.002Z</time></trkpt><trkpt lat="45.03880758774169" lon="8.314122390679533"><ele>270.0</ele><time>2026-04-11T11:06:41.002Z</time></trkpt><trkpt lat="45.0387572406582" lon="8.314040416552894"><ele>270.0</ele><time>2026-04-11T11:06:42.002Z</time></trkpt><trkpt lat="45.03870064545959" lon="8.313961562827252"><ele>270.0</ele><time>2026-04-11T11:06:43.002Z</time></trkpt><trkpt lat="45.03864857741506" lon="8.31387401751738"><ele>270.0</ele><time>2026-04-11T11:06:44.002Z</time></trkpt><trkpt lat="45.03860890560699" lon="8.313800474537603"><ele>270.0</ele><time>2026-04-11T11:06:45.002Z</time></trkpt><trkpt lat="45.03857594606982" lon="8.313686516801853"><ele>270.0</ele><time>2026-04-11T11:06:47.002Z</time></trkpt><trkpt lat="45.03858552558434" lon="8.313576023005206"><ele>270.1666666666667</ele><time>2026-04-11T11:06:49.002Z</time></trkpt><trkpt lat="45.038659467933755" lon="8.313466090046562"><ele>270.3333333333333</ele><time>2026-04-11T11:06:51.002Z</time></trkpt><trkpt lat="45.03869739008673" lon="8.313382688470812"><ele>270.5</ele><time>2026-04-11T11:06:52.002Z</time></trkpt><trkpt lat="45.038751607468434" lon="8.313310102392602"><ele>270.66666666666663</ele><time>2026-04-11T11:06:53.002Z</time></trkpt><trkpt lat="45.038813169292574" lon="8.313236141250055"><ele>270.8333333333333</ele><time>2026-04-11T11:06:54.002Z</time></trkpt><trkpt lat="45.03888855668035" lon="8.313180891531852"><ele>271.0</ele><time>2026-04-11T11:06:55.002Z</time></trkpt><trkpt lat="45.038963416420266" lon="8.31312962397121"><ele>271.0</ele><time>2026-04-11T11:06:56.002Z</time></trkpt><trkpt lat="45.03904854238628" lon="8.313075203237473"><ele>271.0</ele><time>2026-04-11T11:06:57.002Z</time></trkpt><trkpt lat="45.039134643464564" lon="8.3130294480666"><ele>271.0</ele><time>2026-04-11T11:06:58.002Z</time></trkpt><trkpt lat="45.03921830321075" lon="8.312995730920026"><ele>271.0</ele><time>2026-04-11T11:06:59.002Z</time></trkpt><trkpt lat="45.03929946928431" lon="8.312964736892225"><ele>271.0</ele><time>2026-04-11T11:07:00.003Z</time></trkpt><trkpt lat="45.03938587059502" lon="8.312933220526894"><ele>271.0</ele><time>2026-04-11T11:07:01.003Z</time></trkpt><trkpt lat="45.03946202968813" lon="8.3129039888278"><ele>271.40000000000003</ele><time>2026-04-11T11:07:02.003Z</time></trkpt><trkpt lat="45.03952866545273" lon="8.312889029632913"><ele>271.8</ele><time>2026-04-11T11:07:03.003Z</time></trkpt><trkpt lat="45.0396428745714" lon="8.312856726656834"><ele>272.20000000000005</ele><time>2026-04-11T11:07:04.999Z</time></trkpt><trkpt lat="45.0397507254498" lon="8.312832362430315"><ele>272.6</ele><time>2026-04-11T11:07:06.999Z</time></trkpt><trkpt lat="45.03983132761435" lon="8.312817848380272"><ele>273.0</ele><time>2026-04-11T11:07:08.999Z</time></trkpt><trkpt lat="45.039923136214526" lon="8.312811648503752"><ele>272.5</ele><time>2026-04-11T11:10:24.001Z</time></trkpt><trkpt lat="45.03999296725426" lon="8.31279953081123"><ele>272.0</ele><time>2026-04-11T11:10:26.002Z</time></trkpt><trkpt lat="45.04005175587708" lon="8.312714280237925"><ele>271.5</ele><time>2026-04-11T11:10:28.002Z</time></trkpt><trkpt lat="45.04012957543097" lon="8.312609309137425"><ele>271.0</ele><time>2026-04-11T11:10:30.002Z</time></trkpt><trkpt lat="45.04017947787989" lon="8.312553743763173"><ele>270.5</ele><time>2026-04-11T11:10:31.002Z</time></trkpt><trkpt lat="45.04022865219331" lon="8.312494093265268"><ele>270.0</ele><time>2026-04-11T11:10:32.002Z</time></trkpt><trkpt lat="45.040275189083026" lon="8.312419624384757"><ele>270.0</ele><time>2026-04-11T11:10:33.002Z</time></trkpt><trkpt lat="45.04032031950217" lon="8.312336794711538"><ele>270.0</ele><time>2026-04-11T11:10:34.002Z</time></trkpt><trkpt lat="45.04036042290317" lon="8.312248864861454"><ele>270.0</ele><time>2026-04-11T11:10:35.002Z</time></trkpt><trkpt lat="45.0403979024373" lon="8.31216921228782"><ele>270.0</ele><time>2026-04-11T11:10:36.002Z</time></trkpt><trkpt lat="45.04043805740459" lon="8.312083429222474"><ele>270.0</ele><time>2026-04-11T11:10:37.002Z</time></trkpt><trkpt lat="45.04048150282912" lon="8.311982382626073"><ele>270.0</ele><time>2026-04-11T11:10:38.002Z</time></trkpt><trkpt lat="45.040529209920564" lon="8.31188410091434"><ele>268.6666666666667</ele><time>2026-04-11T11:10:39.002Z</time></trkpt><trkpt lat="45.04057459329383" lon="8.3117809359425"><ele>267.3333333333333</ele><time>2026-04-11T11:10:40.002Z</time></trkpt><trkpt lat="45.04061472317343" lon="8.3116886761459"><ele>266.0</ele><time>2026-04-11T11:10:41.002Z</time></trkpt><trkpt lat="45.04065198154278" lon="8.311599545310383"><ele>264.66666666666663</ele><time>2026-04-11T11:10:42.002Z</time></trkpt><trkpt lat="45.04069074826318" lon="8.311513011716087"><ele>263.3333333333333</ele><time>2026-04-11T11:10:43.002Z</time></trkpt><trkpt lat="45.040725689691115" lon="8.311427370277752"><ele>262.0</ele><time>2026-04-11T11:10:44.002Z</time></trkpt><trkpt lat="45.04077305466951" lon="8.311278715120736"><ele>263.3333333333333</ele><time>2026-04-11T11:10:46.002Z</time></trkpt><trkpt lat="45.040818688285206" lon="8.311157039783968"><ele>264.66666666666663</ele><time>2026-04-11T11:10:48.002Z</time></trkpt><trkpt lat="45.04084852560137" lon="8.311067352118998"><ele>266.0</ele><time>2026-04-11T11:10:50.002Z</time></trkpt><trkpt lat="45.04087770495095" lon="8.310985808309718"><ele>267.3333333333333</ele><time>2026-04-11T11:10:53.002Z</time></trkpt><trkpt lat="45.040875867868756" lon="8.310880031386144"><ele>268.6666666666667</ele><time>2026-04-11T11:10:57.002Z</time></trkpt><trkpt lat="45.040868911264035" lon="8.310780538433525"><ele>270.0</ele><time>2026-04-11T11:10:58.002Z</time></trkpt><trkpt lat="45.04087784923968" lon="8.310623557707814"><ele>270.2</ele><time>2026-04-11T11:11:00.002Z</time></trkpt><trkpt lat="45.04087529197126" lon="8.310418853011134"><ele>270.4</ele><time>2026-04-11T11:11:02.002Z</time></trkpt><trkpt lat="45.04087222067123" lon="8.310290409400231"><ele>270.6</ele><time>2026-04-11T11:11:03.002Z</time></trkpt><trkpt lat="45.04087334232076" lon="8.310158134239215"><ele>270.8</ele><time>2026-04-11T11:11:04.002Z</time></trkpt><trkpt lat="45.04086564635384" lon="8.310029281999471"><ele>271.0</ele><time>2026-04-11T11:11:05.002Z</time></trkpt><trkpt lat="45.04086460302171" lon="8.309914669274505"><ele>271.0</ele><time>2026-04-11T11:11:06.002Z</time></trkpt><trkpt lat="45.04086453189356" lon="8.309783363741918"><ele>271.0</ele><time>2026-04-11T11:11:07.003Z</time></trkpt><trkpt lat="45.040866066743476" lon="8.309636460461762"><ele>271.0</ele><time>2026-04-11T11:11:08.003Z</time></trkpt><trkpt lat="45.04086133657865" lon="8.309480053333777"><ele>271.0</ele><time>2026-04-11T11:11:09.003Z</time></trkpt><trkpt lat="45.04085589460219" lon="8.30931769422999"><ele>271.0</ele><time>2026-04-11T11:11:10.003Z</time></trkpt><trkpt lat="45.040851725659294" lon="8.309161341936992"><ele>271.8</ele><time>2026-04-11T11:11:11.003Z</time></trkpt><trkpt lat="45.04084405116859" lon="8.309008865328584"><ele>272.6</ele><time>2026-04-11T11:11:12.003Z</time></trkpt><trkpt lat="45.04084183232012" lon="8.308860621579925"><ele>273.4</ele><time>2026-04-11T11:11:13.003Z</time></trkpt><trkpt lat="45.04083081859276" lon="8.30872388255176"><ele>274.2</ele><time>2026-04-11T11:11:14.003Z</time></trkpt><trkpt lat="45.040831964477974" lon="8.308614746118318"><ele>275.0</ele><time>2026-04-11T11:11:15.003Z</time></trkpt><trkpt lat="45.040831988121404" lon="8.30851172914618"><ele>275.6666666666667</ele><time>2026-04-11T11:11:16Z</time></trkpt><trkpt lat="45.04083469379609" lon="8.308393696705505"><ele>276.33333333333337</ele><time>2026-04-11T11:11:18Z</time></trkpt><trkpt lat="45.040798615160554" lon="8.308318931047339"><ele>277.0</ele><time>2026-04-11T11:11:22Z</time></trkpt><trkpt lat="45.04077416526404" lon="8.308205046342783"><ele>277.6666666666667</ele><time>2026-04-11T11:11:49Z</time></trkpt><trkpt lat="45.040741840719335" lon="8.308123503632828"><ele>278.3333333333333</ele><time>2026-04-11T11:11:52Z</time></trkpt><trkpt lat="45.04071122236116" lon="8.30801778504741"><ele>279.0</ele><time>2026-04-11T11:11:55Z</time></trkpt><trkpt lat="45.040674624630896" lon="8.307920879881504"><ele>277.1428571428571</ele><time>2026-04-11T11:11:59.001Z</time></trkpt><trkpt lat="45.04063108316671" lon="8.30784159564324"><ele>275.2857142857143</ele><time>2026-04-11T11:12:01.001Z</time></trkpt><trkpt lat="45.04059297883758" lon="8.307732542328495"><ele>273.42857142857144</ele><time>2026-04-11T11:12:09.001Z</time></trkpt><trkpt lat="45.04055954275446" lon="8.307653378038381"><ele>271.57142857142856</ele><time>2026-04-11T11:12:11.001Z</time></trkpt><trkpt lat="45.04052449795375" lon="8.307572916263364"><ele>269.7142857142857</ele><time>2026-04-11T11:12:14.001Z</time></trkpt><trkpt lat="45.040485741077894" lon="8.307489886442658"><ele>267.85714285714283</ele><time>2026-04-11T11:12:17.001Z</time></trkpt><trkpt lat="45.04043139404151" lon="8.307401722703975"><ele>266.0</ele><time>2026-04-11T11:12:20.001Z</time></trkpt><trkpt lat="45.04038486978976" lon="8.307330243318804"><ele>266.0</ele><time>2026-04-11T11:12:23.001Z</time></trkpt><trkpt lat="45.04037640932912" lon="8.307215819374395"><ele>266.0</ele><time>2026-04-11T11:12:31.001Z</time></trkpt><trkpt lat="45.040418518240976" lon="8.307139803203741"><ele>266.0</ele><time>2026-04-11T11:12:34.002Z</time></trkpt><trkpt lat="45.04044187743417" lon="8.307240420078488"><ele>266.0</ele><time>2026-04-11T11:12:38.002Z</time></trkpt><trkpt lat="45.040371934281936" lon="8.307252186132489"><ele>266.0</ele><time>2026-04-11T11:13:09.002Z</time></trkpt><trkpt lat="45.04030209397589" lon="8.307199301810455"><ele>266.0</ele><time>2026-04-11T11:13:18.003Z</time></trkpt><trkpt lat="45.04025208166561" lon="8.307116205929727"><ele>263.33333333333337</ele><time>2026-04-11T11:13:21.003Z</time></trkpt><trkpt lat="45.04022319515897" lon="8.307022144489828"><ele>260.6666666666667</ele><time>2026-04-11T11:13:22.999Z</time></trkpt><trkpt lat="45.0401880872647" lon="8.306935099991646"><ele>258.0</ele><time>2026-04-11T11:13:25.999Z</time></trkpt><trkpt lat="45.04016062830098" lon="8.30684574877352"><ele>255.33333333333331</ele><time>2026-04-11T11:13:28.999Z</time></trkpt><trkpt lat="45.040124496359766" lon="8.306748032168493"><ele>252.66666666666666</ele><time>2026-04-11T11:13:31.999Z</time></trkpt><trkpt lat="45.04015191238337" lon="8.30685757151151"><ele>250.0</ele><time>2026-04-11T11:15:09.002Z</time></trkpt><trkpt lat="45.0401896467076" lon="8.306954565195765"><ele>249.99999999999997</ele><time>2026-04-11T11:15:11.002Z</time></trkpt><trkpt lat="45.04023130984858" lon="8.307040799840612"><ele>250.0</ele><time>2026-04-11T11:15:13.003Z</time></trkpt><trkpt lat="45.04026547706402" lon="8.307125488927083"><ele>250.0</ele><time>2026-04-11T11:15:14.003Z</time></trkpt><trkpt lat="45.040305551550276" lon="8.307199647389748"><ele>250.0</ele><time>2026-04-11T11:15:15.003Z</time></trkpt><trkpt lat="45.04036428652582" lon="8.307301916592673"><ele>249.99999999999997</ele><time>2026-04-11T11:15:17.003Z</time></trkpt><trkpt lat="45.04043186560297" lon="8.307399520829138"><ele>250.0</ele><time>2026-04-11T11:15:19.003Z</time></trkpt><trkpt lat="45.040498023228515" lon="8.307527543785797"><ele>252.66666666666666</ele><time>2026-04-11T11:15:21.003Z</time></trkpt><trkpt lat="45.04053539808488" lon="8.307611171040728"><ele>255.33333333333331</ele><time>2026-04-11T11:15:22.003Z</time></trkpt><trkpt lat="45.040589990158324" lon="8.307746616061875"><ele>258.0</ele><time>2026-04-11T11:15:24.003Z</time></trkpt><trkpt lat="45.04062501340884" lon="8.307825993398165"><ele>260.6666666666667</ele><time>2026-04-11T11:15:25.003Z</time></trkpt><trkpt lat="45.04065536786601" lon="8.307909597970571"><ele>263.33333333333337</ele><time>2026-04-11T11:15:26.003Z</time></trkpt><trkpt lat="45.04070498560853" lon="8.308018008205792"><ele>266.0</ele><time>2026-04-11T11:15:27.003Z</time></trkpt><trkpt lat="45.04075793175331" lon="8.30818019929989"><ele>266.83333333333337</ele><time>2026-04-11T11:15:29Z</time></trkpt><trkpt lat="45.04078996374042" lon="8.308305450621093"><ele>267.6666666666667</ele><time>2026-04-11T11:15:31Z</time></trkpt><trkpt lat="45.040746309147195" lon="8.308374227725631"><ele>268.5</ele><time>2026-04-11T11:15:35Z</time></trkpt><trkpt lat="45.040689544575415" lon="8.308334552317817"><ele>269.3333333333333</ele><time>2026-04-11T11:15:37Z</time></trkpt><trkpt lat="45.04063116605943" lon="8.308266514689974"><ele>270.16666666666663</ele><time>2026-04-11T11:17:07.002Z</time></trkpt><trkpt lat="45.04052455126005" lon="8.308216773631289"><ele>271.0</ele><time>2026-04-11T11:17:09.002Z</time></trkpt><trkpt lat="45.04041734257878" lon="8.308124160178227"><ele>271.0</ele><time>2026-04-11T11:17:11.002Z</time></trkpt><trkpt lat="45.04034944435385" lon="8.308081554569442"><ele>271.0</ele><time>2026-04-11T11:17:12.003Z</time></trkpt><trkpt lat="45.04027562758479" lon="8.308034053268134"><ele>271.0</ele><time>2026-04-11T11:17:13.003Z</time></trkpt><trkpt lat="45.040200616305455" lon="8.307984342630151"><ele>271.0</ele><time>2026-04-11T11:17:14.003Z</time></trkpt><trkpt lat="45.04012031461625" lon="8.307930279470378"><ele>271.0</ele><time>2026-04-11T11:17:15.003Z</time></trkpt><trkpt lat="45.04004336364329" lon="8.307878099230136"><ele>271.0</ele><time>2026-04-11T11:17:16.003Z</time></trkpt><trkpt lat="45.03996559495632" lon="8.307824325582883"><ele>269.5</ele><time>2026-04-11T11:17:17.003Z</time></trkpt><trkpt lat="45.039885331753275" lon="8.307768827087136"><ele>268.0</ele><time>2026-04-11T11:17:18.003Z</time></trkpt><trkpt lat="45.039807860126224" lon="8.307715258842942"><ele>266.5</ele><time>2026-04-11T11:17:19.003Z</time></trkpt><trkpt lat="45.039731812787664" lon="8.307664976002629"><ele>265.0</ele><time>2026-04-11T11:17:20.003Z</time></trkpt><trkpt lat="45.03965182573185" lon="8.307638083526012"><ele>263.5</ele><time>2026-04-11T11:17:21.003Z</time></trkpt><trkpt lat="45.03958161462558" lon="8.307588586484252"><ele>262.0</ele><time>2026-04-11T11:17:22.003Z</time></trkpt><trkpt lat="45.03951102988078" lon="8.30755386519881"><ele>262.0</ele><time>2026-04-11T11:17:23.003Z</time></trkpt><trkpt lat="45.03944224371689" lon="8.307524394308475"><ele>262.0</ele><time>2026-04-11T11:17:24.003Z</time></trkpt><trkpt lat="45.039376845765794" lon="8.30750037118382"><ele>262.0</ele><time>2026-04-11T11:17:25.003Z</time></trkpt><trkpt lat="45.039280842768854" lon="8.30737804145415"><ele>262.0</ele><time>2026-04-11T11:17:27.003Z</time></trkpt><trkpt lat="45.03917710009817" lon="8.307442519115114"><ele>262.0</ele><time>2026-04-11T11:17:28.003Z</time></trkpt><trkpt lat="45.03909348291979" lon="8.307421269358123"><ele>262.2</ele><time>2026-04-11T11:17:29.003Z</time></trkpt><trkpt lat="45.0390022759143" lon="8.307400507456578"><ele>262.4</ele><time>2026-04-11T11:17:30.003Z</time></trkpt><trkpt lat="45.038907628867236" lon="8.307384344918137"><ele>262.6</ele><time>2026-04-11T11:17:31.003Z</time></trkpt><trkpt lat="45.03881277996772" lon="8.307370151723523"><ele>262.8</ele><time>2026-04-11T11:17:32.003Z</time></trkpt><trkpt lat="45.03871917221199" lon="8.307354213885944"><ele>263.0</ele><time>2026-04-11T11:17:33.003Z</time></trkpt><trkpt lat="45.03863015249558" lon="8.307338842775472"><ele>263.0</ele><time>2026-04-11T11:17:34Z</time></trkpt><trkpt lat="45.038542546745994" lon="8.30730535240023"><ele>263.0</ele><time>2026-04-11T11:17:35Z</time></trkpt><trkpt lat="45.03847070138264" lon="8.307252277798836"><ele>263.0</ele><time>2026-04-11T11:17:36Z</time></trkpt><trkpt lat="45.038398898803734" lon="8.30717355299514"><ele>263.0</ele><time>2026-04-11T11:17:37Z</time></trkpt><trkpt lat="45.03835301976544" lon="8.307058009780121"><ele>263.0</ele><time>2026-04-11T11:17:38Z</time></trkpt><trkpt lat="45.038297359443526" lon="8.306960899101894"><ele>263.0</ele><time>2026-04-11T11:17:39Z</time></trkpt><trkpt lat="45.03826008549661" lon="8.306849979020436"><ele>263.5</ele><time>2026-04-11T11:17:40Z</time></trkpt><trkpt lat="45.03821709200869" lon="8.306713716923886"><ele>264.0</ele><time>2026-04-11T11:17:42Z</time></trkpt><trkpt lat="45.03826258073742" lon="8.306856959041733"><ele>264.5</ele><time>2026-04-11T11:18:06Z</time></trkpt><trkpt lat="45.038314253506435" lon="8.307008141612645"><ele>265.0</ele><time>2026-04-11T11:18:08Z</time></trkpt><trkpt lat="45.03838397475564" lon="8.307145540913352"><ele>264.5</ele><time>2026-04-11T11:18:10Z</time></trkpt><trkpt lat="45.03847172507166" lon="8.307255066432385"><ele>264.0</ele><time>2026-04-11T11:18:12Z</time></trkpt><trkpt lat="45.03850992507465" lon="8.307362308590598"><ele>263.5</ele><time>2026-04-11T11:18:13.001Z</time></trkpt><trkpt lat="45.03869481496204" lon="8.30735592341074"><ele>263.0</ele><time>2026-04-11T11:18:15.001Z</time></trkpt><trkpt lat="45.03876944212128" lon="8.307368373548801"><ele>263.0</ele><time>2026-04-11T11:18:16.001Z</time></trkpt><trkpt lat="45.03884839805942" lon="8.307379833737473"><ele>263.0</ele><time>2026-04-11T11:18:17.001Z</time></trkpt><trkpt lat="45.03893536026664" lon="8.307396826405286"><ele>263.0</ele><time>2026-04-11T11:18:18.001Z</time></trkpt><trkpt lat="45.03901313893216" lon="8.307400971955866"><ele>263.0</ele><time>2026-04-11T11:18:19.001Z</time></trkpt><trkpt lat="45.03909236869621" lon="8.307421229545035"><ele>263.0</ele><time>2026-04-11T11:18:20.001Z</time></trkpt><trkpt lat="45.03916472691447" lon="8.307445463496572"><ele>263.0</ele><time>2026-04-11T11:18:21.001Z</time></trkpt><trkpt lat="45.039263518624246" lon="8.307489015101922"><ele>263.0</ele><time>2026-04-11T11:18:23.001Z</time></trkpt><trkpt lat="45.039327999462046" lon="8.307471486842346"><ele>263.0</ele><time>2026-04-11T11:18:27.001Z</time></trkpt><trkpt lat="45.039275865265324" lon="8.307418952220102"><ele>263.0</ele><time>2026-04-11T11:18:32.001Z</time></trkpt><trkpt lat="45.03920214929725" lon="8.307392313802682"><ele>263.0</ele><time>2026-04-11T11:18:34.001Z</time></trkpt><trkpt lat="45.03909815981109" lon="8.307344870709331"><ele>263.0</ele><time>2026-04-11T11:18:36.001Z</time></trkpt><trkpt lat="45.03903428161238" lon="8.307324239714337"><ele>263.0</ele><time>2026-04-11T11:18:37.001Z</time></trkpt><trkpt lat="45.038861862215754" lon="8.307279880847135"><ele>263.0</ele><time>2026-04-11T11:18:39.001Z</time></trkpt><trkpt lat="45.03879114045376" lon="8.307257050743626"><ele>263.0</ele><time>2026-04-11T11:18:40.001Z</time></trkpt><trkpt lat="45.03871971478463" lon="8.30723394556263"><ele>263.0</ele><time>2026-04-11T11:18:41.001Z</time></trkpt><trkpt lat="45.03865545752835" lon="8.307205533784847"><ele>263.0</ele><time>2026-04-11T11:18:42.001Z</time></trkpt><trkpt lat="45.03856907423344" lon="8.307280720644044"><ele>263.0</ele><time>2026-04-11T11:18:43.001Z</time></trkpt><trkpt lat="45.038506867892956" lon="8.307235238375979"><ele>263.0</ele><time>2026-04-11T11:18:44.001Z</time></trkpt><trkpt lat="45.03844926272289" lon="8.307174266371435"><ele>263.33333333333337</ele><time>2026-04-11T11:18:45.001Z</time></trkpt><trkpt lat="45.03838590435506" lon="8.30708402651055"><ele>263.6666666666667</ele><time>2026-04-11T11:18:46.001Z</time></trkpt><trkpt lat="45.03834312147397" lon="8.3069848625788"><ele>264.0</ele><time>2026-04-11T11:18:47.002Z</time></trkpt><trkpt lat="45.03830977809072" lon="8.306891127680958"><ele>264.3333333333333</ele><time>2026-04-11T11:18:48.002Z</time></trkpt><trkpt lat="45.03827450331559" lon="8.306791963260988"><ele>264.66666666666663</ele><time>2026-04-11T11:18:49.002Z</time></trkpt><trkpt lat="45.03824825737561" lon="8.306693059997299"><ele>265.0</ele><time>2026-04-11T11:18:50.002Z</time></trkpt><trkpt lat="45.03821517889906" lon="8.306566324820691"><ele>265.2857142857143</ele><time>2026-04-11T11:18:51.002Z</time></trkpt><trkpt lat="45.03819480510033" lon="8.30647851438685"><ele>265.57142857142856</ele><time>2026-04-11T11:18:52.002Z</time></trkpt><trkpt lat="45.03817279914903" lon="8.306378803240294"><ele>265.8571428571429</ele><time>2026-04-11T11:18:53.002Z</time></trkpt><trkpt lat="45.03815420285838" lon="8.306283563241442"><ele>266.1428571428571</ele><time>2026-04-11T11:18:54.002Z</time></trkpt><trkpt lat="45.038125357810586" lon="8.306184422732086"><ele>266.42857142857144</ele><time>2026-04-11T11:18:56.002Z</time></trkpt><trkpt lat="45.0380715375528" lon="8.306118156328473"><ele>266.7142857142857</ele><time>2026-04-11T11:18:57.002Z</time></trkpt><trkpt lat="45.03802330465" lon="8.306018744524662"><ele>267.0</ele><time>2026-04-11T11:18:59.002Z</time></trkpt><trkpt lat="45.03799065903794" lon="8.305882159830904"><ele>261.0</ele><time>2026-04-11T11:19:01.002Z</time></trkpt><trkpt lat="45.03821387378939" lon="8.305207968607524"><ele>261.0</ele><time>2026-04-11T11:19:02.002Z</time></trkpt><trkpt lat="45.0381563147436" lon="8.30511246342229"><ele>261.0</ele><time>2026-04-11T11:19:03.002Z</time></trkpt><trkpt lat="45.038097602693895" lon="8.305025508938078"><ele>261.0</ele><time>2026-04-11T11:19:04.002Z</time></trkpt><trkpt lat="45.03803858389316" lon="8.304940332386506"><ele>261.0</ele><time>2026-04-11T11:19:05.002Z</time></trkpt><trkpt lat="45.0379762732255" lon="8.304855198524768"><ele>261.0</ele><time>2026-04-11T11:19:06.002Z</time></trkpt><trkpt lat="45.03792174370847" lon="8.304792625317308"><ele>261.0</ele><time>2026-04-11T11:19:07.002Z</time></trkpt><trkpt lat="45.03786025027154" lon="8.30473849481589"><ele>257.0</ele><time>2026-04-11T11:19:08.002Z</time></trkpt><trkpt lat="45.03779216293331" lon="8.304651280833516"><ele>253.00000000000003</ele><time>2026-04-11T11:19:09.002Z</time></trkpt><trkpt lat="45.03772240192161" lon="8.304570910555"><ele>249.00000000000003</ele><time>2026-04-11T11:19:10.002Z</time></trkpt><trkpt lat="45.03765078095485" lon="8.304486096664293"><ele>245.0</ele><time>2026-04-11T11:19:11.002Z</time></trkpt><trkpt lat="45.03757811143106" lon="8.304395332443622"><ele>241.0</ele><time>2026-04-11T11:19:12.002Z</time></trkpt><trkpt lat="45.03750766758735" lon="8.304304115878113"><ele>242.49999999999997</ele><time>2026-04-11T11:19:13.002Z</time></trkpt><trkpt lat="45.03744059717669" lon="8.304229744925147"><ele>244.0</ele><time>2026-04-11T11:19:14.002Z</time></trkpt><trkpt lat="45.03738196881826" lon="8.304164613789325"><ele>245.5</ele><time>2026-04-11T11:19:15.002Z</time></trkpt><trkpt lat="45.03732093669981" lon="8.304106434371628"><ele>247.0</ele><time>2026-04-11T11:19:16.002Z</time></trkpt><trkpt lat="45.03725973499644" lon="8.304042867353301"><ele>248.49999999999997</ele><time>2026-04-11T11:19:17.002Z</time></trkpt><trkpt lat="45.03719955670254" lon="8.303983317927383"><ele>250.0</ele><time>2026-04-11T11:19:18.002Z</time></trkpt><trkpt lat="45.03713090832515" lon="8.303926236595487"><ele>246.66666666666666</ele><time>2026-04-11T11:19:19.002Z</time></trkpt><trkpt lat="45.03707024019936" lon="8.303849492816546"><ele>243.33333333333331</ele><time>2026-04-11T11:19:20.002Z</time></trkpt><trkpt lat="45.03700283808236" lon="8.303798863033373"><ele>240.0</ele><time>2026-04-11T11:19:21.002Z</time></trkpt><trkpt lat="45.036938685223475" lon="8.30373379375316"><ele>236.66666666666669</ele><time>2026-04-11T11:19:22.003Z</time></trkpt><trkpt lat="45.03686616339002" lon="8.303680735309252"><ele>233.33333333333334</ele><time>2026-04-11T11:19:23.003Z</time></trkpt><trkpt lat="45.036752712087385" lon="8.303625153186882"><ele>230.0</ele><time>2026-04-11T11:19:25.003Z</time></trkpt><trkpt lat="45.0366421879334" lon="8.303588130903867"><ele>230.00000000000003</ele><time>2026-04-11T11:19:27.003Z</time></trkpt><trkpt lat="45.03656012729484" lon="8.303598979670618"><ele>230.0</ele><time>2026-04-11T11:19:29.003Z</time></trkpt><trkpt lat="45.03648939539186" lon="8.30354714110844"><ele>230.0</ele><time>2026-04-11T11:19:33.003Z</time></trkpt><trkpt lat="45.036495491060485" lon="8.303443630847601"><ele>230.0</ele><time>2026-04-11T11:19:41Z</time></trkpt><trkpt lat="45.036575619115304" lon="8.303401285387853"><ele>230.00000000000003</ele><time>2026-04-11T11:19:43Z</time></trkpt><trkpt lat="45.03669061764211" lon="8.303406239531844"><ele>230.0</ele><time>2026-04-11T11:19:45Z</time></trkpt><trkpt lat="45.03676138932625" lon="8.3034126004205"><ele>230.0</ele><time>2026-04-11T11:19:46Z</time></trkpt><trkpt lat="45.03684849152829" lon="8.30341671793241"><ele>230.0</ele><time>2026-04-11T11:19:47Z</time></trkpt><trkpt lat="45.03692267946991" lon="8.303422531033263"><ele>230.0</ele><time>2026-04-11T11:19:48Z</time></trkpt><trkpt lat="45.03704902272322" lon="8.30343645992111"><ele>230.0</ele><time>2026-04-11T11:19:50Z</time></trkpt><trkpt lat="45.03716632196781" lon="8.303462987849704"><ele>230.0</ele><time>2026-04-11T11:19:52Z</time></trkpt><trkpt lat="45.03727152124302" lon="8.303498946794317"><ele>230.00000000000003</ele><time>2026-04-11T11:19:54Z</time></trkpt><trkpt lat="45.03735064821923" lon="8.303544382048175"><ele>230.0</ele><time>2026-04-11T11:19:56Z</time></trkpt><trkpt lat="45.037438520988495" lon="8.303603249235282"><ele>230.0</ele><time>2026-04-11T11:19:58Z</time></trkpt><trkpt lat="45.037534063669256" lon="8.303675481786975"><ele>230.0</ele><time>2026-04-11T11:20:00Z</time></trkpt><trkpt lat="45.037597320811884" lon="8.303737021943578"><ele>230.00000000000003</ele><time>2026-04-11T11:20:02Z</time></trkpt><trkpt lat="45.0376627498325" lon="8.303774419526764"><ele>230.0</ele><time>2026-04-11T11:20:04Z</time></trkpt><trkpt lat="45.037708973681696" lon="8.303704809181843"><ele>230.00000000000003</ele><time>2026-04-11T11:20:31.001Z</time></trkpt><trkpt lat="45.03776479813835" lon="8.303658608133173"><ele>230.0</ele><time>2026-04-11T11:20:36.001Z</time></trkpt><trkpt lat="45.03772765758964" lon="8.303759183885985"><ele>230.0</ele><time>2026-04-11T11:20:41.001Z</time></trkpt><trkpt lat="45.03762868075262" lon="8.303738954478458"><ele>230.0</ele><time>2026-04-11T11:20:43.001Z</time></trkpt><trkpt lat="45.03756455029335" lon="8.30369003178281"><ele>230.00000000000003</ele><time>2026-04-11T11:20:48.002Z</time></trkpt><trkpt lat="45.03745366322559" lon="8.30360524486971"><ele>230.0</ele><time>2026-04-11T11:20:50.002Z</time></trkpt><trkpt lat="45.037385857247344" lon="8.303561626656883"><ele>230.00000000000003</ele><time>2026-04-11T11:20:51.002Z</time></trkpt><trkpt lat="45.03732617670271" lon="8.303517280537196"><ele>230.0</ele><time>2026-04-11T11:20:52.002Z</time></trkpt><trkpt lat="45.03726161177504" lon="8.30348252035904"><ele>230.0</ele><time>2026-04-11T11:20:53.002Z</time></trkpt><trkpt lat="45.03719374034049" lon="8.303459753399197"><ele>230.0</ele><time>2026-04-11T11:20:54.002Z</time></trkpt><trkpt lat="45.037117141778815" lon="8.303437370931388"><ele>230.00000000000003</ele><time>2026-04-11T11:20:55.002Z</time></trkpt><trkpt lat="45.03703323578901" lon="8.303424291912883"><ele>230.0</ele><time>2026-04-11T11:20:56.002Z</time></trkpt><trkpt lat="45.03694489336582" lon="8.303417212035171"><ele>230.00000000000003</ele><time>2026-04-11T11:20:57.002Z</time></trkpt><trkpt lat="45.03685550846287" lon="8.303409498468099"><ele>230.0</ele><time>2026-04-11T11:20:58.002Z</time></trkpt><trkpt lat="45.03676608790628" lon="8.303406471145626"><ele>230.0</ele><time>2026-04-11T11:20:59.002Z</time></trkpt><trkpt lat="45.03668528198422" lon="8.303405473452381"><ele>230.0</ele><time>2026-04-11T11:21:00.002Z</time></trkpt><trkpt lat="45.03661076012626" lon="8.303403400581356"><ele>230.00000000000003</ele><time>2026-04-11T11:21:01.002Z</time></trkpt><trkpt lat="45.03652198991064" lon="8.30341858900633"><ele>230.0</ele><time>2026-04-11T11:21:03.002Z</time></trkpt><trkpt lat="45.03645797048377" lon="8.303504422306336"><ele>229.50000000000003</ele><time>2026-04-11T11:21:06.002Z</time></trkpt><trkpt lat="45.03637636861408" lon="8.303521461077073"><ele>229.0</ele><time>2026-04-11T11:21:09.002Z</time></trkpt><trkpt lat="45.03631198706736" lon="8.30344844991732"><ele>228.5</ele><time>2026-04-11T11:21:12.002Z</time></trkpt><trkpt lat="45.03627156983261" lon="8.30334367953786"><ele>228.0</ele><time>2026-04-11T11:21:15.002Z</time></trkpt><trkpt lat="45.03626887392002" lon="8.303232931345146"><ele>227.50000000000003</ele><time>2026-04-11T11:21:18.002Z</time></trkpt><trkpt lat="45.036256516133754" lon="8.303104442149905"><ele>227.0</ele><time>2026-04-11T11:21:20.002Z</time></trkpt><trkpt lat="45.036251353784955" lon="8.302966333489282"><ele>227.00000000000003</ele><time>2026-04-11T11:21:22.003Z</time></trkpt><trkpt lat="45.03623848785112" lon="8.302852593823143"><ele>227.0</ele><time>2026-04-11T11:21:24.003Z</time></trkpt><trkpt lat="45.03623270972024" lon="8.302736903529551"><ele>227.0</ele><time>2026-04-11T11:21:26.003Z</time></trkpt><trkpt lat="45.036223421174164" lon="8.30259896962892"><ele>227.0</ele><time>2026-04-11T11:21:28.003Z</time></trkpt><trkpt lat="45.03620867368093" lon="8.302466697570305"><ele>227.00000000000003</ele><time>2026-04-11T11:21:30.003Z</time></trkpt><trkpt lat="45.03619722407361" lon="8.30234072213653"><ele>227.0</ele><time>2026-04-11T11:21:32.003Z</time></trkpt><trkpt lat="45.0361696106403" lon="8.302171618119713"><ele>226.16666666666669</ele><time>2026-04-11T11:21:34.003Z</time></trkpt><trkpt lat="45.036138975359016" lon="8.3020652133427"><ele>225.33333333333334</ele><time>2026-04-11T11:21:35.003Z</time></trkpt><trkpt lat="45.03610729589553" lon="8.301978551340579"><ele>224.5</ele><time>2026-04-11T11:21:36.003Z</time></trkpt><trkpt lat="45.03606840574513" lon="8.30187878202573"><ele>223.66666666666669</ele><time>2026-04-11T11:21:37.003Z</time></trkpt><trkpt lat="45.036028112906415" lon="8.301787112017252"><ele>222.83333333333334</ele><time>2026-04-11T11:21:38.003Z</time></trkpt><trkpt lat="45.0359929220867" lon="8.301700570833722"><ele>222.0</ele><time>2026-04-11T11:21:39.003Z</time></trkpt><trkpt lat="45.03595076534428" lon="8.301601641286531"><ele>222.0</ele><time>2026-04-11T11:21:40.003Z</time></trkpt><trkpt lat="45.035906087396555" lon="8.301506234969734"><ele>222.0</ele><time>2026-04-11T11:21:41.003Z</time></trkpt><trkpt lat="45.03585679467059" lon="8.30141171010909"><ele>222.0</ele><time>2026-04-11T11:21:42.003Z</time></trkpt><trkpt lat="45.03580922822732" lon="8.301306674853878"><ele>222.0</ele><time>2026-04-11T11:21:43.003Z</time></trkpt><trkpt lat="45.03576814339475" lon="8.301202736098261"><ele>222.0</ele><time>2026-04-11T11:21:44.003Z</time></trkpt><trkpt lat="45.03573015478546" lon="8.301096695835788"><ele>222.0</ele><time>2026-04-11T11:21:45.003Z</time></trkpt><trkpt lat="45.03568621369308" lon="8.300984747388252"><ele>222.83333333333334</ele><time>2026-04-11T11:21:46Z</time></trkpt><trkpt lat="45.0356513324651" lon="8.300875644101284"><ele>223.66666666666669</ele><time>2026-04-11T11:21:47Z</time></trkpt><trkpt lat="45.03561841131775" lon="8.30077122865796"><ele>224.5</ele><time>2026-04-11T11:21:48Z</time></trkpt><trkpt lat="45.03559207049669" lon="8.300664230526417"><ele>225.33333333333334</ele><time>2026-04-11T11:21:49Z</time></trkpt><trkpt lat="45.035564929927695" lon="8.30055065553678"><ele>226.16666666666669</ele><time>2026-04-11T11:21:50Z</time></trkpt><trkpt lat="45.035550799398074" lon="8.300445073642813"><ele>227.0</ele><time>2026-04-11T11:21:51Z</time></trkpt><trkpt lat="45.03551870547941" lon="8.30036031914427"><ele>227.0</ele><time>2026-04-11T11:21:52Z</time></trkpt><trkpt lat="45.03549369697053" lon="8.300270610899787"><ele>227.00000000000003</ele><time>2026-04-11T11:21:53Z</time></trkpt><trkpt lat="45.03547481834771" lon="8.30017926648023"><ele>227.0</ele><time>2026-04-11T11:21:54Z</time></trkpt><trkpt lat="45.03544023317038" lon="8.300091257943759"><ele>227.0</ele><time>2026-04-11T11:21:55Z</time></trkpt><trkpt lat="45.035403091218875" lon="8.299995407303044"><ele>227.00000000000003</ele><time>2026-04-11T11:21:56Z</time></trkpt><trkpt lat="45.03535984011276" lon="8.299914176391008"><ele>227.0</ele><time>2026-04-11T11:21:57Z</time></trkpt><trkpt lat="45.03532155915218" lon="8.299819980224859"><ele>227.0</ele><time>2026-04-11T11:21:58Z</time></trkpt><trkpt lat="45.03528091349193" lon="8.29973256808324"><ele>225.66666666666669</ele><time>2026-04-11T11:21:59Z</time></trkpt><trkpt lat="45.035234702541196" lon="8.299623054091818"><ele>224.33333333333334</ele><time>2026-04-11T11:22:00Z</time></trkpt><trkpt lat="45.03519496263884" lon="8.299514092768096"><ele>223.0</ele><time>2026-04-11T11:22:01Z</time></trkpt><trkpt lat="45.03516964256865" lon="8.299421176532821"><ele>221.66666666666669</ele><time>2026-04-11T11:22:02Z</time></trkpt><trkpt lat="45.03513899215733" lon="8.299315740490897"><ele>220.33333333333334</ele><time>2026-04-11T11:22:03Z</time></trkpt><trkpt lat="45.03511919760006" lon="8.299199466631896"><ele>219.0</ele><time>2026-04-11T11:22:04Z</time></trkpt><trkpt lat="45.03510512742749" lon="8.299108861813965"><ele>219.0</ele><time>2026-04-11T11:22:05Z</time></trkpt><trkpt lat="45.03509969992026" lon="8.299016054009558"><ele>219.0</ele><time>2026-04-11T11:22:06Z</time></trkpt><trkpt lat="45.035095566716855" lon="8.298922676928909"><ele>219.0</ele><time>2026-04-11T11:22:07Z</time></trkpt><trkpt lat="45.03509083717758" lon="8.298819248943792"><ele>219.0</ele><time>2026-04-11T11:22:08Z</time></trkpt><trkpt lat="45.03508488714698" lon="8.29871052466079"><ele>219.0</ele><time>2026-04-11T11:22:09Z</time></trkpt><trkpt lat="45.0350692002205" lon="8.298558755040938"><ele>219.0</ele><time>2026-04-11T11:22:11Z</time></trkpt><trkpt lat="45.03506461656877" lon="8.298458281546198"><ele>217.79999999999998</ele><time>2026-04-11T11:22:13Z</time></trkpt><trkpt lat="45.03510071402478" lon="8.298368667777304"><ele>216.59999999999997</ele><time>2026-04-11T11:22:40.001Z</time></trkpt><trkpt lat="45.03518806309882" lon="8.29836235290506"><ele>215.4</ele><time>2026-04-11T11:22:42.001Z</time></trkpt><trkpt lat="45.03529357484548" lon="8.298347247842447"><ele>214.2</ele><time>2026-04-11T11:22:44.001Z</time></trkpt><trkpt lat="45.03540366540689" lon="8.298318583096982"><ele>213.0</ele><time>2026-04-11T11:22:46.001Z</time></trkpt><trkpt lat="45.035479830718266" lon="8.298297615551174"><ele>213.0</ele><time>2026-04-11T11:22:47.001Z</time></trkpt><trkpt lat="45.035574886765225" lon="8.298275887728767"><ele>213.0</ele><time>2026-04-11T11:22:48.001Z</time></trkpt><trkpt lat="45.03567585363371" lon="8.2982559824983"><ele>213.0</ele><time>2026-04-11T11:22:49.001Z</time></trkpt><trkpt lat="45.03575525245678" lon="8.29823603101716"><ele>213.0</ele><time>2026-04-11T11:22:50.001Z</time></trkpt><trkpt lat="45.035842347320596" lon="8.298218265054363"><ele>213.0</ele><time>2026-04-11T11:22:51.001Z</time></trkpt><trkpt lat="45.03593341135064" lon="8.298196937692843"><ele>213.60000000000002</ele><time>2026-04-11T11:22:52.001Z</time></trkpt><trkpt lat="45.036028434113035" lon="8.298178717476562"><ele>214.20000000000002</ele><time>2026-04-11T11:22:53.001Z</time></trkpt><trkpt lat="45.036120288595306" lon="8.29815925899631"><ele>214.8</ele><time>2026-04-11T11:22:54.002Z</time></trkpt><trkpt lat="45.03621596188978" lon="8.298139028883202"><ele>215.4</ele><time>2026-04-11T11:22:55.002Z</time></trkpt><trkpt lat="45.036296445873155" lon="8.29811854266212"><ele>216.0</ele><time>2026-04-11T11:22:56.002Z</time></trkpt><trkpt lat="45.03638507248957" lon="8.298091463445983"><ele>216.0</ele><time>2026-04-11T11:22:57.002Z</time></trkpt><trkpt lat="45.03646879060196" lon="8.298065133762439"><ele>216.0</ele><time>2026-04-11T11:22:58.002Z</time></trkpt><trkpt lat="45.03654821846056" lon="8.298042115459706"><ele>216.0</ele><time>2026-04-11T11:22:59.002Z</time></trkpt><trkpt lat="45.036636900268824" lon="8.298016837717835"><ele>216.0</ele><time>2026-04-11T11:23:00.002Z</time></trkpt><trkpt lat="45.036725187657794" lon="8.297985205801892"><ele>216.0</ele><time>2026-04-11T11:23:01.002Z</time></trkpt><trkpt lat="45.03680436149192" lon="8.297956391682858"><ele>216.0</ele><time>2026-04-11T11:23:02.002Z</time></trkpt><trkpt lat="45.03689243322253" lon="8.297928634288368"><ele>215.83333333333334</ele><time>2026-04-11T11:23:03.002Z</time></trkpt><trkpt lat="45.03698471894966" lon="8.297898567256395"><ele>215.66666666666669</ele><time>2026-04-11T11:23:04.002Z</time></trkpt><trkpt lat="45.037066043777656" lon="8.297882673327585"><ele>215.5</ele><time>2026-04-11T11:23:05.002Z</time></trkpt><trkpt lat="45.0371365430461" lon="8.297873042978676"><ele>215.33333333333334</ele><time>2026-04-11T11:23:06.002Z</time></trkpt><trkpt lat="45.03721872097813" lon="8.297846488547702"><ele>215.16666666666669</ele><time>2026-04-11T11:23:07.002Z</time></trkpt><trkpt lat="45.0372992842324" lon="8.297828157512962"><ele>215.0</ele><time>2026-04-11T11:23:08.002Z</time></trkpt><trkpt lat="45.03739209003234" lon="8.297811304381918"><ele>215.50000000000003</ele><time>2026-04-11T11:23:09.002Z</time></trkpt><trkpt lat="45.037479935714735" lon="8.297796198054943"><ele>216.0</ele><time>2026-04-11T11:23:10.002Z</time></trkpt><trkpt lat="45.03757749477259" lon="8.297783093227313"><ele>216.5</ele><time>2026-04-11T11:23:11.002Z</time></trkpt><trkpt lat="45.037655766986674" lon="8.297773203834181"><ele>217.0</ele><time>2026-04-11T11:23:12.002Z</time></trkpt><trkpt lat="45.03773758601975" lon="8.29776805860268"><ele>217.50000000000003</ele><time>2026-04-11T11:23:13.002Z</time></trkpt><trkpt lat="45.03781768720201" lon="8.2977652713605"><ele>218.0</ele><time>2026-04-11T11:23:14.002Z</time></trkpt><trkpt lat="45.03789812114283" lon="8.297767572857436"><ele>218.00000000000003</ele><time>2026-04-11T11:23:15.002Z</time></trkpt><trkpt lat="45.037966374932445" lon="8.29776398234805"><ele>218.0</ele><time>2026-04-11T11:23:16.002Z</time></trkpt><trkpt lat="45.0380453299742" lon="8.29775813381062"><ele>218.0</ele><time>2026-04-11T11:23:17.002Z</time></trkpt><trkpt lat="45.03811357380315" lon="8.29774625667836"><ele>218.0</ele><time>2026-04-11T11:23:18.002Z</time></trkpt><trkpt lat="45.03820211335517" lon="8.29773177516706"><ele>218.00000000000003</ele><time>2026-04-11T11:23:19.002Z</time></trkpt><trkpt lat="45.038284557988085" lon="8.2977235934148"><ele>218.0</ele><time>2026-04-11T11:23:20.002Z</time></trkpt><trkpt lat="45.038363524779975" lon="8.297714379855877"><ele>219.0</ele><time>2026-04-11T11:23:21.002Z</time></trkpt><trkpt lat="45.038450190980946" lon="8.29770959537121"><ele>220.0</ele><time>2026-04-11T11:23:22.002Z</time></trkpt><trkpt lat="45.03854165136211" lon="8.297704183097874"><ele>221.0</ele><time>2026-04-11T11:23:23.002Z</time></trkpt><trkpt lat="45.038635625393056" lon="8.297693967994796"><ele>222.0</ele><time>2026-04-11T11:23:24.002Z</time></trkpt><trkpt lat="45.03872860058412" lon="8.29768168730286"><ele>223.0</ele><time>2026-04-11T11:23:25.002Z</time></trkpt><trkpt lat="45.03881677740159" lon="8.297676771281582"><ele>222.99999999999997</ele><time>2026-04-11T11:23:26.002Z</time></trkpt><trkpt lat="45.03890541790288" lon="8.29766953080943"><ele>223.0</ele><time>2026-04-11T11:23:27.003Z</time></trkpt><trkpt lat="45.03899138652465" lon="8.297670239890781"><ele>223.0</ele><time>2026-04-11T11:23:28.003Z</time></trkpt><trkpt lat="45.03906963765708" lon="8.297661826462537"><ele>223.0</ele><time>2026-04-11T11:23:29.003Z</time></trkpt><trkpt lat="45.0391515206008" lon="8.297639889359596"><ele>222.99999999999997</ele><time>2026-04-11T11:23:30.003Z</time></trkpt><trkpt lat="45.039232844491174" lon="8.297620898561888"><ele>223.0</ele><time>2026-04-11T11:23:31.003Z</time></trkpt><trkpt lat="45.03930961879906" lon="8.297591683942429"><ele>223.83333333333331</ele><time>2026-04-11T11:23:32.003Z</time></trkpt><trkpt lat="45.03938149210529" lon="8.297569398536226"><ele>224.66666666666666</ele><time>2026-04-11T11:23:33.003Z</time></trkpt><trkpt lat="45.039459314117565" lon="8.29755974431309"><ele>225.5</ele><time>2026-04-11T11:23:34.003Z</time></trkpt><trkpt lat="45.039527774660606" lon="8.297554631810515"><ele>226.33333333333331</ele><time>2026-04-11T11:23:35.003Z</time></trkpt><trkpt lat="45.03958895297746" lon="8.297531365625874"><ele>227.16666666666666</ele><time>2026-04-11T11:23:36.003Z</time></trkpt><trkpt lat="45.03969223850699" lon="8.297472205607583"><ele>228.0</ele><time>2026-04-11T11:23:38.003Z</time></trkpt><trkpt lat="45.03976571156955" lon="8.297421106829882"><ele>228.0</ele><time>2026-04-11T11:23:40.003Z</time></trkpt><trkpt lat="45.03984703276455" lon="8.297355121747419"><ele>228.0</ele><time>2026-04-11T11:23:42.003Z</time></trkpt><trkpt lat="45.03992682484184" lon="8.297229303446345"><ele>228.0</ele><time>2026-04-11T11:23:44.003Z</time></trkpt><trkpt lat="45.0399754466291" lon="8.297129045664429"><ele>228.0</ele><time>2026-04-11T11:23:45.003Z</time></trkpt><trkpt lat="45.040020346751284" lon="8.297026829536655"><ele>228.0</ele><time>2026-04-11T11:23:46.003Z</time></trkpt><trkpt lat="45.04006101905769" lon="8.296932572261012"><ele>228.0</ele><time>2026-04-11T11:23:47.003Z</time></trkpt><trkpt lat="45.04009905434926" lon="8.296858240625014"><ele>228.0</ele><time>2026-04-11T11:23:48.003Z</time></trkpt><trkpt lat="45.040186230317296" lon="8.296777619152383"><ele>228.0</ele><time>2026-04-11T11:23:50.003Z</time></trkpt><trkpt lat="45.04028862678502" lon="8.296721476742459"><ele>228.0</ele><time>2026-04-11T11:23:52Z</time></trkpt><trkpt lat="45.04037845008725" lon="8.296699741775011"><ele>228.0</ele><time>2026-04-11T11:23:54Z</time></trkpt><trkpt lat="45.04043588570143" lon="8.296737572215957"><ele>228.0</ele><time>2026-04-11T11:23:56Z</time></trkpt><trkpt lat="45.0404998026469" lon="8.296731074875815"><ele>228.0</ele><time>2026-04-11T11:24:08Z</time></trkpt><trkpt lat="45.04056209591738" lon="8.296663458135333"><ele>228.0</ele><time>2026-04-11T11:24:15Z</time></trkpt><trkpt lat="45.04047994075258" lon="8.29673165198583"><ele>228.0</ele><time>2026-04-11T11:24:26.001Z</time></trkpt><trkpt lat="45.040394982172685" lon="8.296721178563276"><ele>228.0</ele><time>2026-04-11T11:24:29.001Z</time></trkpt><trkpt lat="45.04028434637199" lon="8.29673159926501"><ele>228.0</ele><time>2026-04-11T11:24:31.001Z</time></trkpt><trkpt lat="45.04020761567983" lon="8.296769054996513"><ele>228.0</ele><time>2026-04-11T11:24:32.001Z</time></trkpt><trkpt lat="45.04014632772377" lon="8.29682125229891"><ele>228.0</ele><time>2026-04-11T11:24:33.001Z</time></trkpt><trkpt lat="45.04008746531093" lon="8.296878236746469"><ele>228.0</ele><time>2026-04-11T11:24:34.001Z</time></trkpt><trkpt lat="45.04001090331892" lon="8.297021032693667"><ele>228.0</ele><time>2026-04-11T11:24:36.001Z</time></trkpt><trkpt lat="45.03997199690574" lon="8.297130566879078"><ele>228.0</ele><time>2026-04-11T11:24:37.001Z</time></trkpt><trkpt lat="45.039929440184515" lon="8.297234316227827"><ele>228.0</ele><time>2026-04-11T11:24:38.001Z</time></trkpt><trkpt lat="45.03988022746321" lon="8.297327173289592"><ele>228.0</ele><time>2026-04-11T11:24:39.001Z</time></trkpt><trkpt lat="45.03982102405965" lon="8.297402357778138"><ele>228.0</ele><time>2026-04-11T11:24:40.001Z</time></trkpt><trkpt lat="45.039701447335425" lon="8.297490022906528"><ele>228.0</ele><time>2026-04-11T11:24:42.001Z</time></trkpt><trkpt lat="45.03959508525372" lon="8.297547146330837"><ele>228.0</ele><time>2026-04-11T11:24:44.001Z</time></trkpt><trkpt lat="45.03949069089745" lon="8.297576287779803"><ele>228.0</ele><time>2026-04-11T11:24:46.001Z</time></trkpt><trkpt lat="45.03938070047199" lon="8.297587359108661"><ele>228.0</ele><time>2026-04-11T11:24:48.001Z</time></trkpt><trkpt lat="45.03926447227976" lon="8.297587534771347"><ele>228.0</ele><time>2026-04-11T11:24:50.001Z</time></trkpt><trkpt lat="45.03918837468892" lon="8.297613410691655"><ele>228.0</ele><time>2026-04-11T11:24:52.001Z</time></trkpt><trkpt lat="45.039142595121994" lon="8.297538396601079"><ele>228.0</ele><time>2026-04-11T11:25:17.002Z</time></trkpt><trkpt lat="45.0391205521744" lon="8.297381555112027"><ele>228.0</ele><time>2026-04-11T11:25:20.002Z</time></trkpt><trkpt lat="45.03910393706048" lon="8.297277033387154"><ele>228.2</ele><time>2026-04-11T11:25:22.002Z</time></trkpt><trkpt lat="45.03908031844656" lon="8.29716638569091"><ele>228.4</ele><time>2026-04-11T11:25:24.002Z</time></trkpt><trkpt lat="45.03905727852205" lon="8.297019828486436"><ele>228.59999999999997</ele><time>2026-04-11T11:25:26.002Z</time></trkpt><trkpt lat="45.0390375044263" lon="8.296904441779171"><ele>228.79999999999998</ele><time>2026-04-11T11:25:28.003Z</time></trkpt><trkpt lat="45.039023630479655" lon="8.29679878129365"><ele>229.0</ele><time>2026-04-11T11:25:30.003Z</time></trkpt><trkpt lat="45.03901994236471" lon="8.296635598841485"><ele>229.0</ele><time>2026-04-11T11:25:32.003Z</time></trkpt><trkpt lat="45.039043311651604" lon="8.296487005719095"><ele>229.0</ele><time>2026-04-11T11:25:34.003Z</time></trkpt><trkpt lat="45.03907580018069" lon="8.296320031052813"><ele>229.0</ele><time>2026-04-11T11:25:36.003Z</time></trkpt><trkpt lat="45.03910075607242" lon="8.296162763053756"><ele>229.0</ele><time>2026-04-11T11:25:38.003Z</time></trkpt><trkpt lat="45.039129144582425" lon="8.296000459480181"><ele>230.33333333333331</ele><time>2026-04-11T11:25:40.003Z</time></trkpt><trkpt lat="45.039151647684996" lon="8.295908754090158"><ele>231.66666666666666</ele><time>2026-04-11T11:25:41.003Z</time></trkpt><trkpt lat="45.03917902399448" lon="8.295794844760296"><ele>233.0</ele><time>2026-04-11T11:25:42.003Z</time></trkpt><trkpt lat="45.03919926818207" lon="8.295686871557782"><ele>234.33333333333331</ele><time>2026-04-11T11:25:43.003Z</time></trkpt><trkpt lat="45.03920921320563" lon="8.295494211680047"><ele>235.66666666666666</ele><time>2026-04-11T11:25:45.003Z</time></trkpt><trkpt lat="45.03921362436097" lon="8.295387847962301"><ele>237.0</ele><time>2026-04-11T11:25:46.003Z</time></trkpt><trkpt lat="45.03922057576602" lon="8.29529218911862"><ele>239.6</ele><time>2026-04-11T11:25:47.003Z</time></trkpt><trkpt lat="45.03924397384299" lon="8.295165947343571"><ele>242.2</ele><time>2026-04-11T11:25:48.003Z</time></trkpt><trkpt lat="45.03926753923161" lon="8.295034610046876"><ele>244.8</ele><time>2026-04-11T11:25:49.003Z</time></trkpt><trkpt lat="45.03926760979822" lon="8.294903955398153"><ele>247.4</ele><time>2026-04-11T11:25:50.003Z</time></trkpt><trkpt lat="45.039296111723544" lon="8.294753802292174"><ele>250.0</ele><time>2026-04-11T11:25:51.003Z</time></trkpt><trkpt lat="45.03931551541427" lon="8.294602697832573"><ele>251.49999999999997</ele><time>2026-04-11T11:25:52.003Z</time></trkpt><trkpt lat="45.03932973677953" lon="8.294449482591963"><ele>253.0</ele><time>2026-04-11T11:25:53.003Z</time></trkpt><trkpt lat="45.03934094915964" lon="8.294340544142964"><ele>254.5</ele><time>2026-04-11T11:25:54.003Z</time></trkpt><trkpt lat="45.03935643878947" lon="8.29421157040673"><ele>256.0</ele><time>2026-04-11T11:25:55.003Z</time></trkpt><trkpt lat="45.039370319159545" lon="8.29410084507928"><ele>257.5</ele><time>2026-04-11T11:25:56.003Z</time></trkpt><trkpt lat="45.03938118564814" lon="8.293985466307022"><ele>259.0</ele><time>2026-04-11T11:25:57.003Z</time></trkpt><trkpt lat="45.03937768258209" lon="8.293885220497467"><ele>261.0</ele><time>2026-04-11T11:25:58.001Z</time></trkpt><trkpt lat="45.03931670456467" lon="8.293710359093557"><ele>263.0</ele><time>2026-04-11T11:26:00.001Z</time></trkpt><trkpt lat="45.03926591579601" lon="8.293610987869478"><ele>265.0</ele><time>2026-04-11T11:26:01.001Z</time></trkpt><trkpt lat="45.03922593599315" lon="8.293522298416766"><ele>267.0</ele><time>2026-04-11T11:26:02.001Z</time></trkpt><trkpt lat="45.039198593034094" lon="8.293366935426112"><ele>269.0</ele><time>2026-04-11T11:26:04.001Z</time></trkpt><trkpt lat="45.03919308744822" lon="8.29325887830285"><ele>268.59999999999997</ele><time>2026-04-11T11:26:06.001Z</time></trkpt><trkpt lat="45.03912272111484" lon="8.293204437870987"><ele>268.2</ele><time>2026-04-11T11:26:10Z</time></trkpt><trkpt lat="45.03900607844178" lon="8.293153967956023"><ele>267.79999999999995</ele><time>2026-04-11T11:26:12Z</time></trkpt><trkpt lat="45.03893584427983" lon="8.293095858143237"><ele>267.4</ele><time>2026-04-11T11:26:13Z</time></trkpt><trkpt lat="45.03884623984327" lon="8.293040907227615"><ele>267.0</ele><time>2026-04-11T11:26:14Z</time></trkpt><trkpt lat="45.03878076683438" lon="8.293002750736282"><ele>266.3333333333333</ele><time>2026-04-11T11:26:15Z</time></trkpt><trkpt lat="45.03870063084456" lon="8.292983263669004"><ele>265.6666666666667</ele><time>2026-04-11T11:26:17Z</time></trkpt><trkpt lat="45.03857889400684" lon="8.292966772081753"><ele>265.0</ele><time>2026-04-11T11:26:28Z</time></trkpt><trkpt lat="45.038503474884145" lon="8.292957328955074"><ele>264.33333333333337</ele><time>2026-04-11T11:26:29Z</time></trkpt><trkpt lat="45.03843331361007" lon="8.292953641379402"><ele>263.6666666666667</ele><time>2026-04-11T11:26:30Z</time></trkpt><trkpt lat="45.03835161996421" lon="8.292958490065306"><ele>263.0</ele><time>2026-04-11T11:26:31.001Z</time></trkpt><trkpt lat="45.03826193897227" lon="8.292963524725709"><ele>263.0</ele><time>2026-04-11T11:26:32.001Z</time></trkpt><trkpt lat="45.03816499673347" lon="8.29295318197198"><ele>263.0</ele><time>2026-04-11T11:26:33.001Z</time></trkpt><trkpt lat="45.03807491174627" lon="8.2929150268518"><ele>263.0</ele><time>2026-04-11T11:26:34.001Z</time></trkpt><trkpt lat="45.037993845511224" lon="8.292861172571115"><ele>263.0</ele><time>2026-04-11T11:26:35.001Z</time></trkpt><trkpt lat="45.037911512978226" lon="8.292786401065092"><ele>263.0</ele><time>2026-04-11T11:26:36.001Z</time></trkpt><trkpt lat="45.037833562118685" lon="8.292699866956204"><ele>263.0</ele><time>2026-04-11T11:26:37.001Z</time></trkpt><trkpt lat="45.037762445071806" lon="8.292600491940615"><ele>263.0</ele><time>2026-04-11T11:26:38.001Z</time></trkpt><trkpt lat="45.03769911792467" lon="8.29250269841547"><ele>263.0</ele><time>2026-04-11T11:26:39.001Z</time></trkpt><trkpt lat="45.037635003078904" lon="8.292408625136945"><ele>263.0</ele><time>2026-04-11T11:26:40.001Z</time></trkpt><trkpt lat="45.037573534560224" lon="8.292328635182088"><ele>263.0</ele><time>2026-04-11T11:26:41.001Z</time></trkpt><trkpt lat="45.037502988843904" lon="8.292253177207536"><ele>262.6</ele><time>2026-04-11T11:26:42.001Z</time></trkpt><trkpt lat="45.037422343774075" lon="8.292184341159121"><ele>262.20000000000005</ele><time>2026-04-11T11:26:43.001Z</time></trkpt><trkpt lat="45.03732860771307" lon="8.29211973980731"><ele>261.8</ele><time>2026-04-11T11:26:44.001Z</time></trkpt><trkpt lat="45.037241902598545" lon="8.292063954209233"><ele>261.40000000000003</ele><time>2026-04-11T11:26:45.001Z</time></trkpt><trkpt lat="45.03715590654668" lon="8.292007284738219"><ele>261.0</ele><time>2026-04-11T11:26:46.001Z</time></trkpt><trkpt lat="45.03706225401439" lon="8.291946309498593"><ele>261.0</ele><time>2026-04-11T11:26:47.001Z</time></trkpt><trkpt lat="45.03696291104934" lon="8.291873583782248"><ele>261.0</ele><time>2026-04-11T11:26:48.001Z</time></trkpt><trkpt lat="45.03685413480201" lon="8.291795141554731"><ele>261.0</ele><time>2026-04-11T11:26:49.001Z</time></trkpt><trkpt lat="45.03673911976585" lon="8.291715407910925"><ele>261.0</ele><time>2026-04-11T11:26:50.001Z</time></trkpt><trkpt lat="45.036619252933036" lon="8.291634815132458"><ele>261.25</ele><time>2026-04-11T11:26:51.001Z</time></trkpt><trkpt lat="45.03650011462831" lon="8.291561611089199"><ele>261.5</ele><time>2026-04-11T11:26:52.001Z</time></trkpt><trkpt lat="45.03638970471464" lon="8.291486214092174"><ele>261.75</ele><time>2026-04-11T11:26:53.001Z</time></trkpt><trkpt lat="45.03628205476454" lon="8.291419921118553"><ele>262.0</ele><time>2026-04-11T11:26:54.001Z</time></trkpt><trkpt lat="45.03618109577362" lon="8.291348241223249"><ele>259.75</ele><time>2026-04-11T11:26:55.001Z</time></trkpt><trkpt lat="45.03608295595394" lon="8.291280667915998"><ele>257.5</ele><time>2026-04-11T11:26:56.001Z</time></trkpt><trkpt lat="45.035973776066264" lon="8.291208549199402"><ele>255.25</ele><time>2026-04-11T11:26:57.001Z</time></trkpt><trkpt lat="45.03586613289848" lon="8.291133986872941"><ele>253.0</ele><time>2026-04-11T11:26:58.001Z</time></trkpt><trkpt lat="45.03576433588599" lon="8.291063781571122"><ele>252.2</ele><time>2026-04-11T11:26:59.001Z</time></trkpt><trkpt lat="45.03567506172516" lon="8.291000131955807"><ele>251.4</ele><time>2026-04-11T11:27:00.001Z</time></trkpt><trkpt lat="45.03557032247937" lon="8.290950896263327"><ele>250.59999999999997</ele><time>2026-04-11T11:27:01.001Z</time></trkpt><trkpt lat="45.03548387687064" lon="8.290908013967792"><ele>249.79999999999998</ele><time>2026-04-11T11:27:02.001Z</time></trkpt><trkpt lat="45.03539007254183" lon="8.29087726685645"><ele>249.0</ele><time>2026-04-11T11:27:03.001Z</time></trkpt><trkpt lat="45.03529993393148" lon="8.29085223604299"><ele>249.0</ele><time>2026-04-11T11:27:04.001Z</time></trkpt><trkpt lat="45.0352134136752" lon="8.290825416160882"><ele>249.0</ele><time>2026-04-11T11:27:05.001Z</time></trkpt><trkpt lat="45.035132358656895" lon="8.290806965844565"><ele>249.0</ele><time>2026-04-11T11:27:06.001Z</time></trkpt><trkpt lat="45.035067658823706" lon="8.290790189060004"><ele>249.0</ele><time>2026-04-11T11:27:07.001Z</time></trkpt><trkpt lat="45.03499793731057" lon="8.290754857482247"><ele>249.0</ele><time>2026-04-11T11:27:09.001Z</time></trkpt><trkpt lat="45.0349785028578" lon="8.290647826224083"><ele>249.0</ele><time>2026-04-11T11:27:34.002Z</time></trkpt><trkpt lat="45.035019333036544" lon="8.29054877847463"><ele>248.0</ele><time>2026-04-11T11:27:36.002Z</time></trkpt><trkpt lat="45.03506424905389" lon="8.290377389039701"><ele>246.99999999999997</ele><time>2026-04-11T11:27:38.002Z</time></trkpt><trkpt lat="45.03508947034412" lon="8.290284843965555"><ele>245.99999999999997</ele><time>2026-04-11T11:27:39.002Z</time></trkpt><trkpt lat="45.03512691471524" lon="8.290130269713123"><ele>245.0</ele><time>2026-04-11T11:27:41.002Z</time></trkpt><trkpt lat="45.035166909271034" lon="8.290007369013034"><ele>244.0</ele><time>2026-04-11T11:27:43.002Z</time></trkpt><trkpt lat="45.03519776824662" lon="8.289898624770542"><ele>243.99999999999997</ele><time>2026-04-11T11:27:45.002Z</time></trkpt><trkpt lat="45.03522228280979" lon="8.289813726280089"><ele>244.0</ele><time>2026-04-11T11:27:47.002Z</time></trkpt><trkpt lat="45.035282435019695" lon="8.28972939709698"><ele>244.0</ele><time>2026-04-11T11:27:49.002Z</time></trkpt><trkpt lat="45.035346184991106" lon="8.289667921431835"><ele>244.0</ele><time>2026-04-11T11:27:50.002Z</time></trkpt><trkpt lat="45.03541059155958" lon="8.289618126368818"><ele>243.99999999999997</ele><time>2026-04-11T11:27:51.002Z</time></trkpt><trkpt lat="45.03547991307271" lon="8.28957003178909"><ele>244.0</ele><time>2026-04-11T11:27:52.002Z</time></trkpt><trkpt lat="45.03555528710203" lon="8.289524441398829"><ele>242.33333333333331</ele><time>2026-04-11T11:27:53.002Z</time></trkpt><trkpt lat="45.03563750003144" lon="8.289475042464645"><ele>240.66666666666666</ele><time>2026-04-11T11:27:54.002Z</time></trkpt><trkpt lat="45.035722234356825" lon="8.289427696724722"><ele>239.0</ele><time>2026-04-11T11:27:55.002Z</time></trkpt><trkpt lat="45.03578604772078" lon="8.289397221451813"><ele>237.33333333333331</ele><time>2026-04-11T11:27:56.002Z</time></trkpt><trkpt lat="45.03590243301463" lon="8.28936183935916"><ele>235.66666666666666</ele><time>2026-04-11T11:27:58.003Z</time></trkpt><trkpt lat="45.03597125783542" lon="8.289336144713124"><ele>234.0</ele><time>2026-04-11T11:27:59.003Z</time></trkpt><trkpt lat="45.03605196068508" lon="8.289314940985955"><ele>233.83333333333334</ele><time>2026-04-11T11:28:00.003Z</time></trkpt><trkpt lat="45.036133960324406" lon="8.289310687629609"><ele>233.66666666666669</ele><time>2026-04-11T11:28:01.003Z</time></trkpt><trkpt lat="45.03621650003788" lon="8.289318265394543"><ele>233.5</ele><time>2026-04-11T11:28:02.003Z</time></trkpt><trkpt lat="45.03628103679558" lon="8.289331562536619"><ele>233.33333333333334</ele><time>2026-04-11T11:28:03.003Z</time></trkpt><trkpt lat="45.03636544067671" lon="8.289354838760344"><ele>233.16666666666669</ele><time>2026-04-11T11:28:03.999Z</time></trkpt><trkpt lat="45.03646288399679" lon="8.289390108606614"><ele>233.0</ele><time>2026-04-11T11:28:04.999Z</time></trkpt><trkpt lat="45.036558109546434" lon="8.289432782198048"><ele>232.2</ele><time>2026-04-11T11:28:05.999Z</time></trkpt><trkpt lat="45.03664652463827" lon="8.28947669761288"><ele>231.4</ele><time>2026-04-11T11:28:06.999Z</time></trkpt><trkpt lat="45.0367280348785" lon="8.28951937513458"><ele>230.59999999999997</ele><time>2026-04-11T11:28:07.999Z</time></trkpt><trkpt lat="45.03679899315177" lon="8.289554836923989"><ele>229.79999999999998</ele><time>2026-04-11T11:28:08.999Z</time></trkpt><trkpt lat="45.03690655402687" lon="8.289593422064236"><ele>229.0</ele><time>2026-04-11T11:28:10.999Z</time></trkpt><trkpt lat="45.037004456355014" lon="8.289568537711903"><ele>229.0</ele><time>2026-04-11T11:28:13Z</time></trkpt><trkpt lat="45.03707901038413" lon="8.289488763169523"><ele>229.0</ele><time>2026-04-11T11:28:15Z</time></trkpt><trkpt lat="45.037146269891146" lon="8.289375588061823"><ele>229.0</ele><time>2026-04-11T11:28:17Z</time></trkpt><trkpt lat="45.037223337012406" lon="8.28923148427649"><ele>229.0</ele><time>2026-04-11T11:28:19Z</time></trkpt><trkpt lat="45.037304633703016" lon="8.28904523947752"><ele>229.0</ele><time>2026-04-11T11:28:21Z</time></trkpt><trkpt lat="45.03735245712478" lon="8.288957292667552"><ele>228.99999999999997</ele><time>2026-04-11T11:28:22Z</time></trkpt><trkpt lat="45.03744173113241" lon="8.288795080484848"><ele>228.99999999999997</ele><time>2026-04-11T11:28:24Z</time></trkpt><trkpt lat="45.037488793357916" lon="8.288732346567208"><ele>229.0</ele><time>2026-04-11T11:28:25Z</time></trkpt><trkpt lat="45.03755600095929" lon="8.28863379164873"><ele>229.0</ele><time>2026-04-11T11:28:26Z</time></trkpt><trkpt lat="45.03760498651516" lon="8.288556169292598"><ele>227.16666666666666</ele><time>2026-04-11T11:28:27Z</time></trkpt><trkpt lat="45.0376437985086" lon="8.288464345159102"><ele>225.33333333333331</ele><time>2026-04-11T11:28:28Z</time></trkpt><trkpt lat="45.03767442289442" lon="8.288377743806635"><ele>223.5</ele><time>2026-04-11T11:28:29Z</time></trkpt><trkpt lat="45.03771898741166" lon="8.288253631672688"><ele>221.66666666666669</ele><time>2026-04-11T11:28:31Z</time></trkpt><trkpt lat="45.0377634612368" lon="8.288178200755745"><ele>219.83333333333334</ele><time>2026-04-11T11:28:39Z</time></trkpt><trkpt lat="45.03783854718647" lon="8.288111731062601"><ele>218.0</ele><time>2026-04-11T11:28:42Z</time></trkpt><trkpt lat="45.03791233351553" lon="8.288010841520823"><ele>217.33333333333334</ele><time>2026-04-11T11:28:45.001Z</time></trkpt><trkpt lat="45.037960880316994" lon="8.287926330047302"><ele>216.66666666666669</ele><time>2026-04-11T11:28:48.001Z</time></trkpt><trkpt lat="45.03799122921206" lon="8.28780509312282"><ele>216.0</ele><time>2026-04-11T11:28:50.001Z</time></trkpt><trkpt lat="45.03800092873411" lon="8.287713232490258"><ele>215.33333333333331</ele><time>2026-04-11T11:28:51.001Z</time></trkpt><trkpt lat="45.0380129502141" lon="8.287610848840629"><ele>214.66666666666666</ele><time>2026-04-11T11:28:52.001Z</time></trkpt><trkpt lat="45.03800779855677" lon="8.287493721718194"><ele>214.0</ele><time>2026-04-11T11:28:53.001Z</time></trkpt><trkpt lat="45.037983874788196" lon="8.287382736667169"><ele>213.99999999999997</ele><time>2026-04-11T11:28:54.001Z</time></trkpt><trkpt lat="45.03795737238467" lon="8.287291159723457"><ele>214.0</ele><time>2026-04-11T11:28:55.001Z</time></trkpt><trkpt lat="45.03792829983784" lon="8.2872113201119"><ele>214.0</ele><time>2026-04-11T11:28:56.001Z</time></trkpt><trkpt lat="45.03790292692151" lon="8.287128028389272"><ele>214.0</ele><time>2026-04-11T11:28:57.001Z</time></trkpt><trkpt lat="45.03787106078766" lon="8.286990435260623"><ele>213.99999999999997</ele><time>2026-04-11T11:28:58.001Z</time></trkpt><trkpt lat="45.03783702080227" lon="8.286847686992845"><ele>214.0</ele><time>2026-04-11T11:28:59.001Z</time></trkpt><trkpt lat="45.03780669072214" lon="8.286715587512301"><ele>214.6</ele><time>2026-04-11T11:29:00.001Z</time></trkpt><trkpt lat="45.037771611040135" lon="8.286575288091607"><ele>215.2</ele><time>2026-04-11T11:29:01.001Z</time></trkpt><trkpt lat="45.03773060782844" lon="8.286428668722259"><ele>215.79999999999998</ele><time>2026-04-11T11:29:02.001Z</time></trkpt><trkpt lat="45.037687100665565" lon="8.286291956682964"><ele>216.39999999999998</ele><time>2026-04-11T11:29:03.001Z</time></trkpt><trkpt lat="45.03763930849704" lon="8.286167640687655"><ele>217.0</ele><time>2026-04-11T11:29:04.001Z</time></trkpt><trkpt lat="45.03758431632279" lon="8.286052972491486"><ele>217.6</ele><time>2026-04-11T11:29:05.001Z</time></trkpt><trkpt lat="45.037519918289696" lon="8.285925564861577"><ele>218.2</ele><time>2026-04-11T11:29:06.001Z</time></trkpt><trkpt lat="45.03746126339259" lon="8.285795764707341"><ele>218.8</ele><time>2026-04-11T11:29:07.001Z</time></trkpt><trkpt lat="45.03740660702458" lon="8.285656140229534"><ele>219.4</ele><time>2026-04-11T11:29:08.001Z</time></trkpt><trkpt lat="45.03735727949634" lon="8.285512292517865"><ele>220.0</ele><time>2026-04-11T11:29:09.001Z</time></trkpt><trkpt lat="45.03730861843789" lon="8.285368391983635"><ele>221.49999999999997</ele><time>2026-04-11T11:29:10.001Z</time></trkpt><trkpt lat="45.03725896368974" lon="8.28523436555873"><ele>223.0</ele><time>2026-04-11T11:29:11.001Z</time></trkpt><trkpt lat="45.03721450037376" lon="8.285130239959537"><ele>224.5</ele><time>2026-04-11T11:29:12.001Z</time></trkpt><trkpt lat="45.03717478893934" lon="8.285052924297505"><ele>226.0</ele><time>2026-04-11T11:29:13.001Z</time></trkpt><trkpt lat="45.037125756052326" lon="8.284950979429983"><ele>227.49999999999997</ele><time>2026-04-11T11:29:15.001Z</time></trkpt><trkpt lat="45.03714422337001" lon="8.284841003704512"><ele>229.0</ele><time>2026-04-11T11:29:19.001Z</time></trkpt><trkpt lat="45.037196823162475" lon="8.284765438878217"><ele>229.16666666666666</ele><time>2026-04-11T11:29:21.002Z</time></trkpt><trkpt lat="45.03723623158222" lon="8.284618650098876"><ele>229.33333333333331</ele><time>2026-04-11T11:29:23.002Z</time></trkpt><trkpt lat="45.03726630551688" lon="8.284502273651501"><ele>229.5</ele><time>2026-04-11T11:29:24.002Z</time></trkpt><trkpt lat="45.037292622107316" lon="8.284411553247896"><ele>229.66666666666669</ele><time>2026-04-11T11:29:25.002Z</time></trkpt><trkpt lat="45.037320655675664" lon="8.284318381383066"><ele>229.83333333333334</ele><time>2026-04-11T11:29:26.002Z</time></trkpt><trkpt lat="45.03736621263904" lon="8.284198129160508"><ele>230.0</ele><time>2026-04-11T11:29:28.002Z</time></trkpt><trkpt lat="45.03744131156671" lon="8.284168524390275"><ele>230.00000000000003</ele><time>2026-04-11T11:29:38.002Z</time></trkpt><trkpt lat="45.0374898295139" lon="8.28410532704695"><ele>230.0</ele><time>2026-04-11T11:29:42.002Z</time></trkpt><trkpt lat="45.03741266299772" lon="8.284096664695102"><ele>230.0</ele><time>2026-04-11T11:29:46.002Z</time></trkpt><trkpt lat="45.03736455103554" lon="8.284157988722908"><ele>230.0</ele><time>2026-04-11T11:29:47.002Z</time></trkpt><trkpt lat="45.03732378544404" lon="8.2842864485301"><ele>230.00000000000003</ele><time>2026-04-11T11:29:48.002Z</time></trkpt><trkpt lat="45.03729456684373" lon="8.284405400094263"><ele>230.0</ele><time>2026-04-11T11:29:49.002Z</time></trkpt><trkpt lat="45.03726273810922" lon="8.284515259259294"><ele>230.0</ele><time>2026-04-11T11:29:50.002Z</time></trkpt><trkpt lat="45.03723268144187" lon="8.284626516685323"><ele>230.0</ele><time>2026-04-11T11:29:51.002Z</time></trkpt><trkpt lat="45.03720218260813" lon="8.284731817430185"><ele>230.0</ele><time>2026-04-11T11:29:52.002Z</time></trkpt><trkpt lat="45.03713661764378" lon="8.284859434435498"><ele>230.0</ele><time>2026-04-11T11:29:54.002Z</time></trkpt><trkpt lat="45.03703821972256" lon="8.284891654650021"><ele>230.0</ele><time>2026-04-11T11:29:56.002Z</time></trkpt><trkpt lat="45.036927671638985" lon="8.284845207937742"><ele>230.0</ele><time>2026-04-11T11:29:58.003Z</time></trkpt><trkpt lat="45.03683712801035" lon="8.284783155372654"><ele>230.0</ele><time>2026-04-11T11:30:00.003Z</time></trkpt><trkpt lat="45.03675170396677" lon="8.284698134934509"><ele>230.0</ele><time>2026-04-11T11:30:02.003Z</time></trkpt><trkpt lat="45.03668326512661" lon="8.284557173717324"><ele>230.0</ele><time>2026-04-11T11:30:04.003Z</time></trkpt><trkpt lat="45.03666866802015" lon="8.284462810155105"><ele>230.0</ele><time>2026-04-11T11:30:05.003Z</time></trkpt><trkpt lat="45.03667063062453" lon="8.2843349414654"><ele>230.0</ele><time>2026-04-11T11:30:06.003Z</time></trkpt><trkpt lat="45.036681399709735" lon="8.284186917691787"><ele>230.0</ele><time>2026-04-11T11:30:07.003Z</time></trkpt><trkpt lat="45.03669462294876" lon="8.284042732127313"><ele>230.0</ele><time>2026-04-11T11:30:08.003Z</time></trkpt><trkpt lat="45.036708380376616" lon="8.283913323432206"><ele>230.0</ele><time>2026-04-11T11:30:09.003Z</time></trkpt><trkpt lat="45.03672406380472" lon="8.283786343686355"><ele>230.0</ele><time>2026-04-11T11:30:09.999Z</time></trkpt><trkpt lat="45.03676128536938" lon="8.283650173640682"><ele>229.5</ele><time>2026-04-11T11:30:10.999Z</time></trkpt><trkpt lat="45.03681178221568" lon="8.283507321385501"><ele>229.0</ele><time>2026-04-11T11:30:11.999Z</time></trkpt><trkpt lat="45.036867253552856" lon="8.283357659038177"><ele>228.5</ele><time>2026-04-11T11:30:12.999Z</time></trkpt><trkpt lat="45.03692278956299" lon="8.283210823014853"><ele>228.0</ele><time>2026-04-11T11:30:13.999Z</time></trkpt><trkpt lat="45.036976006369336" lon="8.28305455109516"><ele>227.0</ele><time>2026-04-11T11:30:14.999Z</time></trkpt><trkpt lat="45.037034181334135" lon="8.28289570039104"><ele>226.0</ele><time>2026-04-11T11:30:15.999Z</time></trkpt><trkpt lat="45.03709187693694" lon="8.282745798310783"><ele>225.0</ele><time>2026-04-11T11:30:16.999Z</time></trkpt><trkpt lat="45.03715155549694" lon="8.282590303021953"><ele>224.0</ele><time>2026-04-11T11:30:17.999Z</time></trkpt><trkpt lat="45.03721165913786" lon="8.282430157173298"><ele>223.0</ele><time>2026-04-11T11:30:18.999Z</time></trkpt><trkpt lat="45.03727276683066" lon="8.282259242334487"><ele>222.0</ele><time>2026-04-11T11:30:19.999Z</time></trkpt><trkpt lat="45.037331039723576" lon="8.282083963570054"><ele>221.0</ele><time>2026-04-11T11:30:20.999Z</time></trkpt><trkpt lat="45.0373815492559" lon="8.281911863297537"><ele>220.0</ele><time>2026-04-11T11:30:21.999Z</time></trkpt><trkpt lat="45.037433292472585" lon="8.281728823349606"><ele>222.0</ele><time>2026-04-11T11:30:22.999Z</time></trkpt><trkpt lat="45.03748668869344" lon="8.281552226015544"><ele>224.0</ele><time>2026-04-11T11:30:23.999Z</time></trkpt><trkpt lat="45.03754411045403" lon="8.281360909433968"><ele>226.0</ele><time>2026-04-11T11:30:24.999Z</time></trkpt><trkpt lat="45.03760023718451" lon="8.281168593320336"><ele>228.0</ele><time>2026-04-11T11:30:25.999Z</time></trkpt><trkpt lat="45.03764970547624" lon="8.280982255953518"><ele>228.0</ele><time>2026-04-11T11:30:26.999Z</time></trkpt><trkpt lat="45.03769355963147" lon="8.28081714253314"><ele>228.0</ele><time>2026-04-11T11:30:27.999Z</time></trkpt><trkpt lat="45.03773306443106" lon="8.28066773144546"><ele>228.0</ele><time>2026-04-11T11:30:28.999Z</time></trkpt><trkpt lat="45.03777468887435" lon="8.280534344193237"><ele>228.0</ele><time>2026-04-11T11:30:30Z</time></trkpt><trkpt lat="45.037810530880684" lon="8.280411801049274"><ele>228.0</ele><time>2026-04-11T11:30:31Z</time></trkpt><trkpt lat="45.03784073596946" lon="8.280300972914683"><ele>227.60000000000002</ele><time>2026-04-11T11:30:32Z</time></trkpt><trkpt lat="45.037868940195544" lon="8.280194840481837"><ele>227.20000000000002</ele><time>2026-04-11T11:30:33Z</time></trkpt><trkpt lat="45.03790364410015" lon="8.280074299530188"><ele>226.8</ele><time>2026-04-11T11:30:34Z</time></trkpt><trkpt lat="45.0379447522459" lon="8.279942637769038"><ele>226.4</ele><time>2026-04-11T11:30:35Z</time></trkpt><trkpt lat="45.03798202343416" lon="8.279823560371259"><ele>226.0</ele><time>2026-04-11T11:30:36Z</time></trkpt><trkpt lat="45.03801834409429" lon="8.279711214638235"><ele>226.20000000000002</ele><time>2026-04-11T11:30:37Z</time></trkpt><trkpt lat="45.03805206350459" lon="8.279612211991651"><ele>226.40000000000003</ele><time>2026-04-11T11:30:38Z</time></trkpt><trkpt lat="45.03809493131034" lon="8.279501949344196"><ele>226.6</ele><time>2026-04-11T11:30:39Z</time></trkpt><trkpt lat="45.03815830744908" lon="8.279386534512309"><ele>226.8</ele><time>2026-04-11T11:30:40Z</time></trkpt><trkpt lat="45.0382313122523" lon="8.279286031418412"><ele>227.0</ele><time>2026-04-11T11:30:41Z</time></trkpt><trkpt lat="45.038320023489916" lon="8.279192676782115"><ele>227.0</ele><time>2026-04-11T11:30:42Z</time></trkpt><trkpt lat="45.03841090035418" lon="8.27910483125773"><ele>227.0</ele><time>2026-04-11T11:30:43Z</time></trkpt><trkpt lat="45.03850560338367" lon="8.279025153510288"><ele>227.0</ele><time>2026-04-11T11:30:44Z</time></trkpt><trkpt lat="45.03860000180671" lon="8.27895281536594"><ele>227.0</ele><time>2026-04-11T11:30:45Z</time></trkpt><trkpt lat="45.03868916767301" lon="8.27888549027373"><ele>227.0</ele><time>2026-04-11T11:30:46Z</time></trkpt><trkpt lat="45.03876767646345" lon="8.27881743022638"><ele>226.33333333333334</ele><time>2026-04-11T11:30:47Z</time></trkpt><trkpt lat="45.03884311515988" lon="8.278745185643762"><ele>225.66666666666669</ele><time>2026-04-11T11:30:48Z</time></trkpt><trkpt lat="45.0389087911461" lon="8.278674988320654"><ele>225.0</ele><time>2026-04-11T11:30:49Z</time></trkpt><trkpt lat="45.038962462938294" lon="8.278616879272416"><ele>224.33333333333331</ele><time>2026-04-11T11:30:50Z</time></trkpt><trkpt lat="45.03900656887149" lon="8.278544758374995"><ele>223.66666666666666</ele><time>2026-04-11T11:30:51Z</time></trkpt><trkpt lat="45.03903238641146" lon="8.278456555463077"><ele>223.0</ele><time>2026-04-11T11:30:52Z</time></trkpt><trkpt lat="45.03905874231674" lon="8.278245913072542"><ele>223.2</ele><time>2026-04-11T11:30:54Z</time></trkpt><trkpt lat="45.03907608395294" lon="8.278100320511252"><ele>223.4</ele><time>2026-04-11T11:30:55.001Z</time></trkpt><trkpt lat="45.03909342919312" lon="8.277956016987282"><ele>223.59999999999997</ele><time>2026-04-11T11:30:56.001Z</time></trkpt><trkpt lat="45.03912492997128" lon="8.277844046864855"><ele>223.79999999999998</ele><time>2026-04-11T11:30:57.001Z</time></trkpt><trkpt lat="45.039166242567234" lon="8.277739927036428"><ele>224.0</ele><time>2026-04-11T11:30:58.001Z</time></trkpt><trkpt lat="45.0392199135821" lon="8.277646359849921"><ele>224.25</ele><time>2026-04-11T11:30:59.001Z</time></trkpt><trkpt lat="45.03928468840951" lon="8.27754971317684"><ele>224.5</ele><time>2026-04-11T11:31:00.001Z</time></trkpt><trkpt lat="45.03937136192313" lon="8.277450519825914"><ele>224.75</ele><time>2026-04-11T11:31:01.001Z</time></trkpt><trkpt lat="45.03947184027457" lon="8.27735511185206"><ele>225.0</ele><time>2026-04-11T11:31:02.001Z</time></trkpt><trkpt lat="45.039582774268794" lon="8.277278881268488"><ele>225.6</ele><time>2026-04-11T11:31:03.001Z</time></trkpt><trkpt lat="45.039682654010335" lon="8.277208746866368"><ele>226.2</ele><time>2026-04-11T11:31:04.001Z</time></trkpt><trkpt lat="45.03977277104375" lon="8.277129317412752"><ele>226.8</ele><time>2026-04-11T11:31:05.001Z</time></trkpt><trkpt lat="45.03984667408089" lon="8.277028153711425"><ele>227.4</ele><time>2026-04-11T11:31:06.001Z</time></trkpt><trkpt lat="45.03989768112847" lon="8.276908271654746"><ele>228.0</ele><time>2026-04-11T11:31:07.001Z</time></trkpt><trkpt lat="45.039937400457724" lon="8.276770230200231"><ele>229.0</ele><time>2026-04-11T11:31:08.001Z</time></trkpt><trkpt lat="45.03996768960163" lon="8.276617615682202"><ele>230.0</ele><time>2026-04-11T11:31:09.001Z</time></trkpt><trkpt lat="45.0399990511905" lon="8.276451230765197"><ele>231.0</ele><time>2026-04-11T11:31:10.001Z</time></trkpt><trkpt lat="45.04002081237292" lon="8.276302614752721"><ele>232.0</ele><time>2026-04-11T11:31:11.001Z</time></trkpt><trkpt lat="45.040029805473765" lon="8.276159109821254"><ele>233.0</ele><time>2026-04-11T11:31:12.001Z</time></trkpt><trkpt lat="45.040011252755555" lon="8.27602703008642"><ele>233.0</ele><time>2026-04-11T11:31:13.001Z</time></trkpt><trkpt lat="45.03998672858848" lon="8.275886171354129"><ele>233.0</ele><time>2026-04-11T11:31:14.001Z</time></trkpt><trkpt lat="45.03996052277946" lon="8.27573684372602"><ele>233.0</ele><time>2026-04-11T11:31:15.001Z</time></trkpt><trkpt lat="45.03995830001388" lon="8.275579038769235"><ele>233.0</ele><time>2026-04-11T11:31:16.001Z</time></trkpt><trkpt lat="45.03996889570564" lon="8.275408172334568"><ele>233.0</ele><time>2026-04-11T11:31:17.001Z</time></trkpt><trkpt lat="45.039983432400426" lon="8.275233965881716"><ele>235.75</ele><time>2026-04-11T11:31:18.001Z</time></trkpt><trkpt lat="45.04000014283443" lon="8.275061674664322"><ele>238.5</ele><time>2026-04-11T11:31:19.001Z</time></trkpt><trkpt lat="45.0400035568308" lon="8.27488194718285"><ele>241.25</ele><time>2026-04-11T11:31:20.001Z</time></trkpt><trkpt lat="45.04000244791773" lon="8.274705352361561"><ele>244.0</ele><time>2026-04-11T11:31:21.001Z</time></trkpt><trkpt lat="45.03999691952358" lon="8.274531268362683"><ele>243.75</ele><time>2026-04-11T11:31:22.001Z</time></trkpt><trkpt lat="45.03998780965562" lon="8.274358962874475"><ele>243.5</ele><time>2026-04-11T11:31:23.001Z</time></trkpt><trkpt lat="45.039972644053925" lon="8.274188713059267"><ele>243.25</ele><time>2026-04-11T11:31:24.001Z</time></trkpt><trkpt lat="45.039954008404536" lon="8.27402654614897"><ele>243.0</ele><time>2026-04-11T11:31:25.001Z</time></trkpt><trkpt lat="45.03993989259921" lon="8.273887461295368"><ele>244.33333333333334</ele><time>2026-04-11T11:31:26.001Z</time></trkpt><trkpt lat="45.03992600721057" lon="8.27377318856863"><ele>245.66666666666669</ele><time>2026-04-11T11:31:27.002Z</time></trkpt><trkpt lat="45.03991512670129" lon="8.27366120593328"><ele>247.0</ele><time>2026-04-11T11:31:28.002Z</time></trkpt><trkpt lat="45.03991580034954" lon="8.273553533446005"><ele>248.33333333333334</ele><time>2026-04-11T11:31:29.002Z</time></trkpt><trkpt lat="45.03993386856159" lon="8.273434057903357"><ele>249.66666666666669</ele><time>2026-04-11T11:31:30.002Z</time></trkpt><trkpt lat="45.03998333475719" lon="8.273316855163795"><ele>251.0</ele><time>2026-04-11T11:31:31.002Z</time></trkpt><trkpt lat="45.04004858010225" lon="8.273204329278093"><ele>253.0</ele><time>2026-04-11T11:31:32.002Z</time></trkpt><trkpt lat="45.04012959502413" lon="8.273086476781991"><ele>255.0</ele><time>2026-04-11T11:31:33.002Z</time></trkpt><trkpt lat="45.040206808742354" lon="8.272964767689707"><ele>257.0</ele><time>2026-04-11T11:31:34.002Z</time></trkpt><trkpt lat="45.04027501770741" lon="8.272827791489076"><ele>259.0</ele><time>2026-04-11T11:31:35.002Z</time></trkpt><trkpt lat="45.04033737857096" lon="8.272717580494914"><ele>259.0</ele><time>2026-04-11T11:31:36.002Z</time></trkpt><trkpt lat="45.04036691655383" lon="8.272620374848202"><ele>259.0</ele><time>2026-04-11T11:31:37.002Z</time></trkpt><trkpt lat="45.040422223894545" lon="8.272468406753344"><ele>259.0</ele><time>2026-04-11T11:31:39.002Z</time></trkpt><trkpt lat="45.04047531443704" lon="8.272336151472098"><ele>259.0</ele><time>2026-04-11T11:31:41.002Z</time></trkpt><trkpt lat="45.04054651543226" lon="8.272179216911415"><ele>259.0</ele><time>2026-04-11T11:31:43.002Z</time></trkpt><trkpt lat="45.04058319592128" lon="8.272087158381419"><ele>258.3333333333333</ele><time>2026-04-11T11:31:44.002Z</time></trkpt><trkpt lat="45.040623005539835" lon="8.27201689624916"><ele>257.66666666666663</ele><time>2026-04-11T11:31:45.002Z</time></trkpt><trkpt lat="45.04067178172032" lon="8.271957264232173"><ele>257.0</ele><time>2026-04-11T11:31:46.002Z</time></trkpt><trkpt lat="45.04072651182356" lon="8.271882059359314"><ele>256.3333333333333</ele><time>2026-04-11T11:31:47.002Z</time></trkpt><trkpt lat="45.04079115673659" lon="8.271792511749354"><ele>255.66666666666666</ele><time>2026-04-11T11:31:48.002Z</time></trkpt><trkpt lat="45.04086058562481" lon="8.271704285061466"><ele>255.0</ele><time>2026-04-11T11:31:49.002Z</time></trkpt><trkpt lat="45.040928546488985" lon="8.271629577386072"><ele>254.8</ele><time>2026-04-11T11:31:50.002Z</time></trkpt><trkpt lat="45.04100215132747" lon="8.271569291656943"><ele>254.6</ele><time>2026-04-11T11:31:51.002Z</time></trkpt><trkpt lat="45.04108392242441" lon="8.271529571194794"><ele>254.39999999999998</ele><time>2026-04-11T11:31:52.002Z</time></trkpt><trkpt lat="45.04117535959665" lon="8.271495533828075"><ele>254.2</ele><time>2026-04-11T11:31:53.002Z</time></trkpt><trkpt lat="45.041273571016305" lon="8.271466583560134"><ele>254.0</ele><time>2026-04-11T11:31:54.002Z</time></trkpt><trkpt lat="45.04137780719403" lon="8.271451954555287"><ele>254.0</ele><time>2026-04-11T11:31:55.002Z</time></trkpt><trkpt lat="45.04148228693988" lon="8.271442275918846"><ele>254.0</ele><time>2026-04-11T11:31:56.002Z</time></trkpt><trkpt lat="45.04159694469735" lon="8.271424037971618"><ele>254.0</ele><time>2026-04-11T11:31:57.002Z</time></trkpt><trkpt lat="45.04171329837289" lon="8.271412358264868"><ele>254.0</ele><time>2026-04-11T11:31:58.002Z</time></trkpt><trkpt lat="45.041828909882184" lon="8.27139731885298"><ele>250.0</ele><time>2026-04-11T11:31:59.002Z</time></trkpt><trkpt lat="45.04194281993617" lon="8.271391657618542"><ele>246.0</ele><time>2026-04-11T11:32:00.003Z</time></trkpt><trkpt lat="45.04205249160666" lon="8.271388648729614"><ele>242.0</ele><time>2026-04-11T11:32:01.003Z</time></trkpt><trkpt lat="45.042166718045095" lon="8.271383937872306"><ele>238.0</ele><time>2026-04-11T11:32:02.003Z</time></trkpt><trkpt lat="45.04227999006173" lon="8.271384387049393"><ele>238.0</ele><time>2026-04-11T11:32:03.003Z</time></trkpt><trkpt lat="45.042393374762106" lon="8.271382067204966"><ele>238.0</ele><time>2026-04-11T11:32:04.003Z</time></trkpt><trkpt lat="45.04250504548071" lon="8.271380454429742"><ele>238.0</ele><time>2026-04-11T11:32:05.003Z</time></trkpt><trkpt lat="45.04261184775618" lon="8.271388198467466"><ele>238.0</ele><time>2026-04-11T11:32:06.003Z</time></trkpt><trkpt lat="45.04272061438719" lon="8.271403554179797"><ele>238.0</ele><time>2026-04-11T11:32:07.003Z</time></trkpt><trkpt lat="45.04282483478027" lon="8.271433223105989"><ele>238.4</ele><time>2026-04-11T11:32:08.003Z</time></trkpt><trkpt lat="45.042925172053394" lon="8.271463050121417"><ele>238.8</ele><time>2026-04-11T11:32:09.003Z</time></trkpt><trkpt lat="45.043020855537335" lon="8.271471220449381"><ele>239.2</ele><time>2026-04-11T11:32:10.003Z</time></trkpt><trkpt lat="45.04310601994739" lon="8.271455575306627"><ele>239.6</ele><time>2026-04-11T11:32:11.003Z</time></trkpt><trkpt lat="45.04319232057535" lon="8.271413624041"><ele>240.0</ele><time>2026-04-11T11:32:12.003Z</time></trkpt><trkpt lat="45.04327726800199" lon="8.271348702234135"><ele>241.4</ele><time>2026-04-11T11:32:13.003Z</time></trkpt><trkpt lat="45.04335508874618" lon="8.271257700140177"><ele>242.8</ele><time>2026-04-11T11:32:14.003Z</time></trkpt><trkpt lat="45.04342609995785" lon="8.271149626452267"><ele>244.2</ele><time>2026-04-11T11:32:15.003Z</time></trkpt><trkpt lat="45.043483584757745" lon="8.271027043938973"><ele>245.6</ele><time>2026-04-11T11:32:15.998Z</time></trkpt><trkpt lat="45.0435347487771" lon="8.270909253945652"><ele>247.0</ele><time>2026-04-11T11:32:16.998Z</time></trkpt><trkpt lat="45.04357430195616" lon="8.270784452879724"><ele>247.0</ele><time>2026-04-11T11:32:17.998Z</time></trkpt><trkpt lat="45.043611143490956" lon="8.27065415554315"><ele>247.0</ele><time>2026-04-11T11:32:18.998Z</time></trkpt><trkpt lat="45.04364023132717" lon="8.270512595105458"><ele>247.0</ele><time>2026-04-11T11:32:19.998Z</time></trkpt><trkpt lat="45.04365996827693" lon="8.270401161815535"><ele>247.0</ele><time>2026-04-11T11:32:20.998Z</time></trkpt><trkpt lat="45.043691600457414" lon="8.270296687052367"><ele>247.0</ele><time>2026-04-11T11:32:22.998Z</time></trkpt><trkpt lat="45.04378477514628" lon="8.270213688188326"><ele>247.83333333333331</ele><time>2026-04-11T11:32:25.998Z</time></trkpt><trkpt lat="45.043863936363536" lon="8.270194519872762"><ele>248.66666666666666</ele><time>2026-04-11T11:32:26.998Z</time></trkpt><trkpt lat="45.04393327955837" lon="8.27016402580927"><ele>249.5</ele><time>2026-04-11T11:32:27.998Z</time></trkpt><trkpt lat="45.04400179454831" lon="8.270135718238675"><ele>250.33333333333331</ele><time>2026-04-11T11:32:28.998Z</time></trkpt><trkpt lat="45.04408405676462" lon="8.270097985573079"><ele>251.16666666666666</ele><time>2026-04-11T11:32:29.998Z</time></trkpt><trkpt lat="45.04415295290725" lon="8.270058419177209"><ele>252.0</ele><time>2026-04-11T11:32:30.999Z</time></trkpt><trkpt lat="45.04426872639378" lon="8.269993981432709"><ele>252.0</ele><time>2026-04-11T11:32:32.999Z</time></trkpt><trkpt lat="45.0443297886653" lon="8.269949225311743"><ele>252.0</ele><time>2026-04-11T11:32:33.999Z</time></trkpt><trkpt lat="45.044395857932024" lon="8.269896365721749"><ele>252.0</ele><time>2026-04-11T11:32:34.999Z</time></trkpt><trkpt lat="45.04446559380424" lon="8.269844533526939"><ele>252.0</ele><time>2026-04-11T11:32:35.999Z</time></trkpt><trkpt lat="45.04453926899995" lon="8.269792670824373"><ele>252.0</ele><time>2026-04-11T11:32:36.999Z</time></trkpt><trkpt lat="45.044612150765744" lon="8.269734607088438"><ele>252.0</ele><time>2026-04-11T11:32:37.999Z</time></trkpt><trkpt lat="45.04468770295086" lon="8.269666874923743"><ele>251.39999999999998</ele><time>2026-04-11T11:32:38.999Z</time></trkpt><trkpt lat="45.044764365424754" lon="8.269591526030627"><ele>250.79999999999998</ele><time>2026-04-11T11:32:39.999Z</time></trkpt><trkpt lat="45.0448463062402" lon="8.26950600554855"><ele>250.2</ele><time>2026-04-11T11:32:40.999Z</time></trkpt><trkpt lat="45.04492738572884" lon="8.269425313479996"><ele>249.6</ele><time>2026-04-11T11:32:41.999Z</time></trkpt><trkpt lat="45.04500533537872" lon="8.269345041241385"><ele>249.0</ele><time>2026-04-11T11:32:42.999Z</time></trkpt><trkpt lat="45.04508956064205" lon="8.26925701911586"><ele>250.25</ele><time>2026-04-11T11:32:43.999Z</time></trkpt><trkpt lat="45.04517715980218" lon="8.269165291201316"><ele>251.5</ele><time>2026-04-11T11:32:44.999Z</time></trkpt><trkpt lat="45.04526757084333" lon="8.269066839979933"><ele>252.75</ele><time>2026-04-11T11:32:46Z</time></trkpt><trkpt lat="45.0453609697034" lon="8.268965622696102"><ele>254.0</ele><time>2026-04-11T11:32:47Z</time></trkpt><trkpt lat="45.04545873165328" lon="8.268864933097019"><ele>254.0</ele><time>2026-04-11T11:32:48Z</time></trkpt><trkpt lat="45.045557467313074" lon="8.268762440245482"><ele>254.0</ele><time>2026-04-11T11:32:49Z</time></trkpt><trkpt lat="45.04565725397931" lon="8.268664651606393"><ele>254.0</ele><time>2026-04-11T11:32:50Z</time></trkpt><trkpt lat="45.045756800689" lon="8.268556764835882"><ele>254.0</ele><time>2026-04-11T11:32:51Z</time></trkpt><trkpt lat="45.04586086908842" lon="8.268450614035533"><ele>255.25</ele><time>2026-04-11T11:32:52Z</time></trkpt><trkpt lat="45.045966917890794" lon="8.268343287205258"><ele>256.5</ele><time>2026-04-11T11:32:53Z</time></trkpt><trkpt lat="45.04607990188238" lon="8.26822289218419"><ele>257.75</ele><time>2026-04-11T11:32:54Z</time></trkpt><trkpt lat="45.04619160846768" lon="8.268100050274295"><ele>259.0</ele><time>2026-04-11T11:32:55Z</time></trkpt><trkpt lat="45.04630660528266" lon="8.268002035056425"><ele>259.0</ele><time>2026-04-11T11:32:56Z</time></trkpt><trkpt lat="45.046409098983354" lon="8.267901210173905"><ele>259.0</ele><time>2026-04-11T11:32:57Z</time></trkpt><trkpt lat="45.046510805280285" lon="8.267803864195782"><ele>259.0</ele><time>2026-04-11T11:32:58Z</time></trkpt><trkpt lat="45.04661567057749" lon="8.267692612038283"><ele>259.0</ele><time>2026-04-11T11:32:59Z</time></trkpt><trkpt lat="45.046719989941636" lon="8.267580297506704"><ele>260.25</ele><time>2026-04-11T11:33:00Z</time></trkpt><trkpt lat="45.0468239397001" lon="8.267470372354689"><ele>261.5</ele><time>2026-04-11T11:33:01Z</time></trkpt><trkpt lat="45.04692770605751" lon="8.267362506965469"><ele>262.75</ele><time>2026-04-11T11:33:02Z</time></trkpt><trkpt lat="45.0470335266926" lon="8.267258729790226"><ele>264.0</ele><time>2026-04-11T11:33:03Z</time></trkpt><trkpt lat="45.04713005204246" lon="8.267171904452207"><ele>264.0</ele><time>2026-04-11T11:33:04Z</time></trkpt><trkpt lat="45.04721884990659" lon="8.267101948377407"><ele>264.0</ele><time>2026-04-11T11:33:05Z</time></trkpt><trkpt lat="45.04730726337238" lon="8.267063867210824"><ele>264.0</ele><time>2026-04-11T11:33:06Z</time></trkpt><trkpt lat="45.04740125467382" lon="8.267055944775523"><ele>264.0</ele><time>2026-04-11T11:33:07Z</time></trkpt><trkpt lat="45.04750474196137" lon="8.267082541318677"><ele>264.0</ele><time>2026-04-11T11:33:08Z</time></trkpt><trkpt lat="45.04761437071546" lon="8.267132626173085"><ele>267.5</ele><time>2026-04-11T11:33:09Z</time></trkpt><trkpt lat="45.04772337961833" lon="8.26720578054867"><ele>271.0</ele><time>2026-04-11T11:33:10.001Z</time></trkpt><trkpt lat="45.047853066276204" lon="8.267279361192585"><ele>274.5</ele><time>2026-04-11T11:33:11.001Z</time></trkpt><trkpt lat="45.04797606625793" lon="8.267345793650648"><ele>278.0</ele><time>2026-04-11T11:33:12.001Z</time></trkpt><trkpt lat="45.048096225156044" lon="8.267417480085275"><ele>280.25</ele><time>2026-04-11T11:33:13.001Z</time></trkpt><trkpt lat="45.04823235243874" lon="8.267490792238652"><ele>282.5</ele><time>2026-04-11T11:33:14.001Z</time></trkpt><trkpt lat="45.04836244864508" lon="8.267558680398576"><ele>284.75</ele><time>2026-04-11T11:33:15.001Z</time></trkpt><trkpt lat="45.04849826191806" lon="8.267628121672953"><ele>287.0</ele><time>2026-04-11T11:33:16.001Z</time></trkpt><trkpt lat="45.048608477706914" lon="8.267765127127346"><ele>287.25</ele><time>2026-04-11T11:33:17.001Z</time></trkpt><trkpt lat="45.04874887478975" lon="8.26788694719629"><ele>287.5</ele><time>2026-04-11T11:33:18.001Z</time></trkpt><trkpt lat="45.04889888747392" lon="8.267908254044539"><ele>287.75</ele><time>2026-04-11T11:33:19.001Z</time></trkpt><trkpt lat="45.04897736518854" lon="8.2679539607475"><ele>288.0</ele><time>2026-04-11T11:33:20.001Z</time></trkpt><trkpt lat="45.049202045723476" lon="8.268027025502814"><ele>288.0</ele><time>2026-04-11T11:33:21.001Z</time></trkpt><trkpt lat="45.04932894109047" lon="8.26806132763577"><ele>288.0</ele><time>2026-04-11T11:33:22.001Z</time></trkpt><trkpt lat="45.04946143929124" lon="8.268049806865397"><ele>288.0</ele><time>2026-04-11T11:33:23.001Z</time></trkpt><trkpt lat="45.049590518101034" lon="8.268019884832269"><ele>288.0</ele><time>2026-04-11T11:33:24.001Z</time></trkpt><trkpt lat="45.04973004259301" lon="8.26800062892972"><ele>288.0</ele><time>2026-04-11T11:33:25.001Z</time></trkpt><trkpt lat="45.04986355648999" lon="8.267980006090575"><ele>288.0</ele><time>2026-04-11T11:33:26.001Z</time></trkpt><trkpt lat="45.049996699499324" lon="8.267958283393442"><ele>288.0</ele><time>2026-04-11T11:33:27.001Z</time></trkpt><trkpt lat="45.05011664053419" lon="8.26796155728263"><ele>288.0</ele><time>2026-04-11T11:33:28.001Z</time></trkpt><trkpt lat="45.050233860900754" lon="8.26798551651531"><ele>286.0</ele><time>2026-04-11T11:33:29.001Z</time></trkpt><trkpt lat="45.05035105021992" lon="8.268033049716333"><ele>284.0</ele><time>2026-04-11T11:33:30.001Z</time></trkpt><trkpt lat="45.05045690938399" lon="8.268099886491347"><ele>282.0</ele><time>2026-04-11T11:33:31.001Z</time></trkpt><trkpt lat="45.05055953063382" lon="8.268182100056947"><ele>280.0</ele><time>2026-04-11T11:33:32.001Z</time></trkpt><trkpt lat="45.050661219677515" lon="8.268281682465508"><ele>277.0</ele><time>2026-04-11T11:33:33.001Z</time></trkpt><trkpt lat="45.05076288997677" lon="8.268401135985693"><ele>274.0</ele><time>2026-04-11T11:33:34.001Z</time></trkpt><trkpt lat="45.05086667443582" lon="8.268531606527038"><ele>271.0</ele><time>2026-04-11T11:33:35.001Z</time></trkpt><trkpt lat="45.05096517576827" lon="8.268657625328656"><ele>268.0</ele><time>2026-04-11T11:33:36.001Z</time></trkpt><trkpt lat="45.051067033335116" lon="8.268784322252376"><ele>268.0</ele><time>2026-04-11T11:33:37.001Z</time></trkpt><trkpt lat="45.0511574670618" lon="8.268905688615197"><ele>268.0</ele><time>2026-04-11T11:33:38.001Z</time></trkpt><trkpt lat="45.05124883796419" lon="8.269026885738256"><ele>268.0</ele><time>2026-04-11T11:33:39.001Z</time></trkpt><trkpt lat="45.05131964174858" lon="8.26915934580723"><ele>268.0</ele><time>2026-04-11T11:33:40.001Z</time></trkpt><trkpt lat="45.051373145520174" lon="8.26929612438644"><ele>267.0</ele><time>2026-04-11T11:33:41.002Z</time></trkpt><trkpt lat="45.051413205595146" lon="8.269420722834534"><ele>266.0</ele><time>2026-04-11T11:33:42.002Z</time></trkpt><trkpt lat="45.05144542469096" lon="8.26952009585974"><ele>265.0</ele><time>2026-04-11T11:33:43.002Z</time></trkpt><trkpt lat="45.05148233028339" lon="8.269594770269164"><ele>264.0</ele><time>2026-04-11T11:33:44.002Z</time></trkpt><trkpt lat="45.05155350878121" lon="8.2695996042183"><ele>263.0</ele><time>2026-04-11T11:33:46.002Z</time></trkpt><trkpt lat="45.05160764301618" lon="8.269506847264287"><ele>262.0</ele><time>2026-04-11T11:33:48.002Z</time></trkpt><trkpt lat="45.051624882786435" lon="8.269408425207446"><ele>262.0</ele><time>2026-04-11T11:33:49.002Z</time></trkpt><trkpt lat="45.05166302163459" lon="8.26931287737211"><ele>262.0</ele><time>2026-04-11T11:33:50.002Z</time></trkpt><trkpt lat="45.05172635331549" lon="8.269223418960577"><ele>262.0</ele><time>2026-04-11T11:33:51.002Z</time></trkpt><trkpt lat="45.05180321100852" lon="8.269157848498295"><ele>262.0</ele><time>2026-04-11T11:33:52.002Z</time></trkpt><trkpt lat="45.05189778657087" lon="8.269104919934467"><ele>262.0</ele><time>2026-04-11T11:33:53.002Z</time></trkpt><trkpt lat="45.05198789236571" lon="8.269067513255328"><ele>262.0</ele><time>2026-04-11T11:33:54.002Z</time></trkpt><trkpt lat="45.05206408567951" lon="8.269035180246279"><ele>262.0</ele><time>2026-04-11T11:33:55.002Z</time></trkpt><trkpt lat="45.05214457818908" lon="8.269000181102133"><ele>262.0</ele><time>2026-04-11T11:33:56.002Z</time></trkpt><trkpt lat="45.052226108321456" lon="8.268952516794998"><ele>262.0</ele><time>2026-04-11T11:33:57.002Z</time></trkpt><trkpt lat="45.05229725426425" lon="8.26889534853956"><ele>262.0</ele><time>2026-04-11T11:33:58.002Z</time></trkpt><trkpt lat="45.05234494199315" lon="8.268824862654919"><ele>262.0</ele><time>2026-04-11T11:33:59.002Z</time></trkpt><trkpt lat="45.052369252223464" lon="8.268740712290379"><ele>263.57142857142856</ele><time>2026-04-11T11:34:00.002Z</time></trkpt><trkpt lat="45.05237291069915" lon="8.268638903892764"><ele>265.14285714285717</ele><time>2026-04-11T11:34:01.002Z</time></trkpt><trkpt lat="45.052354109970636" lon="8.268539758127964"><ele>266.7142857142857</ele><time>2026-04-11T11:34:02.002Z</time></trkpt><trkpt lat="45.05230900050073" lon="8.26845571799624"><ele>268.2857142857143</ele><time>2026-04-11T11:34:03.002Z</time></trkpt><trkpt lat="45.05224721712923" lon="8.268395250120435"><ele>269.8571428571429</ele><time>2026-04-11T11:34:04.002Z</time></trkpt><trkpt lat="45.052184337098886" lon="8.268343336600562"><ele>271.42857142857144</ele><time>2026-04-11T11:34:05.002Z</time></trkpt><trkpt lat="45.052118912187055" lon="8.268287398486976"><ele>273.0</ele><time>2026-04-11T11:34:06.002Z</time></trkpt><trkpt lat="45.05205094330456" lon="8.268229036026705"><ele>273.0</ele><time>2026-04-11T11:34:07.002Z</time></trkpt><trkpt lat="45.05197744871285" lon="8.268162130475147"><ele>273.0</ele><time>2026-04-11T11:34:08.002Z</time></trkpt><trkpt lat="45.051899658849536" lon="8.268086681240963"><ele>273.0</ele><time>2026-04-11T11:34:09.002Z</time></trkpt><trkpt lat="45.051817206907266" lon="8.268010241040178"><ele>273.0</ele><time>2026-04-11T11:34:10.002Z</time></trkpt><trkpt lat="45.051730727299024" lon="8.267930134268372"><ele>273.0</ele><time>2026-04-11T11:34:11.002Z</time></trkpt><trkpt lat="45.051639027418574" lon="8.267847417013868"><ele>276.0</ele><time>2026-04-11T11:34:12.002Z</time></trkpt><trkpt lat="45.051544181143406" lon="8.267762329545205"><ele>279.0</ele><time>2026-04-11T11:34:13.002Z</time></trkpt><trkpt lat="45.05144691945066" lon="8.267679835212963"><ele>282.0</ele><time>2026-04-11T11:34:14.002Z</time></trkpt><trkpt lat="45.05135066082779" lon="8.267598217109835"><ele>285.0</ele><time>2026-04-11T11:34:15.003Z</time></trkpt><trkpt lat="45.051260404892176" lon="8.267514524094079"><ele>288.0</ele><time>2026-04-11T11:34:16.003Z</time></trkpt><trkpt lat="45.05116285137048" lon="8.267433336102457"><ele>288.0</ele><time>2026-04-11T11:34:17.003Z</time></trkpt><trkpt lat="45.051067577760236" lon="8.267345066165454"><ele>288.0</ele><time>2026-04-11T11:34:18.003Z</time></trkpt><trkpt lat="45.05097032523917" lon="8.267273029154735"><ele>288.0</ele><time>2026-04-11T11:34:19.003Z</time></trkpt><trkpt lat="45.050878394644826" lon="8.267190148930695"><ele>288.0</ele><time>2026-04-11T11:34:20.003Z</time></trkpt><trkpt lat="45.050783020250826" lon="8.267120747834293"><ele>288.0</ele><time>2026-04-11T11:34:21.003Z</time></trkpt><trkpt lat="45.05069183258875" lon="8.267030092318892"><ele>289.1666666666667</ele><time>2026-04-11T11:34:21.998Z</time></trkpt><trkpt lat="45.05062228630933" lon="8.266969368149706"><ele>290.3333333333333</ele><time>2026-04-11T11:34:22.998Z</time></trkpt><trkpt lat="45.05055176981082" lon="8.266910615688696"><ele>291.5</ele><time>2026-04-11T11:34:23.998Z</time></trkpt><trkpt lat="45.05048189463636" lon="8.266854713019896"><ele>292.66666666666663</ele><time>2026-04-11T11:34:24.998Z</time></trkpt><trkpt lat="45.05041994868114" lon="8.266788319563394"><ele>293.8333333333333</ele><time>2026-04-11T11:34:25.998Z</time></trkpt><trkpt lat="45.050356250094104" lon="8.266730871129647"><ele>295.0</ele><time>2026-04-11T11:34:26.998Z</time></trkpt><trkpt lat="45.05029828638014" lon="8.26667770022928"><ele>295.0</ele><time>2026-04-11T11:34:27.998Z</time></trkpt><trkpt lat="45.05023212233888" lon="8.26661336364945"><ele>295.0</ele><time>2026-04-11T11:34:28.998Z</time></trkpt><trkpt lat="45.050164998185366" lon="8.266551378718209"><ele>295.0</ele><time>2026-04-11T11:34:29.999Z</time></trkpt><trkpt lat="45.050093510221664" lon="8.266502125400438"><ele>295.0</ele><time>2026-04-11T11:34:30.999Z</time></trkpt><trkpt lat="45.05002471653246" lon="8.266449044638492"><ele>295.0</ele><time>2026-04-11T11:34:31.999Z</time></trkpt><trkpt lat="45.04995755698708" lon="8.266410424604945"><ele>295.0</ele><time>2026-04-11T11:34:32.999Z</time></trkpt><trkpt lat="45.04989687716116" lon="8.266357254040198"><ele>295.3333333333333</ele><time>2026-04-11T11:34:33.999Z</time></trkpt><trkpt lat="45.049846710445294" lon="8.266298814238123"><ele>295.66666666666663</ele><time>2026-04-11T11:34:34.999Z</time></trkpt><trkpt lat="45.04979132607631" lon="8.26624886357881"><ele>296.0</ele><time>2026-04-11T11:34:36.999Z</time></trkpt><trkpt lat="45.04971756103097" lon="8.26613973717621"><ele>296.3333333333333</ele><time>2026-04-11T11:34:40.999Z</time></trkpt><trkpt lat="45.0496540232616" lon="8.266028001818235"><ele>296.6666666666667</ele><time>2026-04-11T11:34:43Z</time></trkpt><trkpt lat="45.049617948501925" lon="8.265919366688603"><ele>297.0</ele><time>2026-04-11T11:34:45Z</time></trkpt><trkpt lat="45.04958102151856" lon="8.265803412219796"><ele>297.0</ele><time>2026-04-11T11:34:47Z</time></trkpt><trkpt lat="45.04954029472483" lon="8.265714390683899"><ele>297.0</ele><time>2026-04-11T11:35:00.001Z</time></trkpt><trkpt lat="45.049460762686664" lon="8.26565169052919"><ele>297.0</ele><time>2026-04-11T11:35:02.001Z</time></trkpt><trkpt lat="45.049361203831936" lon="8.265570784207567"><ele>297.0</ele><time>2026-04-11T11:35:04.001Z</time></trkpt><trkpt lat="45.04926967353391" lon="8.265467440897151"><ele>297.0</ele><time>2026-04-11T11:35:06.001Z</time></trkpt><trkpt lat="45.04922857307963" lon="8.265397786593988"><ele>295.0</ele><time>2026-04-11T11:35:08.001Z</time></trkpt><trkpt lat="45.04927528211345" lon="8.265263302874649"><ele>293.0</ele><time>2026-04-11T11:35:11.001Z</time></trkpt><trkpt lat="45.04931610513861" lon="8.26519005823674"><ele>291.0</ele><time>2026-04-11T11:35:12.001Z</time></trkpt><trkpt lat="45.04935487776329" lon="8.265105693030124"><ele>289.0</ele><time>2026-04-11T11:35:13.001Z</time></trkpt><trkpt lat="45.049400172514275" lon="8.265028297503443"><ele>287.0</ele><time>2026-04-11T11:35:14.001Z</time></trkpt><trkpt lat="45.04944948503878" lon="8.264940726231158"><ele>285.0</ele><time>2026-04-11T11:35:15.001Z</time></trkpt><trkpt lat="45.04950008199988" lon="8.264855035797284"><ele>283.0</ele><time>2026-04-11T11:35:16.001Z</time></trkpt><trkpt lat="45.04955080969852" lon="8.264755739032525"><ele>281.0</ele><time>2026-04-11T11:35:17.001Z</time></trkpt><trkpt lat="45.04960378217676" lon="8.264657464600273"><ele>279.0</ele><time>2026-04-11T11:35:18.001Z</time></trkpt><trkpt lat="45.04966550784102" lon="8.264553558955356"><ele>277.0</ele><time>2026-04-11T11:35:19.001Z</time></trkpt><trkpt lat="45.04972183383451" lon="8.264427424992652"><ele>275.0</ele><time>2026-04-11T11:35:20.001Z</time></trkpt><trkpt lat="45.04977330559074" lon="8.26429833455336"><ele>275.0</ele><time>2026-04-11T11:35:21.001Z</time></trkpt><trkpt lat="45.04981105124346" lon="8.264182847005872"><ele>275.0</ele><time>2026-04-11T11:35:22.001Z</time></trkpt><trkpt lat="45.04984980628891" lon="8.26407837769727"><ele>275.0</ele><time>2026-04-11T11:35:23.001Z</time></trkpt><trkpt lat="45.04990071547259" lon="8.26397345196816"><ele>275.0</ele><time>2026-04-11T11:35:24.001Z</time></trkpt><trkpt lat="45.04996560265817" lon="8.263890343944986"><ele>275.0</ele><time>2026-04-11T11:35:25.001Z</time></trkpt><trkpt lat="45.05003982359756" lon="8.263812639765547"><ele>275.0</ele><time>2026-04-11T11:35:26.001Z</time></trkpt><trkpt lat="45.050096628863216" lon="8.263752752738005"><ele>276.0</ele><time>2026-04-11T11:35:27.002Z</time></trkpt><trkpt lat="45.0501588176698" lon="8.263694375005615"><ele>277.0</ele><time>2026-04-11T11:35:28.002Z</time></trkpt><trkpt lat="45.050220986506105" lon="8.2636306871584"><ele>278.0</ele><time>2026-04-11T11:35:29.002Z</time></trkpt><trkpt lat="45.05028378979362" lon="8.263567334032887"><ele>279.0</ele><time>2026-04-11T11:35:30.002Z</time></trkpt><trkpt lat="45.05034879576789" lon="8.263508121647263"><ele>280.0</ele><time>2026-04-11T11:35:31.002Z</time></trkpt><trkpt lat="45.0504046313123" lon="8.263413434053238"><ele>281.0</ele><time>2026-04-11T11:35:32.002Z</time></trkpt><trkpt lat="45.050455189058546" lon="8.263320706003665"><ele>281.0</ele><time>2026-04-11T11:35:33.002Z</time></trkpt><trkpt lat="45.050512432834786" lon="8.263202421381683"><ele>281.0</ele><time>2026-04-11T11:35:34.002Z</time></trkpt><trkpt lat="45.050570300057146" lon="8.263075672053613"><ele>281.0</ele><time>2026-04-11T11:35:35.002Z</time></trkpt><trkpt lat="45.05062816402085" lon="8.262947125794831"><ele>281.0</ele><time>2026-04-11T11:35:36.002Z</time></trkpt><trkpt lat="45.0506871417888" lon="8.262814535246115"><ele>281.0</ele><time>2026-04-11T11:35:37.002Z</time></trkpt><trkpt lat="45.05074827615719" lon="8.262684505512254"><ele>281.8</ele><time>2026-04-11T11:35:38.002Z</time></trkpt><trkpt lat="45.05080425471405" lon="8.262557235805424"><ele>282.6</ele><time>2026-04-11T11:35:39.002Z</time></trkpt><trkpt lat="45.050848852927444" lon="8.262433307004668"><ele>283.4</ele><time>2026-04-11T11:35:40.002Z</time></trkpt><trkpt lat="45.050892108402884" lon="8.262315581310986"><ele>284.2</ele><time>2026-04-11T11:35:41.002Z</time></trkpt><trkpt lat="45.0509380986336" lon="8.262207120805252"><ele>285.0</ele><time>2026-04-11T11:35:42.002Z</time></trkpt><trkpt lat="45.050989259962776" lon="8.262116431474944"><ele>285.0</ele><time>2026-04-11T11:35:43.002Z</time></trkpt><trkpt lat="45.051045577367816" lon="8.2620257386857"><ele>285.0</ele><time>2026-04-11T11:35:44.002Z</time></trkpt><trkpt lat="45.05109961335269" lon="8.261921661615524"><ele>285.0</ele><time>2026-04-11T11:35:45.002Z</time></trkpt><trkpt lat="45.051158062070165" lon="8.261804314013691"><ele>285.0</ele><time>2026-04-11T11:35:46.002Z</time></trkpt><trkpt lat="45.05121779210555" lon="8.261670963583885"><ele>285.0</ele><time>2026-04-11T11:35:47.002Z</time></trkpt><trkpt lat="45.05128190705576" lon="8.261531070882011"><ele>283.0</ele><time>2026-04-11T11:35:48.002Z</time></trkpt><trkpt lat="45.051351475384344" lon="8.261387714928961"><ele>281.0</ele><time>2026-04-11T11:35:49.002Z</time></trkpt><trkpt lat="45.051417648593045" lon="8.261240749355546"><ele>279.0</ele><time>2026-04-11T11:35:50.002Z</time></trkpt><trkpt lat="45.051487923793516" lon="8.26109543086983"><ele>277.0</ele><time>2026-04-11T11:35:51.002Z</time></trkpt><trkpt lat="45.05155044449488" lon="8.26094817314409"><ele>277.0</ele><time>2026-04-11T11:35:52.002Z</time></trkpt><trkpt lat="45.051612073057456" lon="8.260817473140726"><ele>277.0</ele><time>2026-04-11T11:35:53.002Z</time></trkpt><trkpt lat="45.05167304565878" lon="8.260686001526683"><ele>277.0</ele><time>2026-04-11T11:35:54.002Z</time></trkpt><trkpt lat="45.05172587792612" lon="8.260550791771312"><ele>277.0</ele><time>2026-04-11T11:35:55.002Z</time></trkpt><trkpt lat="45.05178246822473" lon="8.260431628337715"><ele>277.0</ele><time>2026-04-11T11:35:56.002Z</time></trkpt><trkpt lat="45.05183387121658" lon="8.260332210746206"><ele>279.3333333333333</ele><time>2026-04-11T11:35:57.002Z</time></trkpt><trkpt lat="45.05187528500947" lon="8.260231798496031"><ele>281.66666666666663</ele><time>2026-04-11T11:35:58.002Z</time></trkpt><trkpt lat="45.051857426992584" lon="8.260079643782678"><ele>284.0</ele><time>2026-04-11T11:36:00.003Z</time></trkpt><trkpt lat="45.051811396258316" lon="8.260016189094422"><ele>286.3333333333333</ele><time>2026-04-11T11:36:01.003Z</time></trkpt><trkpt lat="45.05177936483955" lon="8.259935975343563"><ele>288.6666666666667</ele><time>2026-04-11T11:36:02.003Z</time></trkpt><trkpt lat="45.051772460287474" lon="8.259843913647122"><ele>291.0</ele><time>2026-04-11T11:36:03.003Z</time></trkpt><trkpt lat="45.051781454528864" lon="8.259736408648198"><ele>291.0</ele><time>2026-04-11T11:36:04.003Z</time></trkpt><trkpt lat="45.05180235834934" lon="8.259626768031527"><ele>291.0</ele><time>2026-04-11T11:36:05.003Z</time></trkpt><trkpt lat="45.05183376974235" lon="8.25951519941199"><ele>291.0</ele><time>2026-04-11T11:36:06.003Z</time></trkpt><trkpt lat="45.051874781107614" lon="8.259407293376238"><ele>291.0</ele><time>2026-04-11T11:36:07.003Z</time></trkpt><trkpt lat="45.051918352580316" lon="8.25929478617161"><ele>291.0</ele><time>2026-04-11T11:36:08.003Z</time></trkpt><trkpt lat="45.05197265506559" lon="8.259179798875026"><ele>291.0</ele><time>2026-04-11T11:36:09.003Z</time></trkpt><trkpt lat="45.05203107230769" lon="8.259069003531947"><ele>291.0</ele><time>2026-04-11T11:36:10.003Z</time></trkpt><trkpt lat="45.05209432301143" lon="8.258954366651773"><ele>291.0</ele><time>2026-04-11T11:36:11.003Z</time></trkpt><trkpt lat="45.05215430752092" lon="8.258828174733772"><ele>291.0</ele><time>2026-04-11T11:36:12.003Z</time></trkpt><trkpt lat="45.052214488180866" lon="8.258702011382246"><ele>291.0</ele><time>2026-04-11T11:36:13.003Z</time></trkpt><trkpt lat="45.052268738607054" lon="8.258575151487683"><ele>291.0</ele><time>2026-04-11T11:36:14.003Z</time></trkpt><trkpt lat="45.05231726919477" lon="8.258451895659922"><ele>292.0</ele><time>2026-04-11T11:36:15.003Z</time></trkpt><trkpt lat="45.052365307501034" lon="8.258330278934364"><ele>293.0</ele><time>2026-04-11T11:36:16.003Z</time></trkpt><trkpt lat="45.052427316187554" lon="8.258228676363657"><ele>294.0</ele><time>2026-04-11T11:36:17.003Z</time></trkpt><trkpt lat="45.05250912352498" lon="8.258126582975045"><ele>295.0</ele><time>2026-04-11T11:36:18.003Z</time></trkpt><trkpt lat="45.05258895025699" lon="8.258018475588388"><ele>296.0</ele><time>2026-04-11T11:36:19.003Z</time></trkpt><trkpt lat="45.0526632278277" lon="8.257921174291011"><ele>296.0</ele><time>2026-04-11T11:36:20.003Z</time></trkpt><trkpt lat="45.05272360963968" lon="8.257846117567757"><ele>296.0</ele><time>2026-04-11T11:36:21.003Z</time></trkpt><trkpt lat="45.05278719678087" lon="8.2577727882531"><ele>296.0</ele><time>2026-04-11T11:36:22.003Z</time></trkpt><trkpt lat="45.05285284344224" lon="8.257691697080807"><ele>296.0</ele><time>2026-04-11T11:36:23.003Z</time></trkpt><trkpt lat="45.052920308381054" lon="8.25760212281308"><ele>296.0</ele><time>2026-04-11T11:36:24.003Z</time></trkpt><trkpt lat="45.052995553479796" lon="8.257500368615586"><ele>296.0</ele><time>2026-04-11T11:36:25.003Z</time></trkpt><trkpt lat="45.053074385768745" lon="8.257389374801296"><ele>294.40000000000003</ele><time>2026-04-11T11:36:26.003Z</time></trkpt><trkpt lat="45.053146934338116" lon="8.257268537414726"><ele>292.8</ele><time>2026-04-11T11:36:27.003Z</time></trkpt><trkpt lat="45.053224325783724" lon="8.25715511291705"><ele>291.20000000000005</ele><time>2026-04-11T11:36:27.999Z</time></trkpt><trkpt lat="45.053300477429346" lon="8.257036558002914"><ele>289.6</ele><time>2026-04-11T11:36:28.999Z</time></trkpt><trkpt lat="45.0533748083593" lon="8.256919374970652"><ele>288.0</ele><time>2026-04-11T11:36:29.999Z</time></trkpt><trkpt lat="45.053425613696575" lon="8.256747569993614"><ele>290.25</ele><time>2026-04-11T11:36:30.999Z</time></trkpt><trkpt lat="45.05349074573905" lon="8.256589300908589"><ele>292.5</ele><time>2026-04-11T11:36:31.999Z</time></trkpt><trkpt lat="45.05354773606264" lon="8.256428445358384"><ele>294.75</ele><time>2026-04-11T11:36:32.999Z</time></trkpt><trkpt lat="45.053598951443085" lon="8.256271148316362"><ele>297.0</ele><time>2026-04-11T11:36:33.999Z</time></trkpt><trkpt lat="45.05364863128385" lon="8.256097857627399"><ele>297.0</ele><time>2026-04-11T11:36:34.999Z</time></trkpt><trkpt lat="45.053695653181684" lon="8.255914678047066"><ele>297.0</ele><time>2026-04-11T11:36:35.999Z</time></trkpt><trkpt lat="45.05373296579036" lon="8.255728763166974"><ele>297.0</ele><time>2026-04-11T11:36:37Z</time></trkpt><trkpt lat="45.05376373952988" lon="8.255527834635856"><ele>297.0</ele><time>2026-04-11T11:36:38Z</time></trkpt><trkpt lat="45.053792677235506" lon="8.255332832242157"><ele>297.2</ele><time>2026-04-11T11:36:39Z</time></trkpt><trkpt lat="45.05382374922702" lon="8.255153027550188"><ele>297.4</ele><time>2026-04-11T11:36:40Z</time></trkpt><trkpt lat="45.05384966235666" lon="8.254992661616491"><ele>297.6</ele><time>2026-04-11T11:36:41Z</time></trkpt><trkpt lat="45.05387256353421" lon="8.254854101775566"><ele>297.8</ele><time>2026-04-11T11:36:42Z</time></trkpt><trkpt lat="45.0538914188987" lon="8.254731221493188"><ele>298.0</ele><time>2026-04-11T11:36:43Z</time></trkpt><trkpt lat="45.05390057377185" lon="8.254615567298075"><ele>299.6</ele><time>2026-04-11T11:36:44Z</time></trkpt><trkpt lat="45.05390835645152" lon="8.254490991965515"><ele>301.20000000000005</ele><time>2026-04-11T11:36:45Z</time></trkpt><trkpt lat="45.05389773663862" lon="8.254362042697347"><ele>302.8</ele><time>2026-04-11T11:36:46Z</time></trkpt><trkpt lat="45.053863214031004" lon="8.254218215051068"><ele>304.40000000000003</ele><time>2026-04-11T11:36:47Z</time></trkpt><trkpt lat="45.053813703320614" lon="8.254080734918444"><ele>306.0</ele><time>2026-04-11T11:36:48Z</time></trkpt><trkpt lat="45.053755005680564" lon="8.253942247167839"><ele>307.8</ele><time>2026-04-11T11:36:49Z</time></trkpt><trkpt lat="45.05370318856729" lon="8.253811662650428"><ele>309.6</ele><time>2026-04-11T11:36:50Z</time></trkpt><trkpt lat="45.053653001523465" lon="8.253703672431682"><ele>311.4</ele><time>2026-04-11T11:36:51Z</time></trkpt><trkpt lat="45.053604301725755" lon="8.253605542790874"><ele>313.2</ele><time>2026-04-11T11:36:52Z</time></trkpt><trkpt lat="45.05355867851874" lon="8.253510108799302"><ele>315.0</ele><time>2026-04-11T11:36:53Z</time></trkpt><trkpt lat="45.05347629399561" lon="8.253431407395622"><ele>315.0</ele><time>2026-04-11T11:36:54Z</time></trkpt><trkpt lat="45.053366086202296" lon="8.253378765471604"><ele>315.0</ele><time>2026-04-11T11:36:55Z</time></trkpt><trkpt lat="45.05325518285997" lon="8.253311462270835"><ele>315.0</ele><time>2026-04-11T11:36:56Z</time></trkpt><trkpt lat="45.05313720068895" lon="8.253253047628446"><ele>315.0</ele><time>2026-04-11T11:36:57Z</time></trkpt><trkpt lat="45.05301857164603" lon="8.253211293153962"><ele>315.0</ele><time>2026-04-11T11:36:58Z</time></trkpt><trkpt lat="45.05290785694595" lon="8.253182772228213"><ele>315.0</ele><time>2026-04-11T11:36:59Z</time></trkpt><trkpt lat="45.052808347373926" lon="8.253153166499136"><ele>315.0</ele><time>2026-04-11T11:37:00Z</time></trkpt><trkpt lat="45.05272030706492" lon="8.253101732793677"><ele>315.0</ele><time>2026-04-11T11:37:01Z</time></trkpt><trkpt lat="45.05265668635294" lon="8.253031383716742"><ele>315.0</ele><time>2026-04-11T11:37:02Z</time></trkpt><trkpt lat="45.05261338449196" lon="8.252947986236812"><ele>312.25</ele><time>2026-04-11T11:37:03.001Z</time></trkpt><trkpt lat="45.052586207324694" lon="8.252780508243402"><ele>309.5</ele><time>2026-04-11T11:37:05.001Z</time></trkpt><trkpt lat="45.05266107796113" lon="8.252629560628222"><ele>306.75</ele><time>2026-04-11T11:37:07.001Z</time></trkpt><trkpt lat="45.05272730473993" lon="8.252548144970614"><ele>304.0</ele><time>2026-04-11T11:37:08.001Z</time></trkpt><trkpt lat="45.0528177448522" lon="8.25243044029457"><ele>304.0</ele><time>2026-04-11T11:37:09.001Z</time></trkpt><trkpt lat="45.052927760926934" lon="8.252293172080025"><ele>304.0</ele><time>2026-04-11T11:37:10.001Z</time></trkpt><trkpt lat="45.05302863747752" lon="8.252148640391653"><ele>304.0</ele><time>2026-04-11T11:37:11.001Z</time></trkpt><trkpt lat="45.053124695371785" lon="8.252011990124586"><ele>304.0</ele><time>2026-04-11T11:37:12.001Z</time></trkpt><trkpt lat="45.05321892623961" lon="8.251880842862473"><ele>305.0</ele><time>2026-04-11T11:37:13.001Z</time></trkpt><trkpt lat="45.05330795077812" lon="8.251760207964436"><ele>306.0</ele><time>2026-04-11T11:37:14.001Z</time></trkpt><trkpt lat="45.053363862505485" lon="8.251647566814249"><ele>307.0</ele><time>2026-04-11T11:37:15.001Z</time></trkpt><trkpt lat="45.05338955969567" lon="8.251521459771645"><ele>308.0</ele><time>2026-04-11T11:37:16.001Z</time></trkpt><trkpt lat="45.05337401018249" lon="8.251393587772323"><ele>309.0</ele><time>2026-04-11T11:37:17.001Z</time></trkpt><trkpt lat="45.05332794099168" lon="8.251266207400207"><ele>303.25</ele><time>2026-04-11T11:37:18.001Z</time></trkpt><trkpt lat="45.05326056190115" lon="8.25112740588086"><ele>297.5</ele><time>2026-04-11T11:37:19.001Z</time></trkpt><trkpt lat="45.053192286422544" lon="8.250972455373667"><ele>291.75</ele><time>2026-04-11T11:37:20.001Z</time></trkpt><trkpt lat="45.05313911950609" lon="8.25078614025562"><ele>286.0</ele><time>2026-04-11T11:37:21.001Z</time></trkpt><trkpt lat="45.053100573704384" lon="8.250586444652352"><ele>286.0</ele><time>2026-04-11T11:37:22.001Z</time></trkpt><trkpt lat="45.05306544462891" lon="8.250390344807718"><ele>286.0</ele><time>2026-04-11T11:37:23.001Z</time></trkpt><trkpt lat="45.053025353059525" lon="8.250212210623207"><ele>286.0</ele><time>2026-04-11T11:37:24.001Z</time></trkpt><trkpt lat="45.05295698893594" lon="8.25004789807181"><ele>286.0</ele><time>2026-04-11T11:37:25.001Z</time></trkpt><trkpt lat="45.052858709293865" lon="8.249882326461922"><ele>286.5</ele><time>2026-04-11T11:37:26.001Z</time></trkpt><trkpt lat="45.05275199801612" lon="8.24973519126119"><ele>287.0</ele><time>2026-04-11T11:37:27.001Z</time></trkpt><trkpt lat="45.05265821397243" lon="8.249585350655092"><ele>287.5</ele><time>2026-04-11T11:37:28.001Z</time></trkpt><trkpt lat="45.052588284502264" lon="8.249451266559268"><ele>288.0</ele><time>2026-04-11T11:37:29.001Z</time></trkpt><trkpt lat="45.052548252350256" lon="8.249339726134908"><ele>288.0</ele><time>2026-04-11T11:37:30.001Z</time></trkpt><trkpt lat="45.05254963642126" lon="8.249234548942907"><ele>288.0</ele><time>2026-04-11T11:37:31.001Z</time></trkpt><trkpt lat="45.052582419351054" lon="8.249129675096254"><ele>288.0</ele><time>2026-04-11T11:37:32.001Z</time></trkpt><trkpt lat="45.05264826574082" lon="8.249030301900323"><ele>288.0</ele><time>2026-04-11T11:37:33.001Z</time></trkpt><trkpt lat="45.05273570278967" lon="8.24893949190994"><ele>288.0</ele><time>2026-04-11T11:37:34.001Z</time></trkpt><trkpt lat="45.05282188837255" lon="8.248867175693553"><ele>288.0</ele><time>2026-04-11T11:37:35.001Z</time></trkpt><trkpt lat="45.05289410530616" lon="8.248818235652513"><ele>288.0</ele><time>2026-04-11T11:37:36.001Z</time></trkpt><trkpt lat="45.05295973084132" lon="8.248803416643737"><ele>288.0</ele><time>2026-04-11T11:37:37.001Z</time></trkpt><trkpt lat="45.0530405250965" lon="8.248828175697978"><ele>288.0</ele><time>2026-04-11T11:37:38.001Z</time></trkpt><trkpt lat="45.053132483500015" lon="8.248887093638883"><ele>288.0</ele><time>2026-04-11T11:37:39.001Z</time></trkpt><trkpt lat="45.0532360173464" lon="8.248966135561675"><ele>288.0</ele><time>2026-04-11T11:37:40.001Z</time></trkpt><trkpt lat="45.05334200889089" lon="8.249040824496253"><ele>289.0</ele><time>2026-04-11T11:37:41.001Z</time></trkpt><trkpt lat="45.05345376060781" lon="8.24910071012611"><ele>290.0</ele><time>2026-04-11T11:37:42.001Z</time></trkpt><trkpt lat="45.053559494009306" lon="8.249172093870795"><ele>291.0</ele><time>2026-04-11T11:37:43.001Z</time></trkpt><trkpt lat="45.05365934911089" lon="8.249234383695976"><ele>292.0</ele><time>2026-04-11T11:37:44.002Z</time></trkpt><trkpt lat="45.053756655178866" lon="8.249280030012475"><ele>293.0</ele><time>2026-04-11T11:37:45.002Z</time></trkpt><trkpt lat="45.05385187396828" lon="8.249305219557021"><ele>293.0</ele><time>2026-04-11T11:37:46.002Z</time></trkpt><trkpt lat="45.053946628155636" lon="8.249299574536774"><ele>293.0</ele><time>2026-04-11T11:37:47.002Z</time></trkpt><trkpt lat="45.05404605309495" lon="8.249266107796892"><ele>293.0</ele><time>2026-04-11T11:37:48.002Z</time></trkpt><trkpt lat="45.05415190469625" lon="8.24919972412777"><ele>293.0</ele><time>2026-04-11T11:37:49.002Z</time></trkpt><trkpt lat="45.054260126236635" lon="8.249112260743257"><ele>293.0</ele><time>2026-04-11T11:37:50.002Z</time></trkpt><trkpt lat="45.0543827400728" lon="8.24899101016788"><ele>287.0</ele><time>2026-04-11T11:37:51.002Z</time></trkpt><trkpt lat="45.0545213292545" lon="8.248855877960562"><ele>281.0</ele><time>2026-04-11T11:37:52.002Z</time></trkpt><trkpt lat="45.0546502259885" lon="8.248733327112346"><ele>275.0</ele><time>2026-04-11T11:37:53.002Z</time></trkpt><trkpt lat="45.05476938281084" lon="8.24861857556527"><ele>275.0</ele><time>2026-04-11T11:37:54.002Z</time></trkpt><trkpt lat="45.05487734705165" lon="8.248506366278354"><ele>275.0</ele><time>2026-04-11T11:37:55.002Z</time></trkpt><trkpt lat="45.05497211573044" lon="8.2483958715141"><ele>275.0</ele><time>2026-04-11T11:37:56.002Z</time></trkpt><trkpt lat="45.055046094900696" lon="8.248296721901532"><ele>275.0</ele><time>2026-04-11T11:37:57.002Z</time></trkpt><trkpt lat="45.055113157386245" lon="8.248187639667483"><ele>274.6</ele><time>2026-04-11T11:37:58.002Z</time></trkpt><trkpt lat="45.05515097919977" lon="8.248070667150145"><ele>274.2</ele><time>2026-04-11T11:37:59.002Z</time></trkpt><trkpt lat="45.05519322968694" lon="8.24794406094469"><ele>273.8</ele><time>2026-04-11T11:38:00.002Z</time></trkpt><trkpt lat="45.05522490154732" lon="8.247802400453502"><ele>273.4</ele><time>2026-04-11T11:38:01.002Z</time></trkpt><trkpt lat="45.05524635215524" lon="8.247633487609258"><ele>273.0</ele><time>2026-04-11T11:38:02.002Z</time></trkpt><trkpt lat="45.05525097075739" lon="8.247436842533325"><ele>270.3333333333333</ele><time>2026-04-11T11:38:03.002Z</time></trkpt><trkpt lat="45.05524026965631" lon="8.247204663326874"><ele>267.66666666666663</ele><time>2026-04-11T11:38:04.002Z</time></trkpt><trkpt lat="45.05522122905579" lon="8.246945816119776"><ele>265.0</ele><time>2026-04-11T11:38:05.002Z</time></trkpt><trkpt lat="45.05520103234598" lon="8.246696324931369"><ele>263.66666666666663</ele><time>2026-04-11T11:38:06.002Z</time></trkpt><trkpt lat="45.05518309600392" lon="8.24642800931141"><ele>262.3333333333333</ele><time>2026-04-11T11:38:07.002Z</time></trkpt><trkpt lat="45.05516454252084" lon="8.246142613836044"><ele>261.0</ele><time>2026-04-11T11:38:08.002Z</time></trkpt><trkpt lat="45.05514526164765" lon="8.245858244417391"><ele>260.0</ele><time>2026-04-11T11:38:09.002Z</time></trkpt><trkpt lat="45.05512704641105" lon="8.245584744389664"><ele>259.0</ele><time>2026-04-11T11:38:10.002Z</time></trkpt><trkpt lat="45.05510578088268" lon="8.245313063335706"><ele>258.0</ele><time>2026-04-11T11:38:11.002Z</time></trkpt><trkpt lat="45.05508926404964" lon="8.245054124582563"><ele>258.0</ele><time>2026-04-11T11:38:12.002Z</time></trkpt><trkpt lat="45.05506649616375" lon="8.244805231500811"><ele>258.0</ele><time>2026-04-11T11:38:13.002Z</time></trkpt><trkpt lat="45.05504805876691" lon="8.244561220366268"><ele>258.0</ele><time>2026-04-11T11:38:14.002Z</time></trkpt><trkpt lat="45.05502798672241" lon="8.244326115822355"><ele>257.0</ele><time>2026-04-11T11:38:15.002Z</time></trkpt><trkpt lat="45.05501504115788" lon="8.244093624585146"><ele>256.0</ele><time>2026-04-11T11:38:16.002Z</time></trkpt><trkpt lat="45.054994900483464" lon="8.243865259441828"><ele>255.0</ele><time>2026-04-11T11:38:17.002Z</time></trkpt><trkpt lat="45.05498102218311" lon="8.243645043445067"><ele>253.5</ele><time>2026-04-11T11:38:18.002Z</time></trkpt><trkpt lat="45.05496891714293" lon="8.243432555842775"><ele>252.0</ele><time>2026-04-11T11:38:19.002Z</time></trkpt><trkpt lat="45.054953166383214" lon="8.243217770762994"><ele>250.5</ele><time>2026-04-11T11:38:20.002Z</time></trkpt><trkpt lat="45.05493737570246" lon="8.24301366337462"><ele>249.0</ele><time>2026-04-11T11:38:21.002Z</time></trkpt><trkpt lat="45.054924326503276" lon="8.242831796198805"><ele>248.0</ele><time>2026-04-11T11:38:22.002Z</time></trkpt><trkpt lat="45.05492164332006" lon="8.242670764890013"><ele>247.0</ele><time>2026-04-11T11:38:23.002Z</time></trkpt><trkpt lat="45.054934400558196" lon="8.242511386175725"><ele>246.0</ele><time>2026-04-11T11:38:24.002Z</time></trkpt><trkpt lat="45.05497076320873" lon="8.242350995443273"><ele>245.0</ele><time>2026-04-11T11:38:25.002Z</time></trkpt><trkpt lat="45.05502746381456" lon="8.242181450624154"><ele>242.5</ele><time>2026-04-11T11:38:26.002Z</time></trkpt><trkpt lat="45.055091471859626" lon="8.241995456393784"><ele>240.0</ele><time>2026-04-11T11:38:27.002Z</time></trkpt><trkpt lat="45.055140031680374" lon="8.241797223503466"><ele>237.5</ele><time>2026-04-11T11:38:28.002Z</time></trkpt><trkpt lat="45.055165681001654" lon="8.241586228216963"><ele>235.0</ele><time>2026-04-11T11:38:29.002Z</time></trkpt><trkpt lat="45.05516833554613" lon="8.241360500174997"><ele>233.0</ele><time>2026-04-11T11:38:30.002Z</time></trkpt><trkpt lat="45.05515582541899" lon="8.241130473560803"><ele>231.0</ele><time>2026-04-11T11:38:31.002Z</time></trkpt><trkpt lat="45.055138656796" lon="8.240897824917637"><ele>229.0</ele><time>2026-04-11T11:38:32.003Z</time></trkpt><trkpt lat="45.05512937851214" lon="8.240677509920758"><ele>228.33333333333331</ele><time>2026-04-11T11:38:33.003Z</time></trkpt><trkpt lat="45.05511935046412" lon="8.240455512186223"><ele>227.66666666666669</ele><time>2026-04-11T11:38:33.998Z</time></trkpt><trkpt lat="45.05510826547151" lon="8.240237987703722"><ele>227.0</ele><time>2026-04-11T11:38:34.998Z</time></trkpt><trkpt lat="45.05509870333039" lon="8.240023644211336"><ele>227.0</ele><time>2026-04-11T11:38:35.998Z</time></trkpt><trkpt lat="45.05508731131529" lon="8.239817756946636"><ele>227.0</ele><time>2026-04-11T11:38:36.999Z</time></trkpt><trkpt lat="45.05508255366415" lon="8.239615390678498"><ele>227.0</ele><time>2026-04-11T11:38:37.999Z</time></trkpt><trkpt lat="45.05508040083924" lon="8.239421093925737"><ele>227.0</ele><time>2026-04-11T11:38:38.999Z</time></trkpt><trkpt lat="45.05507987216561" lon="8.239222758158292"><ele>226.0</ele><time>2026-04-11T11:38:39.999Z</time></trkpt><trkpt lat="45.05508010477525" lon="8.239028348478136"><ele>225.0</ele><time>2026-04-11T11:38:40.999Z</time></trkpt><trkpt lat="45.05508014064976" lon="8.238814629590642"><ele>224.0</ele><time>2026-04-11T11:38:41.999Z</time></trkpt><trkpt lat="45.05507234846255" lon="8.238605170485256"><ele>223.0</ele><time>2026-04-11T11:38:42.999Z</time></trkpt><trkpt lat="45.05506234193993" lon="8.238400417513862"><ele>221.8</ele><time>2026-04-11T11:38:43.999Z</time></trkpt><trkpt lat="45.05505437565608" lon="8.23821498071627"><ele>220.60000000000002</ele><time>2026-04-11T11:38:44.999Z</time></trkpt><trkpt lat="45.055056794940164" lon="8.238070236372275"><ele>219.39999999999998</ele><time>2026-04-11T11:38:45.999Z</time></trkpt><trkpt lat="45.055077005488556" lon="8.237969986569324"><ele>218.2</ele><time>2026-04-11T11:38:46.999Z</time></trkpt><trkpt lat="45.055119982061306" lon="8.23790035670734"><ele>217.0</ele><time>2026-04-11T11:38:47.999Z</time></trkpt><trkpt lat="45.055209041290155" lon="8.23786394744496"><ele>215.66666666666666</ele><time>2026-04-11T11:38:49.999Z</time></trkpt><trkpt lat="45.05529677295" lon="8.237861656036252"><ele>214.33333333333331</ele><time>2026-04-11T11:38:58Z</time></trkpt><trkpt lat="45.05537116452513" lon="8.237851279838726"><ele>213.0</ele><time>2026-04-11T11:39:01Z</time></trkpt><trkpt lat="45.0554599855764" lon="8.237843718240804"><ele>211.66666666666669</ele><time>2026-04-11T11:39:04Z</time></trkpt><trkpt lat="45.0555243640124" lon="8.237837026888617"><ele>210.33333333333334</ele><time>2026-04-11T11:39:11.001Z</time></trkpt><trkpt lat="45.055636928251104" lon="8.237828204849027"><ele>209.0</ele><time>2026-04-11T11:39:14.001Z</time></trkpt><trkpt lat="45.05572204279835" lon="8.2378155392108"><ele>208.83333333333334</ele><time>2026-04-11T11:39:15.001Z</time></trkpt><trkpt lat="45.05580119199882" lon="8.237808616482134"><ele>208.66666666666669</ele><time>2026-04-11T11:39:16.001Z</time></trkpt><trkpt lat="45.055887647443036" lon="8.237804006921811"><ele>208.5</ele><time>2026-04-11T11:39:17.001Z</time></trkpt><trkpt lat="45.05596604030745" lon="8.23779424521561"><ele>208.33333333333331</ele><time>2026-04-11T11:39:18.001Z</time></trkpt><trkpt lat="45.0560351704795" lon="8.237760618002175"><ele>208.16666666666666</ele><time>2026-04-11T11:39:19.001Z</time></trkpt><trkpt lat="45.05609556453674" lon="8.237706283186512"><ele>208.0</ele><time>2026-04-11T11:39:20.001Z</time></trkpt><trkpt lat="45.05613153335709" lon="8.237623829908648"><ele>208.0</ele><time>2026-04-11T11:39:21.001Z</time></trkpt><trkpt lat="45.056138861037695" lon="8.237520365305125"><ele>208.0</ele><time>2026-04-11T11:39:22.001Z</time></trkpt><trkpt lat="45.056111195210626" lon="8.23741182168086"><ele>208.0</ele><time>2026-04-11T11:39:23.001Z</time></trkpt><trkpt lat="45.05604909029559" lon="8.237332698454063"><ele>208.0</ele><time>2026-04-11T11:39:24.001Z</time></trkpt><trkpt lat="45.0559528365262" lon="8.2372649678361"><ele>208.0</ele><time>2026-04-11T11:39:25.001Z</time></trkpt><trkpt lat="45.05583281433058" lon="8.23720978963427"><ele>206.75</ele><time>2026-04-11T11:39:26.001Z</time></trkpt><trkpt lat="45.055710079601084" lon="8.237153527421778"><ele>205.5</ele><time>2026-04-11T11:39:27.001Z</time></trkpt><trkpt lat="45.055596208226106" lon="8.237077181651491"><ele>204.25</ele><time>2026-04-11T11:39:28.001Z</time></trkpt><trkpt lat="45.055470999894624" lon="8.236974342055813"><ele>203.0</ele><time>2026-04-11T11:39:29.001Z</time></trkpt><trkpt lat="45.05535463354151" lon="8.23686552344766"><ele>203.0</ele><time>2026-04-11T11:39:30.001Z</time></trkpt><trkpt lat="45.05525506717897" lon="8.236750626927709"><ele>203.0</ele><time>2026-04-11T11:39:31.001Z</time></trkpt><trkpt lat="45.05516483686963" lon="8.23663430035073"><ele>203.0</ele><time>2026-04-11T11:39:32.001Z</time></trkpt><trkpt lat="45.055079498006165" lon="8.236513637827318"><ele>203.0</ele><time>2026-04-11T11:39:33.001Z</time></trkpt><trkpt lat="45.054996536025456" lon="8.236384014593954"><ele>200.5</ele><time>2026-04-11T11:39:34.001Z</time></trkpt><trkpt lat="45.05492868792494" lon="8.236251349651003"><ele>198.0</ele><time>2026-04-11T11:39:35.001Z</time></trkpt><trkpt lat="45.054878002255364" lon="8.236104093081964"><ele>195.5</ele><time>2026-04-11T11:39:36.001Z</time></trkpt><trkpt lat="45.054853991360154" lon="8.235949101220603"><ele>193.0</ele><time>2026-04-11T11:39:37.002Z</time></trkpt><trkpt lat="45.05485527743838" lon="8.235782686148681"><ele>191.8</ele><time>2026-04-11T11:39:38.002Z</time></trkpt><trkpt lat="45.05487533422895" lon="8.235611690805152"><ele>190.60000000000002</ele><time>2026-04-11T11:39:39.002Z</time></trkpt><trkpt lat="45.054893395805635" lon="8.235456846221274"><ele>189.39999999999998</ele><time>2026-04-11T11:39:40.002Z</time></trkpt><trkpt lat="45.05490995529555" lon="8.235298096049018"><ele>188.2</ele><time>2026-04-11T11:39:41.002Z</time></trkpt><trkpt lat="45.054919265815904" lon="8.235153799600374"><ele>187.0</ele><time>2026-04-11T11:39:42.002Z</time></trkpt><trkpt lat="45.05492544381803" lon="8.23505692007877"><ele>187.0</ele><time>2026-04-11T11:39:43.002Z</time></trkpt><trkpt lat="45.05492505039706" lon="8.234889235669284"><ele>187.0</ele><time>2026-04-11T11:39:45.002Z</time></trkpt><trkpt lat="45.054912001375506" lon="8.234769337709832"><ele>187.0</ele><time>2026-04-11T11:39:46.002Z</time></trkpt><trkpt lat="45.05489181565069" lon="8.234627676909714"><ele>187.0</ele><time>2026-04-11T11:39:47.002Z</time></trkpt><trkpt lat="45.054866614806436" lon="8.234473070278002"><ele>187.0</ele><time>2026-04-11T11:39:48.002Z</time></trkpt><trkpt lat="45.05484360445376" lon="8.234292225192467"><ele>187.33333333333334</ele><time>2026-04-11T11:39:49.002Z</time></trkpt><trkpt lat="45.05482280103269" lon="8.23408239734645"><ele>187.66666666666666</ele><time>2026-04-11T11:39:50.002Z</time></trkpt><trkpt lat="45.05480197606897" lon="8.23386025467531"><ele>188.0</ele><time>2026-04-11T11:39:51.002Z</time></trkpt><trkpt lat="45.05478105253853" lon="8.233661467856804"><ele>188.0</ele><time>2026-04-11T11:39:52.002Z</time></trkpt><trkpt lat="45.05474878799541" lon="8.233492319525531"><ele>188.0</ele><time>2026-04-11T11:39:53.002Z</time></trkpt><trkpt lat="45.054695511048756" lon="8.233353851784827"><ele>188.0</ele><time>2026-04-11T11:39:54.002Z</time></trkpt><trkpt lat="45.05462006047784" lon="8.233257949831012"><ele>188.0</ele><time>2026-04-11T11:39:55.002Z</time></trkpt><trkpt lat="45.05451694671674" lon="8.233196172849157"><ele>188.0</ele><time>2026-04-11T11:39:56.002Z</time></trkpt><trkpt lat="45.05439271281215" lon="8.233165994242835"><ele>188.0</ele><time>2026-04-11T11:39:57.002Z</time></trkpt><trkpt lat="45.05424974665709" lon="8.23315016163088"><ele>188.0</ele><time>2026-04-11T11:39:58.002Z</time></trkpt><trkpt lat="45.05409323305372" lon="8.233129565164752"><ele>188.0</ele><time>2026-04-11T11:39:59.002Z</time></trkpt><trkpt lat="45.053930267240794" lon="8.233094418253565"><ele>190.33333333333331</ele><time>2026-04-11T11:40:00.002Z</time></trkpt><trkpt lat="45.05378280839496" lon="8.233059640834396"><ele>192.66666666666666</ele><time>2026-04-11T11:40:01.002Z</time></trkpt><trkpt lat="45.053632284601065" lon="8.233025542055016"><ele>195.0</ele><time>2026-04-11T11:40:02.002Z</time></trkpt><trkpt lat="45.05347941025354" lon="8.23299222094637"><ele>195.0</ele><time>2026-04-11T11:40:03.002Z</time></trkpt><trkpt lat="45.053339524815776" lon="8.232961586224938"><ele>195.0</ele><time>2026-04-11T11:40:04.002Z</time></trkpt><trkpt lat="45.053211140206734" lon="8.23293204231647"><ele>195.0</ele><time>2026-04-11T11:40:05.002Z</time></trkpt><trkpt lat="45.053088312642565" lon="8.232898836345187"><ele>195.0</ele><time>2026-04-11T11:40:06.002Z</time></trkpt><trkpt lat="45.05296265164824" lon="8.232859093651728"><ele>193.5</ele><time>2026-04-11T11:40:07.002Z</time></trkpt><trkpt lat="45.05284519731623" lon="8.232799937463247"><ele>192.0</ele><time>2026-04-11T11:40:08.002Z</time></trkpt><trkpt lat="45.05273172865877" lon="8.232704749209123"><ele>190.5</ele><time>2026-04-11T11:40:09.003Z</time></trkpt><trkpt lat="45.052621875239524" lon="8.232594027735663"><ele>189.0</ele><time>2026-04-11T11:40:10.003Z</time></trkpt><trkpt lat="45.05251924683002" lon="8.232499883878269"><ele>188.6</ele><time>2026-04-11T11:40:11.003Z</time></trkpt><trkpt lat="45.052429803647925" lon="8.232416640493394"><ele>188.2</ele><time>2026-04-11T11:40:12.003Z</time></trkpt><trkpt lat="45.05235310508299" lon="8.232337157072346"><ele>187.79999999999998</ele><time>2026-04-11T11:40:13.003Z</time></trkpt><trkpt lat="45.05231050952471" lon="8.232253341193534"><ele>187.39999999999998</ele><time>2026-04-11T11:40:14.003Z</time></trkpt><trkpt lat="45.05225411460528" lon="8.232105920180912"><ele>187.0</ele><time>2026-04-11T11:40:16.003Z</time></trkpt><trkpt lat="45.05218759316859" lon="8.232049364730925"><ele>187.0</ele><time>2026-04-11T11:40:17.003Z</time></trkpt><trkpt lat="45.05209634917746" lon="8.231994610980257"><ele>187.0</ele><time>2026-04-11T11:40:18.003Z</time></trkpt><trkpt lat="45.05199028490766" lon="8.231924356952252"><ele>187.0</ele><time>2026-04-11T11:40:19.003Z</time></trkpt><trkpt lat="45.0518846334124" lon="8.231837757917633"><ele>187.0</ele><time>2026-04-11T11:40:20.003Z</time></trkpt><trkpt lat="45.05177977972815" lon="8.231725836771442"><ele>187.0</ele><time>2026-04-11T11:40:21.003Z</time></trkpt><trkpt lat="45.051678586649686" lon="8.231589241420403"><ele>187.0</ele><time>2026-04-11T11:40:22.003Z</time></trkpt><trkpt lat="45.05157874856791" lon="8.231440356835733"><ele>187.0</ele><time>2026-04-11T11:40:23.003Z</time></trkpt><trkpt lat="45.05146909273878" lon="8.231286780701064"><ele>187.0</ele><time>2026-04-11T11:40:24.003Z</time></trkpt><trkpt lat="45.05135561865995" lon="8.231130461119935"><ele>187.0</ele><time>2026-04-11T11:40:25.003Z</time></trkpt><trkpt lat="45.05123708675989" lon="8.230964621417092"><ele>187.0</ele><time>2026-04-11T11:40:26.003Z</time></trkpt><trkpt lat="45.05111909732427" lon="8.230789676011009"><ele>187.0</ele><time>2026-04-11T11:40:27.003Z</time></trkpt><trkpt lat="45.051003764157564" lon="8.230614641605827"><ele>187.0</ele><time>2026-04-11T11:40:28.003Z</time></trkpt><trkpt lat="45.050894913130556" lon="8.230442943872141"><ele>187.0</ele><time>2026-04-11T11:40:29.003Z</time></trkpt><trkpt lat="45.05079053126821" lon="8.230274683448862"><ele>187.0</ele><time>2026-04-11T11:40:30.003Z</time></trkpt><trkpt lat="45.05068504578566" lon="8.230107412159843"><ele>187.0</ele><time>2026-04-11T11:40:31.003Z</time></trkpt><trkpt lat="45.05059758505503" lon="8.229957073961973"><ele>187.0</ele><time>2026-04-11T11:40:32.003Z</time></trkpt><trkpt lat="45.05051185763038" lon="8.229782085407285"><ele>187.0</ele><time>2026-04-11T11:40:33.003Z</time></trkpt><trkpt lat="45.05044237218431" lon="8.229596102071264"><ele>187.0</ele><time>2026-04-11T11:40:34.003Z</time></trkpt><trkpt lat="45.050381071240466" lon="8.229397659635392"><ele>188.0</ele><time>2026-04-11T11:40:35.003Z</time></trkpt><trkpt lat="45.05032709522789" lon="8.22920136248569"><ele>189.0</ele><time>2026-04-11T11:40:36.003Z</time></trkpt><trkpt lat="45.05026676598747" lon="8.228994630768401"><ele>190.0</ele><time>2026-04-11T11:40:37.003Z</time></trkpt><trkpt lat="45.05019645625641" lon="8.228772471312435"><ele>190.33333333333334</ele><time>2026-04-11T11:40:38.003Z</time></trkpt><trkpt lat="45.05012503957167" lon="8.228549573209817"><ele>190.66666666666666</ele><time>2026-04-11T11:40:39.003Z</time></trkpt><trkpt lat="45.05004783517862" lon="8.228341718340543"><ele>191.0</ele><time>2026-04-11T11:40:40Z</time></trkpt><trkpt lat="45.04996410643733" lon="8.228132472587282"><ele>193.0</ele><time>2026-04-11T11:40:41Z</time></trkpt><trkpt lat="45.049865659189194" lon="8.227923974058122"><ele>195.0</ele><time>2026-04-11T11:40:42Z</time></trkpt><trkpt lat="45.04976821394306" lon="8.227736904142562"><ele>197.0</ele><time>2026-04-11T11:40:43Z</time></trkpt><trkpt lat="45.04968185422213" lon="8.227576124255954"><ele>197.0</ele><time>2026-04-11T11:40:44Z</time></trkpt><trkpt lat="45.04961320043001" lon="8.227430041101057"><ele>197.0</ele><time>2026-04-11T11:40:45Z</time></trkpt><trkpt lat="45.04957954606042" lon="8.227301878330834"><ele>197.0</ele><time>2026-04-11T11:40:46Z</time></trkpt><trkpt lat="45.049586809807195" lon="8.227189400142413"><ele>197.0</ele><time>2026-04-11T11:40:47Z</time></trkpt><trkpt lat="45.049628542749204" lon="8.227084522701336"><ele>197.0</ele><time>2026-04-11T11:40:48Z</time></trkpt><trkpt lat="45.04970037613536" lon="8.226999998899922"><ele>197.83333333333334</ele><time>2026-04-11T11:40:49Z</time></trkpt><trkpt lat="45.04978032348833" lon="8.226935014552819"><ele>198.66666666666669</ele><time>2026-04-11T11:40:50Z</time></trkpt><trkpt lat="45.04984113491366" lon="8.226871006541197"><ele>199.5</ele><time>2026-04-11T11:40:51Z</time></trkpt><trkpt lat="45.049869163308216" lon="8.226762327648897"><ele>200.33333333333331</ele><time>2026-04-11T11:40:52Z</time></trkpt><trkpt lat="45.04986203256241" lon="8.226628170003547"><ele>201.16666666666666</ele><time>2026-04-11T11:40:53Z</time></trkpt><trkpt lat="45.04981282192116" lon="8.226514219467193"><ele>202.0</ele><time>2026-04-11T11:40:54Z</time></trkpt><trkpt lat="45.04973008643858" lon="8.226437286736068"><ele>204.0</ele><time>2026-04-11T11:40:55Z</time></trkpt><trkpt lat="45.04963265305382" lon="8.226407754802716"><ele>206.0</ele><time>2026-04-11T11:40:56Z</time></trkpt><trkpt lat="45.0495215049282" lon="8.226418238562871"><ele>208.0</ele><time>2026-04-11T11:40:57Z</time></trkpt><trkpt lat="45.04941213358139" lon="8.226426765050437"><ele>210.0</ele><time>2026-04-11T11:40:58Z</time></trkpt><trkpt lat="45.04931508104161" lon="8.22638435644543"><ele>212.0</ele><time>2026-04-11T11:40:59Z</time></trkpt><trkpt lat="45.049222622023606" lon="8.226294944197802"><ele>212.0</ele><time>2026-04-11T11:41:00Z</time></trkpt><trkpt lat="45.04912965415357" lon="8.226174042005967"><ele>212.0</ele><time>2026-04-11T11:41:01Z</time></trkpt><trkpt lat="45.049052304212665" lon="8.226030833997592"><ele>212.0</ele><time>2026-04-11T11:41:02Z</time></trkpt><trkpt lat="45.048992175792236" lon="8.225884566919838"><ele>212.0</ele><time>2026-04-11T11:41:03Z</time></trkpt><trkpt lat="45.048931223980404" lon="8.22573263107604"><ele>211.33333333333334</ele><time>2026-04-11T11:41:04Z</time></trkpt><trkpt lat="45.04886172637348" lon="8.225555296013173"><ele>210.66666666666669</ele><time>2026-04-11T11:41:05Z</time></trkpt><trkpt lat="45.04878918511035" lon="8.225355846176658"><ele>210.0</ele><time>2026-04-11T11:41:06Z</time></trkpt><trkpt lat="45.048720381467156" lon="8.2251631921793"><ele>210.0</ele><time>2026-04-11T11:41:07Z</time></trkpt><trkpt lat="45.048650984447754" lon="8.224987672110906"><ele>210.0</ele><time>2026-04-11T11:41:08Z</time></trkpt><trkpt lat="45.04858904965581" lon="8.224793736825927"><ele>210.0</ele><time>2026-04-11T11:41:09Z</time></trkpt><trkpt lat="45.048520147345386" lon="8.224589198656869"><ele>213.0</ele><time>2026-04-11T11:41:10.001Z</time></trkpt><trkpt lat="45.048447731290345" lon="8.224376040537082"><ele>216.0</ele><time>2026-04-11T11:41:11.001Z</time></trkpt><trkpt lat="45.04837351791272" lon="8.22416486601793"><ele>219.0</ele><time>2026-04-11T11:41:12.001Z</time></trkpt><trkpt lat="45.04829836489946" lon="8.223950717687536"><ele>221.33333333333331</ele><time>2026-04-11T11:41:13.001Z</time></trkpt><trkpt lat="45.048220114152286" lon="8.223744072469758"><ele>223.66666666666666</ele><time>2026-04-11T11:41:14.001Z</time></trkpt><trkpt lat="45.04813581958163" lon="8.22354707802004"><ele>226.0</ele><time>2026-04-11T11:41:15.001Z</time></trkpt><trkpt lat="45.048051961601054" lon="8.223354502087025"><ele>226.0</ele><time>2026-04-11T11:41:16.001Z</time></trkpt><trkpt lat="45.04797435034272" lon="8.223168019493022"><ele>226.0</ele><time>2026-04-11T11:41:17.001Z</time></trkpt><trkpt lat="45.04791061062531" lon="8.222970048392998"><ele>226.0</ele><time>2026-04-11T11:41:18.001Z</time></trkpt><trkpt lat="45.04786167797182" lon="8.222771958552672"><ele>229.66666666666666</ele><time>2026-04-11T11:41:19.001Z</time></trkpt><trkpt lat="45.04779728237078" lon="8.222579271456693"><ele>233.33333333333331</ele><time>2026-04-11T11:41:20.001Z</time></trkpt><trkpt lat="45.04769753600792" lon="8.222391331444841"><ele>237.0</ele><time>2026-04-11T11:41:21.001Z</time></trkpt><trkpt lat="45.04758357043736" lon="8.222212575632126"><ele>237.75</ele><time>2026-04-11T11:41:22.001Z</time></trkpt><trkpt lat="45.04746760116082" lon="8.22203800972939"><ele>238.5</ele><time>2026-04-11T11:41:23.001Z</time></trkpt><trkpt lat="45.047368482042835" lon="8.221893299718651"><ele>239.25</ele><time>2026-04-11T11:41:24.001Z</time></trkpt><trkpt lat="45.04727321617067" lon="8.221764243763607"><ele>240.0</ele><time>2026-04-11T11:41:25.001Z</time></trkpt><trkpt lat="45.04715645471799" lon="8.221667419505115"><ele>240.0</ele><time>2026-04-11T11:41:26.001Z</time></trkpt><trkpt lat="45.04702020372361" lon="8.221613895325383"><ele>240.0</ele><time>2026-04-11T11:41:27.001Z</time></trkpt><trkpt lat="45.04687038892396" lon="8.221576974416019"><ele>240.0</ele><time>2026-04-11T11:41:28.001Z</time></trkpt><trkpt lat="45.04672867358998" lon="8.221508154188452"><ele>240.0</ele><time>2026-04-11T11:41:29.001Z</time></trkpt><trkpt lat="45.04659190686426" lon="8.221370917630425"><ele>244.0</ele><time>2026-04-11T11:41:30.001Z</time></trkpt><trkpt lat="45.04645577009929" lon="8.22120849760431"><ele>248.0</ele><time>2026-04-11T11:41:31.001Z</time></trkpt><trkpt lat="45.046311314629946" lon="8.221064583312693"><ele>252.0</ele><time>2026-04-11T11:41:32.001Z</time></trkpt><trkpt lat="45.046165610534786" lon="8.220919807766867"><ele>252.0</ele><time>2026-04-11T11:41:33.001Z</time></trkpt><trkpt lat="45.04603318876054" lon="8.220787398595261"><ele>252.0</ele><time>2026-04-11T11:41:34.001Z</time></trkpt><trkpt lat="45.045917813600326" lon="8.220676605574793"><ele>252.0</ele><time>2026-04-11T11:41:35.001Z</time></trkpt><trkpt lat="45.04581305745064" lon="8.220588882944122"><ele>252.0</ele><time>2026-04-11T11:41:36.001Z</time></trkpt><trkpt lat="45.04569693780601" lon="8.220570663724502"><ele>254.0</ele><time>2026-04-11T11:41:37.001Z</time></trkpt><trkpt lat="45.04558004791235" lon="8.220589993923284"><ele>256.0</ele><time>2026-04-11T11:41:38.001Z</time></trkpt><trkpt lat="45.04547943612704" lon="8.220654732812456"><ele>258.0</ele><time>2026-04-11T11:41:39.001Z</time></trkpt><trkpt lat="45.04540067230321" lon="8.220764128318745"><ele>260.0</ele><time>2026-04-11T11:41:40.001Z</time></trkpt><trkpt lat="45.0453511337874" lon="8.220910380079992"><ele>260.0</ele><time>2026-04-11T11:41:41.001Z</time></trkpt><trkpt lat="45.04532286828393" lon="8.221066372711341"><ele>260.0</ele><time>2026-04-11T11:41:42.001Z</time></trkpt><trkpt lat="45.045284187870735" lon="8.221184279807739"><ele>260.0</ele><time>2026-04-11T11:41:43.001Z</time></trkpt><trkpt lat="45.04522036187612" lon="8.221247491187967"><ele>260.0</ele><time>2026-04-11T11:41:44.001Z</time></trkpt><trkpt lat="45.045148432456195" lon="8.2212559952349"><ele>260.0</ele><time>2026-04-11T11:41:45.001Z</time></trkpt><trkpt lat="45.045074936112414" lon="8.221239252495915"><ele>260.0</ele><time>2026-04-11T11:41:46.001Z</time></trkpt><trkpt lat="45.045003672968384" lon="8.221172439972445"><ele>261.6</ele><time>2026-04-11T11:41:47.001Z</time></trkpt><trkpt lat="45.04494498379431" lon="8.221062468713546"><ele>263.2</ele><time>2026-04-11T11:41:48.002Z</time></trkpt><trkpt lat="45.044903691305066" lon="8.220918226215174"><ele>264.8</ele><time>2026-04-11T11:41:49.002Z</time></trkpt><trkpt lat="45.044887239072125" lon="8.220762807117096"><ele>266.4</ele><time>2026-04-11T11:41:50.002Z</time></trkpt><trkpt lat="45.04487995597738" lon="8.220599273621685"><ele>268.0</ele><time>2026-04-11T11:41:51.002Z</time></trkpt><trkpt lat="45.044856485676206" lon="8.22044690022705"><ele>268.0</ele><time>2026-04-11T11:41:52.002Z</time></trkpt><trkpt lat="45.044825645291624" lon="8.220289215106826"><ele>268.0</ele><time>2026-04-11T11:41:53.002Z</time></trkpt><trkpt lat="45.044793479930966" lon="8.220135232461365"><ele>268.0</ele><time>2026-04-11T11:41:54.002Z</time></trkpt><trkpt lat="45.04476436036571" lon="8.219985967133033"><ele>268.0</ele><time>2026-04-11T11:41:55.002Z</time></trkpt><trkpt lat="45.044748308416374" lon="8.219856844600125"><ele>268.0</ele><time>2026-04-11T11:41:56.002Z</time></trkpt><trkpt lat="45.04475256204234" lon="8.219751954502415"><ele>267.4</ele><time>2026-04-11T11:41:57.002Z</time></trkpt><trkpt lat="45.044775563156556" lon="8.219654855759796"><ele>266.8</ele><time>2026-04-11T11:41:58.002Z</time></trkpt><trkpt lat="45.04482178650529" lon="8.219567947821261"><ele>266.2</ele><time>2026-04-11T11:41:59.002Z</time></trkpt><trkpt lat="45.044893257162016" lon="8.219489106740873"><ele>265.6</ele><time>2026-04-11T11:42:00.002Z</time></trkpt><trkpt lat="45.044994568821465" lon="8.219413974700197"><ele>265.0</ele><time>2026-04-11T11:42:01.002Z</time></trkpt><trkpt lat="45.04510961691513" lon="8.219350353174933"><ele>265.0</ele><time>2026-04-11T11:42:02.002Z</time></trkpt><trkpt lat="45.045228896548295" lon="8.219283403776494"><ele>265.0</ele><time>2026-04-11T11:42:03.002Z</time></trkpt><trkpt lat="45.04535284002096" lon="8.219193581931249"><ele>265.0</ele><time>2026-04-11T11:42:04.002Z</time></trkpt><trkpt lat="45.04547014468145" lon="8.21907259886879"><ele>265.0</ele><time>2026-04-11T11:42:05.002Z</time></trkpt><trkpt lat="45.04555973594152" lon="8.218943338093247"><ele>265.25</ele><time>2026-04-11T11:42:06.002Z</time></trkpt><trkpt lat="45.045642727609156" lon="8.218791644993926"><ele>265.5</ele><time>2026-04-11T11:42:07.002Z</time></trkpt><trkpt lat="45.04573114979917" lon="8.21863861060364"><ele>265.75</ele><time>2026-04-11T11:42:08.002Z</time></trkpt><trkpt lat="45.04582396269492" lon="8.218490449220196"><ele>266.0</ele><time>2026-04-11T11:42:09.002Z</time></trkpt><trkpt lat="45.045927960610015" lon="8.218363242963944"><ele>266.0</ele><time>2026-04-11T11:42:10.002Z</time></trkpt><trkpt lat="45.04604679810979" lon="8.218268374128114"><ele>266.0</ele><time>2026-04-11T11:42:11.002Z</time></trkpt><trkpt lat="45.04617960650799" lon="8.218194458842186"><ele>266.0</ele><time>2026-04-11T11:42:12.002Z</time></trkpt><trkpt lat="45.04631814985491" lon="8.21814689559101"><ele>266.0</ele><time>2026-04-11T11:42:13.002Z</time></trkpt><trkpt lat="45.04646266770622" lon="8.218130976195134"><ele>265.6666666666667</ele><time>2026-04-11T11:42:14.002Z</time></trkpt><trkpt lat="45.046618568449446" lon="8.218140313700033"><ele>265.3333333333333</ele><time>2026-04-11T11:42:15.002Z</time></trkpt><trkpt lat="45.04677832344708" lon="8.218149963444922"><ele>265.0</ele><time>2026-04-11T11:42:16.002Z</time></trkpt><trkpt lat="45.04693226607252" lon="8.21812051236962"><ele>265.0</ele><time>2026-04-11T11:42:17.002Z</time></trkpt><trkpt lat="45.047098260751504" lon="8.218062221867463"><ele>265.0</ele><time>2026-04-11T11:42:18.002Z</time></trkpt><trkpt lat="45.047260222192854" lon="8.217991956487062"><ele>265.0</ele><time>2026-04-11T11:42:19.002Z</time></trkpt><trkpt lat="45.047412269729364" lon="8.217910654880002"><ele>268.66666666666663</ele><time>2026-04-11T11:42:20.002Z</time></trkpt><trkpt lat="45.047554974408406" lon="8.217808252414567"><ele>272.3333333333333</ele><time>2026-04-11T11:42:21.002Z</time></trkpt><trkpt lat="45.04768573263963" lon="8.217684079886405"><ele>276.0</ele><time>2026-04-11T11:42:22.002Z</time></trkpt><trkpt lat="45.04779879277649" lon="8.217540577944012"><ele>276.0</ele><time>2026-04-11T11:42:23.003Z</time></trkpt><trkpt lat="45.0479145573035" lon="8.217429721572307"><ele>276.0</ele><time>2026-04-11T11:42:24.003Z</time></trkpt><trkpt lat="45.04803601332539" lon="8.217347087636252"><ele>276.0</ele><time>2026-04-11T11:42:25.003Z</time></trkpt><trkpt lat="45.048162030534726" lon="8.217278598954257"><ele>276.0</ele><time>2026-04-11T11:42:26.003Z</time></trkpt><trkpt lat="45.048285565036245" lon="8.217222899478088"><ele>275.6666666666667</ele><time>2026-04-11T11:42:27.003Z</time></trkpt><trkpt lat="45.04841453935478" lon="8.217143522047351"><ele>275.33333333333337</ele><time>2026-04-11T11:42:28.003Z</time></trkpt><trkpt lat="45.04854506673967" lon="8.217021461386011"><ele>275.0</ele><time>2026-04-11T11:42:29.003Z</time></trkpt><trkpt lat="45.0486766500721" lon="8.216873015255482"><ele>275.0</ele><time>2026-04-11T11:42:30.003Z</time></trkpt><trkpt lat="45.048812747637896" lon="8.216713414689734"><ele>275.0</ele><time>2026-04-11T11:42:31.003Z</time></trkpt><trkpt lat="45.04894922416089" lon="8.216557051980335"><ele>275.0</ele><time>2026-04-11T11:42:32.003Z</time></trkpt><trkpt lat="45.04907068436957" lon="8.21641901666661"><ele>276.0</ele><time>2026-04-11T11:42:33.003Z</time></trkpt><trkpt lat="45.049185806451085" lon="8.216279557771848"><ele>277.0</ele><time>2026-04-11T11:42:34.003Z</time></trkpt><trkpt lat="45.049288115140904" lon="8.216180376643853"><ele>278.0</ele><time>2026-04-11T11:42:35.003Z</time></trkpt><trkpt lat="45.04938505604164" lon="8.216072080804267"><ele>279.0</ele><time>2026-04-11T11:42:36.003Z</time></trkpt><trkpt lat="45.04945708289707" lon="8.215961122747974"><ele>279.0</ele><time>2026-04-11T11:42:37.003Z</time></trkpt><trkpt lat="45.04950647701057" lon="8.215838541553648"><ele>279.0</ele><time>2026-04-11T11:42:38.003Z</time></trkpt><trkpt lat="45.04953063297038" lon="8.215700926173792"><ele>279.0</ele><time>2026-04-11T11:42:39.003Z</time></trkpt><trkpt lat="45.04952640761294" lon="8.215555877761627"><ele>279.0</ele><time>2026-04-11T11:42:40.003Z</time></trkpt><trkpt lat="45.04949416846267" lon="8.215398898356382"><ele>279.0</ele><time>2026-04-11T11:42:41.003Z</time></trkpt><trkpt lat="45.04943674282806" lon="8.21524380645578"><ele>280.5</ele><time>2026-04-11T11:42:42.003Z</time></trkpt><trkpt lat="45.049365091367" lon="8.21509164377931"><ele>282.0</ele><time>2026-04-11T11:42:43.003Z</time></trkpt><trkpt lat="45.04928574236673" lon="8.214958200882371"><ele>283.5</ele><time>2026-04-11T11:42:44.003Z</time></trkpt><trkpt lat="45.049190576420465" lon="8.214855831495194"><ele>285.0</ele><time>2026-04-11T11:42:45.003Z</time></trkpt><trkpt lat="45.049081380576865" lon="8.214782595645447"><ele>285.5</ele><time>2026-04-11T11:42:46Z</time></trkpt><trkpt lat="45.048952610214634" lon="8.214752995616434"><ele>286.0</ele><time>2026-04-11T11:42:47Z</time></trkpt><trkpt lat="45.048820103296954" lon="8.214727048165013"><ele>286.5</ele><time>2026-04-11T11:42:48Z</time></trkpt><trkpt lat="45.04867960492655" lon="8.214700785462101"><ele>287.0</ele><time>2026-04-11T11:42:49Z</time></trkpt><trkpt lat="45.04856188006532" lon="8.21464523063153"><ele>287.0</ele><time>2026-04-11T11:42:50Z</time></trkpt><trkpt lat="45.0484626198638" lon="8.214574292638087"><ele>287.0</ele><time>2026-04-11T11:42:51Z</time></trkpt><trkpt lat="45.04838336954966" lon="8.214467172998436"><ele>287.0</ele><time>2026-04-11T11:42:52Z</time></trkpt><trkpt lat="45.04831873641154" lon="8.214334141426471"><ele>287.0</ele><time>2026-04-11T11:42:53Z</time></trkpt><trkpt lat="45.04828189251397" lon="8.214172685080701"><ele>288.5</ele><time>2026-04-11T11:42:54Z</time></trkpt><trkpt lat="45.0482707837092" lon="8.213985087534462"><ele>290.0</ele><time>2026-04-11T11:42:55Z</time></trkpt><trkpt lat="45.04829593236232" lon="8.213793583069261"><ele>291.5</ele><time>2026-04-11T11:42:56Z</time></trkpt><trkpt lat="45.048270676333686" lon="8.213593094782963"><ele>293.0</ele><time>2026-04-11T11:42:57Z</time></trkpt><trkpt lat="45.04821422057547" lon="8.213429833814876"><ele>290.75</ele><time>2026-04-11T11:42:58Z</time></trkpt><trkpt lat="45.04812539629358" lon="8.213288806865108"><ele>288.5</ele><time>2026-04-11T11:42:59Z</time></trkpt><trkpt lat="45.04801388333487" lon="8.213173913623999"><ele>286.25</ele><time>2026-04-11T11:43:00Z</time></trkpt><trkpt lat="45.04790561884584" lon="8.213062582688925"><ele>284.0</ele><time>2026-04-11T11:43:01Z</time></trkpt><trkpt lat="45.047818550492394" lon="8.21295624207739"><ele>284.0</ele><time>2026-04-11T11:43:02Z</time></trkpt><trkpt lat="45.04776475037697" lon="8.212826155468063"><ele>284.0</ele><time>2026-04-11T11:43:03Z</time></trkpt><trkpt lat="45.047727481886824" lon="8.212691553809217"><ele>284.0</ele><time>2026-04-11T11:43:04Z</time></trkpt><trkpt lat="45.04770751753028" lon="8.212545066866525"><ele>284.0</ele><time>2026-04-11T11:43:05Z</time></trkpt><trkpt lat="45.04770969933963" lon="8.212377614046012"><ele>284.0</ele><time>2026-04-11T11:43:06Z</time></trkpt><trkpt lat="45.04772503713878" lon="8.212202187948858"><ele>283.25</ele><time>2026-04-11T11:43:07Z</time></trkpt><trkpt lat="45.04774697229353" lon="8.212026119422035"><ele>282.5</ele><time>2026-04-11T11:43:08Z</time></trkpt><trkpt lat="45.0477718639184" lon="8.211851853496873"><ele>281.75</ele><time>2026-04-11T11:43:09Z</time></trkpt><trkpt lat="45.04780449736519" lon="8.21168584993257"><ele>281.0</ele><time>2026-04-11T11:43:10Z</time></trkpt><trkpt lat="45.04784759663079" lon="8.21152868142479"><ele>280.0</ele><time>2026-04-11T11:43:11Z</time></trkpt><trkpt lat="45.047892820603295" lon="8.21136715541285"><ele>279.0</ele><time>2026-04-11T11:43:12Z</time></trkpt><trkpt lat="45.04792552354796" lon="8.21121971769874"><ele>278.0</ele><time>2026-04-11T11:43:13Z</time></trkpt><trkpt lat="45.04796598053706" lon="8.21107989134678"><ele>277.0</ele><time>2026-04-11T11:43:14Z</time></trkpt><trkpt lat="45.04800432882334" lon="8.21094490116865"><ele>276.0</ele><time>2026-04-11T11:43:15.001Z</time></trkpt><trkpt lat="45.04803618974737" lon="8.210830079221259"><ele>276.0</ele><time>2026-04-11T11:43:16.001Z</time></trkpt><trkpt lat="45.048054093875734" lon="8.21074019783677"><ele>276.0</ele><time>2026-04-11T11:43:17.001Z</time></trkpt><trkpt lat="45.04803070418874" lon="8.21057054438392"><ele>276.0</ele><time>2026-04-11T11:43:19.001Z</time></trkpt><trkpt lat="45.04802403025566" lon="8.21044482082952"><ele>276.0</ele><time>2026-04-11T11:43:20.001Z</time></trkpt><trkpt lat="45.04802264005219" lon="8.21031579943168"><ele>276.0</ele><time>2026-04-11T11:43:21.001Z</time></trkpt><trkpt lat="45.04801686247692" lon="8.210160901602643"><ele>276.0</ele><time>2026-04-11T11:43:22.001Z</time></trkpt><trkpt lat="45.0479952229269" lon="8.210000690694363"><ele>276.0</ele><time>2026-04-11T11:43:23.001Z</time></trkpt><trkpt lat="45.04798382619679" lon="8.209841334669465"><ele>276.0</ele><time>2026-04-11T11:43:24.001Z</time></trkpt><trkpt lat="45.04795977803973" lon="8.209690828646947"><ele>276.0</ele><time>2026-04-11T11:43:25.001Z</time></trkpt><trkpt lat="45.04792217375856" lon="8.209544404278184"><ele>276.0</ele><time>2026-04-11T11:43:26.001Z</time></trkpt><trkpt lat="45.04789284493508" lon="8.209398891771771"><ele>276.0</ele><time>2026-04-11T11:43:27.001Z</time></trkpt><trkpt lat="45.047868815975576" lon="8.209255960012491"><ele>276.0</ele><time>2026-04-11T11:43:28.001Z</time></trkpt><trkpt lat="45.04784208342163" lon="8.209126301292525"><ele>276.0</ele><time>2026-04-11T11:43:29.001Z</time></trkpt><trkpt lat="45.047835449984" lon="8.20899485980383"><ele>276.0</ele><time>2026-04-11T11:43:30.001Z</time></trkpt><trkpt lat="45.04781128633521" lon="8.208854542670375"><ele>276.0</ele><time>2026-04-11T11:43:31.001Z</time></trkpt><trkpt lat="45.047803775846845" lon="8.20871012470327"><ele>276.0</ele><time>2026-04-11T11:43:32.001Z</time></trkpt><trkpt lat="45.04782552393844" lon="8.2085557437"><ele>276.0</ele><time>2026-04-11T11:43:33.001Z</time></trkpt><trkpt lat="45.047853463892494" lon="8.208399533739257"><ele>276.0</ele><time>2026-04-11T11:43:34.001Z</time></trkpt><trkpt lat="45.047876397184794" lon="8.20824197752139"><ele>276.0</ele><time>2026-04-11T11:43:35.001Z</time></trkpt><trkpt lat="45.04789523827517" lon="8.208099353062183"><ele>276.0</ele><time>2026-04-11T11:43:36.001Z</time></trkpt><trkpt lat="45.0479107833338" lon="8.207957719463394"><ele>275.3333333333333</ele><time>2026-04-11T11:43:37.001Z</time></trkpt><trkpt lat="45.047922789811274" lon="8.207815349762745"><ele>274.6666666666667</ele><time>2026-04-11T11:43:38.001Z</time></trkpt><trkpt lat="45.04794422897378" lon="8.207691843924573"><ele>274.0</ele><time>2026-04-11T11:43:39.001Z</time></trkpt><trkpt lat="45.04797800349886" lon="8.207583049046612"><ele>273.33333333333337</ele><time>2026-04-11T11:43:40.001Z</time></trkpt><trkpt lat="45.04802247848591" lon="8.207492688561278"><ele>272.6666666666667</ele><time>2026-04-11T11:43:41.001Z</time></trkpt><trkpt lat="45.04808123416484" lon="8.207421974538608"><ele>272.0</ele><time>2026-04-11T11:43:42.001Z</time></trkpt><trkpt lat="45.04815162703429" lon="8.207363856413785"><ele>271.8</ele><time>2026-04-11T11:43:43.001Z</time></trkpt><trkpt lat="45.04822932401581" lon="8.207294452053103"><ele>271.6</ele><time>2026-04-11T11:43:44.001Z</time></trkpt><trkpt lat="45.04831761923584" lon="8.207216181065633"><ele>271.40000000000003</ele><time>2026-04-11T11:43:45.001Z</time></trkpt><trkpt lat="45.04841637432662" lon="8.207127470227235"><ele>271.2</ele><time>2026-04-11T11:43:46.001Z</time></trkpt><trkpt lat="45.04852001115561" lon="8.207049212301667"><ele>271.0</ele><time>2026-04-11T11:43:47.001Z</time></trkpt><trkpt lat="45.04863383240309" lon="8.206967342622725"><ele>271.0</ele><time>2026-04-11T11:43:48.001Z</time></trkpt><trkpt lat="45.048755862725635" lon="8.206880617773217"><ele>271.0</ele><time>2026-04-11T11:43:49.001Z</time></trkpt><trkpt lat="45.04887926301513" lon="8.206788498988445"><ele>271.0</ele><time>2026-04-11T11:43:50.001Z</time></trkpt><trkpt lat="45.049001059399714" lon="8.206694411230474"><ele>271.0</ele><time>2026-04-11T11:43:51.001Z</time></trkpt><trkpt lat="45.049119330925734" lon="8.206603912944692"><ele>271.2</ele><time>2026-04-11T11:43:52.001Z</time></trkpt><trkpt lat="45.04921994877977" lon="8.206526521395249"><ele>271.40000000000003</ele><time>2026-04-11T11:43:53.001Z</time></trkpt><trkpt lat="45.04931330281407" lon="8.206457233830813"><ele>271.6</ele><time>2026-04-11T11:43:54.002Z</time></trkpt><trkpt lat="45.04939820478608" lon="8.206393102046636"><ele>271.8</ele><time>2026-04-11T11:43:55.002Z</time></trkpt><trkpt lat="45.04947841901508" lon="8.20632888630992"><ele>272.0</ele><time>2026-04-11T11:43:56.002Z</time></trkpt><trkpt lat="45.049546882523245" lon="8.206250215539013"><ele>272.0</ele><time>2026-04-11T11:43:57.002Z</time></trkpt><trkpt lat="45.04959595409693" lon="8.20615301486548"><ele>272.0</ele><time>2026-04-11T11:43:58.002Z</time></trkpt><trkpt lat="45.04963211463452" lon="8.206048649342936"><ele>272.0</ele><time>2026-04-11T11:43:59.002Z</time></trkpt><trkpt lat="45.04965782503277" lon="8.20590837231987"><ele>272.0</ele><time>2026-04-11T11:44:00.002Z</time></trkpt><trkpt lat="45.04967867798834" lon="8.205748086194651"><ele>272.0</ele><time>2026-04-11T11:44:01.002Z</time></trkpt><trkpt lat="45.049687994181554" lon="8.205587645055237"><ele>270.75</ele><time>2026-04-11T11:44:02.002Z</time></trkpt><trkpt lat="45.04971024949287" lon="8.205397409551187"><ele>269.5</ele><time>2026-04-11T11:44:03.002Z</time></trkpt><trkpt lat="45.04971311421009" lon="8.205200146981824"><ele>268.25</ele><time>2026-04-11T11:44:04.002Z</time></trkpt><trkpt lat="45.04969978144564" lon="8.20499909063171"><ele>267.0</ele><time>2026-04-11T11:44:05.002Z</time></trkpt><trkpt lat="45.049682915551664" lon="8.204791327739132"><ele>265.75</ele><time>2026-04-11T11:44:06.002Z</time></trkpt><trkpt lat="45.049681874738354" lon="8.204594194195593"><ele>264.5</ele><time>2026-04-11T11:44:07.002Z</time></trkpt><trkpt lat="45.049706624014334" lon="8.204396573246969"><ele>263.25</ele><time>2026-04-11T11:44:08.002Z</time></trkpt><trkpt lat="45.04973965130969" lon="8.20419325651757"><ele>262.0</ele><time>2026-04-11T11:44:09.002Z</time></trkpt><trkpt lat="45.049785004091866" lon="8.203988220117944"><ele>261.3333333333333</ele><time>2026-04-11T11:44:10.002Z</time></trkpt><trkpt lat="45.04984058873704" lon="8.203781910592703"><ele>260.6666666666667</ele><time>2026-04-11T11:44:11.002Z</time></trkpt><trkpt lat="45.049896535585916" lon="8.203570363137901"><ele>260.0</ele><time>2026-04-11T11:44:12.002Z</time></trkpt><trkpt lat="45.049939970467854" lon="8.203380486404322"><ele>261.0</ele><time>2026-04-11T11:44:13.002Z</time></trkpt><trkpt lat="45.04998245522425" lon="8.203194531189729"><ele>262.0</ele><time>2026-04-11T11:44:14.002Z</time></trkpt><trkpt lat="45.05003276359761" lon="8.203021922336132"><ele>263.0</ele><time>2026-04-11T11:44:15.002Z</time></trkpt><trkpt lat="45.05009372303691" lon="8.202861261886838"><ele>264.0</ele><time>2026-04-11T11:44:16.002Z</time></trkpt><trkpt lat="45.05016345528644" lon="8.202694361798672"><ele>264.0</ele><time>2026-04-11T11:44:17.002Z</time></trkpt><trkpt lat="45.05023404384412" lon="8.202517553668494"><ele>264.0</ele><time>2026-04-11T11:44:18.002Z</time></trkpt><trkpt lat="45.050304877741844" lon="8.20233760342005"><ele>264.0</ele><time>2026-04-11T11:44:19.002Z</time></trkpt><trkpt lat="45.05037488541595" lon="8.202147933083042"><ele>264.0</ele><time>2026-04-11T11:44:20.002Z</time></trkpt><trkpt lat="45.05046248648084" lon="8.201952999347112"><ele>262.0</ele><time>2026-04-11T11:44:21.002Z</time></trkpt><trkpt lat="45.050526245802075" lon="8.201751446132135"><ele>260.0</ele><time>2026-04-11T11:44:22.002Z</time></trkpt><trkpt lat="45.05060627228956" lon="8.2015741525214"><ele>258.0</ele><time>2026-04-11T11:44:23.002Z</time></trkpt><trkpt lat="45.05069083499877" lon="8.2013963652371"><ele>257.6666666666667</ele><time>2026-04-11T11:44:24.002Z</time></trkpt><trkpt lat="45.05077892467184" lon="8.201205981846696"><ele>257.33333333333337</ele><time>2026-04-11T11:44:25.002Z</time></trkpt><trkpt lat="45.05085975148331" lon="8.201008688085373"><ele>257.0</ele><time>2026-04-11T11:44:26.002Z</time></trkpt><trkpt lat="45.05093764221128" lon="8.200802110675662"><ele>260.0</ele><time>2026-04-11T11:44:27.002Z</time></trkpt><trkpt lat="45.05101131987962" lon="8.200590864777276"><ele>263.0</ele><time>2026-04-11T11:44:28.002Z</time></trkpt><trkpt lat="45.05107727923414" lon="8.200367869234986"><ele>266.0</ele><time>2026-04-11T11:44:29.002Z</time></trkpt><trkpt lat="45.05112760959599" lon="8.200133382634757"><ele>266.0</ele><time>2026-04-11T11:44:30.002Z</time></trkpt><trkpt lat="45.05117014859871" lon="8.199923868917827"><ele>266.0</ele><time>2026-04-11T11:44:31.002Z</time></trkpt><trkpt lat="45.05120707087331" lon="8.19972296356967"><ele>266.0</ele><time>2026-04-11T11:44:32.003Z</time></trkpt><trkpt lat="45.05123902117393" lon="8.199550069938384"><ele>266.0</ele><time>2026-04-11T11:44:33.003Z</time></trkpt><trkpt lat="45.05127140785675" lon="8.199389689777744"><ele>265.6</ele><time>2026-04-11T11:44:34.003Z</time></trkpt><trkpt lat="45.05129061895368" lon="8.199249757574366"><ele>265.20000000000005</ele><time>2026-04-11T11:44:35.003Z</time></trkpt><trkpt lat="45.05133564297676" lon="8.199140965568093"><ele>264.79999999999995</ele><time>2026-04-11T11:44:36.003Z</time></trkpt><trkpt lat="45.051376263037014" lon="8.19903350147483"><ele>264.4</ele><time>2026-04-11T11:44:37.003Z</time></trkpt><trkpt lat="45.05143025478461" lon="8.198901838609546"><ele>264.0</ele><time>2026-04-11T11:44:38.003Z</time></trkpt><trkpt lat="45.051496554892076" lon="8.198742703328067"><ele>264.0</ele><time>2026-04-11T11:44:39.003Z</time></trkpt><trkpt lat="45.05156235726464" lon="8.198564811835348"><ele>264.0</ele><time>2026-04-11T11:44:40.003Z</time></trkpt><trkpt lat="45.05163283804091" lon="8.198376081695368"><ele>264.0</ele><time>2026-04-11T11:44:41.003Z</time></trkpt><trkpt lat="45.0517094533883" lon="8.198183324800882"><ele>264.0</ele><time>2026-04-11T11:44:42.003Z</time></trkpt><trkpt lat="45.05177958176973" lon="8.19797619365628"><ele>262.3333333333333</ele><time>2026-04-11T11:44:43.003Z</time></trkpt><trkpt lat="45.05186483154132" lon="8.197759644356818"><ele>260.66666666666663</ele><time>2026-04-11T11:44:44.003Z</time></trkpt><trkpt lat="45.05196521688669" lon="8.19752995880037"><ele>259.0</ele><time>2026-04-11T11:44:45.003Z</time></trkpt><trkpt lat="45.052067350616916" lon="8.197290871954058"><ele>256.3333333333333</ele><time>2026-04-11T11:44:46.003Z</time></trkpt><trkpt lat="45.052165369419924" lon="8.197066200066047"><ele>253.66666666666669</ele><time>2026-04-11T11:44:47.003Z</time></trkpt><trkpt lat="45.052251927430746" lon="8.196850764072495"><ele>251.0</ele><time>2026-04-11T11:44:48.003Z</time></trkpt><trkpt lat="45.05231996636513" lon="8.196646424946266"><ele>250.75</ele><time>2026-04-11T11:44:49.003Z</time></trkpt><trkpt lat="45.05237890156833" lon="8.196450890229935"><ele>250.5</ele><time>2026-04-11T11:44:50.003Z</time></trkpt><trkpt lat="45.05237665562804" lon="8.196239754592195"><ele>250.25</ele><time>2026-04-11T11:44:51.003Z</time></trkpt><trkpt lat="45.05236251301188" lon="8.196033842775982"><ele>250.0</ele><time>2026-04-11T11:44:51.999Z</time></trkpt><trkpt lat="45.05232219177231" lon="8.195819869727496"><ele>251.33333333333331</ele><time>2026-04-11T11:44:52.999Z</time></trkpt><trkpt lat="45.052259885516214" lon="8.195614167146665"><ele>252.66666666666669</ele><time>2026-04-11T11:44:53.999Z</time></trkpt><trkpt lat="45.05220506434372" lon="8.195395018104824"><ele>254.0</ele><time>2026-04-11T11:44:54.999Z</time></trkpt><trkpt lat="45.05216367610121" lon="8.19521312570098"><ele>254.0</ele><time>2026-04-11T11:44:55.999Z</time></trkpt><trkpt lat="45.05216003921235" lon="8.195048125796834"><ele>254.0</ele><time>2026-04-11T11:44:56.999Z</time></trkpt><trkpt lat="45.052189510106196" lon="8.194877241132081"><ele>254.0</ele><time>2026-04-11T11:44:57.999Z</time></trkpt><trkpt lat="45.05224302227527" lon="8.194703355658612"><ele>254.0</ele><time>2026-04-11T11:44:58.999Z</time></trkpt><trkpt lat="45.052289474052756" lon="8.194511245291986"><ele>255.25</ele><time>2026-04-11T11:45:00Z</time></trkpt><trkpt lat="45.05232767398056" lon="8.194323558625296"><ele>256.5</ele><time>2026-04-11T11:45:01Z</time></trkpt><trkpt lat="45.05235312360408" lon="8.194122198475297"><ele>257.75</ele><time>2026-04-11T11:45:02Z</time></trkpt><trkpt lat="45.052371427077546" lon="8.193915501905213"><ele>259.0</ele><time>2026-04-11T11:45:03Z</time></trkpt><trkpt lat="45.05238392047309" lon="8.193703751616583"><ele>260.5</ele><time>2026-04-11T11:45:04Z</time></trkpt><trkpt lat="45.05238365024371" lon="8.193488756359935"><ele>262.0</ele><time>2026-04-11T11:45:05Z</time></trkpt><trkpt lat="45.05237540242868" lon="8.193280413437394"><ele>263.5</ele><time>2026-04-11T11:45:06Z</time></trkpt><trkpt lat="45.05236275406358" lon="8.193073414859294"><ele>265.0</ele><time>2026-04-11T11:45:07Z</time></trkpt><trkpt lat="45.05235316435883" lon="8.19287939522294"><ele>266.5</ele><time>2026-04-11T11:45:08Z</time></trkpt><trkpt lat="45.05235480179544" lon="8.192704310394957"><ele>268.0</ele><time>2026-04-11T11:45:09Z</time></trkpt><trkpt lat="45.05236344138836" lon="8.192544680333025"><ele>269.5</ele><time>2026-04-11T11:45:10Z</time></trkpt><trkpt lat="45.05237681073456" lon="8.192385079598196"><ele>271.0</ele><time>2026-04-11T11:45:11Z</time></trkpt><trkpt lat="45.05239591212094" lon="8.192225630229345"><ele>272.5</ele><time>2026-04-11T11:45:12Z</time></trkpt><trkpt lat="45.052406084921486" lon="8.192065359379896"><ele>274.0</ele><time>2026-04-11T11:45:13Z</time></trkpt><trkpt lat="45.05245103862986" lon="8.191909552434415"><ele>275.5</ele><time>2026-04-11T11:45:14Z</time></trkpt><trkpt lat="45.05248582974" lon="8.191750216271286"><ele>277.0</ele><time>2026-04-11T11:45:15Z</time></trkpt><trkpt lat="45.05252205855954" lon="8.191604510130475"><ele>277.66666666666663</ele><time>2026-04-11T11:45:16Z</time></trkpt><trkpt lat="45.052546985550485" lon="8.191473409563663"><ele>278.3333333333333</ele><time>2026-04-11T11:45:17Z</time></trkpt><trkpt lat="45.05256985554037" lon="8.191371172065551"><ele>279.0</ele><time>2026-04-11T11:45:18Z</time></trkpt><trkpt lat="45.052601579145424" lon="8.191265262766517"><ele>279.6666666666667</ele><time>2026-04-11T11:45:20Z</time></trkpt><trkpt lat="45.05263125787603" lon="8.191131835340599"><ele>280.33333333333337</ele><time>2026-04-11T11:45:23Z</time></trkpt><trkpt lat="45.05266126652045" lon="8.191051611161157"><ele>281.0</ele><time>2026-04-11T11:45:24Z</time></trkpt><trkpt lat="45.05268233984284" lon="8.190936456590517"><ele>281.0</ele><time>2026-04-11T11:45:25Z</time></trkpt><trkpt lat="45.05270231817548" lon="8.190822334142089"><ele>281.0</ele><time>2026-04-11T11:45:26Z</time></trkpt><trkpt lat="45.052721870455976" lon="8.19071064546298"><ele>281.0</ele><time>2026-04-11T11:45:27Z</time></trkpt><trkpt lat="45.0527449397605" lon="8.190578866392714"><ele>281.0</ele><time>2026-04-11T11:45:28Z</time></trkpt><trkpt lat="45.05275688118124" lon="8.190433825715873"><ele>281.0</ele><time>2026-04-11T11:45:29Z</time></trkpt><trkpt lat="45.052790991829994" lon="8.190306003122584"><ele>279.8</ele><time>2026-04-11T11:45:30.001Z</time></trkpt><trkpt lat="45.05281358703207" lon="8.190178043641161"><ele>278.6</ele><time>2026-04-11T11:45:31.001Z</time></trkpt><trkpt lat="45.052852684265744" lon="8.190045272901123"><ele>277.4</ele><time>2026-04-11T11:45:32.001Z</time></trkpt><trkpt lat="45.052873404506464" lon="8.189875839597795"><ele>276.2</ele><time>2026-04-11T11:45:33.001Z</time></trkpt><trkpt lat="45.05286474296784" lon="8.189779831966305"><ele>275.0</ele><time>2026-04-11T11:45:34.001Z</time></trkpt><trkpt lat="45.0528760584125" lon="8.189658396227772"><ele>274.1666666666667</ele><time>2026-04-11T11:45:35.001Z</time></trkpt><trkpt lat="45.052881695508454" lon="8.189542446183573"><ele>273.33333333333337</ele><time>2026-04-11T11:45:36.001Z</time></trkpt><trkpt lat="45.05287649940014" lon="8.189427623223834"><ele>272.5</ele><time>2026-04-11T11:45:37.001Z</time></trkpt><trkpt lat="45.052868889650796" lon="8.189316341468057"><ele>271.6666666666667</ele><time>2026-04-11T11:45:38.001Z</time></trkpt><trkpt lat="45.052899756751934" lon="8.189210653720005"><ele>270.8333333333333</ele><time>2026-04-11T11:45:39.001Z</time></trkpt><trkpt lat="45.05292410260768" lon="8.189120724417624"><ele>270.0</ele><time>2026-04-11T11:45:40.001Z</time></trkpt><trkpt lat="45.05296822653657" lon="8.189015451455614"><ele>270.0</ele><time>2026-04-11T11:45:41.001Z</time></trkpt><trkpt lat="45.05302702898554" lon="8.188897533868253"><ele>270.0</ele><time>2026-04-11T11:45:42.001Z</time></trkpt><trkpt lat="45.05309459206213" lon="8.18877691733812"><ele>270.0</ele><time>2026-04-11T11:45:43.001Z</time></trkpt><trkpt lat="45.05316415669108" lon="8.188654977588811"><ele>270.0</ele><time>2026-04-11T11:45:44.001Z</time></trkpt><trkpt lat="45.05323960519072" lon="8.1885227240126"><ele>270.0</ele><time>2026-04-11T11:45:45.001Z</time></trkpt><trkpt lat="45.05331829738583" lon="8.188384784598762"><ele>270.0</ele><time>2026-04-11T11:45:46.001Z</time></trkpt><trkpt lat="45.05339748149008" lon="8.188245982872207"><ele>270.0</ele><time>2026-04-11T11:45:47.001Z</time></trkpt><trkpt lat="45.05347341493739" lon="8.188111061062763"><ele>270.0</ele><time>2026-04-11T11:45:48.001Z</time></trkpt><trkpt lat="45.05352638150226" lon="8.187969695045753"><ele>270.0</ele><time>2026-04-11T11:45:49.001Z</time></trkpt><trkpt lat="45.053569789192515" lon="8.187837190289994"><ele>268.2</ele><time>2026-04-11T11:45:50.001Z</time></trkpt><trkpt lat="45.05358378110401" lon="8.187698039341932"><ele>266.4</ele><time>2026-04-11T11:45:51.001Z</time></trkpt><trkpt lat="45.05357024096163" lon="8.187560954975599"><ele>264.6</ele><time>2026-04-11T11:45:52.001Z</time></trkpt><trkpt lat="45.05352810603734" lon="8.187432744192439"><ele>262.8</ele><time>2026-04-11T11:45:53.001Z</time></trkpt><trkpt lat="45.05346554228497" lon="8.187307354198468"><ele>261.0</ele><time>2026-04-11T11:45:54.001Z</time></trkpt><trkpt lat="45.05340871061483" lon="8.187192539700384"><ele>259.25</ele><time>2026-04-11T11:45:55.001Z</time></trkpt><trkpt lat="45.05331606762702" lon="8.187135718062894"><ele>257.5</ele><time>2026-04-11T11:45:56.001Z</time></trkpt><trkpt lat="45.05322045459519" lon="8.187090852536718"><ele>255.75</ele><time>2026-04-11T11:45:57.001Z</time></trkpt><trkpt lat="45.05310522871477" lon="8.18708884287395"><ele>254.0</ele><time>2026-04-11T11:45:58.001Z</time></trkpt><trkpt lat="45.05296864509889" lon="8.187117395497532"><ele>251.75</ele><time>2026-04-11T11:45:59.001Z</time></trkpt><trkpt lat="45.052822786386805" lon="8.187161699968826"><ele>249.5</ele><time>2026-04-11T11:46:00.001Z</time></trkpt><trkpt lat="45.052676580185484" lon="8.187208432018739"><ele>247.25</ele><time>2026-04-11T11:46:01.001Z</time></trkpt><trkpt lat="45.05252965351135" lon="8.18724885117078"><ele>245.0</ele><time>2026-04-11T11:46:02.001Z</time></trkpt><trkpt lat="45.052373677441004" lon="8.187289454706194"><ele>246.0</ele><time>2026-04-11T11:46:03.002Z</time></trkpt><trkpt lat="45.05220526492002" lon="8.187332755506858"><ele>247.0</ele><time>2026-04-11T11:46:04.002Z</time></trkpt><trkpt lat="45.05202982942442" lon="8.187366549306155"><ele>248.0</ele><time>2026-04-11T11:46:05.002Z</time></trkpt><trkpt lat="45.051857614901785" lon="8.187394837991317"><ele>248.0</ele><time>2026-04-11T11:46:06.002Z</time></trkpt><trkpt lat="45.05169468702545" lon="8.187421024421328"><ele>248.0</ele><time>2026-04-11T11:46:07.002Z</time></trkpt><trkpt lat="45.05154034636926" lon="8.187451797883194"><ele>248.0</ele><time>2026-04-11T11:46:08.002Z</time></trkpt><trkpt lat="45.05139442893515" lon="8.187482658670936"><ele>246.60000000000002</ele><time>2026-04-11T11:46:09.002Z</time></trkpt><trkpt lat="45.051267853626555" lon="8.187499387932537"><ele>245.20000000000002</ele><time>2026-04-11T11:46:10.002Z</time></trkpt><trkpt lat="45.05117399844282" lon="8.187441834800921"><ele>243.8</ele><time>2026-04-11T11:46:11.002Z</time></trkpt><trkpt lat="45.05110865075589" lon="8.187369506377483"><ele>242.4</ele><time>2026-04-11T11:46:12.002Z</time></trkpt><trkpt lat="45.051057600189075" lon="8.187275459038453"><ele>241.0</ele><time>2026-04-11T11:46:13.002Z</time></trkpt><trkpt lat="45.05101326138558" lon="8.187157604605105"><ele>239.4</ele><time>2026-04-11T11:46:14.002Z</time></trkpt><trkpt lat="45.051008932914236" lon="8.187032578331118"><ele>237.8</ele><time>2026-04-11T11:46:15.002Z</time></trkpt><trkpt lat="45.05102671963359" lon="8.186904650493409"><ele>236.20000000000002</ele><time>2026-04-11T11:46:16.002Z</time></trkpt><trkpt lat="45.05107209543302" lon="8.186784565013719"><ele>234.60000000000002</ele><time>2026-04-11T11:46:17.002Z</time></trkpt><trkpt lat="45.05113938547145" lon="8.186675641978006"><ele>233.0</ele><time>2026-04-11T11:46:18.002Z</time></trkpt><trkpt lat="45.05122413268117" lon="8.186552733869037"><ele>231.0</ele><time>2026-04-11T11:46:19.002Z</time></trkpt><trkpt lat="45.051323020702085" lon="8.186406151159417"><ele>229.0</ele><time>2026-04-11T11:46:20.002Z</time></trkpt><trkpt lat="45.051431598812826" lon="8.186248152588103"><ele>227.0</ele><time>2026-04-11T11:46:21.002Z</time></trkpt><trkpt lat="45.05154240643956" lon="8.186086909744306"><ele>226.5</ele><time>2026-04-11T11:46:22.002Z</time></trkpt><trkpt lat="45.05164746552819" lon="8.18593475332856"><ele>226.0</ele><time>2026-04-11T11:46:23.002Z</time></trkpt><trkpt lat="45.051735278539404" lon="8.185787857603387"><ele>225.5</ele><time>2026-04-11T11:46:24.002Z</time></trkpt><trkpt lat="45.05182813729362" lon="8.18565183937197"><ele>225.0</ele><time>2026-04-11T11:46:25.002Z</time></trkpt><trkpt lat="45.0519210043035" lon="8.185547989626526"><ele>225.0</ele><time>2026-04-11T11:46:26.002Z</time></trkpt><trkpt lat="45.05198140789192" lon="8.185434216316818"><ele>225.0</ele><time>2026-04-11T11:46:27.002Z</time></trkpt><trkpt lat="45.05200448926642" lon="8.185314561345571"><ele>225.0</ele><time>2026-04-11T11:46:28.002Z</time></trkpt><trkpt lat="45.05198440697264" lon="8.18519077252494"><ele>225.0</ele><time>2026-04-11T11:46:29.002Z</time></trkpt><trkpt lat="45.05190496095169" lon="8.185100343192568"><ele>225.0</ele><time>2026-04-11T11:46:30.002Z</time></trkpt><trkpt lat="45.051819633956484" lon="8.185036547664591"><ele>225.0</ele><time>2026-04-11T11:46:31.002Z</time></trkpt><trkpt lat="45.05171608409555" lon="8.184992348670605"><ele>225.0</ele><time>2026-04-11T11:46:32.002Z</time></trkpt><trkpt lat="45.05162857528361" lon="8.18492026510146"><ele>225.0</ele><time>2026-04-11T11:46:33.002Z</time></trkpt><trkpt lat="45.05157040556177" lon="8.18483167870783"><ele>225.0</ele><time>2026-04-11T11:46:34.002Z</time></trkpt><trkpt lat="45.05154709905581" lon="8.184724965409403"><ele>225.0</ele><time>2026-04-11T11:46:35.002Z</time></trkpt><trkpt lat="45.05153856944884" lon="8.184618652524376"><ele>225.0</ele><time>2026-04-11T11:46:36.002Z</time></trkpt><trkpt lat="45.05154806762612" lon="8.184515133688938"><ele>224.33333333333334</ele><time>2026-04-11T11:46:37.002Z</time></trkpt><trkpt lat="45.051583650214035" lon="8.184426117506192"><ele>223.66666666666669</ele><time>2026-04-11T11:46:38.003Z</time></trkpt><trkpt lat="45.05162037195864" lon="8.184331978161401"><ele>223.0</ele><time>2026-04-11T11:46:39.003Z</time></trkpt><trkpt lat="45.05170875413711" lon="8.184325742783116"><ele>222.33333333333334</ele><time>2026-04-11T11:46:40.003Z</time></trkpt><trkpt lat="45.05179971397491" lon="8.18430508168378"><ele>221.66666666666669</ele><time>2026-04-11T11:46:41.003Z</time></trkpt><trkpt lat="45.05189542241488" lon="8.18429162971389"><ele>221.0</ele><time>2026-04-11T11:46:42.003Z</time></trkpt><trkpt lat="45.05197851337309" lon="8.184274175921137"><ele>221.00000000000003</ele><time>2026-04-11T11:46:43.003Z</time></trkpt><trkpt lat="45.05206037398456" lon="8.184253310915674"><ele>221.0</ele><time>2026-04-11T11:46:44.003Z</time></trkpt><trkpt lat="45.05214123668018" lon="8.184233196032418"><ele>221.0</ele><time>2026-04-11T11:46:45.003Z</time></trkpt><trkpt lat="45.052224448517975" lon="8.184214835044639"><ele>221.0</ele><time>2026-04-11T11:46:46.003Z</time></trkpt><trkpt lat="45.052319352338" lon="8.184201694738729"><ele>221.00000000000003</ele><time>2026-04-11T11:46:47.003Z</time></trkpt><trkpt lat="45.05242034512352" lon="8.184178869832797"><ele>221.0</ele><time>2026-04-11T11:46:48.003Z</time></trkpt><trkpt lat="45.05252544066847" lon="8.184153358910526"><ele>221.4</ele><time>2026-04-11T11:46:49.003Z</time></trkpt><trkpt lat="45.05263239321843" lon="8.184128494538754"><ele>221.8</ele><time>2026-04-11T11:46:50.003Z</time></trkpt><trkpt lat="45.052733096316025" lon="8.18410625809137"><ele>222.20000000000002</ele><time>2026-04-11T11:46:51.003Z</time></trkpt><trkpt lat="45.05282285427291" lon="8.184086632409073"><ele>222.60000000000002</ele><time>2026-04-11T11:46:52.003Z</time></trkpt><trkpt lat="45.05289321021736" lon="8.184070008998416"><ele>223.0</ele><time>2026-04-11T11:46:53.003Z</time></trkpt><trkpt lat="45.052990490870236" lon="8.18405148634307"><ele>223.4</ele><time>2026-04-11T11:46:55.003Z</time></trkpt><trkpt lat="45.05308012361884" lon="8.183999867984097"><ele>223.8</ele><time>2026-04-11T11:47:36Z</time></trkpt><trkpt lat="45.05315328900626" lon="8.183960251901652"><ele>224.2</ele><time>2026-04-11T11:47:37Z</time></trkpt><trkpt lat="45.05324321493064" lon="8.18389777427774"><ele>224.6</ele><time>2026-04-11T11:47:38.001Z</time></trkpt><trkpt lat="45.053328986456116" lon="8.183830347357373"><ele>225.0</ele><time>2026-04-11T11:47:39.001Z</time></trkpt><trkpt lat="45.05343500036262" lon="8.183744473296999"><ele>225.0</ele><time>2026-04-11T11:47:40.001Z</time></trkpt><trkpt lat="45.05354610541155" lon="8.183651643877136"><ele>225.0</ele><time>2026-04-11T11:47:41.001Z</time></trkpt><trkpt lat="45.05364865593038" lon="8.183570928433012"><ele>225.0</ele><time>2026-04-11T11:47:42.001Z</time></trkpt><trkpt lat="45.053738997215255" lon="8.183466107737031"><ele>225.0</ele><time>2026-04-11T11:47:43.001Z</time></trkpt><trkpt lat="45.053817269493116" lon="8.183348144588443"><ele>225.0</ele><time>2026-04-11T11:47:44.001Z</time></trkpt><trkpt lat="45.05387781879091" lon="8.183203458441781"><ele>225.0</ele><time>2026-04-11T11:47:45.001Z</time></trkpt><trkpt lat="45.05392637288786" lon="8.183055606556598"><ele>225.0</ele><time>2026-04-11T11:47:46.001Z</time></trkpt><trkpt lat="45.05393798292398" lon="8.182909877525535"><ele>225.0</ele><time>2026-04-11T11:47:47.001Z</time></trkpt><trkpt lat="45.05391317271791" lon="8.182762969525093"><ele>225.0</ele><time>2026-04-11T11:47:48.001Z</time></trkpt><trkpt lat="45.05385330350582" lon="8.182627908688117"><ele>225.75</ele><time>2026-04-11T11:47:49.001Z</time></trkpt><trkpt lat="45.05374075675323" lon="8.18255327503418"><ele>226.5</ele><time>2026-04-11T11:47:50.001Z</time></trkpt><trkpt lat="45.05363413774835" lon="8.182489679248754"><ele>227.25</ele><time>2026-04-11T11:47:51.001Z</time></trkpt><trkpt lat="45.0535048009524" lon="8.182434638072309"><ele>228.0</ele><time>2026-04-11T11:47:52.001Z</time></trkpt><trkpt lat="45.05336459073581" lon="8.182336466054142"><ele>231.33333333333331</ele><time>2026-04-11T11:47:53.001Z</time></trkpt><trkpt lat="45.05320725495457" lon="8.1822488307226"><ele>234.66666666666666</ele><time>2026-04-11T11:47:54.001Z</time></trkpt><trkpt lat="45.053047197283746" lon="8.182185708750518"><ele>238.0</ele><time>2026-04-11T11:47:55.001Z</time></trkpt><trkpt lat="45.05289966643537" lon="8.182111198967625"><ele>238.0</ele><time>2026-04-11T11:47:56.001Z</time></trkpt><trkpt lat="45.05274472854046" lon="8.182033850389406"><ele>238.0</ele><time>2026-04-11T11:47:57.001Z</time></trkpt><trkpt lat="45.05257553212622" lon="8.181945186659448"><ele>238.0</ele><time>2026-04-11T11:47:58.001Z</time></trkpt><trkpt lat="45.05240600417687" lon="8.18183629359539"><ele>238.0</ele><time>2026-04-11T11:47:59.001Z</time></trkpt><trkpt lat="45.05223364166562" lon="8.181722921781931"><ele>238.0</ele><time>2026-04-11T11:48:00.001Z</time></trkpt><trkpt lat="45.05207057577969" lon="8.181616071325752"><ele>238.0</ele><time>2026-04-11T11:48:01.001Z</time></trkpt><trkpt lat="45.05192380363408" lon="8.18151822657459"><ele>240.0</ele><time>2026-04-11T11:48:02.001Z</time></trkpt><trkpt lat="45.051789483953456" lon="8.181437880793803"><ele>242.0</ele><time>2026-04-11T11:48:03.001Z</time></trkpt><trkpt lat="45.051664834409536" lon="8.18136403407051"><ele>244.0</ele><time>2026-04-11T11:48:04.001Z</time></trkpt><trkpt lat="45.05156864992776" lon="8.181250070923653"><ele>246.0</ele><time>2026-04-11T11:48:05.001Z</time></trkpt><trkpt lat="45.051494478534856" lon="8.181144186779708"><ele>246.0</ele><time>2026-04-11T11:48:06.001Z</time></trkpt><trkpt lat="45.05145312762461" lon="8.181011606238966"><ele>246.00000000000003</ele><time>2026-04-11T11:48:07.001Z</time></trkpt><trkpt lat="45.05140822521277" lon="8.180861762673722"><ele>246.00000000000003</ele><time>2026-04-11T11:48:08.001Z</time></trkpt><trkpt lat="45.05137255638307" lon="8.180726802973297"><ele>246.0</ele><time>2026-04-11T11:48:09.002Z</time></trkpt><trkpt lat="45.051346952653574" lon="8.180610446522396"><ele>246.0</ele><time>2026-04-11T11:48:10.002Z</time></trkpt><trkpt lat="45.051313182334205" lon="8.18051224178473"><ele>246.0</ele><time>2026-04-11T11:48:11.002Z</time></trkpt><trkpt lat="45.05132442277171" lon="8.180423800110404"><ele>246.00000000000003</ele><time>2026-04-11T11:48:12.002Z</time></trkpt><trkpt lat="45.05138435397182" lon="8.1803378706469"><ele>246.00000000000003</ele><time>2026-04-11T11:48:14.002Z</time></trkpt><trkpt lat="45.051507261402456" lon="8.18028097168772"><ele>246.0</ele><time>2026-04-11T11:48:16.002Z</time></trkpt><trkpt lat="45.05159227786307" lon="8.1802160259164"><ele>246.0</ele><time>2026-04-11T11:48:17.002Z</time></trkpt><trkpt lat="45.05168752289683" lon="8.18018031835889"><ele>246.0</ele><time>2026-04-11T11:48:18.002Z</time></trkpt><trkpt lat="45.05177320457686" lon="8.180123108773975"><ele>246.00000000000003</ele><time>2026-04-11T11:48:19.002Z</time></trkpt><trkpt lat="45.051867158028166" lon="8.180080276144064"><ele>246.00000000000003</ele><time>2026-04-11T11:48:20.002Z</time></trkpt><trkpt lat="45.05196040591388" lon="8.180030913760397"><ele>246.0</ele><time>2026-04-11T11:48:21.002Z</time></trkpt><trkpt lat="45.05203689681421" lon="8.179955618587499"><ele>246.0</ele><time>2026-04-11T11:48:22.002Z</time></trkpt><trkpt lat="45.052102557838616" lon="8.17986700388853"><ele>243.60000000000002</ele><time>2026-04-11T11:48:23.002Z</time></trkpt><trkpt lat="45.05215038184927" lon="8.179738801049584"><ele>241.20000000000002</ele><time>2026-04-11T11:48:24.002Z</time></trkpt><trkpt lat="45.05218648084198" lon="8.179596426984093"><ele>238.79999999999998</ele><time>2026-04-11T11:48:25.002Z</time></trkpt><trkpt lat="45.05222929126064" lon="8.179456687386724"><ele>236.39999999999998</ele><time>2026-04-11T11:48:26.002Z</time></trkpt><trkpt lat="45.05227726401394" lon="8.179325564558663"><ele>234.0</ele><time>2026-04-11T11:48:27.002Z</time></trkpt><trkpt lat="45.052337152952525" lon="8.179229405824998"><ele>234.0</ele><time>2026-04-11T11:48:28.002Z</time></trkpt><trkpt lat="45.052418719526706" lon="8.179158765319569"><ele>234.0</ele><time>2026-04-11T11:48:29.002Z</time></trkpt><trkpt lat="45.05252593623982" lon="8.179100396501282"><ele>234.0</ele><time>2026-04-11T11:48:30.002Z</time></trkpt><trkpt lat="45.052648309217716" lon="8.179016004174258"><ele>234.0</ele><time>2026-04-11T11:48:31.002Z</time></trkpt><trkpt lat="45.052773303826605" lon="8.178913626810925"><ele>234.75</ele><time>2026-04-11T11:48:32.002Z</time></trkpt><trkpt lat="45.0528892083012" lon="8.178815391183196"><ele>235.5</ele><time>2026-04-11T11:48:33.002Z</time></trkpt><trkpt lat="45.05300934724355" lon="8.178713521066511"><ele>236.25</ele><time>2026-04-11T11:48:34.002Z</time></trkpt><trkpt lat="45.05313386390994" lon="8.178607936718777"><ele>237.0</ele><time>2026-04-11T11:48:35.002Z</time></trkpt><trkpt lat="45.053258576362595" lon="8.178502084383881"><ele>239.6</ele><time>2026-04-11T11:48:36.002Z</time></trkpt><trkpt lat="45.05336265345781" lon="8.178401471227641"><ele>242.2</ele><time>2026-04-11T11:48:37.002Z</time></trkpt><trkpt lat="45.053451295789095" lon="8.178318498121511"><ele>244.8</ele><time>2026-04-11T11:48:38.002Z</time></trkpt><trkpt lat="45.05350202814579" lon="8.178214315357305"><ele>247.4</ele><time>2026-04-11T11:48:39.002Z</time></trkpt><trkpt lat="45.05352464298094" lon="8.178107951544234"><ele>250.0</ele><time>2026-04-11T11:48:40.002Z</time></trkpt><trkpt lat="45.05348288915635" lon="8.177964184219432"><ele>250.2</ele><time>2026-04-11T11:48:41.002Z</time></trkpt><trkpt lat="45.053395116871485" lon="8.177865222986187"><ele>250.4</ele><time>2026-04-11T11:48:42.003Z</time></trkpt><trkpt lat="45.053302087908676" lon="8.177757374241919"><ele>250.60000000000002</ele><time>2026-04-11T11:48:43.003Z</time></trkpt><trkpt lat="45.05323110217538" lon="8.177625977704729"><ele>250.8</ele><time>2026-04-11T11:48:44.003Z</time></trkpt><trkpt lat="45.053172506775276" lon="8.177513234906835"><ele>251.0</ele><time>2026-04-11T11:48:45.003Z</time></trkpt><trkpt lat="45.05313523532388" lon="8.177386325074496"><ele>249.8</ele><time>2026-04-11T11:48:46.003Z</time></trkpt><trkpt lat="45.05312393507056" lon="8.177242419798098"><ele>248.60000000000002</ele><time>2026-04-11T11:48:47.003Z</time></trkpt><trkpt lat="45.05313547166892" lon="8.177096512558025"><ele>247.4</ele><time>2026-04-11T11:48:48.003Z</time></trkpt><trkpt lat="45.05316397165056" lon="8.176949707055753"><ele>246.2</ele><time>2026-04-11T11:48:49.003Z</time></trkpt><trkpt lat="45.05320167551114" lon="8.176782512093517"><ele>245.0</ele><time>2026-04-11T11:48:50.003Z</time></trkpt><trkpt lat="45.05324977218879" lon="8.176604024364066"><ele>246.33333333333334</ele><time>2026-04-11T11:48:51.003Z</time></trkpt><trkpt lat="45.053303613619036" lon="8.176413109112492"><ele>247.66666666666669</ele><time>2026-04-11T11:48:52.003Z</time></trkpt><trkpt lat="45.05336142043195" lon="8.17621215355116"><ele>249.0</ele><time>2026-04-11T11:48:53.003Z</time></trkpt><trkpt lat="45.053414862128946" lon="8.176001913427545"><ele>249.0</ele><time>2026-04-11T11:48:54.003Z</time></trkpt><trkpt lat="45.05345131007185" lon="8.175772883039471"><ele>249.0</ele><time>2026-04-11T11:48:55.003Z</time></trkpt><trkpt lat="45.05349095091164" lon="8.175550805534344"><ele>249.0</ele><time>2026-04-11T11:48:56.003Z</time></trkpt><trkpt lat="45.05354186987956" lon="8.175351151144909"><ele>249.0</ele><time>2026-04-11T11:48:57.003Z</time></trkpt><trkpt lat="45.05356604882616" lon="8.175154690351611"><ele>249.0</ele><time>2026-04-11T11:48:58.003Z</time></trkpt><trkpt lat="45.0536072667005" lon="8.17496455611085"><ele>249.0</ele><time>2026-04-11T11:48:59.003Z</time></trkpt><trkpt lat="45.053653907338756" lon="8.174768379943394"><ele>249.0</ele><time>2026-04-11T11:49:00.003Z</time></trkpt><trkpt lat="45.053701432849195" lon="8.17457446188886"><ele>248.66666666666669</ele><time>2026-04-11T11:49:01.003Z</time></trkpt><trkpt lat="45.05375840516598" lon="8.174374835710951"><ele>248.33333333333334</ele><time>2026-04-11T11:49:02.003Z</time></trkpt><trkpt lat="45.053821346803936" lon="8.174172583195327"><ele>248.0</ele><time>2026-04-11T11:49:03.003Z</time></trkpt><trkpt lat="45.05389692055156" lon="8.17399195211417"><ele>249.0</ele><time>2026-04-11T11:49:04Z</time></trkpt><trkpt lat="45.053938064811" lon="8.1738103907733"><ele>250.0</ele><time>2026-04-11T11:49:05Z</time></trkpt><trkpt lat="45.05400836757127" lon="8.173671972381523"><ele>251.0</ele><time>2026-04-11T11:49:06Z</time></trkpt><trkpt lat="45.054073846487924" lon="8.17356422156531"><ele>252.0</ele><time>2026-04-11T11:49:07Z</time></trkpt><trkpt lat="45.054157304319006" lon="8.173479612902828"><ele>252.0</ele><time>2026-04-11T11:49:08Z</time></trkpt><trkpt lat="45.05426695077123" lon="8.173413817318137"><ele>252.0</ele><time>2026-04-11T11:49:09Z</time></trkpt><trkpt lat="45.05437994416627" lon="8.173349608499123"><ele>252.0</ele><time>2026-04-11T11:49:10Z</time></trkpt><trkpt lat="45.05447923641092" lon="8.173289834745258"><ele>252.0</ele><time>2026-04-11T11:49:11Z</time></trkpt><trkpt lat="45.05456514479761" lon="8.17328606806513"><ele>252.0</ele><time>2026-04-11T11:49:12Z</time></trkpt><trkpt lat="45.05464236904859" lon="8.173321329368555"><ele>252.0</ele><time>2026-04-11T11:49:13Z</time></trkpt><trkpt lat="45.0547157840851" lon="8.17339464678592"><ele>252.0</ele><time>2026-04-11T11:49:14Z</time></trkpt><trkpt lat="45.054787816602804" lon="8.173498312673255"><ele>252.0</ele><time>2026-04-11T11:49:15Z</time></trkpt><trkpt lat="45.05485794831204" lon="8.173625496502584"><ele>252.0</ele><time>2026-04-11T11:49:16Z</time></trkpt><trkpt lat="45.05493413292982" lon="8.173777507412902"><ele>252.0</ele><time>2026-04-11T11:49:17Z</time></trkpt><trkpt lat="45.055013960729454" lon="8.173943348887569"><ele>254.0</ele><time>2026-04-11T11:49:18Z</time></trkpt><trkpt lat="45.055105660897546" lon="8.174106257392609"><ele>256.0</ele><time>2026-04-11T11:49:19Z</time></trkpt><trkpt lat="45.05520346736653" lon="8.17426066013614"><ele>258.0</ele><time>2026-04-11T11:49:20Z</time></trkpt><trkpt lat="45.0553060101951" lon="8.174393224797342"><ele>260.0</ele><time>2026-04-11T11:49:21Z</time></trkpt><trkpt lat="45.055420413656236" lon="8.174505547707323"><ele>260.0</ele><time>2026-04-11T11:49:22Z</time></trkpt><trkpt lat="45.05554420431649" lon="8.174599805164341"><ele>260.0</ele><time>2026-04-11T11:49:23Z</time></trkpt><trkpt lat="45.0556676095945" lon="8.174696919178038"><ele>260.0</ele><time>2026-04-11T11:49:24Z</time></trkpt><trkpt lat="45.0557901327199" lon="8.174798579930199"><ele>260.0</ele><time>2026-04-11T11:49:25Z</time></trkpt><trkpt lat="45.055898496107254" lon="8.174885704966725"><ele>261.0</ele><time>2026-04-11T11:49:26Z</time></trkpt><trkpt lat="45.05600039755674" lon="8.174943830218002"><ele>262.0</ele><time>2026-04-11T11:49:27Z</time></trkpt><trkpt lat="45.05609717712108" lon="8.174954598881659"><ele>263.0</ele><time>2026-04-11T11:49:28Z</time></trkpt><trkpt lat="45.05618232094694" lon="8.174909130919906"><ele>264.0</ele><time>2026-04-11T11:49:29Z</time></trkpt><trkpt lat="45.0562642363054" lon="8.174809005513634"><ele>265.0</ele><time>2026-04-11T11:49:30Z</time></trkpt><trkpt lat="45.05635667189618" lon="8.174677925958735"><ele>263.3333333333333</ele><time>2026-04-11T11:49:31Z</time></trkpt><trkpt lat="45.056450750660424" lon="8.174516029911436"><ele>261.6666666666667</ele><time>2026-04-11T11:49:32Z</time></trkpt><trkpt lat="45.056549510270024" lon="8.174344777380869"><ele>260.0</ele><time>2026-04-11T11:49:33Z</time></trkpt><trkpt lat="45.056655860464296" lon="8.1741616567308"><ele>257.6666666666667</ele><time>2026-04-11T11:49:34Z</time></trkpt><trkpt lat="45.056763955292105" lon="8.173980564689066"><ele>255.33333333333331</ele><time>2026-04-11T11:49:35.001Z</time></trkpt><trkpt lat="45.056864977653525" lon="8.173811210231227"><ele>253.0</ele><time>2026-04-11T11:49:36.001Z</time></trkpt><trkpt lat="45.05696760650894" lon="8.173638676366632"><ele>253.0</ele><time>2026-04-11T11:49:37.001Z</time></trkpt><trkpt lat="45.05706977453931" lon="8.173466118210856"><ele>253.0</ele><time>2026-04-11T11:49:38.001Z</time></trkpt><trkpt lat="45.05717275838728" lon="8.173291023256887"><ele>253.0</ele><time>2026-04-11T11:49:39.001Z</time></trkpt><trkpt lat="45.05726988744737" lon="8.17312073579218"><ele>255.0</ele><time>2026-04-11T11:49:40.001Z</time></trkpt><trkpt lat="45.05736263494909" lon="8.17293962374362"><ele>257.0</ele><time>2026-04-11T11:49:41.001Z</time></trkpt><trkpt lat="45.05743682529725" lon="8.172748479859594"><ele>259.0</ele><time>2026-04-11T11:49:42.001Z</time></trkpt><trkpt lat="45.05747403501288" lon="8.172550221410907"><ele>259.0</ele><time>2026-04-11T11:49:43.001Z</time></trkpt><trkpt lat="45.05753201346725" lon="8.172387771454485"><ele>259.0</ele><time>2026-04-11T11:49:44.001Z</time></trkpt><trkpt lat="45.05757647547938" lon="8.17225175328977"><ele>259.0</ele><time>2026-04-11T11:49:45.001Z</time></trkpt><trkpt lat="45.057632532178566" lon="8.172164176653244"><ele>259.0</ele><time>2026-04-11T11:49:46.001Z</time></trkpt><trkpt lat="45.05769604019965" lon="8.172106979173016"><ele>259.0</ele><time>2026-04-11T11:49:47.001Z</time></trkpt><trkpt lat="45.05779138239388" lon="8.172046826851373"><ele>258.25</ele><time>2026-04-11T11:49:48.001Z</time></trkpt><trkpt lat="45.057910320221346" lon="8.171961993838776"><ele>257.5</ele><time>2026-04-11T11:49:49.001Z</time></trkpt><trkpt lat="45.058050641698856" lon="8.171892914076158"><ele>256.75</ele><time>2026-04-11T11:49:50.001Z</time></trkpt><trkpt lat="45.05820334040725" lon="8.17181078219879"><ele>256.0</ele><time>2026-04-11T11:49:51.001Z</time></trkpt><trkpt lat="45.05836925882014" lon="8.171764006017042"><ele>256.0</ele><time>2026-04-11T11:49:52.001Z</time></trkpt><trkpt lat="45.05852312146905" lon="8.171704367164768"><ele>256.0</ele><time>2026-04-11T11:49:53.001Z</time></trkpt><trkpt lat="45.05866332569291" lon="8.171629450663787"><ele>256.0</ele><time>2026-04-11T11:49:54.001Z</time></trkpt><trkpt lat="45.0588002304661" lon="8.171574163250181"><ele>255.25</ele><time>2026-04-11T11:49:55.001Z</time></trkpt><trkpt lat="45.05892453179223" lon="8.171507140017727"><ele>254.5</ele><time>2026-04-11T11:49:56.001Z</time></trkpt><trkpt lat="45.05902440359332" lon="8.171422989594198"><ele>253.75</ele><time>2026-04-11T11:49:57.001Z</time></trkpt><trkpt lat="45.05910561398939" lon="8.171314339430015"><ele>253.0</ele><time>2026-04-11T11:49:58.001Z</time></trkpt><trkpt lat="45.05916198495223" lon="8.171168435887852"><ele>253.0</ele><time>2026-04-11T11:49:59.001Z</time></trkpt><trkpt lat="45.059227080945504" lon="8.171003642197327"><ele>253.0</ele><time>2026-04-11T11:50:00.001Z</time></trkpt><trkpt lat="45.05929019055041" lon="8.170814312817296"><ele>253.0</ele><time>2026-04-11T11:50:01.001Z</time></trkpt><trkpt lat="45.05935306590357" lon="8.170618666257006"><ele>253.0</ele><time>2026-04-11T11:50:02.001Z</time></trkpt><trkpt lat="45.05941532193426" lon="8.170424004062326"><ele>251.33333333333331</ele><time>2026-04-11T11:50:03.001Z</time></trkpt><trkpt lat="45.05946989013157" lon="8.170209523134293"><ele>249.66666666666669</ele><time>2026-04-11T11:50:04.001Z</time></trkpt><trkpt lat="45.059535019693705" lon="8.169995117952507"><ele>248.0</ele><time>2026-04-11T11:50:05.001Z</time></trkpt><trkpt lat="45.059614596710624" lon="8.169784772638621"><ele>246.75</ele><time>2026-04-11T11:50:06.001Z</time></trkpt><trkpt lat="45.05967579644703" lon="8.169587913589789"><ele>245.5</ele><time>2026-04-11T11:50:07.001Z</time></trkpt><trkpt lat="45.05973562436736" lon="8.169395467016521"><ele>244.25</ele><time>2026-04-11T11:50:08.002Z</time></trkpt><trkpt lat="45.05979231635634" lon="8.169215084233002"><ele>243.0</ele><time>2026-04-11T11:50:09.002Z</time></trkpt><trkpt lat="45.05984459723746" lon="8.169056345736537"><ele>242.8</ele><time>2026-04-11T11:50:10.002Z</time></trkpt><trkpt lat="45.05986860408669" lon="8.168926034703865"><ele>242.60000000000002</ele><time>2026-04-11T11:50:11.002Z</time></trkpt><trkpt lat="45.059906476683736" lon="8.168808973033197"><ele>242.39999999999998</ele><time>2026-04-11T11:50:12.002Z</time></trkpt><trkpt lat="45.059924491330555" lon="8.168686109906897"><ele>242.2</ele><time>2026-04-11T11:50:13.002Z</time></trkpt><trkpt lat="45.059913530509604" lon="8.16854090513242"><ele>242.0</ele><time>2026-04-11T11:50:14.002Z</time></trkpt><trkpt lat="45.05987490939158" lon="8.168372311993576"><ele>242.0</ele><time>2026-04-11T11:50:15.002Z</time></trkpt><trkpt lat="45.05980750755911" lon="8.168199398921974"><ele>242.0</ele><time>2026-04-11T11:50:16.002Z</time></trkpt><trkpt lat="45.059758342150545" lon="8.168006938126618"><ele>242.0</ele><time>2026-04-11T11:50:17.002Z</time></trkpt><trkpt lat="45.059716590630096" lon="8.167851259052323"><ele>242.0</ele><time>2026-04-11T11:50:18.002Z</time></trkpt><trkpt lat="45.059701857898595" lon="8.167734927332141"><ele>242.2</ele><time>2026-04-11T11:50:19.002Z</time></trkpt><trkpt lat="45.05971423141244" lon="8.167568940603266"><ele>242.39999999999998</ele><time>2026-04-11T11:50:21.002Z</time></trkpt><trkpt lat="45.059623171727715" lon="8.167490568802112"><ele>242.60000000000002</ele><time>2026-04-11T11:50:22.002Z</time></trkpt><trkpt lat="45.05957103702659" lon="8.167364897154943"><ele>242.8</ele><time>2026-04-11T11:50:24.002Z</time></trkpt><trkpt lat="45.05953488286492" lon="8.167259742388927"><ele>243.0</ele><time>2026-04-11T11:50:26.002Z</time></trkpt><trkpt lat="45.0595030371966" lon="8.167157874599742"><ele>243.33333333333334</ele><time>2026-04-11T11:51:00.003Z</time></trkpt><trkpt lat="45.05950828439501" lon="8.16726847549984"><ele>243.66666666666669</ele><time>2026-04-11T11:54:42.001Z</time></trkpt><trkpt lat="45.05957994796506" lon="8.167250933037097"><ele>244.0</ele><time>2026-04-11T11:54:51.001Z</time></trkpt><trkpt lat="45.05968370360638" lon="8.16721965715843"><ele>244.33333333333334</ele><time>2026-04-11T13:14:32Z</time></trkpt><trkpt lat="45.05962671311974" lon="8.167174307599097"><ele>244.66666666666669</ele><time>2026-04-11T13:20:11Z</time></trkpt><trkpt lat="45.05957675896038" lon="8.167232778030952"><ele>245.0</ele><time>2026-04-11T13:20:17Z</time></trkpt><trkpt lat="45.05949644354795" lon="8.167161249637664"><ele>245.0</ele><time>2026-04-11T13:24:56.999Z</time></trkpt><trkpt lat="45.059441506718066" lon="8.167052812013782"><ele>245.0</ele><time>2026-04-11T13:24:59.999Z</time></trkpt><trkpt lat="45.05939584107219" lon="8.16693270689474"><ele>245.0</ele><time>2026-04-11T13:25:01.999Z</time></trkpt><trkpt lat="45.05934800915525" lon="8.166804749045474"><ele>245.0</ele><time>2026-04-11T13:25:03.999Z</time></trkpt><trkpt lat="45.059297914476886" lon="8.166674143088937"><ele>245.0</ele><time>2026-04-11T13:25:05.999Z</time></trkpt><trkpt lat="45.05925821978491" lon="8.16656091259634"><ele>244.6</ele><time>2026-04-11T13:25:07.999Z</time></trkpt><trkpt lat="45.05920653863094" lon="8.16643128408709"><ele>244.2</ele><time>2026-04-11T13:25:09.999Z</time></trkpt><trkpt lat="45.059166436936074" lon="8.16628545882008"><ele>243.8</ele><time>2026-04-11T13:25:11.999Z</time></trkpt><trkpt lat="45.05911682280915" lon="8.166141334866694"><ele>243.4</ele><time>2026-04-11T13:25:13.999Z</time></trkpt><trkpt lat="45.05906382450998" lon="8.166003564908811"><ele>243.0</ele><time>2026-04-11T13:25:15.999Z</time></trkpt><trkpt lat="45.05898314203562" lon="8.165864753293944"><ele>243.66666666666666</ele><time>2026-04-11T13:25:17.999Z</time></trkpt><trkpt lat="45.05894211356223" lon="8.165772718392974"><ele>244.33333333333331</ele><time>2026-04-11T13:25:18.999Z</time></trkpt><trkpt lat="45.05887279872036" lon="8.165707493533127"><ele>245.0</ele><time>2026-04-11T13:25:19.999Z</time></trkpt><trkpt lat="45.05882221230004" lon="8.165606113850878"><ele>245.66666666666666</ele><time>2026-04-11T13:25:20.999Z</time></trkpt><trkpt lat="45.05874914269807" lon="8.165529118363985"><ele>246.33333333333331</ele><time>2026-04-11T13:25:21.999Z</time></trkpt><trkpt lat="45.0586919472363" lon="8.165441439303226"><ele>247.0</ele><time>2026-04-11T13:25:22.999Z</time></trkpt><trkpt lat="45.05865023392812" lon="8.16536634822683"><ele>247.2</ele><time>2026-04-11T13:25:23.999Z</time></trkpt><trkpt lat="45.0586007358117" lon="8.165299265682416"><ele>247.39999999999998</ele><time>2026-04-11T13:25:24.999Z</time></trkpt><trkpt lat="45.05851764963472" lon="8.165181465855763"><ele>247.60000000000002</ele><time>2026-04-11T13:25:26.999Z</time></trkpt><trkpt lat="45.05844885873153" lon="8.165077010574192"><ele>247.8</ele><time>2026-04-11T13:25:28.999Z</time></trkpt><trkpt lat="45.05838609660199" lon="8.1649856220408"><ele>248.0</ele><time>2026-04-11T13:25:30.999Z</time></trkpt><trkpt lat="45.058329085339885" lon="8.16491917914562"><ele>248.00000000000003</ele><time>2026-04-11T13:25:32.999Z</time></trkpt><trkpt lat="45.058260578292966" lon="8.164863141274195"><ele>248.0</ele><time>2026-04-11T13:25:35.999Z</time></trkpt><trkpt lat="45.058321511322816" lon="8.164926405317622"><ele>248.0</ele><time>2026-04-11T13:25:49.998Z</time></trkpt><trkpt lat="45.058401844931566" lon="8.164992541419213"><ele>248.0</ele><time>2026-04-11T13:25:51.998Z</time></trkpt><trkpt lat="45.05848821825741" lon="8.165111228572652"><ele>248.00000000000003</ele><time>2026-04-11T13:25:53.998Z</time></trkpt><trkpt lat="45.05853487186502" lon="8.165177216167425"><ele>248.0</ele><time>2026-04-11T13:25:54.998Z</time></trkpt><trkpt lat="45.05858183874055" lon="8.165247983745836"><ele>248.00000000000003</ele><time>2026-04-11T13:25:55.998Z</time></trkpt><trkpt lat="45.058626980665686" lon="8.16531588747794"><ele>248.0</ele><time>2026-04-11T13:25:56.998Z</time></trkpt><trkpt lat="45.058710401476674" lon="8.165441372013891"><ele>248.0</ele><time>2026-04-11T13:25:58.998Z</time></trkpt><trkpt lat="45.058793686142245" lon="8.165566653888408"><ele>248.0</ele><time>2026-04-11T13:26:00.998Z</time></trkpt><trkpt lat="45.05883782556462" lon="8.16563305009053"><ele>248.00000000000003</ele><time>2026-04-11T13:26:01.998Z</time></trkpt><trkpt lat="45.058881169993164" lon="8.165698249690747"><ele>248.0</ele><time>2026-04-11T13:26:02.998Z</time></trkpt><trkpt lat="45.058930553976396" lon="8.165756650869744"><ele>247.83333333333334</ele><time>2026-04-11T13:26:03.998Z</time></trkpt><trkpt lat="45.05897807612257" lon="8.165822682327752"><ele>247.66666666666669</ele><time>2026-04-11T13:26:04.998Z</time></trkpt><trkpt lat="45.05904874403848" lon="8.165934207503156"><ele>247.5</ele><time>2026-04-11T13:26:05.998Z</time></trkpt><trkpt lat="45.05909959798208" lon="8.166010922087123"><ele>247.33333333333331</ele><time>2026-04-11T13:26:06.999Z</time></trkpt><trkpt lat="45.059079149944104" lon="8.166172430698758"><ele>247.16666666666666</ele><time>2026-04-11T13:26:07.999Z</time></trkpt><trkpt lat="45.05911042528547" lon="8.166269532916557"><ele>247.0</ele><time>2026-04-11T13:26:08.999Z</time></trkpt><trkpt lat="45.059142464283944" lon="8.16636804164369"><ele>246.66666666666666</ele><time>2026-04-11T13:26:09.999Z</time></trkpt><trkpt lat="45.05917301022897" lon="8.16644922808649"><ele>246.33333333333331</ele><time>2026-04-11T13:26:10.999Z</time></trkpt><trkpt lat="45.05922536975286" lon="8.166586295236517"><ele>246.0</ele><time>2026-04-11T13:26:12.999Z</time></trkpt><trkpt lat="45.059276778438246" lon="8.166693419843225"><ele>245.66666666666669</ele><time>2026-04-11T13:26:14.999Z</time></trkpt><trkpt lat="45.059314452196325" lon="8.166776106817991"><ele>245.33333333333334</ele><time>2026-04-11T13:26:16.999Z</time></trkpt><trkpt lat="45.0593677747368" lon="8.16690224650393"><ele>245.0</ele><time>2026-04-11T13:26:18.999Z</time></trkpt><trkpt lat="45.059400485575196" lon="8.166986294023912"><ele>245.00000000000003</ele><time>2026-04-11T13:26:19.999Z</time></trkpt><trkpt lat="45.05944008401348" lon="8.167082060951998"><ele>245.0</ele><time>2026-04-11T13:26:20.999Z</time></trkpt><trkpt lat="45.059483201634976" lon="8.1671874999463"><ele>245.0</ele><time>2026-04-11T13:26:21.999Z</time></trkpt><trkpt lat="45.05952490992792" lon="8.167292926295044"><ele>245.0</ele><time>2026-04-11T13:26:22.999Z</time></trkpt><trkpt lat="45.05956612428235" lon="8.16738879902041"><ele>245.00000000000003</ele><time>2026-04-11T13:26:23.999Z</time></trkpt><trkpt lat="45.05960182048031" lon="8.167465143200467"><ele>245.0</ele><time>2026-04-11T13:26:24.999Z</time></trkpt><trkpt lat="45.05967317048834" lon="8.16754367037777"><ele>245.0</ele><time>2026-04-11T13:26:26.999Z</time></trkpt><trkpt lat="45.05974560873593" lon="8.167537150661403"><ele>245.0</ele><time>2026-04-11T13:26:28.999Z</time></trkpt><trkpt lat="45.059806069546845" lon="8.16746109052146"><ele>245.0</ele><time>2026-04-11T13:26:30.999Z</time></trkpt><trkpt lat="45.05983422625153" lon="8.16732967679343"><ele>245.0</ele><time>2026-04-11T13:26:32.999Z</time></trkpt><trkpt lat="45.05982967905953" lon="8.167189913943462"><ele>245.0</ele><time>2026-04-11T13:26:34.999Z</time></trkpt><trkpt lat="45.059794431711566" lon="8.167027816509949"><ele>245.0</ele><time>2026-04-11T13:26:36.999Z</time></trkpt><trkpt lat="45.05977514272366" lon="8.166941386280978"><ele>245.0</ele><time>2026-04-11T13:26:37.999Z</time></trkpt><trkpt lat="45.05975428652809" lon="8.166851328310024"><ele>245.0</ele><time>2026-04-11T13:26:38.999Z</time></trkpt><trkpt lat="45.059736482215" lon="8.166757797903335"><ele>245.0</ele><time>2026-04-11T13:26:39.999Z</time></trkpt><trkpt lat="45.05971797990468" lon="8.166662015679623"><ele>245.0</ele><time>2026-04-11T13:26:40.999Z</time></trkpt><trkpt lat="45.05969493402366" lon="8.166567757433084"><ele>245.0</ele><time>2026-04-11T13:26:41.999Z</time></trkpt><trkpt lat="45.05967549392041" lon="8.166461191960906"><ele>245.0</ele><time>2026-04-11T13:26:42.999Z</time></trkpt><trkpt lat="45.05965405360917" lon="8.166363082067443"><ele>244.66666666666669</ele><time>2026-04-11T13:26:43.999Z</time></trkpt><trkpt lat="45.05962682547541" lon="8.166272320393208"><ele>244.33333333333334</ele><time>2026-04-11T13:26:44.999Z</time></trkpt><trkpt lat="45.059596003420715" lon="8.16618276831173"><ele>244.0</ele><time>2026-04-11T13:26:45.999Z</time></trkpt><trkpt lat="45.05957237859715" lon="8.166090392042195"><ele>243.66666666666669</ele><time>2026-04-11T13:26:46.999Z</time></trkpt><trkpt lat="45.05952732968738" lon="8.165998156925319"><ele>243.33333333333334</ele><time>2026-04-11T13:26:47.999Z</time></trkpt><trkpt lat="45.05947689550632" lon="8.16588930854469"><ele>243.0</ele><time>2026-04-11T13:26:48.999Z</time></trkpt><trkpt lat="45.05941924350191" lon="8.165770314261799"><ele>241.0</ele><time>2026-04-11T13:26:49.999Z</time></trkpt><trkpt lat="45.059357971052854" lon="8.165641758321806"><ele>239.0</ele><time>2026-04-11T13:26:50.999Z</time></trkpt><trkpt lat="45.05929295199928" lon="8.16551111281776"><ele>237.0</ele><time>2026-04-11T13:26:51.999Z</time></trkpt><trkpt lat="45.059233549893634" lon="8.165367675197592"><ele>235.0</ele><time>2026-04-11T13:26:52.999Z</time></trkpt><trkpt lat="45.05916548737288" lon="8.165234309256213"><ele>235.6</ele><time>2026-04-11T13:26:53.999Z</time></trkpt><trkpt lat="45.059109831841795" lon="8.165098156422104"><ele>236.2</ele><time>2026-04-11T13:26:54.999Z</time></trkpt><trkpt lat="45.05904991903441" lon="8.164962659812312"><ele>236.8</ele><time>2026-04-11T13:26:55.999Z</time></trkpt><trkpt lat="45.05899275318904" lon="8.164825885706016"><ele>237.4</ele><time>2026-04-11T13:26:56.999Z</time></trkpt><trkpt lat="45.05897245036475" lon="8.164669383261566"><ele>238.0</ele><time>2026-04-11T13:26:57.999Z</time></trkpt><trkpt lat="45.05892513574039" lon="8.16453545872884"><ele>237.99999999999997</ele><time>2026-04-11T13:26:58.999Z</time></trkpt><trkpt lat="45.05886262667533" lon="8.164435557299562"><ele>238.0</ele><time>2026-04-11T13:26:59.999Z</time></trkpt><trkpt lat="45.05883904302832" lon="8.164338619775057"><ele>238.0</ele><time>2026-04-11T13:27:00.999Z</time></trkpt><trkpt lat="45.05885341640655" lon="8.164210188013335"><ele>238.0</ele><time>2026-04-11T13:27:02.999Z</time></trkpt><trkpt lat="45.058931415601776" lon="8.164128418410968"><ele>237.99999999999997</ele><time>2026-04-11T13:27:04.999Z</time></trkpt><trkpt lat="45.05899242696492" lon="8.164099004264271"><ele>238.0</ele><time>2026-04-11T13:27:05.999Z</time></trkpt><trkpt lat="45.05906437770598" lon="8.164118936817777"><ele>236.16666666666666</ele><time>2026-04-11T13:27:06.999Z</time></trkpt><trkpt lat="45.059125013943735" lon="8.164154694947872"><ele>234.33333333333331</ele><time>2026-04-11T13:27:07.999Z</time></trkpt><trkpt lat="45.059192202436144" lon="8.164200788821079"><ele>232.5</ele><time>2026-04-11T13:27:08.999Z</time></trkpt><trkpt lat="45.05926641426381" lon="8.164251844063074"><ele>230.66666666666669</ele><time>2026-04-11T13:27:09.999Z</time></trkpt><trkpt lat="45.05933813895388" lon="8.164305101261556"><ele>228.83333333333334</ele><time>2026-04-11T13:27:10.999Z</time></trkpt><trkpt lat="45.05941500090446" lon="8.164361109728649"><ele>227.0</ele><time>2026-04-11T13:27:11.999Z</time></trkpt><trkpt lat="45.059496091653784" lon="8.164421193256565"><ele>227.00000000000003</ele><time>2026-04-11T13:27:12.999Z</time></trkpt><trkpt lat="45.059578858293186" lon="8.164483565056422"><ele>227.0</ele><time>2026-04-11T13:27:13.999Z</time></trkpt><trkpt lat="45.059660367196855" lon="8.164547954779707"><ele>227.0</ele><time>2026-04-11T13:27:14.999Z</time></trkpt><trkpt lat="45.05973950185791" lon="8.164609063993094"><ele>227.0</ele><time>2026-04-11T13:27:15.999Z</time></trkpt><trkpt lat="45.0598141865273" lon="8.16466678538014"><ele>227.00000000000003</ele><time>2026-04-11T13:27:16.999Z</time></trkpt><trkpt lat="45.059887295010704" lon="8.164720551852115"><ele>227.0</ele><time>2026-04-11T13:27:17.999Z</time></trkpt><trkpt lat="45.05995312408119" lon="8.16477039961019"><ele>226.0</ele><time>2026-04-11T13:27:18.999Z</time></trkpt><trkpt lat="45.0600196914251" lon="8.164824485816803"><ele>225.0</ele><time>2026-04-11T13:27:19.999Z</time></trkpt><trkpt lat="45.06008259961402" lon="8.164875885131217"><ele>224.0</ele><time>2026-04-11T13:27:20.999Z</time></trkpt><trkpt lat="45.060163267339064" lon="8.164973971194579"><ele>223.0</ele><time>2026-04-11T13:27:22.999Z</time></trkpt><trkpt lat="45.060216322351515" lon="8.16502748725096"><ele>222.0</ele><time>2026-04-11T13:28:00.997Z</time></trkpt><trkpt lat="45.06022359659473" lon="8.164801127053995"><ele>222.71428571428572</ele><time>2026-04-11T13:30:03.998Z</time></trkpt><trkpt lat="45.06017860838805" lon="8.164731521736098"><ele>223.42857142857144</ele><time>2026-04-11T13:30:04.998Z</time></trkpt><trkpt lat="45.06012938582463" lon="8.164657921013388"><ele>224.14285714285717</ele><time>2026-04-11T13:30:05.998Z</time></trkpt><trkpt lat="45.06008067121561" lon="8.164588308132874"><ele>224.85714285714286</ele><time>2026-04-11T13:30:06.998Z</time></trkpt><trkpt lat="45.06003517620986" lon="8.16452262606686"><ele>225.5714285714286</ele><time>2026-04-11T13:30:07.998Z</time></trkpt><trkpt lat="45.05998513898009" lon="8.16444723574982"><ele>226.2857142857143</ele><time>2026-04-11T13:30:08.998Z</time></trkpt><trkpt lat="45.05993508105433" lon="8.16436932535735"><ele>227.0</ele><time>2026-04-11T13:30:09.998Z</time></trkpt><trkpt lat="45.059883748627136" lon="8.164287040857884"><ele>227.0</ele><time>2026-04-11T13:30:10.998Z</time></trkpt><trkpt lat="45.059832368413126" lon="8.16420105057201"><ele>227.00000000000003</ele><time>2026-04-11T13:30:11.999Z</time></trkpt><trkpt lat="45.05978637176681" lon="8.164118442616603"><ele>227.0</ele><time>2026-04-11T13:30:12.999Z</time></trkpt><trkpt lat="45.059742917730006" lon="8.164039419772724"><ele>227.0</ele><time>2026-04-11T13:30:13.999Z</time></trkpt><trkpt lat="45.059700295452544" lon="8.163961434771174"><ele>227.00000000000003</ele><time>2026-04-11T13:30:14.999Z</time></trkpt><trkpt lat="45.059659268169305" lon="8.163887215714052"><ele>227.0</ele><time>2026-04-11T13:30:15.999Z</time></trkpt><trkpt lat="45.05960719340163" lon="8.16383114803553"><ele>227.0</ele><time>2026-04-11T13:30:16.999Z</time></trkpt><trkpt lat="45.05953964163304" lon="8.163691131197876"><ele>224.25</ele><time>2026-04-11T13:30:18.999Z</time></trkpt><trkpt lat="45.05949813482583" lon="8.163579764445814"><ele>221.5</ele><time>2026-04-11T13:30:20.999Z</time></trkpt><trkpt lat="45.059466675503465" lon="8.16370134441739"><ele>218.75</ele><time>2026-04-11T13:30:50Z</time></trkpt><trkpt lat="45.0596269071531" lon="8.163897329616889"><ele>216.0</ele><time>2026-04-11T13:30:51Z</time></trkpt><trkpt lat="45.05967799848717" lon="8.16399771924382"><ele>215.8</ele><time>2026-04-11T13:30:52Z</time></trkpt><trkpt lat="45.05973433708884" lon="8.164103575816819"><ele>215.60000000000002</ele><time>2026-04-11T13:30:53Z</time></trkpt><trkpt lat="45.059797011526086" lon="8.164218146067148"><ele>215.4</ele><time>2026-04-11T13:30:54Z</time></trkpt><trkpt lat="45.05986780091557" lon="8.16433561524805"><ele>215.2</ele><time>2026-04-11T13:30:55Z</time></trkpt><trkpt lat="45.05994192142117" lon="8.164441688909072"><ele>215.0</ele><time>2026-04-11T13:30:56Z</time></trkpt><trkpt lat="45.06001356345352" lon="8.164541574731556"><ele>215.00000000000003</ele><time>2026-04-11T13:30:57Z</time></trkpt><trkpt lat="45.06007295594783" lon="8.164627538229345"><ele>215.0</ele><time>2026-04-11T13:30:58Z</time></trkpt><trkpt lat="45.060124435990836" lon="8.164697797008339"><ele>215.0</ele><time>2026-04-11T13:30:59Z</time></trkpt><trkpt lat="45.06019777351437" lon="8.164812713536888"><ele>215.0</ele><time>2026-04-11T13:31:01Z</time></trkpt><trkpt lat="45.06024501290631" lon="8.164912433261195"><ele>215.00000000000003</ele><time>2026-04-11T13:31:03Z</time></trkpt><trkpt lat="45.060200804354565" lon="8.165002493381557"><ele>215.0</ele><time>2026-04-11T13:31:15Z</time></trkpt><trkpt lat="45.060118911013234" lon="8.1649160130997"><ele>215.00000000000003</ele><time>2026-04-11T13:31:18Z</time></trkpt><trkpt lat="45.06003860371572" lon="8.16480917886701"><ele>215.0</ele><time>2026-04-11T13:31:19Z</time></trkpt><trkpt lat="45.05996692700603" lon="8.16474086835277"><ele>215.0</ele><time>2026-04-11T13:31:20Z</time></trkpt><trkpt lat="45.059901217290516" lon="8.164690406737213"><ele>215.0</ele><time>2026-04-11T13:31:21Z</time></trkpt><trkpt lat="45.05983840217059" lon="8.164649215746241"><ele>215.00000000000003</ele><time>2026-04-11T13:31:22Z</time></trkpt><trkpt lat="45.05976604789032" lon="8.164596394246011"><ele>215.0</ele><time>2026-04-11T13:31:23Z</time></trkpt><trkpt lat="45.059685396694704" lon="8.164533274312857"><ele>217.4</ele><time>2026-04-11T13:31:24Z</time></trkpt><trkpt lat="45.05960301366247" lon="8.16446883832641"><ele>219.8</ele><time>2026-04-11T13:31:25.001Z</time></trkpt><trkpt lat="45.059516669190614" lon="8.164404975447738"><ele>222.2</ele><time>2026-04-11T13:31:26.001Z</time></trkpt><trkpt lat="45.05942528188337" lon="8.164333717389276"><ele>224.6</ele><time>2026-04-11T13:31:27.001Z</time></trkpt><trkpt lat="45.05933462104995" lon="8.164263664763052"><ele>227.0</ele><time>2026-04-11T13:31:28.001Z</time></trkpt><trkpt lat="45.059241196055716" lon="8.164198825463009"><ele>227.00000000000003</ele><time>2026-04-11T13:31:29.001Z</time></trkpt><trkpt lat="45.05915621588226" lon="8.16413386335866"><ele>227.0</ele><time>2026-04-11T13:31:30.001Z</time></trkpt><trkpt lat="45.059077408106845" lon="8.164084311248404"><ele>227.0</ele><time>2026-04-11T13:31:31.001Z</time></trkpt><trkpt lat="45.059013614864284" lon="8.164062933837963"><ele>227.0</ele><time>2026-04-11T13:31:32.001Z</time></trkpt><trkpt lat="45.05891673188533" lon="8.16407787639054"><ele>227.00000000000003</ele><time>2026-04-11T13:31:34.001Z</time></trkpt><trkpt lat="45.05885788059686" lon="8.16411211337502"><ele>227.0</ele><time>2026-04-11T13:31:36.001Z</time></trkpt><trkpt lat="45.05880585260328" lon="8.164200452382154"><ele>228.83333333333334</ele><time>2026-04-11T13:31:44.001Z</time></trkpt><trkpt lat="45.05879078001326" lon="8.164287806402136"><ele>230.66666666666669</ele><time>2026-04-11T13:31:45.001Z</time></trkpt><trkpt lat="45.05879506288676" lon="8.164391926790579"><ele>232.5</ele><time>2026-04-11T13:31:46.001Z</time></trkpt><trkpt lat="45.05886605757457" lon="8.164541907020613"><ele>234.33333333333331</ele><time>2026-04-11T13:31:48.001Z</time></trkpt><trkpt lat="45.058911809477905" lon="8.164646631583343"><ele>236.16666666666666</ele><time>2026-04-11T13:31:49.001Z</time></trkpt><trkpt lat="45.058922484854854" lon="8.164768121160408"><ele>238.0</ele><time>2026-04-11T13:31:50.001Z</time></trkpt><trkpt lat="45.05896909387721" lon="8.164870890647236"><ele>237.4</ele><time>2026-04-11T13:31:51.001Z</time></trkpt><trkpt lat="45.05901933957727" lon="8.164977853458408"><ele>236.8</ele><time>2026-04-11T13:31:52.001Z</time></trkpt><trkpt lat="45.05907066415631" lon="8.165087761599219"><ele>236.2</ele><time>2026-04-11T13:31:53.001Z</time></trkpt><trkpt lat="45.0591212234001" lon="8.165197284789741"><ele>235.6</ele><time>2026-04-11T13:31:54.001Z</time></trkpt><trkpt lat="45.05917229688228" lon="8.165307395808885"><ele>235.0</ele><time>2026-04-11T13:31:55.001Z</time></trkpt><trkpt lat="45.05922286750604" lon="8.165416895343117"><ele>235.0</ele><time>2026-04-11T13:31:56.001Z</time></trkpt><trkpt lat="45.05927731783027" lon="8.165531996402102"><ele>235.0</ele><time>2026-04-11T13:31:57.001Z</time></trkpt><trkpt lat="45.05933508815662" lon="8.16565613098398"><ele>235.0</ele><time>2026-04-11T13:31:57.999Z</time></trkpt><trkpt lat="45.05939418070061" lon="8.165780682289993"><ele>235.0</ele><time>2026-04-11T13:31:58.999Z</time></trkpt><trkpt lat="45.059450802322004" lon="8.165901731411923"><ele>235.0</ele><time>2026-04-11T13:31:59.999Z</time></trkpt><trkpt lat="45.05949664376824" lon="8.166010972305664"><ele>236.6</ele><time>2026-04-11T13:32:00.999Z</time></trkpt><trkpt lat="45.059543481673714" lon="8.166127662709325"><ele>238.2</ele><time>2026-04-11T13:32:01.999Z</time></trkpt><trkpt lat="45.05958071217605" lon="8.166241226347166"><ele>239.8</ele><time>2026-04-11T13:32:02.999Z</time></trkpt><trkpt lat="45.059619670945715" lon="8.166364471671868"><ele>241.4</ele><time>2026-04-11T13:32:03.999Z</time></trkpt><trkpt lat="45.05964834607609" lon="8.166498110355516"><ele>243.0</ele><time>2026-04-11T13:32:04.999Z</time></trkpt><trkpt lat="45.05967669673877" lon="8.166638434152748"><ele>243.4</ele><time>2026-04-11T13:32:05.999Z</time></trkpt><trkpt lat="45.05970454432914" lon="8.166780959290099"><ele>243.8</ele><time>2026-04-11T13:32:06.999Z</time></trkpt><trkpt lat="45.059733237667" lon="8.166919639570002"><ele>244.2</ele><time>2026-04-11T13:32:07.999Z</time></trkpt><trkpt lat="45.059761957387146" lon="8.167047858483787"><ele>244.6</ele><time>2026-04-11T13:32:08.999Z</time></trkpt><trkpt lat="45.05978797003585" lon="8.16716343851474"><ele>245.0</ele><time>2026-04-11T13:32:09.999Z</time></trkpt><trkpt lat="45.059805389898756" lon="8.167278788606431"><ele>245.0</ele><time>2026-04-11T13:32:10.999Z</time></trkpt><trkpt lat="45.05977920219696" lon="8.167432668010424"><ele>245.0</ele><time>2026-04-11T13:32:12.999Z</time></trkpt><trkpt lat="45.05968540278542" lon="8.167507435003568"><ele>245.0</ele><time>2026-04-11T13:32:14.999Z</time></trkpt><trkpt lat="45.05958947644071" lon="8.167465400282255"><ele>245.0</ele><time>2026-04-11T13:32:16.999Z</time></trkpt><trkpt lat="45.05955605389123" lon="8.167291085173634"><ele>245.0</ele><time>2026-04-11T13:32:18.999Z</time></trkpt><trkpt lat="45.05950874564717" lon="8.16720322150976"><ele>245.0</ele><time>2026-04-11T13:32:19.999Z</time></trkpt><trkpt lat="45.05946513472806" lon="8.167094295668376"><ele>245.0</ele><time>2026-04-11T13:32:20.999Z</time></trkpt><trkpt lat="45.05941558837813" lon="8.166978345421844"><ele>245.0</ele><time>2026-04-11T13:32:21.999Z</time></trkpt><trkpt lat="45.05936650001984" lon="8.16685200725451"><ele>245.0</ele><time>2026-04-11T13:32:22.999Z</time></trkpt><trkpt lat="45.059312658008366" lon="8.16671800641023"><ele>245.0</ele><time>2026-04-11T13:32:23.999Z</time></trkpt><trkpt lat="45.05926072750806" lon="8.166579248609862"><ele>244.6</ele><time>2026-04-11T13:32:24.999Z</time></trkpt><trkpt lat="45.05921157769481" lon="8.166438231386604"><ele>244.2</ele><time>2026-04-11T13:32:26Z</time></trkpt><trkpt lat="45.05916805331114" lon="8.166294831410033"><ele>243.8</ele><time>2026-04-11T13:32:27Z</time></trkpt><trkpt lat="45.059120119101074" lon="8.166156902102033"><ele>243.4</ele><time>2026-04-11T13:32:28Z</time></trkpt><trkpt lat="45.05907401633862" lon="8.166020893961196"><ele>243.0</ele><time>2026-04-11T13:32:29Z</time></trkpt><trkpt lat="45.059028454752244" lon="8.165889489121229"><ele>244.0</ele><time>2026-04-11T13:32:30Z</time></trkpt><trkpt lat="45.05894864368903" lon="8.16578285645273"><ele>245.0</ele><time>2026-04-11T13:32:31Z</time></trkpt><trkpt lat="45.05886012118757" lon="8.165672344878118"><ele>246.0</ele><time>2026-04-11T13:32:32Z</time></trkpt><trkpt lat="45.058771925468484" lon="8.165553385089979"><ele>247.0</ele><time>2026-04-11T13:32:33Z</time></trkpt><trkpt lat="45.058689453455855" lon="8.165429206322253"><ele>247.25</ele><time>2026-04-11T13:32:34Z</time></trkpt><trkpt lat="45.05860589643254" lon="8.165300643319458"><ele>247.5</ele><time>2026-04-11T13:32:35Z</time></trkpt><trkpt lat="45.05852146235103" lon="8.165175669688708"><ele>247.75</ele><time>2026-04-11T13:32:36Z</time></trkpt><trkpt lat="45.05843914025642" lon="8.165063937350677"><ele>248.0</ele><time>2026-04-11T13:32:37Z</time></trkpt><trkpt lat="45.05836898026596" lon="8.164962742122588"><ele>248.0</ele><time>2026-04-11T13:32:38Z</time></trkpt><trkpt lat="45.058281099199625" lon="8.164874399893872"><ele>248.0</ele><time>2026-04-11T13:32:39Z</time></trkpt><trkpt lat="45.05817712720433" lon="8.164800028614835"><ele>248.0</ele><time>2026-04-11T13:32:40Z</time></trkpt><trkpt lat="45.05806086009131" lon="8.1647347060395"><ele>248.0</ele><time>2026-04-11T13:32:41Z</time></trkpt><trkpt lat="45.057946603508206" lon="8.164676861438071"><ele>248.0</ele><time>2026-04-11T13:32:42Z</time></trkpt><trkpt lat="45.05784781445439" lon="8.164624507822548"><ele>248.0</ele><time>2026-04-11T13:32:43Z</time></trkpt><trkpt lat="45.05776270154905" lon="8.164564804706167"><ele>248.0</ele><time>2026-04-11T13:32:44Z</time></trkpt><trkpt lat="45.05769343216551" lon="8.164462886811455"><ele>248.0</ele><time>2026-04-11T13:32:45Z</time></trkpt><trkpt lat="45.05760747762537" lon="8.164359609256438"><ele>248.0</ele><time>2026-04-11T13:32:46Z</time></trkpt><trkpt lat="45.057507475388846" lon="8.164268575218289"><ele>248.25</ele><time>2026-04-11T13:32:47Z</time></trkpt><trkpt lat="45.05742010180245" lon="8.16413867606201"><ele>248.5</ele><time>2026-04-11T13:32:48Z</time></trkpt><trkpt lat="45.057317070824794" lon="8.164032284600108"><ele>248.75</ele><time>2026-04-11T13:32:49Z</time></trkpt><trkpt lat="45.0572206797559" lon="8.16392613573025"><ele>249.0</ele><time>2026-04-11T13:32:50Z</time></trkpt><trkpt lat="45.057123839692366" lon="8.163816231275407"><ele>249.0</ele><time>2026-04-11T13:32:51Z</time></trkpt><trkpt lat="45.05703075072138" lon="8.163714732212862"><ele>248.99999999999997</ele><time>2026-04-11T13:32:52Z</time></trkpt><trkpt lat="45.05694576886404" lon="8.163621568392253"><ele>248.99999999999997</ele><time>2026-04-11T13:32:53Z</time></trkpt><trkpt lat="45.056871012361235" lon="8.16353979104362"><ele>249.0</ele><time>2026-04-11T13:32:54Z</time></trkpt><trkpt lat="45.0567979200331" lon="8.16346406030663"><ele>249.0</ele><time>2026-04-11T13:32:55Z</time></trkpt><trkpt lat="45.056728489715546" lon="8.163385903635714"><ele>249.0</ele><time>2026-04-11T13:32:56Z</time></trkpt><trkpt lat="45.056666788449824" lon="8.163307635902445"><ele>249.0</ele><time>2026-04-11T13:32:57Z</time></trkpt><trkpt lat="45.05661595510671" lon="8.163239614429877"><ele>249.0</ele><time>2026-04-11T13:32:58Z</time></trkpt><trkpt lat="45.056570135660046" lon="8.163178192820622"><ele>249.0</ele><time>2026-04-11T13:32:59Z</time></trkpt><trkpt lat="45.05651075324765" lon="8.163102173322224"><ele>249.0</ele><time>2026-04-11T13:33:01Z</time></trkpt><trkpt lat="45.05658528127588" lon="8.162917249040744"><ele>249.0</ele><time>2026-04-11T13:33:05.001Z</time></trkpt><trkpt lat="45.05663306047037" lon="8.162853522114975"><ele>248.5</ele><time>2026-04-11T13:33:06.001Z</time></trkpt><trkpt lat="45.05668475499645" lon="8.162784597628324"><ele>248.0</ele><time>2026-04-11T13:33:07.001Z</time></trkpt><trkpt lat="45.05673233776804" lon="8.162705881803479"><ele>247.5</ele><time>2026-04-11T13:33:08.001Z</time></trkpt><trkpt lat="45.056799217387784" lon="8.162675002949424"><ele>247.0</ele><time>2026-04-11T13:33:09.001Z</time></trkpt><trkpt lat="45.05685032442962" lon="8.162612286713827"><ele>246.5</ele><time>2026-04-11T13:33:10.001Z</time></trkpt><trkpt lat="45.056949574833055" lon="8.162546942907655"><ele>246.0</ele><time>2026-04-11T13:33:12.001Z</time></trkpt><trkpt lat="45.057016518980255" lon="8.162514682345671"><ele>246.0</ele><time>2026-04-11T13:33:14.001Z</time></trkpt><trkpt lat="45.057078643639095" lon="8.162469175425027"><ele>246.0</ele><time>2026-04-11T13:33:40.001Z</time></trkpt><trkpt lat="45.05714833236969" lon="8.162418127311183"><ele>246.0</ele><time>2026-04-11T13:33:43.001Z</time></trkpt><trkpt lat="45.05721659419782" lon="8.162386961433775"><ele>246.0</ele><time>2026-04-11T13:33:45.001Z</time></trkpt><trkpt lat="45.05732090320781" lon="8.162378389111739"><ele>246.0</ele><time>2026-04-11T13:33:47.001Z</time></trkpt><trkpt lat="45.057409465039335" lon="8.162385089978573"><ele>246.0</ele><time>2026-04-11T13:33:49.002Z</time></trkpt><trkpt lat="45.05747607227597" lon="8.162422224788427"><ele>244.4</ele><time>2026-04-11T13:33:51.002Z</time></trkpt><trkpt lat="45.05754041673267" lon="8.162501138823439"><ele>242.8</ele><time>2026-04-11T13:33:54.002Z</time></trkpt><trkpt lat="45.057579536709945" lon="8.162599811008404"><ele>241.20000000000002</ele><time>2026-04-11T13:33:56.002Z</time></trkpt><trkpt lat="45.05762890468754" lon="8.162695009180858"><ele>239.60000000000002</ele><time>2026-04-11T13:33:58.002Z</time></trkpt><trkpt lat="45.05768893044122" lon="8.162820347920256"><ele>238.0</ele><time>2026-04-11T13:34:00.002Z</time></trkpt><trkpt lat="45.05773839837656" lon="8.162937042625762"><ele>238.0</ele><time>2026-04-11T13:34:02.002Z</time></trkpt><trkpt lat="45.057796637782744" lon="8.163018358543502"><ele>238.0</ele><time>2026-04-11T13:34:03.998Z</time></trkpt><trkpt lat="45.057877619075114" lon="8.16308468220432"><ele>238.0</ele><time>2026-04-11T13:34:06.998Z</time></trkpt><trkpt lat="45.057957333083195" lon="8.163151617187411"><ele>238.0</ele><time>2026-04-11T13:34:08.998Z</time></trkpt><trkpt lat="45.058049582248344" lon="8.163217733270361"><ele>238.0</ele><time>2026-04-11T13:34:10.998Z</time></trkpt><trkpt lat="45.05813143484351" lon="8.163275436483758"><ele>238.8</ele><time>2026-04-11T13:34:12.998Z</time></trkpt><trkpt lat="45.058235555512944" lon="8.163356138058427"><ele>239.60000000000002</ele><time>2026-04-11T13:34:14.998Z</time></trkpt><trkpt lat="45.058329829187954" lon="8.163429517317194"><ele>240.39999999999998</ele><time>2026-04-11T13:34:16.998Z</time></trkpt><trkpt lat="45.058427169935634" lon="8.1635044057607"><ele>241.2</ele><time>2026-04-11T13:34:18.998Z</time></trkpt><trkpt lat="45.05852742615903" lon="8.163576353908185"><ele>242.0</ele><time>2026-04-11T13:34:20.999Z</time></trkpt><trkpt lat="45.058585937297096" lon="8.16361883241795"><ele>241.33333333333334</ele><time>2026-04-11T13:34:21.999Z</time></trkpt><trkpt lat="45.05864254324791" lon="8.1636665827723"><ele>240.66666666666669</ele><time>2026-04-11T13:34:22.999Z</time></trkpt><trkpt lat="45.05870610706309" lon="8.163712109077553"><ele>240.0</ele><time>2026-04-11T13:34:23.999Z</time></trkpt><trkpt lat="45.05876711446983" lon="8.16375577652351"><ele>239.33333333333331</ele><time>2026-04-11T13:34:24.999Z</time></trkpt><trkpt lat="45.0588715920826" lon="8.163816819426808"><ele>238.66666666666666</ele><time>2026-04-11T13:34:26.999Z</time></trkpt><trkpt lat="45.05896579981735" lon="8.163868884370698"><ele>238.0</ele><time>2026-04-11T13:34:28.999Z</time></trkpt><trkpt lat="45.05896547037358" lon="8.164092756896846"><ele>238.0</ele><time>2026-04-11T13:34:29.999Z</time></trkpt><trkpt lat="45.059043229308365" lon="8.16412414311591"><ele>238.0</ele><time>2026-04-11T13:34:31.999Z</time></trkpt><trkpt lat="45.05914067061627" lon="8.164170486101149"><ele>238.0</ele><time>2026-04-11T13:34:34.999Z</time></trkpt><trkpt lat="45.05931302197053" lon="8.163810084931697"><ele>234.33333333333331</ele><time>2026-04-11T13:34:39.999Z</time></trkpt><trkpt lat="45.05936798854441" lon="8.163699201830356"><ele>230.66666666666666</ele><time>2026-04-11T13:34:41.999Z</time></trkpt><trkpt lat="45.05941429685351" lon="8.163608585718972"><ele>227.0</ele><time>2026-04-11T13:34:43.999Z</time></trkpt><trkpt lat="45.059452631992144" lon="8.163525816096968"><ele>223.33333333333331</ele><time>2026-04-11T13:34:45.999Z</time></trkpt><trkpt lat="45.05948432118864" lon="8.163443226973973"><ele>219.66666666666666</ele><time>2026-04-11T13:34:47.999Z</time></trkpt><trkpt lat="45.059548065488585" lon="8.163326711379755"><ele>216.0</ele><time>2026-04-11T13:34:50Z</time></trkpt><trkpt lat="45.05959193807867" lon="8.163245852016303"><ele>214.20000000000002</ele><time>2026-04-11T13:34:52Z</time></trkpt><trkpt lat="45.05967449959717" lon="8.163140479196546"><ele>212.40000000000003</ele><time>2026-04-11T13:36:03.002Z</time></trkpt><trkpt lat="45.05973864001245" lon="8.163008023659335"><ele>210.6</ele><time>2026-04-11T13:36:05.002Z</time></trkpt><trkpt lat="45.05977425252709" lon="8.162929391594863"><ele>208.8</ele><time>2026-04-11T13:36:06.002Z</time></trkpt><trkpt lat="45.05981163067931" lon="8.162835868892895"><ele>207.0</ele><time>2026-04-11T13:36:07.002Z</time></trkpt><trkpt lat="45.05984388154137" lon="8.162726911848646"><ele>207.0</ele><time>2026-04-11T13:36:08.002Z</time></trkpt><trkpt lat="45.059872209328766" lon="8.162615389595262"><ele>207.0</ele><time>2026-04-11T13:36:09.002Z</time></trkpt><trkpt lat="45.05989898984079" lon="8.162499795306363"><ele>207.0</ele><time>2026-04-11T13:36:09.997Z</time></trkpt><trkpt lat="45.05992687203543" lon="8.162375912688344"><ele>207.0</ele><time>2026-04-11T13:36:10.997Z</time></trkpt><trkpt lat="45.05994980261304" lon="8.162255185812505"><ele>207.0</ele><time>2026-04-11T13:36:11.998Z</time></trkpt><trkpt lat="45.05996448385588" lon="8.16214362040589"><ele>207.0</ele><time>2026-04-11T13:36:12.998Z</time></trkpt><trkpt lat="45.05996604617998" lon="8.162018783275533"><ele>207.0</ele><time>2026-04-11T13:36:13.998Z</time></trkpt><trkpt lat="45.059953021761714" lon="8.161889084248726"><ele>207.0</ele><time>2026-04-11T13:36:14.998Z</time></trkpt><trkpt lat="45.059898210627374" lon="8.161778815365247"><ele>207.0</ele><time>2026-04-11T13:36:15.998Z</time></trkpt><trkpt lat="45.059842187708654" lon="8.161673446078982"><ele>207.0</ele><time>2026-04-11T13:36:16.998Z</time></trkpt><trkpt lat="45.0597729992399" lon="8.161572092906416"><ele>207.0</ele><time>2026-04-11T13:36:17.998Z</time></trkpt><trkpt lat="45.05970294817484" lon="8.16146827969608"><ele>207.0</ele><time>2026-04-11T13:36:18.998Z</time></trkpt><trkpt lat="45.059648380666346" lon="8.161331562697077"><ele>207.0</ele><time>2026-04-11T13:36:19.998Z</time></trkpt><trkpt lat="45.05958723447797" lon="8.161190918090663"><ele>207.0</ele><time>2026-04-11T13:36:20.998Z</time></trkpt><trkpt lat="45.05953528083057" lon="8.16104539135271"><ele>207.0</ele><time>2026-04-11T13:36:21.998Z</time></trkpt><trkpt lat="45.059487782117806" lon="8.160890923620533"><ele>207.0</ele><time>2026-04-11T13:36:22.998Z</time></trkpt><trkpt lat="45.05942160723768" lon="8.160720493582685"><ele>207.0</ele><time>2026-04-11T13:36:23.998Z</time></trkpt><trkpt lat="45.05936388339641" lon="8.160514613981633"><ele>207.0</ele><time>2026-04-11T13:36:24.998Z</time></trkpt><trkpt lat="45.05930751913018" lon="8.16031026079734"><ele>207.0</ele><time>2026-04-11T13:36:25.999Z</time></trkpt><trkpt lat="45.059253834085446" lon="8.160130928547325"><ele>206.75</ele><time>2026-04-11T13:36:26.999Z</time></trkpt><trkpt lat="45.0592107355609" lon="8.15996359983766"><ele>206.5</ele><time>2026-04-11T13:36:27.999Z</time></trkpt><trkpt lat="45.059161645094925" lon="8.159799023196623"><ele>206.25</ele><time>2026-04-11T13:36:28.999Z</time></trkpt><trkpt lat="45.059117412560745" lon="8.159629015969232"><ele>206.0</ele><time>2026-04-11T13:36:29.999Z</time></trkpt><trkpt lat="45.05908181657566" lon="8.159456907316406"><ele>205.60000000000002</ele><time>2026-04-11T13:36:30.999Z</time></trkpt><trkpt lat="45.0590603096759" lon="8.15929183534249"><ele>205.2</ele><time>2026-04-11T13:36:31.999Z</time></trkpt><trkpt lat="45.0590459353129" lon="8.159131753244445"><ele>204.8</ele><time>2026-04-11T13:36:32.999Z</time></trkpt><trkpt lat="45.05903801664556" lon="8.158983006343263"><ele>204.39999999999998</ele><time>2026-04-11T13:36:33.999Z</time></trkpt><trkpt lat="45.059033241741425" lon="8.158840978039873"><ele>204.0</ele><time>2026-04-11T13:36:34.999Z</time></trkpt><trkpt lat="45.05902915154065" lon="8.158704072983415"><ele>203.6</ele><time>2026-04-11T13:36:35.999Z</time></trkpt><trkpt lat="45.059026146168584" lon="8.158572458394238"><ele>203.2</ele><time>2026-04-11T13:36:36.999Z</time></trkpt><trkpt lat="45.059024934659135" lon="8.158459278896895"><ele>202.79999999999998</ele><time>2026-04-11T13:36:37.999Z</time></trkpt><trkpt lat="45.05904380828784" lon="8.158309060053401"><ele>202.39999999999998</ele><time>2026-04-11T13:36:39.999Z</time></trkpt><trkpt lat="45.05889728967522" lon="8.158220536483936"><ele>202.0</ele><time>2026-04-11T13:36:59Z</time></trkpt><trkpt lat="45.05881686450714" lon="8.158215189732111"><ele>201.99999999999997</ele><time>2026-04-11T13:37:00Z</time></trkpt><trkpt lat="45.0587329597472" lon="8.158203937962082"><ele>202.0</ele><time>2026-04-11T13:37:01Z</time></trkpt><trkpt lat="45.05865193656754" lon="8.158191725056554"><ele>202.0</ele><time>2026-04-11T13:37:02Z</time></trkpt><trkpt lat="45.05855904438943" lon="8.158173209111975"><ele>202.0</ele><time>2026-04-11T13:37:03Z</time></trkpt><trkpt lat="45.05846936638278" lon="8.158149596760833"><ele>201.99999999999997</ele><time>2026-04-11T13:37:04Z</time></trkpt><trkpt lat="45.058400845648436" lon="8.158096413683618"><ele>202.0</ele><time>2026-04-11T13:37:05.001Z</time></trkpt><trkpt lat="45.058331058635105" lon="8.15797168954208"><ele>202.0</ele><time>2026-04-11T13:37:07.001Z</time></trkpt><trkpt lat="45.05831764298875" lon="8.15787645240782"><ele>202.0</ele><time>2026-04-11T13:37:08.001Z</time></trkpt><trkpt lat="45.058298849288924" lon="8.157744732828368"><ele>202.0</ele><time>2026-04-11T13:37:09.001Z</time></trkpt><trkpt lat="45.05828677942341" lon="8.157576026933173"><ele>202.0</ele><time>2026-04-11T13:37:10.001Z</time></trkpt><trkpt lat="45.058247376874455" lon="8.157422558701668"><ele>202.0</ele><time>2026-04-11T13:37:11.001Z</time></trkpt><trkpt lat="45.05822563489037" lon="8.157298361910208"><ele>202.33333333333331</ele><time>2026-04-11T13:37:12.001Z</time></trkpt><trkpt lat="45.05819031408588" lon="8.157204580955536"><ele>202.66666666666666</ele><time>2026-04-11T13:37:13.001Z</time></trkpt><trkpt lat="45.058129148125516" lon="8.15712442747356"><ele>203.0</ele><time>2026-04-11T13:37:14.001Z</time></trkpt><trkpt lat="45.0581057951443" lon="8.15701395879386"><ele>203.33333333333331</ele><time>2026-04-11T13:37:15.001Z</time></trkpt><trkpt lat="45.05807676962124" lon="8.156931335747462"><ele>203.66666666666666</ele><time>2026-04-11T13:37:16.001Z</time></trkpt><trkpt lat="45.0580409194296" lon="8.156825874199274"><ele>204.0</ele><time>2026-04-11T13:37:18.001Z</time></trkpt><trkpt lat="45.058005196609344" lon="8.156685879107346"><ele>204.0</ele><time>2026-04-11T13:37:20.001Z</time></trkpt><trkpt lat="45.05795243268515" lon="8.15654343030759"><ele>204.0</ele><time>2026-04-11T13:37:22.001Z</time></trkpt><trkpt lat="45.057915789337876" lon="8.156459859503839"><ele>204.0</ele><time>2026-04-11T13:37:23.001Z</time></trkpt><trkpt lat="45.05787834201874" lon="8.156369083839456"><ele>204.0</ele><time>2026-04-11T13:37:24.001Z</time></trkpt><trkpt lat="45.05783270927394" lon="8.156258464986404"><ele>204.0</ele><time>2026-04-11T13:37:25.001Z</time></trkpt><trkpt lat="45.05777560400516" lon="8.15612003545922"><ele>203.33333333333331</ele><time>2026-04-11T13:37:26.001Z</time></trkpt><trkpt lat="45.05748301595985" lon="8.15617826336946"><ele>202.66666666666666</ele><time>2026-04-11T13:37:27.001Z</time></trkpt><trkpt lat="45.05740622817071" lon="8.156099317869009"><ele>202.0</ele><time>2026-04-11T13:37:28.001Z</time></trkpt><trkpt lat="45.05734855078356" lon="8.15604342089076"><ele>202.0</ele><time>2026-04-11T13:37:29.001Z</time></trkpt><trkpt lat="45.05722627728121" lon="8.1559790239024"><ele>202.0</ele><time>2026-04-11T13:37:31.001Z</time></trkpt><trkpt lat="45.057138646837195" lon="8.15596121292249"><ele>202.0</ele><time>2026-04-11T13:37:32.001Z</time></trkpt><trkpt lat="45.05704412907817" lon="8.155939975594356"><ele>202.0</ele><time>2026-04-11T13:37:33.001Z</time></trkpt><trkpt lat="45.056935168051275" lon="8.155930195200346"><ele>202.0</ele><time>2026-04-11T13:37:34.001Z</time></trkpt><trkpt lat="45.05682254401205" lon="8.155918459261168"><ele>202.0</ele><time>2026-04-11T13:37:35.001Z</time></trkpt><trkpt lat="45.056720197661505" lon="8.155913709458114"><ele>202.0</ele><time>2026-04-11T13:37:36.002Z</time></trkpt><trkpt lat="45.05663036927577" lon="8.155906902666961"><ele>202.0</ele><time>2026-04-11T13:37:37.002Z</time></trkpt><trkpt lat="45.05654968309359" lon="8.1558922463493"><ele>202.0</ele><time>2026-04-11T13:37:38.002Z</time></trkpt><trkpt lat="45.05645912461627" lon="8.155889449679135"><ele>202.0</ele><time>2026-04-11T13:37:39.002Z</time></trkpt><trkpt lat="45.05636036785575" lon="8.155895318650614"><ele>202.39999999999998</ele><time>2026-04-11T13:37:40.002Z</time></trkpt><trkpt lat="45.05626995227088" lon="8.155893821200127"><ele>202.79999999999998</ele><time>2026-04-11T13:37:41.002Z</time></trkpt><trkpt lat="45.05617381718744" lon="8.155899305582015"><ele>203.2</ele><time>2026-04-11T13:37:42.002Z</time></trkpt><trkpt lat="45.05607763163522" lon="8.155891909302632"><ele>203.6</ele><time>2026-04-11T13:37:43.002Z</time></trkpt><trkpt lat="45.05598340091508" lon="8.155865361165734"><ele>204.0</ele><time>2026-04-11T13:37:44.002Z</time></trkpt><trkpt lat="45.0558941305526" lon="8.155852419948795"><ele>204.0</ele><time>2026-04-11T13:37:45.002Z</time></trkpt><trkpt lat="45.05579648347235" lon="8.155825102081813"><ele>204.0</ele><time>2026-04-11T13:37:46.002Z</time></trkpt><trkpt lat="45.055681884501645" lon="8.155781245260819"><ele>204.0</ele><time>2026-04-11T13:37:47.002Z</time></trkpt><trkpt lat="45.05557560765789" lon="8.155751301273304"><ele>204.0</ele><time>2026-04-11T13:37:48.002Z</time></trkpt><trkpt lat="45.05550863723441" lon="8.155717686425756"><ele>204.0</ele><time>2026-04-11T13:37:49.002Z</time></trkpt><trkpt lat="45.05543357624496" lon="8.155687689457537"><ele>202.39999999999998</ele><time>2026-04-11T13:37:50.002Z</time></trkpt><trkpt lat="45.055296934446766" lon="8.155650986390095"><ele>200.8</ele><time>2026-04-11T13:37:52.002Z</time></trkpt><trkpt lat="45.055224833459384" lon="8.155625640478185"><ele>199.2</ele><time>2026-04-11T13:37:53.002Z</time></trkpt><trkpt lat="45.055149407272715" lon="8.155595287498791"><ele>197.60000000000002</ele><time>2026-04-11T13:37:54.002Z</time></trkpt><trkpt lat="45.05505846399414" lon="8.155494277804713"><ele>196.0</ele><time>2026-04-11T13:37:56.002Z</time></trkpt><trkpt lat="45.05497758945122" lon="8.15546698519679"><ele>195.0</ele><time>2026-04-11T13:37:57.002Z</time></trkpt><trkpt lat="45.05489409238377" lon="8.155426896141845"><ele>194.0</ele><time>2026-04-11T13:37:58.002Z</time></trkpt><trkpt lat="45.05480667570488" lon="8.155413070905709"><ele>193.0</ele><time>2026-04-11T13:37:59.002Z</time></trkpt><trkpt lat="45.05470262907244" lon="8.155393498633732"><ele>192.0</ele><time>2026-04-11T13:38:00.002Z</time></trkpt><trkpt lat="45.054569406769765" lon="8.155378071894262"><ele>191.0</ele><time>2026-04-11T13:38:01.002Z</time></trkpt><trkpt lat="45.05444058844991" lon="8.155365596363978"><ele>191.0</ele><time>2026-04-11T13:38:02.002Z</time></trkpt><trkpt lat="45.054332730545255" lon="8.155345025373578"><ele>191.0</ele><time>2026-04-11T13:38:03.002Z</time></trkpt><trkpt lat="45.05423128310368" lon="8.155322975650792"><ele>191.0</ele><time>2026-04-11T13:38:04.002Z</time></trkpt><trkpt lat="45.05413926411795" lon="8.155308653984509"><ele>191.0</ele><time>2026-04-11T13:38:05.002Z</time></trkpt><trkpt lat="45.05405380380489" lon="8.15530478409287"><ele>191.0</ele><time>2026-04-11T13:38:06.002Z</time></trkpt><trkpt lat="45.05389992929619" lon="8.155300677166942"><ele>190.8</ele><time>2026-04-11T13:38:07.002Z</time></trkpt><trkpt lat="45.05379242025716" lon="8.155275830254523"><ele>190.60000000000002</ele><time>2026-04-11T13:38:08.002Z</time></trkpt><trkpt lat="45.05370982090119" lon="8.155267362747713"><ele>190.4</ele><time>2026-04-11T13:38:09.003Z</time></trkpt><trkpt lat="45.053622153512016" lon="8.155273590860833"><ele>190.2</ele><time>2026-04-11T13:38:10.003Z</time></trkpt><trkpt lat="45.05351976726273" lon="8.15525603468294"><ele>190.0</ele><time>2026-04-11T13:38:11.003Z</time></trkpt><trkpt lat="45.05340912591997" lon="8.15521978300384"><ele>190.0</ele><time>2026-04-11T13:38:12.003Z</time></trkpt><trkpt lat="45.05333179182636" lon="8.155200306775884"><ele>190.0</ele><time>2026-04-11T13:38:13.003Z</time></trkpt><trkpt lat="45.053243851991596" lon="8.155186174405145"><ele>190.0</ele><time>2026-04-11T13:38:14.003Z</time></trkpt><trkpt lat="45.05317859598379" lon="8.155185688231743"><ele>190.0</ele><time>2026-04-11T13:38:15.003Z</time></trkpt><trkpt lat="45.05309844743932" lon="8.15518995268614"><ele>190.0</ele><time>2026-04-11T13:38:15.999Z</time></trkpt><trkpt lat="45.05301020640195" lon="8.15519975478665"><ele>190.0</ele><time>2026-04-11T13:38:16.999Z</time></trkpt><trkpt lat="45.0529271730011" lon="8.155211328670692"><ele>189.83333333333334</ele><time>2026-04-11T13:38:17.999Z</time></trkpt><trkpt lat="45.05285258781364" lon="8.15523021855719"><ele>189.66666666666669</ele><time>2026-04-11T13:38:18.999Z</time></trkpt><trkpt lat="45.052779409093944" lon="8.155244517787791"><ele>189.5</ele><time>2026-04-11T13:38:19.999Z</time></trkpt><trkpt lat="45.05271227224941" lon="8.155269692736976"><ele>189.33333333333334</ele><time>2026-04-11T13:38:20.999Z</time></trkpt><trkpt lat="45.052643006484736" lon="8.155298079917127"><ele>189.16666666666666</ele><time>2026-04-11T13:38:21.999Z</time></trkpt><trkpt lat="45.052528927597045" lon="8.155329913131299"><ele>189.0</ele><time>2026-04-11T13:38:23.999Z</time></trkpt><trkpt lat="45.05245918186588" lon="8.155340765864326"><ele>188.33333333333334</ele><time>2026-04-11T13:38:37Z</time></trkpt><trkpt lat="45.05238372226246" lon="8.155362844938566"><ele>187.66666666666666</ele><time>2026-04-11T13:38:39Z</time></trkpt><trkpt lat="45.052322786354246" lon="8.155385372745359"><ele>187.0</ele><time>2026-04-11T13:38:47Z</time></trkpt><trkpt lat="45.052205130927426" lon="8.155414913758692"><ele>186.33333333333331</ele><time>2026-04-11T13:38:49Z</time></trkpt><trkpt lat="45.052127425806695" lon="8.155435750759699"><ele>185.66666666666666</ele><time>2026-04-11T13:38:50Z</time></trkpt><trkpt lat="45.05203577518158" lon="8.155458590735229"><ele>185.0</ele><time>2026-04-11T13:38:51Z</time></trkpt><trkpt lat="45.05192593250039" lon="8.155482817361467"><ele>185.0</ele><time>2026-04-11T13:38:52.001Z</time></trkpt><trkpt lat="45.05183533152203" lon="8.155502074297097"><ele>185.0</ele><time>2026-04-11T13:38:53.001Z</time></trkpt><trkpt lat="45.05174608403358" lon="8.155521848400056"><ele>185.0</ele><time>2026-04-11T13:38:54.001Z</time></trkpt><trkpt lat="45.051637974342526" lon="8.155544958855462"><ele>185.0</ele><time>2026-04-11T13:38:55.001Z</time></trkpt><trkpt lat="45.05152086105219" lon="8.155569361371516"><ele>185.0</ele><time>2026-04-11T13:38:56.001Z</time></trkpt><trkpt lat="45.05140180759803" lon="8.155588792482213"><ele>184.8</ele><time>2026-04-11T13:38:57.001Z</time></trkpt><trkpt lat="45.051295277681206" lon="8.15560346232617"><ele>184.6</ele><time>2026-04-11T13:38:58.001Z</time></trkpt><trkpt lat="45.05119700781885" lon="8.155620061211309"><ele>184.39999999999998</ele><time>2026-04-11T13:38:59.001Z</time></trkpt><trkpt lat="45.05108923651755" lon="8.155638093393485"><ele>184.2</ele><time>2026-04-11T13:39:00.001Z</time></trkpt><trkpt lat="45.050983877787196" lon="8.15565299621866"><ele>184.0</ele><time>2026-04-11T13:39:01.001Z</time></trkpt><trkpt lat="45.050878382812506" lon="8.155666638559776"><ele>184.0</ele><time>2026-04-11T13:39:02.001Z</time></trkpt><trkpt lat="45.05077998773062" lon="8.155678411029463"><ele>184.0</ele><time>2026-04-11T13:39:03.001Z</time></trkpt><trkpt lat="45.05067977607004" lon="8.155680609270131"><ele>184.0</ele><time>2026-04-11T13:39:04.001Z</time></trkpt><trkpt lat="45.050593201068125" lon="8.155686455080193"><ele>184.0</ele><time>2026-04-11T13:39:05.001Z</time></trkpt><trkpt lat="45.05051574183101" lon="8.155684760015923"><ele>184.0</ele><time>2026-04-11T13:39:06.001Z</time></trkpt><trkpt lat="45.05044630836663" lon="8.155691163109282"><ele>184.0</ele><time>2026-04-11T13:39:07.001Z</time></trkpt><trkpt lat="45.050372905466205" lon="8.155689481151958"><ele>184.0</ele><time>2026-04-11T13:39:08.001Z</time></trkpt><trkpt lat="45.05030219506949" lon="8.15569563142743"><ele>184.0</ele><time>2026-04-11T13:39:10.001Z</time></trkpt><trkpt lat="45.050226755300926" lon="8.155677176190947"><ele>184.0</ele><time>2026-04-11T13:39:13.001Z</time></trkpt><trkpt lat="45.0501642999153" lon="8.155630416043643"><ele>184.0</ele><time>2026-04-11T13:39:14.001Z</time></trkpt><trkpt lat="45.050083908658536" lon="8.155557349261942"><ele>184.0</ele><time>2026-04-11T13:39:15.001Z</time></trkpt><trkpt lat="45.04999019008555" lon="8.155483521534684"><ele>184.0</ele><time>2026-04-11T13:39:16.001Z</time></trkpt><trkpt lat="45.04987779759778" lon="8.155399545166551"><ele>184.0</ele><time>2026-04-11T13:39:17.001Z</time></trkpt><trkpt lat="45.049776083657555" lon="8.15532231432258"><ele>184.0</ele><time>2026-04-11T13:39:18.001Z</time></trkpt><trkpt lat="45.04967962370525" lon="8.155241202910117"><ele>184.0</ele><time>2026-04-11T13:39:19.001Z</time></trkpt><trkpt lat="45.049582766520594" lon="8.15515857156605"><ele>184.0</ele><time>2026-04-11T13:39:20.001Z</time></trkpt><trkpt lat="45.04949238782538" lon="8.15508143727353"><ele>184.0</ele><time>2026-04-11T13:39:21.001Z</time></trkpt><trkpt lat="45.0494085228063" lon="8.15501531264742"><ele>184.0</ele><time>2026-04-11T13:39:22.002Z</time></trkpt><trkpt lat="45.04931771923592" lon="8.154950865189425"><ele>184.0</ele><time>2026-04-11T13:39:23.002Z</time></trkpt><trkpt lat="45.04922445459408" lon="8.154898841265277"><ele>184.0</ele><time>2026-04-11T13:39:24.002Z</time></trkpt><trkpt lat="45.04912641253137" lon="8.154869153869003"><ele>184.0</ele><time>2026-04-11T13:39:25.002Z</time></trkpt><trkpt lat="45.049034003191686" lon="8.154854248179019"><ele>184.0</ele><time>2026-04-11T13:39:26.002Z</time></trkpt><trkpt lat="45.04892277516576" lon="8.154843480503713"><ele>184.5</ele><time>2026-04-11T13:39:27.002Z</time></trkpt><trkpt lat="45.04879571571483" lon="8.154833749159257"><ele>185.0</ele><time>2026-04-11T13:39:28.002Z</time></trkpt><trkpt lat="45.048664975031414" lon="8.154820464365333"><ele>185.5</ele><time>2026-04-11T13:39:29.002Z</time></trkpt><trkpt lat="45.048535157263295" lon="8.154803202084388"><ele>186.0</ele><time>2026-04-11T13:39:30.002Z</time></trkpt><trkpt lat="45.04841304576059" lon="8.154784122503525"><ele>186.0</ele><time>2026-04-11T13:39:31.002Z</time></trkpt><trkpt lat="45.04829753936011" lon="8.154762538961668"><ele>186.0</ele><time>2026-04-11T13:39:32.002Z</time></trkpt><trkpt lat="45.048189983546735" lon="8.154736619529444"><ele>186.0</ele><time>2026-04-11T13:39:33.002Z</time></trkpt><trkpt lat="45.04809249145987" lon="8.154697479293695"><ele>186.0</ele><time>2026-04-11T13:39:34.002Z</time></trkpt><trkpt lat="45.04799396794495" lon="8.154652423010711"><ele>186.0</ele><time>2026-04-11T13:39:35.002Z</time></trkpt><trkpt lat="45.047902663758535" lon="8.154607465677563"><ele>186.0</ele><time>2026-04-11T13:39:36.002Z</time></trkpt><trkpt lat="45.04781578345569" lon="8.154573305555376"><ele>186.0</ele><time>2026-04-11T13:39:37.002Z</time></trkpt><trkpt lat="45.047726245093216" lon="8.154525500591955"><ele>186.0</ele><time>2026-04-11T13:39:38.002Z</time></trkpt><trkpt lat="45.04762961243597" lon="8.154475127278221"><ele>186.0</ele><time>2026-04-11T13:39:39.002Z</time></trkpt><trkpt lat="45.04751651811502" lon="8.154426567120602"><ele>186.0</ele><time>2026-04-11T13:39:40.002Z</time></trkpt><trkpt lat="45.04739552585349" lon="8.154378120321146"><ele>185.75</ele><time>2026-04-11T13:39:41.002Z</time></trkpt><trkpt lat="45.04726840162174" lon="8.154329725280377"><ele>185.5</ele><time>2026-04-11T13:39:42.002Z</time></trkpt><trkpt lat="45.04713529037144" lon="8.154273818628281"><ele>185.25</ele><time>2026-04-11T13:39:43.002Z</time></trkpt><trkpt lat="45.04700626493924" lon="8.154217218427313"><ele>185.0</ele><time>2026-04-11T13:39:44.002Z</time></trkpt><trkpt lat="45.04689251992901" lon="8.154165489505845"><ele>185.0</ele><time>2026-04-11T13:39:45.002Z</time></trkpt><trkpt lat="45.04679278970506" lon="8.154098848258942"><ele>185.0</ele><time>2026-04-11T13:39:46.002Z</time></trkpt><trkpt lat="45.046693936274885" lon="8.154009856743267"><ele>185.0</ele><time>2026-04-11T13:39:47.002Z</time></trkpt><trkpt lat="45.04659451684454" lon="8.153900733245953"><ele>185.0</ele><time>2026-04-11T13:39:48.002Z</time></trkpt><trkpt lat="45.046491512109746" lon="8.153778255851964"><ele>184.5</ele><time>2026-04-11T13:39:49.002Z</time></trkpt><trkpt lat="45.04638018392018" lon="8.153650689059274"><ele>184.0</ele><time>2026-04-11T13:39:50.002Z</time></trkpt><trkpt lat="45.04628223712411" lon="8.153548177968785"><ele>183.5</ele><time>2026-04-11T13:39:51.002Z</time></trkpt><trkpt lat="45.04619116595906" lon="8.153467423902123"><ele>183.0</ele><time>2026-04-11T13:39:52.002Z</time></trkpt><trkpt lat="45.04610442620726" lon="8.153408329978722"><ele>183.0</ele><time>2026-04-11T13:39:53.002Z</time></trkpt><trkpt lat="45.0460146715596" lon="8.153355811808687"><ele>183.0</ele><time>2026-04-11T13:39:54.003Z</time></trkpt><trkpt lat="45.04590873405955" lon="8.153294315857773"><ele>183.0</ele><time>2026-04-11T13:39:55.003Z</time></trkpt><trkpt lat="45.04580220607961" lon="8.153230089958466"><ele>183.0</ele><time>2026-04-11T13:39:56.003Z</time></trkpt><trkpt lat="45.045699584321426" lon="8.153164966180459"><ele>183.0</ele><time>2026-04-11T13:39:57.003Z</time></trkpt><trkpt lat="45.045615228023614" lon="8.153113117873032"><ele>183.0</ele><time>2026-04-11T13:39:58.003Z</time></trkpt><trkpt lat="45.04554352525665" lon="8.153070529038821"><ele>183.0</ele><time>2026-04-11T13:39:59.003Z</time></trkpt><trkpt lat="45.04547915832003" lon="8.152948928887849"><ele>183.0</ele><time>2026-04-11T13:40:01.003Z</time></trkpt><trkpt lat="45.04543267149377" lon="8.15281489447896"><ele>183.0</ele><time>2026-04-11T13:40:03.003Z</time></trkpt><trkpt lat="45.04532023707001" lon="8.15269743825201"><ele>183.0</ele><time>2026-04-11T13:40:05.003Z</time></trkpt><trkpt lat="45.04523739445532" lon="8.152620222563064"><ele>183.0</ele><time>2026-04-11T13:40:06.003Z</time></trkpt><trkpt lat="45.04517259300692" lon="8.15252746173517"><ele>183.0</ele><time>2026-04-11T13:40:07.003Z</time></trkpt><trkpt lat="45.04510770227069" lon="8.152433976525609"><ele>183.0</ele><time>2026-04-11T13:40:08.003Z</time></trkpt><trkpt lat="45.04503971697246" lon="8.15230914409233"><ele>183.0</ele><time>2026-04-11T13:40:09.003Z</time></trkpt><trkpt lat="45.04497147145622" lon="8.152190911310868"><ele>183.0</ele><time>2026-04-11T13:40:10.003Z</time></trkpt><trkpt lat="45.04490274757079" lon="8.152098838358466"><ele>183.4</ele><time>2026-04-11T13:40:11.003Z</time></trkpt><trkpt lat="45.04482940807134" lon="8.152007673829578"><ele>183.8</ele><time>2026-04-11T13:40:12.003Z</time></trkpt><trkpt lat="45.04474794349133" lon="8.15191419495395"><ele>184.2</ele><time>2026-04-11T13:40:13.003Z</time></trkpt><trkpt lat="45.04466496045303" lon="8.151788094267536"><ele>184.6</ele><time>2026-04-11T13:40:14.003Z</time></trkpt><trkpt lat="45.04459231063538" lon="8.151671752267166"><ele>185.0</ele><time>2026-04-11T13:40:15.003Z</time></trkpt><trkpt lat="45.044517989913956" lon="8.151561264954436"><ele>184.33333333333331</ele><time>2026-04-11T13:40:16.003Z</time></trkpt><trkpt lat="45.04444637369023" lon="8.151450654382066"><ele>183.66666666666666</ele><time>2026-04-11T13:40:17.003Z</time></trkpt><trkpt lat="45.0443831431244" lon="8.151345826028896"><ele>183.0</ele><time>2026-04-11T13:40:18.003Z</time></trkpt><trkpt lat="45.04432738799904" lon="8.151252631054744"><ele>182.33333333333334</ele><time>2026-04-11T13:40:19.003Z</time></trkpt><trkpt lat="45.044275173587025" lon="8.151168090636167"><ele>181.66666666666669</ele><time>2026-04-11T13:40:20.003Z</time></trkpt><trkpt lat="45.044224050741846" lon="8.151088818568995"><ele>181.0</ele><time>2026-04-11T13:40:21.003Z</time></trkpt><trkpt lat="45.044180587581096" lon="8.151009893447462"><ele>181.0</ele><time>2026-04-11T13:40:22Z</time></trkpt><trkpt lat="45.04413576866702" lon="8.150928246199388"><ele>181.0</ele><time>2026-04-11T13:40:23Z</time></trkpt><trkpt lat="45.04407957531771" lon="8.150864432249927"><ele>181.0</ele><time>2026-04-11T13:40:24Z</time></trkpt><trkpt lat="45.04401136549691" lon="8.150796934194586"><ele>181.0</ele><time>2026-04-11T13:40:25Z</time></trkpt><trkpt lat="45.04395337040079" lon="8.150732439149904"><ele>181.0</ele><time>2026-04-11T13:40:26Z</time></trkpt><trkpt lat="45.04392586614188" lon="8.150641474444152"><ele>181.0</ele><time>2026-04-11T13:40:27Z</time></trkpt><trkpt lat="45.04386261198585" lon="8.150515231974618"><ele>180.5</ele><time>2026-04-11T13:40:28Z</time></trkpt><trkpt lat="45.043831566082986" lon="8.150383649778227"><ele>180.0</ele><time>2026-04-11T13:40:29Z</time></trkpt><trkpt lat="45.043821515473084" lon="8.15026986047789"><ele>179.5</ele><time>2026-04-11T13:40:30Z</time></trkpt><trkpt lat="45.04380753170108" lon="8.150153854760823"><ele>179.0</ele><time>2026-04-11T13:40:31Z</time></trkpt><trkpt lat="45.04377928909016" lon="8.150061849386992"><ele>178.5</ele><time>2026-04-11T13:40:32Z</time></trkpt><trkpt lat="45.04373854811189" lon="8.149987383466877"><ele>178.0</ele><time>2026-04-11T13:40:33Z</time></trkpt><trkpt lat="45.043677100118146" lon="8.149905365676632"><ele>177.66666666666669</ele><time>2026-04-11T13:40:34Z</time></trkpt><trkpt lat="45.04361951745315" lon="8.149826822772534"><ele>177.33333333333334</ele><time>2026-04-11T13:40:35Z</time></trkpt><trkpt lat="45.043564422894015" lon="8.149718511252706"><ele>177.0</ele><time>2026-04-11T13:40:36Z</time></trkpt><trkpt lat="45.04350714006977" lon="8.149601486505945"><ele>176.66666666666666</ele><time>2026-04-11T13:40:37Z</time></trkpt><trkpt lat="45.04344652351802" lon="8.149515118630218"><ele>176.33333333333331</ele><time>2026-04-11T13:40:38Z</time></trkpt><trkpt lat="45.04338304450764" lon="8.149457225364058"><ele>176.0</ele><time>2026-04-11T13:40:39Z</time></trkpt><trkpt lat="45.043306784992986" lon="8.1493944659008"><ele>175.66666666666666</ele><time>2026-04-11T13:40:40Z</time></trkpt><trkpt lat="45.043222359917074" lon="8.149319141829775"><ele>175.33333333333331</ele><time>2026-04-11T13:40:41Z</time></trkpt><trkpt lat="45.0431373688828" lon="8.149251294180564"><ele>175.0</ele><time>2026-04-11T13:40:42Z</time></trkpt><trkpt lat="45.04305641245897" lon="8.149198251471843"><ele>174.66666666666666</ele><time>2026-04-11T13:40:43Z</time></trkpt><trkpt lat="45.04298446422653" lon="8.149170524510808"><ele>174.33333333333334</ele><time>2026-04-11T13:40:44Z</time></trkpt><trkpt lat="45.042905807550085" lon="8.149153529442847"><ele>174.0</ele><time>2026-04-11T13:40:45Z</time></trkpt><trkpt lat="45.04281743758047" lon="8.149154883074257"><ele>174.0</ele><time>2026-04-11T13:40:46Z</time></trkpt><trkpt lat="45.04273545862826" lon="8.149180964370995"><ele>174.0</ele><time>2026-04-11T13:40:47Z</time></trkpt><trkpt lat="45.042660407154756" lon="8.14922293235619"><ele>174.0</ele><time>2026-04-11T13:40:48Z</time></trkpt><trkpt lat="45.042584873501845" lon="8.149272073266058"><ele>174.0</ele><time>2026-04-11T13:40:49Z</time></trkpt><trkpt lat="45.04250112360224" lon="8.149329129003888"><ele>174.0</ele><time>2026-04-11T13:40:50Z</time></trkpt><trkpt lat="45.04243267035319" lon="8.149379448134908"><ele>174.0</ele><time>2026-04-11T13:40:51Z</time></trkpt><trkpt lat="45.04234749747862" lon="8.149443828622175"><ele>172.75</ele><time>2026-04-11T13:40:52.001Z</time></trkpt><trkpt lat="45.0422458063571" lon="8.149529923688181"><ele>171.5</ele><time>2026-04-11T13:40:53.001Z</time></trkpt><trkpt lat="45.042134487734025" lon="8.149621121106835"><ele>170.25</ele><time>2026-04-11T13:40:54.001Z</time></trkpt><trkpt lat="45.04201831932246" lon="8.149718814331603"><ele>169.0</ele><time>2026-04-11T13:40:55.001Z</time></trkpt><trkpt lat="45.04190291974948" lon="8.149813937902533"><ele>169.5</ele><time>2026-04-11T13:40:56.001Z</time></trkpt><trkpt lat="45.04179762732587" lon="8.149904886077204"><ele>170.0</ele><time>2026-04-11T13:40:57.001Z</time></trkpt><trkpt lat="45.041695004009995" lon="8.149994646854413"><ele>170.5</ele><time>2026-04-11T13:40:58.001Z</time></trkpt><trkpt lat="45.041586892541204" lon="8.150087133144268"><ele>171.0</ele><time>2026-04-11T13:40:59.001Z</time></trkpt><trkpt lat="45.04147574595207" lon="8.150178966388198"><ele>171.0</ele><time>2026-04-11T13:41:00.001Z</time></trkpt><trkpt lat="45.04137261127358" lon="8.150262457009402"><ele>171.0</ele><time>2026-04-11T13:41:01.001Z</time></trkpt><trkpt lat="45.04126845245392" lon="8.15034979236775"><ele>171.0</ele><time>2026-04-11T13:41:02.001Z</time></trkpt><trkpt lat="45.04116850840811" lon="8.150430526692363"><ele>171.0</ele><time>2026-04-11T13:41:03.001Z</time></trkpt><trkpt lat="45.04108189082933" lon="8.15050235854423"><ele>171.0</ele><time>2026-04-11T13:41:04.001Z</time></trkpt><trkpt lat="45.040998236928814" lon="8.150562688469403"><ele>171.0</ele><time>2026-04-11T13:41:05.001Z</time></trkpt><trkpt lat="45.04091253449812" lon="8.15062108229125"><ele>171.0</ele><time>2026-04-11T13:41:06.001Z</time></trkpt><trkpt lat="45.04083654400694" lon="8.150675627501748"><ele>171.0</ele><time>2026-04-11T13:41:07.001Z</time></trkpt><trkpt lat="45.0407757521986" lon="8.150720235398921"><ele>171.0</ele><time>2026-04-11T13:41:08.001Z</time></trkpt><trkpt lat="45.040698383855656" lon="8.150783215002665"><ele>171.0</ele><time>2026-04-11T13:41:09.001Z</time></trkpt><trkpt lat="45.04061930317821" lon="8.150849927031494"><ele>170.4</ele><time>2026-04-11T13:41:10.001Z</time></trkpt><trkpt lat="45.04054061174227" lon="8.150915602681756"><ele>169.8</ele><time>2026-04-11T13:41:11.001Z</time></trkpt><trkpt lat="45.04046223252711" lon="8.150988245100262"><ele>169.20000000000002</ele><time>2026-04-11T13:41:12.001Z</time></trkpt><trkpt lat="45.040385053620376" lon="8.151059410270037"><ele>168.60000000000002</ele><time>2026-04-11T13:41:13.001Z</time></trkpt><trkpt lat="45.04030676279569" lon="8.151133794805965"><ele>168.0</ele><time>2026-04-11T13:41:14.001Z</time></trkpt><trkpt lat="45.04024001692963" lon="8.15121016503295"><ele>168.0</ele><time>2026-04-11T13:41:15.001Z</time></trkpt><trkpt lat="45.04017235743165" lon="8.151299479481127"><ele>168.0</ele><time>2026-04-11T13:41:16.001Z</time></trkpt><trkpt lat="45.040112684839045" lon="8.151402693520717"><ele>168.0</ele><time>2026-04-11T13:41:17.001Z</time></trkpt><trkpt lat="45.04003938334674" lon="8.151522760555977"><ele>168.0</ele><time>2026-04-11T13:41:18.001Z</time></trkpt><trkpt lat="45.03997255206475" lon="8.151635523091864"><ele>168.0</ele><time>2026-04-11T13:41:19.001Z</time></trkpt><trkpt lat="45.03991569966078" lon="8.151737005307004"><ele>167.8</ele><time>2026-04-11T13:41:20.001Z</time></trkpt><trkpt lat="45.03985701117103" lon="8.151845067676811"><ele>167.60000000000002</ele><time>2026-04-11T13:41:21.001Z</time></trkpt><trkpt lat="45.039802879711445" lon="8.15195045594246"><ele>167.39999999999998</ele><time>2026-04-11T13:41:22.001Z</time></trkpt><trkpt lat="45.039745487545765" lon="8.152065939308935"><ele>167.2</ele><time>2026-04-11T13:41:23.001Z</time></trkpt><trkpt lat="45.03969264099801" lon="8.152190028883885"><ele>167.0</ele><time>2026-04-11T13:41:24.002Z</time></trkpt><trkpt lat="45.03964367783281" lon="8.152328939561409"><ele>166.8</ele><time>2026-04-11T13:41:25.002Z</time></trkpt><trkpt lat="45.0395996339126" lon="8.152470852647786"><ele>166.6</ele><time>2026-04-11T13:41:26.002Z</time></trkpt><trkpt lat="45.039558387750056" lon="8.152594037972722"><ele>166.4</ele><time>2026-04-11T13:41:27.002Z</time></trkpt><trkpt lat="45.039508492479044" lon="8.152728092579345"><ele>166.20000000000002</ele><time>2026-04-11T13:41:28.002Z</time></trkpt><trkpt lat="45.0394550402389" lon="8.152854023115472"><ele>166.0</ele><time>2026-04-11T13:41:29.002Z</time></trkpt><trkpt lat="45.03940142002312" lon="8.152962988764004"><ele>166.0</ele><time>2026-04-11T13:41:30.002Z</time></trkpt><trkpt lat="45.039343743504965" lon="8.153073742270116"><ele>166.0</ele><time>2026-04-11T13:41:31.002Z</time></trkpt><trkpt lat="45.03928951820618" lon="8.153185925659285"><ele>166.0</ele><time>2026-04-11T13:41:32.002Z</time></trkpt><trkpt lat="45.03924304954766" lon="8.153264952950632"><ele>166.0</ele><time>2026-04-11T13:41:33.002Z</time></trkpt><trkpt lat="45.03920195802149" lon="8.153333407105556"><ele>166.0</ele><time>2026-04-11T13:41:34.002Z</time></trkpt><trkpt lat="45.039147822845564" lon="8.153413679583885"><ele>166.0</ele><time>2026-04-11T13:41:35.002Z</time></trkpt><trkpt lat="45.03908649816094" lon="8.15349748672856"><ele>165.83333333333334</ele><time>2026-04-11T13:41:36.002Z</time></trkpt><trkpt lat="45.03902863122214" lon="8.153570621989372"><ele>165.66666666666669</ele><time>2026-04-11T13:41:37.002Z</time></trkpt><trkpt lat="45.03897527478789" lon="8.153635197031502"><ele>165.5</ele><time>2026-04-11T13:41:38.002Z</time></trkpt><trkpt lat="45.03891084109955" lon="8.153703869810537"><ele>165.33333333333334</ele><time>2026-04-11T13:41:39.002Z</time></trkpt><trkpt lat="45.038853146007604" lon="8.153766386434878"><ele>165.16666666666666</ele><time>2026-04-11T13:41:40.002Z</time></trkpt><trkpt lat="45.0387921928454" lon="8.153830790490968"><ele>165.0</ele><time>2026-04-11T13:41:41.002Z</time></trkpt><trkpt lat="45.03873242856651" lon="8.153890554797428"><ele>165.0</ele><time>2026-04-11T13:41:42.002Z</time></trkpt><trkpt lat="45.038670995127404" lon="8.153952989689506"><ele>165.0</ele><time>2026-04-11T13:41:43.002Z</time></trkpt><trkpt lat="45.03860387183796" lon="8.15402379142649"><ele>165.0</ele><time>2026-04-11T13:41:44.002Z</time></trkpt><trkpt lat="45.0385413204065" lon="8.154087186192886"><ele>165.0</ele><time>2026-04-11T13:41:45.002Z</time></trkpt><trkpt lat="45.03844817869624" lon="8.154185884125122"><ele>165.0</ele><time>2026-04-11T13:41:47.002Z</time></trkpt><trkpt lat="45.038367279516464" lon="8.15427230539935"><ele>165.0</ele><time>2026-04-11T13:41:49.002Z</time></trkpt><trkpt lat="45.038279651886526" lon="8.154364139939636"><ele>165.0</ele><time>2026-04-11T13:41:51.002Z</time></trkpt><trkpt lat="45.03820878044191" lon="8.154434262642486"><ele>165.0</ele><time>2026-04-11T13:41:53.002Z</time></trkpt><trkpt lat="45.03814938437876" lon="8.154498011328288"><ele>165.0</ele><time>2026-04-11T13:41:55.002Z</time></trkpt><trkpt lat="45.03809504333848" lon="8.154554128043184"><ele>165.0</ele><time>2026-04-11T13:41:57.003Z</time></trkpt><trkpt lat="45.03803921928422" lon="8.154622308907822"><ele>165.0</ele><time>2026-04-11T13:42:00.003Z</time></trkpt><trkpt lat="45.03796819615734" lon="8.154703901565707"><ele>165.0</ele><time>2026-04-11T13:42:03.003Z</time></trkpt><trkpt lat="45.03791786102595" lon="8.154763381815515"><ele>165.0</ele><time>2026-04-11T13:42:05.003Z</time></trkpt><trkpt lat="45.03785382765046" lon="8.15485368136993"><ele>165.0</ele><time>2026-04-11T13:42:08.003Z</time></trkpt><trkpt lat="45.037803077111285" lon="8.154926841805885"><ele>165.0</ele><time>2026-04-11T13:42:10.003Z</time></trkpt><trkpt lat="45.03772545573414" lon="8.155024439647173"><ele>165.0</ele><time>2026-04-11T13:42:12.003Z</time></trkpt><trkpt lat="45.0376457686098" lon="8.155103770135527"><ele>165.0</ele><time>2026-04-11T13:42:14.003Z</time></trkpt><trkpt lat="45.037587281848" lon="8.155160911378527"><ele>165.2</ele><time>2026-04-11T13:42:15.003Z</time></trkpt><trkpt lat="45.03752358291492" lon="8.15522046259128"><ele>165.4</ele><time>2026-04-11T13:42:16.003Z</time></trkpt><trkpt lat="45.037460903976964" lon="8.155275924996948"><ele>165.60000000000002</ele><time>2026-04-11T13:42:17.003Z</time></trkpt><trkpt lat="45.037410270394794" lon="8.15533613772511"><ele>165.8</ele><time>2026-04-11T13:42:18.003Z</time></trkpt><trkpt lat="45.03731627798224" lon="8.155433320741867"><ele>166.0</ele><time>2026-04-11T13:42:20.003Z</time></trkpt><trkpt lat="45.03721263614201" lon="8.155540944569688"><ele>166.0</ele><time>2026-04-11T13:42:22.003Z</time></trkpt><trkpt lat="45.03712833259067" lon="8.155639187316991"><ele>166.0</ele><time>2026-04-11T13:42:24.003Z</time></trkpt><trkpt lat="45.037068649891985" lon="8.155729694741797"><ele>166.0</ele><time>2026-04-11T13:42:26.003Z</time></trkpt><trkpt lat="45.03696841952809" lon="8.155818447042835"><ele>166.0</ele><time>2026-04-11T13:42:28Z</time></trkpt><trkpt lat="45.036880603713016" lon="8.15591317716848"><ele>166.0</ele><time>2026-04-11T13:42:30Z</time></trkpt><trkpt lat="45.03676632123524" lon="8.156014745330872"><ele>166.0</ele><time>2026-04-11T13:42:32Z</time></trkpt><trkpt lat="45.03669598859588" lon="8.156071069228956"><ele>166.0</ele><time>2026-04-11T13:42:33Z</time></trkpt><trkpt lat="45.036627718228004" lon="8.156109617813533"><ele>166.0</ele><time>2026-04-11T13:42:34Z</time></trkpt><trkpt lat="45.03655865372928" lon="8.156135308736992"><ele>166.0</ele><time>2026-04-11T13:42:35Z</time></trkpt><trkpt lat="45.03648873007438" lon="8.15615682248724"><ele>166.0</ele><time>2026-04-11T13:42:36Z</time></trkpt><trkpt lat="45.03642415285199" lon="8.156174828106213"><ele>166.0</ele><time>2026-04-11T13:42:37Z</time></trkpt><trkpt lat="45.03632143635499" lon="8.156241903035813"><ele>166.0</ele><time>2026-04-11T13:42:39Z</time></trkpt><trkpt lat="45.036236758414915" lon="8.156357268607664"><ele>166.0</ele><time>2026-04-11T13:42:41Z</time></trkpt><trkpt lat="45.03618451913354" lon="8.156438221831445"><ele>166.0</ele><time>2026-04-11T13:42:42Z</time></trkpt><trkpt lat="45.036138092738035" lon="8.156504141936583"><ele>166.0</ele><time>2026-04-11T13:42:43Z</time></trkpt><trkpt lat="45.036092011045355" lon="8.156576454933294"><ele>166.0</ele><time>2026-04-11T13:42:44Z</time></trkpt><trkpt lat="45.03601548670676" lon="8.156697666493866"><ele>166.0</ele><time>2026-04-11T13:42:46Z</time></trkpt><trkpt lat="45.035975251056975" lon="8.156773699428204"><ele>166.0</ele><time>2026-04-11T13:42:47Z</time></trkpt><trkpt lat="45.035934844098776" lon="8.1568537738926"><ele>166.0</ele><time>2026-04-11T13:42:48Z</time></trkpt><trkpt lat="45.03589063163801" lon="8.156959030168064"><ele>166.0</ele><time>2026-04-11T13:42:49Z</time></trkpt><trkpt lat="45.03586168390501" lon="8.157058359755103"><ele>166.0</ele><time>2026-04-11T13:42:50Z</time></trkpt><trkpt lat="45.035832498730976" lon="8.15715099746608"><ele>166.0</ele><time>2026-04-11T13:42:51Z</time></trkpt><trkpt lat="45.035807436241456" lon="8.157243055627934"><ele>166.0</ele><time>2026-04-11T13:42:52Z</time></trkpt><trkpt lat="45.03574491161665" lon="8.157434240442408"><ele>166.0</ele><time>2026-04-11T13:42:54Z</time></trkpt><trkpt lat="45.03571316044736" lon="8.157546906873149"><ele>166.0</ele><time>2026-04-11T13:42:55Z</time></trkpt><trkpt lat="45.03568937064802" lon="8.157652200290334"><ele>166.0</ele><time>2026-04-11T13:42:56Z</time></trkpt><trkpt lat="45.03565695034251" lon="8.157810893376789"><ele>166.0</ele><time>2026-04-11T13:42:58Z</time></trkpt><trkpt lat="45.03561707662968" lon="8.157947964086905"><ele>166.0</ele><time>2026-04-11T13:43:00Z</time></trkpt><trkpt lat="45.03556947561356" lon="8.1581215613404"><ele>165.60000000000002</ele><time>2026-04-11T13:43:02Z</time></trkpt><trkpt lat="45.035540618556986" lon="8.158237189918049"><ele>165.2</ele><time>2026-04-11T13:43:03.001Z</time></trkpt><trkpt lat="45.03551122173226" lon="8.15835306687852"><ele>164.8</ele><time>2026-04-11T13:43:04.001Z</time></trkpt><trkpt lat="45.035490248444766" lon="8.158462130218288"><ele>164.39999999999998</ele><time>2026-04-11T13:43:05.001Z</time></trkpt><trkpt lat="45.03546715871822" lon="8.15857290114135"><ele>164.0</ele><time>2026-04-11T13:43:06.001Z</time></trkpt><trkpt lat="45.035448392787806" lon="8.158735438703593"><ele>164.0</ele><time>2026-04-11T13:43:08.001Z</time></trkpt><trkpt lat="45.03548320112593" lon="8.15890385069592"><ele>164.0</ele><time>2026-04-11T13:43:10.001Z</time></trkpt><trkpt lat="45.03551099402305" lon="8.159005440555456"><ele>164.0</ele><time>2026-04-11T13:43:11.001Z</time></trkpt><trkpt lat="45.03555705859528" lon="8.159188414847682"><ele>164.0</ele><time>2026-04-11T13:43:13.001Z</time></trkpt><trkpt lat="45.03558806518992" lon="8.159280316124512"><ele>164.0</ele><time>2026-04-11T13:43:14.001Z</time></trkpt><trkpt lat="45.03564308538629" lon="8.159406846451455"><ele>164.16666666666666</ele><time>2026-04-11T13:43:16.001Z</time></trkpt><trkpt lat="45.03562660313148" lon="8.159498239869915"><ele>164.33333333333331</ele><time>2026-04-11T13:43:19.001Z</time></trkpt><trkpt lat="45.03560709308481" lon="8.159614374027566"><ele>164.5</ele><time>2026-04-11T13:43:21.001Z</time></trkpt><trkpt lat="45.03559131340905" lon="8.159725609526484"><ele>164.66666666666666</ele><time>2026-04-11T13:43:22.001Z</time></trkpt><trkpt lat="45.03556911837649" lon="8.159845914034031"><ele>164.83333333333334</ele><time>2026-04-11T13:43:23.001Z</time></trkpt><trkpt lat="45.03554586066803" lon="8.159966954223213"><ele>165.0</ele><time>2026-04-11T13:43:24.001Z</time></trkpt><trkpt lat="45.0355190037009" lon="8.16010419312346"><ele>165.0</ele><time>2026-04-11T13:43:25.001Z</time></trkpt><trkpt lat="45.03549050719028" lon="8.160260276423534"><ele>165.0</ele><time>2026-04-11T13:43:26.001Z</time></trkpt><trkpt lat="45.03546490598004" lon="8.16042508073772"><ele>165.0</ele><time>2026-04-11T13:43:27.001Z</time></trkpt><trkpt lat="45.03544256235896" lon="8.160576326025243"><ele>165.0</ele><time>2026-04-11T13:43:28.001Z</time></trkpt><trkpt lat="45.035422112689986" lon="8.16071916648755"><ele>165.0</ele><time>2026-04-11T13:43:29.001Z</time></trkpt><trkpt lat="45.03541256605417" lon="8.160854593212429"><ele>165.66666666666666</ele><time>2026-04-11T13:43:30.001Z</time></trkpt><trkpt lat="45.03539388689845" lon="8.160964877709354"><ele>166.33333333333334</ele><time>2026-04-11T13:43:31.001Z</time></trkpt><trkpt lat="45.03538215785844" lon="8.161064056666707"><ele>167.0</ele><time>2026-04-11T13:43:32.001Z</time></trkpt><trkpt lat="45.035370898189555" lon="8.161208096353814"><ele>167.66666666666669</ele><time>2026-04-11T13:43:34.001Z</time></trkpt><trkpt lat="45.03531370665901" lon="8.161270043323892"><ele>168.33333333333334</ele><time>2026-04-11T13:43:36.002Z</time></trkpt><trkpt lat="45.03519781881907" lon="8.161247705912748"><ele>169.0</ele><time>2026-04-11T13:43:38.002Z</time></trkpt><trkpt lat="45.03510331440865" lon="8.161233162059647"><ele>169.0</ele><time>2026-04-11T13:43:39.002Z</time></trkpt><trkpt lat="45.03501648533472" lon="8.161226721802494"><ele>169.0</ele><time>2026-04-11T13:43:40.002Z</time></trkpt><trkpt lat="45.03492594720935" lon="8.161228675424534"><ele>169.0</ele><time>2026-04-11T13:43:41.002Z</time></trkpt><trkpt lat="45.03482032972099" lon="8.161236682062711"><ele>169.0</ele><time>2026-04-11T13:43:42.002Z</time></trkpt><trkpt lat="45.034722855312445" lon="8.161239602918933"><ele>169.0</ele><time>2026-04-11T13:43:43.002Z</time></trkpt><trkpt lat="45.03461921151104" lon="8.161244577559245"><ele>168.39999999999998</ele><time>2026-04-11T13:43:44.002Z</time></trkpt><trkpt lat="45.03452223219099" lon="8.161262477822437"><ele>167.8</ele><time>2026-04-11T13:43:45.002Z</time></trkpt><trkpt lat="45.0344225276973" lon="8.161277844948257"><ele>167.2</ele><time>2026-04-11T13:43:46.002Z</time></trkpt><trkpt lat="45.03431777188513" lon="8.161296419533231"><ele>166.60000000000002</ele><time>2026-04-11T13:43:47.002Z</time></trkpt><trkpt lat="45.034224158836174" lon="8.161316739617416"><ele>166.0</ele><time>2026-04-11T13:43:48.002Z</time></trkpt><trkpt lat="45.03412437272863" lon="8.161343119520634"><ele>165.4</ele><time>2026-04-11T13:43:49.002Z</time></trkpt><trkpt lat="45.034026003164186" lon="8.16136974120747"><ele>164.8</ele><time>2026-04-11T13:43:50.002Z</time></trkpt><trkpt lat="45.0339232222682" lon="8.16139154226329"><ele>164.20000000000002</ele><time>2026-04-11T13:43:51.002Z</time></trkpt><trkpt lat="45.033818009199585" lon="8.161414261173768"><ele>163.60000000000002</ele><time>2026-04-11T13:43:52.002Z</time></trkpt><trkpt lat="45.03372714331078" lon="8.16142699144307"><ele>163.0</ele><time>2026-04-11T13:43:53.002Z</time></trkpt><trkpt lat="45.033638498000826" lon="8.161460738835645"><ele>163.0</ele><time>2026-04-11T13:43:54.002Z</time></trkpt><trkpt lat="45.03353938090311" lon="8.16149202962383"><ele>163.0</ele><time>2026-04-11T13:43:55.002Z</time></trkpt><trkpt lat="45.03343538899848" lon="8.161527889218808"><ele>163.0</ele><time>2026-04-11T13:43:56.002Z</time></trkpt><trkpt lat="45.03332078376212" lon="8.161567693914161"><ele>163.0</ele><time>2026-04-11T13:43:57.002Z</time></trkpt><trkpt lat="45.033202198518154" lon="8.16160399670628"><ele>163.0</ele><time>2026-04-11T13:43:58.002Z</time></trkpt><trkpt lat="45.033084976734486" lon="8.161644384539748"><ele>163.25</ele><time>2026-04-11T13:43:59.002Z</time></trkpt><trkpt lat="45.03296710223449" lon="8.161688428328606"><ele>163.5</ele><time>2026-04-11T13:44:00.002Z</time></trkpt><trkpt lat="45.032855618866705" lon="8.161734454750896"><ele>163.75</ele><time>2026-04-11T13:44:01.002Z</time></trkpt><trkpt lat="45.0327443431804" lon="8.161773338570791"><ele>164.0</ele><time>2026-04-11T13:44:02.002Z</time></trkpt><trkpt lat="45.03263486158104" lon="8.161812409674942"><ele>164.0</ele><time>2026-04-11T13:44:03.002Z</time></trkpt><trkpt lat="45.03252740917136" lon="8.161848668915296"><ele>164.0</ele><time>2026-04-11T13:44:04.002Z</time></trkpt><trkpt lat="45.03242290339919" lon="8.161882099893479"><ele>164.0</ele><time>2026-04-11T13:44:05.002Z</time></trkpt><trkpt lat="45.03232236032324" lon="8.161913758537398"><ele>164.0</ele><time>2026-04-11T13:44:06.002Z</time></trkpt><trkpt lat="45.0322232050035" lon="8.161943325206714"><ele>164.0</ele><time>2026-04-11T13:44:07.002Z</time></trkpt><trkpt lat="45.03213265476821" lon="8.161973386957863"><ele>163.79999999999998</ele><time>2026-04-11T13:44:08.003Z</time></trkpt><trkpt lat="45.03204164635432" lon="8.16200436179241"><ele>163.6</ele><time>2026-04-11T13:44:09.003Z</time></trkpt><trkpt lat="45.031949699375275" lon="8.162038748311572"><ele>163.4</ele><time>2026-04-11T13:44:10.003Z</time></trkpt><trkpt lat="45.031856069027235" lon="8.162079775214059"><ele>163.2</ele><time>2026-04-11T13:44:11.003Z</time></trkpt><trkpt lat="45.03175951329925" lon="8.162122494446086"><ele>163.0</ele><time>2026-04-11T13:44:12.003Z</time></trkpt><trkpt lat="45.03166145676177" lon="8.16216385218801"><ele>163.2</ele><time>2026-04-11T13:44:13.003Z</time></trkpt><trkpt lat="45.031565403463944" lon="8.162207339510207"><ele>163.4</ele><time>2026-04-11T13:44:14.003Z</time></trkpt><trkpt lat="45.031472647968656" lon="8.162262376403287"><ele>163.6</ele><time>2026-04-11T13:44:15.003Z</time></trkpt><trkpt lat="45.031382463631175" lon="8.162317822033343"><ele>163.79999999999998</ele><time>2026-04-11T13:44:16.003Z</time></trkpt><trkpt lat="45.03129989693988" lon="8.162375682138947"><ele>164.0</ele><time>2026-04-11T13:44:17.003Z</time></trkpt><trkpt lat="45.03121848844772" lon="8.162420178978577"><ele>164.2</ele><time>2026-04-11T13:44:18.003Z</time></trkpt><trkpt lat="45.031124735449524" lon="8.162473564620239"><ele>164.39999999999998</ele><time>2026-04-11T13:44:19.003Z</time></trkpt><trkpt lat="45.03104071132917" lon="8.162530756573402"><ele>164.6</ele><time>2026-04-11T13:44:20.003Z</time></trkpt><trkpt lat="45.03095812377277" lon="8.16259032522139"><ele>164.8</ele><time>2026-04-11T13:44:21.003Z</time></trkpt><trkpt lat="45.030884888835416" lon="8.162654100375939"><ele>165.0</ele><time>2026-04-11T13:44:22.003Z</time></trkpt><trkpt lat="45.03081690442984" lon="8.162719015959311"><ele>164.83333333333334</ele><time>2026-04-11T13:44:23.003Z</time></trkpt><trkpt lat="45.03074973195455" lon="8.1627976112412"><ele>164.66666666666666</ele><time>2026-04-11T13:44:24.003Z</time></trkpt><trkpt lat="45.03069058911406" lon="8.16289440560237"><ele>164.5</ele><time>2026-04-11T13:44:25.003Z</time></trkpt><trkpt lat="45.03063366432743" lon="8.163010176866614"><ele>164.33333333333331</ele><time>2026-04-11T13:44:26.003Z</time></trkpt><trkpt lat="45.030574649808194" lon="8.163107645720471"><ele>164.16666666666666</ele><time>2026-04-11T13:44:27.003Z</time></trkpt><trkpt lat="45.03052270179793" lon="8.16319533580744"><ele>164.0</ele><time>2026-04-11T13:44:28.003Z</time></trkpt><trkpt lat="45.03048283897548" lon="8.163290439903552"><ele>163.83333333333331</ele><time>2026-04-11T13:44:29.003Z</time></trkpt><trkpt lat="45.03045332537277" lon="8.163390266252314"><ele>163.66666666666666</ele><time>2026-04-11T13:44:30.003Z</time></trkpt><trkpt lat="45.03041841928929" lon="8.16349543859679"><ele>163.5</ele><time>2026-04-11T13:44:31.003Z</time></trkpt><trkpt lat="45.030393006618255" lon="8.163595612200309"><ele>163.33333333333334</ele><time>2026-04-11T13:44:32.003Z</time></trkpt><trkpt lat="45.03037519401936" lon="8.16369398887796"><ele>163.16666666666669</ele><time>2026-04-11T13:44:33.003Z</time></trkpt><trkpt lat="45.0303668950761" lon="8.163802486548777"><ele>163.0</ele><time>2026-04-11T13:44:33.999Z</time></trkpt><trkpt lat="45.030369717599214" lon="8.163920300783559"><ele>162.83333333333334</ele><time>2026-04-11T13:44:34.999Z</time></trkpt><trkpt lat="45.03036417514703" lon="8.164052247038995"><ele>162.66666666666669</ele><time>2026-04-11T13:44:35.999Z</time></trkpt><trkpt lat="45.030356129026195" lon="8.164194663119515"><ele>162.5</ele><time>2026-04-11T13:44:36.999Z</time></trkpt><trkpt lat="45.030352954295026" lon="8.164319194521788"><ele>162.33333333333334</ele><time>2026-04-11T13:44:37.999Z</time></trkpt><trkpt lat="45.030357021440956" lon="8.164415741653524"><ele>162.16666666666666</ele><time>2026-04-11T13:44:38.999Z</time></trkpt><trkpt lat="45.03036251443086" lon="8.164525050185192"><ele>162.0</ele><time>2026-04-11T13:44:39.999Z</time></trkpt><trkpt lat="45.03036922487751" lon="8.164642878727475"><ele>162.0</ele><time>2026-04-11T13:44:40.999Z</time></trkpt><trkpt lat="45.03038109533509" lon="8.164812257802465"><ele>162.0</ele><time>2026-04-11T13:44:42.999Z</time></trkpt><trkpt lat="45.03042639760944" lon="8.164940486007996"><ele>162.0</ele><time>2026-04-11T13:44:44.999Z</time></trkpt><trkpt lat="45.0304723786901" lon="8.165005396129834"><ele>162.0</ele><time>2026-04-11T13:44:45.999Z</time></trkpt><trkpt lat="45.03055885878205" lon="8.165135837163227"><ele>162.0</ele><time>2026-04-11T13:44:47.999Z</time></trkpt><trkpt lat="45.030637880333046" lon="8.165292734851365"><ele>162.33333333333334</ele><time>2026-04-11T13:44:50Z</time></trkpt><trkpt lat="45.030692829603076" lon="8.165386966238694"><ele>162.66666666666666</ele><time>2026-04-11T13:44:51Z</time></trkpt><trkpt lat="45.03075304553761" lon="8.16548198966774"><ele>163.0</ele><time>2026-04-11T13:44:52Z</time></trkpt><trkpt lat="45.030804263484725" lon="8.165574733997577"><ele>163.33333333333331</ele><time>2026-04-11T13:44:53Z</time></trkpt><trkpt lat="45.030851694047364" lon="8.165664643251603"><ele>163.66666666666666</ele><time>2026-04-11T13:44:54Z</time></trkpt><trkpt lat="45.030901685835516" lon="8.16576630833615"><ele>164.0</ele><time>2026-04-11T13:44:55Z</time></trkpt><trkpt lat="45.03095652125712" lon="8.165867962234419"><ele>164.79999999999998</ele><time>2026-04-11T13:44:56Z</time></trkpt><trkpt lat="45.03100985429832" lon="8.165980418462954"><ele>165.6</ele><time>2026-04-11T13:44:57Z</time></trkpt><trkpt lat="45.03106066891749" lon="8.166105086503604"><ele>166.4</ele><time>2026-04-11T13:44:58Z</time></trkpt><trkpt lat="45.031108346705814" lon="8.166232019582003"><ele>167.2</ele><time>2026-04-11T13:44:59Z</time></trkpt><trkpt lat="45.031146351151556" lon="8.166343108299545"><ele>168.0</ele><time>2026-04-11T13:45:00Z</time></trkpt><trkpt lat="45.03118152707858" lon="8.16645136479852"><ele>167.66666666666666</ele><time>2026-04-11T13:45:01Z</time></trkpt><trkpt lat="45.03121429435311" lon="8.166557997707624"><ele>167.33333333333334</ele><time>2026-04-11T13:45:02Z</time></trkpt><trkpt lat="45.03124682152571" lon="8.16666693778161"><ele>167.0</ele><time>2026-04-11T13:45:03Z</time></trkpt><trkpt lat="45.03127276226618" lon="8.166754832579267"><ele>166.66666666666669</ele><time>2026-04-11T13:45:04Z</time></trkpt><trkpt lat="45.03131123708134" lon="8.166846767692938"><ele>166.33333333333334</ele><time>2026-04-11T13:45:05Z</time></trkpt><trkpt lat="45.03136576196922" lon="8.166935879680361"><ele>166.0</ele><time>2026-04-11T13:45:06Z</time></trkpt><trkpt lat="45.03143979206154" lon="8.167028896981249"><ele>166.0</ele><time>2026-04-11T13:45:07Z</time></trkpt><trkpt lat="45.031519967076896" lon="8.167122726036773"><ele>166.0</ele><time>2026-04-11T13:45:08Z</time></trkpt><trkpt lat="45.031605673294145" lon="8.167224717830106"><ele>166.0</ele><time>2026-04-11T13:45:09Z</time></trkpt><trkpt lat="45.031699896657834" lon="8.167328637469133"><ele>166.0</ele><time>2026-04-11T13:45:10Z</time></trkpt><trkpt lat="45.031789483335714" lon="8.167433445725221"><ele>166.66666666666669</ele><time>2026-04-11T13:45:11.001Z</time></trkpt><trkpt lat="45.03187194677649" lon="8.167533581601901"><ele>167.33333333333334</ele><time>2026-04-11T13:45:12.001Z</time></trkpt><trkpt lat="45.03194420946737" lon="8.167616531902192"><ele>168.0</ele><time>2026-04-11T13:45:13.001Z</time></trkpt><trkpt lat="45.03200530790063" lon="8.167687482038847"><ele>168.66666666666666</ele><time>2026-04-11T13:45:14.001Z</time></trkpt><trkpt lat="45.03207082902363" lon="8.167775610401188"><ele>169.33333333333331</ele><time>2026-04-11T13:45:15.001Z</time></trkpt><trkpt lat="45.03209900797014" lon="8.167861863023973"><ele>170.0</ele><time>2026-04-11T13:45:16.001Z</time></trkpt><trkpt lat="45.03210507660432" lon="8.167958591374552"><ele>170.0</ele><time>2026-04-11T13:45:17.001Z</time></trkpt><trkpt lat="45.03211187398434" lon="8.168084876924176"><ele>170.0</ele><time>2026-04-11T13:45:18.001Z</time></trkpt><trkpt lat="45.03213120088615" lon="8.168246856542307"><ele>170.0</ele><time>2026-04-11T13:45:19.001Z</time></trkpt><trkpt lat="45.03214830003955" lon="8.168405152380036"><ele>170.0</ele><time>2026-04-11T13:45:20.001Z</time></trkpt><trkpt lat="45.03215253885922" lon="8.168545226480857"><ele>170.0</ele><time>2026-04-11T13:45:21.001Z</time></trkpt><trkpt lat="45.03214287966923" lon="8.168692611332903"><ele>170.2</ele><time>2026-04-11T13:45:22.001Z</time></trkpt><trkpt lat="45.03211527007755" lon="8.168844600736609"><ele>170.4</ele><time>2026-04-11T13:45:23.001Z</time></trkpt><trkpt lat="45.032079646416165" lon="8.169003603005159"><ele>170.60000000000002</ele><time>2026-04-11T13:45:24.001Z</time></trkpt><trkpt lat="45.03205163701402" lon="8.169149605439502"><ele>170.8</ele><time>2026-04-11T13:45:25.001Z</time></trkpt><trkpt lat="45.03203227344325" lon="8.16929618799969"><ele>171.0</ele><time>2026-04-11T13:45:26.001Z</time></trkpt><trkpt lat="45.03202218839328" lon="8.169449329779978"><ele>171.0</ele><time>2026-04-11T13:45:27.001Z</time></trkpt><trkpt lat="45.03199995234658" lon="8.169602500566663"><ele>171.0</ele><time>2026-04-11T13:45:28.001Z</time></trkpt><trkpt lat="45.031965156646315" lon="8.169736720660783"><ele>171.0</ele><time>2026-04-11T13:45:29.001Z</time></trkpt><trkpt lat="45.03192243284613" lon="8.16986333942478"><ele>171.0</ele><time>2026-04-11T13:45:30.001Z</time></trkpt><trkpt lat="45.031883792533456" lon="8.169962236186135"><ele>171.0</ele><time>2026-04-11T13:45:31.001Z</time></trkpt><trkpt lat="45.03185797684599" lon="8.170058479888832"><ele>170.60000000000002</ele><time>2026-04-11T13:45:32.001Z</time></trkpt><trkpt lat="45.03187149725885" lon="8.170229004169213"><ele>170.2</ele><time>2026-04-11T13:45:34.001Z</time></trkpt><trkpt lat="45.03191936481398" lon="8.170298237244815"><ele>169.8</ele><time>2026-04-11T13:45:35.001Z</time></trkpt><trkpt lat="45.03198781332359" lon="8.170364314382214"><ele>169.39999999999998</ele><time>2026-04-11T13:45:36.001Z</time></trkpt><trkpt lat="45.03207726958121" lon="8.170434204054025"><ele>169.0</ele><time>2026-04-11T13:45:37.001Z</time></trkpt><trkpt lat="45.03217961801775" lon="8.17053335865495"><ele>169.0</ele><time>2026-04-11T13:45:38.001Z</time></trkpt><trkpt lat="45.032275080983915" lon="8.17062801246274"><ele>169.0</ele><time>2026-04-11T13:45:39.001Z</time></trkpt><trkpt lat="45.03237759588094" lon="8.170726880211888"><ele>169.0</ele><time>2026-04-11T13:45:40.002Z</time></trkpt><trkpt lat="45.032466542576216" lon="8.17081900615218"><ele>169.0</ele><time>2026-04-11T13:45:41.002Z</time></trkpt><trkpt lat="45.03256820855385" lon="8.170915807681839"><ele>171.25</ele><time>2026-04-11T13:45:42.002Z</time></trkpt><trkpt lat="45.03267673931379" lon="8.1710114239141"><ele>173.5</ele><time>2026-04-11T13:45:43.002Z</time></trkpt><trkpt lat="45.03279324362969" lon="8.17110187773452"><ele>175.75</ele><time>2026-04-11T13:45:44.002Z</time></trkpt><trkpt lat="45.03290913425916" lon="8.171184883901056"><ele>178.0</ele><time>2026-04-11T13:45:45.002Z</time></trkpt><trkpt lat="45.03302374840984" lon="8.171265920436818"><ele>178.0</ele><time>2026-04-11T13:45:46.002Z</time></trkpt><trkpt lat="45.033136239586696" lon="8.171346275794813"><ele>178.0</ele><time>2026-04-11T13:45:47.002Z</time></trkpt><trkpt lat="45.03323741734196" lon="8.171414580941118"><ele>178.0</ele><time>2026-04-11T13:45:48.002Z</time></trkpt><trkpt lat="45.033348659095324" lon="8.171488249238141"><ele>178.0</ele><time>2026-04-11T13:45:49.002Z</time></trkpt><trkpt lat="45.03345583530785" lon="8.171566470931285"><ele>177.25</ele><time>2026-04-11T13:45:50.002Z</time></trkpt><trkpt lat="45.03356373580694" lon="8.171657962276107"><ele>176.5</ele><time>2026-04-11T13:45:51.002Z</time></trkpt><trkpt lat="45.03366552283186" lon="8.171750361130528"><ele>175.75</ele><time>2026-04-11T13:45:52.002Z</time></trkpt><trkpt lat="45.03377062574386" lon="8.171849245888152"><ele>175.0</ele><time>2026-04-11T13:45:53.002Z</time></trkpt><trkpt lat="45.03387555200792" lon="8.17194623790616"><ele>175.0</ele><time>2026-04-11T13:45:54.002Z</time></trkpt><trkpt lat="45.03398279836469" lon="8.172037517876303"><ele>175.0</ele><time>2026-04-11T13:45:55.002Z</time></trkpt><trkpt lat="45.0340758981424" lon="8.172122102373708"><ele>175.0</ele><time>2026-04-11T13:45:56.002Z</time></trkpt><trkpt lat="45.034153727649546" lon="8.172189253964879"><ele>175.0</ele><time>2026-04-11T13:45:57.002Z</time></trkpt><trkpt lat="45.03420859834828" lon="8.172242428728666"><ele>175.0</ele><time>2026-04-11T13:45:58.002Z</time></trkpt><trkpt lat="45.034287061854506" lon="8.172312059166133"><ele>174.4</ele><time>2026-04-11T13:46:00.002Z</time></trkpt><trkpt lat="45.03440563816997" lon="8.172414482591995"><ele>173.8</ele><time>2026-04-11T13:46:02.002Z</time></trkpt><trkpt lat="45.0344910004616" lon="8.172482064406896"><ele>173.2</ele><time>2026-04-11T13:46:03.002Z</time></trkpt><trkpt lat="45.034583758778155" lon="8.17255915205931"><ele>172.6</ele><time>2026-04-11T13:46:04.002Z</time></trkpt><trkpt lat="45.034670764636296" lon="8.172640224925223"><ele>172.0</ele><time>2026-04-11T13:46:05.002Z</time></trkpt><trkpt lat="45.03475502348112" lon="8.172726867360176"><ele>172.0</ele><time>2026-04-11T13:46:06.002Z</time></trkpt><trkpt lat="45.03483503900324" lon="8.172815745983735"><ele>172.0</ele><time>2026-04-11T13:46:07.002Z</time></trkpt><trkpt lat="45.03492162794857" lon="8.172913421849874"><ele>172.0</ele><time>2026-04-11T13:46:08.002Z</time></trkpt><trkpt lat="45.035014626392645" lon="8.173022692283805"><ele>172.0</ele><time>2026-04-11T13:46:09.002Z</time></trkpt><trkpt lat="45.03509695869295" lon="8.17312306362357"><ele>172.0</ele><time>2026-04-11T13:46:10.002Z</time></trkpt><trkpt lat="45.035168667805586" lon="8.173210140902173"><ele>172.39999999999998</ele><time>2026-04-11T13:46:11.002Z</time></trkpt><trkpt lat="45.03523636297175" lon="8.173308083167832"><ele>172.79999999999998</ele><time>2026-04-11T13:46:12.002Z</time></trkpt><trkpt lat="45.035305315534494" lon="8.173416162494188"><ele>173.2</ele><time>2026-04-11T13:46:13.003Z</time></trkpt><trkpt lat="45.035378738725925" lon="8.173534804385595"><ele>173.6</ele><time>2026-04-11T13:46:14.003Z</time></trkpt><trkpt lat="45.0354494444977" lon="8.173656712520662"><ele>174.0</ele><time>2026-04-11T13:46:15.003Z</time></trkpt><trkpt lat="45.03552162157923" lon="8.173779550551066"><ele>174.0</ele><time>2026-04-11T13:46:16.003Z</time></trkpt><trkpt lat="45.03558620699518" lon="8.173890695715407"><ele>174.0</ele><time>2026-04-11T13:46:17.003Z</time></trkpt><trkpt lat="45.03565021777278" lon="8.174002619308343"><ele>174.0</ele><time>2026-04-11T13:46:18.003Z</time></trkpt><trkpt lat="45.035719574283334" lon="8.174107369627388"><ele>174.0</ele><time>2026-04-11T13:46:19.003Z</time></trkpt><trkpt lat="45.035791288772934" lon="8.174212647472336"><ele>174.0</ele><time>2026-04-11T13:46:20.003Z</time></trkpt><trkpt lat="45.035851488100924" lon="8.174303263324731"><ele>174.83333333333334</ele><time>2026-04-11T13:46:21.003Z</time></trkpt><trkpt lat="45.03591221130699" lon="8.17438210941136"><ele>175.66666666666666</ele><time>2026-04-11T13:46:22.003Z</time></trkpt><trkpt lat="45.03597160828465" lon="8.17443291320037"><ele>176.5</ele><time>2026-04-11T13:46:23.003Z</time></trkpt><trkpt lat="45.036039666981914" lon="8.174470095892795"><ele>177.33333333333331</ele><time>2026-04-11T13:46:24.003Z</time></trkpt><trkpt lat="45.036130164679285" lon="8.174502752302722"><ele>178.16666666666666</ele><time>2026-04-11T13:46:25.003Z</time></trkpt><trkpt lat="45.03622774612838" lon="8.174547818347351"><ele>179.0</ele><time>2026-04-11T13:46:26.003Z</time></trkpt><trkpt lat="45.036341252485904" lon="8.174607924479133"><ele>179.0</ele><time>2026-04-11T13:46:27.003Z</time></trkpt><trkpt lat="45.03646178835514" lon="8.174677247518547"><ele>179.0</ele><time>2026-04-11T13:46:28.003Z</time></trkpt><trkpt lat="45.036583895950116" lon="8.174748951297877"><ele>179.0</ele><time>2026-04-11T13:46:29.003Z</time></trkpt><trkpt lat="45.036700937090245" lon="8.174818139673622"><ele>179.0</ele><time>2026-04-11T13:46:30.003Z</time></trkpt><trkpt lat="45.03682109137548" lon="8.174893195042246"><ele>180.25</ele><time>2026-04-11T13:46:31.003Z</time></trkpt><trkpt lat="45.03693904993005" lon="8.17497618023207"><ele>181.5</ele><time>2026-04-11T13:46:32.003Z</time></trkpt><trkpt lat="45.037052682458956" lon="8.175068554559873"><ele>182.75</ele><time>2026-04-11T13:46:33.003Z</time></trkpt><trkpt lat="45.03717673860086" lon="8.175172491497117"><ele>184.0</ele><time>2026-04-11T13:46:34.003Z</time></trkpt><trkpt lat="45.03730194203466" lon="8.175281694413213"><ele>184.0</ele><time>2026-04-11T13:46:35.003Z</time></trkpt><trkpt lat="45.037429439307" lon="8.175385963307612"><ele>184.0</ele><time>2026-04-11T13:46:36.003Z</time></trkpt><trkpt lat="45.03754495577604" lon="8.175479417761983"><ele>184.0</ele><time>2026-04-11T13:46:37.003Z</time></trkpt><trkpt lat="45.03764887647723" lon="8.175565806378179"><ele>184.0</ele><time>2026-04-11T13:46:38.003Z</time></trkpt><trkpt lat="45.037741748692426" lon="8.175640224800008"><ele>184.83333333333334</ele><time>2026-04-11T13:46:39.003Z</time></trkpt><trkpt lat="45.03782399269047" lon="8.175704294923678"><ele>185.66666666666669</ele><time>2026-04-11T13:46:39.999Z</time></trkpt><trkpt lat="45.037884378349986" lon="8.175758142306346"><ele>186.5</ele><time>2026-04-11T13:46:40.999Z</time></trkpt><trkpt lat="45.03795278754437" lon="8.175882893189678"><ele>187.33333333333334</ele><time>2026-04-11T13:46:42.999Z</time></trkpt><trkpt lat="45.037981949489094" lon="8.175968952531623"><ele>188.16666666666666</ele><time>2026-04-11T13:46:43.999Z</time></trkpt><trkpt lat="45.03801176324657" lon="8.176073863903737"><ele>189.0</ele><time>2026-04-11T13:46:44.999Z</time></trkpt><trkpt lat="45.03804124129738" lon="8.176169595174526"><ele>189.0</ele><time>2026-04-11T13:46:45.999Z</time></trkpt><trkpt lat="45.038073358676215" lon="8.176264945563652"><ele>189.0</ele><time>2026-04-11T13:46:46.999Z</time></trkpt><trkpt lat="45.03811608439848" lon="8.176382359017394"><ele>189.0</ele><time>2026-04-11T13:46:48Z</time></trkpt><trkpt lat="45.03816469262118" lon="8.176502598283433"><ele>189.0</ele><time>2026-04-11T13:46:49Z</time></trkpt><trkpt lat="45.03821965371725" lon="8.176626655579447"><ele>189.0</ele><time>2026-04-11T13:46:50Z</time></trkpt><trkpt lat="45.03827672662837" lon="8.176742155444035"><ele>188.66666666666666</ele><time>2026-04-11T13:46:51Z</time></trkpt><trkpt lat="45.038334110807405" lon="8.17683726458887"><ele>188.33333333333334</ele><time>2026-04-11T13:46:52Z</time></trkpt><trkpt lat="45.03839668318352" lon="8.176924265828422"><ele>188.0</ele><time>2026-04-11T13:46:53Z</time></trkpt><trkpt lat="45.03846287220495" lon="8.177001071730391"><ele>187.66666666666669</ele><time>2026-04-11T13:46:54Z</time></trkpt><trkpt lat="45.038527769500796" lon="8.177064524257467"><ele>187.33333333333334</ele><time>2026-04-11T13:46:55Z</time></trkpt><trkpt lat="45.03860396527965" lon="8.17712730442843"><ele>187.0</ele><time>2026-04-11T13:46:56Z</time></trkpt><trkpt lat="45.038696399745426" lon="8.177194645168681"><ele>187.0</ele><time>2026-04-11T13:46:57Z</time></trkpt><trkpt lat="45.03879292952176" lon="8.177266490047815"><ele>187.0</ele><time>2026-04-11T13:46:58Z</time></trkpt><trkpt lat="45.03887937630979" lon="8.177346017298198"><ele>187.0</ele><time>2026-04-11T13:46:59Z</time></trkpt><trkpt lat="45.038946024186004" lon="8.17742644499381"><ele>187.0</ele><time>2026-04-11T13:47:00Z</time></trkpt><trkpt lat="45.038994062626465" lon="8.17749324190241"><ele>187.0</ele><time>2026-04-11T13:47:01Z</time></trkpt><trkpt lat="45.039105221306244" lon="8.177610087804446"><ele>187.0</ele><time>2026-04-11T13:47:03Z</time></trkpt><trkpt lat="45.03922000678343" lon="8.177703211351579"><ele>187.0</ele><time>2026-04-11T13:47:05Z</time></trkpt><trkpt lat="45.03930514833639" lon="8.17775088034628"><ele>187.0</ele><time>2026-04-11T13:47:06Z</time></trkpt><trkpt lat="45.03939218985107" lon="8.177783097270963"><ele>187.0</ele><time>2026-04-11T13:47:07Z</time></trkpt><trkpt lat="45.03948959080472" lon="8.177815852155014"><ele>187.0</ele><time>2026-04-11T13:47:08Z</time></trkpt><trkpt lat="45.03958769573405" lon="8.177851842538553"><ele>187.0</ele><time>2026-04-11T13:47:09Z</time></trkpt><trkpt lat="45.039671825085236" lon="8.177880965425826"><ele>187.0</ele><time>2026-04-11T13:47:10Z</time></trkpt><trkpt lat="45.03976010502981" lon="8.177908048799427"><ele>187.0</ele><time>2026-04-11T13:47:11Z</time></trkpt><trkpt lat="45.039843552217704" lon="8.177931439030102"><ele>187.0</ele><time>2026-04-11T13:47:12.001Z</time></trkpt><trkpt lat="45.03994134529798" lon="8.177961030171016"><ele>187.0</ele><time>2026-04-11T13:47:13.001Z</time></trkpt><trkpt lat="45.04002896150522" lon="8.177992212476633"><ele>187.33333333333334</ele><time>2026-04-11T13:47:14.001Z</time></trkpt><trkpt lat="45.04011892035091" lon="8.178024970708487"><ele>187.66666666666669</ele><time>2026-04-11T13:47:15.001Z</time></trkpt><trkpt lat="45.04020774199469" lon="8.178068868105614"><ele>188.0</ele><time>2026-04-11T13:47:16.001Z</time></trkpt><trkpt lat="45.0402899141461" lon="8.178107331298778"><ele>188.33333333333334</ele><time>2026-04-11T13:47:17.001Z</time></trkpt><trkpt lat="45.04037361778402" lon="8.178147321585188"><ele>188.66666666666666</ele><time>2026-04-11T13:47:18.001Z</time></trkpt><trkpt lat="45.040450258107526" lon="8.178187341293162"><ele>189.0</ele><time>2026-04-11T13:47:19.001Z</time></trkpt><trkpt lat="45.04055536835797" lon="8.178226975278697"><ele>189.0</ele><time>2026-04-11T13:47:20.001Z</time></trkpt><trkpt lat="45.040655150946755" lon="8.178273237096533"><ele>189.0</ele><time>2026-04-11T13:47:21.001Z</time></trkpt><trkpt lat="45.04075768652728" lon="8.178325421068434"><ele>189.0</ele><time>2026-04-11T13:47:22.001Z</time></trkpt><trkpt lat="45.04086169909653" lon="8.178384499376893"><ele>189.0</ele><time>2026-04-11T13:47:23.001Z</time></trkpt><trkpt lat="45.04096311481923" lon="8.178441568200988"><ele>189.0</ele><time>2026-04-11T13:47:24.001Z</time></trkpt><trkpt lat="45.04104534974038" lon="8.178488809608439"><ele>188.6</ele><time>2026-04-11T13:47:25.001Z</time></trkpt><trkpt lat="45.04113873334056" lon="8.178538481872188"><ele>188.2</ele><time>2026-04-11T13:47:26.001Z</time></trkpt><trkpt lat="45.0412290555348" lon="8.178589802091446"><ele>187.79999999999998</ele><time>2026-04-11T13:47:27.001Z</time></trkpt><trkpt lat="45.04132557749313" lon="8.178647147651025"><ele>187.39999999999998</ele><time>2026-04-11T13:47:28.001Z</time></trkpt><trkpt lat="45.041419644285504" lon="8.178701226109009"><ele>187.0</ele><time>2026-04-11T13:47:29.001Z</time></trkpt><trkpt lat="45.04150880822606" lon="8.17875925467814"><ele>187.0</ele><time>2026-04-11T13:47:30.001Z</time></trkpt><trkpt lat="45.04159452209795" lon="8.178828254245445"><ele>187.0</ele><time>2026-04-11T13:47:31.001Z</time></trkpt><trkpt lat="45.041662932466515" lon="8.178897147609263"><ele>187.0</ele><time>2026-04-11T13:47:32.001Z</time></trkpt><trkpt lat="45.041729303691255" lon="8.178957042058192"><ele>187.0</ele><time>2026-04-11T13:47:33.001Z</time></trkpt><trkpt lat="45.04181584348159" lon="8.179034938561017"><ele>187.0</ele><time>2026-04-11T13:47:34.001Z</time></trkpt><trkpt lat="45.04191034504384" lon="8.179119490644977"><ele>188.25</ele><time>2026-04-11T13:47:35.001Z</time></trkpt><trkpt lat="45.042005992055024" lon="8.179213379492028"><ele>189.5</ele><time>2026-04-11T13:47:36.001Z</time></trkpt><trkpt lat="45.04210807697024" lon="8.179315608427702"><ele>190.75</ele><time>2026-04-11T13:47:37.001Z</time></trkpt><trkpt lat="45.04220858705929" lon="8.179418848131847"><ele>192.0</ele><time>2026-04-11T13:47:38.001Z</time></trkpt><trkpt lat="45.042303733033506" lon="8.17951492247722"><ele>192.0</ele><time>2026-04-11T13:47:39.001Z</time></trkpt><trkpt lat="45.042400235239306" lon="8.179611207785978"><ele>192.0</ele><time>2026-04-11T13:47:40.001Z</time></trkpt><trkpt lat="45.04249464469389" lon="8.179701527187799"><ele>192.0</ele><time>2026-04-11T13:47:41.002Z</time></trkpt><trkpt lat="45.04258317269091" lon="8.17978823826487"><ele>192.0</ele><time>2026-04-11T13:47:42.002Z</time></trkpt><trkpt lat="45.04266276997089" lon="8.17987678852586"><ele>192.0</ele><time>2026-04-11T13:47:43.002Z</time></trkpt><trkpt lat="45.04273003103758" lon="8.179948376434076"><ele>192.5</ele><time>2026-04-11T13:47:44.002Z</time></trkpt><trkpt lat="45.04280016229967" lon="8.180011855541343"><ele>193.0</ele><time>2026-04-11T13:47:45.002Z</time></trkpt><trkpt lat="45.04286546517724" lon="8.180043376799432"><ele>193.5</ele><time>2026-04-11T13:47:46.002Z</time></trkpt><trkpt lat="45.04295465281029" lon="8.18007452698322"><ele>194.0</ele><time>2026-04-11T13:47:47.002Z</time></trkpt><trkpt lat="45.0430593379867" lon="8.180092899421279"><ele>194.5</ele><time>2026-04-11T13:47:48.002Z</time></trkpt><trkpt lat="45.04315185656109" lon="8.180121950330188"><ele>195.0</ele><time>2026-04-11T13:47:49.002Z</time></trkpt><trkpt lat="45.04325494899376" lon="8.1801702043582"><ele>194.2</ele><time>2026-04-11T13:47:50.002Z</time></trkpt><trkpt lat="45.04333477793662" lon="8.18023934697641"><ele>193.4</ele><time>2026-04-11T13:47:51.002Z</time></trkpt><trkpt lat="45.043415225290914" lon="8.180321507925878"><ele>192.60000000000002</ele><time>2026-04-11T13:47:52.002Z</time></trkpt><trkpt lat="45.04349403875665" lon="8.180423053380244"><ele>191.8</ele><time>2026-04-11T13:47:53.002Z</time></trkpt><trkpt lat="45.04356358017437" lon="8.18053635072659"><ele>191.0</ele><time>2026-04-11T13:47:54.002Z</time></trkpt><trkpt lat="45.04364760821924" lon="8.180671587263419"><ele>191.75</ele><time>2026-04-11T13:47:55.002Z</time></trkpt><trkpt lat="45.04373394066917" lon="8.180818641770353"><ele>192.5</ele><time>2026-04-11T13:47:56.002Z</time></trkpt><trkpt lat="45.04381948640922" lon="8.18096913932875"><ele>193.25</ele><time>2026-04-11T13:47:57.002Z</time></trkpt><trkpt lat="45.04389708349913" lon="8.181117961273415"><ele>194.0</ele><time>2026-04-11T13:47:58.002Z</time></trkpt><trkpt lat="45.04396128543753" lon="8.181245469612655"><ele>194.0</ele><time>2026-04-11T13:47:59.002Z</time></trkpt><trkpt lat="45.04401694644965" lon="8.181361478795758"><ele>194.0</ele><time>2026-04-11T13:48:00.002Z</time></trkpt><trkpt lat="45.04406900205064" lon="8.181466527841378"><ele>194.0</ele><time>2026-04-11T13:48:01.002Z</time></trkpt><trkpt lat="45.04413196783525" lon="8.181561758901717"><ele>194.0</ele><time>2026-04-11T13:48:02.002Z</time></trkpt><trkpt lat="45.04421009068485" lon="8.181674462556854"><ele>194.0</ele><time>2026-04-11T13:48:03.002Z</time></trkpt><trkpt lat="45.04428196089712" lon="8.181792640349569"><ele>194.0</ele><time>2026-04-11T13:48:04.002Z</time></trkpt><trkpt lat="45.04433569093667" lon="8.181919430501782"><ele>194.0</ele><time>2026-04-11T13:48:05.002Z</time></trkpt><trkpt lat="45.04438642519087" lon="8.182065103007545"><ele>194.0</ele><time>2026-04-11T13:48:06.002Z</time></trkpt><trkpt lat="45.04443565647385" lon="8.18220167217873"><ele>194.0</ele><time>2026-04-11T13:48:07.002Z</time></trkpt><trkpt lat="45.04448523252325" lon="8.182318783517522"><ele>194.0</ele><time>2026-04-11T13:48:08.002Z</time></trkpt><trkpt lat="45.04454126815178" lon="8.182427563158894"><ele>194.50000000000003</ele><time>2026-04-11T13:48:09.002Z</time></trkpt><trkpt lat="45.044601815575106" lon="8.182516078136377"><ele>195.0</ele><time>2026-04-11T13:48:10.002Z</time></trkpt><trkpt lat="45.04466447965052" lon="8.182586395938024"><ele>195.5</ele><time>2026-04-11T13:48:11.002Z</time></trkpt><trkpt lat="45.044721892838396" lon="8.182628295607106"><ele>196.0</ele><time>2026-04-11T13:48:12.002Z</time></trkpt><trkpt lat="45.044817833900325" lon="8.182695478222877"><ele>196.50000000000003</ele><time>2026-04-11T13:48:14.003Z</time></trkpt><trkpt lat="45.044899609362936" lon="8.182762431100759"><ele>197.0</ele><time>2026-04-11T13:48:15.003Z</time></trkpt><trkpt lat="45.04498682904451" lon="8.182833745254928"><ele>197.16666666666669</ele><time>2026-04-11T13:48:16.003Z</time></trkpt><trkpt lat="45.045054858742816" lon="8.182898780758206"><ele>197.33333333333334</ele><time>2026-04-11T13:48:17.003Z</time></trkpt><trkpt lat="45.04510462571446" lon="8.182959403387825"><ele>197.5</ele><time>2026-04-11T13:48:18.003Z</time></trkpt><trkpt lat="45.045154582024324" lon="8.183043194811951"><ele>197.66666666666669</ele><time>2026-04-11T13:48:19.003Z</time></trkpt><trkpt lat="45.04518383996594" lon="8.183131355198702"><ele>197.83333333333334</ele><time>2026-04-11T13:48:20.003Z</time></trkpt><trkpt lat="45.045203303510895" lon="8.18323937566968"><ele>198.0</ele><time>2026-04-11T13:48:21.003Z</time></trkpt><trkpt lat="45.045215027117145" lon="8.183359530972677"><ele>198.0</ele><time>2026-04-11T13:48:22.003Z</time></trkpt><trkpt lat="45.04522579086152" lon="8.183453875225837"><ele>198.0</ele><time>2026-04-11T13:48:23.003Z</time></trkpt><trkpt lat="45.045291089849336" lon="8.183539667716198"><ele>198.0</ele><time>2026-04-11T13:48:25.003Z</time></trkpt><trkpt lat="45.04541778971799" lon="8.183547200180268"><ele>198.0</ele><time>2026-04-11T13:48:27.003Z</time></trkpt><trkpt lat="45.04551261309459" lon="8.18354683104949"><ele>198.0</ele><time>2026-04-11T13:48:28.003Z</time></trkpt><trkpt lat="45.0456213133288" lon="8.183549074644716"><ele>198.0</ele><time>2026-04-11T13:48:29.003Z</time></trkpt><trkpt lat="45.04570624213472" lon="8.183552766525933"><ele>198.0</ele><time>2026-04-11T13:48:30.003Z</time></trkpt><trkpt lat="45.04578750436907" lon="8.183570273268447"><ele>198.0</ele><time>2026-04-11T13:48:31.003Z</time></trkpt><trkpt lat="45.04586426171117" lon="8.183601256480891"><ele>198.0</ele><time>2026-04-11T13:48:32.003Z</time></trkpt><trkpt lat="45.04593872302297" lon="8.18364001122665"><ele>198.0</ele><time>2026-04-11T13:48:33.003Z</time></trkpt><trkpt lat="45.0460129227579" lon="8.183680813517055"><ele>198.0</ele><time>2026-04-11T13:48:34.003Z</time></trkpt><trkpt lat="45.04610048440434" lon="8.18371299520328"><ele>198.0</ele><time>2026-04-11T13:48:36.003Z</time></trkpt><trkpt lat="45.04617654291121" lon="8.183705196664866"><ele>198.0</ele><time>2026-04-11T13:48:39.003Z</time></trkpt><trkpt lat="45.04624684829445" lon="8.183763474968982"><ele>198.0</ele><time>2026-04-11T13:48:42.003Z</time></trkpt><trkpt lat="45.0462989141427" lon="8.183850370413548"><ele>198.0</ele><time>2026-04-11T13:48:44.003Z</time></trkpt><trkpt lat="45.046375460942954" lon="8.183914240496273"><ele>198.0</ele><time>2026-04-11T13:48:46Z</time></trkpt><trkpt lat="45.04643318814213" lon="8.183950191813087"><ele>198.0</ele><time>2026-04-11T13:48:47Z</time></trkpt><trkpt lat="45.046499508753826" lon="8.183996804536873"><ele>199.33333333333334</ele><time>2026-04-11T13:48:48Z</time></trkpt><trkpt lat="45.04656314098513" lon="8.184038968897749"><ele>200.66666666666669</ele><time>2026-04-11T13:48:49Z</time></trkpt><trkpt lat="45.04663731018837" lon="8.184087853729125"><ele>202.0</ele><time>2026-04-11T13:48:50Z</time></trkpt><trkpt lat="45.04671447011403" lon="8.184135692493596"><ele>203.33333333333334</ele><time>2026-04-11T13:48:51Z</time></trkpt><trkpt lat="45.0467734245353" lon="8.18417073873484"><ele>204.66666666666669</ele><time>2026-04-11T13:48:52Z</time></trkpt><trkpt lat="45.04684676555618" lon="8.184211551960344"><ele>206.0</ele><time>2026-04-11T13:48:53Z</time></trkpt><trkpt lat="45.046914224547116" lon="8.18425230814364"><ele>206.0</ele><time>2026-04-11T13:48:54Z</time></trkpt><trkpt lat="45.04697406636908" lon="8.184289111287347"><ele>206.0</ele><time>2026-04-11T13:48:55Z</time></trkpt><trkpt lat="45.0470994140981" lon="8.184379792760126"><ele>206.0</ele><time>2026-04-11T13:48:57Z</time></trkpt><trkpt lat="45.04717531369017" lon="8.184435352123755"><ele>206.0</ele><time>2026-04-11T13:48:58Z</time></trkpt><trkpt lat="45.0472388065922" lon="8.184483557200549"><ele>206.0</ele><time>2026-04-11T13:48:59Z</time></trkpt><trkpt lat="45.04733540286808" lon="8.184566527920934"><ele>206.00000000000003</ele><time>2026-04-11T13:49:01Z</time></trkpt><trkpt lat="45.047413585543914" lon="8.18461165611917"><ele>206.0</ele><time>2026-04-11T13:49:03Z</time></trkpt><trkpt lat="45.04747725224323" lon="8.184561935773038"><ele>206.0</ele><time>2026-04-11T13:49:05Z</time></trkpt><trkpt lat="45.0475201105508" lon="8.184439198832406"><ele>206.0</ele><time>2026-04-11T13:49:07Z</time></trkpt><trkpt lat="45.047535839982764" lon="8.184330850519363"><ele>206.00000000000003</ele><time>2026-04-11T13:49:08Z</time></trkpt><trkpt lat="45.04755928181074" lon="8.184211038876679"><ele>206.0</ele><time>2026-04-11T13:49:09Z</time></trkpt><trkpt lat="45.04758518857401" lon="8.184095470159388"><ele>205.50000000000003</ele><time>2026-04-11T13:49:10Z</time></trkpt><trkpt lat="45.04760442308333" lon="8.184006845857603"><ele>205.0</ele><time>2026-04-11T13:49:11Z</time></trkpt><trkpt lat="45.04762426643581" lon="8.18391716408032"><ele>204.5</ele><time>2026-04-11T13:49:12Z</time></trkpt><trkpt lat="45.04764784281124" lon="8.183825375556612"><ele>204.0</ele><time>2026-04-11T13:49:13Z</time></trkpt><trkpt lat="45.047673145020475" lon="8.18372400086498"><ele>203.50000000000003</ele><time>2026-04-11T13:49:14Z</time></trkpt><trkpt lat="45.047709504592724" lon="8.18357712679569"><ele>203.0</ele><time>2026-04-11T13:49:15Z</time></trkpt><trkpt lat="45.047743953938124" lon="8.18342889249212"><ele>203.0</ele><time>2026-04-11T13:49:16Z</time></trkpt><trkpt lat="45.04777299014198" lon="8.183312189117364"><ele>203.0</ele><time>2026-04-11T13:49:17Z</time></trkpt><trkpt lat="45.04780004227764" lon="8.183223113458824"><ele>203.0</ele><time>2026-04-11T13:49:18.001Z</time></trkpt><trkpt lat="45.047877510758205" lon="8.183123600883881"><ele>203.0</ele><time>2026-04-11T13:49:20.001Z</time></trkpt><trkpt lat="45.04799156472819" lon="8.183121617637552"><ele>203.0</ele><time>2026-04-11T13:49:22.001Z</time></trkpt><trkpt lat="45.04807489637482" lon="8.1831323963094"><ele>203.60000000000002</ele><time>2026-04-11T13:49:23.001Z</time></trkpt><trkpt lat="45.04817176345989" lon="8.18313903816329"><ele>204.20000000000002</ele><time>2026-04-11T13:49:24.001Z</time></trkpt><trkpt lat="45.048259201917475" lon="8.183144387278114"><ele>204.8</ele><time>2026-04-11T13:49:25.001Z</time></trkpt><trkpt lat="45.04835324433425" lon="8.183148652148141"><ele>205.4</ele><time>2026-04-11T13:49:26.001Z</time></trkpt><trkpt lat="45.0484358255382" lon="8.183144945363725"><ele>206.0</ele><time>2026-04-11T13:49:27.001Z</time></trkpt><trkpt lat="45.04852810979427" lon="8.18313642521116"><ele>208.00000000000003</ele><time>2026-04-11T13:49:28.001Z</time></trkpt><trkpt lat="45.04862064631003" lon="8.183128698217606"><ele>210.0</ele><time>2026-04-11T13:49:29.001Z</time></trkpt><trkpt lat="45.04869569626214" lon="8.183121608509623"><ele>212.0</ele><time>2026-04-11T13:49:30.001Z</time></trkpt><trkpt lat="45.048776569229226" lon="8.183117054169973"><ele>214.0</ele><time>2026-04-11T13:49:31.001Z</time></trkpt><trkpt lat="45.04887236106781" lon="8.183113804712777"><ele>216.00000000000003</ele><time>2026-04-11T13:49:32.001Z</time></trkpt><trkpt lat="45.048972301964206" lon="8.183115363118977"><ele>218.0</ele><time>2026-04-11T13:49:33.001Z</time></trkpt><trkpt lat="45.04906642507511" lon="8.1831174894824"><ele>218.2</ele><time>2026-04-11T13:49:34.001Z</time></trkpt><trkpt lat="45.04914142695905" lon="8.183111120081518"><ele>218.4</ele><time>2026-04-11T13:49:35.001Z</time></trkpt><trkpt lat="45.049234212450614" lon="8.1831001042178"><ele>218.59999999999997</ele><time>2026-04-11T13:49:36.001Z</time></trkpt><trkpt lat="45.04932789986781" lon="8.183079924643858"><ele>218.79999999999998</ele><time>2026-04-11T13:49:37.001Z</time></trkpt><trkpt lat="45.049423117116" lon="8.183055207902404"><ele>219.0</ele><time>2026-04-11T13:49:38.001Z</time></trkpt><trkpt lat="45.04952299917806" lon="8.183029597752997"><ele>219.0</ele><time>2026-04-11T13:49:39.001Z</time></trkpt><trkpt lat="45.04962158553194" lon="8.183001210466905"><ele>218.99999999999997</ele><time>2026-04-11T13:49:40.001Z</time></trkpt><trkpt lat="45.049719254006604" lon="8.1829667247202"><ele>218.99999999999997</ele><time>2026-04-11T13:49:41.001Z</time></trkpt><trkpt lat="45.04981414786708" lon="8.182932956469894"><ele>219.0</ele><time>2026-04-11T13:49:42.001Z</time></trkpt><trkpt lat="45.04991668923977" lon="8.182906403840558"><ele>219.0</ele><time>2026-04-11T13:49:43.001Z</time></trkpt><trkpt lat="45.0500176680956" lon="8.182893868896004"><ele>219.2</ele><time>2026-04-11T13:49:44.001Z</time></trkpt><trkpt lat="45.050115807316736" lon="8.182891883686585"><ele>219.39999999999998</ele><time>2026-04-11T13:49:45.001Z</time></trkpt><trkpt lat="45.050214962892994" lon="8.182890194487936"><ele>219.6</ele><time>2026-04-11T13:49:46.001Z</time></trkpt><trkpt lat="45.050312547952245" lon="8.18288092943735"><ele>219.8</ele><time>2026-04-11T13:49:47.001Z</time></trkpt><trkpt lat="45.05041234101001" lon="8.182862616004368"><ele>220.0</ele><time>2026-04-11T13:49:48.001Z</time></trkpt><trkpt lat="45.05050935100129" lon="8.18283801672676"><ele>220.0</ele><time>2026-04-11T13:49:49.001Z</time></trkpt><trkpt lat="45.050592966204" lon="8.182812218397839"><ele>220.0</ele><time>2026-04-11T13:49:50.002Z</time></trkpt><trkpt lat="45.0506803345725" lon="8.18278021500046"><ele>220.0</ele><time>2026-04-11T13:49:51.002Z</time></trkpt><trkpt lat="45.05076947847321" lon="8.18274110400869"><ele>220.0</ele><time>2026-04-11T13:49:52.002Z</time></trkpt><trkpt lat="45.050862693922696" lon="8.182701284654033"><ele>220.0</ele><time>2026-04-11T13:49:53.002Z</time></trkpt><trkpt lat="45.050950975704225" lon="8.18266159352396"><ele>219.4</ele><time>2026-04-11T13:49:54.002Z</time></trkpt><trkpt lat="45.051055601467915" lon="8.182626934681043"><ele>218.8</ele><time>2026-04-11T13:49:55.002Z</time></trkpt><trkpt lat="45.05115643419073" lon="8.182609683956116"><ele>218.2</ele><time>2026-04-11T13:49:56.002Z</time></trkpt><trkpt lat="45.05126189885624" lon="8.182611608419474"><ele>217.6</ele><time>2026-04-11T13:49:57.002Z</time></trkpt><trkpt lat="45.05135237989343" lon="8.182620143959404"><ele>217.0</ele><time>2026-04-11T13:49:58.002Z</time></trkpt><trkpt lat="45.05144325965792" lon="8.182629750170271"><ele>216.99999999999997</ele><time>2026-04-11T13:49:59.002Z</time></trkpt><trkpt lat="45.051545255845525" lon="8.182638847818355"><ele>217.0</ele><time>2026-04-11T13:50:00.002Z</time></trkpt><trkpt lat="45.0516472755437" lon="8.182647914609332"><ele>217.0</ele><time>2026-04-11T13:50:01.002Z</time></trkpt><trkpt lat="45.05172351928607" lon="8.182649328331989"><ele>217.0</ele><time>2026-04-11T13:50:02.002Z</time></trkpt><trkpt lat="45.051805976131064" lon="8.182647956889527"><ele>216.99999999999997</ele><time>2026-04-11T13:50:03.002Z</time></trkpt><trkpt lat="45.05188670301006" lon="8.182641162188116"><ele>217.0</ele><time>2026-04-11T13:50:04.002Z</time></trkpt><trkpt lat="45.05200759764684" lon="8.182613464852418"><ele>217.49999999999997</ele><time>2026-04-11T13:50:06.002Z</time></trkpt><trkpt lat="45.0520702529731" lon="8.182640007304885"><ele>218.0</ele><time>2026-04-11T13:50:08.002Z</time></trkpt><trkpt lat="45.05209315137512" lon="8.182766727026348"><ele>218.5</ele><time>2026-04-11T13:50:10.002Z</time></trkpt><trkpt lat="45.05209471138364" lon="8.182884341773976"><ele>219.0</ele><time>2026-04-11T13:50:11.002Z</time></trkpt><trkpt lat="45.05209427412574" lon="8.183011391610714"><ele>219.49999999999997</ele><time>2026-04-11T13:50:12.002Z</time></trkpt><trkpt lat="45.05210267416534" lon="8.183172839854267"><ele>220.0</ele><time>2026-04-11T13:50:13.002Z</time></trkpt><trkpt lat="45.05212197343128" lon="8.183334755338509"><ele>218.8</ele><time>2026-04-11T13:50:14.002Z</time></trkpt><trkpt lat="45.05213690502311" lon="8.183512851994088"><ele>217.6</ele><time>2026-04-11T13:50:15.002Z</time></trkpt><trkpt lat="45.052150061931876" lon="8.183673631118706"><ele>216.39999999999998</ele><time>2026-04-11T13:50:16.002Z</time></trkpt><trkpt lat="45.05215513840643" lon="8.183802307541365"><ele>215.2</ele><time>2026-04-11T13:50:17.002Z</time></trkpt><trkpt lat="45.052137017864204" lon="8.183915091374711"><ele>214.0</ele><time>2026-04-11T13:50:18.002Z</time></trkpt><trkpt lat="45.05210863238272" lon="8.18400188232308"><ele>215.00000000000003</ele><time>2026-04-11T13:50:19.002Z</time></trkpt><trkpt lat="45.05207666739453" lon="8.18408306178052"><ele>216.0</ele><time>2026-04-11T13:50:20.002Z</time></trkpt><trkpt lat="45.05204228643735" lon="8.184167310993486"><ele>217.0</ele><time>2026-04-11T13:50:22.002Z</time></trkpt><trkpt lat="45.05198025494353" lon="8.18426507379625"><ele>218.0</ele><time>2026-04-11T13:50:33.003Z</time></trkpt><trkpt lat="45.05190495587502" lon="8.184262137353395"><ele>219.0</ele><time>2026-04-11T13:50:34.003Z</time></trkpt><trkpt lat="45.05182914231346" lon="8.184259140242279"><ele>220.00000000000003</ele><time>2026-04-11T13:50:35.003Z</time></trkpt><trkpt lat="45.05175914330995" lon="8.18426757374311"><ele>221.0</ele><time>2026-04-11T13:50:36.003Z</time></trkpt><trkpt lat="45.05169620595595" lon="8.18428489425001"><ele>220.8</ele><time>2026-04-11T13:50:37.003Z</time></trkpt><trkpt lat="45.05160212988224" lon="8.18435040380773"><ele>220.60000000000002</ele><time>2026-04-11T13:50:39.003Z</time></trkpt><trkpt lat="45.051533590387265" lon="8.18445235433185"><ele>220.4</ele><time>2026-04-11T13:50:41.003Z</time></trkpt><trkpt lat="45.051506041749136" lon="8.184598078711227"><ele>220.2</ele><time>2026-04-11T13:50:43.003Z</time></trkpt><trkpt lat="45.05152080148268" lon="8.184752248961214"><ele>220.0</ele><time>2026-04-11T13:50:45.003Z</time></trkpt><trkpt lat="45.05157575404797" lon="8.184890938128646"><ele>221.0</ele><time>2026-04-11T13:50:47.003Z</time></trkpt><trkpt lat="45.05166944298387" lon="8.184995772455476"><ele>222.0</ele><time>2026-04-11T13:50:49.003Z</time></trkpt><trkpt lat="45.05177747815863" lon="8.185053498417648"><ele>223.0</ele><time>2026-04-11T13:50:51.003Z</time></trkpt><trkpt lat="45.05185530297118" lon="8.185098834141307"><ele>224.0</ele><time>2026-04-11T13:50:53Z</time></trkpt><trkpt lat="45.051903041915416" lon="8.18517984679045"><ele>225.0</ele><time>2026-04-11T13:50:56Z</time></trkpt><trkpt lat="45.05183925192785" lon="8.185100726319257"><ele>223.75</ele><time>2026-04-11T13:51:26.001Z</time></trkpt><trkpt lat="45.05159567136879" lon="8.184872177756153"><ele>222.5</ele><time>2026-04-11T13:51:30.001Z</time></trkpt><trkpt lat="45.051552748638066" lon="8.184790102952839"><ele>221.25</ele><time>2026-04-11T13:51:31.001Z</time></trkpt><trkpt lat="45.05152305087376" lon="8.18469579017804"><ele>220.0</ele><time>2026-04-11T13:51:32.001Z</time></trkpt><trkpt lat="45.051521347930446" lon="8.184594637000902"><ele>220.16666666666666</ele><time>2026-04-11T13:51:33.001Z</time></trkpt><trkpt lat="45.051541712505326" lon="8.184490427336597"><ele>220.33333333333331</ele><time>2026-04-11T13:51:34.001Z</time></trkpt><trkpt lat="45.051581858503965" lon="8.184394041450826"><ele>220.5</ele><time>2026-04-11T13:51:35.001Z</time></trkpt><trkpt lat="45.05164012538056" lon="8.184328822544352"><ele>220.66666666666669</ele><time>2026-04-11T13:51:36.001Z</time></trkpt><trkpt lat="45.05172558966652" lon="8.184310753999675"><ele>220.83333333333334</ele><time>2026-04-11T13:51:37.001Z</time></trkpt><trkpt lat="45.05181235930677" lon="8.184300539234767"><ele>221.0</ele><time>2026-04-11T13:51:38.001Z</time></trkpt><trkpt lat="45.05190847422889" lon="8.184285551603274"><ele>221.0</ele><time>2026-04-11T13:51:39.001Z</time></trkpt><trkpt lat="45.05200873383128" lon="8.184266079394988"><ele>221.00000000000003</ele><time>2026-04-11T13:51:40.001Z</time></trkpt><trkpt lat="45.05210454121581" lon="8.18424547838784"><ele>221.00000000000003</ele><time>2026-04-11T13:51:41.001Z</time></trkpt><trkpt lat="45.05219351949304" lon="8.18422426125175"><ele>221.0</ele><time>2026-04-11T13:51:42.001Z</time></trkpt><trkpt lat="45.052288399737456" lon="8.184204879083364"><ele>221.0</ele><time>2026-04-11T13:51:43.001Z</time></trkpt><trkpt lat="45.052388238139486" lon="8.184181826297845"><ele>221.4</ele><time>2026-04-11T13:51:44.001Z</time></trkpt><trkpt lat="45.052482963899166" lon="8.184157425911645"><ele>221.8</ele><time>2026-04-11T13:51:45.001Z</time></trkpt><trkpt lat="45.052577151350306" lon="8.184134816125383"><ele>222.20000000000002</ele><time>2026-04-11T13:51:46.001Z</time></trkpt><trkpt lat="45.05266589999887" lon="8.18411557353068"><ele>222.60000000000002</ele><time>2026-04-11T13:51:47.001Z</time></trkpt><trkpt lat="45.05274303003767" lon="8.184102403439004"><ele>223.0</ele><time>2026-04-11T13:51:48.001Z</time></trkpt><trkpt lat="45.05285021393881" lon="8.18408557042835"><ele>223.0</ele><time>2026-04-11T13:51:50.001Z</time></trkpt><trkpt lat="45.05293629834526" lon="8.184106270553658"><ele>223.0</ele><time>2026-04-11T13:51:53.001Z</time></trkpt><trkpt lat="45.05301554194991" lon="8.184074346583827"><ele>223.0</ele><time>2026-04-11T13:51:55.002Z</time></trkpt><trkpt lat="45.05312000280593" lon="8.184023926418382"><ele>223.0</ele><time>2026-04-11T13:51:57.002Z</time></trkpt><trkpt lat="45.05320848079915" lon="8.183962505143992"><ele>223.0</ele><time>2026-04-11T13:51:59.002Z</time></trkpt><trkpt lat="45.053288044915426" lon="8.183916839121064"><ele>223.66666666666666</ele><time>2026-04-11T13:52:00.002Z</time></trkpt><trkpt lat="45.053363754489844" lon="8.183874571671392"><ele>224.33333333333331</ele><time>2026-04-11T13:52:01.002Z</time></trkpt><trkpt lat="45.05344548179711" lon="8.18383168714813"><ele>225.0</ele><time>2026-04-11T13:52:02.002Z</time></trkpt><trkpt lat="45.05371471330901" lon="8.18432231676688"><ele>225.2</ele><time>2026-04-11T13:52:03.002Z</time></trkpt><trkpt lat="45.05380722850634" lon="8.184341622403553"><ele>225.4</ele><time>2026-04-11T13:52:04.002Z</time></trkpt><trkpt lat="45.053902854204225" lon="8.184382235976466"><ele>225.60000000000002</ele><time>2026-04-11T13:52:05.002Z</time></trkpt><trkpt lat="45.05399620778787" lon="8.1844261324016"><ele>225.8</ele><time>2026-04-11T13:52:06.002Z</time></trkpt><trkpt lat="45.054091800344004" lon="8.18447128833688"><ele>226.0</ele><time>2026-04-11T13:52:07.002Z</time></trkpt><trkpt lat="45.05419001460055" lon="8.18451449332037"><ele>226.60000000000002</ele><time>2026-04-11T13:52:08.002Z</time></trkpt><trkpt lat="45.054277148118366" lon="8.184538013540486"><ele>227.20000000000002</ele><time>2026-04-11T13:52:09.002Z</time></trkpt><trkpt lat="45.0543824469707" lon="8.18456750743102"><ele>227.79999999999998</ele><time>2026-04-11T13:52:10.002Z</time></trkpt><trkpt lat="45.054482954763245" lon="8.184599377442696"><ele>228.39999999999998</ele><time>2026-04-11T13:52:11.002Z</time></trkpt><trkpt lat="45.05458385636271" lon="8.18463569120129"><ele>229.0</ele><time>2026-04-11T13:52:12.002Z</time></trkpt><trkpt lat="45.054687352413495" lon="8.184687156319656"><ele>228.99999999999997</ele><time>2026-04-11T13:52:13.002Z</time></trkpt><trkpt lat="45.0547730137749" lon="8.184731456575868"><ele>229.0</ele><time>2026-04-11T13:52:14.002Z</time></trkpt><trkpt lat="45.05485067101154" lon="8.184764802268251"><ele>229.0</ele><time>2026-04-11T13:52:15.002Z</time></trkpt><trkpt lat="45.05492396170561" lon="8.184787926343633"><ele>229.0</ele><time>2026-04-11T13:52:16.002Z</time></trkpt><trkpt lat="45.054989969551656" lon="8.184807407851459"><ele>228.99999999999997</ele><time>2026-04-11T13:52:17.002Z</time></trkpt><trkpt lat="45.05506963832106" lon="8.184823035884984"><ele>229.0</ele><time>2026-04-11T13:52:18.002Z</time></trkpt><trkpt lat="45.05513803434744" lon="8.184820472682066"><ele>230.85714285714283</ele><time>2026-04-11T13:52:19.002Z</time></trkpt><trkpt lat="45.055216142335205" lon="8.184806605624201"><ele>232.71428571428572</ele><time>2026-04-11T13:52:20.002Z</time></trkpt><trkpt lat="45.05528078622299" lon="8.184807139344695"><ele>234.57142857142856</ele><time>2026-04-11T13:52:21.002Z</time></trkpt><trkpt lat="45.05536552915489" lon="8.184805869288965"><ele>236.42857142857142</ele><time>2026-04-11T13:52:22.002Z</time></trkpt><trkpt lat="45.05543477962445" lon="8.184817957516115"><ele>238.28571428571428</ele><time>2026-04-11T13:52:23.002Z</time></trkpt><trkpt lat="45.055497517269686" lon="8.184872368279395"><ele>240.14285714285714</ele><time>2026-04-11T13:52:25.002Z</time></trkpt><trkpt lat="45.05550795982937" lon="8.184965332919235"><ele>242.0</ele><time>2026-04-11T13:52:27.002Z</time></trkpt><trkpt lat="45.055508131936136" lon="8.18507135543183"><ele>242.16666666666669</ele><time>2026-04-11T13:52:29.003Z</time></trkpt><trkpt lat="45.05551516076442" lon="8.185189257013292"><ele>242.33333333333334</ele><time>2026-04-11T13:52:32.003Z</time></trkpt><trkpt lat="45.0555052497555" lon="8.185294744647763"><ele>242.5</ele><time>2026-04-11T13:52:35.003Z</time></trkpt><trkpt lat="45.05550611868789" lon="8.185399260180233"><ele>242.66666666666669</ele><time>2026-04-11T13:52:42.003Z</time></trkpt><trkpt lat="45.05551421071565" lon="8.185516439574883"><ele>242.83333333333334</ele><time>2026-04-11T13:52:44.003Z</time></trkpt><trkpt lat="45.055530234174064" lon="8.18560532772402"><ele>243.0</ele><time>2026-04-11T13:52:46.003Z</time></trkpt><trkpt lat="45.055555871978456" lon="8.18572364704033"><ele>242.66666666666666</ele><time>2026-04-11T13:52:49.003Z</time></trkpt><trkpt lat="45.055583909997" lon="8.185839992885489"><ele>242.33333333333331</ele><time>2026-04-11T13:53:06Z</time></trkpt><trkpt lat="45.05560174006885" lon="8.185938921769193"><ele>242.0</ele><time>2026-04-11T13:53:09Z</time></trkpt><trkpt lat="45.055628342068104" lon="8.186048431777634"><ele>241.66666666666666</ele><time>2026-04-11T13:53:12Z</time></trkpt><trkpt lat="45.055657893204575" lon="8.186152360395724"><ele>241.33333333333331</ele><time>2026-04-11T13:53:14Z</time></trkpt><trkpt lat="45.055694547048326" lon="8.18630432051509"><ele>241.0</ele><time>2026-04-11T13:53:16Z</time></trkpt><trkpt lat="45.055716590831686" lon="8.186438337012397"><ele>241.71428571428572</ele><time>2026-04-11T13:53:18Z</time></trkpt><trkpt lat="45.055746585115244" lon="8.186551476924983"><ele>242.42857142857144</ele><time>2026-04-11T13:53:20Z</time></trkpt><trkpt lat="45.05576265846543" lon="8.186650967640322"><ele>243.14285714285717</ele><time>2026-04-11T13:53:22Z</time></trkpt><trkpt lat="45.05576121139311" lon="8.18675799514348"><ele>243.8571428571429</ele><time>2026-04-11T13:53:24.001Z</time></trkpt><trkpt lat="45.05573309198269" lon="8.186839851154076"><ele>244.57142857142858</ele><time>2026-04-11T13:53:26.001Z</time></trkpt><trkpt lat="45.05565959333361" lon="8.186881007919652"><ele>245.28571428571433</ele><time>2026-04-11T13:53:29.001Z</time></trkpt><trkpt lat="45.05560320953918" lon="8.186829595778518"><ele>246.00000000000003</ele><time>2026-04-11T13:53:32.001Z</time></trkpt><trkpt lat="45.05544639760357" lon="8.186789725498075"><ele>246.0</ele><time>2026-04-11T13:53:34.001Z</time></trkpt><trkpt lat="45.05537851173388" lon="8.186778665042437"><ele>246.00000000000003</ele><time>2026-04-11T13:53:35.001Z</time></trkpt><trkpt lat="45.05526805337978" lon="8.186768976593289"><ele>246.00000000000003</ele><time>2026-04-11T13:53:37.001Z</time></trkpt><trkpt lat="45.0551953374827" lon="8.18681364846169"><ele>246.0</ele><time>2026-04-11T13:53:39.001Z</time></trkpt><trkpt lat="45.055103399579586" lon="8.186848510561322"><ele>246.0</ele><time>2026-04-11T13:53:41.001Z</time></trkpt><trkpt lat="45.05499840775471" lon="8.186897936653356"><ele>247.0</ele><time>2026-04-11T13:53:43.001Z</time></trkpt><trkpt lat="45.0549050976787" lon="8.186931774060719"><ele>248.00000000000003</ele><time>2026-04-11T13:53:45.001Z</time></trkpt><trkpt lat="45.05481134505844" lon="8.186922980218899"><ele>249.00000000000003</ele><time>2026-04-11T13:53:47.001Z</time></trkpt><trkpt lat="45.054675269859686" lon="8.186924059368353"><ele>250.0</ele><time>2026-04-11T13:53:50.001Z</time></trkpt><trkpt lat="45.05457470429936" lon="8.186978568929742"><ele>251.0</ele><time>2026-04-11T13:53:52.001Z</time></trkpt><trkpt lat="45.054487376197955" lon="8.187053671287392"><ele>251.0</ele><time>2026-04-11T13:53:54.001Z</time></trkpt><trkpt lat="45.05440244880767" lon="8.187128111280588"><ele>251.00000000000003</ele><time>2026-04-11T13:53:56.001Z</time></trkpt><trkpt lat="45.054308504681295" lon="8.187186786108361"><ele>251.00000000000003</ele><time>2026-04-11T13:53:58.001Z</time></trkpt><trkpt lat="45.05423791528188" lon="8.187236616472111"><ele>251.0</ele><time>2026-04-11T13:54:00.001Z</time></trkpt><trkpt lat="45.05413783789025" lon="8.187295876411053"><ele>251.0</ele><time>2026-04-11T13:54:02.001Z</time></trkpt><trkpt lat="45.05407358976443" lon="8.187393608745914"><ele>252.66666666666669</ele><time>2026-04-11T13:54:04.001Z</time></trkpt><trkpt lat="45.05399938267059" lon="8.187424057699062"><ele>254.33333333333334</ele><time>2026-04-11T13:54:05.001Z</time></trkpt><trkpt lat="45.05391503508826" lon="8.187527583968901"><ele>256.0</ele><time>2026-04-11T13:54:07.001Z</time></trkpt><trkpt lat="45.05386856880319" lon="8.187660606328368"><ele>257.6666666666667</ele><time>2026-04-11T13:54:09.001Z</time></trkpt><trkpt lat="45.053826605951315" lon="8.187737545275056"><ele>259.3333333333333</ele><time>2026-04-11T13:54:10.002Z</time></trkpt><trkpt lat="45.053784391652734" lon="8.18782263501465"><ele>261.0</ele><time>2026-04-11T13:54:11.002Z</time></trkpt><trkpt lat="45.05373919722292" lon="8.18790675215148"><ele>261.0</ele><time>2026-04-11T13:54:12.002Z</time></trkpt><trkpt lat="45.053678421120345" lon="8.188008436319716"><ele>261.0</ele><time>2026-04-11T13:54:13.002Z</time></trkpt><trkpt lat="45.053498346298866" lon="8.187984302361128"><ele>261.0</ele><time>2026-04-11T13:54:14.002Z</time></trkpt><trkpt lat="45.05345228544655" lon="8.18807275473017"><ele>261.0</ele><time>2026-04-11T13:54:15.002Z</time></trkpt><trkpt lat="45.05340689426436" lon="8.188154573714725"><ele>261.0</ele><time>2026-04-11T13:54:16.002Z</time></trkpt><trkpt lat="45.05336180417794" lon="8.188233612070773"><ele>260.8571428571429</ele><time>2026-04-11T13:54:17.002Z</time></trkpt><trkpt lat="45.05331979887845" lon="8.188307243112463"><ele>260.7142857142857</ele><time>2026-04-11T13:54:18.002Z</time></trkpt><trkpt lat="45.05327887862466" lon="8.188378972164225"><ele>260.57142857142856</ele><time>2026-04-11T13:54:19.002Z</time></trkpt><trkpt lat="45.05323279101446" lon="8.188459759047669"><ele>260.42857142857144</ele><time>2026-04-11T13:54:20.002Z</time></trkpt><trkpt lat="45.053185621677876" lon="8.188542442135557"><ele>260.2857142857143</ele><time>2026-04-11T13:54:21.002Z</time></trkpt><trkpt lat="45.05314099003127" lon="8.188620676894287"><ele>260.14285714285717</ele><time>2026-04-11T13:54:22.002Z</time></trkpt><trkpt lat="45.05308970055358" lon="8.188710582128556"><ele>260.0</ele><time>2026-04-11T13:54:23.002Z</time></trkpt><trkpt lat="45.05301469177577" lon="8.188841543305989"><ele>260.0</ele><time>2026-04-11T13:54:24.002Z</time></trkpt><trkpt lat="45.05295562709772" lon="8.188959856092243"><ele>260.0</ele><time>2026-04-11T13:54:25.002Z</time></trkpt><trkpt lat="45.052903589706354" lon="8.189077017130826"><ele>260.0</ele><time>2026-04-11T13:54:26.002Z</time></trkpt><trkpt lat="45.05286073745082" lon="8.189223581095238"><ele>260.0</ele><time>2026-04-11T13:54:27.002Z</time></trkpt><trkpt lat="45.05284162228227" lon="8.189335574730986"><ele>260.0</ele><time>2026-04-11T13:54:28.002Z</time></trkpt><trkpt lat="45.052840160018874" lon="8.189469052498124"><ele>262.0</ele><time>2026-04-11T13:54:29.002Z</time></trkpt><trkpt lat="45.05285729743937" lon="8.189567573519307"><ele>264.0</ele><time>2026-04-11T13:54:30.002Z</time></trkpt><trkpt lat="45.052856825295095" lon="8.189670791220246"><ele>266.0</ele><time>2026-04-11T13:54:32.002Z</time></trkpt><trkpt lat="45.05284785797931" lon="8.189779347117204"><ele>268.0</ele><time>2026-04-11T13:54:34.002Z</time></trkpt><trkpt lat="45.052847551946854" lon="8.189911202869972"><ele>270.0</ele><time>2026-04-11T13:54:38.002Z</time></trkpt><trkpt lat="45.052811933783566" lon="8.190094991956673"><ele>270.8333333333333</ele><time>2026-04-11T13:54:40.002Z</time></trkpt><trkpt lat="45.052788590389014" lon="8.190203965015423"><ele>271.6666666666667</ele><time>2026-04-11T13:54:41.002Z</time></trkpt><trkpt lat="45.05277080819201" lon="8.1902991765595"><ele>272.5</ele><time>2026-04-11T13:54:42.002Z</time></trkpt><trkpt lat="45.05275019993307" lon="8.190404014039244"><ele>273.33333333333337</ele><time>2026-04-11T13:54:43.002Z</time></trkpt><trkpt lat="45.05272743094836" lon="8.19051451862643"><ele>274.1666666666667</ele><time>2026-04-11T13:54:44.002Z</time></trkpt><trkpt lat="45.05270154584432" lon="8.190644728819365"><ele>275.0</ele><time>2026-04-11T13:54:45.002Z</time></trkpt><trkpt lat="45.05267991786855" lon="8.190765799644975"><ele>276.2</ele><time>2026-04-11T13:54:46.002Z</time></trkpt><trkpt lat="45.05265964962732" lon="8.190885042294394"><ele>277.4</ele><time>2026-04-11T13:54:47.002Z</time></trkpt><trkpt lat="45.052640644678696" lon="8.190992779578876"><ele>278.6</ele><time>2026-04-11T13:54:48.002Z</time></trkpt><trkpt lat="45.05261365881494" lon="8.19113945341367"><ele>279.8</ele><time>2026-04-11T13:54:50.003Z</time></trkpt><trkpt lat="45.05259235249659" lon="8.191262638137163"><ele>281.0</ele><time>2026-04-11T13:54:52.003Z</time></trkpt><trkpt lat="45.05273219627428" lon="8.191361623027401"><ele>281.0</ele><time>2026-04-11T13:54:59.003Z</time></trkpt><trkpt lat="45.052800583035996" lon="8.191377718475767"><ele>281.0</ele><time>2026-04-11T13:55:00.003Z</time></trkpt><trkpt lat="45.05288203959469" lon="8.191375224976946"><ele>281.0</ele><time>2026-04-11T13:55:01.003Z</time></trkpt><trkpt lat="45.0529538795344" lon="8.19142333934684"><ele>281.0</ele><time>2026-04-11T13:55:02.003Z</time></trkpt><trkpt lat="45.05309825608939" lon="8.191428359480392"><ele>281.0</ele><time>2026-04-11T13:55:03.999Z</time></trkpt><trkpt lat="45.053184236808676" lon="8.191426181978583"><ele>281.0</ele><time>2026-04-11T13:55:04.999Z</time></trkpt><trkpt lat="45.05327247419712" lon="8.191433253496806"><ele>281.0</ele><time>2026-04-11T13:55:05.999Z</time></trkpt><trkpt lat="45.05336335738035" lon="8.19143069275583"><ele>281.0</ele><time>2026-04-11T13:55:06.999Z</time></trkpt><trkpt lat="45.05345269372773" lon="8.191445396606435"><ele>281.0</ele><time>2026-04-11T13:55:07.999Z</time></trkpt><trkpt lat="45.05355241256053" lon="8.191462917207076"><ele>281.0</ele><time>2026-04-11T13:55:08.999Z</time></trkpt><trkpt lat="45.05363453275084" lon="8.191478006821669"><ele>282.14285714285717</ele><time>2026-04-11T13:55:09.999Z</time></trkpt><trkpt lat="45.053702858384376" lon="8.191485504411702"><ele>283.2857142857143</ele><time>2026-04-11T13:55:10.999Z</time></trkpt><trkpt lat="45.05376906438874" lon="8.191511333361369"><ele>284.42857142857144</ele><time>2026-04-11T13:55:11.999Z</time></trkpt><trkpt lat="45.05384915926643" lon="8.191525471666234"><ele>285.57142857142856</ele><time>2026-04-11T13:55:12.999Z</time></trkpt><trkpt lat="45.05392249345944" lon="8.19153476149833"><ele>286.7142857142857</ele><time>2026-04-11T13:55:13.999Z</time></trkpt><trkpt lat="45.053991214098986" lon="8.19151590413173"><ele>287.8571428571429</ele><time>2026-04-11T13:55:14.999Z</time></trkpt><trkpt lat="45.05407133725544" lon="8.19154599725771"><ele>289.0</ele><time>2026-04-11T13:55:15.999Z</time></trkpt><trkpt lat="45.054151348581044" lon="8.191583619618845"><ele>291.16666666666663</ele><time>2026-04-11T13:55:16.999Z</time></trkpt><trkpt lat="45.054234659413666" lon="8.191616220117593"><ele>293.3333333333333</ele><time>2026-04-11T13:55:17.999Z</time></trkpt><trkpt lat="45.05431240260141" lon="8.191632874693077"><ele>295.5</ele><time>2026-04-11T13:55:18.999Z</time></trkpt><trkpt lat="45.05439145055182" lon="8.191707750160685"><ele>297.6666666666667</ele><time>2026-04-11T13:55:20Z</time></trkpt><trkpt lat="45.054464673454405" lon="8.191762101062906"><ele>299.83333333333337</ele><time>2026-04-11T13:55:21Z</time></trkpt><trkpt lat="45.0545393119539" lon="8.191806702350677"><ele>302.0</ele><time>2026-04-11T13:55:22Z</time></trkpt><trkpt lat="45.05460984446655" lon="8.191844107012129"><ele>302.0</ele><time>2026-04-11T13:55:23Z</time></trkpt><trkpt lat="45.05468107457071" lon="8.191894237050548"><ele>302.0</ele><time>2026-04-11T13:55:24Z</time></trkpt><trkpt lat="45.05475970506685" lon="8.191918017706978"><ele>302.0</ele><time>2026-04-11T13:55:25Z</time></trkpt><trkpt lat="45.05482633448566" lon="8.191921733082376"><ele>302.0</ele><time>2026-04-11T13:55:26Z</time></trkpt><trkpt lat="45.054896446255334" lon="8.19199109695332"><ele>302.0</ele><time>2026-04-11T13:55:28Z</time></trkpt><trkpt lat="45.05496487531306" lon="8.192140287973832"><ele>302.0</ele><time>2026-04-11T13:55:30Z</time></trkpt><trkpt lat="45.05499986567114" lon="8.192238901323856"><ele>305.0</ele><time>2026-04-11T13:55:31Z</time></trkpt><trkpt lat="45.05502624783619" lon="8.192373407105213"><ele>308.0</ele><time>2026-04-11T13:55:32Z</time></trkpt><trkpt lat="45.055069627496046" lon="8.1924988225425"><ele>311.0</ele><time>2026-04-11T13:55:33Z</time></trkpt><trkpt lat="45.05511491797753" lon="8.19262603381802"><ele>314.0</ele><time>2026-04-11T13:55:34Z</time></trkpt><trkpt lat="45.055161663609155" lon="8.192758713214733"><ele>317.0</ele><time>2026-04-11T13:55:35Z</time></trkpt><trkpt lat="45.05520246746427" lon="8.192884488794972"><ele>317.0</ele><time>2026-04-11T13:55:36Z</time></trkpt><trkpt lat="45.05523416917157" lon="8.192985270364927"><ele>317.0</ele><time>2026-04-11T13:55:37Z</time></trkpt><trkpt lat="45.05525868716172" lon="8.19308469988881"><ele>317.0</ele><time>2026-04-11T13:55:38Z</time></trkpt><trkpt lat="45.05527357622572" lon="8.193195072006713"><ele>317.0</ele><time>2026-04-11T13:55:39Z</time></trkpt><trkpt lat="45.05525548690729" lon="8.193319981542274"><ele>317.0</ele><time>2026-04-11T13:55:40Z</time></trkpt><trkpt lat="45.0552565223481" lon="8.193446880318191"><ele>317.0</ele><time>2026-04-11T13:55:41Z</time></trkpt><trkpt lat="45.05523974305322" lon="8.193559122100789"><ele>317.6666666666667</ele><time>2026-04-11T13:55:42Z</time></trkpt><trkpt lat="45.05522728519317" lon="8.193664980930802"><ele>318.33333333333337</ele><time>2026-04-11T13:55:43Z</time></trkpt><trkpt lat="45.055221791038896" lon="8.193773581059146"><ele>319.0</ele><time>2026-04-11T13:55:45.001Z</time></trkpt><trkpt lat="45.05533978618061" lon="8.193763152824891"><ele>319.6666666666667</ele><time>2026-04-11T13:55:49.001Z</time></trkpt><trkpt lat="45.05540251391724" lon="8.19369244973993"><ele>320.3333333333333</ele><time>2026-04-11T13:55:50.001Z</time></trkpt><trkpt lat="45.05548310851139" lon="8.193619757323642"><ele>321.0</ele><time>2026-04-11T13:55:51.001Z</time></trkpt><trkpt lat="45.05554418075042" lon="8.193533114085321"><ele>321.0</ele><time>2026-04-11T13:55:52.001Z</time></trkpt><trkpt lat="45.05559726971729" lon="8.193459775091371"><ele>321.0</ele><time>2026-04-11T13:55:53.001Z</time></trkpt><trkpt lat="45.055660566076476" lon="8.193376372036951"><ele>321.0</ele><time>2026-04-11T13:55:54.001Z</time></trkpt><trkpt lat="45.05572384962372" lon="8.19329816279959"><ele>321.0</ele><time>2026-04-11T13:55:55.001Z</time></trkpt><trkpt lat="45.0557868032038" lon="8.19323030679609"><ele>321.0</ele><time>2026-04-11T13:55:56.001Z</time></trkpt><trkpt lat="45.05585257497983" lon="8.193154653044349"><ele>321.0</ele><time>2026-04-11T13:55:57.001Z</time></trkpt><trkpt lat="45.05592447655072" lon="8.193090744375958"><ele>322.3333333333333</ele><time>2026-04-11T13:55:58.001Z</time></trkpt><trkpt lat="45.05597596974126" lon="8.193017517805929"><ele>323.6666666666667</ele><time>2026-04-11T13:55:59.001Z</time></trkpt><trkpt lat="45.05606806739117" lon="8.192990910425864"><ele>325.0</ele><time>2026-04-11T13:56:01.001Z</time></trkpt><trkpt lat="45.056166970095695" lon="8.193001675293056"><ele>326.33333333333337</ele><time>2026-04-11T13:56:03.001Z</time></trkpt><trkpt lat="45.05623472401005" lon="8.193011559759116"><ele>327.6666666666667</ele><time>2026-04-11T13:56:04.001Z</time></trkpt><trkpt lat="45.056309866073505" lon="8.193050962431792"><ele>329.0</ele><time>2026-04-11T13:56:05.001Z</time></trkpt><trkpt lat="45.056394784363675" lon="8.193077562556214"><ele>329.0</ele><time>2026-04-11T13:56:06.001Z</time></trkpt><trkpt lat="45.05648068212944" lon="8.193103092167883"><ele>329.0</ele><time>2026-04-11T13:56:07.001Z</time></trkpt><trkpt lat="45.05656359390327" lon="8.193144313680229"><ele>329.0</ele><time>2026-04-11T13:56:08.001Z</time></trkpt><trkpt lat="45.05663230713857" lon="8.193204328618704"><ele>329.0</ele><time>2026-04-11T13:56:09.001Z</time></trkpt><trkpt lat="45.056705383049206" lon="8.193267705352048"><ele>329.0</ele><time>2026-04-11T13:56:10.001Z</time></trkpt><trkpt lat="45.05679080595225" lon="8.193341805439472"><ele>329.0</ele><time>2026-04-11T13:56:11.001Z</time></trkpt><trkpt lat="45.05692764691124" lon="8.193242757389655"><ele>330.4</ele><time>2026-04-11T13:56:12.001Z</time></trkpt><trkpt lat="45.0570021994778" lon="8.193230059458164"><ele>331.79999999999995</ele><time>2026-04-11T13:56:13.001Z</time></trkpt><trkpt lat="45.05707177998611" lon="8.193235448415136"><ele>333.20000000000005</ele><time>2026-04-11T13:56:14.001Z</time></trkpt><trkpt lat="45.057159223566316" lon="8.193137968595632"><ele>334.6</ele><time>2026-04-11T13:56:16.001Z</time></trkpt><trkpt lat="45.05721880000054" lon="8.193040649286704"><ele>336.0</ele><time>2026-04-11T13:56:17.001Z</time></trkpt><trkpt lat="45.057281966838666" lon="8.192910294971233"><ele>336.0</ele><time>2026-04-11T13:56:18.002Z</time></trkpt><trkpt lat="45.05733766620895" lon="8.19278053122129"><ele>336.0</ele><time>2026-04-11T13:56:19.002Z</time></trkpt><trkpt lat="45.05739961663108" lon="8.192692794885982"><ele>336.0</ele><time>2026-04-11T13:56:20.002Z</time></trkpt><trkpt lat="45.057470847137495" lon="8.192645170961432"><ele>336.0</ele><time>2026-04-11T13:56:21.002Z</time></trkpt><trkpt lat="45.05753811413303" lon="8.192632994771369"><ele>336.0</ele><time>2026-04-11T13:56:22.002Z</time></trkpt><trkpt lat="45.05761363334539" lon="8.192668135128836"><ele>336.0</ele><time>2026-04-11T13:56:24.002Z</time></trkpt><trkpt lat="45.057618188802174" lon="8.192762624169978"><ele>339.0</ele><time>2026-04-11T13:56:28.002Z</time></trkpt><trkpt lat="45.05758265173069" lon="8.192840400040522"><ele>342.0</ele><time>2026-04-11T13:56:30.002Z</time></trkpt><trkpt lat="45.057679456520155" lon="8.192850388631552"><ele>345.0</ele><time>2026-04-11T13:56:42.002Z</time></trkpt><trkpt lat="45.057783276658306" lon="8.192842495425325"><ele>348.0</ele><time>2026-04-11T13:56:44.002Z</time></trkpt><trkpt lat="45.0578562340016" lon="8.192853626229237"><ele>351.0</ele><time>2026-04-11T13:56:45.002Z</time></trkpt><trkpt lat="45.057923634435184" lon="8.192877284452827"><ele>354.0</ele><time>2026-04-11T13:56:46.002Z</time></trkpt><trkpt lat="45.0579875936304" lon="8.19288975725489"><ele>354.0</ele><time>2026-04-11T13:56:47.002Z</time></trkpt><trkpt lat="45.0580517552001" lon="8.192884393320375"><ele>354.0</ele><time>2026-04-11T13:56:48.002Z</time></trkpt><trkpt lat="45.05813790348859" lon="8.192802661791776"><ele>354.0</ele><time>2026-04-11T13:56:50.002Z</time></trkpt><trkpt lat="45.05828685498566" lon="8.192812348523702"><ele>354.0</ele><time>2026-04-11T13:56:52.003Z</time></trkpt><trkpt lat="45.05839316270606" lon="8.192884227916247"><ele>354.0</ele><time>2026-04-11T13:56:54.003Z</time></trkpt><trkpt lat="45.05844783763512" lon="8.192957080011231"><ele>355.1666666666667</ele><time>2026-04-11T13:56:55.003Z</time></trkpt><trkpt lat="45.058494610579515" lon="8.19302639943542"><ele>356.3333333333333</ele><time>2026-04-11T13:56:56.003Z</time></trkpt><trkpt lat="45.05856491444091" lon="8.19308734182256"><ele>357.5</ele><time>2026-04-11T13:56:57.003Z</time></trkpt><trkpt lat="45.058630877351014" lon="8.193124514795375"><ele>358.66666666666663</ele><time>2026-04-11T13:56:58.003Z</time></trkpt><trkpt lat="45.058699580832915" lon="8.19317377851775"><ele>359.8333333333333</ele><time>2026-04-11T13:56:59.003Z</time></trkpt><trkpt lat="45.05876693700819" lon="8.193204439619086"><ele>361.0</ele><time>2026-04-11T13:57:00.003Z</time></trkpt><trkpt lat="45.058872553013906" lon="8.19327523513495"><ele>362.66666666666663</ele><time>2026-04-11T13:57:02.003Z</time></trkpt><trkpt lat="45.05895582502583" lon="8.193371969554665"><ele>364.3333333333333</ele><time>2026-04-11T13:57:04.003Z</time></trkpt><trkpt lat="45.05899786412534" lon="8.193450249114825"><ele>366.0</ele><time>2026-04-11T13:57:05.003Z</time></trkpt><trkpt lat="45.059025030643596" lon="8.193539858092738"><ele>367.6666666666667</ele><time>2026-04-11T13:57:06.003Z</time></trkpt><trkpt lat="45.0591070369784" lon="8.193654202816555"><ele>369.33333333333337</ele><time>2026-04-11T13:57:08.003Z</time></trkpt><trkpt lat="45.059166596292066" lon="8.193693334360498"><ele>371.0</ele><time>2026-04-11T13:57:09.003Z</time></trkpt><trkpt lat="45.059244569358995" lon="8.193716113839313"><ele>371.0</ele><time>2026-04-11T13:57:09.999Z</time></trkpt><trkpt lat="45.059317182162104" lon="8.193748252081235"><ele>371.0</ele><time>2026-04-11T13:57:10.998Z</time></trkpt><trkpt lat="45.05938797756518" lon="8.193787221056601"><ele>371.0</ele><time>2026-04-11T13:57:11.999Z</time></trkpt><trkpt lat="45.05944943059361" lon="8.193834829698925"><ele>371.0</ele><time>2026-04-11T13:57:12.999Z</time></trkpt><trkpt lat="45.059491960371396" lon="8.19392237129815"><ele>371.0</ele><time>2026-04-11T13:57:13.999Z</time></trkpt><trkpt lat="45.05953897915033" lon="8.194003868431006"><ele>371.0</ele><time>2026-04-11T13:57:14.999Z</time></trkpt><trkpt lat="45.059575400960085" lon="8.194095859740546"><ele>371.0</ele><time>2026-04-11T13:57:15.999Z</time></trkpt><trkpt lat="45.059626689197074" lon="8.194171823689185"><ele>372.33333333333337</ele><time>2026-04-11T13:57:16.999Z</time></trkpt><trkpt lat="45.05971625368291" lon="8.194244097982079"><ele>373.6666666666667</ele><time>2026-04-11T13:57:18.999Z</time></trkpt><trkpt lat="45.059832302216535" lon="8.19423253727784"><ele>375.0</ele><time>2026-04-11T13:57:20.999Z</time></trkpt><trkpt lat="45.059904693222215" lon="8.194213434723528"><ele>376.3333333333333</ele><time>2026-04-11T13:57:21.999Z</time></trkpt><trkpt lat="45.05997932789897" lon="8.19420195079451"><ele>377.66666666666663</ele><time>2026-04-11T13:57:22.999Z</time></trkpt><trkpt lat="45.06004553434662" lon="8.194207990837128"><ele>379.0</ele><time>2026-04-11T13:57:23.999Z</time></trkpt><trkpt lat="45.06017594638122" lon="8.194223762976836"><ele>379.0</ele><time>2026-04-11T13:57:25.999Z</time></trkpt><trkpt lat="45.06023293533125" lon="8.194272036759974"><ele>379.0</ele><time>2026-04-11T13:57:26.999Z</time></trkpt><trkpt lat="45.060292844645176" lon="8.19434189469489"><ele>379.0</ele><time>2026-04-11T13:57:27.999Z</time></trkpt><trkpt lat="45.06033545548343" lon="8.194414619584013"><ele>379.0</ele><time>2026-04-11T13:57:28.999Z</time></trkpt><trkpt lat="45.06041968240514" lon="8.194432592647653"><ele>379.0</ele><time>2026-04-11T13:57:30.999Z</time></trkpt><trkpt lat="45.0604957419281" lon="8.194442182539861"><ele>379.0</ele><time>2026-04-11T13:57:31.999Z</time></trkpt><trkpt lat="45.060576954645434" lon="8.194453923474647"><ele>379.0</ele><time>2026-04-11T13:57:32.999Z</time></trkpt><trkpt lat="45.0606488102427" lon="8.19447475001317"><ele>379.0</ele><time>2026-04-11T13:57:33.999Z</time></trkpt><trkpt lat="45.06076109967533" lon="8.194511910878283"><ele>379.0</ele><time>2026-04-11T13:57:36Z</time></trkpt><trkpt lat="45.06086076902265" lon="8.194567073549454"><ele>379.0</ele><time>2026-04-11T13:57:38Z</time></trkpt><trkpt lat="45.060956753237384" lon="8.194624658704768"><ele>379.0</ele><time>2026-04-11T13:57:40Z</time></trkpt><trkpt lat="45.06106217823348" lon="8.194653653459984"><ele>377.8333333333333</ele><time>2026-04-11T13:57:42Z</time></trkpt><trkpt lat="45.06115726202807" lon="8.194732896182618"><ele>376.66666666666663</ele><time>2026-04-11T13:57:44Z</time></trkpt><trkpt lat="45.06123828340774" lon="8.194770151009626"><ele>375.5</ele><time>2026-04-11T13:57:46Z</time></trkpt><trkpt lat="45.06131761276589" lon="8.194714085896551"><ele>374.3333333333333</ele><time>2026-04-11T13:57:48Z</time></trkpt><trkpt lat="45.061385480618185" lon="8.194705933401051"><ele>373.1666666666667</ele><time>2026-04-11T13:57:49Z</time></trkpt><trkpt lat="45.06144879184818" lon="8.194727062171413"><ele>372.0</ele><time>2026-04-11T13:57:50Z</time></trkpt><trkpt lat="45.061512575165985" lon="8.194752236062902"><ele>372.0</ele><time>2026-04-11T13:57:51Z</time></trkpt><trkpt lat="45.06160901696696" lon="8.194728763298347"><ele>372.0</ele><time>2026-04-11T13:57:53Z</time></trkpt><trkpt lat="45.06171425751504" lon="8.19464809370312"><ele>372.0</ele><time>2026-04-11T13:57:55Z</time></trkpt><trkpt lat="45.06179202378413" lon="8.194602615254608"><ele>372.0</ele><time>2026-04-11T13:57:56Z</time></trkpt><trkpt lat="45.061853108818916" lon="8.194519536527961"><ele>372.0</ele><time>2026-04-11T13:57:57Z</time></trkpt><trkpt lat="45.06189568284681" lon="8.19442265773878"><ele>373.8</ele><time>2026-04-11T13:57:58Z</time></trkpt><trkpt lat="45.06194276209242" lon="8.194311226318844"><ele>375.6</ele><time>2026-04-11T13:58:00Z</time></trkpt><trkpt lat="45.0620073118834" lon="8.19428298171122"><ele>377.40000000000003</ele><time>2026-04-11T13:58:11.001Z</time></trkpt><trkpt lat="45.06198155436297" lon="8.19445909230994"><ele>379.20000000000005</ele><time>2026-04-11T13:58:14.001Z</time></trkpt><trkpt lat="45.06190269762954" lon="8.194623967774557"><ele>381.0</ele><time>2026-04-11T13:58:16.001Z</time></trkpt><trkpt lat="45.06187588926486" lon="8.194725213556248"><ele>381.0</ele><time>2026-04-11T13:58:17.001Z</time></trkpt><trkpt lat="45.06185289775175" lon="8.19483045688983"><ele>381.0</ele><time>2026-04-11T13:58:18.001Z</time></trkpt><trkpt lat="45.06182330150065" lon="8.194934611849911"><ele>381.0</ele><time>2026-04-11T13:58:19.001Z</time></trkpt><trkpt lat="45.061763503943034" lon="8.195003397246667"><ele>381.0</ele><time>2026-04-11T13:58:20.001Z</time></trkpt><trkpt lat="45.06169285908746" lon="8.195077428025876"><ele>381.0</ele><time>2026-04-11T13:58:21.001Z</time></trkpt><trkpt lat="45.061625587894206" lon="8.195172712127563"><ele>381.0</ele><time>2026-04-11T13:58:22.001Z</time></trkpt><trkpt lat="45.061488121467455" lon="8.195277627716843"><ele>383.8</ele><time>2026-04-11T13:58:24.001Z</time></trkpt><trkpt lat="45.061388865014834" lon="8.19532167307025"><ele>386.6</ele><time>2026-04-11T13:58:25.001Z</time></trkpt><trkpt lat="45.06133301756477" lon="8.195369091931155"><ele>389.4</ele><time>2026-04-11T13:58:26.001Z</time></trkpt><trkpt lat="45.061236494818516" lon="8.195498827118348"><ele>392.2</ele><time>2026-04-11T13:58:28.001Z</time></trkpt><trkpt lat="45.06117298934604" lon="8.19553348044079"><ele>395.0</ele><time>2026-04-11T13:58:29.001Z</time></trkpt><trkpt lat="45.06105649915523" lon="8.195572748905235"><ele>395.0</ele><time>2026-04-11T13:58:31.001Z</time></trkpt><trkpt lat="45.060979121362934" lon="8.195613693808575"><ele>395.0</ele><time>2026-04-11T13:58:32.001Z</time></trkpt><trkpt lat="45.060919918353065" lon="8.19568365357059"><ele>395.0</ele><time>2026-04-11T13:58:33.002Z</time></trkpt><trkpt lat="45.06085811226048" lon="8.195760207305758"><ele>395.0</ele><time>2026-04-11T13:58:34.002Z</time></trkpt><trkpt lat="45.06078903647078" lon="8.195887069886183"><ele>395.0</ele><time>2026-04-11T13:58:36.002Z</time></trkpt><trkpt lat="45.06069664679995" lon="8.196025849554948"><ele>398.8333333333333</ele><time>2026-04-11T13:58:38.002Z</time></trkpt><trkpt lat="45.0606590178374" lon="8.196098512977905"><ele>402.66666666666663</ele><time>2026-04-11T13:58:39.002Z</time></trkpt><trkpt lat="45.06056084842629" lon="8.196188079953458"><ele>406.5</ele><time>2026-04-11T13:58:41.002Z</time></trkpt><trkpt lat="45.06049987321721" lon="8.196239928570375"><ele>410.33333333333337</ele><time>2026-04-11T13:58:42.002Z</time></trkpt><trkpt lat="45.060436132353054" lon="8.196281784184507"><ele>414.1666666666667</ele><time>2026-04-11T13:58:43.002Z</time></trkpt><trkpt lat="45.060364161051076" lon="8.19630696563906"><ele>418.0</ele><time>2026-04-11T13:58:44.002Z</time></trkpt><trkpt lat="45.06027709834608" lon="8.196347385149462"><ele>418.0</ele><time>2026-04-11T13:58:45.002Z</time></trkpt><trkpt lat="45.06016964710829" lon="8.196380667681037"><ele>418.0</ele><time>2026-04-11T13:58:46.002Z</time></trkpt><trkpt lat="45.06006985183792" lon="8.196411433513376"><ele>418.0</ele><time>2026-04-11T13:58:47.002Z</time></trkpt><trkpt lat="45.05997000205261" lon="8.19643595518303"><ele>418.0</ele><time>2026-04-11T13:58:48.002Z</time></trkpt><trkpt lat="45.05988464180651" lon="8.196455929713483"><ele>418.0</ele><time>2026-04-11T13:58:49.002Z</time></trkpt><trkpt lat="45.059812203594525" lon="8.19648343718342"><ele>415.33333333333337</ele><time>2026-04-11T13:58:50.002Z</time></trkpt><trkpt lat="45.05973644201814" lon="8.196515890109303"><ele>412.6666666666667</ele><time>2026-04-11T13:58:51.002Z</time></trkpt><trkpt lat="45.05965566980994" lon="8.196558290726859"><ele>410.0</ele><time>2026-04-11T13:58:52.002Z</time></trkpt><trkpt lat="45.059564921803485" lon="8.196576028703857"><ele>407.33333333333337</ele><time>2026-04-11T13:58:53.002Z</time></trkpt><trkpt lat="45.05950222467094" lon="8.196610606486614"><ele>404.6666666666667</ele><time>2026-04-11T13:58:54.002Z</time></trkpt><trkpt lat="45.059423550859925" lon="8.196641376400569"><ele>402.0</ele><time>2026-04-11T13:58:55.002Z</time></trkpt><trkpt lat="45.05934045949026" lon="8.19667656275641"><ele>402.0</ele><time>2026-04-11T13:58:56.002Z</time></trkpt><trkpt lat="45.05925936854564" lon="8.196711007389377"><ele>402.0</ele><time>2026-04-11T13:58:57.002Z</time></trkpt><trkpt lat="45.0591917747307" lon="8.19673889582045"><ele>402.0</ele><time>2026-04-11T13:58:58.002Z</time></trkpt><trkpt lat="45.05912833884778" lon="8.196773771694604"><ele>402.0</ele><time>2026-04-11T13:58:59.002Z</time></trkpt><trkpt lat="45.059062100959096" lon="8.196817066999378"><ele>402.0</ele><time>2026-04-11T13:59:00.002Z</time></trkpt><trkpt lat="45.059002076230705" lon="8.196869691382508"><ele>402.0</ele><time>2026-04-11T13:59:01.002Z</time></trkpt><trkpt lat="45.058945744010245" lon="8.19692061913664"><ele>402.0</ele><time>2026-04-11T13:59:02.002Z</time></trkpt><trkpt lat="45.05889125954354" lon="8.19698369784759"><ele>401.5</ele><time>2026-04-11T13:59:03.002Z</time></trkpt><trkpt lat="45.05884285041933" lon="8.19706139874853"><ele>401.0</ele><time>2026-04-11T13:59:04.002Z</time></trkpt><trkpt lat="45.058790767741016" lon="8.197160800380622"><ele>400.5</ele><time>2026-04-11T13:59:05.002Z</time></trkpt><trkpt lat="45.058731380987496" lon="8.197255169822114"><ele>400.0</ele><time>2026-04-11T13:59:06.003Z</time></trkpt><trkpt lat="45.05867457094546" lon="8.197330183462912"><ele>399.5</ele><time>2026-04-11T13:59:07.003Z</time></trkpt><trkpt lat="45.05861880049081" lon="8.197398406803174"><ele>399.0</ele><time>2026-04-11T13:59:08.003Z</time></trkpt><trkpt lat="45.058522808340136" lon="8.197493517988736"><ele>399.0</ele><time>2026-04-11T13:59:10.003Z</time></trkpt><trkpt lat="45.05847120692035" lon="8.197554901930024"><ele>399.0</ele><time>2026-04-11T13:59:11.003Z</time></trkpt><trkpt lat="45.05840053342148" lon="8.197622742175886"><ele>399.0</ele><time>2026-04-11T13:59:12.003Z</time></trkpt><trkpt lat="45.058338720604155" lon="8.197695252118628"><ele>399.0</ele><time>2026-04-11T13:59:13.003Z</time></trkpt><trkpt lat="45.05824902194963" lon="8.197761938525387"><ele>399.0</ele><time>2026-04-11T13:59:14.003Z</time></trkpt><trkpt lat="45.0581862758679" lon="8.197851608205056"><ele>399.0</ele><time>2026-04-11T13:59:15.003Z</time></trkpt><trkpt lat="45.058129826689395" lon="8.197902087284133"><ele>398.6666666666667</ele><time>2026-04-11T13:59:15.997Z</time></trkpt><trkpt lat="45.05806712358208" lon="8.197957077747871"><ele>398.33333333333337</ele><time>2026-04-11T13:59:16.997Z</time></trkpt><trkpt lat="45.058016228443115" lon="8.198016199910489"><ele>398.0</ele><time>2026-04-11T13:59:17.998Z</time></trkpt><trkpt lat="45.05797543484398" lon="8.198103483949165"><ele>397.6666666666667</ele><time>2026-04-11T13:59:18.998Z</time></trkpt><trkpt lat="45.05794037667295" lon="8.198197587374569"><ele>397.33333333333337</ele><time>2026-04-11T13:59:19.998Z</time></trkpt><trkpt lat="45.05789489450375" lon="8.198308306130656"><ele>397.0</ele><time>2026-04-11T13:59:20.998Z</time></trkpt><trkpt lat="45.05785573993033" lon="8.198437635748288"><ele>397.0</ele><time>2026-04-11T13:59:21.998Z</time></trkpt><trkpt lat="45.05781650130245" lon="8.198533475147983"><ele>397.0</ele><time>2026-04-11T13:59:22.998Z</time></trkpt><trkpt lat="45.05778316269749" lon="8.198706520354406"><ele>397.0</ele><time>2026-04-11T13:59:24.998Z</time></trkpt><trkpt lat="45.05774818394161" lon="8.198790246169677"><ele>397.0</ele><time>2026-04-11T13:59:25.999Z</time></trkpt><trkpt lat="45.057730456139566" lon="8.198880081435615"><ele>397.0</ele><time>2026-04-11T13:59:26.999Z</time></trkpt><trkpt lat="45.0576156997849" lon="8.199015222508788"><ele>396.40000000000003</ele><time>2026-04-11T13:59:28.999Z</time></trkpt><trkpt lat="45.057542994866324" lon="8.199107042901352"><ele>395.8</ele><time>2026-04-11T13:59:29.999Z</time></trkpt><trkpt lat="45.05745809627287" lon="8.19921271462804"><ele>395.2</ele><time>2026-04-11T13:59:30.999Z</time></trkpt><trkpt lat="45.05737256821891" lon="8.19932315410282"><ele>394.6</ele><time>2026-04-11T13:59:31.999Z</time></trkpt><trkpt lat="45.05729634795198" lon="8.199414922204596"><ele>394.0</ele><time>2026-04-11T13:59:32.999Z</time></trkpt><trkpt lat="45.057233526908504" lon="8.199519139153125"><ele>394.0</ele><time>2026-04-11T13:59:33.999Z</time></trkpt><trkpt lat="45.0571692779247" lon="8.1996261085946"><ele>394.0</ele><time>2026-04-11T13:59:34.999Z</time></trkpt><trkpt lat="45.05710737792178" lon="8.199722486106827"><ele>394.0</ele><time>2026-04-11T13:59:35.999Z</time></trkpt><trkpt lat="45.05703479441283" lon="8.199806976437467"><ele>394.0</ele><time>2026-04-11T13:59:37Z</time></trkpt><trkpt lat="45.05697118385771" lon="8.199867964528439"><ele>394.0</ele><time>2026-04-11T13:59:38Z</time></trkpt><trkpt lat="45.056895331081876" lon="8.199933747854757"><ele>394.5</ele><time>2026-04-11T13:59:39Z</time></trkpt><trkpt lat="45.056804631957654" lon="8.200016726990967"><ele>395.0</ele><time>2026-04-11T13:59:40Z</time></trkpt><trkpt lat="45.05670890053488" lon="8.200113911160091"><ele>395.5</ele><time>2026-04-11T13:59:41Z</time></trkpt><trkpt lat="45.05661537208727" lon="8.200206430336436"><ele>396.0</ele><time>2026-04-11T13:59:42Z</time></trkpt><trkpt lat="45.05652070120916" lon="8.200304090602982"><ele>394.4</ele><time>2026-04-11T13:59:43Z</time></trkpt><trkpt lat="45.056434403311464" lon="8.20039421410508"><ele>392.8</ele><time>2026-04-11T13:59:44Z</time></trkpt><trkpt lat="45.05635440107482" lon="8.200477662625259"><ele>391.2</ele><time>2026-04-11T13:59:45Z</time></trkpt><trkpt lat="45.056281893296095" lon="8.20055948175862"><ele>389.59999999999997</ele><time>2026-04-11T13:59:46Z</time></trkpt><trkpt lat="45.05621722539673" lon="8.200630350070856"><ele>388.0</ele><time>2026-04-11T13:59:47Z</time></trkpt><trkpt lat="45.05615538581682" lon="8.200695886223594"><ele>388.0</ele><time>2026-04-11T13:59:48Z</time></trkpt><trkpt lat="45.05611126087534" lon="8.200779478944705"><ele>388.0</ele><time>2026-04-11T13:59:49Z</time></trkpt><trkpt lat="45.056069510295664" lon="8.200874697368947"><ele>388.0</ele><time>2026-04-11T13:59:50Z</time></trkpt><trkpt lat="45.05602703146155" lon="8.200985157817726"><ele>388.0</ele><time>2026-04-11T13:59:51Z</time></trkpt><trkpt lat="45.055988110634146" lon="8.20109214924112"><ele>388.0</ele><time>2026-04-11T13:59:52Z</time></trkpt><trkpt lat="45.055922000748" lon="8.201242635279662"><ele>388.00000000000006</ele><time>2026-04-11T13:59:54Z</time></trkpt><trkpt lat="45.05587479362459" lon="8.201363992493555"><ele>388.0</ele><time>2026-04-11T13:59:56.001Z</time></trkpt><trkpt lat="45.055876878993395" lon="8.201477436227881"><ele>388.0</ele><time>2026-04-11T13:59:58.001Z</time></trkpt><trkpt lat="45.05590862774356" lon="8.201610336856449"><ele>388.0</ele><time>2026-04-11T14:00:00.001Z</time></trkpt><trkpt lat="45.05594356675731" lon="8.201708753442311"><ele>388.00000000000006</ele><time>2026-04-11T14:00:02.001Z</time></trkpt><trkpt lat="45.05599763782236" lon="8.201806687203849"><ele>388.0</ele><time>2026-04-11T14:00:05.001Z</time></trkpt><trkpt lat="45.05601853177178" lon="8.20192076002069"><ele>387.1666666666667</ele><time>2026-04-11T14:00:07.001Z</time></trkpt><trkpt lat="45.056034229659446" lon="8.20204190362066"><ele>386.33333333333337</ele><time>2026-04-11T14:00:09.001Z</time></trkpt><trkpt lat="45.05603949813958" lon="8.20216536883324"><ele>385.5</ele><time>2026-04-11T14:00:11.001Z</time></trkpt><trkpt lat="45.0560193003796" lon="8.202322553599247"><ele>384.6666666666667</ele><time>2026-04-11T14:00:13.001Z</time></trkpt><trkpt lat="45.056010403424544" lon="8.202413054200422"><ele>383.83333333333337</ele><time>2026-04-11T14:00:14.001Z</time></trkpt><trkpt lat="45.05599596568021" lon="8.202507583970105"><ele>383.0</ele><time>2026-04-11T14:00:15.001Z</time></trkpt><trkpt lat="45.05597410090148" lon="8.202594547039915"><ele>380.0</ele><time>2026-04-11T14:00:16.001Z</time></trkpt><trkpt lat="45.05592540616431" lon="8.202704838964157"><ele>377.0</ele><time>2026-04-11T14:00:18.001Z</time></trkpt><trkpt lat="45.05585816241291" lon="8.202828789786548"><ele>374.0</ele><time>2026-04-11T14:00:20.001Z</time></trkpt><trkpt lat="45.05582588614826" lon="8.202968610358333"><ele>371.0</ele><time>2026-04-11T14:00:22.002Z</time></trkpt><trkpt lat="45.05581936267405" lon="8.203158763555216"><ele>368.0</ele><time>2026-04-11T14:00:24.002Z</time></trkpt><trkpt lat="45.05581680762764" lon="8.203263093153453"><ele>367.6666666666667</ele><time>2026-04-11T14:00:25.002Z</time></trkpt><trkpt lat="45.05580826051047" lon="8.203362427206146"><ele>367.33333333333337</ele><time>2026-04-11T14:00:26.002Z</time></trkpt><trkpt lat="45.055788266583214" lon="8.203460269877201"><ele>367.0</ele><time>2026-04-11T14:00:27.002Z</time></trkpt><trkpt lat="45.05575148250247" lon="8.203554268164378"><ele>366.6666666666667</ele><time>2026-04-11T14:00:28.002Z</time></trkpt><trkpt lat="45.055700403547306" lon="8.203643068377541"><ele>366.3333333333333</ele><time>2026-04-11T14:00:29.002Z</time></trkpt><trkpt lat="45.05564187117616" lon="8.20372563709208"><ele>366.0</ele><time>2026-04-11T14:00:30.002Z</time></trkpt><trkpt lat="45.05558375873586" lon="8.203784837203433"><ele>366.0</ele><time>2026-04-11T14:00:31.002Z</time></trkpt><trkpt lat="45.05552605971011" lon="8.203821428195313"><ele>366.0</ele><time>2026-04-11T14:00:32.002Z</time></trkpt><trkpt lat="45.05540117772696" lon="8.203812411047512"><ele>366.0</ele><time>2026-04-11T14:00:34.002Z</time></trkpt><trkpt lat="45.055268055701376" lon="8.203774779145705"><ele>366.0</ele><time>2026-04-11T14:00:36.002Z</time></trkpt><trkpt lat="45.05519191617965" lon="8.203765576820905"><ele>366.0</ele><time>2026-04-11T14:00:37.002Z</time></trkpt><trkpt lat="45.05511479294776" lon="8.203785613733203"><ele>366.0</ele><time>2026-04-11T14:00:38.002Z</time></trkpt><trkpt lat="45.05502873619171" lon="8.203822697501744"><ele>366.0</ele><time>2026-04-11T14:00:39.002Z</time></trkpt><trkpt lat="45.05492372435726" lon="8.203891829107453"><ele>366.0</ele><time>2026-04-11T14:00:40.002Z</time></trkpt><trkpt lat="45.054808741487854" lon="8.20396657375436"><ele>366.0</ele><time>2026-04-11T14:00:41.002Z</time></trkpt><trkpt lat="45.05469444863374" lon="8.204034158209184"><ele>365.6</ele><time>2026-04-11T14:00:42.002Z</time></trkpt><trkpt lat="45.054605606105795" lon="8.204084735687882"><ele>365.20000000000005</ele><time>2026-04-11T14:00:43.002Z</time></trkpt><trkpt lat="45.05453118555611" lon="8.204122525015025"><ele>364.79999999999995</ele><time>2026-04-11T14:00:44.002Z</time></trkpt><trkpt lat="45.05444334132957" lon="8.20416313232145"><ele>364.4</ele><time>2026-04-11T14:00:45.002Z</time></trkpt><trkpt lat="45.0543572853155" lon="8.20419641895641"><ele>364.0</ele><time>2026-04-11T14:00:46.002Z</time></trkpt><trkpt lat="45.05424191492897" lon="8.204252883912798"><ele>364.0</ele><time>2026-04-11T14:00:48.002Z</time></trkpt><trkpt lat="45.05417690951301" lon="8.204366004735991"><ele>364.0</ele><time>2026-04-11T14:00:50.002Z</time></trkpt><trkpt lat="45.054112572250915" lon="8.204484735009718"><ele>364.0</ele><time>2026-04-11T14:00:52.002Z</time></trkpt><trkpt lat="45.05404328635522" lon="8.204600439257831"><ele>364.0</ele><time>2026-04-11T14:00:54.003Z</time></trkpt><trkpt lat="45.053958526973446" lon="8.20469084612164"><ele>364.0</ele><time>2026-04-11T14:00:56.003Z</time></trkpt><trkpt lat="45.05383407617632" lon="8.204762488906578"><ele>361.16666666666663</ele><time>2026-04-11T14:00:58.003Z</time></trkpt><trkpt lat="45.05375892754633" lon="8.204804381296551"><ele>358.3333333333333</ele><time>2026-04-11T14:00:59.003Z</time></trkpt><trkpt lat="45.05369107789022" lon="8.204836818029214"><ele>355.5</ele><time>2026-04-11T14:01:00.003Z</time></trkpt><trkpt lat="45.053615126671396" lon="8.204855815801428"><ele>352.6666666666667</ele><time>2026-04-11T14:01:01.003Z</time></trkpt><trkpt lat="45.05354471534358" lon="8.20488625328552"><ele>349.83333333333337</ele><time>2026-04-11T14:01:02.003Z</time></trkpt><trkpt lat="45.05347088146356" lon="8.204929545984657"><ele>347.0</ele><time>2026-04-11T14:01:03.003Z</time></trkpt><trkpt lat="45.05340441130271" lon="8.20497259551295"><ele>347.0</ele><time>2026-04-11T14:01:04.003Z</time></trkpt><trkpt lat="45.053334110514214" lon="8.205016410264319"><ele>347.0</ele><time>2026-04-11T14:01:05.003Z</time></trkpt><trkpt lat="45.05327232688315" lon="8.205047052838506"><ele>347.0</ele><time>2026-04-11T14:01:06.003Z</time></trkpt><trkpt lat="45.05316598692886" lon="8.20511002550213"><ele>347.0</ele><time>2026-04-11T14:01:08.003Z</time></trkpt><trkpt lat="45.05311624093189" lon="8.20516584838468"><ele>347.0</ele><time>2026-04-11T14:01:09.003Z</time></trkpt><trkpt lat="45.053042594590856" lon="8.205257356493917"><ele>347.0</ele><time>2026-04-11T14:01:11.003Z</time></trkpt><trkpt lat="45.05313725161941" lon="8.205361305792293"><ele>347.0</ele><time>2026-04-11T14:01:18.003Z</time></trkpt><trkpt lat="45.0532204824804" lon="8.205308739417347"><ele>347.0</ele><time>2026-04-11T14:01:19.003Z</time></trkpt><trkpt lat="45.053318943745786" lon="8.205291313892198"><ele>347.0</ele><time>2026-04-11T14:01:20.003Z</time></trkpt><trkpt lat="45.05340809576832" lon="8.205255885694754"><ele>347.0</ele><time>2026-04-11T14:01:21.003Z</time></trkpt><trkpt lat="45.053501385664134" lon="8.205236928925148"><ele>347.0</ele><time>2026-04-11T14:01:21.999Z</time></trkpt><trkpt lat="45.05360783492884" lon="8.205236564034202"><ele>347.0</ele><time>2026-04-11T14:01:22.999Z</time></trkpt><trkpt lat="45.05371956817841" lon="8.205241033368104"><ele>347.0</ele><time>2026-04-11T14:01:23.999Z</time></trkpt><trkpt lat="45.05381991456509" lon="8.205245047241945"><ele>347.0</ele><time>2026-04-11T14:01:25Z</time></trkpt><trkpt lat="45.053917819681295" lon="8.205220780331071"><ele>347.0</ele><time>2026-04-11T14:01:26Z</time></trkpt><trkpt lat="45.05400669703911" lon="8.205218117800428"><ele>347.0</ele><time>2026-04-11T14:01:27Z</time></trkpt><trkpt lat="45.05408867888958" lon="8.205220316621812"><ele>347.33333333333337</ele><time>2026-04-11T14:01:28Z</time></trkpt><trkpt lat="45.05415974058215" lon="8.205196814003024"><ele>347.6666666666667</ele><time>2026-04-11T14:01:29Z</time></trkpt><trkpt lat="45.05423516203952" lon="8.205173666699293"><ele>348.0</ele><time>2026-04-11T14:01:30Z</time></trkpt><trkpt lat="45.054290658626485" lon="8.205118380234104"><ele>348.3333333333333</ele><time>2026-04-11T14:01:31Z</time></trkpt><trkpt lat="45.05436488256494" lon="8.205068442227438"><ele>348.66666666666663</ele><time>2026-04-11T14:01:33Z</time></trkpt><trkpt lat="45.05446214820402" lon="8.205148639776901"><ele>349.0</ele><time>2026-04-11T14:01:35Z</time></trkpt><trkpt lat="45.054513700989254" lon="8.205199927174176"><ele>349.0</ele><time>2026-04-11T14:01:36Z</time></trkpt><trkpt lat="45.05458463095616" lon="8.205196823588711"><ele>349.0</ele><time>2026-04-11T14:01:37Z</time></trkpt><trkpt lat="45.05467565467342" lon="8.205169344496122"><ele>349.0</ele><time>2026-04-11T14:01:38Z</time></trkpt><trkpt lat="45.05477636319133" lon="8.205124131979055"><ele>349.0</ele><time>2026-04-11T14:01:39Z</time></trkpt><trkpt lat="45.054875498787396" lon="8.205080521198012"><ele>349.0</ele><time>2026-04-11T14:01:40Z</time></trkpt><trkpt lat="45.054966978265895" lon="8.205045805301035"><ele>347.0</ele><time>2026-04-11T14:01:41Z</time></trkpt><trkpt lat="45.055050367987036" lon="8.205029101024381"><ele>345.0</ele><time>2026-04-11T14:01:42Z</time></trkpt><trkpt lat="45.055131060103136" lon="8.205035591699454"><ele>343.0</ele><time>2026-04-11T14:01:43Z</time></trkpt><trkpt lat="45.05521650952262" lon="8.205077116615476"><ele>341.0</ele><time>2026-04-11T14:01:44Z</time></trkpt><trkpt lat="45.055297218685745" lon="8.205127643394306"><ele>339.0</ele><time>2026-04-11T14:01:45Z</time></trkpt><trkpt lat="45.05537708997238" lon="8.205192861818885"><ele>337.0</ele><time>2026-04-11T14:01:46Z</time></trkpt><trkpt lat="45.05543889045503" lon="8.205296744746516"><ele>337.0</ele><time>2026-04-11T14:01:47Z</time></trkpt><trkpt lat="45.05551183460179" lon="8.205384677669516"><ele>337.0</ele><time>2026-04-11T14:01:48Z</time></trkpt><trkpt lat="45.05558011044356" lon="8.205503019068892"><ele>337.0</ele><time>2026-04-11T14:01:49Z</time></trkpt><trkpt lat="45.055648325719226" lon="8.205593481712803"><ele>337.0</ele><time>2026-04-11T14:01:50Z</time></trkpt><trkpt lat="45.05570534214091" lon="8.205647167959626"><ele>337.0</ele><time>2026-04-11T14:01:51Z</time></trkpt><trkpt lat="45.05583532764221" lon="8.205660472779213"><ele>336.0</ele><time>2026-04-11T14:01:53Z</time></trkpt><trkpt lat="45.05589539520156" lon="8.20558222785965"><ele>335.0</ele><time>2026-04-11T14:01:54Z</time></trkpt><trkpt lat="45.05597621234173" lon="8.205502458796872"><ele>334.0</ele><time>2026-04-11T14:01:55.001Z</time></trkpt><trkpt lat="45.056042605557614" lon="8.20539247380648"><ele>333.0</ele><time>2026-04-11T14:01:56.001Z</time></trkpt><trkpt lat="45.056105732763925" lon="8.205273270303792"><ele>332.0</ele><time>2026-04-11T14:01:57.001Z</time></trkpt><trkpt lat="45.05616355171446" lon="8.205150343247116"><ele>332.0</ele><time>2026-04-11T14:01:58.001Z</time></trkpt><trkpt lat="45.05620773186228" lon="8.205012508109489"><ele>332.0</ele><time>2026-04-11T14:01:59.001Z</time></trkpt><trkpt lat="45.056269872539794" lon="8.204871287146295"><ele>332.0</ele><time>2026-04-11T14:02:00.001Z</time></trkpt><trkpt lat="45.056325545880206" lon="8.204724535417622"><ele>332.0</ele><time>2026-04-11T14:02:01.001Z</time></trkpt><trkpt lat="45.05637870294219" lon="8.204610311160732"><ele>332.0</ele><time>2026-04-11T14:02:02.001Z</time></trkpt><trkpt lat="45.05641544543184" lon="8.204502088331658"><ele>330.0</ele><time>2026-04-11T14:02:03.001Z</time></trkpt><trkpt lat="45.056463475847025" lon="8.204434857242083"><ele>328.0</ele><time>2026-04-11T14:02:04.001Z</time></trkpt><trkpt lat="45.0565127968578" lon="8.204366264365081"><ele>326.0</ele><time>2026-04-11T14:02:05.001Z</time></trkpt><trkpt lat="45.056645073207335" lon="8.204254576185534"><ele>324.0</ele><time>2026-04-11T14:02:07.001Z</time></trkpt><trkpt lat="45.056737554389635" lon="8.204172857535939"><ele>322.0</ele><time>2026-04-11T14:02:08.001Z</time></trkpt><trkpt lat="45.056830767402424" lon="8.204081870748958"><ele>325.20000000000005</ele><time>2026-04-11T14:02:09.001Z</time></trkpt><trkpt lat="45.05690605961094" lon="8.203975748154159"><ele>328.4</ele><time>2026-04-11T14:02:10.001Z</time></trkpt><trkpt lat="45.05698763444854" lon="8.203893622867103"><ele>331.6</ele><time>2026-04-11T14:02:11.001Z</time></trkpt><trkpt lat="45.057035595765406" lon="8.203771554948082"><ele>334.79999999999995</ele><time>2026-04-11T14:02:12.001Z</time></trkpt><trkpt lat="45.05707873166892" lon="8.20367091891046"><ele>338.0</ele><time>2026-04-11T14:02:13.001Z</time></trkpt><trkpt lat="45.057130514370364" lon="8.20353882964294"><ele>338.0</ele><time>2026-04-11T14:02:14.001Z</time></trkpt><trkpt lat="45.057183167707" lon="8.203434064357431"><ele>338.0</ele><time>2026-04-11T14:02:15.001Z</time></trkpt><trkpt lat="45.05723455179583" lon="8.203366396522803"><ele>338.0</ele><time>2026-04-11T14:02:16.001Z</time></trkpt><trkpt lat="45.05730414143202" lon="8.20333115001352"><ele>338.0</ele><time>2026-04-11T14:02:18.001Z</time></trkpt><trkpt lat="45.05735403220719" lon="8.2035494114869"><ele>338.0</ele><time>2026-04-11T14:02:21.001Z</time></trkpt><trkpt lat="45.05737141965184" lon="8.20366725193922"><ele>338.0</ele><time>2026-04-11T14:02:22.001Z</time></trkpt><trkpt lat="45.05738813519143" lon="8.203792316945533"><ele>338.0</ele><time>2026-04-11T14:02:23.001Z</time></trkpt><trkpt lat="45.05741409779789" lon="8.203924391865568"><ele>338.0</ele><time>2026-04-11T14:02:24.001Z</time></trkpt><trkpt lat="45.057416166013404" lon="8.204065168261383"><ele>338.0</ele><time>2026-04-11T14:02:25.002Z</time></trkpt><trkpt lat="45.05741758588721" lon="8.20422690154261"><ele>338.0</ele><time>2026-04-11T14:02:26.002Z</time></trkpt><trkpt lat="45.05742143907948" lon="8.204384687624929"><ele>334.79999999999995</ele><time>2026-04-11T14:02:27.002Z</time></trkpt><trkpt lat="45.057426399156675" lon="8.204524940102585"><ele>331.6</ele><time>2026-04-11T14:02:28.002Z</time></trkpt><trkpt lat="45.057418090882415" lon="8.204655810552048"><ele>328.4</ele><time>2026-04-11T14:02:29.002Z</time></trkpt><trkpt lat="45.057441823601664" lon="8.204772001114636"><ele>325.20000000000005</ele><time>2026-04-11T14:02:30.002Z</time></trkpt><trkpt lat="45.05749571912079" lon="8.204894099014549"><ele>322.0</ele><time>2026-04-11T14:02:31.002Z</time></trkpt><trkpt lat="45.05752364440663" lon="8.205013440626436"><ele>320.40000000000003</ele><time>2026-04-11T14:02:32.002Z</time></trkpt><trkpt lat="45.05755933490776" lon="8.205110845776506"><ele>318.8</ele><time>2026-04-11T14:02:33.002Z</time></trkpt><trkpt lat="45.05760826403315" lon="8.205231383308478"><ele>317.2</ele><time>2026-04-11T14:02:35.002Z</time></trkpt><trkpt lat="45.057655346179395" lon="8.20530760472016"><ele>315.6</ele><time>2026-04-11T14:02:37.002Z</time></trkpt><trkpt lat="45.05773790915427" lon="8.205390194189274"><ele>314.0</ele><time>2026-04-11T14:02:39.002Z</time></trkpt><trkpt lat="45.057859795158514" lon="8.205443455306348"><ele>314.0</ele><time>2026-04-11T14:02:41.002Z</time></trkpt><trkpt lat="45.05792488624084" lon="8.205504225057032"><ele>314.0</ele><time>2026-04-11T14:02:42.002Z</time></trkpt><trkpt lat="45.057978667612" lon="8.205554913128093"><ele>314.0</ele><time>2026-04-11T14:02:43.002Z</time></trkpt><trkpt lat="45.058047744490366" lon="8.205691068150738"><ele>314.0</ele><time>2026-04-11T14:02:45.002Z</time></trkpt><trkpt lat="45.05806131425563" lon="8.205805823359155"><ele>314.0</ele><time>2026-04-11T14:02:46.002Z</time></trkpt><trkpt lat="45.05805905083525" lon="8.20592928151404"><ele>314.0</ele><time>2026-04-11T14:02:47.002Z</time></trkpt><trkpt lat="45.05804202446392" lon="8.206063887277248"><ele>311.25</ele><time>2026-04-11T14:02:48.002Z</time></trkpt><trkpt lat="45.05801561694512" lon="8.206225739273009"><ele>308.5</ele><time>2026-04-11T14:02:49.002Z</time></trkpt><trkpt lat="45.05799378957579" lon="8.206386897624224"><ele>305.75</ele><time>2026-04-11T14:02:50.002Z</time></trkpt><trkpt lat="45.057969198442464" lon="8.206544292215423"><ele>303.0</ele><time>2026-04-11T14:02:51.002Z</time></trkpt><trkpt lat="45.05794489455295" lon="8.206690146897671"><ele>303.2</ele><time>2026-04-11T14:02:52.002Z</time></trkpt><trkpt lat="45.057925519745176" lon="8.20683314623272"><ele>303.4</ele><time>2026-04-11T14:02:53.002Z</time></trkpt><trkpt lat="45.057909968187104" lon="8.206973502340588"><ele>303.59999999999997</ele><time>2026-04-11T14:02:54.002Z</time></trkpt><trkpt lat="45.057897159543955" lon="8.207109192348527"><ele>303.8</ele><time>2026-04-11T14:02:55.002Z</time></trkpt><trkpt lat="45.0578869455486" lon="8.20722113059571"><ele>304.0</ele><time>2026-04-11T14:02:56.002Z</time></trkpt><trkpt lat="45.05787438362156" lon="8.2073401653137"><ele>304.0</ele><time>2026-04-11T14:02:57.002Z</time></trkpt><trkpt lat="45.057852525326986" lon="8.20747556023589"><ele>304.0</ele><time>2026-04-11T14:02:58.003Z</time></trkpt><trkpt lat="45.0578323841009" lon="8.20760384083994"><ele>304.0</ele><time>2026-04-11T14:02:59.003Z</time></trkpt><trkpt lat="45.05782350494884" lon="8.207716734959252"><ele>304.0</ele><time>2026-04-11T14:03:00.003Z</time></trkpt><trkpt lat="45.05782556013606" lon="8.207817803986575"><ele>304.0</ele><time>2026-04-11T14:03:01.003Z</time></trkpt><trkpt lat="45.05782514163856" lon="8.207910154612133"><ele>304.0</ele><time>2026-04-11T14:03:02.003Z</time></trkpt><trkpt lat="45.05780933768927" lon="8.208037277050403"><ele>304.0</ele><time>2026-04-11T14:03:04.003Z</time></trkpt><trkpt lat="45.05772423947932" lon="8.208098220803773"><ele>304.0</ele><time>2026-04-11T14:03:06.003Z</time></trkpt><trkpt lat="45.05766107446577" lon="8.208085283024737"><ele>304.0</ele><time>2026-04-11T14:03:07.003Z</time></trkpt><trkpt lat="45.057556389723146" lon="8.208029006094192"><ele>304.0</ele><time>2026-04-11T14:03:09.003Z</time></trkpt><trkpt lat="45.057446700549676" lon="8.207973468739956"><ele>304.0</ele><time>2026-04-11T14:03:11.003Z</time></trkpt><trkpt lat="45.05738401596273" lon="8.207946816324558"><ele>301.59999999999997</ele><time>2026-04-11T14:03:13.003Z</time></trkpt><trkpt lat="45.05734785138243" lon="8.208128810193141"><ele>299.2</ele><time>2026-04-11T14:03:16.003Z</time></trkpt><trkpt lat="45.05738328948862" lon="8.20824624650127"><ele>296.79999999999995</ele><time>2026-04-11T14:03:18.003Z</time></trkpt><trkpt lat="45.05740508269261" lon="8.208344272018559"><ele>294.4</ele><time>2026-04-11T14:03:19.003Z</time></trkpt><trkpt lat="45.057423213478145" lon="8.208464229896636"><ele>292.0</ele><time>2026-04-11T14:03:20.003Z</time></trkpt><trkpt lat="45.05744345770521" lon="8.208599353547665"><ele>293.5</ele><time>2026-04-11T14:03:21.003Z</time></trkpt><trkpt lat="45.057461631163285" lon="8.208729672487832"><ele>295.0</ele><time>2026-04-11T14:03:22.003Z</time></trkpt><trkpt lat="45.0574785347816" lon="8.208853704967593"><ele>296.5</ele><time>2026-04-11T14:03:23.003Z</time></trkpt><trkpt lat="45.05749684514092" lon="8.208978648414408"><ele>298.0</ele><time>2026-04-11T14:03:24.003Z</time></trkpt><trkpt lat="45.05751695220804" lon="8.209102790043092"><ele>299.5</ele><time>2026-04-11T14:03:25.003Z</time></trkpt><trkpt lat="45.05753878483952" lon="8.20921936444271"><ele>301.0</ele><time>2026-04-11T14:03:26.003Z</time></trkpt><trkpt lat="45.05756658123623" lon="8.209343774895085"><ele>301.0</ele><time>2026-04-11T14:03:27.003Z</time></trkpt><trkpt lat="45.05759859725051" lon="8.209487037606165"><ele>301.0</ele><time>2026-04-11T14:03:27.999Z</time></trkpt><trkpt lat="45.05763471036753" lon="8.209643876518474"><ele>301.0</ele><time>2026-04-11T14:03:28.999Z</time></trkpt><trkpt lat="45.05766747242099" lon="8.209812492164355"><ele>301.0</ele><time>2026-04-11T14:03:29.999Z</time></trkpt><trkpt lat="45.05769704697197" lon="8.209982858240265"><ele>300.2</ele><time>2026-04-11T14:03:30.999Z</time></trkpt><trkpt lat="45.057728615533456" lon="8.210162621624846"><ele>299.40000000000003</ele><time>2026-04-11T14:03:31.999Z</time></trkpt><trkpt lat="45.057759223733136" lon="8.210334379036654"><ele>298.6</ele><time>2026-04-11T14:03:32.999Z</time></trkpt><trkpt lat="45.05778219977616" lon="8.210475277501699"><ele>297.8</ele><time>2026-04-11T14:03:33.999Z</time></trkpt><trkpt lat="45.057794059163044" lon="8.210585485347531"><ele>297.0</ele><time>2026-04-11T14:03:34.999Z</time></trkpt><trkpt lat="45.05780816489928" lon="8.210734016480107"><ele>297.0</ele><time>2026-04-11T14:03:36.999Z</time></trkpt><trkpt lat="45.057825883212885" lon="8.210837410672998"><ele>297.0</ele><time>2026-04-11T14:03:39Z</time></trkpt><trkpt lat="45.0578757507524" lon="8.210935707756708"><ele>297.0</ele><time>2026-04-11T14:03:41Z</time></trkpt><trkpt lat="45.057943792573646" lon="8.211017496554696"><ele>297.0</ele><time>2026-04-11T14:03:43Z</time></trkpt><trkpt lat="45.05793917099569" lon="8.211126357401593"><ele>297.0</ele><time>2026-04-11T14:03:45Z</time></trkpt><trkpt lat="45.057896737012136" lon="8.211193532613882"><ele>297.0</ele><time>2026-04-11T14:03:46Z</time></trkpt><trkpt lat="45.05783124275569" lon="8.211331069685754"><ele>297.0</ele><time>2026-04-11T14:03:48Z</time></trkpt><trkpt lat="45.057781521060484" lon="8.211449355133373"><ele>297.0</ele><time>2026-04-11T14:03:50Z</time></trkpt><trkpt lat="45.05775530125155" lon="8.211554817244298"><ele>297.0</ele><time>2026-04-11T14:03:52Z</time></trkpt><trkpt lat="45.057710625642365" lon="8.2116521550188"><ele>297.0</ele><time>2026-04-11T14:03:54Z</time></trkpt><trkpt lat="45.05765319321121" lon="8.211791058882408"><ele>297.0</ele><time>2026-04-11T14:03:56Z</time></trkpt><trkpt lat="45.05770565310453" lon="8.211882403922274"><ele>297.2</ele><time>2026-04-11T14:03:57Z</time></trkpt><trkpt lat="45.05772488801528" lon="8.212052689202531"><ele>297.4</ele><time>2026-04-11T14:03:59Z</time></trkpt><trkpt lat="45.05771275356752" lon="8.212219093975014"><ele>297.6</ele><time>2026-04-11T14:04:01Z</time></trkpt><trkpt lat="45.05776292296586" lon="8.212320843425221"><ele>297.8</ele><time>2026-04-11T14:04:02.001Z</time></trkpt><trkpt lat="45.057798062869196" lon="8.212412848230105"><ele>298.0</ele><time>2026-04-11T14:04:03.001Z</time></trkpt><trkpt lat="45.057824459863625" lon="8.212568031116799"><ele>298.0</ele><time>2026-04-11T14:04:05.001Z</time></trkpt><trkpt lat="45.05792097206112" lon="8.212686380783856"><ele>298.0</ele><time>2026-04-11T14:04:07.001Z</time></trkpt><trkpt lat="45.057951783892854" lon="8.212770743274586"><ele>298.0</ele><time>2026-04-11T14:04:08.001Z</time></trkpt><trkpt lat="45.05799830601987" lon="8.212855327466636"><ele>298.0</ele><time>2026-04-11T14:04:09.001Z</time></trkpt><trkpt lat="45.058065650817625" lon="8.212893882212478"><ele>298.0</ele><time>2026-04-11T14:04:10.001Z</time></trkpt><trkpt lat="45.05812368104707" lon="8.212988454291088"><ele>298.0</ele><time>2026-04-11T14:04:11.001Z</time></trkpt><trkpt lat="45.05817996104736" lon="8.213046963171248"><ele>298.0</ele><time>2026-04-11T14:04:12.001Z</time></trkpt><trkpt lat="45.05824312265327" lon="8.213099461211444"><ele>298.0</ele><time>2026-04-11T14:04:13.001Z</time></trkpt><trkpt lat="45.058312323147184" lon="8.213133786543509"><ele>298.0</ele><time>2026-04-11T14:04:14.001Z</time></trkpt><trkpt lat="45.05837400511048" lon="8.213185204676126"><ele>298.0</ele><time>2026-04-11T14:04:15.001Z</time></trkpt><trkpt lat="45.05843826028639" lon="8.213229007601896"><ele>298.0</ele><time>2026-04-11T14:04:16.001Z</time></trkpt><trkpt lat="45.05850424607541" lon="8.213275776922734"><ele>298.0</ele><time>2026-04-11T14:04:17.001Z</time></trkpt><trkpt lat="45.058581276975104" lon="8.21330256677057"><ele>298.0</ele><time>2026-04-11T14:04:18.001Z</time></trkpt><trkpt lat="45.05865411770421" lon="8.213319191116058"><ele>297.4</ele><time>2026-04-11T14:04:19.001Z</time></trkpt><trkpt lat="45.05875985887464" lon="8.213316943267442"><ele>296.8</ele><time>2026-04-11T14:04:21.001Z</time></trkpt><trkpt lat="45.05886230979123" lon="8.213209315866825"><ele>296.2</ele><time>2026-04-11T14:04:23.001Z</time></trkpt><trkpt lat="45.05891353652122" lon="8.213130643385918"><ele>295.6</ele><time>2026-04-11T14:04:24.001Z</time></trkpt><trkpt lat="45.058966704157086" lon="8.213050173561646"><ele>295.0</ele><time>2026-04-11T14:04:25.001Z</time></trkpt><trkpt lat="45.0590159823057" lon="8.212976796307355"><ele>292.5</ele><time>2026-04-11T14:04:26.001Z</time></trkpt><trkpt lat="45.05906532421369" lon="8.212880245324547"><ele>290.0</ele><time>2026-04-11T14:04:27.001Z</time></trkpt><trkpt lat="45.05912605791211" lon="8.212812889109683"><ele>287.5</ele><time>2026-04-11T14:04:28.001Z</time></trkpt><trkpt lat="45.05918004913337" lon="8.212732493899159"><ele>285.0</ele><time>2026-04-11T14:04:29.001Z</time></trkpt><trkpt lat="45.059234985504034" lon="8.21265069118593"><ele>282.5</ele><time>2026-04-11T14:04:30.001Z</time></trkpt><trkpt lat="45.05927610135226" lon="8.212566550635342"><ele>280.0</ele><time>2026-04-11T14:04:31.001Z</time></trkpt><trkpt lat="45.05933104983855" lon="8.21251088053435"><ele>277.2</ele><time>2026-04-11T14:04:32.002Z</time></trkpt><trkpt lat="45.05941200321101" lon="8.212399413740531"><ele>274.4</ele><time>2026-04-11T14:04:34.002Z</time></trkpt><trkpt lat="45.05949528143791" lon="8.212286967767843"><ele>271.6</ele><time>2026-04-11T14:04:36.002Z</time></trkpt><trkpt lat="45.059527159907645" lon="8.212166828762616"><ele>268.8</ele><time>2026-04-11T14:04:38.002Z</time></trkpt><trkpt lat="45.059545584002784" lon="8.212051467731223"><ele>266.0</ele><time>2026-04-11T14:04:40.002Z</time></trkpt><trkpt lat="45.05952198775084" lon="8.21192745388908"><ele>264.8</ele><time>2026-04-11T14:04:42.002Z</time></trkpt><trkpt lat="45.059574727016226" lon="8.211837709716105"><ele>263.6</ele><time>2026-04-11T14:04:44.002Z</time></trkpt><trkpt lat="45.05959451045509" lon="8.211751020792294"><ele>262.4</ele><time>2026-04-11T14:04:45.002Z</time></trkpt><trkpt lat="45.059630233556106" lon="8.21167289536844"><ele>261.2</ele><time>2026-04-11T14:04:46.002Z</time></trkpt><trkpt lat="45.05967686101591" lon="8.211590433255596"><ele>260.0</ele><time>2026-04-11T14:04:48.002Z</time></trkpt><trkpt lat="45.05950309354889" lon="8.211503120136571"><ele>260.0</ele><time>2026-04-11T14:04:51.002Z</time></trkpt><trkpt lat="45.059673010575935" lon="8.211599755554337"><ele>260.0</ele><time>2026-04-11T14:04:52.002Z</time></trkpt><trkpt lat="45.05951953159215" lon="8.211478243528186"><ele>260.0</ele><time>2026-04-11T14:04:54.002Z</time></trkpt><trkpt lat="45.05959718117633" lon="8.211523117808506"><ele>260.0</ele><time>2026-04-11T14:05:05.003Z</time></trkpt><trkpt lat="45.0596295238243" lon="8.211600900969808"><ele>260.0</ele><time>2026-04-11T14:05:07.003Z</time></trkpt><trkpt lat="45.059609497413916" lon="8.211705083637298"><ele>260.0</ele><time>2026-04-11T14:05:09.003Z</time></trkpt><trkpt lat="45.05955727995231" lon="8.211781590059696"><ele>260.0</ele><time>2026-04-11T14:05:11.003Z</time></trkpt><trkpt lat="45.05955787546061" lon="8.211874602664537"><ele>260.0</ele><time>2026-04-11T14:05:15.003Z</time></trkpt><trkpt lat="45.05963197540442" lon="8.211935659000748"><ele>260.0</ele><time>2026-04-11T14:05:23.003Z</time></trkpt><trkpt lat="45.059702235577305" lon="8.21200583712658"><ele>260.0</ele><time>2026-04-11T14:05:26.003Z</time></trkpt><trkpt lat="45.05978652879832" lon="8.211983315041824"><ele>260.0</ele><time>2026-04-11T14:05:28.003Z</time></trkpt><trkpt lat="45.05986968080048" lon="8.211934829680857"><ele>260.0</ele><time>2026-04-11T14:05:30.003Z</time></trkpt><trkpt lat="45.05996510384402" lon="8.211866873271083"><ele>260.0</ele><time>2026-04-11T14:05:32.003Z</time></trkpt><trkpt lat="45.06004461321699" lon="8.211804311696195"><ele>260.0</ele><time>2026-04-11T14:05:34Z</time></trkpt><trkpt lat="45.06013345203596" lon="8.211742995933653"><ele>260.0</ele><time>2026-04-11T14:05:36Z</time></trkpt><trkpt lat="45.06023716708967" lon="8.21167458095767"><ele>258.4</ele><time>2026-04-11T14:05:38Z</time></trkpt><trkpt lat="45.06033721933378" lon="8.211577315481147"><ele>256.8</ele><time>2026-04-11T14:05:40Z</time></trkpt><trkpt lat="45.06045274514603" lon="8.211502827990977"><ele>255.2</ele><time>2026-04-11T14:05:42Z</time></trkpt><trkpt lat="45.06052722947407" lon="8.211412897595551"><ele>253.6</ele><time>2026-04-11T14:05:44Z</time></trkpt><trkpt lat="45.06060431250423" lon="8.211361547416791"><ele>252.0</ele><time>2026-04-11T14:05:46Z</time></trkpt><trkpt lat="45.0606522009695" lon="8.211468245330568"><ele>252.0</ele><time>2026-04-11T14:05:49Z</time></trkpt><trkpt lat="45.06060959184541" lon="8.21156383880723"><ele>252.0</ele><time>2026-04-11T14:05:51Z</time></trkpt><trkpt lat="45.06055169817388" lon="8.211643573715477"><ele>252.0</ele><time>2026-04-11T14:05:53Z</time></trkpt><trkpt lat="45.06051174791366" lon="8.211758958185161"><ele>252.0</ele><time>2026-04-11T14:05:55Z</time></trkpt><trkpt lat="45.06050272230643" lon="8.211882472562001"><ele>252.0</ele><time>2026-04-11T14:05:57Z</time></trkpt><trkpt lat="45.0605233566109" lon="8.212006198962142"><ele>252.0</ele><time>2026-04-11T14:05:59Z</time></trkpt><trkpt lat="45.06058367864095" lon="8.212110777667824"><ele>252.0</ele><time>2026-04-11T14:06:01Z</time></trkpt><trkpt lat="45.06064235344046" lon="8.212235729022307"><ele>252.0</ele><time>2026-04-11T14:06:03Z</time></trkpt><trkpt lat="45.060691003983656" lon="8.21237492314186"><ele>252.0</ele><time>2026-04-11T14:06:05Z</time></trkpt><trkpt lat="45.06073803948005" lon="8.212476514513188"><ele>252.0</ele><time>2026-04-11T14:06:07Z</time></trkpt><trkpt lat="45.06079008011156" lon="8.212527763949177"><ele>252.0</ele><time>2026-04-11T14:06:10.001Z</time></trkpt><trkpt lat="45.06086056279522" lon="8.212615825592993"><ele>248.8</ele><time>2026-04-11T14:06:12.001Z</time></trkpt><trkpt lat="45.06093396357435" lon="8.212693857147311"><ele>245.6</ele><time>2026-04-11T14:06:14.001Z</time></trkpt><trkpt lat="45.06101758375521" lon="8.212791904992487"><ele>242.40000000000003</ele><time>2026-04-11T14:06:17.001Z</time></trkpt><trkpt lat="45.06106679551201" lon="8.212953295919096"><ele>239.20000000000002</ele><time>2026-04-11T14:06:19.001Z</time></trkpt><trkpt lat="45.06106935546443" lon="8.213063955443484"><ele>236.0</ele><time>2026-04-11T14:06:20.001Z</time></trkpt><trkpt lat="45.061053590288765" lon="8.213179996525033"><ele>236.0</ele><time>2026-04-11T14:06:21.001Z</time></trkpt><trkpt lat="45.061038996413615" lon="8.213276960109896"><ele>236.00000000000003</ele><time>2026-04-11T14:06:22.001Z</time></trkpt><trkpt lat="45.06103236679899" lon="8.213390202230675"><ele>236.00000000000003</ele><time>2026-04-11T14:06:23.001Z</time></trkpt><trkpt lat="45.06104761726336" lon="8.213534283439524"><ele>236.0</ele><time>2026-04-11T14:06:25.001Z</time></trkpt><trkpt lat="45.061089495238505" lon="8.21366940674621"><ele>236.0</ele><time>2026-04-11T14:06:27.001Z</time></trkpt><trkpt lat="45.061164989082194" lon="8.213787529641582"><ele>236.00000000000003</ele><time>2026-04-11T14:06:29.001Z</time></trkpt><trkpt lat="45.06127723052781" lon="8.213881283771329"><ele>236.0</ele><time>2026-04-11T14:06:31.001Z</time></trkpt><trkpt lat="45.06132042465858" lon="8.213959605213521"><ele>236.0</ele><time>2026-04-11T14:06:32.001Z</time></trkpt><trkpt lat="45.06137936598553" lon="8.214045620931024"><ele>236.0</ele><time>2026-04-11T14:06:33.001Z</time></trkpt><trkpt lat="45.06144457334129" lon="8.214125210013616"><ele>236.00000000000003</ele><time>2026-04-11T14:06:34.001Z</time></trkpt><trkpt lat="45.06150058278545" lon="8.214195223235233"><ele>236.0</ele><time>2026-04-11T14:06:35.001Z</time></trkpt><trkpt lat="45.061562806033116" lon="8.214336119988408"><ele>235.50000000000003</ele><time>2026-04-11T14:06:37.001Z</time></trkpt><trkpt lat="45.061607366168516" lon="8.214424483411909"><ele>235.0</ele><time>2026-04-11T14:06:38.001Z</time></trkpt><trkpt lat="45.061648704481605" lon="8.214493811081201"><ele>234.5</ele><time>2026-04-11T14:06:39.001Z</time></trkpt><trkpt lat="45.06174544249593" lon="8.214568893573615"><ele>234.0</ele><time>2026-04-11T14:06:41.001Z</time></trkpt><trkpt lat="45.06186383614277" lon="8.214568044550173"><ele>233.50000000000003</ele><time>2026-04-11T14:06:43.002Z</time></trkpt><trkpt lat="45.061942759901235" lon="8.214560392439024"><ele>233.0</ele><time>2026-04-11T14:06:44.002Z</time></trkpt><trkpt lat="45.06201902379785" lon="8.214566094169786"><ele>229.60000000000002</ele><time>2026-04-11T14:06:45.002Z</time></trkpt><trkpt lat="45.0621147683026" lon="8.21460440155411"><ele>226.20000000000002</ele><time>2026-04-11T14:06:47.002Z</time></trkpt><trkpt lat="45.06219843650937" lon="8.214713179705797"><ele>222.8</ele><time>2026-04-11T14:06:49.002Z</time></trkpt><trkpt lat="45.06225870926877" lon="8.2147984604355"><ele>219.4</ele><time>2026-04-11T14:06:50.002Z</time></trkpt><trkpt lat="45.06232421069459" lon="8.214892328137589"><ele>216.0</ele><time>2026-04-11T14:06:51.002Z</time></trkpt><trkpt lat="45.06238936533218" lon="8.21498329936909"><ele>216.0</ele><time>2026-04-11T14:06:52.002Z</time></trkpt><trkpt lat="45.062443616322874" lon="8.215063356640687"><ele>216.0</ele><time>2026-04-11T14:06:53.002Z</time></trkpt><trkpt lat="45.062493893826506" lon="8.215134677277419"><ele>216.0</ele><time>2026-04-11T14:06:54.002Z</time></trkpt><trkpt lat="45.06254745260704" lon="8.21523636930806"><ele>216.0</ele><time>2026-04-11T14:06:56.002Z</time></trkpt><trkpt lat="45.06248945111354" lon="8.215363578258494"><ele>216.0</ele><time>2026-04-11T14:06:59.002Z</time></trkpt><trkpt lat="45.06244544631668" lon="8.215445585566746"><ele>216.0</ele><time>2026-04-11T14:07:00.002Z</time></trkpt><trkpt lat="45.06239722284333" lon="8.215559878805552"><ele>215.5</ele><time>2026-04-11T14:07:01.002Z</time></trkpt><trkpt lat="45.062354917494424" lon="8.215716666997196"><ele>215.0</ele><time>2026-04-11T14:07:02.002Z</time></trkpt><trkpt lat="45.06231087336406" lon="8.215897120485735"><ele>214.5</ele><time>2026-04-11T14:07:03.002Z</time></trkpt><trkpt lat="45.06226502614697" lon="8.216097740558073"><ele>214.0</ele><time>2026-04-11T14:07:04.002Z</time></trkpt><trkpt lat="45.062221656956" lon="8.21629140446795"><ele>214.0</ele><time>2026-04-11T14:07:05.002Z</time></trkpt><trkpt lat="45.06218143443292" lon="8.216475454490709"><ele>214.0</ele><time>2026-04-11T14:07:06.002Z</time></trkpt><trkpt lat="45.06214031877822" lon="8.216663317165468"><ele>214.0</ele><time>2026-04-11T14:07:07.002Z</time></trkpt><trkpt lat="45.06209363212922" lon="8.21685971033654"><ele>214.0</ele><time>2026-04-11T14:07:08.002Z</time></trkpt><trkpt lat="45.06203463853104" lon="8.217060032713478"><ele>214.66666666666666</ele><time>2026-04-11T14:07:09.002Z</time></trkpt><trkpt lat="45.06197345662691" lon="8.217259897686198"><ele>215.33333333333331</ele><time>2026-04-11T14:07:10.002Z</time></trkpt><trkpt lat="45.06191793207459" lon="8.217460717826514"><ele>216.0</ele><time>2026-04-11T14:07:11.002Z</time></trkpt><trkpt lat="45.06187120662983" lon="8.217664732359271"><ele>216.0</ele><time>2026-04-11T14:07:12.002Z</time></trkpt><trkpt lat="45.061823941778506" lon="8.217876287037308"><ele>216.0</ele><time>2026-04-11T14:07:13.002Z</time></trkpt><trkpt lat="45.06177304806696" lon="8.218100424857637"><ele>216.0</ele><time>2026-04-11T14:07:14.002Z</time></trkpt><trkpt lat="45.06171683207005" lon="8.218319871929177"><ele>215.5</ele><time>2026-04-11T14:07:15.003Z</time></trkpt><trkpt lat="45.06166556005141" lon="8.218518975376846"><ele>215.0</ele><time>2026-04-11T14:07:16.003Z</time></trkpt><trkpt lat="45.06161374560686" lon="8.218716637140469"><ele>214.5</ele><time>2026-04-11T14:07:17.003Z</time></trkpt><trkpt lat="45.06156764850406" lon="8.218908641313089"><ele>214.0</ele><time>2026-04-11T14:07:18.003Z</time></trkpt><trkpt lat="45.06151765649232" lon="8.219101251912981"><ele>212.0</ele><time>2026-04-11T14:07:19.003Z</time></trkpt><trkpt lat="45.06146832224391" lon="8.21928726412036"><ele>210.0</ele><time>2026-04-11T14:07:20.003Z</time></trkpt><trkpt lat="45.06142620889429" lon="8.21945583769214"><ele>208.0</ele><time>2026-04-11T14:07:21.003Z</time></trkpt><trkpt lat="45.061382510156676" lon="8.219616159877264"><ele>206.0</ele><time>2026-04-11T14:07:22.003Z</time></trkpt><trkpt lat="45.06134274922707" lon="8.219766918242108"><ele>205.50000000000003</ele><time>2026-04-11T14:07:23.003Z</time></trkpt><trkpt lat="45.061303611470514" lon="8.219900270294806"><ele>205.0</ele><time>2026-04-11T14:07:24.003Z</time></trkpt><trkpt lat="45.061267665102086" lon="8.220000341171701"><ele>204.5</ele><time>2026-04-11T14:07:25.003Z</time></trkpt><trkpt lat="45.061220427745546" lon="8.220117716492876"><ele>204.0</ele><time>2026-04-11T14:07:27.003Z</time></trkpt><trkpt lat="45.06122610953325" lon="8.22024741053716"><ele>203.50000000000003</ele><time>2026-04-11T14:07:29.003Z</time></trkpt><trkpt lat="45.06124038374354" lon="8.220350471316053"><ele>203.0</ele><time>2026-04-11T14:07:30.003Z</time></trkpt><trkpt lat="45.06125727178625" lon="8.220466252413601"><ele>203.00000000000003</ele><time>2026-04-11T14:07:31.003Z</time></trkpt><trkpt lat="45.061278634649966" lon="8.220561888963404"><ele>203.0</ele><time>2026-04-11T14:07:32.003Z</time></trkpt><trkpt lat="45.06130847314023" lon="8.220656628668866"><ele>203.0</ele><time>2026-04-11T14:07:33.003Z</time></trkpt><trkpt lat="45.06135743220771" lon="8.220767568406464"><ele>203.0</ele><time>2026-04-11T14:07:34.003Z</time></trkpt><trkpt lat="45.06141919763149" lon="8.220873742452033"><ele>203.00000000000003</ele><time>2026-04-11T14:07:35.003Z</time></trkpt><trkpt lat="45.06147813233315" lon="8.220977266378442"><ele>203.0</ele><time>2026-04-11T14:07:36.003Z</time></trkpt><trkpt lat="45.06151693719522" lon="8.221061910493455"><ele>203.0</ele><time>2026-04-11T14:07:37.003Z</time></trkpt><trkpt lat="45.06154664869821" lon="8.221170740908931"><ele>203.0</ele><time>2026-04-11T14:07:38.003Z</time></trkpt><trkpt lat="45.06155638187529" lon="8.221299866873785"><ele>203.0</ele><time>2026-04-11T14:07:39.003Z</time></trkpt><trkpt lat="45.06155747615466" lon="8.22143912518045"><ele>203.0</ele><time>2026-04-11T14:07:40Z</time></trkpt><trkpt lat="45.061565414352714" lon="8.221597058767601"><ele>203.0</ele><time>2026-04-11T14:07:41Z</time></trkpt><trkpt lat="45.06157702548811" lon="8.221751597848115"><ele>203.0</ele><time>2026-04-11T14:07:42Z</time></trkpt><trkpt lat="45.06159494771108" lon="8.221912747619127"><ele>203.0</ele><time>2026-04-11T14:07:43Z</time></trkpt><trkpt lat="45.06161440849532" lon="8.22207744215925"><ele>203.0</ele><time>2026-04-11T14:07:44Z</time></trkpt><trkpt lat="45.06163115112093" lon="8.222234402125109"><ele>203.0</ele><time>2026-04-11T14:07:45Z</time></trkpt><trkpt lat="45.0616494462117" lon="8.222389063615731"><ele>203.4</ele><time>2026-04-11T14:07:46Z</time></trkpt><trkpt lat="45.06166288260229" lon="8.222535228554175"><ele>203.8</ele><time>2026-04-11T14:07:47Z</time></trkpt><trkpt lat="45.06166373171888" lon="8.222663161717698"><ele>204.2</ele><time>2026-04-11T14:07:48Z</time></trkpt><trkpt lat="45.06165845445015" lon="8.222785847089936"><ele>204.6</ele><time>2026-04-11T14:07:49Z</time></trkpt><trkpt lat="45.061657147375975" lon="8.222915668063647"><ele>205.0</ele><time>2026-04-11T14:07:50Z</time></trkpt><trkpt lat="45.06166662601338" lon="8.223030285712769"><ele>204.99999999999997</ele><time>2026-04-11T14:07:51Z</time></trkpt><trkpt lat="45.06169153723958" lon="8.22312266100033"><ele>205.0</ele><time>2026-04-11T14:07:52Z</time></trkpt><trkpt lat="45.06173478417399" lon="8.223219432110554"><ele>205.0</ele><time>2026-04-11T14:07:53Z</time></trkpt><trkpt lat="45.06178381835379" lon="8.223299378309903"><ele>205.0</ele><time>2026-04-11T14:07:54Z</time></trkpt><trkpt lat="45.061840809827586" lon="8.223396160430688"><ele>204.99999999999997</ele><time>2026-04-11T14:07:55Z</time></trkpt><trkpt lat="45.06188732978087" lon="8.223472896204003"><ele>205.0</ele><time>2026-04-11T14:07:56Z</time></trkpt><trkpt lat="45.06193436632528" lon="8.223568222172645"><ele>205.66666666666666</ele><time>2026-04-11T14:07:57Z</time></trkpt><trkpt lat="45.06196520516093" lon="8.22365722394791"><ele>206.33333333333331</ele><time>2026-04-11T14:07:58Z</time></trkpt><trkpt lat="45.06198121022955" lon="8.223767361526646"><ele>207.0</ele><time>2026-04-11T14:07:59Z</time></trkpt><trkpt lat="45.06198986707314" lon="8.22387487658011"><ele>207.66666666666669</ele><time>2026-04-11T14:08:00Z</time></trkpt><trkpt lat="45.0620083711978" lon="8.22402128886167"><ele>208.33333333333334</ele><time>2026-04-11T14:08:01Z</time></trkpt><trkpt lat="45.06202510633066" lon="8.224143009851096"><ele>209.0</ele><time>2026-04-11T14:08:02Z</time></trkpt><trkpt lat="45.06204152663022" lon="8.224283721384712"><ele>211.39999999999998</ele><time>2026-04-11T14:08:03Z</time></trkpt><trkpt lat="45.06204895263343" lon="8.224434923458242"><ele>213.8</ele><time>2026-04-11T14:08:04Z</time></trkpt><trkpt lat="45.06205729758071" lon="8.224575619455521"><ele>216.20000000000002</ele><time>2026-04-11T14:08:05Z</time></trkpt><trkpt lat="45.06206687880114" lon="8.224709630447768"><ele>218.60000000000002</ele><time>2026-04-11T14:08:06Z</time></trkpt><trkpt lat="45.06206646722868" lon="8.224819104260014"><ele>221.0</ele><time>2026-04-11T14:08:07Z</time></trkpt><trkpt lat="45.06208410741863" lon="8.224922585731774"><ele>223.60000000000002</ele><time>2026-04-11T14:08:08Z</time></trkpt><trkpt lat="45.06210421731494" lon="8.225027721742752"><ele>226.20000000000002</ele><time>2026-04-11T14:08:09Z</time></trkpt><trkpt lat="45.06213328860975" lon="8.22515828932791"><ele>228.79999999999998</ele><time>2026-04-11T14:08:10Z</time></trkpt><trkpt lat="45.06215650787005" lon="8.225292725229291"><ele>231.39999999999998</ele><time>2026-04-11T14:08:11.001Z</time></trkpt><trkpt lat="45.062177119422685" lon="8.225436554105478"><ele>234.0</ele><time>2026-04-11T14:08:12.001Z</time></trkpt><trkpt lat="45.062203935962444" lon="8.225588357080333"><ele>235.39999999999998</ele><time>2026-04-11T14:08:13.001Z</time></trkpt><trkpt lat="45.06223008995148" lon="8.225737746275795"><ele>236.79999999999998</ele><time>2026-04-11T14:08:14.001Z</time></trkpt><trkpt lat="45.06225026769343" lon="8.22587886770282"><ele>238.20000000000002</ele><time>2026-04-11T14:08:15.001Z</time></trkpt><trkpt lat="45.06226628895654" lon="8.226024064317215"><ele>239.60000000000002</ele><time>2026-04-11T14:08:16.001Z</time></trkpt><trkpt lat="45.06227920378833" lon="8.226163972945054"><ele>241.0</ele><time>2026-04-11T14:08:17.001Z</time></trkpt><trkpt lat="45.062284601109944" lon="8.226306173518045"><ele>241.0</ele><time>2026-04-11T14:08:18.001Z</time></trkpt><trkpt lat="45.06226896284516" lon="8.226422711470198"><ele>241.00000000000003</ele><time>2026-04-11T14:08:19.001Z</time></trkpt><trkpt lat="45.06224753207483" lon="8.226539626796733"><ele>241.00000000000003</ele><time>2026-04-11T14:08:20.001Z</time></trkpt><trkpt lat="45.06218927527568" lon="8.226701984527343"><ele>241.0</ele><time>2026-04-11T14:08:22.001Z</time></trkpt><trkpt lat="45.062158775120565" lon="8.22680683164998"><ele>241.0</ele><time>2026-04-11T14:08:23.001Z</time></trkpt><trkpt lat="45.06213197151971" lon="8.226924849570091"><ele>242.60000000000002</ele><time>2026-04-11T14:08:24.001Z</time></trkpt><trkpt lat="45.062105636756556" lon="8.227051494940437"><ele>244.20000000000002</ele><time>2026-04-11T14:08:25.001Z</time></trkpt><trkpt lat="45.062070199839596" lon="8.227195622996662"><ele>245.79999999999998</ele><time>2026-04-11T14:08:26.001Z</time></trkpt><trkpt lat="45.062036575138585" lon="8.227341239425968"><ele>247.39999999999998</ele><time>2026-04-11T14:08:27.001Z</time></trkpt><trkpt lat="45.06200466404385" lon="8.227482779287447"><ele>249.0</ele><time>2026-04-11T14:08:28.001Z</time></trkpt><trkpt lat="45.0619854588533" lon="8.227589088814678"><ele>250.83333333333334</ele><time>2026-04-11T14:08:29.001Z</time></trkpt><trkpt lat="45.06197519820642" lon="8.227695049260468"><ele>252.66666666666669</ele><time>2026-04-11T14:08:30.001Z</time></trkpt><trkpt lat="45.061976878402234" lon="8.22781105069922"><ele>254.5</ele><time>2026-04-11T14:08:31.001Z</time></trkpt><trkpt lat="45.061987861892824" lon="8.22791679316594"><ele>256.33333333333337</ele><time>2026-04-11T14:08:32.001Z</time></trkpt><trkpt lat="45.061990231530025" lon="8.228025783372296"><ele>258.1666666666667</ele><time>2026-04-11T14:08:33.001Z</time></trkpt><trkpt lat="45.06203696191776" lon="8.228104874799044"><ele>260.0</ele><time>2026-04-11T14:08:34.001Z</time></trkpt><trkpt lat="45.06207685824228" lon="8.228184148249793"><ele>261.5</ele><time>2026-04-11T14:08:35.001Z</time></trkpt><trkpt lat="45.06212475585987" lon="8.228266473044306"><ele>263.0</ele><time>2026-04-11T14:08:36.001Z</time></trkpt><trkpt lat="45.06221581980959" lon="8.228354720539343"><ele>264.5</ele><time>2026-04-11T14:08:38.001Z</time></trkpt><trkpt lat="45.06227140220894" lon="8.228426454514532"><ele>266.0</ele><time>2026-04-11T14:08:40.001Z</time></trkpt><trkpt lat="45.062323680171545" lon="8.228506556988629"><ele>267.5</ele><time>2026-04-11T14:09:21.003Z</time></trkpt><trkpt lat="45.06236313795788" lon="8.228620025222542"><ele>269.0</ele><time>2026-04-11T14:09:25.003Z</time></trkpt><trkpt lat="45.06216783736655" lon="8.229005250996355"><ele>269.0</ele><time>2026-04-11T14:09:26.003Z</time></trkpt><trkpt lat="45.06212820742234" lon="8.229092789333501"><ele>269.0</ele><time>2026-04-11T14:09:27.003Z</time></trkpt><trkpt lat="45.062074261518404" lon="8.229176845265245"><ele>269.0</ele><time>2026-04-11T14:09:28.003Z</time></trkpt><trkpt lat="45.06204172553592" lon="8.229273984320006"><ele>269.0</ele><time>2026-04-11T14:09:29.003Z</time></trkpt><trkpt lat="45.061988299216786" lon="8.229352694526966"><ele>269.0</ele><time>2026-04-11T14:09:30.003Z</time></trkpt><trkpt lat="45.06192097728244" lon="8.229444365367689"><ele>269.0</ele><time>2026-04-11T14:09:31.003Z</time></trkpt><trkpt lat="45.06186511622832" lon="8.229507177265882"><ele>269.0</ele><time>2026-04-11T14:09:32.003Z</time></trkpt><trkpt lat="45.06180762838855" lon="8.229574175182734"><ele>269.0</ele><time>2026-04-11T14:09:33.003Z</time></trkpt><trkpt lat="45.06175383661053" lon="8.229632570713196"><ele>269.0</ele><time>2026-04-11T14:09:34.003Z</time></trkpt><trkpt lat="45.06170059097117" lon="8.229694469949582"><ele>269.0</ele><time>2026-04-11T14:09:35.003Z</time></trkpt><trkpt lat="45.061639927982284" lon="8.229748591208265"><ele>269.0</ele><time>2026-04-11T14:09:36.003Z</time></trkpt><trkpt lat="45.06155004693154" lon="8.229828701021079"><ele>269.0</ele><time>2026-04-11T14:09:38.003Z</time></trkpt><trkpt lat="45.061548630479464" lon="8.22998721965292"><ele>267.5</ele><time>2026-04-11T14:09:40.003Z</time></trkpt><trkpt lat="45.061553094741264" lon="8.230078298876446"><ele>266.0</ele><time>2026-04-11T14:09:41.003Z</time></trkpt><trkpt lat="45.061572353311675" lon="8.23017718883509"><ele>264.5</ele><time>2026-04-11T14:09:42.003Z</time></trkpt><trkpt lat="45.06158618931258" lon="8.230291618734269"><ele>263.0</ele><time>2026-04-11T14:09:43.003Z</time></trkpt><trkpt lat="45.061594421355636" lon="8.230408969287211"><ele>261.5</ele><time>2026-04-11T14:09:44.003Z</time></trkpt><trkpt lat="45.06160359924476" lon="8.230526776460042"><ele>260.0</ele><time>2026-04-11T14:09:45.003Z</time></trkpt><trkpt lat="45.061605978141756" lon="8.23063944861549"><ele>258.5</ele><time>2026-04-11T14:09:46Z</time></trkpt><trkpt lat="45.06160796988048" lon="8.230749901076226"><ele>257.0</ele><time>2026-04-11T14:09:47Z</time></trkpt><trkpt lat="45.06160126375481" lon="8.23085302674855"><ele>255.5</ele><time>2026-04-11T14:09:48Z</time></trkpt><trkpt lat="45.06158968948112" lon="8.230949580196254"><ele>254.0</ele><time>2026-04-11T14:09:49Z</time></trkpt><trkpt lat="45.06157648208702" lon="8.231045007804168"><ele>252.50000000000003</ele><time>2026-04-11T14:09:50Z</time></trkpt><trkpt lat="45.06156467755895" lon="8.231155438424354"><ele>251.0</ele><time>2026-04-11T14:09:51Z</time></trkpt><trkpt lat="45.06155333179743" lon="8.231270129030214"><ele>251.00000000000003</ele><time>2026-04-11T14:09:52Z</time></trkpt><trkpt lat="45.0615392166142" lon="8.231394260200224"><ele>251.0</ele><time>2026-04-11T14:09:53Z</time></trkpt><trkpt lat="45.061527732027265" lon="8.231506784404546"><ele>251.0</ele><time>2026-04-11T14:09:54Z</time></trkpt><trkpt lat="45.06151698431165" lon="8.23161943767753"><ele>251.0</ele><time>2026-04-11T14:09:55Z</time></trkpt><trkpt lat="45.06150474201799" lon="8.231738201475746"><ele>251.00000000000003</ele><time>2026-04-11T14:09:56Z</time></trkpt><trkpt lat="45.06149596876691" lon="8.231845256424123"><ele>251.0</ele><time>2026-04-11T14:09:57Z</time></trkpt><trkpt lat="45.061489328418034" lon="8.231941118371024"><ele>249.50000000000003</ele><time>2026-04-11T14:09:58Z</time></trkpt><trkpt lat="45.061493940685466" lon="8.232044016687448"><ele>248.0</ele><time>2026-04-11T14:09:59Z</time></trkpt><trkpt lat="45.06150665720124" lon="8.23216838785005"><ele>246.5</ele><time>2026-04-11T14:10:00Z</time></trkpt><trkpt lat="45.061524323001244" lon="8.232288216724"><ele>245.0</ele><time>2026-04-11T14:10:01Z</time></trkpt><trkpt lat="45.06153809803738" lon="8.23241449040099"><ele>243.50000000000003</ele><time>2026-04-11T14:10:02Z</time></trkpt><trkpt lat="45.061546296931446" lon="8.232544628221854"><ele>242.0</ele><time>2026-04-11T14:10:03Z</time></trkpt><trkpt lat="45.06154776202841" lon="8.232679108578242"><ele>240.2</ele><time>2026-04-11T14:10:04Z</time></trkpt><trkpt lat="45.06154661994292" lon="8.232818821754622"><ele>238.39999999999998</ele><time>2026-04-11T14:10:05Z</time></trkpt><trkpt lat="45.061544987449075" lon="8.232955286114366"><ele>236.60000000000002</ele><time>2026-04-11T14:10:06Z</time></trkpt><trkpt lat="45.06154060728699" lon="8.233092294242503"><ele>234.8</ele><time>2026-04-11T14:10:07Z</time></trkpt><trkpt lat="45.06153507325981" lon="8.233221384486432"><ele>233.0</ele><time>2026-04-11T14:10:08Z</time></trkpt><trkpt lat="45.061528301807776" lon="8.233337806524284"><ele>231.4</ele><time>2026-04-11T14:10:09Z</time></trkpt><trkpt lat="45.06152061227721" lon="8.233470370778562"><ele>229.8</ele><time>2026-04-11T14:10:10Z</time></trkpt><trkpt lat="45.06151150255394" lon="8.233585550009629"><ele>228.2</ele><time>2026-04-11T14:10:11Z</time></trkpt><trkpt lat="45.061502343953116" lon="8.233721355629463"><ele>226.6</ele><time>2026-04-11T14:10:12Z</time></trkpt><trkpt lat="45.06149392353323" lon="8.233860621253926"><ele>225.0</ele><time>2026-04-11T14:10:13Z</time></trkpt><trkpt lat="45.061492704339905" lon="8.233993954926882"><ele>223.4</ele><time>2026-04-11T14:10:14Z</time></trkpt><trkpt lat="45.06149162838428" lon="8.234133991188553"><ele>221.8</ele><time>2026-04-11T14:10:15Z</time></trkpt><trkpt lat="45.06148724029134" lon="8.23427297395586"><ele>220.2</ele><time>2026-04-11T14:10:16Z</time></trkpt><trkpt lat="45.061479658402085" lon="8.234406640797962"><ele>218.6</ele><time>2026-04-11T14:10:17Z</time></trkpt><trkpt lat="45.061468650174625" lon="8.234533221281458"><ele>217.0</ele><time>2026-04-11T14:10:18.001Z</time></trkpt><trkpt lat="45.06145462526648" lon="8.234649208132014"><ele>216.99999999999997</ele><time>2026-04-11T14:10:19.001Z</time></trkpt><trkpt lat="45.06143749376814" lon="8.234760992438375"><ele>217.0</ele><time>2026-04-11T14:10:20.001Z</time></trkpt><trkpt lat="45.061420036858166" lon="8.23486214196433"><ele>217.0</ele><time>2026-04-11T14:10:21.001Z</time></trkpt><trkpt lat="45.06140534767782" lon="8.234957540492028"><ele>217.0</ele><time>2026-04-11T14:10:22.001Z</time></trkpt><trkpt lat="45.0613887312615" lon="8.235058948139983"><ele>216.99999999999997</ele><time>2026-04-11T14:10:23.001Z</time></trkpt><trkpt lat="45.061361221142306" lon="8.235159996338409"><ele>217.0</ele><time>2026-04-11T14:10:24.001Z</time></trkpt><trkpt lat="45.061328270840846" lon="8.235276607596024"><ele>216.33333333333331</ele><time>2026-04-11T14:10:25.001Z</time></trkpt><trkpt lat="45.06129543260553" lon="8.235396155268528"><ele>215.66666666666666</ele><time>2026-04-11T14:10:26.001Z</time></trkpt><trkpt lat="45.061265958657216" lon="8.235509098325345"><ele>215.0</ele><time>2026-04-11T14:10:27.001Z</time></trkpt><trkpt lat="45.06124090549575" lon="8.235615710361364"><ele>214.33333333333331</ele><time>2026-04-11T14:10:28.001Z</time></trkpt><trkpt lat="45.06122047023785" lon="8.235733710017357"><ele>213.66666666666666</ele><time>2026-04-11T14:10:29.001Z</time></trkpt><trkpt lat="45.0612038483707" lon="8.23585768677806"><ele>213.0</ele><time>2026-04-11T14:10:30.001Z</time></trkpt><trkpt lat="45.06119263695098" lon="8.23598641411389"><ele>211.60000000000002</ele><time>2026-04-11T14:10:31.001Z</time></trkpt><trkpt lat="45.06118094132798" lon="8.236131656187665"><ele>210.20000000000002</ele><time>2026-04-11T14:10:32.001Z</time></trkpt><trkpt lat="45.06117770284266" lon="8.236290554834993"><ele>208.8</ele><time>2026-04-11T14:10:33.001Z</time></trkpt><trkpt lat="45.06117905379972" lon="8.236445125936203"><ele>207.4</ele><time>2026-04-11T14:10:34.001Z</time></trkpt><trkpt lat="45.061183023476914" lon="8.236601789223622"><ele>206.0</ele><time>2026-04-11T14:10:35.001Z</time></trkpt><trkpt lat="45.06118664531809" lon="8.236760364880274"><ele>205.20000000000002</ele><time>2026-04-11T14:10:36.001Z</time></trkpt><trkpt lat="45.06119027019946" lon="8.236901469625627"><ele>204.4</ele><time>2026-04-11T14:10:37.001Z</time></trkpt><trkpt lat="45.061186886105524" lon="8.237024090991156"><ele>203.6</ele><time>2026-04-11T14:10:38.001Z</time></trkpt><trkpt lat="45.061168859348086" lon="8.237137572952983"><ele>202.8</ele><time>2026-04-11T14:10:39.001Z</time></trkpt><trkpt lat="45.061132128569255" lon="8.2372583550717"><ele>202.0</ele><time>2026-04-11T14:10:40.001Z</time></trkpt><trkpt lat="45.061087443225794" lon="8.237390552671338"><ele>202.0</ele><time>2026-04-11T14:10:41.001Z</time></trkpt><trkpt lat="45.06104395209027" lon="8.23750323618766"><ele>202.0</ele><time>2026-04-11T14:10:42.001Z</time></trkpt><trkpt lat="45.06101951220585" lon="8.237591039897064"><ele>202.0</ele><time>2026-04-11T14:10:43.001Z</time></trkpt><trkpt lat="45.06103285213166" lon="8.237743512285988"><ele>202.0</ele><time>2026-04-11T14:10:45.001Z</time></trkpt><trkpt lat="45.06113011721476" lon="8.237878542692167"><ele>202.0</ele><time>2026-04-11T14:10:47.001Z</time></trkpt><trkpt lat="45.06119674905274" lon="8.23796827385236"><ele>202.0</ele><time>2026-04-11T14:10:48.001Z</time></trkpt><trkpt lat="45.061278461590035" lon="8.238080580256849"><ele>202.0</ele><time>2026-04-11T14:10:49.001Z</time></trkpt><trkpt lat="45.06137396124684" lon="8.238185835977381"><ele>202.0</ele><time>2026-04-11T14:10:50.001Z</time></trkpt><trkpt lat="45.06146073393124" lon="8.238279435233592"><ele>202.0</ele><time>2026-04-11T14:10:51.001Z</time></trkpt><trkpt lat="45.061534197367585" lon="8.238361872018546"><ele>202.0</ele><time>2026-04-11T14:10:52.001Z</time></trkpt><trkpt lat="45.06160807007817" lon="8.23842763718797"><ele>201.83333333333331</ele><time>2026-04-11T14:10:53.001Z</time></trkpt><trkpt lat="45.06167612601169" lon="8.238482814361356"><ele>201.66666666666666</ele><time>2026-04-11T14:10:54.001Z</time></trkpt><trkpt lat="45.06173604160309" lon="8.23852041709994"><ele>201.5</ele><time>2026-04-11T14:10:55.001Z</time></trkpt><trkpt lat="45.061783836976396" lon="8.238585369547407"><ele>201.33333333333331</ele><time>2026-04-11T14:10:56.002Z</time></trkpt><trkpt lat="45.06181840075148" lon="8.238676561845962"><ele>201.16666666666666</ele><time>2026-04-11T14:10:57.002Z</time></trkpt><trkpt lat="45.061849919957716" lon="8.23878903573543"><ele>201.0</ele><time>2026-04-11T14:10:58.002Z</time></trkpt><trkpt lat="45.061896029351104" lon="8.238900266501865"><ele>202.16666666666666</ele><time>2026-04-11T14:10:59.002Z</time></trkpt><trkpt lat="45.06195891001071" lon="8.238995021939042"><ele>203.33333333333331</ele><time>2026-04-11T14:11:00.002Z</time></trkpt><trkpt lat="45.06203071252343" lon="8.239072838618165"><ele>204.5</ele><time>2026-04-11T14:11:01.002Z</time></trkpt><trkpt lat="45.06210698429691" lon="8.239133665287712"><ele>205.66666666666666</ele><time>2026-04-11T14:11:02.002Z</time></trkpt><trkpt lat="45.06219218595737" lon="8.239189409241051"><ele>206.83333333333331</ele><time>2026-04-11T14:11:03.002Z</time></trkpt><trkpt lat="45.06225858474415" lon="8.23925708540433"><ele>208.0</ele><time>2026-04-11T14:11:04.002Z</time></trkpt><trkpt lat="45.062301029962086" lon="8.239347737877864"><ele>208.0</ele><time>2026-04-11T14:11:05.002Z</time></trkpt><trkpt lat="45.062329331765824" lon="8.239438106855152"><ele>208.0</ele><time>2026-04-11T14:11:06.002Z</time></trkpt><trkpt lat="45.06233550691232" lon="8.239530657801001"><ele>208.0</ele><time>2026-04-11T14:11:07.002Z</time></trkpt><trkpt lat="45.06231139675264" lon="8.239625253471807"><ele>208.0</ele><time>2026-04-11T14:11:08.002Z</time></trkpt><trkpt lat="45.062268914602164" lon="8.239694264588348"><ele>208.0</ele><time>2026-04-11T14:11:09.002Z</time></trkpt><trkpt lat="45.06219821828257" lon="8.239791671338685"><ele>208.0</ele><time>2026-04-11T14:11:11.002Z</time></trkpt><trkpt lat="45.06219500278397" lon="8.23989672661939"><ele>208.0</ele><time>2026-04-11T14:11:57Z</time></trkpt><trkpt lat="45.06228190196826" lon="8.239961405986055"><ele>208.83333333333331</ele><time>2026-04-11T14:11:59Z</time></trkpt><trkpt lat="45.062346243607415" lon="8.239973986895823"><ele>209.66666666666666</ele><time>2026-04-11T14:12:00Z</time></trkpt><trkpt lat="45.06245115969128" lon="8.240007619690294"><ele>210.5</ele><time>2026-04-11T14:12:02Z</time></trkpt><trkpt lat="45.062526398684234" lon="8.2400325654825"><ele>211.33333333333331</ele><time>2026-04-11T14:12:04Z</time></trkpt><trkpt lat="45.06260206676784" lon="8.240079702248794"><ele>212.16666666666666</ele><time>2026-04-11T14:12:07Z</time></trkpt><trkpt lat="45.06268287344119" lon="8.240119204847444"><ele>213.0</ele><time>2026-04-11T14:12:10Z</time></trkpt><trkpt lat="45.062743238136285" lon="8.240166838822605"><ele>213.83333333333334</ele><time>2026-04-11T14:12:16Z</time></trkpt><trkpt lat="45.06282892302299" lon="8.24025927747369"><ele>214.66666666666669</ele><time>2026-04-11T14:12:18Z</time></trkpt><trkpt lat="45.062878593642445" lon="8.240318860180404"><ele>215.5</ele><time>2026-04-11T14:12:19Z</time></trkpt><trkpt lat="45.06292630062956" lon="8.24039185602456"><ele>216.33333333333334</ele><time>2026-04-11T14:12:20Z</time></trkpt><trkpt lat="45.06297404622326" lon="8.240474443722217"><ele>217.16666666666669</ele><time>2026-04-11T14:12:21.001Z</time></trkpt><trkpt lat="45.06302363942313" lon="8.240549483866632"><ele>218.0</ele><time>2026-04-11T14:12:22.001Z</time></trkpt><trkpt lat="45.06307830289081" lon="8.240635579607446"><ele>219.00000000000003</ele><time>2026-04-11T14:12:23.001Z</time></trkpt><trkpt lat="45.063134679374514" lon="8.240724433742239"><ele>220.0</ele><time>2026-04-11T14:12:24.001Z</time></trkpt><trkpt lat="45.06318648021335" lon="8.240815441236748"><ele>221.0</ele><time>2026-04-11T14:12:25.001Z</time></trkpt><trkpt lat="45.06324023101562" lon="8.240907189582282"><ele>222.0</ele><time>2026-04-11T14:12:26.001Z</time></trkpt><trkpt lat="45.06329643385914" lon="8.241000223190238"><ele>223.00000000000003</ele><time>2026-04-11T14:12:27.001Z</time></trkpt><trkpt lat="45.06335336795553" lon="8.241084343779074"><ele>224.0</ele><time>2026-04-11T14:12:28.001Z</time></trkpt><trkpt lat="45.06340133908505" lon="8.241163185432722"><ele>221.39999999999998</ele><time>2026-04-11T14:12:29.001Z</time></trkpt><trkpt lat="45.06344323831886" lon="8.24123246366337"><ele>218.79999999999998</ele><time>2026-04-11T14:12:30.001Z</time></trkpt><trkpt lat="45.0635018291194" lon="8.241332565414043"><ele>216.2</ele><time>2026-04-11T14:12:32.001Z</time></trkpt><trkpt lat="45.063521296033976" lon="8.241428067392855"><ele>213.60000000000002</ele><time>2026-04-11T14:12:37.001Z</time></trkpt><trkpt lat="45.06338153658704" lon="8.241636113135426"><ele>211.0</ele><time>2026-04-11T14:12:38.001Z</time></trkpt><trkpt lat="45.063341380984546" lon="8.241730962618838"><ele>211.66666666666666</ele><time>2026-04-11T14:12:39.001Z</time></trkpt><trkpt lat="45.063300022707445" lon="8.241821988873873"><ele>212.33333333333331</ele><time>2026-04-11T14:12:40.001Z</time></trkpt><trkpt lat="45.06325991501072" lon="8.241915405149703"><ele>213.0</ele><time>2026-04-11T14:12:41.001Z</time></trkpt><trkpt lat="45.06322634221045" lon="8.242001341816124"><ele>213.66666666666669</ele><time>2026-04-11T14:12:42.001Z</time></trkpt><trkpt lat="45.06318301532755" lon="8.24211186512403"><ele>214.33333333333334</ele><time>2026-04-11T14:12:43.001Z</time></trkpt><trkpt lat="45.06313220220348" lon="8.242240618291708"><ele>215.0</ele><time>2026-04-11T14:12:44.001Z</time></trkpt><trkpt lat="45.063085906638435" lon="8.24236378932111"><ele>215.0</ele><time>2026-04-11T14:12:45.001Z</time></trkpt><trkpt lat="45.06305607476891" lon="8.242471384756413"><ele>215.0</ele><time>2026-04-11T14:12:46.001Z</time></trkpt><trkpt lat="45.06304082924214" lon="8.242581839678586"><ele>215.0</ele><time>2026-04-11T14:12:47.001Z</time></trkpt><trkpt lat="45.06303771614998" lon="8.24271376402054"><ele>215.0</ele><time>2026-04-11T14:12:48.001Z</time></trkpt><trkpt lat="45.063048656749395" lon="8.242864623919113"><ele>215.0</ele><time>2026-04-11T14:12:49.001Z</time></trkpt><trkpt lat="45.063062414675485" lon="8.243038441453438"><ele>212.75</ele><time>2026-04-11T14:12:50.001Z</time></trkpt><trkpt lat="45.06307368836042" lon="8.243238140955544"><ele>210.5</ele><time>2026-04-11T14:12:51.001Z</time></trkpt><trkpt lat="45.06307775050462" lon="8.243429865688064"><ele>208.25</ele><time>2026-04-11T14:12:52.001Z</time></trkpt><trkpt lat="45.06307662060516" lon="8.243594684195873"><ele>206.0</ele><time>2026-04-11T14:12:53.001Z</time></trkpt><trkpt lat="45.06307123106127" lon="8.243749488918054"><ele>206.0</ele><time>2026-04-11T14:12:54.002Z</time></trkpt><trkpt lat="45.06306072102798" lon="8.243897836080698"><ele>206.0</ele><time>2026-04-11T14:12:55.002Z</time></trkpt><trkpt lat="45.06304457499856" lon="8.244064811050464"><ele>206.0</ele><time>2026-04-11T14:12:56.002Z</time></trkpt><trkpt lat="45.063027218381485" lon="8.244233012586157"><ele>206.0</ele><time>2026-04-11T14:12:57.002Z</time></trkpt><trkpt lat="45.063011201024416" lon="8.244401319727164"><ele>205.8</ele><time>2026-04-11T14:12:58.002Z</time></trkpt><trkpt lat="45.06299875281027" lon="8.244553284400078"><ele>205.60000000000002</ele><time>2026-04-11T14:12:59.002Z</time></trkpt><trkpt lat="45.062985698259226" lon="8.244695590697289"><ele>205.4</ele><time>2026-04-11T14:13:00.002Z</time></trkpt><trkpt lat="45.06296122921076" lon="8.244845158089834"><ele>205.2</ele><time>2026-04-11T14:13:01.002Z</time></trkpt><trkpt lat="45.0629286088134" lon="8.24501042028075"><ele>205.0</ele><time>2026-04-11T14:13:02.002Z</time></trkpt><trkpt lat="45.062890397395805" lon="8.245185687500074"><ele>205.0</ele><time>2026-04-11T14:13:03.002Z</time></trkpt><trkpt lat="45.06285459354678" lon="8.245353179815526"><ele>205.0</ele><time>2026-04-11T14:13:04.002Z</time></trkpt><trkpt lat="45.062814947846796" lon="8.245523524760028"><ele>205.0</ele><time>2026-04-11T14:13:05.002Z</time></trkpt><trkpt lat="45.06277123544689" lon="8.245697850911219"><ele>205.0</ele><time>2026-04-11T14:13:06.002Z</time></trkpt><trkpt lat="45.06273560200573" lon="8.245863201162011"><ele>204.5</ele><time>2026-04-11T14:13:07.002Z</time></trkpt><trkpt lat="45.06270403805781" lon="8.246024407731788"><ele>204.0</ele><time>2026-04-11T14:13:08.002Z</time></trkpt><trkpt lat="45.06266755469554" lon="8.246194397589726"><ele>203.5</ele><time>2026-04-11T14:13:09.002Z</time></trkpt><trkpt lat="45.06263046503406" lon="8.246366945934419"><ele>203.0</ele><time>2026-04-11T14:13:10.002Z</time></trkpt><trkpt lat="45.06259535380626" lon="8.246530475894176"><ele>202.60000000000002</ele><time>2026-04-11T14:13:11.002Z</time></trkpt><trkpt lat="45.06255991691688" lon="8.246685764941958"><ele>202.20000000000002</ele><time>2026-04-11T14:13:12.002Z</time></trkpt><trkpt lat="45.06252801833415" lon="8.246821866085224"><ele>201.8</ele><time>2026-04-11T14:13:13.002Z</time></trkpt><trkpt lat="45.06250333142678" lon="8.246945140196598"><ele>201.4</ele><time>2026-04-11T14:13:14.002Z</time></trkpt><trkpt lat="45.06247219243758" lon="8.2470617225307"><ele>201.0</ele><time>2026-04-11T14:13:15.002Z</time></trkpt><trkpt lat="45.06244825743024" lon="8.247157883060472"><ele>203.0</ele><time>2026-04-11T14:13:16.002Z</time></trkpt><trkpt lat="45.06242258945501" lon="8.247251012741318"><ele>205.0</ele><time>2026-04-11T14:13:17.002Z</time></trkpt><trkpt lat="45.062405292853306" lon="8.247350056644885"><ele>207.0</ele><time>2026-04-11T14:13:18.002Z</time></trkpt><trkpt lat="45.06238958576411" lon="8.247462174094126"><ele>209.0</ele><time>2026-04-11T14:13:19.002Z</time></trkpt><trkpt lat="45.06237358134659" lon="8.247582858424165"><ele>211.0</ele><time>2026-04-11T14:13:20.002Z</time></trkpt><trkpt lat="45.06236390283156" lon="8.247689574965365"><ele>213.0</ele><time>2026-04-11T14:13:21.002Z</time></trkpt><trkpt lat="45.06235900885586" lon="8.247805221355483"><ele>213.0</ele><time>2026-04-11T14:13:22.002Z</time></trkpt><trkpt lat="45.06236084202083" lon="8.247946606317859"><ele>213.0</ele><time>2026-04-11T14:13:23.002Z</time></trkpt><trkpt lat="45.06236014477149" lon="8.248090050555515"><ele>213.0</ele><time>2026-04-11T14:13:24.002Z</time></trkpt><trkpt lat="45.06235832808574" lon="8.24819805177519"><ele>213.0</ele><time>2026-04-11T14:13:25.002Z</time></trkpt><trkpt lat="45.062347592833696" lon="8.248292821752141"><ele>213.0</ele><time>2026-04-11T14:13:26.002Z</time></trkpt><trkpt lat="45.06232099075249" lon="8.248373803032317"><ele>213.0</ele><time>2026-04-11T14:13:27.002Z</time></trkpt><trkpt lat="45.06227480533111" lon="8.248455792135351"><ele>212.0</ele><time>2026-04-11T14:13:28.002Z</time></trkpt><trkpt lat="45.06221583337411" lon="8.248531774907777"><ele>211.0</ele><time>2026-04-11T14:13:29.002Z</time></trkpt><trkpt lat="45.06215421362472" lon="8.24861632436035"><ele>210.0</ele><time>2026-04-11T14:13:30.003Z</time></trkpt><trkpt lat="45.06210681606086" lon="8.24870400600751"><ele>209.0</ele><time>2026-04-11T14:13:31.003Z</time></trkpt><trkpt lat="45.0620649842208" lon="8.248796023679859"><ele>208.0</ele><time>2026-04-11T14:13:32.003Z</time></trkpt><trkpt lat="45.06203863850362" lon="8.248882033820635"><ele>207.0</ele><time>2026-04-11T14:13:33.003Z</time></trkpt><trkpt lat="45.06200687455994" lon="8.248961322119925"><ele>206.66666666666666</ele><time>2026-04-11T14:13:34.003Z</time></trkpt><trkpt lat="45.06198186134147" lon="8.249048535620016"><ele>206.33333333333331</ele><time>2026-04-11T14:13:35.003Z</time></trkpt><trkpt lat="45.06196167014274" lon="8.24915626426336"><ele>206.0</ele><time>2026-04-11T14:13:36.003Z</time></trkpt><trkpt lat="45.06194581030954" lon="8.24928366972743"><ele>205.66666666666666</ele><time>2026-04-11T14:13:37.003Z</time></trkpt><trkpt lat="45.06193002386852" lon="8.249405327424162"><ele>205.33333333333331</ele><time>2026-04-11T14:13:38.003Z</time></trkpt><trkpt lat="45.06190633821016" lon="8.249513365411268"><ele>205.0</ele><time>2026-04-11T14:13:39.003Z</time></trkpt><trkpt lat="45.061876478647946" lon="8.249625311461205"><ele>205.0</ele><time>2026-04-11T14:13:40.003Z</time></trkpt><trkpt lat="45.061846235992476" lon="8.249747248267981"><ele>205.0</ele><time>2026-04-11T14:13:41.003Z</time></trkpt><trkpt lat="45.061818283195244" lon="8.249874318746544"><ele>205.0</ele><time>2026-04-11T14:13:42.003Z</time></trkpt><trkpt lat="45.06178953736348" lon="8.249991132183272"><ele>205.0</ele><time>2026-04-11T14:13:43.003Z</time></trkpt><trkpt lat="45.06176141794263" lon="8.250111347465696"><ele>205.0</ele><time>2026-04-11T14:13:44.003Z</time></trkpt><trkpt lat="45.06173132838577" lon="8.250241823803432"><ele>205.0</ele><time>2026-04-11T14:13:45.003Z</time></trkpt><trkpt lat="45.06169683103202" lon="8.250388808384914"><ele>205.0</ele><time>2026-04-11T14:13:46.003Z</time></trkpt><trkpt lat="45.06166561727767" lon="8.25052092858203"><ele>205.0</ele><time>2026-04-11T14:13:47.003Z</time></trkpt><trkpt lat="45.06163873516902" lon="8.250650082349745"><ele>205.0</ele><time>2026-04-11T14:13:48.003Z</time></trkpt><trkpt lat="45.06160792987924" lon="8.250788807351014"><ele>205.0</ele><time>2026-04-11T14:13:49.003Z</time></trkpt><trkpt lat="45.06157900813777" lon="8.250917577981845"><ele>205.0</ele><time>2026-04-11T14:13:50.003Z</time></trkpt><trkpt lat="45.0615483813065" lon="8.251063176736446"><ele>205.0</ele><time>2026-04-11T14:13:51.003Z</time></trkpt><trkpt lat="45.061520447117644" lon="8.251195247079766"><ele>205.0</ele><time>2026-04-11T14:13:52.003Z</time></trkpt><trkpt lat="45.0614933229312" lon="8.251309455707851"><ele>205.0</ele><time>2026-04-11T14:13:53.003Z</time></trkpt><trkpt lat="45.061465372258105" lon="8.25142291604918"><ele>205.0</ele><time>2026-04-11T14:13:54.003Z</time></trkpt><trkpt lat="45.06143641513783" lon="8.251530672528622"><ele>204.16666666666666</ele><time>2026-04-11T14:13:55.003Z</time></trkpt><trkpt lat="45.061411573385826" lon="8.251633294168986"><ele>203.33333333333331</ele><time>2026-04-11T14:13:56.003Z</time></trkpt><trkpt lat="45.061383276544234" lon="8.25174715849541"><ele>202.5</ele><time>2026-04-11T14:13:57.003Z</time></trkpt><trkpt lat="45.061357949921906" lon="8.251844502086778"><ele>201.66666666666669</ele><time>2026-04-11T14:13:57.999Z</time></trkpt><trkpt lat="45.06133719934274" lon="8.251936279004747"><ele>200.83333333333334</ele><time>2026-04-11T14:13:58.999Z</time></trkpt><trkpt lat="45.06132101002992" lon="8.252025818815621"><ele>200.0</ele><time>2026-04-11T14:13:59.999Z</time></trkpt><trkpt lat="45.06129275149839" lon="8.25215746575709"><ele>200.00000000000003</ele><time>2026-04-11T14:14:01.999Z</time></trkpt><trkpt lat="45.06127103110351" lon="8.25224527355835"><ele>200.0</ele><time>2026-04-11T14:14:02.999Z</time></trkpt><trkpt lat="45.06123919650177" lon="8.252354433149275"><ele>200.0</ele><time>2026-04-11T14:14:03.999Z</time></trkpt><trkpt lat="45.06121094967663" lon="8.252476442667716"><ele>200.0</ele><time>2026-04-11T14:14:04.999Z</time></trkpt><trkpt lat="45.0611774190147" lon="8.252609027110333"><ele>200.00000000000003</ele><time>2026-04-11T14:14:06Z</time></trkpt><trkpt lat="45.06114892351781" lon="8.252733019200232"><ele>200.0</ele><time>2026-04-11T14:14:07Z</time></trkpt><trkpt lat="45.06112323795304" lon="8.25285603282215"><ele>199.6</ele><time>2026-04-11T14:14:08Z</time></trkpt><trkpt lat="45.06109344805103" lon="8.252982486007921"><ele>199.2</ele><time>2026-04-11T14:14:09Z</time></trkpt><trkpt lat="45.061063665276784" lon="8.253111485866"><ele>198.8</ele><time>2026-04-11T14:14:10Z</time></trkpt><trkpt lat="45.061037686624765" lon="8.253230943317565"><ele>198.4</ele><time>2026-04-11T14:14:11Z</time></trkpt><trkpt lat="45.061008419291085" lon="8.253357099495757"><ele>198.0</ele><time>2026-04-11T14:14:12Z</time></trkpt><trkpt lat="45.060976538402954" lon="8.253492523367637"><ele>197.4</ele><time>2026-04-11T14:14:13Z</time></trkpt><trkpt lat="45.06094415991703" lon="8.253633696421277"><ele>196.8</ele><time>2026-04-11T14:14:14Z</time></trkpt><trkpt lat="45.060913631777105" lon="8.253764914384204"><ele>196.2</ele><time>2026-04-11T14:14:15Z</time></trkpt><trkpt lat="45.06088537532791" lon="8.253904213419153"><ele>195.6</ele><time>2026-04-11T14:14:16Z</time></trkpt><trkpt lat="45.06085363531597" lon="8.254039968843303"><ele>195.0</ele><time>2026-04-11T14:14:17Z</time></trkpt><trkpt lat="45.06082197258265" lon="8.254179635048938"><ele>195.2</ele><time>2026-04-11T14:14:18Z</time></trkpt><trkpt lat="45.0607904592307" lon="8.254323620585623"><ele>195.4</ele><time>2026-04-11T14:14:19Z</time></trkpt><trkpt lat="45.06075952720416" lon="8.254459576539036"><ele>195.60000000000002</ele><time>2026-04-11T14:14:20Z</time></trkpt><trkpt lat="45.06072528212543" lon="8.254605010468982"><ele>195.8</ele><time>2026-04-11T14:14:21Z</time></trkpt><trkpt lat="45.060689391431374" lon="8.25475731191673"><ele>196.0</ele><time>2026-04-11T14:14:22Z</time></trkpt><trkpt lat="45.06065170053944" lon="8.254912157549088"><ele>196.0</ele><time>2026-04-11T14:14:23Z</time></trkpt><trkpt lat="45.06061809596958" lon="8.25506017938694"><ele>196.0</ele><time>2026-04-11T14:14:24Z</time></trkpt><trkpt lat="45.060584180812185" lon="8.255208805394098"><ele>196.0</ele><time>2026-04-11T14:14:25Z</time></trkpt><trkpt lat="45.060549223877864" lon="8.255360324283354"><ele>196.0</ele><time>2026-04-11T14:14:26Z</time></trkpt><trkpt lat="45.060514994301194" lon="8.255513661195883"><ele>196.0</ele><time>2026-04-11T14:14:27Z</time></trkpt><trkpt lat="45.0604777383814" lon="8.255672511904791"><ele>196.0</ele><time>2026-04-11T14:14:28Z</time></trkpt><trkpt lat="45.06044119755144" lon="8.255834732009262"><ele>196.0</ele><time>2026-04-11T14:14:29Z</time></trkpt><trkpt lat="45.060406652062255" lon="8.255988117114054"><ele>196.0</ele><time>2026-04-11T14:14:30Z</time></trkpt><trkpt lat="45.06037383285485" lon="8.256141045374461"><ele>196.0</ele><time>2026-04-11T14:14:31Z</time></trkpt><trkpt lat="45.06034004057396" lon="8.256289784874973"><ele>196.0</ele><time>2026-04-11T14:14:32Z</time></trkpt><trkpt lat="45.06030263513507" lon="8.256443336638313"><ele>196.0</ele><time>2026-04-11T14:14:33Z</time></trkpt><trkpt lat="45.060269606200066" lon="8.256593005922714"><ele>196.0</ele><time>2026-04-11T14:14:34Z</time></trkpt><trkpt lat="45.06023682015646" lon="8.256746261898822"><ele>196.0</ele><time>2026-04-11T14:14:35Z</time></trkpt><trkpt lat="45.06020479675998" lon="8.256894326714876"><ele>196.0</ele><time>2026-04-11T14:14:36Z</time></trkpt><trkpt lat="45.060173023806136" lon="8.257042525675136"><ele>195.5</ele><time>2026-04-11T14:14:37.001Z</time></trkpt><trkpt lat="45.06013667472246" lon="8.257204774502775"><ele>195.0</ele><time>2026-04-11T14:14:38.001Z</time></trkpt><trkpt lat="45.06009138324221" lon="8.257395983476492"><ele>194.5</ele><time>2026-04-11T14:14:39.001Z</time></trkpt><trkpt lat="45.06004100359387" lon="8.257605799106303"><ele>194.0</ele><time>2026-04-11T14:14:40.001Z</time></trkpt><trkpt lat="45.05998730486416" lon="8.257828191506452"><ele>194.0</ele><time>2026-04-11T14:14:41.001Z</time></trkpt><trkpt lat="45.05993904036632" lon="8.258028997724903"><ele>194.0</ele><time>2026-04-11T14:14:42.001Z</time></trkpt><trkpt lat="45.05989965320805" lon="8.258212112026209"><ele>194.0</ele><time>2026-04-11T14:14:43.001Z</time></trkpt><trkpt lat="45.05986086677381" lon="8.258379655522173"><ele>194.0</ele><time>2026-04-11T14:14:44.001Z</time></trkpt><trkpt lat="45.05982284381791" lon="8.25853939223051"><ele>194.0</ele><time>2026-04-11T14:14:45.001Z</time></trkpt><trkpt lat="45.059790594296224" lon="8.258689703347946"><ele>194.0</ele><time>2026-04-11T14:14:46.001Z</time></trkpt><trkpt lat="45.059760452839896" lon="8.258821616207337"><ele>194.0</ele><time>2026-04-11T14:14:47.001Z</time></trkpt><trkpt lat="45.05972535023346" lon="8.25897152789315"><ele>194.0</ele><time>2026-04-11T14:14:48.001Z</time></trkpt><trkpt lat="45.059694868633706" lon="8.25911311608718"><ele>194.0</ele><time>2026-04-11T14:14:49.001Z</time></trkpt><trkpt lat="45.059671275231764" lon="8.259241850256434"><ele>194.16666666666669</ele><time>2026-04-11T14:14:50.001Z</time></trkpt><trkpt lat="45.059647029607525" lon="8.259389023235974"><ele>194.33333333333334</ele><time>2026-04-11T14:14:51.001Z</time></trkpt><trkpt lat="45.05962421446785" lon="8.259538441212083"><ele>194.5</ele><time>2026-04-11T14:14:52.001Z</time></trkpt><trkpt lat="45.0596061232986" lon="8.259663600124426"><ele>194.66666666666669</ele><time>2026-04-11T14:14:53.001Z</time></trkpt><trkpt lat="45.05959101506246" lon="8.259759665283676"><ele>194.83333333333334</ele><time>2026-04-11T14:14:54.001Z</time></trkpt><trkpt lat="45.059544737247094" lon="8.259837454531823"><ele>195.0</ele><time>2026-04-11T14:15:02.001Z</time></trkpt><trkpt lat="45.05946200440911" lon="8.259835718223185"><ele>194.6</ele><time>2026-04-11T14:15:04.001Z</time></trkpt><trkpt lat="45.05936669865907" lon="8.259816396873177"><ele>194.2</ele><time>2026-04-11T14:15:06.001Z</time></trkpt><trkpt lat="45.059298913506055" lon="8.259946371538103"><ele>193.8</ele><time>2026-04-11T14:15:10.002Z</time></trkpt><trkpt lat="45.05930704117473" lon="8.260128258527896"><ele>193.4</ele><time>2026-04-11T14:15:12.002Z</time></trkpt><trkpt lat="45.05930698554577" lon="8.260223622947349"><ele>193.0</ele><time>2026-04-11T14:15:13.002Z</time></trkpt><trkpt lat="45.05930807683873" lon="8.260313528938932"><ele>193.00000000000003</ele><time>2026-04-11T14:15:14.002Z</time></trkpt><trkpt lat="45.05930183386205" lon="8.260410504367954"><ele>193.0</ele><time>2026-04-11T14:15:15.002Z</time></trkpt><trkpt lat="45.059294292182955" lon="8.260513850416123"><ele>193.0</ele><time>2026-04-11T14:15:16.002Z</time></trkpt><trkpt lat="45.059288281139835" lon="8.260617339286"><ele>193.0</ele><time>2026-04-11T14:15:17.002Z</time></trkpt><trkpt lat="45.059286881336696" lon="8.260715291033021"><ele>193.0</ele><time>2026-04-11T14:15:18.002Z</time></trkpt><trkpt lat="45.0592869637204" lon="8.260824289243809"><ele>193.00000000000003</ele><time>2026-04-11T14:15:19.002Z</time></trkpt><trkpt lat="45.05928374978384" lon="8.260946473114751"><ele>193.0</ele><time>2026-04-11T14:15:20.002Z</time></trkpt><trkpt lat="45.059275386161666" lon="8.261080468764572"><ele>192.8</ele><time>2026-04-11T14:15:21.002Z</time></trkpt><trkpt lat="45.05926831717165" lon="8.261218929092665"><ele>192.60000000000002</ele><time>2026-04-11T14:15:22.002Z</time></trkpt><trkpt lat="45.05925991868163" lon="8.261362146755477"><ele>192.39999999999998</ele><time>2026-04-11T14:15:23.002Z</time></trkpt><trkpt lat="45.05924859896171" lon="8.261522105388037"><ele>192.2</ele><time>2026-04-11T14:15:24.002Z</time></trkpt><trkpt lat="45.05923266900204" lon="8.261701462203613"><ele>192.0</ele><time>2026-04-11T14:15:25.002Z</time></trkpt><trkpt lat="45.05921488822799" lon="8.261886696378689"><ele>191.75</ele><time>2026-04-11T14:15:26.002Z</time></trkpt><trkpt lat="45.05920580727902" lon="8.262059065899525"><ele>191.5</ele><time>2026-04-11T14:15:27.002Z</time></trkpt><trkpt lat="45.059201692181766" lon="8.262223337419904"><ele>191.25</ele><time>2026-04-11T14:15:28.002Z</time></trkpt><trkpt lat="45.05920436658756" lon="8.262403507235632"><ele>191.0</ele><time>2026-04-11T14:15:29.002Z</time></trkpt><trkpt lat="45.05921404700837" lon="8.262593481729576"><ele>191.0</ele><time>2026-04-11T14:15:30.002Z</time></trkpt><trkpt lat="45.059224897132694" lon="8.262787795646046"><ele>191.0</ele><time>2026-04-11T14:15:31.002Z</time></trkpt><trkpt lat="45.05923463195419" lon="8.262986798307583"><ele>191.0</ele><time>2026-04-11T14:15:32.002Z</time></trkpt><trkpt lat="45.059240620671375" lon="8.263189148004226"><ele>191.0</ele><time>2026-04-11T14:15:33.002Z</time></trkpt><trkpt lat="45.059247001909384" lon="8.263391420714672"><ele>191.25</ele><time>2026-04-11T14:15:34.002Z</time></trkpt><trkpt lat="45.05926062685306" lon="8.263598262881665"><ele>191.5</ele><time>2026-04-11T14:15:35.002Z</time></trkpt><trkpt lat="45.05928497523658" lon="8.263807517743436"><ele>191.75</ele><time>2026-04-11T14:15:36.002Z</time></trkpt><trkpt lat="45.05932102381537" lon="8.264013149203171"><ele>192.0</ele><time>2026-04-11T14:15:37.002Z</time></trkpt><trkpt lat="45.0593625145715" lon="8.264207689931737"><ele>192.75</ele><time>2026-04-11T14:15:38.002Z</time></trkpt><trkpt lat="45.059408739686795" lon="8.264403130492973"><ele>193.5</ele><time>2026-04-11T14:15:39.002Z</time></trkpt><trkpt lat="45.05945174322084" lon="8.26460023268722"><ele>194.25</ele><time>2026-04-11T14:15:40.002Z</time></trkpt><trkpt lat="45.059497329494825" lon="8.264805616800825"><ele>195.0</ele><time>2026-04-11T14:15:41.002Z</time></trkpt><trkpt lat="45.05953059222555" lon="8.265016102885657"><ele>195.0</ele><time>2026-04-11T14:15:42.003Z</time></trkpt><trkpt lat="45.059556191528436" lon="8.265234555217186"><ele>195.0</ele><time>2026-04-11T14:15:43.003Z</time></trkpt><trkpt lat="45.059574935909254" lon="8.265461983356852"><ele>195.0</ele><time>2026-04-11T14:15:44.003Z</time></trkpt><trkpt lat="45.05959075683597" lon="8.265695716682192"><ele>195.33333333333331</ele><time>2026-04-11T14:15:45.003Z</time></trkpt><trkpt lat="45.0596068808912" lon="8.265936543364608"><ele>195.66666666666666</ele><time>2026-04-11T14:15:46.003Z</time></trkpt><trkpt lat="45.05962830457635" lon="8.266186463445694"><ele>196.0</ele><time>2026-04-11T14:15:47.003Z</time></trkpt><trkpt lat="45.05964264911978" lon="8.266440143429715"><ele>196.33333333333331</ele><time>2026-04-11T14:15:48.003Z</time></trkpt><trkpt lat="45.05966282930152" lon="8.266700163723826"><ele>196.66666666666669</ele><time>2026-04-11T14:15:49.003Z</time></trkpt><trkpt lat="45.0596817309897" lon="8.266954214988308"><ele>197.0</ele><time>2026-04-11T14:15:50.003Z</time></trkpt><trkpt lat="45.05970074237317" lon="8.267201745376878"><ele>197.0</ele><time>2026-04-11T14:15:51.003Z</time></trkpt><trkpt lat="45.05971656791514" lon="8.267463247482752"><ele>197.0</ele><time>2026-04-11T14:15:52.003Z</time></trkpt><trkpt lat="45.059732311406094" lon="8.267724740860052"><ele>197.0</ele><time>2026-04-11T14:15:53.003Z</time></trkpt><trkpt lat="45.059748553210014" lon="8.267991256051179"><ele>195.66666666666669</ele><time>2026-04-11T14:15:54.003Z</time></trkpt><trkpt lat="45.05975827596458" lon="8.26826201120396"><ele>194.33333333333331</ele><time>2026-04-11T14:15:55.003Z</time></trkpt><trkpt lat="45.05975688139524" lon="8.268533795431383"><ele>193.0</ele><time>2026-04-11T14:15:56.003Z</time></trkpt><trkpt lat="45.059747935974265" lon="8.26880409610104"><ele>192.66666666666666</ele><time>2026-04-11T14:15:57.003Z</time></trkpt><trkpt lat="45.059733349733236" lon="8.269080256286667"><ele>192.33333333333331</ele><time>2026-04-11T14:15:58.003Z</time></trkpt><trkpt lat="45.05971587614475" lon="8.269358610106565"><ele>192.0</ele><time>2026-04-11T14:15:59.003Z</time></trkpt><trkpt lat="45.059698395316374" lon="8.269630713506519"><ele>191.66666666666666</ele><time>2026-04-11T14:16:00.003Z</time></trkpt><trkpt lat="45.059682792819714" lon="8.269884452683552"><ele>191.33333333333331</ele><time>2026-04-11T14:16:01.003Z</time></trkpt><trkpt lat="45.05965666838957" lon="8.270135711880613"><ele>191.0</ele><time>2026-04-11T14:16:02.003Z</time></trkpt><trkpt lat="45.05961607366546" lon="8.270384623714488"><ele>190.33333333333331</ele><time>2026-04-11T14:16:03.003Z</time></trkpt><trkpt lat="45.05956294576983" lon="8.270628343249934"><ele>189.66666666666666</ele><time>2026-04-11T14:16:03.999Z</time></trkpt><trkpt lat="45.059501095748814" lon="8.270877208966242"><ele>189.0</ele><time>2026-04-11T14:16:04.999Z</time></trkpt><trkpt lat="45.05943750772278" lon="8.271143583423065"><ele>189.0</ele><time>2026-04-11T14:16:05.999Z</time></trkpt><trkpt lat="45.05937865209202" lon="8.271421071065916"><ele>189.0</ele><time>2026-04-11T14:16:06.999Z</time></trkpt><trkpt lat="45.05931808778702" lon="8.271704282093511"><ele>189.0</ele><time>2026-04-11T14:16:07.999Z</time></trkpt><trkpt lat="45.05925313388453" lon="8.271988025146618"><ele>188.66666666666666</ele><time>2026-04-11T14:16:08.999Z</time></trkpt><trkpt lat="45.05918707551632" lon="8.272264634276642"><ele>188.33333333333331</ele><time>2026-04-11T14:16:09.999Z</time></trkpt><trkpt lat="45.059127177690016" lon="8.272520686163759"><ele>188.0</ele><time>2026-04-11T14:16:10.999Z</time></trkpt><trkpt lat="45.05906803350007" lon="8.27276222755513"><ele>189.33333333333331</ele><time>2026-04-11T14:16:11.999Z</time></trkpt><trkpt lat="45.05900291740191" lon="8.273008829375202"><ele>190.66666666666666</ele><time>2026-04-11T14:16:12.999Z</time></trkpt><trkpt lat="45.05892635669969" lon="8.273273123838434"><ele>192.0</ele><time>2026-04-11T14:16:13.999Z</time></trkpt><trkpt lat="45.05884394655233" lon="8.273549618969366"><ele>192.0</ele><time>2026-04-11T14:16:14.999Z</time></trkpt><trkpt lat="45.05876666903748" lon="8.273805365225002"><ele>192.0</ele><time>2026-04-11T14:16:15.999Z</time></trkpt><trkpt lat="45.05869829590699" lon="8.274041087328229"><ele>192.0</ele><time>2026-04-11T14:16:16.999Z</time></trkpt><trkpt lat="45.05863182929045" lon="8.274261841453795"><ele>190.0</ele><time>2026-04-11T14:16:17.999Z</time></trkpt><trkpt lat="45.05856492167978" lon="8.274470822916163"><ele>188.0</ele><time>2026-04-11T14:16:19Z</time></trkpt><trkpt lat="45.058501235340195" lon="8.27467218159864"><ele>186.0</ele><time>2026-04-11T14:16:20Z</time></trkpt><trkpt lat="45.05843835927588" lon="8.274880454665288"><ele>185.0</ele><time>2026-04-11T14:16:21Z</time></trkpt><trkpt lat="45.058382707932914" lon="8.275071227903437"><ele>184.0</ele><time>2026-04-11T14:16:22Z</time></trkpt><trkpt lat="45.05833023234729" lon="8.275250131460387"><ele>183.0</ele><time>2026-04-11T14:16:23Z</time></trkpt><trkpt lat="45.05828034167478" lon="8.275418192372028"><ele>182.0</ele><time>2026-04-11T14:16:24Z</time></trkpt><trkpt lat="45.05823329920572" lon="8.275579408230055"><ele>181.6</ele><time>2026-04-11T14:16:25Z</time></trkpt><trkpt lat="45.058187753858626" lon="8.275731203894178"><ele>181.2</ele><time>2026-04-11T14:16:26Z</time></trkpt><trkpt lat="45.05814269913533" lon="8.2758680648867"><ele>180.8</ele><time>2026-04-11T14:16:27Z</time></trkpt><trkpt lat="45.05810415358734" lon="8.275985275667178"><ele>180.4</ele><time>2026-04-11T14:16:28Z</time></trkpt><trkpt lat="45.05807801141348" lon="8.276089613314554"><ele>180.0</ele><time>2026-04-11T14:16:29Z</time></trkpt><trkpt lat="45.058056427472316" lon="8.27617360427012"><ele>180.0</ele><time>2026-04-11T14:16:30Z</time></trkpt><trkpt lat="45.05802903031599" lon="8.276300648860861"><ele>180.0</ele><time>2026-04-11T14:16:32Z</time></trkpt><trkpt lat="45.058011976580644" lon="8.27646584063397"><ele>180.0</ele><time>2026-04-11T14:17:03.001Z</time></trkpt><trkpt lat="45.058030786538964" lon="8.276635350567215"><ele>180.0</ele><time>2026-04-11T14:17:05.001Z</time></trkpt><trkpt lat="45.05805139773831" lon="8.276723872179838"><ele>180.0</ele><time>2026-04-11T14:17:06.001Z</time></trkpt><trkpt lat="45.0580834199956" lon="8.27689929209359"><ele>180.0</ele><time>2026-04-11T14:17:08.001Z</time></trkpt><trkpt lat="45.05818804319961" lon="8.27695750848788"><ele>180.0</ele><time>2026-04-11T14:17:09.001Z</time></trkpt><trkpt lat="45.05825522272714" lon="8.277018799486928"><ele>180.0</ele><time>2026-04-11T14:17:10.002Z</time></trkpt><trkpt lat="45.05832912897793" lon="8.277070133470229"><ele>180.0</ele><time>2026-04-11T14:17:11.002Z</time></trkpt><trkpt lat="45.05840986166477" lon="8.277119028224472"><ele>180.0</ele><time>2026-04-11T14:17:12.002Z</time></trkpt><trkpt lat="45.058489032993926" lon="8.277163643761641"><ele>180.0</ele><time>2026-04-11T14:17:13.002Z</time></trkpt><trkpt lat="45.05856097418888" lon="8.277209183769196"><ele>180.0</ele><time>2026-04-11T14:17:14.002Z</time></trkpt><trkpt lat="45.058630097671355" lon="8.277254435642345"><ele>180.0</ele><time>2026-04-11T14:17:15.002Z</time></trkpt><trkpt lat="45.05869759577914" lon="8.277299487316546"><ele>180.0</ele><time>2026-04-11T14:17:16.002Z</time></trkpt><trkpt lat="45.05877306315894" lon="8.277348724194665"><ele>180.0</ele><time>2026-04-11T14:17:17.002Z</time></trkpt><trkpt lat="45.05885610021882" lon="8.277399385083603"><ele>180.0</ele><time>2026-04-11T14:17:18.002Z</time></trkpt><trkpt lat="45.058959328112714" lon="8.277459341574755"><ele>180.0</ele><time>2026-04-11T14:17:19.002Z</time></trkpt><trkpt lat="45.059072623596954" lon="8.277527631169765"><ele>179.5</ele><time>2026-04-11T14:17:20.002Z</time></trkpt><trkpt lat="45.05918804004868" lon="8.277598003690684"><ele>179.0</ele><time>2026-04-11T14:17:21.002Z</time></trkpt><trkpt lat="45.0593212185629" lon="8.277677610707174"><ele>178.5</ele><time>2026-04-11T14:17:22.002Z</time></trkpt><trkpt lat="45.05946894594172" lon="8.277766360105304"><ele>178.0</ele><time>2026-04-11T14:17:23.002Z</time></trkpt><trkpt lat="45.05962243015255" lon="8.277858376647965"><ele>178.0</ele><time>2026-04-11T14:17:24.002Z</time></trkpt><trkpt lat="45.05976774350121" lon="8.277945228534705"><ele>178.0</ele><time>2026-04-11T14:17:25.002Z</time></trkpt><trkpt lat="45.059914510518084" lon="8.278032459296801"><ele>178.0</ele><time>2026-04-11T14:17:26.002Z</time></trkpt><trkpt lat="45.060052512104754" lon="8.278115725322701"><ele>177.75</ele><time>2026-04-11T14:17:27.002Z</time></trkpt><trkpt lat="45.060183182381536" lon="8.278194736590017"><ele>177.5</ele><time>2026-04-11T14:17:28.002Z</time></trkpt><trkpt lat="45.060305428828315" lon="8.278268454893833"><ele>177.25</ele><time>2026-04-11T14:17:29.002Z</time></trkpt><trkpt lat="45.0604254117226" lon="8.278342323153737"><ele>177.0</ele><time>2026-04-11T14:17:30.002Z</time></trkpt><trkpt lat="45.06054312745962" lon="8.278413336472445"><ele>177.0</ele><time>2026-04-11T14:17:31.002Z</time></trkpt><trkpt lat="45.06065313682276" lon="8.278478524952607"><ele>177.0</ele><time>2026-04-11T14:17:32.002Z</time></trkpt><trkpt lat="45.06074909102664" lon="8.27853688318306"><ele>177.0</ele><time>2026-04-11T14:17:33.002Z</time></trkpt><trkpt lat="45.0608268660056" lon="8.278589097793734"><ele>177.0</ele><time>2026-04-11T14:17:34.002Z</time></trkpt><trkpt lat="45.06088054945604" lon="8.278641526706412"><ele>177.0</ele><time>2026-04-11T14:17:35.002Z</time></trkpt><trkpt lat="45.06095080003384" lon="8.278750729253435"><ele>177.0</ele><time>2026-04-11T14:17:37.002Z</time></trkpt><trkpt lat="45.06100492141356" lon="8.278814972006039"><ele>177.0</ele><time>2026-04-11T14:17:39.002Z</time></trkpt><trkpt lat="45.06108812740413" lon="8.278874283242246"><ele>177.0</ele><time>2026-04-11T14:17:48.003Z</time></trkpt><trkpt lat="45.061148895791035" lon="8.278900763139935"><ele>177.0</ele><time>2026-04-11T14:17:55.003Z</time></trkpt><trkpt lat="45.06121052753098" lon="8.278953998236688"><ele>177.0</ele><time>2026-04-11T14:17:59.003Z</time></trkpt><trkpt lat="45.06113264904716" lon="8.278985015882432"><ele>177.0</ele><time>2026-04-11T14:18:02.003Z</time></trkpt><trkpt lat="45.06106627758082" lon="8.278920364523703"><ele>177.0</ele><time>2026-04-11T14:18:04.003Z</time></trkpt><trkpt lat="45.06101026919012" lon="8.278872072908793"><ele>177.0</ele><time>2026-04-11T14:18:07.003Z</time></trkpt><trkpt lat="45.06093900127852" lon="8.278842075563501"><ele>177.0</ele><time>2026-04-11T14:18:18.999Z</time></trkpt><trkpt lat="45.06089339590138" lon="8.278778235849058"><ele>177.0</ele><time>2026-04-11T14:18:19.999Z</time></trkpt><trkpt lat="45.06084948800396" lon="8.27870437661628"><ele>177.0</ele><time>2026-04-11T14:18:21Z</time></trkpt><trkpt lat="45.060809566557815" lon="8.278519206045125"><ele>177.0</ele><time>2026-04-11T14:18:23Z</time></trkpt><trkpt lat="45.06074744216142" lon="8.27848199349611"><ele>177.0</ele><time>2026-04-11T14:18:25Z</time></trkpt><trkpt lat="45.060662571438755" lon="8.27843115587945"><ele>177.0</ele><time>2026-04-11T14:18:27Z</time></trkpt><trkpt lat="45.060584355471995" lon="8.278510799138523"><ele>177.0</ele><time>2026-04-11T14:18:28Z</time></trkpt><trkpt lat="45.06051515680616" lon="8.278493597679319"><ele>177.0</ele><time>2026-04-11T14:18:30Z</time></trkpt><trkpt lat="45.06045046443708" lon="8.278468819677002"><ele>177.0</ele><time>2026-04-11T14:18:33Z</time></trkpt><trkpt lat="45.06051753634488" lon="8.27834427959367"><ele>177.0</ele><time>2026-04-11T14:19:35.002Z</time></trkpt><trkpt lat="45.0604812048133" lon="8.278471224997922"><ele>177.0</ele><time>2026-04-11T14:19:47.003Z</time></trkpt><trkpt lat="45.0605191374892" lon="8.278345238667555"><ele>177.0</ele><time>2026-04-11T14:19:51.003Z</time></trkpt><trkpt lat="45.060472640437474" lon="8.278496254865521"><ele>177.0</ele><time>2026-04-11T14:20:09.003Z</time></trkpt><trkpt lat="45.0605208705078" lon="8.27834627678305"><ele>177.0</ele><time>2026-04-11T14:20:13.003Z</time></trkpt><trkpt lat="45.06047523774786" lon="8.278491046717692"><ele>177.0</ele><time>2026-04-11T14:20:14.003Z</time></trkpt><trkpt lat="45.06040309568145" lon="8.278433309745045"><ele>177.0</ele><time>2026-04-11T14:25:20Z</time></trkpt><trkpt lat="45.060475084677925" lon="8.278383227269199"><ele>177.0</ele><time>2026-04-11T14:25:27Z</time></trkpt><trkpt lat="45.06055452670789" lon="8.278437217398254"><ele>177.0</ele><time>2026-04-11T14:25:29.001Z</time></trkpt><trkpt lat="45.0606183719792" lon="8.278474234179178"><ele>177.0</ele><time>2026-04-11T14:25:30.001Z</time></trkpt><trkpt lat="45.060709095486544" lon="8.27845902389893"><ele>177.0</ele><time>2026-04-11T14:25:31.001Z</time></trkpt><trkpt lat="45.060778251501404" lon="8.278500448441214"><ele>177.0</ele><time>2026-04-11T14:25:32.001Z</time></trkpt><trkpt lat="45.060845071791995" lon="8.278540473879989"><ele>177.0</ele><time>2026-04-11T14:25:33.001Z</time></trkpt><trkpt lat="45.06097034495979" lon="8.278678047909617"><ele>177.0</ele><time>2026-04-11T14:25:34.001Z</time></trkpt><trkpt lat="45.06107504801358" lon="8.278746261091964"><ele>177.0</ele><time>2026-04-11T14:25:35.001Z</time></trkpt><trkpt lat="45.061171628786624" lon="8.278802188588433"><ele>177.0</ele><time>2026-04-11T14:25:36.001Z</time></trkpt><trkpt lat="45.061267942482374" lon="8.27886349214916"><ele>177.0</ele><time>2026-04-11T14:25:37.001Z</time></trkpt><trkpt lat="45.061364304498106" lon="8.278919680073907"><ele>177.0</ele><time>2026-04-11T14:25:38.001Z</time></trkpt><trkpt lat="45.06147624833777" lon="8.278988879106022"><ele>177.0</ele><time>2026-04-11T14:25:39.001Z</time></trkpt><trkpt lat="45.061596766005536" lon="8.279059538392485"><ele>177.0</ele><time>2026-04-11T14:25:40.001Z</time></trkpt><trkpt lat="45.06172443479733" lon="8.279135105165448"><ele>176.75</ele><time>2026-04-11T14:25:41.001Z</time></trkpt><trkpt lat="45.06185139230301" lon="8.279210944521303"><ele>176.5</ele><time>2026-04-11T14:25:42.001Z</time></trkpt><trkpt lat="45.06198281004347" lon="8.279286429454872"><ele>176.25</ele><time>2026-04-11T14:25:43.001Z</time></trkpt><trkpt lat="45.0621095199149" lon="8.279361796329471"><ele>176.0</ele><time>2026-04-11T14:25:44.001Z</time></trkpt><trkpt lat="45.06223172620081" lon="8.279432030881177"><ele>176.0</ele><time>2026-04-11T14:25:45.001Z</time></trkpt><trkpt lat="45.06235592076308" lon="8.279505776142436"><ele>176.0</ele><time>2026-04-11T14:25:46.001Z</time></trkpt><trkpt lat="45.062483010568386" lon="8.279580765787742"><ele>176.0</ele><time>2026-04-11T14:25:47.001Z</time></trkpt><trkpt lat="45.06261165870192" lon="8.27965125843692"><ele>176.0</ele><time>2026-04-11T14:25:48.001Z</time></trkpt><trkpt lat="45.062740429000584" lon="8.279733489425688"><ele>175.5</ele><time>2026-04-11T14:25:49.001Z</time></trkpt><trkpt lat="45.06286738678216" lon="8.279810780479755"><ele>175.0</ele><time>2026-04-11T14:25:50.001Z</time></trkpt><trkpt lat="45.0629918943892" lon="8.279884371953464"><ele>174.5</ele><time>2026-04-11T14:25:51.001Z</time></trkpt><trkpt lat="45.06311389520175" lon="8.279956036797792"><ele>174.0</ele><time>2026-04-11T14:25:52.001Z</time></trkpt><trkpt lat="45.06322728094368" lon="8.280025444438529"><ele>174.0</ele><time>2026-04-11T14:25:53.001Z</time></trkpt><trkpt lat="45.06333281983831" lon="8.280085671777275"><ele>174.0</ele><time>2026-04-11T14:25:54.001Z</time></trkpt><trkpt lat="45.063430198922845" lon="8.280140913628056"><ele>174.0</ele><time>2026-04-11T14:25:55.001Z</time></trkpt><trkpt lat="45.06352345473428" lon="8.280192170254967"><ele>174.0</ele><time>2026-04-11T14:25:56.001Z</time></trkpt><trkpt lat="45.06361054321035" lon="8.280236077951843"><ele>174.0</ele><time>2026-04-11T14:25:57.001Z</time></trkpt><trkpt lat="45.06368129998539" lon="8.280303518375863"><ele>174.0</ele><time>2026-04-11T14:25:58.001Z</time></trkpt><trkpt lat="45.063751501730174" lon="8.280348567290703"><ele>174.0</ele><time>2026-04-11T14:25:59.002Z</time></trkpt><trkpt lat="45.0638400356313" lon="8.280305216875849"><ele>174.0</ele><time>2026-04-11T14:26:00.002Z</time></trkpt><trkpt lat="45.06392171382224" lon="8.28032036715778"><ele>174.0</ele><time>2026-04-11T14:26:01.002Z</time></trkpt><trkpt lat="45.06400726855917" lon="8.280356683665616"><ele>174.0</ele><time>2026-04-11T14:26:02.002Z</time></trkpt><trkpt lat="45.064087068257386" lon="8.280385998958595"><ele>174.0</ele><time>2026-04-11T14:26:03.002Z</time></trkpt><trkpt lat="45.064156161631864" lon="8.28038576881819"><ele>173.6</ele><time>2026-04-11T14:26:04.002Z</time></trkpt><trkpt lat="45.06424999788628" lon="8.280349380480374"><ele>173.2</ele><time>2026-04-11T14:26:06.002Z</time></trkpt><trkpt lat="45.06427179302277" lon="8.280248204284867"><ele>172.79999999999998</ele><time>2026-04-11T14:26:07.002Z</time></trkpt><trkpt lat="45.06430224574736" lon="8.280168398699333"><ele>172.39999999999998</ele><time>2026-04-11T14:26:09.002Z</time></trkpt><trkpt lat="45.06447149392887" lon="8.280318975961238"><ele>172.0</ele><time>2026-04-11T14:26:15.002Z</time></trkpt><trkpt lat="45.06455007747197" lon="8.280397380839014"><ele>172.0</ele><time>2026-04-11T14:26:17.002Z</time></trkpt><trkpt lat="45.064648191594316" lon="8.280488906511666"><ele>172.0</ele><time>2026-04-11T14:26:19.002Z</time></trkpt><trkpt lat="45.06471733019283" lon="8.28056100369438"><ele>172.0</ele><time>2026-04-11T14:26:20.002Z</time></trkpt><trkpt lat="45.064809226659" lon="8.280647988280741"><ele>172.0</ele><time>2026-04-11T14:26:21.002Z</time></trkpt><trkpt lat="45.06490275934294" lon="8.280753920811758"><ele>172.0</ele><time>2026-04-11T14:26:22.002Z</time></trkpt><trkpt lat="45.0649856607288" lon="8.280856199070827"><ele>172.39999999999998</ele><time>2026-04-11T14:26:23.002Z</time></trkpt><trkpt lat="45.06506269586085" lon="8.280948766503283"><ele>172.79999999999998</ele><time>2026-04-11T14:26:24.002Z</time></trkpt><trkpt lat="45.06512862155279" lon="8.281036479158427"><ele>173.2</ele><time>2026-04-11T14:26:25.002Z</time></trkpt><trkpt lat="45.06519010776668" lon="8.28111397000751"><ele>173.6</ele><time>2026-04-11T14:26:26.002Z</time></trkpt><trkpt lat="45.065251656752736" lon="8.281159810928818"><ele>174.0</ele><time>2026-04-11T14:26:27.002Z</time></trkpt><trkpt lat="45.06536061258445" lon="8.281188211842682"><ele>174.0</ele><time>2026-04-11T14:26:29.002Z</time></trkpt><trkpt lat="45.06540765955861" lon="8.281103943536825"><ele>174.0</ele><time>2026-04-11T14:26:30.002Z</time></trkpt><trkpt lat="45.065448926166475" lon="8.28101659172438"><ele>174.0</ele><time>2026-04-11T14:26:31.002Z</time></trkpt><trkpt lat="45.065500078253166" lon="8.280928999497936"><ele>174.0</ele><time>2026-04-11T14:26:32.002Z</time></trkpt><trkpt lat="45.065535518990174" lon="8.280841762752203"><ele>174.0</ele><time>2026-04-11T14:26:33.002Z</time></trkpt><trkpt lat="45.0655968494044" lon="8.280700038609258"><ele>174.0</ele><time>2026-04-11T14:26:34.998Z</time></trkpt><trkpt lat="45.06571775542386" lon="8.280672226079302"><ele>174.16666666666666</ele><time>2026-04-11T14:26:36.998Z</time></trkpt><trkpt lat="45.06578887843451" lon="8.280698740021442"><ele>174.33333333333334</ele><time>2026-04-11T14:26:37.998Z</time></trkpt><trkpt lat="45.06587343635383" lon="8.280736058677457"><ele>174.5</ele><time>2026-04-11T14:26:38.998Z</time></trkpt><trkpt lat="45.06596719027484" lon="8.280777109321425"><ele>174.66666666666669</ele><time>2026-04-11T14:26:39.998Z</time></trkpt><trkpt lat="45.06606198440252" lon="8.280805479876568"><ele>174.83333333333334</ele><time>2026-04-11T14:26:40.998Z</time></trkpt><trkpt lat="45.066140045448044" lon="8.280826126947868"><ele>175.0</ele><time>2026-04-11T14:26:41.998Z</time></trkpt><trkpt lat="45.06621586834166" lon="8.280857388558571"><ele>175.0</ele><time>2026-04-11T14:26:42.998Z</time></trkpt><trkpt lat="45.06629087327714" lon="8.280919346613016"><ele>175.0</ele><time>2026-04-11T14:26:43.998Z</time></trkpt><trkpt lat="45.06636513527241" lon="8.28101397751454"><ele>175.0</ele><time>2026-04-11T14:26:44.998Z</time></trkpt><trkpt lat="45.06644158394034" lon="8.281131405536835"><ele>175.0</ele><time>2026-04-11T14:26:45.998Z</time></trkpt><trkpt lat="45.06652108919101" lon="8.281230583139429"><ele>175.0</ele><time>2026-04-11T14:26:46.998Z</time></trkpt><trkpt lat="45.0666000038072" lon="8.281299374786881"><ele>175.0</ele><time>2026-04-11T14:26:47.998Z</time></trkpt><trkpt lat="45.066680645430004" lon="8.281349655480843"><ele>175.0</ele><time>2026-04-11T14:26:48.998Z</time></trkpt><trkpt lat="45.06676768830746" lon="8.281383342840282"><ele>175.0</ele><time>2026-04-11T14:26:49.998Z</time></trkpt><trkpt lat="45.06685319182699" lon="8.281389910238472"><ele>175.0</ele><time>2026-04-11T14:26:50.999Z</time></trkpt><trkpt lat="45.06694329927506" lon="8.281379616161564"><ele>175.0</ele><time>2026-04-11T14:26:51.999Z</time></trkpt><trkpt lat="45.06704705380068" lon="8.281358306914758"><ele>175.0</ele><time>2026-04-11T14:26:52.999Z</time></trkpt><trkpt lat="45.06714496729277" lon="8.281347727555616"><ele>175.0</ele><time>2026-04-11T14:26:53.999Z</time></trkpt><trkpt lat="45.06724430213478" lon="8.281351666172093"><ele>175.0</ele><time>2026-04-11T14:26:54.999Z</time></trkpt><trkpt lat="45.06736006604817" lon="8.2813393802064"><ele>175.0</ele><time>2026-04-11T14:26:55.999Z</time></trkpt><trkpt lat="45.067465448190134" lon="8.281297417581033"><ele>175.0</ele><time>2026-04-11T14:26:56.999Z</time></trkpt><trkpt lat="45.06754146839612" lon="8.28129875754264"><ele>175.2</ele><time>2026-04-11T14:26:57.999Z</time></trkpt><trkpt lat="45.0676338772569" lon="8.281334317529906"><ele>175.4</ele><time>2026-04-11T14:26:58.999Z</time></trkpt><trkpt lat="45.067732906359296" lon="8.281370249376625"><ele>175.60000000000002</ele><time>2026-04-11T14:26:59.999Z</time></trkpt><trkpt lat="45.06783702541097" lon="8.281410336862733"><ele>175.8</ele><time>2026-04-11T14:27:00.999Z</time></trkpt><trkpt lat="45.067937293935756" lon="8.28145689190501"><ele>176.0</ele><time>2026-04-11T14:27:01.999Z</time></trkpt><trkpt lat="45.06802853452161" lon="8.281521607157574"><ele>176.0</ele><time>2026-04-11T14:27:02.999Z</time></trkpt><trkpt lat="45.0681186351902" lon="8.28159844383042"><ele>176.0</ele><time>2026-04-11T14:27:03.999Z</time></trkpt><trkpt lat="45.068206163591334" lon="8.28169152826266"><ele>176.0</ele><time>2026-04-11T14:27:04.999Z</time></trkpt><trkpt lat="45.06828952870996" lon="8.281798243832945"><ele>176.0</ele><time>2026-04-11T14:27:06Z</time></trkpt><trkpt lat="45.06836692454582" lon="8.281901792128222"><ele>176.0</ele><time>2026-04-11T14:27:07Z</time></trkpt><trkpt lat="45.06844540221634" lon="8.28199169091153"><ele>175.8</ele><time>2026-04-11T14:27:08Z</time></trkpt><trkpt lat="45.06853632410542" lon="8.282084512212093"><ele>175.60000000000002</ele><time>2026-04-11T14:27:09Z</time></trkpt><trkpt lat="45.0686250413621" lon="8.282180130807747"><ele>175.4</ele><time>2026-04-11T14:27:10Z</time></trkpt><trkpt lat="45.06871135809981" lon="8.282243699800489"><ele>175.2</ele><time>2026-04-11T14:27:11Z</time></trkpt><trkpt lat="45.06879780310943" lon="8.282317707516443"><ele>175.0</ele><time>2026-04-11T14:27:12Z</time></trkpt><trkpt lat="45.06886892011575" lon="8.28237040776609"><ele>175.0</ele><time>2026-04-11T14:27:13Z</time></trkpt><trkpt lat="45.068938559064584" lon="8.282425860993234"><ele>175.0</ele><time>2026-04-11T14:27:14Z</time></trkpt><trkpt lat="45.06899992457102" lon="8.282481978975825"><ele>175.0</ele><time>2026-04-11T14:27:15Z</time></trkpt><trkpt lat="45.069060498723196" lon="8.282512857138057"><ele>175.0</ele><time>2026-04-11T14:27:16Z</time></trkpt><trkpt lat="45.069120201689316" lon="8.282578291425375"><ele>175.0</ele><time>2026-04-11T14:27:17Z</time></trkpt><trkpt lat="45.06918661075796" lon="8.282670385914928"><ele>175.0</ele><time>2026-04-11T14:27:18Z</time></trkpt><trkpt lat="45.06925213137182" lon="8.28275560294314"><ele>174.4</ele><time>2026-04-11T14:27:19Z</time></trkpt><trkpt lat="45.06932845194073" lon="8.282851165606369"><ele>173.8</ele><time>2026-04-11T14:27:20Z</time></trkpt><trkpt lat="45.069401018487184" lon="8.282934718826702"><ele>173.2</ele><time>2026-04-11T14:27:21Z</time></trkpt><trkpt lat="45.06947561498231" lon="8.283010181494825"><ele>172.6</ele><time>2026-04-11T14:27:22Z</time></trkpt><trkpt lat="45.069552418100066" lon="8.283068986075058"><ele>172.0</ele><time>2026-04-11T14:27:23Z</time></trkpt><trkpt lat="45.06963105366199" lon="8.28312515132558"><ele>172.0</ele><time>2026-04-11T14:27:24Z</time></trkpt><trkpt lat="45.06970014678409" lon="8.283176080347879"><ele>172.0</ele><time>2026-04-11T14:27:25Z</time></trkpt><trkpt lat="45.069762491913366" lon="8.283227088614"><ele>172.0</ele><time>2026-04-11T14:27:26Z</time></trkpt><trkpt lat="45.06981914036963" lon="8.283291496642507"><ele>172.0</ele><time>2026-04-11T14:27:27Z</time></trkpt><trkpt lat="45.069878149654556" lon="8.283377458269642"><ele>172.0</ele><time>2026-04-11T14:27:28Z</time></trkpt><trkpt lat="45.06993571422714" lon="8.28349311964117"><ele>172.0</ele><time>2026-04-11T14:27:29Z</time></trkpt><trkpt lat="45.069996082988084" lon="8.283622296627186"><ele>171.39999999999998</ele><time>2026-04-11T14:27:30.001Z</time></trkpt><trkpt lat="45.070051338402486" lon="8.283749118646304"><ele>170.79999999999998</ele><time>2026-04-11T14:27:31.001Z</time></trkpt><trkpt lat="45.07010126362684" lon="8.283862332247008"><ele>170.2</ele><time>2026-04-11T14:27:32.001Z</time></trkpt><trkpt lat="45.07016125085534" lon="8.283985177078698"><ele>169.6</ele><time>2026-04-11T14:27:33.001Z</time></trkpt><trkpt lat="45.07022626249624" lon="8.284115382129091"><ele>169.0</ele><time>2026-04-11T14:27:34.001Z</time></trkpt><trkpt lat="45.070288389601345" lon="8.284242000075455"><ele>168.83333333333334</ele><time>2026-04-11T14:27:35.001Z</time></trkpt><trkpt lat="45.070348608779945" lon="8.28436206767249"><ele>168.66666666666669</ele><time>2026-04-11T14:27:36.001Z</time></trkpt><trkpt lat="45.070403519527446" lon="8.284477929651615"><ele>168.5</ele><time>2026-04-11T14:27:37.001Z</time></trkpt><trkpt lat="45.070455824679875" lon="8.284585755547752"><ele>168.33333333333334</ele><time>2026-04-11T14:27:38.001Z</time></trkpt><trkpt lat="45.07050325593668" lon="8.284679332661035"><ele>168.16666666666666</ele><time>2026-04-11T14:27:39.001Z</time></trkpt><trkpt lat="45.07055144608016" lon="8.284753169087095"><ele>168.0</ele><time>2026-04-11T14:27:40.001Z</time></trkpt><trkpt lat="45.070620340241135" lon="8.28484389040506"><ele>168.33333333333334</ele><time>2026-04-11T14:27:41.001Z</time></trkpt><trkpt lat="45.07068758653166" lon="8.284906982654569"><ele>168.66666666666666</ele><time>2026-04-11T14:27:42.001Z</time></trkpt><trkpt lat="45.070756563627036" lon="8.284959527749239"><ele>169.0</ele><time>2026-04-11T14:27:43.001Z</time></trkpt><trkpt lat="45.070821144341835" lon="8.284989565008795"><ele>169.33333333333331</ele><time>2026-04-11T14:27:44.001Z</time></trkpt><trkpt lat="45.07089445687579" lon="8.285005930639121"><ele>169.66666666666666</ele><time>2026-04-11T14:27:45.001Z</time></trkpt><trkpt lat="45.070982948430924" lon="8.284998491754127"><ele>170.0</ele><time>2026-04-11T14:27:46.001Z</time></trkpt><trkpt lat="45.071089242068915" lon="8.284973876545257"><ele>170.0</ele><time>2026-04-11T14:27:47.001Z</time></trkpt><trkpt lat="45.071191612302755" lon="8.284952827542055"><ele>170.0</ele><time>2026-04-11T14:27:48.001Z</time></trkpt><trkpt lat="45.07127379986196" lon="8.284950696313652"><ele>170.0</ele><time>2026-04-11T14:27:49.001Z</time></trkpt><trkpt lat="45.07133886343476" lon="8.284978644035363"><ele>170.0</ele><time>2026-04-11T14:27:50.001Z</time></trkpt><trkpt lat="45.07138608048967" lon="8.285039641206126"><ele>170.0</ele><time>2026-04-11T14:27:51.001Z</time></trkpt><trkpt lat="45.071428487078734" lon="8.28514267085041"><ele>170.0</ele><time>2026-04-11T14:27:52.001Z</time></trkpt><trkpt lat="45.071458403570425" lon="8.285260025048395"><ele>170.0</ele><time>2026-04-11T14:27:53.001Z</time></trkpt><trkpt lat="45.071485942205754" lon="8.285390636745525"><ele>170.0</ele><time>2026-04-11T14:27:54.001Z</time></trkpt><trkpt lat="45.07150569549374" lon="8.285510245537225"><ele>170.0</ele><time>2026-04-11T14:27:55.001Z</time></trkpt><trkpt lat="45.07153561744257" lon="8.285613414384754"><ele>170.0</ele><time>2026-04-11T14:27:56.001Z</time></trkpt><trkpt lat="45.07158501236002" lon="8.285723675939124"><ele>170.0</ele><time>2026-04-11T14:27:57.001Z</time></trkpt><trkpt lat="45.07165139046602" lon="8.285820590629829"><ele>170.0</ele><time>2026-04-11T14:27:58.001Z</time></trkpt><trkpt lat="45.07172727957991" lon="8.285919604991905"><ele>171.2</ele><time>2026-04-11T14:27:59.001Z</time></trkpt><trkpt lat="45.07179427046268" lon="8.28600899893012"><ele>172.4</ele><time>2026-04-11T14:28:00.001Z</time></trkpt><trkpt lat="45.07187402160715" lon="8.286118647506424"><ele>173.60000000000002</ele><time>2026-04-11T14:28:01.001Z</time></trkpt><trkpt lat="45.071957369923624" lon="8.286213359752013"><ele>174.8</ele><time>2026-04-11T14:28:02.002Z</time></trkpt><trkpt lat="45.07203463370196" lon="8.286305009345732"><ele>176.0</ele><time>2026-04-11T14:28:03.002Z</time></trkpt><trkpt lat="45.07211031137686" lon="8.28640300359933"><ele>175.20000000000002</ele><time>2026-04-11T14:28:04.002Z</time></trkpt><trkpt lat="45.072184857454246" lon="8.286507611445275"><ele>174.4</ele><time>2026-04-11T14:28:05.002Z</time></trkpt><trkpt lat="45.07225652953558" lon="8.28662211479821"><ele>173.6</ele><time>2026-04-11T14:28:06.002Z</time></trkpt><trkpt lat="45.072323361521065" lon="8.286730741393821"><ele>172.8</ele><time>2026-04-11T14:28:07.002Z</time></trkpt><trkpt lat="45.072388899239584" lon="8.286842646537021"><ele>172.0</ele><time>2026-04-11T14:28:08.002Z</time></trkpt><trkpt lat="45.07243982573802" lon="8.28693198157919"><ele>172.6</ele><time>2026-04-11T14:28:09.002Z</time></trkpt><trkpt lat="45.0725020721941" lon="8.287039026039857"><ele>173.2</ele><time>2026-04-11T14:28:10.002Z</time></trkpt><trkpt lat="45.07255639994248" lon="8.287150102887876"><ele>173.8</ele><time>2026-04-11T14:28:11.002Z</time></trkpt><trkpt lat="45.07260913600708" lon="8.287273259844183"><ele>174.4</ele><time>2026-04-11T14:28:12.002Z</time></trkpt><trkpt lat="45.072648644111176" lon="8.287404830318563"><ele>175.0</ele><time>2026-04-11T14:28:13.002Z</time></trkpt><trkpt lat="45.072689541959015" lon="8.287526478689605"><ele>175.0</ele><time>2026-04-11T14:28:14.002Z</time></trkpt><trkpt lat="45.072730318326215" lon="8.287612082026858"><ele>175.0</ele><time>2026-04-11T14:28:15.002Z</time></trkpt><trkpt lat="45.072777297559064" lon="8.287702164681189"><ele>175.0</ele><time>2026-04-11T14:28:16.002Z</time></trkpt><trkpt lat="45.072826960928076" lon="8.287811582524448"><ele>175.0</ele><time>2026-04-11T14:28:17.002Z</time></trkpt><trkpt lat="45.07288085349104" lon="8.28792934447821"><ele>175.0</ele><time>2026-04-11T14:28:18.002Z</time></trkpt><trkpt lat="45.07293409442902" lon="8.288033260713553"><ele>175.0</ele><time>2026-04-11T14:28:19.002Z</time></trkpt><trkpt lat="45.072986779675105" lon="8.288142560625568"><ele>175.2</ele><time>2026-04-11T14:28:20.002Z</time></trkpt><trkpt lat="45.073031106759565" lon="8.288249420538408"><ele>175.4</ele><time>2026-04-11T14:28:21.002Z</time></trkpt><trkpt lat="45.0730566549834" lon="8.288345004119403"><ele>175.60000000000002</ele><time>2026-04-11T14:28:22.002Z</time></trkpt><trkpt lat="45.07304670779094" lon="8.288488756166647"><ele>175.8</ele><time>2026-04-11T14:28:24.002Z</time></trkpt><trkpt lat="45.07295066545723" lon="8.288641104678726"><ele>176.0</ele><time>2026-04-11T14:28:26.002Z</time></trkpt><trkpt lat="45.07288378025964" lon="8.288758094786584"><ele>176.0</ele><time>2026-04-11T14:28:27.002Z</time></trkpt><trkpt lat="45.0728181391766" lon="8.288872364892427"><ele>176.0</ele><time>2026-04-11T14:28:28.002Z</time></trkpt><trkpt lat="45.07274643542401" lon="8.288995894364774"><ele>176.0</ele><time>2026-04-11T14:28:29.002Z</time></trkpt><trkpt lat="45.07268011085422" lon="8.289129509733575"><ele>176.0</ele><time>2026-04-11T14:28:30.002Z</time></trkpt><trkpt lat="45.072615264476724" lon="8.28926679540924"><ele>176.0</ele><time>2026-04-11T14:28:31.002Z</time></trkpt><trkpt lat="45.07255761509281" lon="8.289383665623944"><ele>176.20000000000002</ele><time>2026-04-11T14:28:32.002Z</time></trkpt><trkpt lat="45.07250840737596" lon="8.289501696177782"><ele>176.4</ele><time>2026-04-11T14:28:33.002Z</time></trkpt><trkpt lat="45.0724629093262" lon="8.28962988106431"><ele>176.6</ele><time>2026-04-11T14:28:34.002Z</time></trkpt><trkpt lat="45.0724235932774" lon="8.289767519386812"><ele>176.8</ele><time>2026-04-11T14:28:35.003Z</time></trkpt><trkpt lat="45.07239521494487" lon="8.28991134586128"><ele>177.0</ele><time>2026-04-11T14:28:36.003Z</time></trkpt><trkpt lat="45.07236980007644" lon="8.290059490787804"><ele>174.5</ele><time>2026-04-11T14:28:37.003Z</time></trkpt><trkpt lat="45.07234476422711" lon="8.290209127893872"><ele>172.0</ele><time>2026-04-11T14:28:38.003Z</time></trkpt><trkpt lat="45.072324036496276" lon="8.290367921256538"><ele>169.5</ele><time>2026-04-11T14:28:39.003Z</time></trkpt><trkpt lat="45.072305632693364" lon="8.29052866789564"><ele>167.0</ele><time>2026-04-11T14:28:39.997Z</time></trkpt><trkpt lat="45.072288124878675" lon="8.290693541014079"><ele>167.0</ele><time>2026-04-11T14:28:40.997Z</time></trkpt><trkpt lat="45.07226597602458" lon="8.290839604346447"><ele>167.0</ele><time>2026-04-11T14:28:41.998Z</time></trkpt><trkpt lat="45.072251640502174" lon="8.29097494093884"><ele>167.0</ele><time>2026-04-11T14:28:42.998Z</time></trkpt><trkpt lat="45.07223885150605" lon="8.291090812589843"><ele>167.0</ele><time>2026-04-11T14:28:43.998Z</time></trkpt><trkpt lat="45.072237542217024" lon="8.29119341044499"><ele>167.0</ele><time>2026-04-11T14:28:44.998Z</time></trkpt><trkpt lat="45.07223168327934" lon="8.291283194191019"><ele>167.0</ele><time>2026-04-11T14:28:45.998Z</time></trkpt><trkpt lat="45.072249110538465" lon="8.291388780237451"><ele>167.2</ele><time>2026-04-11T14:28:51.999Z</time></trkpt><trkpt lat="45.072282733595934" lon="8.291471228325271"><ele>167.39999999999998</ele><time>2026-04-11T14:28:53.999Z</time></trkpt><trkpt lat="45.07238408042171" lon="8.291639610200496"><ele>167.60000000000002</ele><time>2026-04-11T14:28:55.999Z</time></trkpt><trkpt lat="45.07242923095463" lon="8.291756890636684"><ele>167.8</ele><time>2026-04-11T14:28:56.999Z</time></trkpt><trkpt lat="45.07249021897484" lon="8.2918536479193"><ele>168.0</ele><time>2026-04-11T14:28:57.999Z</time></trkpt><trkpt lat="45.072573708413195" lon="8.291961798507266"><ele>168.5</ele><time>2026-04-11T14:28:58.999Z</time></trkpt><trkpt lat="45.072655513349424" lon="8.292051866599328"><ele>169.0</ele><time>2026-04-11T14:28:59.999Z</time></trkpt><trkpt lat="45.072750607832" lon="8.29212833093425"><ele>169.5</ele><time>2026-04-11T14:29:00.999Z</time></trkpt><trkpt lat="45.07286065575146" lon="8.292226174741097"><ele>170.0</ele><time>2026-04-11T14:29:02Z</time></trkpt><trkpt lat="45.07296795073786" lon="8.292333521303009"><ele>170.2</ele><time>2026-04-11T14:29:03Z</time></trkpt><trkpt lat="45.07306359094315" lon="8.292432201330772"><ele>170.4</ele><time>2026-04-11T14:29:04Z</time></trkpt><trkpt lat="45.073156618438205" lon="8.29253049956631"><ele>170.60000000000002</ele><time>2026-04-11T14:29:05Z</time></trkpt><trkpt lat="45.07324197280168" lon="8.292617781241459"><ele>170.8</ele><time>2026-04-11T14:29:06Z</time></trkpt><trkpt lat="45.07331319854511" lon="8.29269903215907"><ele>171.0</ele><time>2026-04-11T14:29:07Z</time></trkpt><trkpt lat="45.07336833528387" lon="8.292768283693377"><ele>171.0</ele><time>2026-04-11T14:29:08Z</time></trkpt><trkpt lat="45.07342484511997" lon="8.292839198373168"><ele>171.0</ele><time>2026-04-11T14:29:09Z</time></trkpt><trkpt lat="45.07351415015721" lon="8.29294387209226"><ele>171.0</ele><time>2026-04-11T14:29:11Z</time></trkpt><trkpt lat="45.0735719211975" lon="8.293031280949755"><ele>171.0</ele><time>2026-04-11T14:29:13Z</time></trkpt><trkpt lat="45.073640639454844" lon="8.293097479278408"><ele>171.0</ele><time>2026-04-11T14:29:15Z</time></trkpt><trkpt lat="45.07367779897462" lon="8.29318906027482"><ele>171.0</ele><time>2026-04-11T14:29:17Z</time></trkpt><trkpt lat="45.07370612444999" lon="8.293274730951902"><ele>170.20000000000002</ele><time>2026-04-11T14:29:19.001Z</time></trkpt><trkpt lat="45.073770984092924" lon="8.293452891736898"><ele>169.4</ele><time>2026-04-11T14:29:21.001Z</time></trkpt><trkpt lat="45.07381582401431" lon="8.293560041237768"><ele>168.6</ele><time>2026-04-11T14:29:22.001Z</time></trkpt><trkpt lat="45.07386158606681" lon="8.293652435161029"><ele>167.8</ele><time>2026-04-11T14:29:23.001Z</time></trkpt><trkpt lat="45.07392257507013" lon="8.293738250290575"><ele>167.0</ele><time>2026-04-11T14:29:24.001Z</time></trkpt><trkpt lat="45.073987153191254" lon="8.293845690008832"><ele>166.75</ele><time>2026-04-11T14:29:25.001Z</time></trkpt><trkpt lat="45.07398452809013" lon="8.294048147846182"><ele>166.5</ele><time>2026-04-11T14:29:26.001Z</time></trkpt><trkpt lat="45.07406127453238" lon="8.294162063344302"><ele>166.25</ele><time>2026-04-11T14:29:27.001Z</time></trkpt><trkpt lat="45.074130620832726" lon="8.294272362766431"><ele>166.0</ele><time>2026-04-11T14:29:28.001Z</time></trkpt><trkpt lat="45.074196741744956" lon="8.29438559675584"><ele>166.60000000000002</ele><time>2026-04-11T14:29:29.001Z</time></trkpt><trkpt lat="45.074250999463416" lon="8.294505536397494"><ele>167.2</ele><time>2026-04-11T14:29:30.001Z</time></trkpt><trkpt lat="45.0742882621199" lon="8.294636239431641"><ele>167.8</ele><time>2026-04-11T14:29:31.001Z</time></trkpt><trkpt lat="45.074308751373955" lon="8.294771736344737"><ele>168.39999999999998</ele><time>2026-04-11T14:29:32.001Z</time></trkpt><trkpt lat="45.07432170970167" lon="8.294908087367986"><ele>169.0</ele><time>2026-04-11T14:29:33.001Z</time></trkpt><trkpt lat="45.07433093132664" lon="8.295055813580444"><ele>169.0</ele><time>2026-04-11T14:29:34.001Z</time></trkpt><trkpt lat="45.074334278733836" lon="8.295190967629626"><ele>169.0</ele><time>2026-04-11T14:29:35.001Z</time></trkpt><trkpt lat="45.074323241565125" lon="8.295329824889665"><ele>169.0</ele><time>2026-04-11T14:29:36.001Z</time></trkpt><trkpt lat="45.07429553747822" lon="8.295465287746758"><ele>169.0</ele><time>2026-04-11T14:29:37.001Z</time></trkpt><trkpt lat="45.07427484920809" lon="8.295580352892323"><ele>169.0</ele><time>2026-04-11T14:29:38.001Z</time></trkpt><trkpt lat="45.07427140262831" lon="8.295701179631662"><ele>168.39999999999998</ele><time>2026-04-11T14:29:39.001Z</time></trkpt><trkpt lat="45.07427630675418" lon="8.295819281363263"><ele>167.8</ele><time>2026-04-11T14:29:40.001Z</time></trkpt><trkpt lat="45.07427758137954" lon="8.29596330988557"><ele>167.2</ele><time>2026-04-11T14:29:41.001Z</time></trkpt><trkpt lat="45.074287988437845" lon="8.296096261661136"><ele>166.60000000000002</ele><time>2026-04-11T14:29:42.001Z</time></trkpt><trkpt lat="45.07430167491666" lon="8.296207097495579"><ele>166.0</ele><time>2026-04-11T14:29:43.001Z</time></trkpt><trkpt lat="45.07433068875817" lon="8.29632973473435"><ele>165.5</ele><time>2026-04-11T14:29:44.001Z</time></trkpt><trkpt lat="45.07435646147246" lon="8.29643664114454"><ele>165.0</ele><time>2026-04-11T14:29:45.001Z</time></trkpt><trkpt lat="45.074378765709746" lon="8.296532370490622"><ele>164.5</ele><time>2026-04-11T14:29:46.002Z</time></trkpt><trkpt lat="45.07441661250585" lon="8.296645796580572"><ele>164.0</ele><time>2026-04-11T14:29:47.002Z</time></trkpt><trkpt lat="45.07445960469159" lon="8.29675778173936"><ele>163.5</ele><time>2026-04-11T14:29:48.002Z</time></trkpt><trkpt lat="45.07450677364339" lon="8.29687678100026"><ele>163.0</ele><time>2026-04-11T14:29:49.002Z</time></trkpt><trkpt lat="45.074550987648024" lon="8.296977325271444"><ele>163.0</ele><time>2026-04-11T14:29:50.002Z</time></trkpt><trkpt lat="45.074599802529534" lon="8.297075406064963"><ele>163.0</ele><time>2026-04-11T14:29:51.002Z</time></trkpt><trkpt lat="45.074654268805624" lon="8.297158826843903"><ele>163.0</ele><time>2026-04-11T14:29:52.002Z</time></trkpt><trkpt lat="45.074717685581916" lon="8.29723762387135"><ele>163.0</ele><time>2026-04-11T14:29:53.002Z</time></trkpt><trkpt lat="45.074789398909786" lon="8.297329209973396"><ele>163.0</ele><time>2026-04-11T14:29:54.002Z</time></trkpt><trkpt lat="45.07485347490038" lon="8.297416125411196"><ele>163.0</ele><time>2026-04-11T14:29:55.002Z</time></trkpt><trkpt lat="45.074918580053854" lon="8.29751515593407"><ele>163.5</ele><time>2026-04-11T14:29:56.002Z</time></trkpt><trkpt lat="45.07498405667906" lon="8.297625122944199"><ele>164.0</ele><time>2026-04-11T14:29:57.002Z</time></trkpt><trkpt lat="45.07504324832116" lon="8.29772777930026"><ele>164.5</ele><time>2026-04-11T14:29:58.002Z</time></trkpt><trkpt lat="45.075093058739945" lon="8.297815977592261"><ele>165.0</ele><time>2026-04-11T14:29:59.002Z</time></trkpt><trkpt lat="45.07515475529892" lon="8.297908379918534"><ele>165.5</ele><time>2026-04-11T14:30:00.002Z</time></trkpt><trkpt lat="45.07521707372762" lon="8.297983032846101"><ele>166.0</ele><time>2026-04-11T14:30:01.002Z</time></trkpt><trkpt lat="45.07529568081678" lon="8.298053490795937"><ele>165.0</ele><time>2026-04-11T14:30:02.002Z</time></trkpt><trkpt lat="45.075401837635724" lon="8.298125500040738"><ele>164.0</ele><time>2026-04-11T14:30:03.002Z</time></trkpt><trkpt lat="45.07552014628737" lon="8.298198037325598"><ele>163.0</ele><time>2026-04-11T14:30:04.002Z</time></trkpt><trkpt lat="45.07563236312178" lon="8.298267691601492"><ele>162.0</ele><time>2026-04-11T14:30:05.002Z</time></trkpt><trkpt lat="45.07572979728275" lon="8.298337513633381"><ele>163.25</ele><time>2026-04-11T14:30:06.002Z</time></trkpt><trkpt lat="45.075819658553804" lon="8.298426482863233"><ele>164.5</ele><time>2026-04-11T14:30:07.002Z</time></trkpt><trkpt lat="45.07590757903082" lon="8.298525535922554"><ele>165.75</ele><time>2026-04-11T14:30:08.002Z</time></trkpt><trkpt lat="45.07599763153756" lon="8.298629791198469"><ele>167.0</ele><time>2026-04-11T14:30:09.002Z</time></trkpt><trkpt lat="45.07608775518253" lon="8.298728314006201"><ele>167.0</ele><time>2026-04-11T14:30:10.002Z</time></trkpt><trkpt lat="45.076181453765905" lon="8.298811954982904"><ele>167.0</ele><time>2026-04-11T14:30:11.002Z</time></trkpt><trkpt lat="45.0762773342631" lon="8.29887953080726"><ele>167.0</ele><time>2026-04-11T14:30:12.002Z</time></trkpt><trkpt lat="45.07637912759108" lon="8.298934592125674"><ele>167.0</ele><time>2026-04-11T14:30:13.002Z</time></trkpt><trkpt lat="45.07647786569405" lon="8.298994926817006"><ele>167.0</ele><time>2026-04-11T14:30:14.002Z</time></trkpt><trkpt lat="45.07656494214842" lon="8.299076830517613"><ele>166.5</ele><time>2026-04-11T14:30:15.002Z</time></trkpt><trkpt lat="45.0766443428026" lon="8.299184562794043"><ele>166.0</ele><time>2026-04-11T14:30:16.002Z</time></trkpt><trkpt lat="45.07673918261014" lon="8.299309718816609"><ele>165.5</ele><time>2026-04-11T14:30:17.002Z</time></trkpt><trkpt lat="45.07683501139488" lon="8.299426863552917"><ele>165.0</ele><time>2026-04-11T14:30:18.003Z</time></trkpt><trkpt lat="45.07690353250476" lon="8.299517802048488"><ele>165.0</ele><time>2026-04-11T14:30:19.003Z</time></trkpt><trkpt lat="45.076952652660715" lon="8.299600438051597"><ele>165.0</ele><time>2026-04-11T14:30:20.003Z</time></trkpt><trkpt lat="45.07699088012319" lon="8.299671858025105"><ele>165.0</ele><time>2026-04-11T14:30:21.003Z</time></trkpt><trkpt lat="45.077047505817134" lon="8.299770151175153"><ele>165.0</ele><time>2026-04-11T14:30:23.003Z</time></trkpt><trkpt lat="45.07715665893346" lon="8.29989310104653"><ele>165.0</ele><time>2026-04-11T14:30:25.003Z</time></trkpt><trkpt lat="45.07724434568384" lon="8.299966485498546"><ele>164.0</ele><time>2026-04-11T14:30:26.003Z</time></trkpt><trkpt lat="45.077329786351456" lon="8.300042824156344"><ele>163.0</ele><time>2026-04-11T14:30:27.003Z</time></trkpt><trkpt lat="45.077411536640206" lon="8.300110209565005"><ele>162.0</ele><time>2026-04-11T14:30:28.003Z</time></trkpt><trkpt lat="45.077493466716525" lon="8.300176445088523"><ele>161.0</ele><time>2026-04-11T14:30:29.003Z</time></trkpt><trkpt lat="45.07756802733197" lon="8.300224838077634"><ele>160.0</ele><time>2026-04-11T14:30:30.003Z</time></trkpt><trkpt lat="45.07764939133466" lon="8.300265896009458"><ele>161.66666666666669</ele><time>2026-04-11T14:30:31.003Z</time></trkpt><trkpt lat="45.07773065932961" lon="8.300299413553976"><ele>163.33333333333334</ele><time>2026-04-11T14:30:32.003Z</time></trkpt><trkpt lat="45.07782326509662" lon="8.30033157789077"><ele>165.0</ele><time>2026-04-11T14:30:33.003Z</time></trkpt><trkpt lat="45.07790380849889" lon="8.300365051758288"><ele>166.66666666666666</ele><time>2026-04-11T14:30:34.003Z</time></trkpt><trkpt lat="45.077967541940914" lon="8.300440559114701"><ele>168.33333333333331</ele><time>2026-04-11T14:30:35.003Z</time></trkpt><trkpt lat="45.078036656569424" lon="8.300489723805981"><ele>170.0</ele><time>2026-04-11T14:30:36.003Z</time></trkpt><trkpt lat="45.078077570991454" lon="8.300564131765602"><ele>168.33333333333331</ele><time>2026-04-11T14:30:37.003Z</time></trkpt><trkpt lat="45.07815135046765" lon="8.300598796943069"><ele>166.66666666666666</ele><time>2026-04-11T14:30:38.003Z</time></trkpt><trkpt lat="45.078216051906644" lon="8.300630987691827"><ele>165.0</ele><time>2026-04-11T14:30:39.003Z</time></trkpt><trkpt lat="45.078292036499825" lon="8.300651316491324"><ele>163.33333333333334</ele><time>2026-04-11T14:30:40.003Z</time></trkpt><trkpt lat="45.07838564536943" lon="8.300663343726953"><ele>161.66666666666669</ele><time>2026-04-11T14:30:41.003Z</time></trkpt><trkpt lat="45.07847478041126" lon="8.300704082770332"><ele>160.0</ele><time>2026-04-11T14:30:42.003Z</time></trkpt><trkpt lat="45.078574680336274" lon="8.300734609669476"><ele>160.0</ele><time>2026-04-11T14:30:43.003Z</time></trkpt><trkpt lat="45.0786823782039" lon="8.30077450423996"><ele>160.0</ele><time>2026-04-11T14:30:44.003Z</time></trkpt><trkpt lat="45.0787894763959" lon="8.300819541825113"><ele>160.0</ele><time>2026-04-11T14:30:45.003Z</time></trkpt><trkpt lat="45.0788963049423" lon="8.30086780234774"><ele>160.0</ele><time>2026-04-11T14:30:45.999Z</time></trkpt><trkpt lat="45.07900988030828" lon="8.300920826869328"><ele>160.75</ele><time>2026-04-11T14:30:46.999Z</time></trkpt><trkpt lat="45.079131543607524" lon="8.30097855946224"><ele>161.5</ele><time>2026-04-11T14:30:47.999Z</time></trkpt><trkpt lat="45.079250751932896" lon="8.301046080684412"><ele>162.25</ele><time>2026-04-11T14:30:48.999Z</time></trkpt><trkpt lat="45.079365309132" lon="8.301115687022824"><ele>163.0</ele><time>2026-04-11T14:30:49.999Z</time></trkpt><trkpt lat="45.079478383130734" lon="8.301169705341847"><ele>163.0</ele><time>2026-04-11T14:30:50.999Z</time></trkpt><trkpt lat="45.079584578774416" lon="8.301238446499646"><ele>163.0</ele><time>2026-04-11T14:30:51.999Z</time></trkpt><trkpt lat="45.079695204805155" lon="8.301278239457352"><ele>163.0</ele><time>2026-04-11T14:30:52.999Z</time></trkpt><trkpt lat="45.07979762386655" lon="8.301320783846213"><ele>163.0</ele><time>2026-04-11T14:30:53.999Z</time></trkpt><trkpt lat="45.079905319386846" lon="8.301369912592168"><ele>162.4</ele><time>2026-04-11T14:30:54.999Z</time></trkpt><trkpt lat="45.08000961105259" lon="8.30141436112336"><ele>161.8</ele><time>2026-04-11T14:30:55.999Z</time></trkpt><trkpt lat="45.08011095648498" lon="8.301462675090908"><ele>161.2</ele><time>2026-04-11T14:30:56.999Z</time></trkpt><trkpt lat="45.08020939551782" lon="8.30151236345527"><ele>160.6</ele><time>2026-04-11T14:30:57.999Z</time></trkpt><trkpt lat="45.0803005527572" lon="8.301557745713898"><ele>160.0</ele><time>2026-04-11T14:30:58.999Z</time></trkpt><trkpt lat="45.08038295255061" lon="8.301612996653034"><ele>160.0</ele><time>2026-04-11T14:30:59.999Z</time></trkpt><trkpt lat="45.08046121332111" lon="8.301637727870329"><ele>160.0</ele><time>2026-04-11T14:31:00.999Z</time></trkpt><trkpt lat="45.080521324762515" lon="8.30168850542231"><ele>160.0</ele><time>2026-04-11T14:31:01.999Z</time></trkpt><trkpt lat="45.080625860255346" lon="8.301728088999509"><ele>160.0</ele><time>2026-04-11T14:31:04Z</time></trkpt><trkpt lat="45.08072010414466" lon="8.301744548346976"><ele>160.0</ele><time>2026-04-11T14:31:06Z</time></trkpt><trkpt lat="45.080786135338485" lon="8.30176585048131"><ele>160.0</ele><time>2026-04-11T14:31:07Z</time></trkpt><trkpt lat="45.080860844780865" lon="8.301772571947453"><ele>159.83333333333334</ele><time>2026-04-11T14:31:08Z</time></trkpt><trkpt lat="45.08093086069764" lon="8.301797476873459"><ele>159.66666666666669</ele><time>2026-04-11T14:31:09Z</time></trkpt><trkpt lat="45.08099387260332" lon="8.301819203119521"><ele>159.5</ele><time>2026-04-11T14:31:10Z</time></trkpt><trkpt lat="45.0810833448668" lon="8.301844725554245"><ele>159.33333333333334</ele><time>2026-04-11T14:31:11Z</time></trkpt><trkpt lat="45.081175663251585" lon="8.301875418953426"><ele>159.16666666666666</ele><time>2026-04-11T14:31:12Z</time></trkpt><trkpt lat="45.08126209767819" lon="8.301916583885365"><ele>159.0</ele><time>2026-04-11T14:31:13Z</time></trkpt><trkpt lat="45.081349473912674" lon="8.30197789191121"><ele>159.0</ele><time>2026-04-11T14:31:14Z</time></trkpt><trkpt lat="45.08143826750464" lon="8.302060775203914"><ele>159.0</ele><time>2026-04-11T14:31:15Z</time></trkpt><trkpt lat="45.081518195149826" lon="8.302149036214878"><ele>159.0</ele><time>2026-04-11T14:31:16Z</time></trkpt><trkpt lat="45.08160912798134" lon="8.302249935107225"><ele>159.0</ele><time>2026-04-11T14:31:17Z</time></trkpt><trkpt lat="45.08170087472645" lon="8.302354040145365"><ele>159.0</ele><time>2026-04-11T14:31:18Z</time></trkpt><trkpt lat="45.081794997047595" lon="8.302455929936517"><ele>159.6</ele><time>2026-04-11T14:31:19Z</time></trkpt><trkpt lat="45.081883409608324" lon="8.302541741522415"><ele>160.2</ele><time>2026-04-11T14:31:20Z</time></trkpt><trkpt lat="45.081966389441" lon="8.302623582535057"><ele>160.79999999999998</ele><time>2026-04-11T14:31:21Z</time></trkpt><trkpt lat="45.08204630664052" lon="8.302697073985563"><ele>161.4</ele><time>2026-04-11T14:31:22Z</time></trkpt><trkpt lat="45.08213190135842" lon="8.302766818958109"><ele>162.0</ele><time>2026-04-11T14:31:23.001Z</time></trkpt><trkpt lat="45.08222140934515" lon="8.302847933858333"><ele>162.0</ele><time>2026-04-11T14:31:24.001Z</time></trkpt><trkpt lat="45.08231158603156" lon="8.302933357906246"><ele>162.0</ele><time>2026-04-11T14:31:25.001Z</time></trkpt><trkpt lat="45.08240252894557" lon="8.303011108653035"><ele>162.0</ele><time>2026-04-11T14:31:26.001Z</time></trkpt><trkpt lat="45.082483320189176" lon="8.303075377756489"><ele>162.0</ele><time>2026-04-11T14:31:27.001Z</time></trkpt><trkpt lat="45.08255073385474" lon="8.303145536492773"><ele>162.0</ele><time>2026-04-11T14:31:28.001Z</time></trkpt><trkpt lat="45.0826295288531" lon="8.303213560831926"><ele>162.5</ele><time>2026-04-11T14:31:29.001Z</time></trkpt><trkpt lat="45.08270448453832" lon="8.30327280871298"><ele>163.0</ele><time>2026-04-11T14:31:30.001Z</time></trkpt><trkpt lat="45.08278892870308" lon="8.303311824671246"><ele>163.5</ele><time>2026-04-11T14:31:31.001Z</time></trkpt><trkpt lat="45.08287035444086" lon="8.303340795733105"><ele>164.0</ele><time>2026-04-11T14:31:32.001Z</time></trkpt><trkpt lat="45.08295363261772" lon="8.303352594048672"><ele>164.5</ele><time>2026-04-11T14:31:33.001Z</time></trkpt><trkpt lat="45.08303828937755" lon="8.303352547453695"><ele>165.0</ele><time>2026-04-11T14:31:34.001Z</time></trkpt><trkpt lat="45.083119060710985" lon="8.303371559813773"><ele>165.0</ele><time>2026-04-11T14:31:35.001Z</time></trkpt><trkpt lat="45.083209067610795" lon="8.303364877497096"><ele>165.0</ele><time>2026-04-11T14:31:36.001Z</time></trkpt><trkpt lat="45.0833003577511" lon="8.30338174032506"><ele>165.0</ele><time>2026-04-11T14:31:37.001Z</time></trkpt><trkpt lat="45.08339814027675" lon="8.303403784458482"><ele>165.0</ele><time>2026-04-11T14:31:38.001Z</time></trkpt><trkpt lat="45.08349303473744" lon="8.303427024451024"><ele>165.0</ele><time>2026-04-11T14:31:39.001Z</time></trkpt><trkpt lat="45.083587683260006" lon="8.303424641641685"><ele>165.8</ele><time>2026-04-11T14:31:40.001Z</time></trkpt><trkpt lat="45.08367125997945" lon="8.303454498986222"><ele>166.6</ele><time>2026-04-11T14:31:41.001Z</time></trkpt><trkpt lat="45.0837678446373" lon="8.303462317751526"><ele>167.39999999999998</ele><time>2026-04-11T14:31:42.001Z</time></trkpt><trkpt lat="45.083861046531275" lon="8.303466501316572"><ele>168.2</ele><time>2026-04-11T14:31:43.001Z</time></trkpt><trkpt lat="45.083935753281224" lon="8.303502878900842"><ele>169.0</ele><time>2026-04-11T14:31:44.001Z</time></trkpt><trkpt lat="45.08403906619178" lon="8.30357181103919"><ele>169.0</ele><time>2026-04-11T14:31:46.001Z</time></trkpt><trkpt lat="45.08407648422323" lon="8.303663335494116"><ele>169.0</ele><time>2026-04-11T14:31:47.001Z</time></trkpt><trkpt lat="45.08411859172719" lon="8.303766324069311"><ele>169.0</ele><time>2026-04-11T14:31:48.001Z</time></trkpt><trkpt lat="45.084170507457884" lon="8.30387042298495"><ele>169.0</ele><time>2026-04-11T14:31:49.001Z</time></trkpt><trkpt lat="45.0842177414585" lon="8.303962432999448"><ele>169.0</ele><time>2026-04-11T14:31:50.001Z</time></trkpt><trkpt lat="45.084256761208856" lon="8.304046257958959"><ele>169.0</ele><time>2026-04-11T14:31:51.001Z</time></trkpt><trkpt lat="45.08431590759851" lon="8.304200084239776"><ele>168.33333333333334</ele><time>2026-04-11T14:31:53.002Z</time></trkpt><trkpt lat="45.08435635282349" lon="8.304283452338348"><ele>167.66666666666669</ele><time>2026-04-11T14:31:54.002Z</time></trkpt><trkpt lat="45.08444352159762" lon="8.304322674802082"><ele>167.0</ele><time>2026-04-11T14:31:55.002Z</time></trkpt><trkpt lat="45.08452728556942" lon="8.304368892046327"><ele>166.33333333333334</ele><time>2026-04-11T14:31:56.002Z</time></trkpt><trkpt lat="45.08460908413301" lon="8.30442389194755"><ele>165.66666666666666</ele><time>2026-04-11T14:31:57.002Z</time></trkpt><trkpt lat="45.08469582414205" lon="8.304478595782541"><ele>165.0</ele><time>2026-04-11T14:31:58.002Z</time></trkpt><trkpt lat="45.08476744082428" lon="8.304520636439504"><ele>165.0</ele><time>2026-04-11T14:31:59.002Z</time></trkpt><trkpt lat="45.08484763346037" lon="8.304562347450645"><ele>165.0</ele><time>2026-04-11T14:32:00.002Z</time></trkpt><trkpt lat="45.08491587584284" lon="8.304591577670443"><ele>165.0</ele><time>2026-04-11T14:32:01.002Z</time></trkpt><trkpt lat="45.08504783987104" lon="8.304628477951773"><ele>165.0</ele><time>2026-04-11T14:32:03.002Z</time></trkpt><trkpt lat="45.085141950509396" lon="8.304664256841745"><ele>165.0</ele><time>2026-04-11T14:32:04.002Z</time></trkpt><trkpt lat="45.0852330837901" lon="8.304705993238954"><ele>165.0</ele><time>2026-04-11T14:32:05.002Z</time></trkpt><trkpt lat="45.085313789096816" lon="8.30474161229295"><ele>165.0</ele><time>2026-04-11T14:32:06.002Z</time></trkpt><trkpt lat="45.0853896313072" lon="8.30477156309402"><ele>165.0</ele><time>2026-04-11T14:32:07.002Z</time></trkpt><trkpt lat="45.0855055680101" lon="8.304815645484213"><ele>165.0</ele><time>2026-04-11T14:32:09.002Z</time></trkpt><trkpt lat="45.085623465069645" lon="8.30483862029147"><ele>165.0</ele><time>2026-04-11T14:32:11.002Z</time></trkpt><trkpt lat="45.08573355348172" lon="8.304893625019194"><ele>164.33333333333334</ele><time>2026-04-11T14:32:13.002Z</time></trkpt><trkpt lat="45.08579394342493" lon="8.304928342293652"><ele>163.66666666666666</ele><time>2026-04-11T14:32:14.002Z</time></trkpt><trkpt lat="45.08586992592925" lon="8.304962774990488"><ele>163.0</ele><time>2026-04-11T14:32:15.002Z</time></trkpt><trkpt lat="45.085938365795855" lon="8.304992871669365"><ele>162.33333333333331</ele><time>2026-04-11T14:32:16.002Z</time></trkpt><trkpt lat="45.08601851355378" lon="8.305036711204753"><ele>161.66666666666666</ele><time>2026-04-11T14:32:17.002Z</time></trkpt><trkpt lat="45.086099025524526" lon="8.305083784049755"><ele>161.0</ele><time>2026-04-11T14:32:18.002Z</time></trkpt><trkpt lat="45.08617841498587" lon="8.305133876417448"><ele>161.0</ele><time>2026-04-11T14:32:19.002Z</time></trkpt><trkpt lat="45.0862584699474" lon="8.305180322847002"><ele>161.0</ele><time>2026-04-11T14:32:20.002Z</time></trkpt><trkpt lat="45.0863418339189" lon="8.305231191698045"><ele>161.0</ele><time>2026-04-11T14:32:21.002Z</time></trkpt><trkpt lat="45.08642260615496" lon="8.305283700151888"><ele>161.0</ele><time>2026-04-11T14:32:22.002Z</time></trkpt><trkpt lat="45.08648636944342" lon="8.305331209617052"><ele>161.0</ele><time>2026-04-11T14:32:23.002Z</time></trkpt><trkpt lat="45.086569023282635" lon="8.305393733149968"><ele>161.0</ele><time>2026-04-11T14:32:24.002Z</time></trkpt><trkpt lat="45.08664829716403" lon="8.305455729852174"><ele>161.0</ele><time>2026-04-11T14:32:25.003Z</time></trkpt><trkpt lat="45.08673542684262" lon="8.305527554412583"><ele>161.0</ele><time>2026-04-11T14:32:26.003Z</time></trkpt><trkpt lat="45.08682175028291" lon="8.305593482701461"><ele>161.0</ele><time>2026-04-11T14:32:27.003Z</time></trkpt><trkpt lat="45.08690909769196" lon="8.30567039025909"><ele>161.0</ele><time>2026-04-11T14:32:28.003Z</time></trkpt><trkpt lat="45.08700015863003" lon="8.30574681793973"><ele>161.0</ele><time>2026-04-11T14:32:29.003Z</time></trkpt><trkpt lat="45.08707459132974" lon="8.305825552530758"><ele>161.0</ele><time>2026-04-11T14:32:30.003Z</time></trkpt><trkpt lat="45.08714037418204" lon="8.305891000729657"><ele>161.0</ele><time>2026-04-11T14:32:31.003Z</time></trkpt><trkpt lat="45.087199988891854" lon="8.305952625896346"><ele>161.0</ele><time>2026-04-11T14:32:32.003Z</time></trkpt><trkpt lat="45.08727130337377" lon="8.305999405796504"><ele>161.0</ele><time>2026-04-11T14:32:33.003Z</time></trkpt><trkpt lat="45.087355251198346" lon="8.3060451769592"><ele>161.0</ele><time>2026-04-11T14:32:34.003Z</time></trkpt><trkpt lat="45.08744381571413" lon="8.306089251425032"><ele>161.0</ele><time>2026-04-11T14:32:35.003Z</time></trkpt><trkpt lat="45.08752573322806" lon="8.30616212531765"><ele>160.0</ele><time>2026-04-11T14:32:36.003Z</time></trkpt><trkpt lat="45.08759504792446" lon="8.306256827447838"><ele>159.0</ele><time>2026-04-11T14:32:37.003Z</time></trkpt><trkpt lat="45.087662849510515" lon="8.306350189477577"><ele>158.0</ele><time>2026-04-11T14:32:38.003Z</time></trkpt><trkpt lat="45.08772043313847" lon="8.306424310933432"><ele>157.0</ele><time>2026-04-11T14:32:39.003Z</time></trkpt><trkpt lat="45.08777455254389" lon="8.306472575236869"><ele>156.0</ele><time>2026-04-11T14:32:40.003Z</time></trkpt><trkpt lat="45.08787684450387" lon="8.306533369088642"><ele>155.0</ele><time>2026-04-11T14:32:42.003Z</time></trkpt><trkpt lat="45.08793692660609" lon="8.306562227694595"><ele>155.0</ele><time>2026-04-11T14:32:43.003Z</time></trkpt><trkpt lat="45.08800532516384" lon="8.306562220314712"><ele>155.0</ele><time>2026-04-11T14:32:44.003Z</time></trkpt><trkpt lat="45.08808719615531" lon="8.306549936194362"><ele>155.0</ele><time>2026-04-11T14:32:45.003Z</time></trkpt><trkpt lat="45.088191652118624" lon="8.306535532256037"><ele>155.0</ele><time>2026-04-11T14:32:46.003Z</time></trkpt><trkpt lat="45.08828744995766" lon="8.306528548533572"><ele>155.0</ele><time>2026-04-11T14:32:47.003Z</time></trkpt><trkpt lat="45.08837374575486" lon="8.306523890502582"><ele>155.0</ele><time>2026-04-11T14:32:48.003Z</time></trkpt><trkpt lat="45.08845511883435" lon="8.306511397490468"><ele>156.0</ele><time>2026-04-11T14:32:49.003Z</time></trkpt><trkpt lat="45.08853823462312" lon="8.306491652738673"><ele>157.0</ele><time>2026-04-11T14:32:50.003Z</time></trkpt><trkpt lat="45.088616058887055" lon="8.306453307815515"><ele>158.0</ele><time>2026-04-11T14:32:51.003Z</time></trkpt><trkpt lat="45.08868534338124" lon="8.306412047387422"><ele>159.0</ele><time>2026-04-11T14:32:51.999Z</time></trkpt><trkpt lat="45.08876476581404" lon="8.306386336186463"><ele>160.0</ele><time>2026-04-11T14:32:52.999Z</time></trkpt><trkpt lat="45.088851164587915" lon="8.306380239204763"><ele>161.0</ele><time>2026-04-11T14:32:53.999Z</time></trkpt><trkpt lat="45.08892476991744" lon="8.306375748362184"><ele>162.66666666666666</ele><time>2026-04-11T14:32:54.999Z</time></trkpt><trkpt lat="45.08898771115058" lon="8.306365060535446"><ele>164.33333333333331</ele><time>2026-04-11T14:32:55.999Z</time></trkpt><trkpt lat="45.08906558860439" lon="8.306334777507328"><ele>166.0</ele><time>2026-04-11T14:32:56.999Z</time></trkpt><trkpt lat="45.089130757630414" lon="8.306282704112665"><ele>167.66666666666666</ele><time>2026-04-11T14:32:57.999Z</time></trkpt><trkpt lat="45.08920645207318" lon="8.306223187387715"><ele>169.33333333333334</ele><time>2026-04-11T14:32:58.999Z</time></trkpt><trkpt lat="45.089277538727295" lon="8.306152808934756"><ele>171.0</ele><time>2026-04-11T14:32:59.999Z</time></trkpt><trkpt lat="45.0893601923756" lon="8.306078852582466"><ele>172.0</ele><time>2026-04-11T14:33:00.999Z</time></trkpt><trkpt lat="45.08943726903967" lon="8.306009993543073"><ele>173.0</ele><time>2026-04-11T14:33:01.999Z</time></trkpt><trkpt lat="45.089520931811315" lon="8.305938992219367"><ele>174.0</ele><time>2026-04-11T14:33:02.999Z</time></trkpt><trkpt lat="45.08961781597304" lon="8.305878682040737"><ele>175.0</ele><time>2026-04-11T14:33:03.999Z</time></trkpt><trkpt lat="45.08970546343323" lon="8.30581259428561"><ele>176.0</ele><time>2026-04-11T14:33:04.999Z</time></trkpt><trkpt lat="45.08979231448527" lon="8.305766775528564"><ele>176.0</ele><time>2026-04-11T14:33:05.999Z</time></trkpt><trkpt lat="45.089883881943685" lon="8.305733281101556"><ele>176.0</ele><time>2026-04-11T14:33:07Z</time></trkpt><trkpt lat="45.08997594254597" lon="8.305707919988132"><ele>176.0</ele><time>2026-04-11T14:33:08Z</time></trkpt><trkpt lat="45.09006466154794" lon="8.305677180873847"><ele>176.0</ele><time>2026-04-11T14:33:09Z</time></trkpt><trkpt lat="45.09015988729069" lon="8.305658144528472"><ele>176.0</ele><time>2026-04-11T14:33:10Z</time></trkpt><trkpt lat="45.09025135395229" lon="8.305651089350434"><ele>174.5</ele><time>2026-04-11T14:33:11Z</time></trkpt><trkpt lat="45.09034071470854" lon="8.30566621751135"><ele>173.0</ele><time>2026-04-11T14:33:12Z</time></trkpt><trkpt lat="45.0904234442021" lon="8.305689307920249"><ele>171.5</ele><time>2026-04-11T14:33:13Z</time></trkpt><trkpt lat="45.09052456395121" lon="8.30571919534167"><ele>170.0</ele><time>2026-04-11T14:33:14Z</time></trkpt><trkpt lat="45.09060172542576" lon="8.305747436772219"><ele>168.5</ele><time>2026-04-11T14:33:15Z</time></trkpt><trkpt lat="45.09066770052049" lon="8.305771398733077"><ele>167.0</ele><time>2026-04-11T14:33:16Z</time></trkpt><trkpt lat="45.090751030263" lon="8.305804314083241"><ele>166.66666666666666</ele><time>2026-04-11T14:33:18Z</time></trkpt><trkpt lat="45.09081719753136" lon="8.305804590341781"><ele>166.33333333333331</ele><time>2026-04-11T14:33:22Z</time></trkpt><trkpt lat="45.09087936283945" lon="8.30589179065408"><ele>166.0</ele><time>2026-04-11T14:33:23Z</time></trkpt><trkpt lat="45.09095880803138" lon="8.305893256495207"><ele>165.66666666666666</ele><time>2026-04-11T14:33:24Z</time></trkpt><trkpt lat="45.09104416651715" lon="8.305869160333918"><ele>165.33333333333334</ele><time>2026-04-11T14:33:25Z</time></trkpt><trkpt lat="45.09112471376623" lon="8.30583764726255"><ele>165.0</ele><time>2026-04-11T14:33:26Z</time></trkpt><trkpt lat="45.091219636509685" lon="8.305786466322798"><ele>165.0</ele><time>2026-04-11T14:33:28Z</time></trkpt><trkpt lat="45.09126533739567" lon="8.305694920574732"><ele>165.0</ele><time>2026-04-11T14:33:30Z</time></trkpt><trkpt lat="45.09113690246089" lon="8.305189579452263"><ele>166.5</ele><time>2026-04-11T14:33:31Z</time></trkpt><trkpt lat="45.09110131631033" lon="8.305108102752245"><ele>168.0</ele><time>2026-04-11T14:33:32Z</time></trkpt><trkpt lat="45.09101404825029" lon="8.30502914388877"><ele>169.5</ele><time>2026-04-11T14:33:34Z</time></trkpt><trkpt lat="45.09092215841436" lon="8.305013913275495"><ele>171.0</ele><time>2026-04-11T14:33:36Z</time></trkpt><trkpt lat="45.09082317482357" lon="8.305014601603565"><ele>172.5</ele><time>2026-04-11T14:33:38.001Z</time></trkpt><trkpt lat="45.09075052280941" lon="8.305013658485837"><ele>174.0</ele><time>2026-04-11T14:33:41.001Z</time></trkpt><trkpt lat="45.09081827462285" lon="8.305046697936742"><ele>174.0</ele><time>2026-04-11T14:33:57.001Z</time></trkpt><trkpt lat="45.09092827507802" lon="8.305049882991664"><ele>174.0</ele><time>2026-04-11T14:33:58.001Z</time></trkpt><trkpt lat="45.09099773196751" lon="8.305060321142689"><ele>174.0</ele><time>2026-04-11T14:33:59.001Z</time></trkpt><trkpt lat="45.09105465304797" lon="8.305101669375057"><ele>174.0</ele><time>2026-04-11T14:34:00.001Z</time></trkpt><trkpt lat="45.091122364467616" lon="8.30524421645009"><ele>174.0</ele><time>2026-04-11T14:34:02.001Z</time></trkpt><trkpt lat="45.09114174068143" lon="8.305336551770674"><ele>174.0</ele><time>2026-04-11T14:34:03.001Z</time></trkpt><trkpt lat="45.091140336464996" lon="8.305433893923112"><ele>174.0</ele><time>2026-04-11T14:34:04.001Z</time></trkpt><trkpt lat="45.09112953032762" lon="8.305527547362956"><ele>174.0</ele><time>2026-04-11T14:34:05.001Z</time></trkpt><trkpt lat="45.09110082746365" lon="8.305609975715685"><ele>174.0</ele><time>2026-04-11T14:34:06.001Z</time></trkpt><trkpt lat="45.091018552290635" lon="8.305715821720035"><ele>174.0</ele><time>2026-04-11T14:34:08.001Z</time></trkpt><trkpt lat="45.09091586733038" lon="8.305746402647646"><ele>174.0</ele><time>2026-04-11T14:34:10.002Z</time></trkpt><trkpt lat="45.09081905367985" lon="8.30576419028591"><ele>174.0</ele><time>2026-04-11T14:34:12.002Z</time></trkpt><trkpt lat="45.09077297919689" lon="8.305826405577287"><ele>172.2</ele><time>2026-04-11T14:34:23.002Z</time></trkpt><trkpt lat="45.09084281326346" lon="8.305756073944591"><ele>170.39999999999998</ele><time>2026-04-11T14:34:38.002Z</time></trkpt><trkpt lat="45.090927715803204" lon="8.305716444884652"><ele>168.6</ele><time>2026-04-11T14:34:39.002Z</time></trkpt><trkpt lat="45.0910121945198" lon="8.305693421962077"><ele>166.8</ele><time>2026-04-11T14:34:40.002Z</time></trkpt><trkpt lat="45.09109095758482" lon="8.305667759104553"><ele>165.0</ele><time>2026-04-11T14:34:41.002Z</time></trkpt><trkpt lat="45.09127409461005" lon="8.305809798331302"><ele>165.0</ele><time>2026-04-11T14:34:42.002Z</time></trkpt><trkpt lat="45.09136451636454" lon="8.305683023934865"><ele>165.0</ele><time>2026-04-11T14:34:43.003Z</time></trkpt><trkpt lat="45.09145588818468" lon="8.305625704727335"><ele>165.0</ele><time>2026-04-11T14:34:44.003Z</time></trkpt><trkpt lat="45.09153870243826" lon="8.305574138211977"><ele>165.0</ele><time>2026-04-11T14:34:45.003Z</time></trkpt><trkpt lat="45.091631418739844" lon="8.305516913399659"><ele>165.0</ele><time>2026-04-11T14:34:46.003Z</time></trkpt><trkpt lat="45.09172468978654" lon="8.305437666581469"><ele>166.0</ele><time>2026-04-11T14:34:47.003Z</time></trkpt><trkpt lat="45.091821952859085" lon="8.305354555645193"><ele>167.0</ele><time>2026-04-11T14:34:48.003Z</time></trkpt><trkpt lat="45.09191934451312" lon="8.305262001299722"><ele>168.0</ele><time>2026-04-11T14:34:49.003Z</time></trkpt><trkpt lat="45.09201628415546" lon="8.305158244954002"><ele>169.0</ele><time>2026-04-11T14:34:50.003Z</time></trkpt><trkpt lat="45.09211026152865" lon="8.305042848531249"><ele>169.0</ele><time>2026-04-11T14:34:51.003Z</time></trkpt><trkpt lat="45.09220089216518" lon="8.30491742088481"><ele>169.0</ele><time>2026-04-11T14:34:52.003Z</time></trkpt><trkpt lat="45.092284153284346" lon="8.30480184743687"><ele>169.0</ele><time>2026-04-11T14:34:53.003Z</time></trkpt><trkpt lat="45.092367972421606" lon="8.304681957573486"><ele>169.0</ele><time>2026-04-11T14:34:54.003Z</time></trkpt><trkpt lat="45.09244255249375" lon="8.304555802450851"><ele>168.39999999999998</ele><time>2026-04-11T14:34:55.003Z</time></trkpt><trkpt lat="45.09251448567939" lon="8.304435955131586"><ele>167.8</ele><time>2026-04-11T14:34:56.003Z</time></trkpt><trkpt lat="45.09258537534067" lon="8.30432047440742"><ele>167.2</ele><time>2026-04-11T14:34:57.003Z</time></trkpt><trkpt lat="45.09265726891717" lon="8.304218555131381"><ele>166.60000000000002</ele><time>2026-04-11T14:34:57.999Z</time></trkpt><trkpt lat="45.09273279615242" lon="8.304138806670052"><ele>166.0</ele><time>2026-04-11T14:34:58.999Z</time></trkpt><trkpt lat="45.09282539789183" lon="8.304089731139669"><ele>166.0</ele><time>2026-04-11T14:34:59.999Z</time></trkpt><trkpt lat="45.09292979887399" lon="8.304066780445027"><ele>166.0</ele><time>2026-04-11T14:35:00.999Z</time></trkpt><trkpt lat="45.093048281696" lon="8.304052341113163"><ele>166.0</ele><time>2026-04-11T14:35:01.999Z</time></trkpt><trkpt lat="45.09317506435893" lon="8.304040185267738"><ele>166.0</ele><time>2026-04-11T14:35:03Z</time></trkpt><trkpt lat="45.09330320654193" lon="8.30402710239227"><ele>164.5</ele><time>2026-04-11T14:35:04Z</time></trkpt><trkpt lat="45.093425045412594" lon="8.30401191334595"><ele>163.0</ele><time>2026-04-11T14:35:05Z</time></trkpt><trkpt lat="45.09354675667523" lon="8.30399896443448"><ele>161.5</ele><time>2026-04-11T14:35:06Z</time></trkpt><trkpt lat="45.09366559832477" lon="8.303991454352103"><ele>160.0</ele><time>2026-04-11T14:35:07Z</time></trkpt><trkpt lat="45.09378705081932" lon="8.303980460960979"><ele>160.0</ele><time>2026-04-11T14:35:08Z</time></trkpt><trkpt lat="45.0939151853876" lon="8.303967751783896"><ele>160.0</ele><time>2026-04-11T14:35:09Z</time></trkpt><trkpt lat="45.094044945835805" lon="8.30395811718813"><ele>160.0</ele><time>2026-04-11T14:35:10Z</time></trkpt><trkpt lat="45.09417581210113" lon="8.303945499949169"><ele>160.0</ele><time>2026-04-11T14:35:11Z</time></trkpt><trkpt lat="45.094310217804185" lon="8.303932890916915"><ele>160.25</ele><time>2026-04-11T14:35:12Z</time></trkpt><trkpt lat="45.09444779315916" lon="8.30392763485555"><ele>160.5</ele><time>2026-04-11T14:35:13Z</time></trkpt><trkpt lat="45.09459298835271" lon="8.303923035201011"><ele>160.75</ele><time>2026-04-11T14:35:14Z</time></trkpt><trkpt lat="45.09473418330438" lon="8.30391423239833"><ele>161.0</ele><time>2026-04-11T14:35:15Z</time></trkpt><trkpt lat="45.094881336427214" lon="8.303903468372456"><ele>160.33333333333331</ele><time>2026-04-11T14:35:16Z</time></trkpt><trkpt lat="45.095029553320664" lon="8.30389940049488"><ele>159.66666666666666</ele><time>2026-04-11T14:35:17Z</time></trkpt><trkpt lat="45.095188322054995" lon="8.30389566706383"><ele>159.0</ele><time>2026-04-11T14:35:18Z</time></trkpt><trkpt lat="45.095348477865436" lon="8.303887946936397"><ele>159.0</ele><time>2026-04-11T14:35:19Z</time></trkpt><trkpt lat="45.09551676405747" lon="8.30388833273499"><ele>159.0</ele><time>2026-04-11T14:35:20Z</time></trkpt><trkpt lat="45.09567153702096" lon="8.30388770133031"><ele>159.0</ele><time>2026-04-11T14:35:21Z</time></trkpt><trkpt lat="45.09582162829265" lon="8.303891937379966"><ele>159.0</ele><time>2026-04-11T14:35:22Z</time></trkpt><trkpt lat="45.09596696458322" lon="8.303895444130989"><ele>159.0</ele><time>2026-04-11T14:35:23Z</time></trkpt><trkpt lat="45.096117278973594" lon="8.303903167332681"><ele>159.0</ele><time>2026-04-11T14:35:24Z</time></trkpt><trkpt lat="45.09626021240182" lon="8.303917935560449"><ele>159.0</ele><time>2026-04-11T14:35:25Z</time></trkpt><trkpt lat="45.096406013459074" lon="8.303949339884646"><ele>157.0</ele><time>2026-04-11T14:35:26Z</time></trkpt><trkpt lat="45.096546944622204" lon="8.304032247746049"><ele>155.0</ele><time>2026-04-11T14:35:27Z</time></trkpt><trkpt lat="45.09669168724937" lon="8.30412176255946"><ele>153.0</ele><time>2026-04-11T14:35:28Z</time></trkpt><trkpt lat="45.096842241755134" lon="8.30419340586093"><ele>152.33333333333334</ele><time>2026-04-11T14:35:29Z</time></trkpt><trkpt lat="45.09699186160978" lon="8.304304059255958"><ele>151.66666666666669</ele><time>2026-04-11T14:35:30Z</time></trkpt><trkpt lat="45.09713680030984" lon="8.304420737729982"><ele>151.0</ele><time>2026-04-11T14:35:31Z</time></trkpt><trkpt lat="45.09728559585024" lon="8.304545161217051"><ele>150.66666666666669</ele><time>2026-04-11T14:35:32.001Z</time></trkpt><trkpt lat="45.09744020355181" lon="8.304665846619546"><ele>150.33333333333334</ele><time>2026-04-11T14:35:33.001Z</time></trkpt><trkpt lat="45.09760576940773" lon="8.304785900659214"><ele>150.0</ele><time>2026-04-11T14:35:34.001Z</time></trkpt><trkpt lat="45.097765652092754" lon="8.304899146772543"><ele>150.0</ele><time>2026-04-11T14:35:35.001Z</time></trkpt><trkpt lat="45.09792893964173" lon="8.305013635858328"><ele>150.0</ele><time>2026-04-11T14:35:36.001Z</time></trkpt><trkpt lat="45.098090977529644" lon="8.305126821741354"><ele>150.0</ele><time>2026-04-11T14:35:37.001Z</time></trkpt><trkpt lat="45.09824963756005" lon="8.305235108050448"><ele>149.33333333333334</ele><time>2026-04-11T14:35:38.001Z</time></trkpt><trkpt lat="45.09840188515389" lon="8.305341583458123"><ele>148.66666666666669</ele><time>2026-04-11T14:35:39.001Z</time></trkpt><trkpt lat="45.09855264993427" lon="8.305440812708857"><ele>148.0</ele><time>2026-04-11T14:35:40.001Z</time></trkpt><trkpt lat="45.09871824091655" lon="8.30553822855289"><ele>147.33333333333334</ele><time>2026-04-11T14:35:41.001Z</time></trkpt><trkpt lat="45.098879556644526" lon="8.305625850455836"><ele>146.66666666666666</ele><time>2026-04-11T14:35:42.001Z</time></trkpt><trkpt lat="45.09903786671125" lon="8.3057121820403"><ele>146.0</ele><time>2026-04-11T14:35:43.001Z</time></trkpt><trkpt lat="45.09918760041864" lon="8.305794630155752"><ele>146.0</ele><time>2026-04-11T14:35:44.001Z</time></trkpt><trkpt lat="45.09932816093008" lon="8.30587473532393"><ele>146.0</ele><time>2026-04-11T14:35:45.001Z</time></trkpt><trkpt lat="45.09946167368266" lon="8.30594370510746"><ele>146.0</ele><time>2026-04-11T14:35:46.001Z</time></trkpt><trkpt lat="45.09959679964131" lon="8.305993874377545"><ele>146.0</ele><time>2026-04-11T14:35:47.001Z</time></trkpt><trkpt lat="45.099736061795" lon="8.306036415380667"><ele>146.0</ele><time>2026-04-11T14:35:48.001Z</time></trkpt><trkpt lat="45.09989189807984" lon="8.306066041688377"><ele>146.0</ele><time>2026-04-11T14:35:49.001Z</time></trkpt><trkpt lat="45.10005526844038" lon="8.30609548482947"><ele>146.0</ele><time>2026-04-11T14:35:50.001Z</time></trkpt><trkpt lat="45.10021167494823" lon="8.306131727057373"><ele>146.25</ele><time>2026-04-11T14:35:51.001Z</time></trkpt><trkpt lat="45.10035876615216" lon="8.306165297820003"><ele>146.5</ele><time>2026-04-11T14:35:52.001Z</time></trkpt><trkpt lat="45.10048548853318" lon="8.306192652423636"><ele>146.75</ele><time>2026-04-11T14:35:53.001Z</time></trkpt><trkpt lat="45.100608154329215" lon="8.306222092026601"><ele>147.0</ele><time>2026-04-11T14:35:54.001Z</time></trkpt><trkpt lat="45.100727235815995" lon="8.306246537345624"><ele>146.75</ele><time>2026-04-11T14:35:55.001Z</time></trkpt><trkpt lat="45.10085748992148" lon="8.306305787971342"><ele>146.5</ele><time>2026-04-11T14:35:56.001Z</time></trkpt><trkpt lat="45.10100555746746" lon="8.306338556262508"><ele>146.25</ele><time>2026-04-11T14:35:57.001Z</time></trkpt><trkpt lat="45.101153801536654" lon="8.306393468575878"><ele>146.0</ele><time>2026-04-11T14:35:58.001Z</time></trkpt><trkpt lat="45.10130903361348" lon="8.306448754943847"><ele>146.0</ele><time>2026-04-11T14:35:59.001Z</time></trkpt><trkpt lat="45.101453994687496" lon="8.306512373447713"><ele>146.0</ele><time>2026-04-11T14:36:00.001Z</time></trkpt><trkpt lat="45.10159552069341" lon="8.306559304918942"><ele>146.0</ele><time>2026-04-11T14:36:01.001Z</time></trkpt><trkpt lat="45.101728727936056" lon="8.306608989182813"><ele>146.0</ele><time>2026-04-11T14:36:02.001Z</time></trkpt><trkpt lat="45.101865118360195" lon="8.306661810979625"><ele>146.0</ele><time>2026-04-11T14:36:03.001Z</time></trkpt><trkpt lat="45.1019893974456" lon="8.306701774317355"><ele>146.0</ele><time>2026-04-11T14:36:04.002Z</time></trkpt><trkpt lat="45.10210680272176" lon="8.306733265279364"><ele>146.0</ele><time>2026-04-11T14:36:05.002Z</time></trkpt><trkpt lat="45.102212516655406" lon="8.30677504003763"><ele>146.0</ele><time>2026-04-11T14:36:06.002Z</time></trkpt><trkpt lat="45.10230295224501" lon="8.306819325979584"><ele>146.0</ele><time>2026-04-11T14:36:07.002Z</time></trkpt><trkpt lat="45.102375953666254" lon="8.306844051990165"><ele>146.0</ele><time>2026-04-11T14:36:08.002Z</time></trkpt><trkpt lat="45.10244520301543" lon="8.306866895876759"><ele>146.0</ele><time>2026-04-11T14:36:10.002Z</time></trkpt><trkpt lat="45.10250453780589" lon="8.306991967503425"><ele>146.0</ele><time>2026-04-11T14:36:14.002Z</time></trkpt><trkpt lat="45.102518955031954" lon="8.307112721236567"><ele>146.0</ele><time>2026-04-11T14:36:16.002Z</time></trkpt><trkpt lat="45.10265569752918" lon="8.30712523943672"><ele>146.0</ele><time>2026-04-11T14:36:19.002Z</time></trkpt><trkpt lat="45.10273298373026" lon="8.307103709643563"><ele>146.0</ele><time>2026-04-11T14:36:20.002Z</time></trkpt><trkpt lat="45.10280857352732" lon="8.307073316744031"><ele>146.0</ele><time>2026-04-11T14:36:21.002Z</time></trkpt><trkpt lat="45.102889370505935" lon="8.307053420430632"><ele>146.0</ele><time>2026-04-11T14:36:22.002Z</time></trkpt><trkpt lat="45.10298323862529" lon="8.30706108659734"><ele>146.0</ele><time>2026-04-11T14:36:23.002Z</time></trkpt><trkpt lat="45.10308175749462" lon="8.307080918233481"><ele>146.0</ele><time>2026-04-11T14:36:24.002Z</time></trkpt><trkpt lat="45.10317411933236" lon="8.307110217799503"><ele>145.8</ele><time>2026-04-11T14:36:25.002Z</time></trkpt><trkpt lat="45.10326453127055" lon="8.307138976900752"><ele>145.6</ele><time>2026-04-11T14:36:26.002Z</time></trkpt><trkpt lat="45.10336398267052" lon="8.307167570918057"><ele>145.4</ele><time>2026-04-11T14:36:27.002Z</time></trkpt><trkpt lat="45.103477040166744" lon="8.307201987521347"><ele>145.2</ele><time>2026-04-11T14:36:28.002Z</time></trkpt><trkpt lat="45.10359986508895" lon="8.307234100754348"><ele>145.0</ele><time>2026-04-11T14:36:29.002Z</time></trkpt><trkpt lat="45.10373217956405" lon="8.307274079160221"><ele>145.0</ele><time>2026-04-11T14:36:30.002Z</time></trkpt><trkpt lat="45.10386314122784" lon="8.30731032089306"><ele>145.0</ele><time>2026-04-11T14:36:31.002Z</time></trkpt><trkpt lat="45.10398974833432" lon="8.30733970583851"><ele>145.0</ele><time>2026-04-11T14:36:32.002Z</time></trkpt><trkpt lat="45.10411175089147" lon="8.30737590167916"><ele>145.0</ele><time>2026-04-11T14:36:33.002Z</time></trkpt><trkpt lat="45.104244348086986" lon="8.307418700729848"><ele>144.75</ele><time>2026-04-11T14:36:34.002Z</time></trkpt><trkpt lat="45.104381777760906" lon="8.307464066105574"><ele>144.5</ele><time>2026-04-11T14:36:35.002Z</time></trkpt><trkpt lat="45.10452705884963" lon="8.307510386496995"><ele>144.25</ele><time>2026-04-11T14:36:36.002Z</time></trkpt><trkpt lat="45.10467357838204" lon="8.307544415626515"><ele>144.0</ele><time>2026-04-11T14:36:37.002Z</time></trkpt><trkpt lat="45.10482223189985" lon="8.307581931033411"><ele>143.33333333333334</ele><time>2026-04-11T14:36:38.003Z</time></trkpt><trkpt lat="45.10497015747176" lon="8.307614436558245"><ele>142.66666666666669</ele><time>2026-04-11T14:36:39.003Z</time></trkpt><trkpt lat="45.105120653480796" lon="8.307655242111917"><ele>142.0</ele><time>2026-04-11T14:36:40.003Z</time></trkpt><trkpt lat="45.10527482839348" lon="8.307702725402285"><ele>142.0</ele><time>2026-04-11T14:36:41.003Z</time></trkpt><trkpt lat="45.10542044103903" lon="8.307748481862832"><ele>142.0</ele><time>2026-04-11T14:36:42.003Z</time></trkpt><trkpt lat="45.10557131148001" lon="8.307789377664845"><ele>142.0</ele><time>2026-04-11T14:36:43.003Z</time></trkpt><trkpt lat="45.10573470142374" lon="8.307834691285878"><ele>143.0</ele><time>2026-04-11T14:36:44.003Z</time></trkpt><trkpt lat="45.10589143246591" lon="8.307880255418254"><ele>144.0</ele><time>2026-04-11T14:36:45.003Z</time></trkpt><trkpt lat="45.10605246727091" lon="8.307929636175428"><ele>145.0</ele><time>2026-04-11T14:36:46.003Z</time></trkpt><trkpt lat="45.10622153199562" lon="8.307978467519334"><ele>145.0</ele><time>2026-04-11T14:36:47.003Z</time></trkpt><trkpt lat="45.106392717131676" lon="8.308028803172538"><ele>145.0</ele><time>2026-04-11T14:36:48.003Z</time></trkpt><trkpt lat="45.10657230923029" lon="8.308084972440053"><ele>145.0</ele><time>2026-04-11T14:36:49.003Z</time></trkpt><trkpt lat="45.10674804768174" lon="8.308134229771248"><ele>144.33333333333334</ele><time>2026-04-11T14:36:50.003Z</time></trkpt><trkpt lat="45.1069243326684" lon="8.308191394316703"><ele>143.66666666666666</ele><time>2026-04-11T14:36:51.003Z</time></trkpt><trkpt lat="45.10709361958266" lon="8.308238171686687"><ele>143.0</ele><time>2026-04-11T14:36:52.003Z</time></trkpt><trkpt lat="45.10727024346733" lon="8.30828707303573"><ele>142.33333333333331</ele><time>2026-04-11T14:36:53.003Z</time></trkpt><trkpt lat="45.10744511281341" lon="8.30833384739981"><ele>141.66666666666666</ele><time>2026-04-11T14:36:54.003Z</time></trkpt><trkpt lat="45.107630556895195" lon="8.308386467744894"><ele>141.0</ele><time>2026-04-11T14:36:55.003Z</time></trkpt><trkpt lat="45.107818515381496" lon="8.308436800257775"><ele>141.0</ele><time>2026-04-11T14:36:56.003Z</time></trkpt><trkpt lat="45.108001595228664" lon="8.308489681347933"><ele>141.0</ele><time>2026-04-11T14:36:57.003Z</time></trkpt><trkpt lat="45.10818569046566" lon="8.308541833823174"><ele>141.0</ele><time>2026-04-11T14:36:58.003Z</time></trkpt><trkpt lat="45.10837115183474" lon="8.308593803951942"><ele>140.66666666666666</ele><time>2026-04-11T14:36:59.003Z</time></trkpt><trkpt lat="45.108551408401475" lon="8.308647368493082"><ele>140.33333333333331</ele><time>2026-04-11T14:37:00.003Z</time></trkpt><trkpt lat="45.108732281182064" lon="8.308700097791071"><ele>140.0</ele><time>2026-04-11T14:37:01.003Z</time></trkpt><trkpt lat="45.10890885150473" lon="8.308751474944074"><ele>140.33333333333331</ele><time>2026-04-11T14:37:02.003Z</time></trkpt><trkpt lat="45.10907744664169" lon="8.308800575690968"><ele>140.66666666666666</ele><time>2026-04-11T14:37:03.003Z</time></trkpt><trkpt lat="45.109234336773675" lon="8.308844866019086"><ele>141.0</ele><time>2026-04-11T14:37:04Z</time></trkpt><trkpt lat="45.109391303776675" lon="8.308886555186369"><ele>141.33333333333334</ele><time>2026-04-11T14:37:05Z</time></trkpt><trkpt lat="45.10955711110135" lon="8.308932407624333"><ele>141.66666666666669</ele><time>2026-04-11T14:37:06Z</time></trkpt><trkpt lat="45.109725860181406" lon="8.308980023414323"><ele>142.0</ele><time>2026-04-11T14:37:07Z</time></trkpt><trkpt lat="45.1099008563881" lon="8.309030156133828"><ele>141.33333333333334</ele><time>2026-04-11T14:37:08Z</time></trkpt><trkpt lat="45.11007584746417" lon="8.309082339220186"><ele>140.66666666666666</ele><time>2026-04-11T14:37:09Z</time></trkpt><trkpt lat="45.11024687910055" lon="8.309131946116079"><ele>140.0</ele><time>2026-04-11T14:37:10Z</time></trkpt><trkpt lat="45.11041757110924" lon="8.309180171982874"><ele>140.0</ele><time>2026-04-11T14:37:11Z</time></trkpt><trkpt lat="45.11058810084167" lon="8.30923059067422"><ele>140.0</ele><time>2026-04-11T14:37:12Z</time></trkpt><trkpt lat="45.11074895352606" lon="8.30927804728262"><ele>140.0</ele><time>2026-04-11T14:37:13Z</time></trkpt><trkpt lat="45.110906547556986" lon="8.309323993988079"><ele>140.33333333333331</ele><time>2026-04-11T14:37:14Z</time></trkpt><trkpt lat="45.111064508818686" lon="8.309368073339122"><ele>140.66666666666666</ele><time>2026-04-11T14:37:15Z</time></trkpt><trkpt lat="45.11121848475703" lon="8.309413393844732"><ele>141.0</ele><time>2026-04-11T14:37:16Z</time></trkpt><trkpt lat="45.11136334543303" lon="8.309456957460581"><ele>141.0</ele><time>2026-04-11T14:37:17Z</time></trkpt><trkpt lat="45.111508003531114" lon="8.309504550655953"><ele>141.0</ele><time>2026-04-11T14:37:18Z</time></trkpt><trkpt lat="45.111654300283156" lon="8.309541757145045"><ele>141.0</ele><time>2026-04-11T14:37:19Z</time></trkpt><trkpt lat="45.111799172702014" lon="8.30958435799159"><ele>141.0</ele><time>2026-04-11T14:37:20Z</time></trkpt><trkpt lat="45.11194097292784" lon="8.309625321094462"><ele>141.25</ele><time>2026-04-11T14:37:21Z</time></trkpt><trkpt lat="45.112083871640486" lon="8.309665564940639"><ele>141.5</ele><time>2026-04-11T14:37:22Z</time></trkpt><trkpt lat="45.112223309227666" lon="8.309708941432113"><ele>141.75</ele><time>2026-04-11T14:37:23Z</time></trkpt><trkpt lat="45.11234780963875" lon="8.309746040239483"><ele>142.0</ele><time>2026-04-11T14:37:24Z</time></trkpt><trkpt lat="45.11247568671126" lon="8.309782732304521"><ele>141.5</ele><time>2026-04-11T14:37:25Z</time></trkpt><trkpt lat="45.11260141965238" lon="8.309821843115223"><ele>141.0</ele><time>2026-04-11T14:37:26Z</time></trkpt><trkpt lat="45.11272177739963" lon="8.30985820070449"><ele>140.5</ele><time>2026-04-11T14:37:27Z</time></trkpt><trkpt lat="45.112838909976645" lon="8.309892453965423"><ele>140.0</ele><time>2026-04-11T14:37:28Z</time></trkpt><trkpt lat="45.1129492433049" lon="8.30992227702686"><ele>140.0</ele><time>2026-04-11T14:37:29Z</time></trkpt><trkpt lat="45.11305047076542" lon="8.309952514320702"><ele>140.0</ele><time>2026-04-11T14:37:30Z</time></trkpt><trkpt lat="45.11315449730126" lon="8.309982961723758"><ele>140.0</ele><time>2026-04-11T14:37:31Z</time></trkpt><trkpt lat="45.11325119497088" lon="8.310011873620148"><ele>140.0</ele><time>2026-04-11T14:37:32Z</time></trkpt><trkpt lat="45.113346612045355" lon="8.310039212350038"><ele>140.0</ele><time>2026-04-11T14:37:33.001Z</time></trkpt><trkpt lat="45.11343231694443" lon="8.310066972522307"><ele>140.0</ele><time>2026-04-11T14:37:34.001Z</time></trkpt><trkpt lat="45.1135120475345" lon="8.310087041058463"><ele>140.0</ele><time>2026-04-11T14:37:35.001Z</time></trkpt><trkpt lat="45.113615970714235" lon="8.310123762604599"><ele>140.0</ele><time>2026-04-11T14:37:37.001Z</time></trkpt><trkpt lat="45.113690066418755" lon="8.310155433763697"><ele>140.0</ele><time>2026-04-11T14:37:39.001Z</time></trkpt><trkpt lat="45.1137328462345" lon="8.31032750191868"><ele>140.0</ele><time>2026-04-11T14:37:43.001Z</time></trkpt><trkpt lat="45.11372866062891" lon="8.310452164956958"><ele>140.0</ele><time>2026-04-11T14:37:44.001Z</time></trkpt><trkpt lat="45.11372877541118" lon="8.310559846870515"><ele>140.0</ele><time>2026-04-11T14:37:45.001Z</time></trkpt><trkpt lat="45.11373581373854" lon="8.310681360750223"><ele>140.0</ele><time>2026-04-11T14:37:46.001Z</time></trkpt><trkpt lat="45.11374312223196" lon="8.310815106326995"><ele>140.0</ele><time>2026-04-11T14:37:47.001Z</time></trkpt><trkpt lat="45.11375230258871" lon="8.310967621725514"><ele>140.0</ele><time>2026-04-11T14:37:48.001Z</time></trkpt><trkpt lat="45.113761510738456" lon="8.311132913925931"><ele>140.25</ele><time>2026-04-11T14:37:49.001Z</time></trkpt><trkpt lat="45.11376441151572" lon="8.311287046588308"><ele>140.5</ele><time>2026-04-11T14:37:50.001Z</time></trkpt><trkpt lat="45.11376940954441" lon="8.311453358316403"><ele>140.75</ele><time>2026-04-11T14:37:51.001Z</time></trkpt><trkpt lat="45.11377456261138" lon="8.311637775853931"><ele>141.0</ele><time>2026-04-11T14:37:52.001Z</time></trkpt><trkpt lat="45.11378178008767" lon="8.311832178605652"><ele>141.0</ele><time>2026-04-11T14:37:53.001Z</time></trkpt><trkpt lat="45.11378779614668" lon="8.312030309495565"><ele>141.0</ele><time>2026-04-11T14:37:54.001Z</time></trkpt><trkpt lat="45.1137945765627" lon="8.312215078287501"><ele>141.0</ele><time>2026-04-11T14:37:55.001Z</time></trkpt><trkpt lat="45.11379921727387" lon="8.312403291217654"><ele>141.0</ele><time>2026-04-11T14:37:56.001Z</time></trkpt><trkpt lat="45.113804323564686" lon="8.312594613195234"><ele>141.0</ele><time>2026-04-11T14:37:57.001Z</time></trkpt><trkpt lat="45.11381182920717" lon="8.312795687182934"><ele>141.0</ele><time>2026-04-11T14:37:58.001Z</time></trkpt><trkpt lat="45.113816385557165" lon="8.313006200906909"><ele>141.0</ele><time>2026-04-11T14:37:59.001Z</time></trkpt><trkpt lat="45.11382316959204" lon="8.313218279755622"><ele>141.0</ele><time>2026-04-11T14:38:00.001Z</time></trkpt><trkpt lat="45.113829395120064" lon="8.313439856288252"><ele>140.66666666666666</ele><time>2026-04-11T14:38:01.001Z</time></trkpt><trkpt lat="45.11383507389531" lon="8.31366647060541"><ele>140.33333333333331</ele><time>2026-04-11T14:38:02.001Z</time></trkpt><trkpt lat="45.113839554371914" lon="8.3138927500311"><ele>140.0</ele><time>2026-04-11T14:38:03.001Z</time></trkpt><trkpt lat="45.11384442723312" lon="8.314106069017134"><ele>140.33333333333331</ele><time>2026-04-11T14:38:04.001Z</time></trkpt><trkpt lat="45.1138500112605" lon="8.314322447664425"><ele>140.66666666666666</ele><time>2026-04-11T14:38:05.001Z</time></trkpt><trkpt lat="45.1138572367812" lon="8.31454323108738"><ele>141.0</ele><time>2026-04-11T14:38:06.001Z</time></trkpt><trkpt lat="45.11386443399563" lon="8.31477146494518"><ele>141.0</ele><time>2026-04-11T14:38:07.002Z</time></trkpt><trkpt lat="45.11387065109462" lon="8.315002286977622"><ele>141.0</ele><time>2026-04-11T14:38:08.002Z</time></trkpt><trkpt lat="45.11387854049043" lon="8.315235371700028"><ele>141.0</ele><time>2026-04-11T14:38:09.002Z</time></trkpt><trkpt lat="45.1138845977397" lon="8.31546068908179"><ele>141.0</ele><time>2026-04-11T14:38:10.002Z</time></trkpt><trkpt lat="45.11389220634515" lon="8.315678460404344"><ele>141.0</ele><time>2026-04-11T14:38:11.002Z</time></trkpt><trkpt lat="45.11390034518273" lon="8.315884543239571"><ele>141.0</ele><time>2026-04-11T14:38:12.002Z</time></trkpt><trkpt lat="45.11390728117007" lon="8.316085281765492"><ele>141.0</ele><time>2026-04-11T14:38:13.002Z</time></trkpt><trkpt lat="45.11391320938812" lon="8.316279066899478"><ele>140.75</ele><time>2026-04-11T14:38:14.002Z</time></trkpt><trkpt lat="45.11391842805945" lon="8.31646665874029"><ele>140.5</ele><time>2026-04-11T14:38:15.002Z</time></trkpt><trkpt lat="45.11392306419027" lon="8.31666686353334"><ele>140.25</ele><time>2026-04-11T14:38:16.002Z</time></trkpt><trkpt lat="45.113928866349355" lon="8.316853403825018"><ele>140.0</ele><time>2026-04-11T14:38:17.002Z</time></trkpt><trkpt lat="45.113935508604115" lon="8.317022108996486"><ele>140.0</ele><time>2026-04-11T14:38:18.002Z</time></trkpt><trkpt lat="45.11394170483317" lon="8.317169968954138"><ele>140.0</ele><time>2026-04-11T14:38:19.002Z</time></trkpt><trkpt lat="45.11394749167641" lon="8.317300466785753"><ele>140.0</ele><time>2026-04-11T14:38:20.002Z</time></trkpt><trkpt lat="45.113947318293924" lon="8.317397641900532"><ele>140.0</ele><time>2026-04-11T14:38:21.002Z</time></trkpt><trkpt lat="45.1139523405906" lon="8.3175752432029"><ele>140.0</ele><time>2026-04-11T14:38:23.002Z</time></trkpt><trkpt lat="45.1139464458115" lon="8.317669443681337"><ele>140.0</ele><time>2026-04-11T14:38:24.002Z</time></trkpt><trkpt lat="45.113941245582886" lon="8.317788029729503"><ele>140.0</ele><time>2026-04-11T14:38:25.002Z</time></trkpt><trkpt lat="45.11392634893952" lon="8.317927744609479"><ele>140.0</ele><time>2026-04-11T14:38:26.002Z</time></trkpt><trkpt lat="45.113905005938705" lon="8.318092913074283"><ele>140.0</ele><time>2026-04-11T14:38:27.002Z</time></trkpt><trkpt lat="45.113877608294" lon="8.318266858428942"><ele>140.0</ele><time>2026-04-11T14:38:28.002Z</time></trkpt><trkpt lat="45.11384733670584" lon="8.31844543097895"><ele>140.2</ele><time>2026-04-11T14:38:29.002Z</time></trkpt><trkpt lat="45.113822949999474" lon="8.318610462366777"><ele>140.4</ele><time>2026-04-11T14:38:30.002Z</time></trkpt><trkpt lat="45.11379368640406" lon="8.318768041061452"><ele>140.6</ele><time>2026-04-11T14:38:31.002Z</time></trkpt><trkpt lat="45.11376346010927" lon="8.318908588377745"><ele>140.8</ele><time>2026-04-11T14:38:32.002Z</time></trkpt><trkpt lat="45.11374153130917" lon="8.31902307197071"><ele>141.0</ele><time>2026-04-11T14:38:33.002Z</time></trkpt><trkpt lat="45.11372349339187" lon="8.319122055431867"><ele>141.0</ele><time>2026-04-11T14:38:34.002Z</time></trkpt><trkpt lat="45.11368390475804" lon="8.319197124538976"><ele>141.0</ele><time>2026-04-11T14:38:35.002Z</time></trkpt><trkpt lat="45.113658756365176" lon="8.319307078717216"><ele>141.0</ele><time>2026-04-11T14:38:37.002Z</time></trkpt><trkpt lat="45.11386422917209" lon="8.319362834874589"><ele>141.0</ele><time>2026-04-11T14:38:40.002Z</time></trkpt><trkpt lat="45.11392771247328" lon="8.31943727624258"><ele>141.0</ele><time>2026-04-11T14:38:42.003Z</time></trkpt><trkpt lat="45.114011242710035" lon="8.319286866730053"><ele>141.0</ele><time>2026-04-11T14:38:49.003Z</time></trkpt><trkpt lat="45.11400371915295" lon="8.319163413886919"><ele>141.0</ele><time>2026-04-11T14:38:51.003Z</time></trkpt><trkpt lat="45.11400489379203" lon="8.319057665789115"><ele>141.0</ele><time>2026-04-11T14:38:52.003Z</time></trkpt><trkpt lat="45.114006005845646" lon="8.31895975308184"><ele>141.0</ele><time>2026-04-11T14:38:53.003Z</time></trkpt><trkpt lat="45.11400407800239" lon="8.318829095986233"><ele>141.0</ele><time>2026-04-11T14:38:54.003Z</time></trkpt><trkpt lat="45.113999390722014" lon="8.318675623591844"><ele>141.0</ele><time>2026-04-11T14:38:55.003Z</time></trkpt><trkpt lat="45.113994900027656" lon="8.31853305847199"><ele>140.75</ele><time>2026-04-11T14:38:56.003Z</time></trkpt><trkpt lat="45.1139896685674" lon="8.318386621371651"><ele>140.5</ele><time>2026-04-11T14:38:57.003Z</time></trkpt><trkpt lat="45.113982369640745" lon="8.318228642775829"><ele>140.25</ele><time>2026-04-11T14:38:58.003Z</time></trkpt><trkpt lat="45.11397753468087" lon="8.318051965900562"><ele>140.0</ele><time>2026-04-11T14:38:59.003Z</time></trkpt><trkpt lat="45.11395766510849" lon="8.317885037947413"><ele>140.0</ele><time>2026-04-11T14:39:00.003Z</time></trkpt><trkpt lat="45.11397650492566" lon="8.317732770026304"><ele>140.0</ele><time>2026-04-11T14:39:01.003Z</time></trkpt><trkpt lat="45.11397454859609" lon="8.317595252549411"><ele>140.0</ele><time>2026-04-11T14:39:02.003Z</time></trkpt><trkpt lat="45.113972164678195" lon="8.31748368607678"><ele>140.0</ele><time>2026-04-11T14:39:03.003Z</time></trkpt><trkpt lat="45.114007372054544" lon="8.317382514392534"><ele>140.0</ele><time>2026-04-11T14:39:05.003Z</time></trkpt><trkpt lat="45.114081178375145" lon="8.31736987825196"><ele>140.0</ele><time>2026-04-11T14:39:07.003Z</time></trkpt><trkpt lat="45.11415238381487" lon="8.31736973447329"><ele>140.66666666666666</ele><time>2026-04-11T14:39:09.003Z</time></trkpt><trkpt lat="45.114235596596636" lon="8.317380890024902"><ele>141.33333333333334</ele><time>2026-04-11T14:39:13Z</time></trkpt><trkpt lat="45.11410621625725" lon="8.317719004823791"><ele>142.0</ele><time>2026-04-11T14:39:14Z</time></trkpt><trkpt lat="45.11413330202106" lon="8.317848791376669"><ele>142.0</ele><time>2026-04-11T14:39:15Z</time></trkpt><trkpt lat="45.11415868673868" lon="8.317959434429321"><ele>142.0</ele><time>2026-04-11T14:39:16Z</time></trkpt><trkpt lat="45.114222031489966" lon="8.318119760422228"><ele>142.0</ele><time>2026-04-11T14:39:17Z</time></trkpt><trkpt lat="45.11426743994161" lon="8.318223239028297"><ele>142.0</ele><time>2026-04-11T14:39:18Z</time></trkpt><trkpt lat="45.11431176420625" lon="8.318324246941595"><ele>142.0</ele><time>2026-04-11T14:39:19Z</time></trkpt><trkpt lat="45.114353647324535" lon="8.318419691874709"><ele>141.5</ele><time>2026-04-11T14:39:20Z</time></trkpt><trkpt lat="45.1143946576513" lon="8.318513147853272"><ele>141.0</ele><time>2026-04-11T14:39:21Z</time></trkpt><trkpt lat="45.11461850748224" lon="8.318452113139266"><ele>140.5</ele><time>2026-04-11T14:39:22Z</time></trkpt><trkpt lat="45.11468806729013" lon="8.31853587712213"><ele>140.0</ele><time>2026-04-11T14:39:23Z</time></trkpt><trkpt lat="45.11477263928672" lon="8.318639275735116"><ele>140.0</ele><time>2026-04-11T14:39:24Z</time></trkpt><trkpt lat="45.11485660438271" lon="8.318749989146918"><ele>140.0</ele><time>2026-04-11T14:39:25Z</time></trkpt><trkpt lat="45.11493965687242" lon="8.318858885232626"><ele>140.0</ele><time>2026-04-11T14:39:26Z</time></trkpt><trkpt lat="45.11501631859739" lon="8.318968508905266"><ele>140.0</ele><time>2026-04-11T14:39:27Z</time></trkpt><trkpt lat="45.115087276589904" lon="8.319072208206345"><ele>140.0</ele><time>2026-04-11T14:39:28Z</time></trkpt><trkpt lat="45.11516279089464" lon="8.31917542779772"><ele>139.66666666666666</ele><time>2026-04-11T14:39:29Z</time></trkpt><trkpt lat="45.11523642515433" lon="8.319271757549126"><ele>139.33333333333331</ele><time>2026-04-11T14:39:30Z</time></trkpt><trkpt lat="45.11529424871657" lon="8.31935279510124"><ele>139.0</ele><time>2026-04-11T14:39:31Z</time></trkpt><trkpt lat="45.11533938008966" lon="8.319418772189549"><ele>138.66666666666666</ele><time>2026-04-11T14:39:32Z</time></trkpt><trkpt lat="45.11531191188417" lon="8.31957170062537"><ele>138.33333333333334</ele><time>2026-04-11T14:39:34Z</time></trkpt><trkpt lat="45.11530768046768" lon="8.319665532348589"><ele>138.0</ele><time>2026-04-11T14:39:37Z</time></trkpt><trkpt lat="45.115379946083685" lon="8.319744535773424"><ele>138.0</ele><time>2026-04-11T14:39:39Z</time></trkpt><trkpt lat="45.115601443881225" lon="8.319655286547526"><ele>138.0</ele><time>2026-04-11T14:39:40Z</time></trkpt><trkpt lat="45.11572602871758" lon="8.319633454266508"><ele>138.0</ele><time>2026-04-11T14:39:41Z</time></trkpt><trkpt lat="45.115889277611664" lon="8.319612540164496"><ele>138.0</ele><time>2026-04-11T14:39:42Z</time></trkpt><trkpt lat="45.11606196636072" lon="8.31959383056074"><ele>138.0</ele><time>2026-04-11T14:39:43Z</time></trkpt><trkpt lat="45.11625156098234" lon="8.319573294849022"><ele>138.0</ele><time>2026-04-11T14:39:44Z</time></trkpt><trkpt lat="45.116416164862294" lon="8.319551617028338"><ele>138.0</ele><time>2026-04-11T14:39:45Z</time></trkpt><trkpt lat="45.11655596670023" lon="8.319534614771612"><ele>138.0</ele><time>2026-04-11T14:39:46.001Z</time></trkpt><trkpt lat="45.11668546628008" lon="8.319519915913723"><ele>138.0</ele><time>2026-04-11T14:39:47.001Z</time></trkpt><trkpt lat="45.11680554503805" lon="8.319503520547656"><ele>138.0</ele><time>2026-04-11T14:39:48.001Z</time></trkpt><trkpt lat="45.11690994449021" lon="8.319490312476905"><ele>138.0</ele><time>2026-04-11T14:39:49.001Z</time></trkpt><trkpt lat="45.11699984652719" lon="8.31948195929031"><ele>138.0</ele><time>2026-04-11T14:39:50.001Z</time></trkpt><trkpt lat="45.11707569712314" lon="8.319475063673455"><ele>138.0</ele><time>2026-04-11T14:39:51.001Z</time></trkpt><trkpt lat="45.11716820531356" lon="8.319466688495973"><ele>138.0</ele><time>2026-04-11T14:39:53.001Z</time></trkpt><trkpt lat="45.11721150191621" lon="8.319544786985796"><ele>138.0</ele><time>2026-04-11T14:41:41Z</time></trkpt><trkpt lat="45.11723469363584" lon="8.319694744809247"><ele>138.0</ele><time>2026-04-11T14:41:43Z</time></trkpt><trkpt lat="45.11725757602573" lon="8.319781509293367"><ele>138.0</ele><time>2026-04-11T14:41:44Z</time></trkpt><trkpt lat="45.117281495522555" lon="8.319871504008564"><ele>138.0</ele><time>2026-04-11T14:41:45Z</time></trkpt><trkpt lat="45.11731128115877" lon="8.319986959192278"><ele>138.0</ele><time>2026-04-11T14:41:46Z</time></trkpt><trkpt lat="45.11734722763095" lon="8.320119743770908"><ele>138.0</ele><time>2026-04-11T14:41:47Z</time></trkpt><trkpt lat="45.1173796202525" lon="8.320242393773652"><ele>138.0</ele><time>2026-04-11T14:41:48Z</time></trkpt><trkpt lat="45.117413338649705" lon="8.320378941655273"><ele>138.0</ele><time>2026-04-11T14:41:49Z</time></trkpt><trkpt lat="45.117442241096676" lon="8.320496041358302"><ele>137.83333333333334</ele><time>2026-04-11T14:41:50Z</time></trkpt><trkpt lat="45.11747125189475" lon="8.320623189768538"><ele>137.66666666666666</ele><time>2026-04-11T14:41:51.001Z</time></trkpt><trkpt lat="45.11749244485218" lon="8.320733482710704"><ele>137.5</ele><time>2026-04-11T14:41:52.001Z</time></trkpt><trkpt lat="45.11751533065467" lon="8.320855160240633"><ele>137.33333333333331</ele><time>2026-04-11T14:41:53.001Z</time></trkpt><trkpt lat="45.1175327071117" lon="8.320968199872702"><ele>137.16666666666666</ele><time>2026-04-11T14:41:54.001Z</time></trkpt><trkpt lat="45.11754666300885" lon="8.321106260242175"><ele>137.0</ele><time>2026-04-11T14:41:55.001Z</time></trkpt><trkpt lat="45.117553130000424" lon="8.321240156855056"><ele>137.0</ele><time>2026-04-11T14:41:56.001Z</time></trkpt><trkpt lat="45.11755891395847" lon="8.32137631487101"><ele>137.0</ele><time>2026-04-11T14:41:57.001Z</time></trkpt><trkpt lat="45.11756868512865" lon="8.321500707440949"><ele>137.0</ele><time>2026-04-11T14:41:58.001Z</time></trkpt><trkpt lat="45.11757828685364" lon="8.321617661573192"><ele>137.0</ele><time>2026-04-11T14:41:59.001Z</time></trkpt><trkpt lat="45.11758867430771" lon="8.321743928169534"><ele>137.0</ele><time>2026-04-11T14:42:00.001Z</time></trkpt><trkpt lat="45.117596486246526" lon="8.321862074170602"><ele>137.0</ele><time>2026-04-11T14:42:01.001Z</time></trkpt><trkpt lat="45.11760420759155" lon="8.321990693613285"><ele>136.83333333333331</ele><time>2026-04-11T14:42:02.001Z</time></trkpt><trkpt lat="45.11761278379983" lon="8.322128209270904"><ele>136.66666666666666</ele><time>2026-04-11T14:42:03.001Z</time></trkpt><trkpt lat="45.11762290291089" lon="8.322270347048462"><ele>136.5</ele><time>2026-04-11T14:42:04.001Z</time></trkpt><trkpt lat="45.11763427174538" lon="8.32236248373193"><ele>136.33333333333334</ele><time>2026-04-11T14:42:05.001Z</time></trkpt><trkpt lat="45.117654662088064" lon="8.322464054599315"><ele>136.16666666666669</ele><time>2026-04-11T14:42:06.001Z</time></trkpt><trkpt lat="45.11768748581214" lon="8.32254220756062"><ele>136.0</ele><time>2026-04-11T14:42:07.001Z</time></trkpt><trkpt lat="45.117769191342276" lon="8.322564985877943"><ele>136.0</ele><time>2026-04-11T14:42:08.001Z</time></trkpt><trkpt lat="45.117828530937444" lon="8.32274258250092"><ele>136.0</ele><time>2026-04-11T14:42:10.001Z</time></trkpt><trkpt lat="45.117885641419356" lon="8.322816637582418"><ele>136.0</ele><time>2026-04-11T14:42:11.001Z</time></trkpt><trkpt lat="45.11795409107693" lon="8.3228826419283"><ele>136.0</ele><time>2026-04-11T14:42:12.001Z</time></trkpt><trkpt lat="45.11800219707939" lon="8.322987771670485"><ele>136.0</ele><time>2026-04-11T14:42:13.001Z</time></trkpt><trkpt lat="45.11805774122668" lon="8.323078703346763"><ele>136.0</ele><time>2026-04-11T14:42:14.001Z</time></trkpt><trkpt lat="45.11810879253981" lon="8.323178242145953"><ele>136.0</ele><time>2026-04-11T14:42:15.001Z</time></trkpt><trkpt lat="45.11816418998037" lon="8.323283928256872"><ele>136.0</ele><time>2026-04-11T14:42:16.001Z</time></trkpt><trkpt lat="45.118216033849095" lon="8.323381558843797"><ele>136.0</ele><time>2026-04-11T14:42:17.001Z</time></trkpt><trkpt lat="45.11827624768881" lon="8.323463407221286"><ele>136.0</ele><time>2026-04-11T14:42:18.001Z</time></trkpt><trkpt lat="45.11831965141234" lon="8.323545196888984"><ele>136.0</ele><time>2026-04-11T14:42:19.002Z</time></trkpt><trkpt lat="45.118365823216095" lon="8.323665466818094"><ele>136.4</ele><time>2026-04-11T14:42:20.002Z</time></trkpt><trkpt lat="45.11841651306485" lon="8.323777042613326"><ele>136.8</ele><time>2026-04-11T14:42:21.002Z</time></trkpt><trkpt lat="45.11846600984698" lon="8.323896678324438"><ele>137.20000000000002</ele><time>2026-04-11T14:42:22.002Z</time></trkpt><trkpt lat="45.11852497253847" lon="8.32401343897865"><ele>137.6</ele><time>2026-04-11T14:42:23.002Z</time></trkpt><trkpt lat="45.11856015962824" lon="8.324154794986384"><ele>138.0</ele><time>2026-04-11T14:42:24.002Z</time></trkpt><trkpt lat="45.11860051275947" lon="8.324270799139715"><ele>138.0</ele><time>2026-04-11T14:42:25.002Z</time></trkpt><trkpt lat="45.118634612374215" lon="8.32437272144046"><ele>138.0</ele><time>2026-04-11T14:42:26.002Z</time></trkpt><trkpt lat="45.11866893755825" lon="8.324481478123412"><ele>138.0</ele><time>2026-04-11T14:42:27.002Z</time></trkpt><trkpt lat="45.11870336270001" lon="8.32459716174303"><ele>138.0</ele><time>2026-04-11T14:42:28.002Z</time></trkpt><trkpt lat="45.118755050604385" lon="8.324721369781527"><ele>138.0</ele><time>2026-04-11T14:42:29.002Z</time></trkpt><trkpt lat="45.11879400841995" lon="8.324873313083177"><ele>138.0</ele><time>2026-04-11T14:42:30.002Z</time></trkpt><trkpt lat="45.118832416577604" lon="8.325028182816501"><ele>138.0</ele><time>2026-04-11T14:42:31.002Z</time></trkpt><trkpt lat="45.11887516352146" lon="8.325186866174562"><ele>138.0</ele><time>2026-04-11T14:42:32.002Z</time></trkpt><trkpt lat="45.118898270362024" lon="8.325327993921906"><ele>138.0</ele><time>2026-04-11T14:42:33.002Z</time></trkpt><trkpt lat="45.11892983690327" lon="8.325449482817092"><ele>138.0</ele><time>2026-04-11T14:42:34.002Z</time></trkpt><trkpt lat="45.11896415620289" lon="8.325581566126539"><ele>137.8</ele><time>2026-04-11T14:42:35.002Z</time></trkpt><trkpt lat="45.11900155153641" lon="8.32572603526254"><ele>137.60000000000002</ele><time>2026-04-11T14:42:36.002Z</time></trkpt><trkpt lat="45.119050579561566" lon="8.32586865789974"><ele>137.39999999999998</ele><time>2026-04-11T14:42:37.002Z</time></trkpt><trkpt lat="45.119086271512835" lon="8.326005277885404"><ele>137.2</ele><time>2026-04-11T14:42:38.002Z</time></trkpt><trkpt lat="45.11908997876177" lon="8.32613268051107"><ele>137.0</ele><time>2026-04-11T14:42:39.002Z</time></trkpt><trkpt lat="45.119097311972574" lon="8.326225672307023"><ele>137.4</ele><time>2026-04-11T14:42:40.002Z</time></trkpt><trkpt lat="45.11910474278359" lon="8.326321724472573"><ele>137.79999999999998</ele><time>2026-04-11T14:42:42.002Z</time></trkpt><trkpt lat="45.11911680218167" lon="8.326475604468774"><ele>138.2</ele><time>2026-04-11T14:43:16.003Z</time></trkpt><trkpt lat="45.11921133366704" lon="8.326550194290176"><ele>138.6</ele><time>2026-04-11T14:43:17.003Z</time></trkpt><trkpt lat="45.119279034458366" lon="8.326632162983673"><ele>139.0</ele><time>2026-04-11T14:43:18.003Z</time></trkpt><trkpt lat="45.119362826876056" lon="8.326711607218325"><ele>139.0</ele><time>2026-04-11T14:43:19.003Z</time></trkpt><trkpt lat="45.119465660992134" lon="8.326802992490094"><ele>139.0</ele><time>2026-04-11T14:43:20.003Z</time></trkpt><trkpt lat="45.11957189856812" lon="8.326901646802705"><ele>139.0</ele><time>2026-04-11T14:43:21.003Z</time></trkpt><trkpt lat="45.11968187650314" lon="8.327004211554005"><ele>139.0</ele><time>2026-04-11T14:43:22Z</time></trkpt><trkpt lat="45.119805429096985" lon="8.327120189899317"><ele>140.0</ele><time>2026-04-11T14:43:23Z</time></trkpt><trkpt lat="45.119936743742365" lon="8.327241022498518"><ele>141.0</ele><time>2026-04-11T14:43:24Z</time></trkpt><trkpt lat="45.120071018341534" lon="8.327366132779705"><ele>142.0</ele><time>2026-04-11T14:43:25Z</time></trkpt><trkpt lat="45.120199117593266" lon="8.32748824923664"><ele>142.0</ele><time>2026-04-11T14:43:26Z</time></trkpt><trkpt lat="45.12033453440603" lon="8.32761397046658"><ele>142.0</ele><time>2026-04-11T14:43:27Z</time></trkpt><trkpt lat="45.12047470017288" lon="8.327743349019691"><ele>142.0</ele><time>2026-04-11T14:43:28Z</time></trkpt><trkpt lat="45.12061130847833" lon="8.327872789529271"><ele>142.0</ele><time>2026-04-11T14:43:29Z</time></trkpt><trkpt lat="45.120751884898965" lon="8.328004518347312"><ele>142.0</ele><time>2026-04-11T14:43:30Z</time></trkpt><trkpt lat="45.120895807613984" lon="8.328138884330917"><ele>142.0</ele><time>2026-04-11T14:43:31Z</time></trkpt><trkpt lat="45.12103916531632" lon="8.328271382027685"><ele>142.0</ele><time>2026-04-11T14:43:32Z</time></trkpt><trkpt lat="45.12118043574055" lon="8.328406644212995"><ele>142.0</ele><time>2026-04-11T14:43:33Z</time></trkpt><trkpt lat="45.121322138884516" lon="8.328543055402527"><ele>142.0</ele><time>2026-04-11T14:43:34Z</time></trkpt><trkpt lat="45.121464977325054" lon="8.328682221875178"><ele>141.33333333333334</ele><time>2026-04-11T14:43:35Z</time></trkpt><trkpt lat="45.12161048593237" lon="8.328819974342702"><ele>140.66666666666666</ele><time>2026-04-11T14:43:36Z</time></trkpt><trkpt lat="45.12175490413166" lon="8.328952302254098"><ele>140.0</ele><time>2026-04-11T14:43:37Z</time></trkpt><trkpt lat="45.12189864793516" lon="8.329085818546108"><ele>140.0</ele><time>2026-04-11T14:43:38Z</time></trkpt><trkpt lat="45.122047867422076" lon="8.329223032599318"><ele>140.0</ele><time>2026-04-11T14:43:39Z</time></trkpt><trkpt lat="45.1221968157519" lon="8.32936176048446"><ele>140.0</ele><time>2026-04-11T14:43:40Z</time></trkpt><trkpt lat="45.12234691855382" lon="8.32950546361271"><ele>140.0</ele><time>2026-04-11T14:43:41Z</time></trkpt><trkpt lat="45.122497367875056" lon="8.329650656666143"><ele>140.0</ele><time>2026-04-11T14:43:42Z</time></trkpt><trkpt lat="45.1226567562254" lon="8.329799464412876"><ele>140.0</ele><time>2026-04-11T14:43:43Z</time></trkpt><trkpt lat="45.12282182191567" lon="8.329948777184947"><ele>140.0</ele><time>2026-04-11T14:43:44Z</time></trkpt><trkpt lat="45.122981969328116" lon="8.330094020133807"><ele>140.0</ele><time>2026-04-11T14:43:45Z</time></trkpt><trkpt lat="45.1231451062192" lon="8.330244357889628"><ele>140.0</ele><time>2026-04-11T14:43:46Z</time></trkpt><trkpt lat="45.12330706640728" lon="8.330390513032542"><ele>140.0</ele><time>2026-04-11T14:43:47Z</time></trkpt><trkpt lat="45.12346702109619" lon="8.330544023411003"><ele>140.0</ele><time>2026-04-11T14:43:48Z</time></trkpt><trkpt lat="45.123627840069474" lon="8.33070048819759"><ele>140.0</ele><time>2026-04-11T14:43:49Z</time></trkpt><trkpt lat="45.12378572447414" lon="8.330845595375866"><ele>139.66666666666666</ele><time>2026-04-11T14:43:50Z</time></trkpt><trkpt lat="45.12394610045492" lon="8.3309958397791"><ele>139.33333333333334</ele><time>2026-04-11T14:43:51Z</time></trkpt><trkpt lat="45.12410604015411" lon="8.331145600275681"><ele>139.0</ele><time>2026-04-11T14:43:52Z</time></trkpt><trkpt lat="45.12427276253598" lon="8.33129950006105"><ele>138.66666666666669</ele><time>2026-04-11T14:43:53.001Z</time></trkpt><trkpt lat="45.124443123242" lon="8.33146216661389"><ele>138.33333333333334</ele><time>2026-04-11T14:43:54.001Z</time></trkpt><trkpt lat="45.12460986716455" lon="8.331617436635936"><ele>138.0</ele><time>2026-04-11T14:43:55.001Z</time></trkpt><trkpt lat="45.12478028000539" lon="8.331778566674423"><ele>138.0</ele><time>2026-04-11T14:43:56.001Z</time></trkpt><trkpt lat="45.12495537589843" lon="8.331940401699782"><ele>138.0</ele><time>2026-04-11T14:43:57.001Z</time></trkpt><trkpt lat="45.1251271842939" lon="8.332103979943785"><ele>138.0</ele><time>2026-04-11T14:43:58.001Z</time></trkpt><trkpt lat="45.12530304157206" lon="8.332267386198032"><ele>138.0</ele><time>2026-04-11T14:43:59.001Z</time></trkpt><trkpt lat="45.12547696690615" lon="8.332429502619553"><ele>138.0</ele><time>2026-04-11T14:44:00.001Z</time></trkpt><trkpt lat="45.12565825985167" lon="8.332597125515711"><ele>138.0</ele><time>2026-04-11T14:44:01.001Z</time></trkpt><trkpt lat="45.125839909589146" lon="8.332768137041436"><ele>137.66666666666666</ele><time>2026-04-11T14:44:02.001Z</time></trkpt><trkpt lat="45.126018104380364" lon="8.332935404060843"><ele>137.33333333333331</ele><time>2026-04-11T14:44:03.001Z</time></trkpt><trkpt lat="45.12619547484014" lon="8.333103506142825"><ele>137.0</ele><time>2026-04-11T14:44:04.001Z</time></trkpt><trkpt lat="45.126384306198574" lon="8.333278185277335"><ele>137.33333333333331</ele><time>2026-04-11T14:44:05.001Z</time></trkpt><trkpt lat="45.1265720647522" lon="8.333448779311757"><ele>137.66666666666666</ele><time>2026-04-11T14:44:06.001Z</time></trkpt><trkpt lat="45.12675144034481" lon="8.333621041213826"><ele>138.0</ele><time>2026-04-11T14:44:07.001Z</time></trkpt><trkpt lat="45.12692894379966" lon="8.333794023243973"><ele>137.66666666666666</ele><time>2026-04-11T14:44:08.001Z</time></trkpt><trkpt lat="45.12711252323744" lon="8.333961441851121"><ele>137.33333333333331</ele><time>2026-04-11T14:44:09.001Z</time></trkpt><trkpt lat="45.12730273720649" lon="8.334135468221323"><ele>137.0</ele><time>2026-04-11T14:44:10.001Z</time></trkpt><trkpt lat="45.12748991693971" lon="8.334310378526917"><ele>137.0</ele><time>2026-04-11T14:44:11.001Z</time></trkpt><trkpt lat="45.12767348994941" lon="8.334479043450221"><ele>137.0</ele><time>2026-04-11T14:44:12.001Z</time></trkpt><trkpt lat="45.12786200877541" lon="8.334650462527758"><ele>137.0</ele><time>2026-04-11T14:44:13.001Z</time></trkpt><trkpt lat="45.12806145212684" lon="8.334822283870743"><ele>136.33333333333331</ele><time>2026-04-11T14:44:14.001Z</time></trkpt><trkpt lat="45.12823779511649" lon="8.335003586251469"><ele>135.66666666666666</ele><time>2026-04-11T14:44:15.001Z</time></trkpt><trkpt lat="45.12841752069214" lon="8.335170684317099"><ele>135.0</ele><time>2026-04-11T14:44:16.001Z</time></trkpt><trkpt lat="45.128599656413215" lon="8.33534158345188"><ele>135.0</ele><time>2026-04-11T14:44:17.001Z</time></trkpt><trkpt lat="45.12878172412177" lon="8.335513010039937"><ele>135.0</ele><time>2026-04-11T14:44:18.001Z</time></trkpt><trkpt lat="45.12896590859157" lon="8.335684634053314"><ele>135.0</ele><time>2026-04-11T14:44:19.001Z</time></trkpt><trkpt lat="45.12914583262116" lon="8.33585387376589"><ele>133.66666666666666</ele><time>2026-04-11T14:44:20.001Z</time></trkpt><trkpt lat="45.129321621974135" lon="8.336021891744899"><ele>132.33333333333331</ele><time>2026-04-11T14:44:21.001Z</time></trkpt><trkpt lat="45.12949985409531" lon="8.33619072109014"><ele>131.0</ele><time>2026-04-11T14:44:22.001Z</time></trkpt><trkpt lat="45.12968036677431" lon="8.336359942258094"><ele>130.66666666666666</ele><time>2026-04-11T14:44:23.001Z</time></trkpt><trkpt lat="45.129864643168894" lon="8.336532900829754"><ele>130.33333333333334</ele><time>2026-04-11T14:44:24.001Z</time></trkpt><trkpt lat="45.13004780109298" lon="8.336701837298598"><ele>130.0</ele><time>2026-04-11T14:44:25.001Z</time></trkpt><trkpt lat="45.13022924176526" lon="8.336874102050539"><ele>130.0</ele><time>2026-04-11T14:44:26.001Z</time></trkpt><trkpt lat="45.13040615354443" lon="8.337039846534925"><ele>130.0</ele><time>2026-04-11T14:44:27.001Z</time></trkpt><trkpt lat="45.13058553847699" lon="8.33720786553415"><ele>130.0</ele><time>2026-04-11T14:44:28.001Z</time></trkpt><trkpt lat="45.13076988025548" lon="8.337378467640166"><ele>130.0</ele><time>2026-04-11T14:44:29.001Z</time></trkpt><trkpt lat="45.13095099673201" lon="8.337557317459035"><ele>130.0</ele><time>2026-04-11T14:44:30.001Z</time></trkpt><trkpt lat="45.131127415145414" lon="8.337740795697695"><ele>130.0</ele><time>2026-04-11T14:44:31.001Z</time></trkpt><trkpt lat="45.13130438739653" lon="8.337935974954991"><ele>130.0</ele><time>2026-04-11T14:44:32.002Z</time></trkpt><trkpt lat="45.13147606660078" lon="8.338139583209147"><ele>130.0</ele><time>2026-04-11T14:44:33.002Z</time></trkpt><trkpt lat="45.13164389730274" lon="8.338347626068108"><ele>130.0</ele><time>2026-04-11T14:44:34.002Z</time></trkpt><trkpt lat="45.131817797523205" lon="8.338561117218184"><ele>130.0</ele><time>2026-04-11T14:44:35.002Z</time></trkpt><trkpt lat="45.131989810053646" lon="8.338773368942354"><ele>130.0</ele><time>2026-04-11T14:44:36.002Z</time></trkpt><trkpt lat="45.13216364489719" lon="8.338988124861013"><ele>131.0</ele><time>2026-04-11T14:44:37.002Z</time></trkpt><trkpt lat="45.132334839983685" lon="8.339199731607648"><ele>132.0</ele><time>2026-04-11T14:44:38.002Z</time></trkpt><trkpt lat="45.13251272027485" lon="8.339420013622421"><ele>132.0</ele><time>2026-04-11T14:44:39.002Z</time></trkpt><trkpt lat="45.132687759659056" lon="8.339636525084975"><ele>132.0</ele><time>2026-04-11T14:44:40.002Z</time></trkpt><trkpt lat="45.13286142744333" lon="8.33984799321381"><ele>131.5</ele><time>2026-04-11T14:44:41.002Z</time></trkpt><trkpt lat="45.13303329293769" lon="8.340055707481985"><ele>131.0</ele><time>2026-04-11T14:44:42.002Z</time></trkpt><trkpt lat="45.133201173122444" lon="8.340268174550447"><ele>131.0</ele><time>2026-04-11T14:44:43.002Z</time></trkpt><trkpt lat="45.13337391471629" lon="8.340488897060615"><ele>131.0</ele><time>2026-04-11T14:44:44.002Z</time></trkpt><trkpt lat="45.13354430873745" lon="8.340702820469403"><ele>130.0</ele><time>2026-04-11T14:44:45.002Z</time></trkpt><trkpt lat="45.13371582860281" lon="8.34091236550072"><ele>129.0</ele><time>2026-04-11T14:44:46.002Z</time></trkpt><trkpt lat="45.13389069423552" lon="8.341127169286368"><ele>128.0</ele><time>2026-04-11T14:44:47.002Z</time></trkpt><trkpt lat="45.13406580014475" lon="8.34134572626091"><ele>127.0</ele><time>2026-04-11T14:44:48.002Z</time></trkpt><trkpt lat="45.13423801258139" lon="8.34156215939369"><ele>127.0</ele><time>2026-04-11T14:44:49.002Z</time></trkpt><trkpt lat="45.13441017733475" lon="8.341776772572757"><ele>127.0</ele><time>2026-04-11T14:44:50.002Z</time></trkpt><trkpt lat="45.13458286368098" lon="8.341989476360848"><ele>127.0</ele><time>2026-04-11T14:44:51.002Z</time></trkpt><trkpt lat="45.134759050689375" lon="8.34219978357865"><ele>127.0</ele><time>2026-04-11T14:44:52.002Z</time></trkpt><trkpt lat="45.13493742368817" lon="8.342408468161226"><ele>127.0</ele><time>2026-04-11T14:44:53.002Z</time></trkpt><trkpt lat="45.135117382216485" lon="8.34260227644694"><ele>127.0</ele><time>2026-04-11T14:44:54.002Z</time></trkpt><trkpt lat="45.135303473813735" lon="8.342793463979989"><ele>127.0</ele><time>2026-04-11T14:44:55.002Z</time></trkpt><trkpt lat="45.13548819533662" lon="8.342972498417305"><ele>127.0</ele><time>2026-04-11T14:44:56.002Z</time></trkpt><trkpt lat="45.13568515912181" lon="8.343141167751124"><ele>127.0</ele><time>2026-04-11T14:44:57.002Z</time></trkpt><trkpt lat="45.13588754601645" lon="8.343297839011415"><ele>127.0</ele><time>2026-04-11T14:44:58.002Z</time></trkpt><trkpt lat="45.136092331468724" lon="8.343446569032054"><ele>127.0</ele><time>2026-04-11T14:44:59.002Z</time></trkpt><trkpt lat="45.13629871305266" lon="8.343584147036102"><ele>127.0</ele><time>2026-04-11T14:45:00.002Z</time></trkpt><trkpt lat="45.13648916655946" lon="8.343706435051008"><ele>127.0</ele><time>2026-04-11T14:45:01.002Z</time></trkpt><trkpt lat="45.13667258767412" lon="8.343810454979934"><ele>126.66666666666667</ele><time>2026-04-11T14:45:02.002Z</time></trkpt><trkpt lat="45.13686805335763" lon="8.343910920110547"><ele>126.33333333333334</ele><time>2026-04-11T14:45:03.002Z</time></trkpt><trkpt lat="45.137069518430515" lon="8.34400090646449"><ele>126.0</ele><time>2026-04-11T14:45:04.002Z</time></trkpt><trkpt lat="45.1372857970159" lon="8.344093993354404"><ele>125.66666666666666</ele><time>2026-04-11T14:45:05.002Z</time></trkpt><trkpt lat="45.13749711265379" lon="8.344174952319978"><ele>125.33333333333333</ele><time>2026-04-11T14:45:06.002Z</time></trkpt><trkpt lat="45.13771273965343" lon="8.34424480501824"><ele>125.0</ele><time>2026-04-11T14:45:07.002Z</time></trkpt><trkpt lat="45.13793057868651" lon="8.344304524123903"><ele>125.0</ele><time>2026-04-11T14:45:08.003Z</time></trkpt><trkpt lat="45.138145982060095" lon="8.344353950307415"><ele>125.0</ele><time>2026-04-11T14:45:09.003Z</time></trkpt><trkpt lat="45.138365193330316" lon="8.344395894773022"><ele>125.0</ele><time>2026-04-11T14:45:10.003Z</time></trkpt><trkpt lat="45.1385844706785" lon="8.344424114270979"><ele>125.0</ele><time>2026-04-11T14:45:11.003Z</time></trkpt><trkpt lat="45.138795538474405" lon="8.34444698493508"><ele>125.0</ele><time>2026-04-11T14:45:12.003Z</time></trkpt><trkpt lat="45.1390082962633" lon="8.344454352702366"><ele>125.0</ele><time>2026-04-11T14:45:13.003Z</time></trkpt><trkpt lat="45.13921589958558" lon="8.34444825008252"><ele>125.66666666666666</ele><time>2026-04-11T14:45:14.003Z</time></trkpt><trkpt lat="45.1394153448755" lon="8.344436637913914"><ele>126.33333333333334</ele><time>2026-04-11T14:45:15.003Z</time></trkpt><trkpt lat="45.139600342548945" lon="8.344421194435014"><ele>127.0</ele><time>2026-04-11T14:45:16.003Z</time></trkpt><trkpt lat="45.139781372178874" lon="8.344400968190445"><ele>127.33333333333334</ele><time>2026-04-11T14:45:17.003Z</time></trkpt><trkpt lat="45.139959841617085" lon="8.344371330373303"><ele>127.66666666666666</ele><time>2026-04-11T14:45:18.003Z</time></trkpt><trkpt lat="45.14013810004945" lon="8.344335347227114"><ele>128.0</ele><time>2026-04-11T14:45:19.003Z</time></trkpt><trkpt lat="45.1403141662578" lon="8.344294786342672"><ele>128.0</ele><time>2026-04-11T14:45:20.003Z</time></trkpt><trkpt lat="45.140480376515974" lon="8.344256189072055"><ele>128.0</ele><time>2026-04-11T14:45:21.003Z</time></trkpt><trkpt lat="45.14062893485901" lon="8.344220022198824"><ele>128.0</ele><time>2026-04-11T14:45:22.003Z</time></trkpt><trkpt lat="45.14077643674743" lon="8.344183746313458"><ele>128.25</ele><time>2026-04-11T14:45:23.003Z</time></trkpt><trkpt lat="45.14091634211706" lon="8.344149712717275"><ele>128.5</ele><time>2026-04-11T14:45:24.003Z</time></trkpt><trkpt lat="45.14105111730987" lon="8.344126992772276"><ele>128.75</ele><time>2026-04-11T14:45:25.003Z</time></trkpt><trkpt lat="45.14116982757403" lon="8.34412616220208"><ele>129.0</ele><time>2026-04-11T14:45:26.003Z</time></trkpt><trkpt lat="45.14127890037383" lon="8.344143722873655"><ele>129.0</ele><time>2026-04-11T14:45:27.003Z</time></trkpt><trkpt lat="45.14137892502114" lon="8.344188864459873"><ele>129.0</ele><time>2026-04-11T14:45:27.999Z</time></trkpt><trkpt lat="45.14147974010185" lon="8.344269457140014"><ele>129.0</ele><time>2026-04-11T14:45:28.999Z</time></trkpt><trkpt lat="45.14156775682769" lon="8.3443789080319"><ele>129.0</ele><time>2026-04-11T14:45:29.999Z</time></trkpt><trkpt lat="45.14162867547312" lon="8.344510960123088"><ele>129.0</ele><time>2026-04-11T14:45:30.999Z</time></trkpt><trkpt lat="45.141668487105285" lon="8.344655621803437"><ele>128.5</ele><time>2026-04-11T14:45:31.999Z</time></trkpt><trkpt lat="45.14167883743008" lon="8.344814475443087"><ele>128.0</ele><time>2026-04-11T14:45:32.999Z</time></trkpt><trkpt lat="45.14166869535522" lon="8.344971744270332"><ele>127.5</ele><time>2026-04-11T14:45:33.999Z</time></trkpt><trkpt lat="45.14163438925698" lon="8.345127930675224"><ele>127.0</ele><time>2026-04-11T14:45:34.999Z</time></trkpt><trkpt lat="45.141578670191564" lon="8.345270262599033"><ele>127.25</ele><time>2026-04-11T14:45:35.999Z</time></trkpt><trkpt lat="45.141491700060485" lon="8.345375868996118"><ele>127.5</ele><time>2026-04-11T14:45:36.999Z</time></trkpt><trkpt lat="45.1413936791321" lon="8.345463447225825"><ele>127.75</ele><time>2026-04-11T14:45:37.999Z</time></trkpt><trkpt lat="45.141280800396125" lon="8.34551783590303"><ele>128.0</ele><time>2026-04-11T14:45:38.999Z</time></trkpt><trkpt lat="45.14115646916596" lon="8.345536429780461"><ele>128.0</ele><time>2026-04-11T14:45:39.999Z</time></trkpt><trkpt lat="45.14102554448083" lon="8.345522954027523"><ele>128.0</ele><time>2026-04-11T14:45:40.999Z</time></trkpt><trkpt lat="45.14089124813631" lon="8.34547872755434"><ele>128.0</ele><time>2026-04-11T14:45:41.999Z</time></trkpt><trkpt lat="45.14075581103601" lon="8.345407303789772"><ele>128.0</ele><time>2026-04-11T14:45:42.999Z</time></trkpt><trkpt lat="45.14062234346596" lon="8.345328310445455"><ele>127.75</ele><time>2026-04-11T14:45:43.999Z</time></trkpt><trkpt lat="45.14049389337711" lon="8.345253933407797"><ele>127.5</ele><time>2026-04-11T14:45:44.999Z</time></trkpt><trkpt lat="45.140368602381635" lon="8.345191118420246"><ele>127.25</ele><time>2026-04-11T14:45:45.999Z</time></trkpt><trkpt lat="45.14026103025006" lon="8.345120347334166"><ele>127.0</ele><time>2026-04-11T14:45:46.999Z</time></trkpt><trkpt lat="45.14016780966534" lon="8.345052999460682"><ele>127.0</ele><time>2026-04-11T14:45:48Z</time></trkpt><trkpt lat="45.14010764879553" lon="8.344978470183678"><ele>126.99999999999999</ele><time>2026-04-11T14:45:49Z</time></trkpt><trkpt lat="45.140077029087806" lon="8.344894347726836"><ele>126.99999999999999</ele><time>2026-04-11T14:45:50Z</time></trkpt><trkpt lat="45.14009293334005" lon="8.34471048053694"><ele>127.0</ele><time>2026-04-11T14:45:52Z</time></trkpt><trkpt lat="45.14012540426676" lon="8.344602575050175"><ele>127.0</ele><time>2026-04-11T14:45:53Z</time></trkpt><trkpt lat="45.14015974281303" lon="8.344463202885029"><ele>127.25</ele><time>2026-04-11T14:45:54Z</time></trkpt><trkpt lat="45.14019602209529" lon="8.34430567911043"><ele>127.5</ele><time>2026-04-11T14:45:55Z</time></trkpt><trkpt lat="45.14023513601606" lon="8.344120910492805"><ele>127.75</ele><time>2026-04-11T14:45:56Z</time></trkpt><trkpt lat="45.14026533554008" lon="8.343928029867474"><ele>128.0</ele><time>2026-04-11T14:45:57Z</time></trkpt><trkpt lat="45.140317913475705" lon="8.343779046914396"><ele>128.25</ele><time>2026-04-11T14:45:58Z</time></trkpt><trkpt lat="45.140368099546244" lon="8.343601983550382"><ele>128.5</ele><time>2026-04-11T14:45:59Z</time></trkpt><trkpt lat="45.14042028986693" lon="8.343425307784303"><ele>128.75</ele><time>2026-04-11T14:46:00Z</time></trkpt><trkpt lat="45.14047387476067" lon="8.343241438606817"><ele>129.0</ele><time>2026-04-11T14:46:01Z</time></trkpt><trkpt lat="45.14052372572791" lon="8.343055814011198"><ele>129.0</ele><time>2026-04-11T14:46:02Z</time></trkpt><trkpt lat="45.14057497402292" lon="8.342866377469033"><ele>129.0</ele><time>2026-04-11T14:46:03Z</time></trkpt><trkpt lat="45.14062385860039" lon="8.34268200641992"><ele>129.0</ele><time>2026-04-11T14:46:04Z</time></trkpt><trkpt lat="45.14067615126178" lon="8.342470289683419"><ele>129.0</ele><time>2026-04-11T14:46:05Z</time></trkpt><trkpt lat="45.14073001024752" lon="8.342251285790013"><ele>128.66666666666666</ele><time>2026-04-11T14:46:06Z</time></trkpt><trkpt lat="45.14078613804703" lon="8.342044680849936"><ele>128.33333333333331</ele><time>2026-04-11T14:46:07Z</time></trkpt><trkpt lat="45.14084071314087" lon="8.341842946189095"><ele>128.0</ele><time>2026-04-11T14:46:08Z</time></trkpt><trkpt lat="45.14089286908252" lon="8.341636221084824"><ele>128.0</ele><time>2026-04-11T14:46:09.001Z</time></trkpt><trkpt lat="45.140949259389316" lon="8.341424781845234"><ele>128.0</ele><time>2026-04-11T14:46:10.001Z</time></trkpt><trkpt lat="45.14100905684006" lon="8.341201750078152"><ele>128.0</ele><time>2026-04-11T14:46:11.001Z</time></trkpt><trkpt lat="45.14106860168658" lon="8.3409871524386"><ele>128.0</ele><time>2026-04-11T14:46:12.001Z</time></trkpt><trkpt lat="45.14112984492064" lon="8.340759892932905"><ele>128.0</ele><time>2026-04-11T14:46:13.001Z</time></trkpt><trkpt lat="45.1411907594275" lon="8.340529523429163"><ele>128.0</ele><time>2026-04-11T14:46:14.001Z</time></trkpt><trkpt lat="45.14125279668736" lon="8.340294517012918"><ele>128.0</ele><time>2026-04-11T14:46:15.001Z</time></trkpt><trkpt lat="45.14131366035043" lon="8.34006054770788"><ele>128.0</ele><time>2026-04-11T14:46:16.001Z</time></trkpt><trkpt lat="45.141376522844126" lon="8.339830303645812"><ele>128.0</ele><time>2026-04-11T14:46:17.001Z</time></trkpt><trkpt lat="45.141438753982484" lon="8.339605949756809"><ele>128.33333333333331</ele><time>2026-04-11T14:46:18.001Z</time></trkpt><trkpt lat="45.14150508882205" lon="8.339368094490752"><ele>128.66666666666666</ele><time>2026-04-11T14:46:19.001Z</time></trkpt><trkpt lat="45.141562146157405" lon="8.339160895661836"><ele>129.0</ele><time>2026-04-11T14:46:20.001Z</time></trkpt><trkpt lat="45.14161436578421" lon="8.338961053879304"><ele>129.66666666666666</ele><time>2026-04-11T14:46:21.001Z</time></trkpt><trkpt lat="45.14166779861435" lon="8.338762321424358"><ele>130.33333333333331</ele><time>2026-04-11T14:46:22.001Z</time></trkpt><trkpt lat="45.14172059659935" lon="8.338564635668023"><ele>131.0</ele><time>2026-04-11T14:46:23.001Z</time></trkpt><trkpt lat="45.14177370120521" lon="8.338364739933757"><ele>131.0</ele><time>2026-04-11T14:46:24.001Z</time></trkpt><trkpt lat="45.14182490658032" lon="8.33817418681445"><ele>131.0</ele><time>2026-04-11T14:46:25.001Z</time></trkpt><trkpt lat="45.14187355545463" lon="8.337981940262518"><ele>131.0</ele><time>2026-04-11T14:46:26.001Z</time></trkpt><trkpt lat="45.14192357712115" lon="8.337796752606986"><ele>131.0</ele><time>2026-04-11T14:46:27.001Z</time></trkpt><trkpt lat="45.141973660760605" lon="8.337604420981476"><ele>131.25</ele><time>2026-04-11T14:46:28.001Z</time></trkpt><trkpt lat="45.14202096067193" lon="8.337416837376912"><ele>131.5</ele><time>2026-04-11T14:46:29.001Z</time></trkpt><trkpt lat="45.142070058792356" lon="8.337234787955207"><ele>131.75</ele><time>2026-04-11T14:46:30.001Z</time></trkpt><trkpt lat="45.14211853246237" lon="8.33706071545094"><ele>132.0</ele><time>2026-04-11T14:46:31.001Z</time></trkpt><trkpt lat="45.14216140043445" lon="8.336895445682337"><ele>132.75</ele><time>2026-04-11T14:46:32.001Z</time></trkpt><trkpt lat="45.142209383585886" lon="8.336724763430013"><ele>133.5</ele><time>2026-04-11T14:46:33.001Z</time></trkpt><trkpt lat="45.14226400319242" lon="8.336548114514825"><ele>134.25</ele><time>2026-04-11T14:46:34.001Z</time></trkpt><trkpt lat="45.14231441938964" lon="8.336376824932877"><ele>135.0</ele><time>2026-04-11T14:46:35.001Z</time></trkpt><trkpt lat="45.14235844586704" lon="8.336209972088374"><ele>135.2</ele><time>2026-04-11T14:46:36.001Z</time></trkpt><trkpt lat="45.14239372720118" lon="8.336064582011963"><ele>135.4</ele><time>2026-04-11T14:46:37.001Z</time></trkpt><trkpt lat="45.142415054554945" lon="8.335935238567773"><ele>135.6</ele><time>2026-04-11T14:46:38.002Z</time></trkpt><trkpt lat="45.1424284624985" lon="8.335794513684865"><ele>135.8</ele><time>2026-04-11T14:46:39.002Z</time></trkpt><trkpt lat="45.142424545192064" lon="8.335653729432055"><ele>136.0</ele><time>2026-04-11T14:46:40.002Z</time></trkpt><trkpt lat="45.14240383660683" lon="8.335511556097154"><ele>136.33333333333334</ele><time>2026-04-11T14:46:41.002Z</time></trkpt><trkpt lat="45.142372326356025" lon="8.335371894567798"><ele>136.66666666666669</ele><time>2026-04-11T14:46:42.002Z</time></trkpt><trkpt lat="45.1423328591894" lon="8.33525469885219"><ele>137.0</ele><time>2026-04-11T14:46:43.002Z</time></trkpt><trkpt lat="45.1423122692048" lon="8.335126425463143"><ele>137.33333333333334</ele><time>2026-04-11T14:46:44.002Z</time></trkpt><trkpt lat="45.14228738905389" lon="8.335023889710303"><ele>137.66666666666666</ele><time>2026-04-11T14:46:45.002Z</time></trkpt><trkpt lat="45.14225767402349" lon="8.334939382448791"><ele>138.0</ele><time>2026-04-11T14:46:46.002Z</time></trkpt><trkpt lat="45.14223678901132" lon="8.33484825373784"><ele>138.0</ele><time>2026-04-11T14:46:47.002Z</time></trkpt><trkpt lat="45.14222002421589" lon="8.334759160143804"><ele>138.0</ele><time>2026-04-11T14:46:48.002Z</time></trkpt><trkpt lat="45.14218612832009" lon="8.33461492129365"><ele>138.0</ele><time>2026-04-11T14:46:50.002Z</time></trkpt><trkpt lat="45.142161673619825" lon="8.334526889372931"><ele>138.0</ele><time>2026-04-11T14:46:52.002Z</time></trkpt><trkpt lat="45.14214280673345" lon="8.334388357441021"><ele>138.0</ele><time>2026-04-11T14:51:09.001Z</time></trkpt><trkpt lat="45.14212435933906" lon="8.334300191619208"><ele>138.0</ele><time>2026-04-11T14:51:10.001Z</time></trkpt><trkpt lat="45.142090861011795" lon="8.334140092714883"><ele>138.14285714285714</ele><time>2026-04-11T14:51:12.001Z</time></trkpt><trkpt lat="45.14207223303226" lon="8.334051063820981"><ele>138.2857142857143</ele><time>2026-04-11T14:51:13.001Z</time></trkpt><trkpt lat="45.14205348027519" lon="8.333961438590006"><ele>138.42857142857144</ele><time>2026-04-11T14:51:14.001Z</time></trkpt><trkpt lat="45.1420341149185" lon="8.333864593545256"><ele>138.57142857142858</ele><time>2026-04-11T14:51:15.001Z</time></trkpt><trkpt lat="45.14201399066208" lon="8.333765728228903"><ele>138.71428571428572</ele><time>2026-04-11T14:51:16.002Z</time></trkpt><trkpt lat="45.14199433190058" lon="8.333669149763681"><ele>138.85714285714286</ele><time>2026-04-11T14:51:17.002Z</time></trkpt><trkpt lat="45.14197360807771" lon="8.33356471428809"><ele>139.0</ele><time>2026-04-11T14:51:18.002Z</time></trkpt><trkpt lat="45.1419534618625" lon="8.333454560841835"><ele>139.33333333333334</ele><time>2026-04-11T14:51:19.002Z</time></trkpt><trkpt lat="45.14193249263203" lon="8.33333270635251"><ele>139.66666666666669</ele><time>2026-04-11T14:51:20.002Z</time></trkpt><trkpt lat="45.141915678119766" lon="8.333207818635536"><ele>140.0</ele><time>2026-04-11T14:51:21.002Z</time></trkpt><trkpt lat="45.141898303742494" lon="8.333076883308681"><ele>140.33333333333334</ele><time>2026-04-11T14:51:22.002Z</time></trkpt><trkpt lat="45.14188046123086" lon="8.332948854700346"><ele>140.66666666666666</ele><time>2026-04-11T14:51:23.002Z</time></trkpt><trkpt lat="45.14184495462321" lon="8.332838858474032"><ele>141.0</ele><time>2026-04-11T14:51:24.002Z</time></trkpt><trkpt lat="45.141825317884695" lon="8.33271848152468"><ele>141.2</ele><time>2026-04-11T14:51:25.002Z</time></trkpt><trkpt lat="45.1417976891371" lon="8.332597397219297"><ele>141.39999999999998</ele><time>2026-04-11T14:51:26.002Z</time></trkpt><trkpt lat="45.14177375576718" lon="8.332455306125865"><ele>141.6</ele><time>2026-04-11T14:51:27.002Z</time></trkpt><trkpt lat="45.141745430262354" lon="8.332317579984016"><ele>141.79999999999998</ele><time>2026-04-11T14:51:28.002Z</time></trkpt><trkpt lat="45.14171823299406" lon="8.332180796642469"><ele>142.0</ele><time>2026-04-11T14:51:29.002Z</time></trkpt><trkpt lat="45.141696691584386" lon="8.332054672983526"><ele>142.14285714285714</ele><time>2026-04-11T14:51:30.002Z</time></trkpt><trkpt lat="45.14167215111747" lon="8.331950956821105"><ele>142.28571428571428</ele><time>2026-04-11T14:51:31.002Z</time></trkpt><trkpt lat="45.141654591091445" lon="8.331856864518583"><ele>142.42857142857142</ele><time>2026-04-11T14:51:32.002Z</time></trkpt><trkpt lat="45.14164846834924" lon="8.331767701443958"><ele>142.57142857142856</ele><time>2026-04-11T14:51:33.002Z</time></trkpt><trkpt lat="45.141632261707436" lon="8.331679950389177"><ele>142.71428571428572</ele><time>2026-04-11T14:51:34.002Z</time></trkpt><trkpt lat="45.14161569074088" lon="8.331587842622662"><ele>142.85714285714283</ele><time>2026-04-11T14:51:35.002Z</time></trkpt><trkpt lat="45.14159976241685" lon="8.331483219399816"><ele>143.0</ele><time>2026-04-11T14:51:36.002Z</time></trkpt><trkpt lat="45.14158633419307" lon="8.331361639051998"><ele>143.20000000000002</ele><time>2026-04-11T14:51:37.002Z</time></trkpt><trkpt lat="45.14157154328488" lon="8.331218132540968"><ele>143.4</ele><time>2026-04-11T14:51:38.002Z</time></trkpt><trkpt lat="45.14155810010861" lon="8.331073511541286"><ele>143.60000000000002</ele><time>2026-04-11T14:51:39.002Z</time></trkpt><trkpt lat="45.1415434002127" lon="8.330950599307942"><ele>143.8</ele><time>2026-04-11T14:51:40.002Z</time></trkpt><trkpt lat="45.14155218013613" lon="8.330840665013573"><ele>144.0</ele><time>2026-04-11T14:51:41.002Z</time></trkpt><trkpt lat="45.141547324780774" lon="8.330726356400284"><ele>144.0</ele><time>2026-04-11T14:51:42.002Z</time></trkpt><trkpt lat="45.141551568337945" lon="8.330607866094185"><ele>144.0</ele><time>2026-04-11T14:51:43.002Z</time></trkpt><trkpt lat="45.14157158828758" lon="8.330471557280147"><ele>144.0</ele><time>2026-04-11T14:51:44.002Z</time></trkpt><trkpt lat="45.141595357259796" lon="8.330319793960264"><ele>144.0</ele><time>2026-04-11T14:51:45.002Z</time></trkpt><trkpt lat="45.14165018852001" lon="8.330187140255457"><ele>144.0</ele><time>2026-04-11T14:51:45.999Z</time></trkpt><trkpt lat="45.14172078064452" lon="8.330083075327662"><ele>144.25</ele><time>2026-04-11T14:51:46.999Z</time></trkpt><trkpt lat="45.14182382583723" lon="8.32999414893103"><ele>144.5</ele><time>2026-04-11T14:51:47.999Z</time></trkpt><trkpt lat="45.141927863513786" lon="8.329904688134073"><ele>144.75</ele><time>2026-04-11T14:51:48.999Z</time></trkpt><trkpt lat="45.14202229676873" lon="8.329800345007397"><ele>145.0</ele><time>2026-04-11T14:51:49.999Z</time></trkpt><trkpt lat="45.14210439388245" lon="8.329705150549646"><ele>145.0</ele><time>2026-04-11T14:51:50.999Z</time></trkpt><trkpt lat="45.14216918721418" lon="8.329619812791394"><ele>145.0</ele><time>2026-04-11T14:51:51.999Z</time></trkpt><trkpt lat="45.142224216239086" lon="8.329547218274891"><ele>145.0</ele><time>2026-04-11T14:51:52.999Z</time></trkpt><trkpt lat="45.14226608467789" lon="8.329477938812676"><ele>145.0</ele><time>2026-04-11T14:51:54.999Z</time></trkpt><trkpt lat="45.14233818179908" lon="8.329397890456304"><ele>145.0</ele><time>2026-04-11T14:51:57.999Z</time></trkpt><trkpt lat="45.14238778972805" lon="8.329335161382833"><ele>145.0</ele><time>2026-04-11T14:51:58.999Z</time></trkpt><trkpt lat="45.1424654382343" lon="8.329270919085156"><ele>145.0</ele><time>2026-04-11T14:51:59.999Z</time></trkpt><trkpt lat="45.142551621055105" lon="8.329200657874466"><ele>145.0</ele><time>2026-04-11T14:52:00.999Z</time></trkpt><trkpt lat="45.14263412834715" lon="8.329126293091914"><ele>145.0</ele><time>2026-04-11T14:52:01.999Z</time></trkpt><trkpt lat="45.14274494808795" lon="8.329055012412681"><ele>145.0</ele><time>2026-04-11T14:52:02.999Z</time></trkpt><trkpt lat="45.14284379514835" lon="8.328964133834333"><ele>145.0</ele><time>2026-04-11T14:52:04Z</time></trkpt><trkpt lat="45.14293805275862" lon="8.328894761988781"><ele>145.5</ele><time>2026-04-11T14:52:05Z</time></trkpt><trkpt lat="45.14303404140541" lon="8.328811653867819"><ele>146.0</ele><time>2026-04-11T14:52:06Z</time></trkpt><trkpt lat="45.143136990046685" lon="8.328744027925469"><ele>146.5</ele><time>2026-04-11T14:52:07Z</time></trkpt><trkpt lat="45.14323730703567" lon="8.32866505584155"><ele>147.0</ele><time>2026-04-11T14:52:08Z</time></trkpt><trkpt lat="45.143331532289494" lon="8.328580722760405"><ele>147.16666666666666</ele><time>2026-04-11T14:52:09Z</time></trkpt><trkpt lat="45.14341823429335" lon="8.32851787708753"><ele>147.33333333333334</ele><time>2026-04-11T14:52:10Z</time></trkpt><trkpt lat="45.14349297371244" lon="8.328450902824494"><ele>147.5</ele><time>2026-04-11T14:52:11Z</time></trkpt><trkpt lat="45.143571798541615" lon="8.328417376205918"><ele>147.66666666666669</ele><time>2026-04-11T14:52:12Z</time></trkpt><trkpt lat="45.143621191235496" lon="8.328358197688809"><ele>147.83333333333334</ele><time>2026-04-11T14:52:13Z</time></trkpt><trkpt lat="45.14369586485344" lon="8.328309263268622"><ele>148.0</ele><time>2026-04-11T14:52:15Z</time></trkpt><trkpt lat="45.14377212180786" lon="8.328276117352392"><ele>149.5</ele><time>2026-04-11T14:52:19Z</time></trkpt><trkpt lat="45.14366262316222" lon="8.327973992330167"><ele>151.0</ele><time>2026-04-11T14:52:21Z</time></trkpt><trkpt lat="45.14362320386394" lon="8.327868496847053"><ele>152.5</ele><time>2026-04-11T14:52:22Z</time></trkpt><trkpt lat="45.143582364886235" lon="8.327772164128762"><ele>154.0</ele><time>2026-04-11T14:52:23Z</time></trkpt><trkpt lat="45.143523207761326" lon="8.327665524867198"><ele>154.0</ele><time>2026-04-11T14:52:24Z</time></trkpt><trkpt lat="45.14346231636633" lon="8.327551831235663"><ele>154.0</ele><time>2026-04-11T14:52:25Z</time></trkpt><trkpt lat="45.143413680717245" lon="8.327458585679802"><ele>154.0</ele><time>2026-04-11T14:52:26Z</time></trkpt><trkpt lat="45.14336417838018" lon="8.327342947395927"><ele>154.0</ele><time>2026-04-11T14:52:27Z</time></trkpt><trkpt lat="45.143327303791914" lon="8.327211266863664"><ele>154.0</ele><time>2026-04-11T14:52:28Z</time></trkpt><trkpt lat="45.14329330190059" lon="8.327084081872037"><ele>154.4</ele><time>2026-04-11T14:52:29Z</time></trkpt><trkpt lat="45.14326193838208" lon="8.326970548371861"><ele>154.8</ele><time>2026-04-11T14:52:30Z</time></trkpt><trkpt lat="45.14323800137343" lon="8.326844264114808"><ele>155.2</ele><time>2026-04-11T14:52:31Z</time></trkpt><trkpt lat="45.143206286620405" lon="8.326722973321438"><ele>155.6</ele><time>2026-04-11T14:52:32Z</time></trkpt><trkpt lat="45.14316678629557" lon="8.326590056883374"><ele>156.0</ele><time>2026-04-11T14:52:33.001Z</time></trkpt><trkpt lat="45.143134216351655" lon="8.326458447164779"><ele>157.0</ele><time>2026-04-11T14:52:34.001Z</time></trkpt><trkpt lat="45.14310191297194" lon="8.326332566140174"><ele>158.0</ele><time>2026-04-11T14:52:35.001Z</time></trkpt><trkpt lat="45.14307266628893" lon="8.326212968827631"><ele>159.0</ele><time>2026-04-11T14:52:36.001Z</time></trkpt><trkpt lat="45.14303714846225" lon="8.326080187460215"><ele>160.0</ele><time>2026-04-11T14:52:37.001Z</time></trkpt><trkpt lat="45.14300711304083" lon="8.325946037578248"><ele>161.0</ele><time>2026-04-11T14:52:38.001Z</time></trkpt><trkpt lat="45.1429895407888" lon="8.325802253200521"><ele>161.0</ele><time>2026-04-11T14:52:39.001Z</time></trkpt><trkpt lat="45.142972171685436" lon="8.325653192519352"><ele>161.0</ele><time>2026-04-11T14:52:40.001Z</time></trkpt><trkpt lat="45.14295496190855" lon="8.325509435587263"><ele>161.0</ele><time>2026-04-11T14:52:41.001Z</time></trkpt><trkpt lat="45.14294694211805" lon="8.325371939418078"><ele>161.0</ele><time>2026-04-11T14:52:42.001Z</time></trkpt><trkpt lat="45.142944202435324" lon="8.325229881426715"><ele>161.0</ele><time>2026-04-11T14:52:43.001Z</time></trkpt><trkpt lat="45.14293974332242" lon="8.325097341134688"><ele>161.5</ele><time>2026-04-11T14:52:44.001Z</time></trkpt><trkpt lat="45.14294744243618" lon="8.324980297053921"><ele>162.0</ele><time>2026-04-11T14:52:45.001Z</time></trkpt><trkpt lat="45.142964100983015" lon="8.324864864427436"><ele>162.5</ele><time>2026-04-11T14:52:46.001Z</time></trkpt><trkpt lat="45.14298961296993" lon="8.324754970765348"><ele>163.0</ele><time>2026-04-11T14:52:47.001Z</time></trkpt><trkpt lat="45.143014677253355" lon="8.32465244574311"><ele>163.5</ele><time>2026-04-11T14:52:48.001Z</time></trkpt><trkpt lat="45.143046745335944" lon="8.324550536229765"><ele>164.0</ele><time>2026-04-11T14:52:49.001Z</time></trkpt><trkpt lat="45.14307708905909" lon="8.324444595343508"><ele>164.16666666666666</ele><time>2026-04-11T14:52:50.001Z</time></trkpt><trkpt lat="45.14311100058806" lon="8.324342950138666"><ele>164.33333333333331</ele><time>2026-04-11T14:52:51.001Z</time></trkpt><trkpt lat="45.14314959545891" lon="8.324232317254058"><ele>164.5</ele><time>2026-04-11T14:52:52.001Z</time></trkpt><trkpt lat="45.14318229523249" lon="8.324123858483059"><ele>164.66666666666666</ele><time>2026-04-11T14:52:53.001Z</time></trkpt><trkpt lat="45.143202186253134" lon="8.324025052181572"><ele>164.83333333333334</ele><time>2026-04-11T14:52:54.001Z</time></trkpt><trkpt lat="45.143218869611275" lon="8.323928237270962"><ele>165.0</ele><time>2026-04-11T14:52:55.001Z</time></trkpt><trkpt lat="45.143239888504866" lon="8.323822887596798"><ele>165.83333333333334</ele><time>2026-04-11T14:52:56.001Z</time></trkpt><trkpt lat="45.14325498882433" lon="8.323701799414684"><ele>166.66666666666666</ele><time>2026-04-11T14:52:57.001Z</time></trkpt><trkpt lat="45.14323555749504" lon="8.323570093395869"><ele>167.5</ele><time>2026-04-11T14:52:58.001Z</time></trkpt><trkpt lat="45.143232624114866" lon="8.323447714992083"><ele>168.33333333333331</ele><time>2026-04-11T14:52:59.001Z</time></trkpt><trkpt lat="45.14324193292198" lon="8.323311572605487"><ele>169.16666666666666</ele><time>2026-04-11T14:53:00.001Z</time></trkpt><trkpt lat="45.14324849952278" lon="8.323192142640048"><ele>170.0</ele><time>2026-04-11T14:53:01.001Z</time></trkpt><trkpt lat="45.14325119949324" lon="8.323081553579513"><ele>170.16666666666666</ele><time>2026-04-11T14:53:02.001Z</time></trkpt><trkpt lat="45.14325643051534" lon="8.32296676784526"><ele>170.33333333333331</ele><time>2026-04-11T14:53:03.001Z</time></trkpt><trkpt lat="45.14326418015365" lon="8.322860809044597"><ele>170.5</ele><time>2026-04-11T14:53:04.001Z</time></trkpt><trkpt lat="45.1432819007189" lon="8.322747991453902"><ele>170.66666666666666</ele><time>2026-04-11T14:53:05.001Z</time></trkpt><trkpt lat="45.14330772008701" lon="8.322649839793035"><ele>170.83333333333334</ele><time>2026-04-11T14:53:06.001Z</time></trkpt><trkpt lat="45.143350565827475" lon="8.322553289786613"><ele>171.0</ele><time>2026-04-11T14:53:07.001Z</time></trkpt><trkpt lat="45.143388141703255" lon="8.322450221182464"><ele>171.0</ele><time>2026-04-11T14:53:08.001Z</time></trkpt><trkpt lat="45.143419090991785" lon="8.322360195174907"><ele>171.0</ele><time>2026-04-11T14:53:09.001Z</time></trkpt><trkpt lat="45.14347857030683" lon="8.322192928872015"><ele>171.0</ele><time>2026-04-11T14:53:11.001Z</time></trkpt><trkpt lat="45.143506686220185" lon="8.322083267554222"><ele>171.0</ele><time>2026-04-11T14:53:12.001Z</time></trkpt><trkpt lat="45.14353814250824" lon="8.321960838487591"><ele>171.0</ele><time>2026-04-11T14:53:13.002Z</time></trkpt><trkpt lat="45.1435545309847" lon="8.321855876883902"><ele>170.5</ele><time>2026-04-11T14:53:14.002Z</time></trkpt><trkpt lat="45.143563978013816" lon="8.321755391941494"><ele>170.0</ele><time>2026-04-11T14:53:15.002Z</time></trkpt><trkpt lat="45.14356288142521" lon="8.321656589676643"><ele>169.5</ele><time>2026-04-11T14:53:16.002Z</time></trkpt><trkpt lat="45.14354449487276" lon="8.321473919492645"><ele>169.0</ele><time>2026-04-11T14:53:18.002Z</time></trkpt><trkpt lat="45.14351447683791" lon="8.32138685955912"><ele>168.5</ele><time>2026-04-11T14:53:19.002Z</time></trkpt><trkpt lat="45.143461742467565" lon="8.321271722056876"><ele>168.0</ele><time>2026-04-11T14:53:20.002Z</time></trkpt><trkpt lat="45.14340088605071" lon="8.321137813663052"><ele>168.0</ele><time>2026-04-11T14:53:21.002Z</time></trkpt><trkpt lat="45.143355183253625" lon="8.321034826136556"><ele>168.0</ele><time>2026-04-11T14:53:22.002Z</time></trkpt><trkpt lat="45.14332673360754" lon="8.32090663083574"><ele>168.0</ele><time>2026-04-11T14:53:23.002Z</time></trkpt><trkpt lat="45.14331826768211" lon="8.320772318440428"><ele>168.0</ele><time>2026-04-11T14:53:24.002Z</time></trkpt><trkpt lat="45.1433309624291" lon="8.320656340448243"><ele>168.0</ele><time>2026-04-11T14:53:25.002Z</time></trkpt><trkpt lat="45.143359689496265" lon="8.320541304588145"><ele>168.0</ele><time>2026-04-11T14:53:26.002Z</time></trkpt><trkpt lat="45.14339995195541" lon="8.320420657825547"><ele>168.60000000000002</ele><time>2026-04-11T14:53:27.002Z</time></trkpt><trkpt lat="45.14345330893069" lon="8.32029312272974"><ele>169.20000000000002</ele><time>2026-04-11T14:53:28.002Z</time></trkpt><trkpt lat="45.14351748405094" lon="8.320148131297822"><ele>169.8</ele><time>2026-04-11T14:53:29.002Z</time></trkpt><trkpt lat="45.14357385814121" lon="8.319999589941116"><ele>170.4</ele><time>2026-04-11T14:53:30.002Z</time></trkpt><trkpt lat="45.14362215241387" lon="8.319868266617357"><ele>171.0</ele><time>2026-04-11T14:53:31.002Z</time></trkpt><trkpt lat="45.14367072329196" lon="8.319748935394527"><ele>171.8</ele><time>2026-04-11T14:53:32.002Z</time></trkpt><trkpt lat="45.14371923707261" lon="8.319626146186792"><ele>172.60000000000002</ele><time>2026-04-11T14:53:33.002Z</time></trkpt><trkpt lat="45.14375442798912" lon="8.319509371268113"><ele>173.4</ele><time>2026-04-11T14:53:34.002Z</time></trkpt><trkpt lat="45.14378112215186" lon="8.319374161232169"><ele>174.2</ele><time>2026-04-11T14:53:35.002Z</time></trkpt><trkpt lat="45.14380638649438" lon="8.31921816631864"><ele>175.0</ele><time>2026-04-11T14:53:36.002Z</time></trkpt><trkpt lat="45.143819705448514" lon="8.319077896519152"><ele>175.0</ele><time>2026-04-11T14:53:37.002Z</time></trkpt><trkpt lat="45.14383766907327" lon="8.31893087734132"><ele>175.0</ele><time>2026-04-11T14:53:38.002Z</time></trkpt><trkpt lat="45.143861260738724" lon="8.31877952686201"><ele>175.0</ele><time>2026-04-11T14:53:39.002Z</time></trkpt><trkpt lat="45.14388375310292" lon="8.318629268399347"><ele>175.0</ele><time>2026-04-11T14:53:40.002Z</time></trkpt><trkpt lat="45.143906878741284" lon="8.318486186903733"><ele>175.0</ele><time>2026-04-11T14:53:41.002Z</time></trkpt><trkpt lat="45.143931126669614" lon="8.31834001094443"><ele>175.6</ele><time>2026-04-11T14:53:42.002Z</time></trkpt><trkpt lat="45.14395770254642" lon="8.318202289590818"><ele>176.2</ele><time>2026-04-11T14:53:43.002Z</time></trkpt><trkpt lat="45.14398400822101" lon="8.31808932054397"><ele>176.8</ele><time>2026-04-11T14:53:44.002Z</time></trkpt><trkpt lat="45.144006821165114" lon="8.317984355322864"><ele>177.4</ele><time>2026-04-11T14:53:45.002Z</time></trkpt><trkpt lat="45.14402547048055" lon="8.317891449813802"><ele>178.0</ele><time>2026-04-11T14:53:46.002Z</time></trkpt><trkpt lat="45.1440482899694" lon="8.317715727647094"><ele>180.0</ele><time>2026-04-11T14:53:48.002Z</time></trkpt><trkpt lat="45.14405587738192" lon="8.317607604388213"><ele>182.0</ele><time>2026-04-11T14:53:49.002Z</time></trkpt><trkpt lat="45.14406245075994" lon="8.317440031802532"><ele>184.0</ele><time>2026-04-11T14:53:51.002Z</time></trkpt><trkpt lat="45.1440598807078" lon="8.317348148207323"><ele>186.0</ele><time>2026-04-11T14:53:51.998Z</time></trkpt><trkpt lat="45.144065752410214" lon="8.317248089764153"><ele>188.0</ele><time>2026-04-11T14:53:52.998Z</time></trkpt><trkpt lat="45.144074956926204" lon="8.317117668586569"><ele>190.0</ele><time>2026-04-11T14:53:53.998Z</time></trkpt><trkpt lat="45.144097136330245" lon="8.316987182833158"><ele>190.16666666666669</ele><time>2026-04-11T14:53:54.998Z</time></trkpt><trkpt lat="45.14411925504874" lon="8.31686288041301"><ele>190.33333333333334</ele><time>2026-04-11T14:53:55.998Z</time></trkpt><trkpt lat="45.14414143856944" lon="8.316740819207858"><ele>190.5</ele><time>2026-04-11T14:53:56.998Z</time></trkpt><trkpt lat="45.14417473519379" lon="8.31663359268379"><ele>190.66666666666666</ele><time>2026-04-11T14:53:57.998Z</time></trkpt><trkpt lat="45.1442000245318" lon="8.316537066299084"><ele>190.83333333333331</ele><time>2026-04-11T14:53:58.998Z</time></trkpt><trkpt lat="45.144234472110625" lon="8.316450883610589"><ele>191.0</ele><time>2026-04-11T14:53:59.998Z</time></trkpt><trkpt lat="45.14427004028001" lon="8.316347721508746"><ele>190.66666666666666</ele><time>2026-04-11T14:54:00.998Z</time></trkpt><trkpt lat="45.14431374230793" lon="8.316232021959177"><ele>190.33333333333331</ele><time>2026-04-11T14:54:01.999Z</time></trkpt><trkpt lat="45.144356085189706" lon="8.316139835675614"><ele>190.0</ele><time>2026-04-11T14:54:02.999Z</time></trkpt><trkpt lat="45.144412535595485" lon="8.31603992728551"><ele>189.66666666666666</ele><time>2026-04-11T14:54:03.999Z</time></trkpt><trkpt lat="45.14448730599082" lon="8.315962150669833"><ele>189.33333333333334</ele><time>2026-04-11T14:54:04.999Z</time></trkpt><trkpt lat="45.14455940701211" lon="8.315916325597398"><ele>189.0</ele><time>2026-04-11T14:54:05.999Z</time></trkpt><trkpt lat="45.144637043990556" lon="8.315880553865641"><ele>189.0</ele><time>2026-04-11T14:54:06.999Z</time></trkpt><trkpt lat="45.144727639186065" lon="8.315847575380335"><ele>189.0</ele><time>2026-04-11T14:54:07.999Z</time></trkpt><trkpt lat="45.14481967921569" lon="8.315794822621145"><ele>189.0</ele><time>2026-04-11T14:54:08.999Z</time></trkpt><trkpt lat="45.144905467764545" lon="8.315743168589044"><ele>189.0</ele><time>2026-04-11T14:54:09.999Z</time></trkpt><trkpt lat="45.14498252093629" lon="8.315679124045417"><ele>189.0</ele><time>2026-04-11T14:54:10.999Z</time></trkpt><trkpt lat="45.14505388668271" lon="8.315609619000828"><ele>188.79999999999998</ele><time>2026-04-11T14:54:11.999Z</time></trkpt><trkpt lat="45.14511293758076" lon="8.315528424644087"><ele>188.6</ele><time>2026-04-11T14:54:12.999Z</time></trkpt><trkpt lat="45.14516979795769" lon="8.315437383605547"><ele>188.4</ele><time>2026-04-11T14:54:13.999Z</time></trkpt><trkpt lat="45.14522732845863" lon="8.315326359458762"><ele>188.2</ele><time>2026-04-11T14:54:14.999Z</time></trkpt><trkpt lat="45.14528383334688" lon="8.315207209550875"><ele>188.0</ele><time>2026-04-11T14:54:15.999Z</time></trkpt><trkpt lat="45.14534415427923" lon="8.31508075273484"><ele>188.0</ele><time>2026-04-11T14:54:16.999Z</time></trkpt><trkpt lat="45.14540840580984" lon="8.314950767112506"><ele>188.0</ele><time>2026-04-11T14:54:17.999Z</time></trkpt><trkpt lat="45.14547600757359" lon="8.314837387164845"><ele>188.0</ele><time>2026-04-11T14:54:19Z</time></trkpt><trkpt lat="45.14553317076622" lon="8.314732269773895"><ele>188.0</ele><time>2026-04-11T14:54:20Z</time></trkpt><trkpt lat="45.14558237571498" lon="8.314644114575454"><ele>188.0</ele><time>2026-04-11T14:54:21Z</time></trkpt><trkpt lat="45.14562491780605" lon="8.314548706185839"><ele>187.33333333333331</ele><time>2026-04-11T14:54:22Z</time></trkpt><trkpt lat="45.14565342000162" lon="8.314460458442237"><ele>186.66666666666666</ele><time>2026-04-11T14:54:23Z</time></trkpt><trkpt lat="45.14566892314278" lon="8.314369648491748"><ele>186.0</ele><time>2026-04-11T14:54:24Z</time></trkpt><trkpt lat="45.14566527787965" lon="8.31427072296618"><ele>185.33333333333334</ele><time>2026-04-11T14:54:25Z</time></trkpt><trkpt lat="45.14564385873782" lon="8.314163899437814"><ele>184.66666666666669</ele><time>2026-04-11T14:54:26Z</time></trkpt><trkpt lat="45.145619319284116" lon="8.314071975185907"><ele>184.0</ele><time>2026-04-11T14:54:27Z</time></trkpt><trkpt lat="45.14565374925849" lon="8.313926637084425"><ele>184.0</ele><time>2026-04-11T14:54:29Z</time></trkpt><trkpt lat="45.14571441195517" lon="8.313856440047047"><ele>184.0</ele><time>2026-04-11T14:54:30Z</time></trkpt><trkpt lat="45.14577422803199" lon="8.313794516151521"><ele>184.0</ele><time>2026-04-11T14:54:31Z</time></trkpt><trkpt lat="45.14583679596295" lon="8.313719454918544"><ele>184.0</ele><time>2026-04-11T14:54:32Z</time></trkpt><trkpt lat="45.145896596256556" lon="8.313619310060528"><ele>184.0</ele><time>2026-04-11T14:54:33Z</time></trkpt><trkpt lat="45.145944179115624" lon="8.31347699564419"><ele>184.0</ele><time>2026-04-11T14:54:34Z</time></trkpt><trkpt lat="45.14598507385255" lon="8.313320045635901"><ele>184.0</ele><time>2026-04-11T14:54:35Z</time></trkpt><trkpt lat="45.1460134363647" lon="8.313175722152893"><ele>184.0</ele><time>2026-04-11T14:54:36Z</time></trkpt><trkpt lat="45.14603144570376" lon="8.313021018903381"><ele>184.0</ele><time>2026-04-11T14:54:37Z</time></trkpt><trkpt lat="45.14604617712714" lon="8.312854577605572"><ele>184.0</ele><time>2026-04-11T14:54:38Z</time></trkpt><trkpt lat="45.14606197479337" lon="8.312690402294331"><ele>184.5</ele><time>2026-04-11T14:54:39Z</time></trkpt><trkpt lat="45.14607947305096" lon="8.312513101932343"><ele>185.0</ele><time>2026-04-11T14:54:40Z</time></trkpt><trkpt lat="45.14608643066869" lon="8.312347514866495"><ele>185.5</ele><time>2026-04-11T14:54:41Z</time></trkpt><trkpt lat="45.14609385841127" lon="8.312197400978594"><ele>186.0</ele><time>2026-04-11T14:54:42Z</time></trkpt><trkpt lat="45.146095005944936" lon="8.312052667514408"><ele>187.4</ele><time>2026-04-11T14:54:43.001Z</time></trkpt><trkpt lat="45.14608466657963" lon="8.311912274361482"><ele>188.8</ele><time>2026-04-11T14:54:44.001Z</time></trkpt><trkpt lat="45.14608767259295" lon="8.311786982210913"><ele>190.20000000000002</ele><time>2026-04-11T14:54:45.001Z</time></trkpt><trkpt lat="45.14609967881028" lon="8.311666516861175"><ele>191.60000000000002</ele><time>2026-04-11T14:54:46.001Z</time></trkpt><trkpt lat="45.1461174621262" lon="8.311564324686453"><ele>193.0</ele><time>2026-04-11T14:54:47.001Z</time></trkpt><trkpt lat="45.146210134878785" lon="8.311446437100823"><ele>192.0</ele><time>2026-04-11T14:54:49.001Z</time></trkpt><trkpt lat="45.146285177481545" lon="8.311354094827037"><ele>191.0</ele><time>2026-04-11T14:54:51.001Z</time></trkpt><trkpt lat="45.14636881740548" lon="8.311260400661673"><ele>190.0</ele><time>2026-04-11T14:54:53.001Z</time></trkpt><trkpt lat="45.14647053828058" lon="8.311151542504758"><ele>189.0</ele><time>2026-04-11T14:54:55.001Z</time></trkpt><trkpt lat="45.14651702488274" lon="8.31107565876238"><ele>188.0</ele><time>2026-04-11T14:54:56.001Z</time></trkpt><trkpt lat="45.146564205024426" lon="8.31099365810208"><ele>187.4</ele><time>2026-04-11T14:54:57.001Z</time></trkpt><trkpt lat="45.14661418448148" lon="8.310883184676927"><ele>186.8</ele><time>2026-04-11T14:54:58.001Z</time></trkpt><trkpt lat="45.146669140387175" lon="8.310766783120236"><ele>186.2</ele><time>2026-04-11T14:54:59.001Z</time></trkpt><trkpt lat="45.14673572339946" lon="8.310648523949602"><ele>185.6</ele><time>2026-04-11T14:55:00.001Z</time></trkpt><trkpt lat="45.14679784902084" lon="8.310557347923488"><ele>185.0</ele><time>2026-04-11T14:55:01.001Z</time></trkpt><trkpt lat="45.146851056850196" lon="8.31046555382651"><ele>183.6</ele><time>2026-04-11T14:55:02.001Z</time></trkpt><trkpt lat="45.1468907899571" lon="8.310365581844168"><ele>182.2</ele><time>2026-04-11T14:55:03.001Z</time></trkpt><trkpt lat="45.14694683894563" lon="8.310231552165602"><ele>180.8</ele><time>2026-04-11T14:55:04.001Z</time></trkpt><trkpt lat="45.14700097766731" lon="8.310094459590749"><ele>179.4</ele><time>2026-04-11T14:55:05.001Z</time></trkpt><trkpt lat="45.147059621401915" lon="8.30998803157765"><ele>178.0</ele><time>2026-04-11T14:55:06.001Z</time></trkpt><trkpt lat="45.147123881168525" lon="8.309907317959345"><ele>178.0</ele><time>2026-04-11T14:55:07.001Z</time></trkpt><trkpt lat="45.147195361708334" lon="8.30984271721427"><ele>178.0</ele><time>2026-04-11T14:55:08.001Z</time></trkpt><trkpt lat="45.14727005359044" lon="8.309771262766368"><ele>178.0</ele><time>2026-04-11T14:55:09.001Z</time></trkpt><trkpt lat="45.147337510528644" lon="8.309700755386826"><ele>178.0</ele><time>2026-04-11T14:55:10.001Z</time></trkpt><trkpt lat="45.147396508339035" lon="8.309634539648544"><ele>178.0</ele><time>2026-04-11T14:55:11.001Z</time></trkpt><trkpt lat="45.147484347288405" lon="8.309567759372603"><ele>178.0</ele><time>2026-04-11T14:55:12.001Z</time></trkpt><trkpt lat="45.147581362496545" lon="8.309525039929541"><ele>179.16666666666669</ele><time>2026-04-11T14:55:13.001Z</time></trkpt><trkpt lat="45.147659179706864" lon="8.309502009000102"><ele>180.33333333333334</ele><time>2026-04-11T14:55:14.001Z</time></trkpt><trkpt lat="45.147759518572" lon="8.309467171524805"><ele>181.5</ele><time>2026-04-11T14:55:16.002Z</time></trkpt><trkpt lat="45.14782652098026" lon="8.309428838179462"><ele>182.66666666666666</ele><time>2026-04-11T14:55:17.002Z</time></trkpt><trkpt lat="45.147890120263824" lon="8.309392228082652"><ele>183.83333333333331</ele><time>2026-04-11T14:55:18.002Z</time></trkpt><trkpt lat="45.14796726160125" lon="8.30935571545841"><ele>185.0</ele><time>2026-04-11T14:55:19.002Z</time></trkpt><trkpt lat="45.14804386578301" lon="8.309311762525095"><ele>185.0</ele><time>2026-04-11T14:55:20.002Z</time></trkpt><trkpt lat="45.148127508254014" lon="8.309269897417053"><ele>185.0</ele><time>2026-04-11T14:55:21.002Z</time></trkpt><trkpt lat="45.14820381575561" lon="8.30922350269872"><ele>185.0</ele><time>2026-04-11T14:55:22.002Z</time></trkpt><trkpt lat="45.14828952074927" lon="8.309174932465961"><ele>185.0</ele><time>2026-04-11T14:55:23.002Z</time></trkpt><trkpt lat="45.14836755416926" lon="8.309128652085183"><ele>185.0</ele><time>2026-04-11T14:55:24.002Z</time></trkpt><trkpt lat="45.148442699623025" lon="8.309099640006066"><ele>185.0</ele><time>2026-04-11T14:55:25.002Z</time></trkpt><trkpt lat="45.14851347556731" lon="8.309062913639732"><ele>186.0</ele><time>2026-04-11T14:55:26.002Z</time></trkpt><trkpt lat="45.148587487428436" lon="8.309017418318073"><ele>187.0</ele><time>2026-04-11T14:55:27.002Z</time></trkpt><trkpt lat="45.14865928621515" lon="8.308960970981865"><ele>188.0</ele><time>2026-04-11T14:55:28.002Z</time></trkpt><trkpt lat="45.14871849831837" lon="8.308899958005277"><ele>189.0</ele><time>2026-04-11T14:55:29.002Z</time></trkpt><trkpt lat="45.14878740036916" lon="8.308836638565174"><ele>190.0</ele><time>2026-04-11T14:55:30.002Z</time></trkpt><trkpt lat="45.14885583926605" lon="8.30876517106477"><ele>191.0</ele><time>2026-04-11T14:55:31.002Z</time></trkpt><trkpt lat="45.14891051687053" lon="8.308697714243225"><ele>191.5</ele><time>2026-04-11T14:55:32.002Z</time></trkpt><trkpt lat="45.148971636521445" lon="8.30864212522427"><ele>192.0</ele><time>2026-04-11T14:55:33.002Z</time></trkpt><trkpt lat="45.1490220464231" lon="8.308583558655284"><ele>192.5</ele><time>2026-04-11T14:55:34.002Z</time></trkpt><trkpt lat="45.14908720431876" lon="8.308485910545455"><ele>193.0</ele><time>2026-04-11T14:55:36.002Z</time></trkpt><trkpt lat="45.14912191343229" lon="8.308388542172292"><ele>193.50000000000003</ele><time>2026-04-11T14:55:39.002Z</time></trkpt><trkpt lat="45.149174983763025" lon="8.308278132234587"><ele>194.0</ele><time>2026-04-11T14:55:41.002Z</time></trkpt><trkpt lat="45.149209699664034" lon="8.308200827436814"><ele>194.00000000000003</ele><time>2026-04-11T14:55:42.002Z</time></trkpt><trkpt lat="45.14924825411167" lon="8.308117395417128"><ele>194.0</ele><time>2026-04-11T14:55:43.002Z</time></trkpt><trkpt lat="45.14928670936923" lon="8.308027740868058"><ele>194.0</ele><time>2026-04-11T14:55:44.002Z</time></trkpt><trkpt lat="45.14933334583874" lon="8.307938361605332"><ele>194.0</ele><time>2026-04-11T14:55:45.002Z</time></trkpt><trkpt lat="45.14937119338275" lon="8.307835863500726"><ele>194.00000000000003</ele><time>2026-04-11T14:55:46.002Z</time></trkpt><trkpt lat="45.14940166016269" lon="8.307726666199565"><ele>194.0</ele><time>2026-04-11T14:55:47.002Z</time></trkpt><trkpt lat="45.14942185419198" lon="8.307611731081167"><ele>195.50000000000003</ele><time>2026-04-11T14:55:48.002Z</time></trkpt><trkpt lat="45.14943651721565" lon="8.307496131480404"><ele>197.0</ele><time>2026-04-11T14:55:49.002Z</time></trkpt><trkpt lat="45.149448637437615" lon="8.307395900457738"><ele>198.5</ele><time>2026-04-11T14:55:50.003Z</time></trkpt><trkpt lat="45.14947343110909" lon="8.307292581964713"><ele>200.0</ele><time>2026-04-11T14:55:51.003Z</time></trkpt><trkpt lat="45.14951200034653" lon="8.30717423532036"><ele>201.50000000000003</ele><time>2026-04-11T14:55:52.003Z</time></trkpt><trkpt lat="45.14956312228866" lon="8.307061705746493"><ele>203.0</ele><time>2026-04-11T14:55:53.003Z</time></trkpt><trkpt lat="45.149615399382405" lon="8.306956496802545"><ele>203.0</ele><time>2026-04-11T14:55:54.003Z</time></trkpt><trkpt lat="45.14969603271956" lon="8.306809383427737"><ele>203.0</ele><time>2026-04-11T14:55:56.003Z</time></trkpt><trkpt lat="45.1497660513356" lon="8.306727596739336"><ele>203.0</ele><time>2026-04-11T14:55:57.003Z</time></trkpt><trkpt lat="45.149840200401755" lon="8.306620096027908"><ele>203.0</ele><time>2026-04-11T14:55:57.999Z</time></trkpt><trkpt lat="45.14991277300678" lon="8.306537163184537"><ele>203.0</ele><time>2026-04-11T14:55:58.999Z</time></trkpt><trkpt lat="45.14998059704679" lon="8.306472526422773"><ele>203.83333333333334</ele><time>2026-04-11T14:55:59.999Z</time></trkpt><trkpt lat="45.15007257284006" lon="8.306396728600678"><ele>204.66666666666669</ele><time>2026-04-11T14:56:01.999Z</time></trkpt><trkpt lat="45.15017160644448" lon="8.306289364522462"><ele>205.5</ele><time>2026-04-11T14:56:03.999Z</time></trkpt><trkpt lat="45.1502414243409" lon="8.306237472245664"><ele>206.33333333333331</ele><time>2026-04-11T14:56:04.999Z</time></trkpt><trkpt lat="45.15028208113988" lon="8.306168305100703"><ele>207.16666666666666</ele><time>2026-04-11T14:56:05.999Z</time></trkpt><trkpt lat="45.15031701561578" lon="8.306089077609858"><ele>208.0</ele><time>2026-04-11T14:56:06.999Z</time></trkpt><trkpt lat="45.15038489186953" lon="8.306010472880981"><ele>207.99999999999997</ele><time>2026-04-11T14:56:07.999Z</time></trkpt><trkpt lat="45.15045220716903" lon="8.305916627145034"><ele>208.0</ele><time>2026-04-11T14:56:08.999Z</time></trkpt><trkpt lat="45.15049370114538" lon="8.305838009560892"><ele>208.0</ele><time>2026-04-11T14:56:09.999Z</time></trkpt><trkpt lat="45.15054092935645" lon="8.305729031643931"><ele>208.0</ele><time>2026-04-11T14:56:10.999Z</time></trkpt><trkpt lat="45.15057345074387" lon="8.30562730828533"><ele>207.99999999999997</ele><time>2026-04-11T14:56:11.999Z</time></trkpt><trkpt lat="45.15062329153999" lon="8.30550502060664"><ele>208.0</ele><time>2026-04-11T14:56:12.999Z</time></trkpt><trkpt lat="45.15068532399727" lon="8.305388944271414"><ele>208.60000000000002</ele><time>2026-04-11T14:56:13.999Z</time></trkpt><trkpt lat="45.1507404074848" lon="8.305287301976923"><ele>209.20000000000002</ele><time>2026-04-11T14:56:14.999Z</time></trkpt><trkpt lat="45.150823507686404" lon="8.30517792991304"><ele>209.8</ele><time>2026-04-11T14:56:16.999Z</time></trkpt><trkpt lat="45.1509166975496" lon="8.305088114535364"><ele>210.4</ele><time>2026-04-11T14:56:19Z</time></trkpt><trkpt lat="45.150948494683185" lon="8.30499336916593"><ele>211.0</ele><time>2026-04-11T14:56:20Z</time></trkpt><trkpt lat="45.15101110376972" lon="8.304918175016937"><ele>210.99999999999997</ele><time>2026-04-11T14:56:21Z</time></trkpt><trkpt lat="45.15106743603846" lon="8.304861469526548"><ele>211.0</ele><time>2026-04-11T14:56:22Z</time></trkpt><trkpt lat="45.151112962399345" lon="8.304782600174951"><ele>211.0</ele><time>2026-04-11T14:56:23Z</time></trkpt><trkpt lat="45.15121250783239" lon="8.304664797764215"><ele>211.0</ele><time>2026-04-11T14:56:25Z</time></trkpt><trkpt lat="45.151273217344745" lon="8.304606779067642"><ele>210.99999999999997</ele><time>2026-04-11T14:56:26Z</time></trkpt><trkpt lat="45.151331883059825" lon="8.304546329517072"><ele>211.0</ele><time>2026-04-11T14:56:27Z</time></trkpt><trkpt lat="45.15139556002464" lon="8.304505907326739"><ele>210.20000000000002</ele><time>2026-04-11T14:56:28Z</time></trkpt><trkpt lat="45.15145658534592" lon="8.304449039336918"><ele>209.4</ele><time>2026-04-11T14:56:29Z</time></trkpt><trkpt lat="45.15152056668323" lon="8.304394356423533"><ele>208.6</ele><time>2026-04-11T14:56:30Z</time></trkpt><trkpt lat="45.15162177201075" lon="8.304277414740216"><ele>207.8</ele><time>2026-04-11T14:56:32Z</time></trkpt><trkpt lat="45.15166427150218" lon="8.304192065973915"><ele>207.0</ele><time>2026-04-11T14:56:33Z</time></trkpt><trkpt lat="45.151713795494665" lon="8.304069745869041"><ele>207.0</ele><time>2026-04-11T14:56:34Z</time></trkpt><trkpt lat="45.151764264029325" lon="8.303937404741957"><ele>207.0</ele><time>2026-04-11T14:56:35Z</time></trkpt><trkpt lat="45.15180047622035" lon="8.30381756824535"><ele>207.0</ele><time>2026-04-11T14:56:36Z</time></trkpt><trkpt lat="45.15182929001001" lon="8.30370552579895"><ele>207.0</ele><time>2026-04-11T14:56:37Z</time></trkpt><trkpt lat="45.151855219988875" lon="8.303584261369144"><ele>207.0</ele><time>2026-04-11T14:56:38Z</time></trkpt><trkpt lat="45.151870378848855" lon="8.303468626655395"><ele>207.0</ele><time>2026-04-11T14:56:39Z</time></trkpt><trkpt lat="45.1518868794296" lon="8.303335520132487"><ele>207.0</ele><time>2026-04-11T14:56:40Z</time></trkpt><trkpt lat="45.15189544892182" lon="8.30320591845005"><ele>207.0</ele><time>2026-04-11T14:56:41Z</time></trkpt><trkpt lat="45.15190260648249" lon="8.303073468945403"><ele>207.0</ele><time>2026-04-11T14:56:42.001Z</time></trkpt><trkpt lat="45.15192368420264" lon="8.30296368067032"><ele>207.0</ele><time>2026-04-11T14:56:43.001Z</time></trkpt><trkpt lat="45.15191934016545" lon="8.302848705554338"><ele>207.0</ele><time>2026-04-11T14:56:44.001Z</time></trkpt><trkpt lat="45.1519181905378" lon="8.30271457082811"><ele>206.83333333333334</ele><time>2026-04-11T14:56:45.001Z</time></trkpt><trkpt lat="45.151906213684114" lon="8.30257944870642"><ele>206.66666666666669</ele><time>2026-04-11T14:56:46.001Z</time></trkpt><trkpt lat="45.15190869069926" lon="8.30246684666239"><ele>206.5</ele><time>2026-04-11T14:56:47.001Z</time></trkpt><trkpt lat="45.15190977471055" lon="8.30237404968768"><ele>206.33333333333334</ele><time>2026-04-11T14:56:48.001Z</time></trkpt><trkpt lat="45.1518911639506" lon="8.302281970147705"><ele>206.16666666666669</ele><time>2026-04-11T14:56:49.001Z</time></trkpt><trkpt lat="45.151879213115855" lon="8.302177247976342"><ele>206.0</ele><time>2026-04-11T14:56:50.001Z</time></trkpt><trkpt lat="45.15187850725928" lon="8.302073168238259"><ele>206.8</ele><time>2026-04-11T14:56:51.001Z</time></trkpt><trkpt lat="45.1518740043142" lon="8.301947521935547"><ele>207.60000000000002</ele><time>2026-04-11T14:56:52.001Z</time></trkpt><trkpt lat="45.15187117752455" lon="8.301805182090543"><ele>208.4</ele><time>2026-04-11T14:56:53.001Z</time></trkpt><trkpt lat="45.15186686792562" lon="8.301667286579743"><ele>209.2</ele><time>2026-04-11T14:56:54.001Z</time></trkpt><trkpt lat="45.151871311208964" lon="8.301567844599553"><ele>210.0</ele><time>2026-04-11T14:56:55.001Z</time></trkpt><trkpt lat="45.15192592374807" lon="8.301438321075121"><ele>208.6</ele><time>2026-04-11T14:56:57.001Z</time></trkpt><trkpt lat="45.15205857061796" lon="8.301357598900253"><ele>207.2</ele><time>2026-04-11T14:56:59.001Z</time></trkpt><trkpt lat="45.15214801341968" lon="8.301314227207339"><ele>205.8</ele><time>2026-04-11T14:57:00.001Z</time></trkpt><trkpt lat="45.15221713437745" lon="8.301277576816158"><ele>204.4</ele><time>2026-04-11T14:57:01.001Z</time></trkpt><trkpt lat="45.15228163710883" lon="8.301247874658587"><ele>203.0</ele><time>2026-04-11T14:57:02.001Z</time></trkpt><trkpt lat="45.152348491557795" lon="8.301218828072349"><ele>204.16666666666669</ele><time>2026-04-11T14:57:03.001Z</time></trkpt><trkpt lat="45.15240704761825" lon="8.301163152762904"><ele>205.33333333333334</ele><time>2026-04-11T14:57:04.001Z</time></trkpt><trkpt lat="45.152463718129326" lon="8.301113904030789"><ele>206.5</ele><time>2026-04-11T14:57:05.001Z</time></trkpt><trkpt lat="45.1525234972326" lon="8.301033585352979"><ele>207.66666666666669</ele><time>2026-04-11T14:57:06.001Z</time></trkpt><trkpt lat="45.152579637264076" lon="8.300951385248416"><ele>208.83333333333334</ele><time>2026-04-11T14:57:07.001Z</time></trkpt><trkpt lat="45.15264606291638" lon="8.300857527993342"><ele>210.0</ele><time>2026-04-11T14:57:08.001Z</time></trkpt><trkpt lat="45.152706995549316" lon="8.300779593583403"><ele>210.0</ele><time>2026-04-11T14:57:09.001Z</time></trkpt><trkpt lat="45.15275974310298" lon="8.300715354448693"><ele>210.0</ele><time>2026-04-11T14:57:10.001Z</time></trkpt><trkpt lat="45.15281476085276" lon="8.300658943151758"><ele>210.0</ele><time>2026-04-11T14:57:11.001Z</time></trkpt><trkpt lat="45.152878968582556" lon="8.300615560315027"><ele>210.0</ele><time>2026-04-11T14:57:12.001Z</time></trkpt><trkpt lat="45.15294223668877" lon="8.300572973303176"><ele>210.0</ele><time>2026-04-11T14:57:13.001Z</time></trkpt><trkpt lat="45.153004491531355" lon="8.300525466460366"><ele>210.0</ele><time>2026-04-11T14:57:14.002Z</time></trkpt><trkpt lat="45.1530647357591" lon="8.300490729903055"><ele>210.0</ele><time>2026-04-11T14:57:15.002Z</time></trkpt><trkpt lat="45.153175231035924" lon="8.300419330863903"><ele>210.0</ele><time>2026-04-11T14:57:17.002Z</time></trkpt><trkpt lat="45.15328672275337" lon="8.300345258616117"><ele>210.0</ele><time>2026-04-11T14:57:19.002Z</time></trkpt><trkpt lat="45.153350354917585" lon="8.300312457615814"><ele>210.0</ele><time>2026-04-11T14:57:20.002Z</time></trkpt><trkpt lat="45.15347825455551" lon="8.300239918148257"><ele>210.0</ele><time>2026-04-11T14:57:22.002Z</time></trkpt><trkpt lat="45.153550211078645" lon="8.300199472154496"><ele>210.0</ele><time>2026-04-11T14:57:23.002Z</time></trkpt><trkpt lat="45.15363266368284" lon="8.300153310634977"><ele>210.0</ele><time>2026-04-11T14:57:24.002Z</time></trkpt><trkpt lat="45.153705040169214" lon="8.300114746846806"><ele>210.0</ele><time>2026-04-11T14:57:25.002Z</time></trkpt><trkpt lat="45.153793009635336" lon="8.300089407082472"><ele>210.0</ele><time>2026-04-11T14:57:26.002Z</time></trkpt><trkpt lat="45.153875498727075" lon="8.300083265446661"><ele>210.0</ele><time>2026-04-11T14:57:27.002Z</time></trkpt><trkpt lat="45.15395692873253" lon="8.300075842016247"><ele>210.0</ele><time>2026-04-11T14:57:28.002Z</time></trkpt><trkpt lat="45.15404983926915" lon="8.300073278973871"><ele>210.0</ele><time>2026-04-11T14:57:29.002Z</time></trkpt><trkpt lat="45.154133044768365" lon="8.300079863526623"><ele>209.0</ele><time>2026-04-11T14:57:30.002Z</time></trkpt><trkpt lat="45.15420532656986" lon="8.300095698536056"><ele>208.0</ele><time>2026-04-11T14:57:31.002Z</time></trkpt><trkpt lat="45.15431652640933" lon="8.300091055711336"><ele>207.0</ele><time>2026-04-11T14:57:33.002Z</time></trkpt><trkpt lat="45.154421292698814" lon="8.300034528334377"><ele>206.0</ele><time>2026-04-11T14:57:35.002Z</time></trkpt><trkpt lat="45.15449118287824" lon="8.29997300942493"><ele>205.0</ele><time>2026-04-11T14:57:36.002Z</time></trkpt><trkpt lat="45.154550969038" lon="8.299942230362154"><ele>204.0</ele><time>2026-04-11T14:57:37.002Z</time></trkpt><trkpt lat="45.15461864015496" lon="8.29992222718041"><ele>204.0</ele><time>2026-04-11T14:57:38.002Z</time></trkpt><trkpt lat="45.154730591040106" lon="8.299877920224851"><ele>204.0</ele><time>2026-04-11T14:57:40.002Z</time></trkpt><trkpt lat="45.15481797326978" lon="8.299757686195179"><ele>204.0</ele><time>2026-04-11T14:57:42.002Z</time></trkpt><trkpt lat="45.15485285762525" lon="8.299676300041483"><ele>204.0</ele><time>2026-04-11T14:57:43.002Z</time></trkpt><trkpt lat="45.154912394160114" lon="8.299582587376987"><ele>204.0</ele><time>2026-04-11T14:57:44.002Z</time></trkpt><trkpt lat="45.15499104609319" lon="8.299482001041772"><ele>204.6</ele><time>2026-04-11T14:57:45.002Z</time></trkpt><trkpt lat="45.1550621114103" lon="8.299402314983439"><ele>205.2</ele><time>2026-04-11T14:57:46.002Z</time></trkpt><trkpt lat="45.155131582431295" lon="8.299327945797351"><ele>205.79999999999998</ele><time>2026-04-11T14:57:47.003Z</time></trkpt><trkpt lat="45.15518756407024" lon="8.299227845200596"><ele>206.39999999999998</ele><time>2026-04-11T14:57:48.003Z</time></trkpt><trkpt lat="45.1552400074655" lon="8.299095750543346"><ele>207.0</ele><time>2026-04-11T14:57:49.003Z</time></trkpt><trkpt lat="45.15530008207097" lon="8.298959620825"><ele>207.2</ele><time>2026-04-11T14:57:50.003Z</time></trkpt><trkpt lat="45.15535962586852" lon="8.298843087543252"><ele>207.39999999999998</ele><time>2026-04-11T14:57:51.003Z</time></trkpt><trkpt lat="45.15542179349117" lon="8.298747172176173"><ele>207.60000000000002</ele><time>2026-04-11T14:57:52.003Z</time></trkpt><trkpt lat="45.15549795578954" lon="8.29864074589778"><ele>207.8</ele><time>2026-04-11T14:57:53.003Z</time></trkpt><trkpt lat="45.155578154371234" lon="8.298544824952272"><ele>208.0</ele><time>2026-04-11T14:57:54.003Z</time></trkpt><trkpt lat="45.15564809010088" lon="8.298442955805942"><ele>208.49999999999997</ele><time>2026-04-11T14:57:55.003Z</time></trkpt><trkpt lat="45.155712796921044" lon="8.298372474336741"><ele>209.0</ele><time>2026-04-11T14:57:56.003Z</time></trkpt><trkpt lat="45.15577414576915" lon="8.298299433173613"><ele>209.5</ele><time>2026-04-11T14:57:57.003Z</time></trkpt><trkpt lat="45.1558537610341" lon="8.298224691076413"><ele>210.0</ele><time>2026-04-11T14:57:58.003Z</time></trkpt><trkpt lat="45.155898404478215" lon="8.2981425172664"><ele>210.49999999999997</ele><time>2026-04-11T14:57:59.003Z</time></trkpt><trkpt lat="45.15592012658359" lon="8.298043433903228"><ele>211.0</ele><time>2026-04-11T14:58:00.003Z</time></trkpt><trkpt lat="45.15595450434926" lon="8.297968373055967"><ele>211.8</ele><time>2026-04-11T14:58:01.003Z</time></trkpt><trkpt lat="45.15603409940435" lon="8.297880333859744"><ele>212.60000000000002</ele><time>2026-04-11T14:58:02.003Z</time></trkpt><trkpt lat="45.1560880497096" lon="8.297777980241085"><ele>213.4</ele><time>2026-04-11T14:58:03.003Z</time></trkpt><trkpt lat="45.156129002273886" lon="8.297677902223427"><ele>214.2</ele><time>2026-04-11T14:58:04Z</time></trkpt><trkpt lat="45.156156086244884" lon="8.297565414146284"><ele>215.0</ele><time>2026-04-11T14:58:05Z</time></trkpt><trkpt lat="45.156179842757155" lon="8.297401159537758"><ele>215.0</ele><time>2026-04-11T14:58:07Z</time></trkpt><trkpt lat="45.15623732016376" lon="8.297256595608024"><ele>215.0</ele><time>2026-04-11T14:58:09Z</time></trkpt><trkpt lat="45.156291850804095" lon="8.297119035809962"><ele>215.0</ele><time>2026-04-11T14:58:11Z</time></trkpt><trkpt lat="45.15631272543765" lon="8.297014619859382"><ele>215.0</ele><time>2026-04-11T14:58:12Z</time></trkpt><trkpt lat="45.15632596999" lon="8.296907928731068"><ele>215.0</ele><time>2026-04-11T14:58:13Z</time></trkpt><trkpt lat="45.15637299151022" lon="8.296813893064058"><ele>215.2</ele><time>2026-04-11T14:58:14Z</time></trkpt><trkpt lat="45.156408849730724" lon="8.29670805293546"><ele>215.4</ele><time>2026-04-11T14:58:15Z</time></trkpt><trkpt lat="45.15646958971697" lon="8.296605588380151"><ele>215.60000000000002</ele><time>2026-04-11T14:58:16Z</time></trkpt><trkpt lat="45.15652243419262" lon="8.296488079433406"><ele>215.8</ele><time>2026-04-11T14:58:17Z</time></trkpt><trkpt lat="45.15657590024816" lon="8.296362253361789"><ele>216.0</ele><time>2026-04-11T14:58:18Z</time></trkpt><trkpt lat="45.156622872470564" lon="8.296234991706664"><ele>217.8</ele><time>2026-04-11T14:58:19Z</time></trkpt><trkpt lat="45.15666207819442" lon="8.296104445981948"><ele>219.60000000000002</ele><time>2026-04-11T14:58:20Z</time></trkpt><trkpt lat="45.156703552068485" lon="8.295988196864478"><ele>221.4</ele><time>2026-04-11T14:58:21Z</time></trkpt><trkpt lat="45.156741234658966" lon="8.295865538292622"><ele>223.2</ele><time>2026-04-11T14:58:22Z</time></trkpt><trkpt lat="45.1567761589011" lon="8.29573318092773"><ele>225.0</ele><time>2026-04-11T14:58:23Z</time></trkpt><trkpt lat="45.1567997572536" lon="8.29560496905691"><ele>225.6</ele><time>2026-04-11T14:58:24Z</time></trkpt><trkpt lat="45.15681237039396" lon="8.295481352078166"><ele>226.2</ele><time>2026-04-11T14:58:25Z</time></trkpt><trkpt lat="45.156817202140964" lon="8.295353508123052"><ele>226.8</ele><time>2026-04-11T14:58:26Z</time></trkpt><trkpt lat="45.15681986031726" lon="8.295210372019811"><ele>227.4</ele><time>2026-04-11T14:58:27Z</time></trkpt><trkpt lat="45.15682714279932" lon="8.295061727247955"><ele>228.0</ele><time>2026-04-11T14:58:28Z</time></trkpt><trkpt lat="45.156840138894374" lon="8.294939703630524"><ele>228.0</ele><time>2026-04-11T14:58:29Z</time></trkpt><trkpt lat="45.15684402019434" lon="8.294828101274081"><ele>228.0</ele><time>2026-04-11T14:58:30Z</time></trkpt><trkpt lat="45.15684724503166" lon="8.29472060749702"><ele>228.0</ele><time>2026-04-11T14:58:31Z</time></trkpt><trkpt lat="45.15683848634732" lon="8.29462436650701"><ele>228.0</ele><time>2026-04-11T14:58:32Z</time></trkpt><trkpt lat="45.15686354617193" lon="8.2945227512776"><ele>228.0</ele><time>2026-04-11T14:58:33Z</time></trkpt><trkpt lat="45.15690031961315" lon="8.294422787237824"><ele>228.0</ele><time>2026-04-11T14:58:34Z</time></trkpt><trkpt lat="45.1569522150272" lon="8.294302225218097"><ele>227.8</ele><time>2026-04-11T14:58:35.001Z</time></trkpt><trkpt lat="45.15702873138542" lon="8.294177539039884"><ele>227.60000000000002</ele><time>2026-04-11T14:58:36.001Z</time></trkpt><trkpt lat="45.157111669021155" lon="8.294047480984624"><ele>227.39999999999998</ele><time>2026-04-11T14:58:37.001Z</time></trkpt><trkpt lat="45.15715910480103" lon="8.293951841252007"><ele>227.2</ele><time>2026-04-11T14:58:38.001Z</time></trkpt><trkpt lat="45.15723167709528" lon="8.293842644094806"><ele>227.0</ele><time>2026-04-11T14:58:39.001Z</time></trkpt><trkpt lat="45.157300386298814" lon="8.293732896678108"><ele>226.0</ele><time>2026-04-11T14:58:40.001Z</time></trkpt><trkpt lat="45.157349279710154" lon="8.293638886909077"><ele>225.0</ele><time>2026-04-11T14:58:41.001Z</time></trkpt><trkpt lat="45.15739004906891" lon="8.293540860480213"><ele>224.0</ele><time>2026-04-11T14:58:43.001Z</time></trkpt><trkpt lat="45.157502685745854" lon="8.293448115625536"><ele>223.0</ele><time>2026-04-11T14:58:46.001Z</time></trkpt><trkpt lat="45.15758736439499" lon="8.293403922694187"><ele>222.0</ele><time>2026-04-11T14:58:47.001Z</time></trkpt><trkpt lat="45.157675447124774" lon="8.293351628318188"><ele>222.0</ele><time>2026-04-11T14:58:48.001Z</time></trkpt><trkpt lat="45.157780512562425" lon="8.293285346120602"><ele>222.0</ele><time>2026-04-11T14:58:49.001Z</time></trkpt><trkpt lat="45.15789515833598" lon="8.293240340017046"><ele>222.0</ele><time>2026-04-11T14:58:50.001Z</time></trkpt><trkpt lat="45.15798669678275" lon="8.293151966680535"><ele>222.0</ele><time>2026-04-11T14:58:51.001Z</time></trkpt><trkpt lat="45.15809367072416" lon="8.29308050630537"><ele>221.25</ele><time>2026-04-11T14:58:52.001Z</time></trkpt><trkpt lat="45.1582117417924" lon="8.293010536523253"><ele>220.5</ele><time>2026-04-11T14:58:53.001Z</time></trkpt><trkpt lat="45.158321888963954" lon="8.29291881964096"><ele>219.75</ele><time>2026-04-11T14:58:54.001Z</time></trkpt><trkpt lat="45.15843927690505" lon="8.292851677838517"><ele>219.0</ele><time>2026-04-11T14:58:55.001Z</time></trkpt><trkpt lat="45.158543353917786" lon="8.292755785437286"><ele>219.0</ele><time>2026-04-11T14:58:56.001Z</time></trkpt><trkpt lat="45.15864952621161" lon="8.292682030632959"><ele>218.99999999999997</ele><time>2026-04-11T14:58:57.001Z</time></trkpt><trkpt lat="45.15874367422019" lon="8.292605360489901"><ele>218.99999999999997</ele><time>2026-04-11T14:58:58.001Z</time></trkpt><trkpt lat="45.1588242263163" lon="8.292522443120646"><ele>219.0</ele><time>2026-04-11T14:58:59.001Z</time></trkpt><trkpt lat="45.15887955030396" lon="8.292398551258993"><ele>219.0</ele><time>2026-04-11T14:59:00.001Z</time></trkpt><trkpt lat="45.15893915735944" lon="8.292319081817034"><ele>219.0</ele><time>2026-04-11T14:59:01.001Z</time></trkpt><trkpt lat="45.15899795387114" lon="8.292260684260743"><ele>219.0</ele><time>2026-04-11T14:59:02.001Z</time></trkpt><trkpt lat="45.15905736881671" lon="8.292217647109991"><ele>219.0</ele><time>2026-04-11T14:59:03.001Z</time></trkpt><trkpt lat="45.15913664361668" lon="8.2921659430284"><ele>219.0</ele><time>2026-04-11T14:59:04.001Z</time></trkpt><trkpt lat="45.15923051741432" lon="8.29210172888752"><ele>219.0</ele><time>2026-04-11T14:59:05.001Z</time></trkpt><trkpt lat="45.15931956350465" lon="8.292008380419867"><ele>219.0</ele><time>2026-04-11T14:59:06.001Z</time></trkpt><trkpt lat="45.15942930884797" lon="8.291948600073365"><ele>219.2</ele><time>2026-04-11T14:59:07.002Z</time></trkpt><trkpt lat="45.15952719012699" lon="8.29187202166541"><ele>219.39999999999998</ele><time>2026-04-11T14:59:08.002Z</time></trkpt><trkpt lat="45.15961211841286" lon="8.29180797813412"><ele>219.6</ele><time>2026-04-11T14:59:09.002Z</time></trkpt><trkpt lat="45.15967294442321" lon="8.291765794696838"><ele>219.8</ele><time>2026-04-11T14:59:10.002Z</time></trkpt><trkpt lat="45.15973748213796" lon="8.291723904902682"><ele>220.0</ele><time>2026-04-11T14:59:15.002Z</time></trkpt><trkpt lat="45.15984255840153" lon="8.291644688432132"><ele>220.2</ele><time>2026-04-11T14:59:20.002Z</time></trkpt><trkpt lat="45.15991753862164" lon="8.291478095444765"><ele>220.4</ele><time>2026-04-11T14:59:22.002Z</time></trkpt><trkpt lat="45.15995550914105" lon="8.291376618916692"><ele>220.60000000000002</ele><time>2026-04-11T14:59:23.002Z</time></trkpt><trkpt lat="45.16001124945825" lon="8.291268335791017"><ele>220.8</ele><time>2026-04-11T14:59:24.002Z</time></trkpt><trkpt lat="45.16008207188396" lon="8.291171042370733"><ele>221.0</ele><time>2026-04-11T14:59:25.002Z</time></trkpt><trkpt lat="45.16015500797748" lon="8.2910717507191"><ele>221.0</ele><time>2026-04-11T14:59:26.002Z</time></trkpt><trkpt lat="45.16022741045648" lon="8.290989547275203"><ele>221.00000000000003</ele><time>2026-04-11T14:59:27.002Z</time></trkpt><trkpt lat="45.16031301102011" lon="8.290907627887897"><ele>221.00000000000003</ele><time>2026-04-11T14:59:28.002Z</time></trkpt><trkpt lat="45.160399118837695" lon="8.290825493321954"><ele>221.0</ele><time>2026-04-11T14:59:29.002Z</time></trkpt><trkpt lat="45.16048271172829" lon="8.290749044497522"><ele>221.0</ele><time>2026-04-11T14:59:30.002Z</time></trkpt><trkpt lat="45.160562072528386" lon="8.290684092764497"><ele>221.0</ele><time>2026-04-11T14:59:31.002Z</time></trkpt><trkpt lat="45.1606548698354" lon="8.29061735902422"><ele>221.0</ele><time>2026-04-11T14:59:32.002Z</time></trkpt><trkpt lat="45.16076157592515" lon="8.290548662134835"><ele>221.0</ele><time>2026-04-11T14:59:33.002Z</time></trkpt><trkpt lat="45.1608737965081" lon="8.290494124833454"><ele>221.0</ele><time>2026-04-11T14:59:34.002Z</time></trkpt><trkpt lat="45.16098537515351" lon="8.290453966844069"><ele>221.60000000000002</ele><time>2026-04-11T14:59:35.002Z</time></trkpt><trkpt lat="45.161084012560174" lon="8.290423123496927"><ele>222.20000000000002</ele><time>2026-04-11T14:59:36.002Z</time></trkpt><trkpt lat="45.16118035896275" lon="8.29039056924597"><ele>222.79999999999998</ele><time>2026-04-11T14:59:37.002Z</time></trkpt><trkpt lat="45.161276092871724" lon="8.290351883894648"><ele>223.39999999999998</ele><time>2026-04-11T14:59:38.002Z</time></trkpt><trkpt lat="45.16135661823242" lon="8.290294032345818"><ele>224.0</ele><time>2026-04-11T14:59:39.002Z</time></trkpt><trkpt lat="45.161424843638414" lon="8.290200581959065"><ele>224.0</ele><time>2026-04-11T14:59:40.002Z</time></trkpt><trkpt lat="45.16147721719597" lon="8.290073819486096"><ele>224.0</ele><time>2026-04-11T14:59:41.003Z</time></trkpt><trkpt lat="45.16152556200841" lon="8.289909068982082"><ele>224.0</ele><time>2026-04-11T14:59:42.003Z</time></trkpt><trkpt lat="45.16157298039354" lon="8.289729574267483"><ele>224.0</ele><time>2026-04-11T14:59:43.003Z</time></trkpt><trkpt lat="45.161630366593904" lon="8.289536029560676"><ele>225.25</ele><time>2026-04-11T14:59:44.003Z</time></trkpt><trkpt lat="45.16168902665001" lon="8.28933818234438"><ele>226.5</ele><time>2026-04-11T14:59:45.003Z</time></trkpt><trkpt lat="45.1617424276899" lon="8.289151580628431"><ele>227.75</ele><time>2026-04-11T14:59:46.003Z</time></trkpt><trkpt lat="45.161797190037944" lon="8.288965479592548"><ele>229.0</ele><time>2026-04-11T14:59:47.003Z</time></trkpt><trkpt lat="45.16185529418107" lon="8.288764149171744"><ele>229.66666666666666</ele><time>2026-04-11T14:59:48.003Z</time></trkpt><trkpt lat="45.16191465332431" lon="8.288563743340578"><ele>230.33333333333331</ele><time>2026-04-11T14:59:49.003Z</time></trkpt><trkpt lat="45.161973620418934" lon="8.288366993998059"><ele>231.0</ele><time>2026-04-11T14:59:50.003Z</time></trkpt><trkpt lat="45.1620344153171" lon="8.288172003821542"><ele>232.0</ele><time>2026-04-11T14:59:51.003Z</time></trkpt><trkpt lat="45.16208940797797" lon="8.287983213067594"><ele>233.0</ele><time>2026-04-11T14:59:52.003Z</time></trkpt><trkpt lat="45.16214688071291" lon="8.287795272027369"><ele>234.0</ele><time>2026-04-11T14:59:53.003Z</time></trkpt><trkpt lat="45.16219611862442" lon="8.287632909202497"><ele>235.0</ele><time>2026-04-11T14:59:54.003Z</time></trkpt><trkpt lat="45.16223515889482" lon="8.287492379837193"><ele>234.99999999999997</ele><time>2026-04-11T14:59:55.003Z</time></trkpt><trkpt lat="45.16226568299003" lon="8.287371401037488"><ele>235.0</ele><time>2026-04-11T14:59:56.003Z</time></trkpt><trkpt lat="45.162296183197256" lon="8.287286089996796"><ele>235.0</ele><time>2026-04-11T14:59:57.003Z</time></trkpt><trkpt lat="45.16233880570915" lon="8.287202908888474"><ele>235.0</ele><time>2026-04-11T14:59:59.003Z</time></trkpt><trkpt lat="45.16242921257571" lon="8.287210334524941"><ele>234.99999999999997</ele><time>2026-04-11T15:00:00.003Z</time></trkpt><trkpt lat="45.16250819385596" lon="8.287179905586303"><ele>235.0</ele><time>2026-04-11T15:00:01.003Z</time></trkpt><trkpt lat="45.1626075108033" lon="8.287134730136245"><ele>239.5</ele><time>2026-04-11T15:00:02.003Z</time></trkpt><trkpt lat="45.16271887668015" lon="8.287074192592916"><ele>244.0</ele><time>2026-04-11T15:00:03.003Z</time></trkpt><trkpt lat="45.16284294458799" lon="8.287014647743112"><ele>248.5</ele><time>2026-04-11T15:00:04.003Z</time></trkpt><trkpt lat="45.16296508220474" lon="8.286961772344354"><ele>253.0</ele><time>2026-04-11T15:00:05.003Z</time></trkpt><trkpt lat="45.1630538993564" lon="8.28688665384174"><ele>253.0</ele><time>2026-04-11T15:00:06.003Z</time></trkpt><trkpt lat="45.1631374895698" lon="8.286852643065476"><ele>253.0</ele><time>2026-04-11T15:00:07.003Z</time></trkpt><trkpt lat="45.163226654151245" lon="8.286806355718205"><ele>253.0</ele><time>2026-04-11T15:00:08.003Z</time></trkpt><trkpt lat="45.163325389682406" lon="8.286751300531442"><ele>253.0</ele><time>2026-04-11T15:00:09.003Z</time></trkpt><trkpt lat="45.163427395746766" lon="8.286687666338091"><ele>253.0</ele><time>2026-04-11T15:00:10Z</time></trkpt><trkpt lat="45.16352833569825" lon="8.286639215971661"><ele>253.4</ele><time>2026-04-11T15:00:11Z</time></trkpt><trkpt lat="45.16362725320532" lon="8.286585544239063"><ele>253.8</ele><time>2026-04-11T15:00:12Z</time></trkpt><trkpt lat="45.163725728764305" lon="8.286523569209173"><ele>254.2</ele><time>2026-04-11T15:00:13Z</time></trkpt><trkpt lat="45.163824572531496" lon="8.28646776456742"><ele>254.6</ele><time>2026-04-11T15:00:14Z</time></trkpt><trkpt lat="45.16391195380261" lon="8.286430440827035"><ele>255.0</ele><time>2026-04-11T15:00:15Z</time></trkpt><trkpt lat="45.163991290719245" lon="8.286395373045568"><ele>255.4</ele><time>2026-04-11T15:00:16Z</time></trkpt><trkpt lat="45.16408325448482" lon="8.286371408909"><ele>255.8</ele><time>2026-04-11T15:00:18Z</time></trkpt><trkpt lat="45.16414055958171" lon="8.286558180025802"><ele>256.2</ele><time>2026-04-11T15:00:25Z</time></trkpt><trkpt lat="45.16420137662271" lon="8.286638408106361"><ele>256.6</ele><time>2026-04-11T15:00:26Z</time></trkpt><trkpt lat="45.16424475620309" lon="8.28672542722745"><ele>257.0</ele><time>2026-04-11T15:00:27Z</time></trkpt><trkpt lat="45.16430384878204" lon="8.286807690733795"><ele>256.0</ele><time>2026-04-11T15:00:28Z</time></trkpt><trkpt lat="45.164372044612016" lon="8.286898859202884"><ele>255.0</ele><time>2026-04-11T15:00:29Z</time></trkpt><trkpt lat="45.1644329424492" lon="8.286987175472024"><ele>254.0</ele><time>2026-04-11T15:00:30Z</time></trkpt><trkpt lat="45.16450003297535" lon="8.287070288340397"><ele>253.0</ele><time>2026-04-11T15:00:31Z</time></trkpt><trkpt lat="45.1645668978562" lon="8.287143637748173"><ele>252.00000000000003</ele><time>2026-04-11T15:00:32Z</time></trkpt><trkpt lat="45.16462389802493" lon="8.287220504721946"><ele>251.0</ele><time>2026-04-11T15:00:33Z</time></trkpt><trkpt lat="45.16467033515796" lon="8.287297154429792"><ele>249.66666666666669</ele><time>2026-04-11T15:00:34Z</time></trkpt><trkpt lat="45.1647035496424" lon="8.28738065182469"><ele>248.33333333333334</ele><time>2026-04-11T15:00:35Z</time></trkpt><trkpt lat="45.16472837765558" lon="8.287473984865322"><ele>247.0</ele><time>2026-04-11T15:00:36Z</time></trkpt><trkpt lat="45.16475380601167" lon="8.287580498649357"><ele>245.66666666666669</ele><time>2026-04-11T15:00:37Z</time></trkpt><trkpt lat="45.164752042603745" lon="8.287703235560942"><ele>244.33333333333334</ele><time>2026-04-11T15:00:38Z</time></trkpt><trkpt lat="45.16475877304058" lon="8.287832750866947"><ele>243.0</ele><time>2026-04-11T15:00:39.001Z</time></trkpt><trkpt lat="45.16478038403974" lon="8.28796725867747"><ele>241.2</ele><time>2026-04-11T15:00:40.001Z</time></trkpt><trkpt lat="45.164776010274984" lon="8.288098940964238"><ele>239.4</ele><time>2026-04-11T15:00:41.001Z</time></trkpt><trkpt lat="45.16475505656468" lon="8.288236869553991"><ele>237.59999999999997</ele><time>2026-04-11T15:00:42.001Z</time></trkpt><trkpt lat="45.164752184148426" lon="8.288380664009479"><ele>235.79999999999998</ele><time>2026-04-11T15:00:43.001Z</time></trkpt><trkpt lat="45.16477175878733" lon="8.288509381627682"><ele>234.0</ele><time>2026-04-11T15:00:44.001Z</time></trkpt><trkpt lat="45.16477015326793" lon="8.288637255265304"><ele>234.0</ele><time>2026-04-11T15:00:45.001Z</time></trkpt><trkpt lat="45.16478180095814" lon="8.288766674526942"><ele>234.0</ele><time>2026-04-11T15:00:46.001Z</time></trkpt><trkpt lat="45.16478926606216" lon="8.288883480039438"><ele>234.0</ele><time>2026-04-11T15:00:47.001Z</time></trkpt><trkpt lat="45.16479436764318" lon="8.288983944441105"><ele>234.0</ele><time>2026-04-11T15:00:48.001Z</time></trkpt><trkpt lat="45.16479929124226" lon="8.28913772248408"><ele>234.0</ele><time>2026-04-11T15:00:50.001Z</time></trkpt><trkpt lat="45.164820682237654" lon="8.289238376126784"><ele>234.0</ele><time>2026-04-11T15:00:52.001Z</time></trkpt><trkpt lat="45.16485897098286" lon="8.289336240318999"><ele>233.5</ele><time>2026-04-11T15:00:55.001Z</time></trkpt><trkpt lat="45.16485554023993" lon="8.289436553552994"><ele>233.0</ele><time>2026-04-11T15:01:02.001Z</time></trkpt><trkpt lat="45.16486798135139" lon="8.289547370783147"><ele>232.5</ele><time>2026-04-11T15:01:04.001Z</time></trkpt><trkpt lat="45.16495255106272" lon="8.289646733499765"><ele>232.0</ele><time>2026-04-11T15:01:07.001Z</time></trkpt><trkpt lat="45.16499611131872" lon="8.289768831092855"><ele>231.5</ele><time>2026-04-11T15:01:11.001Z</time></trkpt><trkpt lat="45.16498784746183" lon="8.289873167678548"><ele>231.0</ele><time>2026-04-11T15:01:14.002Z</time></trkpt><trkpt lat="45.164946635340954" lon="8.289975566109748"><ele>231.0</ele><time>2026-04-11T15:01:23.002Z</time></trkpt><trkpt lat="45.16496929297083" lon="8.29007196164417"><ele>231.0</ele><time>2026-04-11T15:01:31.002Z</time></trkpt><trkpt lat="45.16503130234482" lon="8.290053064406491"><ele>231.0</ele><time>2026-04-11T15:01:33.002Z</time></trkpt><trkpt lat="45.16509827610836" lon="8.289962816521212"><ele>231.0</ele><time>2026-04-11T15:01:35.002Z</time></trkpt><trkpt lat="45.16514386333815" lon="8.28986010912152"><ele>231.0</ele><time>2026-04-11T15:01:37.002Z</time></trkpt><trkpt lat="45.16517899496916" lon="8.28978256452013"><ele>231.0</ele><time>2026-04-11T15:01:39.002Z</time></trkpt><trkpt lat="45.16522632711847" lon="8.289677956186287"><ele>231.0</ele><time>2026-04-11T15:01:41.002Z</time></trkpt><trkpt lat="45.16529562153214" lon="8.28957214223306"><ele>231.0</ele><time>2026-04-11T15:01:43.002Z</time></trkpt><trkpt lat="45.165366746929074" lon="8.289468771189565"><ele>231.0</ele><time>2026-04-11T15:01:45.002Z</time></trkpt><trkpt lat="45.165437611157955" lon="8.289427230699763"><ele>231.0</ele><time>2026-04-11T15:01:47.003Z</time></trkpt><trkpt lat="45.16543952164411" lon="8.289324046021678"><ele>231.0</ele><time>2026-04-11T15:01:48.003Z</time></trkpt><trkpt lat="45.165459859047026" lon="8.289228053949397"><ele>231.0</ele><time>2026-04-11T15:01:49.003Z</time></trkpt><trkpt lat="45.16548024559878" lon="8.289091810347044"><ele>232.0</ele><time>2026-04-11T15:01:51.003Z</time></trkpt><trkpt lat="45.165486871950435" lon="8.288916956639412"><ele>233.00000000000003</ele><time>2026-04-11T15:01:53.003Z</time></trkpt><trkpt lat="45.165492391163035" lon="8.28872844272279"><ele>234.00000000000003</ele><time>2026-04-11T15:01:55.003Z</time></trkpt><trkpt lat="45.16550153273237" lon="8.288635137173795"><ele>235.0</ele><time>2026-04-11T15:01:56.003Z</time></trkpt><trkpt lat="45.1655418787908" lon="8.288471262242146"><ele>236.0</ele><time>2026-04-11T15:01:58.003Z</time></trkpt><trkpt lat="45.1655653338728" lon="8.28837741280529"><ele>236.00000000000003</ele><time>2026-04-11T15:01:59.003Z</time></trkpt><trkpt lat="45.16559446964147" lon="8.288284690996116"><ele>236.0</ele><time>2026-04-11T15:02:00.003Z</time></trkpt><trkpt lat="45.16562709034008" lon="8.288183486810324"><ele>236.0</ele><time>2026-04-11T15:02:02.003Z</time></trkpt><trkpt lat="45.16564733509939" lon="8.288085169343141"><ele>236.0</ele><time>2026-04-11T15:02:04.003Z</time></trkpt><trkpt lat="45.165669486218206" lon="8.28792375825676"><ele>236.00000000000003</ele><time>2026-04-11T15:02:06.003Z</time></trkpt><trkpt lat="45.16567528636259" lon="8.287787291042953"><ele>236.0</ele><time>2026-04-11T15:02:08.003Z</time></trkpt><trkpt lat="45.16567008847827" lon="8.28769040422757"><ele>236.00000000000003</ele><time>2026-04-11T15:02:09.003Z</time></trkpt><trkpt lat="45.165678137118356" lon="8.287595387102675"><ele>236.0</ele><time>2026-04-11T15:02:10.003Z</time></trkpt><trkpt lat="45.165701460623815" lon="8.287460878190492"><ele>236.0</ele><time>2026-04-11T15:02:12.003Z</time></trkpt><trkpt lat="45.16575637782047" lon="8.287337599203477"><ele>236.0</ele><time>2026-04-11T15:02:14.003Z</time></trkpt><trkpt lat="45.165806707019875" lon="8.287274202535277"><ele>236.00000000000003</ele><time>2026-04-11T15:02:15.998Z</time></trkpt><trkpt lat="45.16586325211879" lon="8.287133652921014"><ele>236.0</ele><time>2026-04-11T15:02:17.998Z</time></trkpt><trkpt lat="45.165892616430746" lon="8.286977681338152"><ele>231.42857142857142</ele><time>2026-04-11T15:02:19.998Z</time></trkpt><trkpt lat="45.16594731860538" lon="8.286890610483185"><ele>226.85714285714286</ele><time>2026-04-11T15:02:21.998Z</time></trkpt><trkpt lat="45.16600034309755" lon="8.286817395690669"><ele>222.28571428571428</ele><time>2026-04-11T15:02:24.998Z</time></trkpt><trkpt lat="45.16606091401763" lon="8.28677328647563"><ele>217.71428571428572</ele><time>2026-04-11T15:02:29.999Z</time></trkpt><trkpt lat="45.16612270170023" lon="8.286744588174539"><ele>213.14285714285717</ele><time>2026-04-11T15:02:35.999Z</time></trkpt><trkpt lat="45.1661973565362" lon="8.286757477356367"><ele>208.57142857142858</ele><time>2026-04-11T15:02:39.999Z</time></trkpt><trkpt lat="45.16627321440333" lon="8.286776913838874"><ele>204.0</ele><time>2026-04-11T15:02:47Z</time></trkpt><trkpt lat="45.16633662716411" lon="8.28678067083228"><ele>204.0</ele><time>2026-04-11T15:02:53Z</time></trkpt><trkpt lat="45.16641424282172" lon="8.286756679771544"><ele>204.0</ele><time>2026-04-11T15:02:58Z</time></trkpt><trkpt lat="45.16646681616359" lon="8.286677357676426"><ele>204.0</ele><time>2026-04-11T15:03:02.001Z</time></trkpt><trkpt lat="45.166512145403054" lon="8.286612144783618"><ele>204.0</ele><time>2026-04-11T15:03:06.001Z</time></trkpt><trkpt lat="45.166539762299834" lon="8.286527339736407"><ele>204.0</ele><time>2026-04-11T15:03:09.001Z</time></trkpt><trkpt lat="45.166587017481" lon="8.286465227269378"><ele>204.0</ele><time>2026-04-11T15:03:11.001Z</time></trkpt><trkpt lat="45.16663023847128" lon="8.28639597516535"><ele>204.0</ele><time>2026-04-11T15:03:14.001Z</time></trkpt><trkpt lat="45.16669967440426" lon="8.286350040288196"><ele>201.85714285714286</ele><time>2026-04-11T15:03:17.001Z</time></trkpt><trkpt lat="45.166762517586136" lon="8.286328046193558"><ele>199.71428571428572</ele><time>2026-04-11T15:03:19.001Z</time></trkpt><trkpt lat="45.166838991303884" lon="8.286317013997417"><ele>197.57142857142856</ele><time>2026-04-11T15:03:25.001Z</time></trkpt><trkpt lat="45.16690590462966" lon="8.286314449139237"><ele>195.42857142857144</ele><time>2026-04-11T15:03:28.001Z</time></trkpt><trkpt lat="45.166971211596625" lon="8.286305566599296"><ele>193.28571428571428</ele><time>2026-04-11T15:03:32.002Z</time></trkpt><trkpt lat="45.16703457381356" lon="8.28629970761013"><ele>191.14285714285714</ele><time>2026-04-11T15:03:36.002Z</time></trkpt><trkpt lat="45.16713041225225" lon="8.286306090211816"><ele>189.0</ele><time>2026-04-11T15:03:41.002Z</time></trkpt><trkpt lat="45.16719991539795" lon="8.286308774500352"><ele>189.0</ele><time>2026-04-11T15:03:43.002Z</time></trkpt><trkpt lat="45.16728039306202" lon="8.28629360480835"><ele>189.0</ele><time>2026-04-11T15:03:45.002Z</time></trkpt><trkpt lat="45.167346691395984" lon="8.286310269048299"><ele>189.0</ele><time>2026-04-11T15:03:50.002Z</time></trkpt><trkpt lat="45.167414821995024" lon="8.286326609016227"><ele>189.0</ele><time>2026-04-11T15:03:52.002Z</time></trkpt><trkpt lat="45.16749752279035" lon="8.286358385083174"><ele>189.0</ele><time>2026-04-11T15:05:07.001Z</time></trkpt><trkpt lat="45.1675494611208" lon="8.286463894491229"><ele>189.0</ele><time>2026-04-11T15:05:09.001Z</time></trkpt><trkpt lat="45.16760252856477" lon="8.286621607838272"><ele>188.0</ele><time>2026-04-11T15:05:11.001Z</time></trkpt><trkpt lat="45.167674542014716" lon="8.28675938142846"><ele>187.0</ele><time>2026-04-11T15:05:13.001Z</time></trkpt><trkpt lat="45.167709170562894" lon="8.286844039359345"><ele>186.0</ele><time>2026-04-11T15:05:14.001Z</time></trkpt><trkpt lat="45.16775854885287" lon="8.286935434713907"><ele>185.0</ele><time>2026-04-11T15:05:16.001Z</time></trkpt><trkpt lat="45.16783365139503" lon="8.287006662753125"><ele>184.0</ele><time>2026-04-11T15:05:18.001Z</time></trkpt><trkpt lat="45.167863817189186" lon="8.287142926412754"><ele>184.0</ele><time>2026-04-11T15:05:20.001Z</time></trkpt><trkpt lat="45.167929179339005" lon="8.287174182818477"><ele>184.0</ele><time>2026-04-11T15:05:37.002Z</time></trkpt><trkpt lat="45.16804027995069" lon="8.287224318608029"><ele>184.0</ele><time>2026-04-11T15:05:39.002Z</time></trkpt><trkpt lat="45.16812484509411" lon="8.287259974821929"><ele>184.0</ele><time>2026-04-11T15:05:40.002Z</time></trkpt><trkpt lat="45.16822149915823" lon="8.287283021112671"><ele>184.0</ele><time>2026-04-11T15:05:41.002Z</time></trkpt><trkpt lat="45.168323757127716" lon="8.287338308058757"><ele>185.6</ele><time>2026-04-11T15:05:42.002Z</time></trkpt><trkpt lat="45.16842533609677" lon="8.287387398654493"><ele>187.2</ele><time>2026-04-11T15:05:43.002Z</time></trkpt><trkpt lat="45.168524814617335" lon="8.287439216311377"><ele>188.79999999999998</ele><time>2026-04-11T15:05:44.002Z</time></trkpt><trkpt lat="45.168627887458996" lon="8.28749154405358"><ele>190.39999999999998</ele><time>2026-04-11T15:05:45.002Z</time></trkpt><trkpt lat="45.168728288757656" lon="8.287530582587513"><ele>192.0</ele><time>2026-04-11T15:05:46.002Z</time></trkpt><trkpt lat="45.168836586920456" lon="8.287560392934159"><ele>192.0</ele><time>2026-04-11T15:05:47.002Z</time></trkpt><trkpt lat="45.168928947783606" lon="8.287565722476176"><ele>192.0</ele><time>2026-04-11T15:05:48.002Z</time></trkpt><trkpt lat="45.16900781538448" lon="8.28755489840101"><ele>192.0</ele><time>2026-04-11T15:05:49.002Z</time></trkpt><trkpt lat="45.169089564675076" lon="8.287503631136408"><ele>192.0</ele><time>2026-04-11T15:05:50.002Z</time></trkpt><trkpt lat="45.16916185060073" lon="8.28745568611218"><ele>192.0</ele><time>2026-04-11T15:05:51.002Z</time></trkpt><trkpt lat="45.16922118978098" lon="8.287415120898865"><ele>192.0</ele><time>2026-04-11T15:05:52.002Z</time></trkpt><trkpt lat="45.169273995446176" lon="8.287365383186728"><ele>192.39999999999998</ele><time>2026-04-11T15:05:53.002Z</time></trkpt><trkpt lat="45.16936946532163" lon="8.287267049927667"><ele>192.79999999999998</ele><time>2026-04-11T15:05:55.002Z</time></trkpt><trkpt lat="45.169455585986725" lon="8.287159920900216"><ele>193.2</ele><time>2026-04-11T15:05:57.002Z</time></trkpt><trkpt lat="45.16953569981182" lon="8.287027062241776"><ele>193.6</ele><time>2026-04-11T15:05:59.003Z</time></trkpt><trkpt lat="45.169566256819294" lon="8.28694604725289"><ele>194.0</ele><time>2026-04-11T15:06:00.003Z</time></trkpt><trkpt lat="45.169614571874725" lon="8.286833483935458"><ele>194.00000000000003</ele><time>2026-04-11T15:06:02.003Z</time></trkpt><trkpt lat="45.169596475884845" lon="8.286736621068902"><ele>194.0</ele><time>2026-04-11T15:06:13.003Z</time></trkpt><trkpt lat="45.16957682299193" lon="8.2868793271009"><ele>194.0</ele><time>2026-04-11T15:06:17.003Z</time></trkpt><trkpt lat="45.16954942213833" lon="8.28697335195502"><ele>194.0</ele><time>2026-04-11T15:06:18.003Z</time></trkpt><trkpt lat="45.16950966030195" lon="8.287064086531556"><ele>194.00000000000003</ele><time>2026-04-11T15:06:19.003Z</time></trkpt><trkpt lat="45.16945854883473" lon="8.287154382190957"><ele>194.0</ele><time>2026-04-11T15:06:20.003Z</time></trkpt><trkpt lat="45.16938831608571" lon="8.287235284597275"><ele>193.16666666666669</ele><time>2026-04-11T15:06:21.003Z</time></trkpt><trkpt lat="45.16931290088821" lon="8.287321433672355"><ele>192.33333333333334</ele><time>2026-04-11T15:06:22.003Z</time></trkpt><trkpt lat="45.169228732843386" lon="8.287409486183874"><ele>191.5</ele><time>2026-04-11T15:06:23.003Z</time></trkpt><trkpt lat="45.16916983851932" lon="8.287463695060543"><ele>190.66666666666669</ele><time>2026-04-11T15:06:26.003Z</time></trkpt><trkpt lat="45.16911688118207" lon="8.287525708006298"><ele>189.83333333333334</ele><time>2026-04-11T15:06:37.999Z</time></trkpt><trkpt lat="45.16905463962268" lon="8.287554633306199"><ele>189.0</ele><time>2026-04-11T15:06:48Z</time></trkpt><trkpt lat="45.16922442145107" lon="8.28827119509231"><ele>188.28571428571428</ele><time>2026-04-11T15:08:45Z</time></trkpt><trkpt lat="45.1692342465031" lon="8.288380683919671"><ele>187.57142857142856</ele><time>2026-04-11T15:08:47Z</time></trkpt><trkpt lat="45.16929973940723" lon="8.288426059816013"><ele>186.85714285714286</ele><time>2026-04-11T15:08:51Z</time></trkpt><trkpt lat="45.16936581204743" lon="8.288502053728626"><ele>186.14285714285714</ele><time>2026-04-11T15:08:53Z</time></trkpt><trkpt lat="45.169425337665054" lon="8.28853296311971"><ele>185.42857142857142</ele><time>2026-04-11T15:08:56Z</time></trkpt><trkpt lat="45.16940447867047" lon="8.288626666469957"><ele>184.71428571428572</ele><time>2026-04-11T15:08:58Z</time></trkpt><trkpt lat="45.169436110233136" lon="8.28870901052404"><ele>184.0</ele><time>2026-04-11T15:09:00Z</time></trkpt><trkpt lat="45.16947228790996" lon="8.288789835736386"><ele>184.0</ele><time>2026-04-11T15:09:02.001Z</time></trkpt><trkpt lat="45.16948075597687" lon="8.288894242678515"><ele>184.0</ele><time>2026-04-11T15:09:05.001Z</time></trkpt><trkpt lat="45.169551256854476" lon="8.288975841207153"><ele>184.0</ele><time>2026-04-11T15:09:43.002Z</time></trkpt><trkpt lat="45.16960746873626" lon="8.289017025004945"><ele>184.0</ele><time>2026-04-11T15:09:46.002Z</time></trkpt><trkpt lat="45.169672362100094" lon="8.289093929060822"><ele>184.0</ele><time>2026-04-11T15:09:52.002Z</time></trkpt><trkpt lat="45.16974754813001" lon="8.289140574426916"><ele>184.0</ele><time>2026-04-11T15:09:56.002Z</time></trkpt><trkpt lat="45.16981854241752" lon="8.289192866680981"><ele>180.0</ele><time>2026-04-11T15:09:59.002Z</time></trkpt><trkpt lat="45.169871280796215" lon="8.289249557700742"><ele>176.0</ele><time>2026-04-11T15:10:02.002Z</time></trkpt><trkpt lat="45.169932882677294" lon="8.289318341067586"><ele>172.0</ele><time>2026-04-11T15:10:06.002Z</time></trkpt><trkpt lat="45.170010756327265" lon="8.289361147630713"><ele>168.0</ele><time>2026-04-11T15:10:08.002Z</time></trkpt><trkpt lat="45.17008845956107" lon="8.289398377040373"><ele>164.0</ele><time>2026-04-11T15:10:11.002Z</time></trkpt><trkpt lat="45.17017233712605" lon="8.289417853552289"><ele>160.0</ele><time>2026-04-11T15:10:14.002Z</time></trkpt><trkpt lat="45.170206674827035" lon="8.289495047750215"><ele>160.0</ele><time>2026-04-11T15:10:18.003Z</time></trkpt><trkpt lat="45.17026057216127" lon="8.289563303975001"><ele>160.0</ele><time>2026-04-11T15:10:22.003Z</time></trkpt><trkpt lat="45.170342422728616" lon="8.289527537195315"><ele>160.0</ele><time>2026-04-11T15:10:27.003Z</time></trkpt><trkpt lat="45.17041826516707" lon="8.289506456574468"><ele>160.0</ele><time>2026-04-11T15:10:30.003Z</time></trkpt><trkpt lat="45.17048205730467" lon="8.289561564392738"><ele>160.0</ele><time>2026-04-11T15:10:33.003Z</time></trkpt><trkpt lat="45.17056193570709" lon="8.289567464551851"><ele>160.0</ele><time>2026-04-11T15:10:38.003Z</time></trkpt><trkpt lat="45.17063798124799" lon="8.289506179641664"><ele>157.4</ele><time>2026-04-11T15:10:43Z</time></trkpt><trkpt lat="45.170715330137696" lon="8.289448643254904"><ele>154.8</ele><time>2026-04-11T15:10:45Z</time></trkpt><trkpt lat="45.17079229766263" lon="8.289389978771073"><ele>152.2</ele><time>2026-04-11T15:10:47Z</time></trkpt><trkpt lat="45.170859126047404" lon="8.289256727674426"><ele>149.6</ele><time>2026-04-11T15:10:49Z</time></trkpt><trkpt lat="45.17092506868631" lon="8.28913828223942"><ele>147.0</ele><time>2026-04-11T15:10:51Z</time></trkpt><trkpt lat="45.170981378325266" lon="8.289072936498812"><ele>147.0</ele><time>2026-04-11T15:10:53Z</time></trkpt><trkpt lat="45.17100071286291" lon="8.288984839724646"><ele>147.0</ele><time>2026-04-11T15:10:55Z</time></trkpt><trkpt lat="45.17103545355084" lon="8.288831901907557"><ele>147.0</ele><time>2026-04-11T15:10:57Z</time></trkpt><trkpt lat="45.171061506239454" lon="8.288748162023271"><ele>147.0</ele><time>2026-04-11T15:10:58Z</time></trkpt><trkpt lat="45.171118800716826" lon="8.288631373594429"><ele>147.0</ele><time>2026-04-11T15:11:00Z</time></trkpt><trkpt lat="45.171181280314535" lon="8.288498994174878"><ele>147.57142857142858</ele><time>2026-04-11T15:11:02Z</time></trkpt><trkpt lat="45.171228897494196" lon="8.288431915588676"><ele>148.14285714285714</ele><time>2026-04-11T15:11:03Z</time></trkpt><trkpt lat="45.171278215752906" lon="8.288347519712323"><ele>148.71428571428572</ele><time>2026-04-11T15:11:04Z</time></trkpt><trkpt lat="45.17132233146167" lon="8.288266695915413"><ele>149.28571428571428</ele><time>2026-04-11T15:11:05Z</time></trkpt><trkpt lat="45.1713895799252" lon="8.288193436087216"><ele>149.85714285714286</ele><time>2026-04-11T15:11:06.001Z</time></trkpt><trkpt lat="45.17144173618259" lon="8.288125995586967"><ele>150.42857142857144</ele><time>2026-04-11T15:11:07.001Z</time></trkpt><trkpt lat="45.17148214153445" lon="8.28805447732874"><ele>151.0</ele><time>2026-04-11T15:11:08.001Z</time></trkpt><trkpt lat="45.17155002088771" lon="8.28794012985504"><ele>149.66666666666669</ele><time>2026-04-11T15:11:10.001Z</time></trkpt><trkpt lat="45.171611074678886" lon="8.287894447511256"><ele>148.33333333333334</ele><time>2026-04-11T15:11:12.001Z</time></trkpt><trkpt lat="45.17168707760557" lon="8.28789676957864"><ele>147.0</ele><time>2026-04-11T15:11:33.001Z</time></trkpt><trkpt lat="45.17174435272231" lon="8.287972975956007"><ele>145.66666666666666</ele><time>2026-04-11T15:11:35.001Z</time></trkpt><trkpt lat="45.171770708374964" lon="8.288057841701006"><ele>144.33333333333331</ele><time>2026-04-11T15:11:36.001Z</time></trkpt><trkpt lat="45.17181054483397" lon="8.288151342789199"><ele>143.0</ele><time>2026-04-11T15:11:37.001Z</time></trkpt><trkpt lat="45.17186099154777" lon="8.288246838925104"><ele>142.6</ele><time>2026-04-11T15:11:38.001Z</time></trkpt><trkpt lat="45.171930776362686" lon="8.288354516138323"><ele>142.20000000000002</ele><time>2026-04-11T15:11:39.001Z</time></trkpt><trkpt lat="45.17201685937763" lon="8.288462079686024"><ele>141.8</ele><time>2026-04-11T15:11:40.001Z</time></trkpt><trkpt lat="45.17210504808728" lon="8.28854894173886"><ele>141.4</ele><time>2026-04-11T15:11:41.001Z</time></trkpt><trkpt lat="45.17220217652161" lon="8.288628850516279"><ele>141.0</ele><time>2026-04-11T15:11:42.001Z</time></trkpt><trkpt lat="45.17230231067803" lon="8.288713199328885"><ele>138.75</ele><time>2026-04-11T15:11:43.001Z</time></trkpt><trkpt lat="45.172409984001135" lon="8.288797225841"><ele>136.5</ele><time>2026-04-11T15:11:44.001Z</time></trkpt><trkpt lat="45.17251992843629" lon="8.288882725612828"><ele>134.25</ele><time>2026-04-11T15:11:45.001Z</time></trkpt><trkpt lat="45.17263334554683" lon="8.28896417428035"><ele>132.0</ele><time>2026-04-11T15:11:46.001Z</time></trkpt><trkpt lat="45.17274898530399" lon="8.289052544274735"><ele>131.75</ele><time>2026-04-11T15:11:47.001Z</time></trkpt><trkpt lat="45.17286237618568" lon="8.289144753896242"><ele>131.5</ele><time>2026-04-11T15:11:48.002Z</time></trkpt><trkpt lat="45.1729790440383" lon="8.289235295307838"><ele>131.25</ele><time>2026-04-11T15:11:49.002Z</time></trkpt><trkpt lat="45.173082967178075" lon="8.289313966956826"><ele>131.0</ele><time>2026-04-11T15:11:50.002Z</time></trkpt><trkpt lat="45.17317932193432" lon="8.289391033513292"><ele>131.5</ele><time>2026-04-11T15:11:51.002Z</time></trkpt><trkpt lat="45.173279988630526" lon="8.289472528546945"><ele>132.0</ele><time>2026-04-11T15:11:52.002Z</time></trkpt><trkpt lat="45.173384162307904" lon="8.289554349807386"><ele>132.5</ele><time>2026-04-11T15:11:53.002Z</time></trkpt><trkpt lat="45.17348403439149" lon="8.28964322246391"><ele>133.0</ele><time>2026-04-11T15:11:54.002Z</time></trkpt><trkpt lat="45.17358628944469" lon="8.289732938136"><ele>133.0</ele><time>2026-04-11T15:11:55.002Z</time></trkpt><trkpt lat="45.17369066138596" lon="8.289823438720491"><ele>133.0</ele><time>2026-04-11T15:11:56.002Z</time></trkpt><trkpt lat="45.17378573713383" lon="8.289919890153898"><ele>133.0</ele><time>2026-04-11T15:11:57.002Z</time></trkpt><trkpt lat="45.17387149936641" lon="8.290020487900483"><ele>133.0</ele><time>2026-04-11T15:11:58.002Z</time></trkpt><trkpt lat="45.173952560303505" lon="8.290127933436048"><ele>133.0</ele><time>2026-04-11T15:11:59.002Z</time></trkpt><trkpt lat="45.17402336367833" lon="8.290246422674484"><ele>133.0</ele><time>2026-04-11T15:12:00.002Z</time></trkpt><trkpt lat="45.174088822817616" lon="8.290366113425703"><ele>133.0</ele><time>2026-04-11T15:12:01.002Z</time></trkpt><trkpt lat="45.1741599012731" lon="8.29050175921791"><ele>133.0</ele><time>2026-04-11T15:12:02.002Z</time></trkpt><trkpt lat="45.174242679646106" lon="8.290652125305153"><ele>132.5</ele><time>2026-04-11T15:12:03.002Z</time></trkpt><trkpt lat="45.174337531946975" lon="8.290819149485214"><ele>132.0</ele><time>2026-04-11T15:12:04.002Z</time></trkpt><trkpt lat="45.17443245380655" lon="8.290983301258274"><ele>131.5</ele><time>2026-04-11T15:12:05.002Z</time></trkpt><trkpt lat="45.174522265945306" lon="8.291140714386232"><ele>131.0</ele><time>2026-04-11T15:12:06.002Z</time></trkpt><trkpt lat="45.17460926410725" lon="8.291294602263397"><ele>129.5</ele><time>2026-04-11T15:12:07.002Z</time></trkpt><trkpt lat="45.17469560625628" lon="8.291446200186261"><ele>128.0</ele><time>2026-04-11T15:12:08.002Z</time></trkpt><trkpt lat="45.17478063108237" lon="8.291592621789766"><ele>126.5</ele><time>2026-04-11T15:12:09.002Z</time></trkpt><trkpt lat="45.17486599433521" lon="8.291737065517552"><ele>125.0</ele><time>2026-04-11T15:12:10.002Z</time></trkpt><trkpt lat="45.17494676820487" lon="8.291879010686628"><ele>124.75</ele><time>2026-04-11T15:12:11.002Z</time></trkpt><trkpt lat="45.17502627364609" lon="8.292017907602771"><ele>124.5</ele><time>2026-04-11T15:12:12.002Z</time></trkpt><trkpt lat="45.17509535420758" lon="8.292176641341705"><ele>124.25</ele><time>2026-04-11T15:12:13.002Z</time></trkpt><trkpt lat="45.175192279425126" lon="8.292312789293545"><ele>124.0</ele><time>2026-04-11T15:12:14.002Z</time></trkpt><trkpt lat="45.175277585864684" lon="8.292465486216797"><ele>124.0</ele><time>2026-04-11T15:12:15.002Z</time></trkpt><trkpt lat="45.175360807126275" lon="8.29262269478493"><ele>124.0</ele><time>2026-04-11T15:12:16.002Z</time></trkpt><trkpt lat="45.175447907152225" lon="8.292775303646861"><ele>124.0</ele><time>2026-04-11T15:12:17.002Z</time></trkpt><trkpt lat="45.17553273718901" lon="8.292931550800537"><ele>124.0</ele><time>2026-04-11T15:12:18.002Z</time></trkpt><trkpt lat="45.175621760289935" lon="8.29308694280507"><ele>125.0</ele><time>2026-04-11T15:12:19.002Z</time></trkpt><trkpt lat="45.175708155456626" lon="8.29323986941421"><ele>126.0</ele><time>2026-04-11T15:12:20.002Z</time></trkpt><trkpt lat="45.1757816978115" lon="8.293407188193042"><ele>127.0</ele><time>2026-04-11T15:12:21.002Z</time></trkpt><trkpt lat="45.175876309666336" lon="8.293556167716755"><ele>128.0</ele><time>2026-04-11T15:12:22.002Z</time></trkpt><trkpt lat="45.175983849071855" lon="8.293693759659197"><ele>128.0</ele><time>2026-04-11T15:12:23.002Z</time></trkpt><trkpt lat="45.17611905631809" lon="8.293788453628565"><ele>128.0</ele><time>2026-04-11T15:12:24.002Z</time></trkpt><trkpt lat="45.176258804088334" lon="8.293884232067882"><ele>128.0</ele><time>2026-04-11T15:12:25.002Z</time></trkpt><trkpt lat="45.176410432761195" lon="8.29396407219267"><ele>128.33333333333331</ele><time>2026-04-11T15:12:26.002Z</time></trkpt><trkpt lat="45.176566836203385" lon="8.29404395038937"><ele>128.66666666666666</ele><time>2026-04-11T15:12:27.003Z</time></trkpt><trkpt lat="45.17673432555063" lon="8.294126525450963"><ele>129.0</ele><time>2026-04-11T15:12:28.003Z</time></trkpt><trkpt lat="45.17690274175819" lon="8.29421056039246"><ele>129.0</ele><time>2026-04-11T15:12:29.003Z</time></trkpt><trkpt lat="45.177065844245426" lon="8.294289690067592"><ele>129.0</ele><time>2026-04-11T15:12:30.003Z</time></trkpt><trkpt lat="45.17722544316306" lon="8.294389913587242"><ele>129.0</ele><time>2026-04-11T15:12:31.003Z</time></trkpt><trkpt lat="45.17739224280749" lon="8.294447555514795"><ele>128.66666666666666</ele><time>2026-04-11T15:12:32.003Z</time></trkpt><trkpt lat="45.17754979927467" lon="8.294526914540185"><ele>128.33333333333331</ele><time>2026-04-11T15:12:33.003Z</time></trkpt><trkpt lat="45.17770425257691" lon="8.294601713470842"><ele>128.0</ele><time>2026-04-11T15:12:34.003Z</time></trkpt><trkpt lat="45.177853316989854" lon="8.294674175299306"><ele>128.0</ele><time>2026-04-11T15:12:35.003Z</time></trkpt><trkpt lat="45.177994947850905" lon="8.294743460282026"><ele>128.0</ele><time>2026-04-11T15:12:36.003Z</time></trkpt><trkpt lat="45.178129433199636" lon="8.29480734913672"><ele>128.0</ele><time>2026-04-11T15:12:37.003Z</time></trkpt><trkpt lat="45.178257286672476" lon="8.294867525823175"><ele>128.0</ele><time>2026-04-11T15:12:38.003Z</time></trkpt><trkpt lat="45.17837936470013" lon="8.294928009901597"><ele>127.80000000000001</ele><time>2026-04-11T15:12:39.003Z</time></trkpt><trkpt lat="45.17849050691883" lon="8.294982148093077"><ele>127.60000000000001</ele><time>2026-04-11T15:12:40.003Z</time></trkpt><trkpt lat="45.178583131425945" lon="8.2950330329963"><ele>127.39999999999999</ele><time>2026-04-11T15:12:41.003Z</time></trkpt><trkpt lat="45.17865636803765" lon="8.295067518451912"><ele>127.19999999999999</ele><time>2026-04-11T15:12:42.003Z</time></trkpt><trkpt lat="45.178704265961926" lon="8.295142454582194"><ele>127.0</ele><time>2026-04-11T15:12:44.003Z</time></trkpt><trkpt lat="45.17864549637786" lon="8.295234127679564"><ele>127.00000000000001</ele><time>2026-04-11T15:12:46Z</time></trkpt><trkpt lat="45.17860797597763" lon="8.2953262699914"><ele>127.0</ele><time>2026-04-11T15:12:47Z</time></trkpt><trkpt lat="45.17856637179772" lon="8.295432479944687"><ele>127.0</ele><time>2026-04-11T15:12:48Z</time></trkpt><trkpt lat="45.17852685056583" lon="8.295537047178916"><ele>127.0</ele><time>2026-04-11T15:12:49Z</time></trkpt><trkpt lat="45.178484261379865" lon="8.295654486233069"><ele>127.00000000000001</ele><time>2026-04-11T15:12:50Z</time></trkpt><trkpt lat="45.178436458796035" lon="8.295786951108793"><ele>127.0</ele><time>2026-04-11T15:12:51Z</time></trkpt><trkpt lat="45.17838960903274" lon="8.295919952650372"><ele>127.0</ele><time>2026-04-11T15:12:52Z</time></trkpt><trkpt lat="45.1783443596022" lon="8.296048411001319"><ele>126.99999999999999</ele><time>2026-04-11T15:12:53Z</time></trkpt><trkpt lat="45.178307671659525" lon="8.296154476944466"><ele>126.99999999999999</ele><time>2026-04-11T15:12:54Z</time></trkpt><trkpt lat="45.17827099245221" lon="8.296260811635513"><ele>127.0</ele><time>2026-04-11T15:12:55Z</time></trkpt><trkpt lat="45.17824364692658" lon="8.29638205513035"><ele>127.0</ele><time>2026-04-11T15:12:55.999Z</time></trkpt><trkpt lat="45.17820006950882" lon="8.296498134681334"><ele>127.16666666666667</ele><time>2026-04-11T15:12:57Z</time></trkpt><trkpt lat="45.17815885666133" lon="8.296596201077435"><ele>127.33333333333334</ele><time>2026-04-11T15:12:57.999Z</time></trkpt><trkpt lat="45.17811173389196" lon="8.296668049192066"><ele>127.5</ele><time>2026-04-11T15:12:58.999Z</time></trkpt><trkpt lat="45.1780701858378" lon="8.29675184438728"><ele>127.66666666666666</ele><time>2026-04-11T15:13:00Z</time></trkpt><trkpt lat="45.178007653438804" lon="8.296832084000387"><ele>127.83333333333333</ele><time>2026-04-11T15:13:01Z</time></trkpt><trkpt lat="45.177949095302786" lon="8.29692966638706"><ele>128.0</ele><time>2026-04-11T15:13:02Z</time></trkpt><trkpt lat="45.177891366403166" lon="8.297049867506779"><ele>128.0</ele><time>2026-04-11T15:13:03Z</time></trkpt><trkpt lat="45.1778339881861" lon="8.297161856567097"><ele>128.0</ele><time>2026-04-11T15:13:04Z</time></trkpt><trkpt lat="45.17776379141875" lon="8.297275139976206"><ele>128.0</ele><time>2026-04-11T15:13:05Z</time></trkpt><trkpt lat="45.177721441213656" lon="8.297421617882058"><ele>128.0</ele><time>2026-04-11T15:13:06Z</time></trkpt><trkpt lat="45.177672397287914" lon="8.297566706436474"><ele>128.0</ele><time>2026-04-11T15:13:07Z</time></trkpt><trkpt lat="45.177616142375015" lon="8.297720330528417"><ele>128.0</ele><time>2026-04-11T15:13:08Z</time></trkpt><trkpt lat="45.177584574977594" lon="8.297889767120147"><ele>128.0</ele><time>2026-04-11T15:13:09Z</time></trkpt><trkpt lat="45.17751886107648" lon="8.298044019344564"><ele>128.0</ele><time>2026-04-11T15:13:10Z</time></trkpt><trkpt lat="45.17746416616578" lon="8.29820086010756"><ele>128.0</ele><time>2026-04-11T15:13:11Z</time></trkpt><trkpt lat="45.17741944854021" lon="8.298365570163257"><ele>128.0</ele><time>2026-04-11T15:13:12Z</time></trkpt><trkpt lat="45.17735560849373" lon="8.298519982740572"><ele>128.0</ele><time>2026-04-11T15:13:13Z</time></trkpt><trkpt lat="45.17729499378169" lon="8.29867979141884"><ele>128.0</ele><time>2026-04-11T15:13:14Z</time></trkpt><trkpt lat="45.177214103060464" lon="8.29882783958133"><ele>128.0</ele><time>2026-04-11T15:13:15Z</time></trkpt><trkpt lat="45.1771447525117" lon="8.298983373432124"><ele>128.0</ele><time>2026-04-11T15:13:16Z</time></trkpt><trkpt lat="45.17708158993843" lon="8.299143611497074"><ele>128.0</ele><time>2026-04-11T15:13:17Z</time></trkpt><trkpt lat="45.17698930539191" lon="8.299273721907127"><ele>128.0</ele><time>2026-04-11T15:13:18Z</time></trkpt><trkpt lat="45.17690728369075" lon="8.29939800531673"><ele>128.0</ele><time>2026-04-11T15:13:19Z</time></trkpt><trkpt lat="45.17681466911587" lon="8.299528710117047"><ele>128.0</ele><time>2026-04-11T15:13:20Z</time></trkpt><trkpt lat="45.17672707757381" lon="8.299651494609808"><ele>128.0</ele><time>2026-04-11T15:13:21Z</time></trkpt><trkpt lat="45.176631767171955" lon="8.299778205507884"><ele>128.0</ele><time>2026-04-11T15:13:22Z</time></trkpt><trkpt lat="45.17654429668451" lon="8.299926464904807"><ele>128.0</ele><time>2026-04-11T15:13:23Z</time></trkpt><trkpt lat="45.17645501198525" lon="8.30003736058493"><ele>128.20000000000002</ele><time>2026-04-11T15:13:24Z</time></trkpt><trkpt lat="45.17636619942994" lon="8.300161705220129"><ele>128.4</ele><time>2026-04-11T15:13:25Z</time></trkpt><trkpt lat="45.176284964358224" lon="8.300264454310812"><ele>128.60000000000002</ele><time>2026-04-11T15:13:26Z</time></trkpt><trkpt lat="45.17619646863287" lon="8.300331780633837"><ele>128.8</ele><time>2026-04-11T15:13:27Z</time></trkpt><trkpt lat="45.176142853043345" lon="8.300383775142476"><ele>129.0</ele><time>2026-04-11T15:13:28Z</time></trkpt><trkpt lat="45.17604291320697" lon="8.300473151439956"><ele>129.0</ele><time>2026-04-11T15:13:29.001Z</time></trkpt><trkpt lat="45.175927808316885" lon="8.300533801494181"><ele>129.0</ele><time>2026-04-11T15:13:30.001Z</time></trkpt><trkpt lat="45.17582209505991" lon="8.300638752120017"><ele>129.0</ele><time>2026-04-11T15:13:31.001Z</time></trkpt><trkpt lat="45.1757056503015" lon="8.300725545923221"><ele>129.0</ele><time>2026-04-11T15:13:32.001Z</time></trkpt><trkpt lat="45.175599581580975" lon="8.3008202892156"><ele>128.75</ele><time>2026-04-11T15:13:33.001Z</time></trkpt><trkpt lat="45.1754852395294" lon="8.300912390950826"><ele>128.5</ele><time>2026-04-11T15:13:34.001Z</time></trkpt><trkpt lat="45.17538227197032" lon="8.301025466285964"><ele>128.25</ele><time>2026-04-11T15:13:35.001Z</time></trkpt><trkpt lat="45.17526022275678" lon="8.301092099139625"><ele>128.0</ele><time>2026-04-11T15:13:36.001Z</time></trkpt><trkpt lat="45.17515127933066" lon="8.301167835517706"><ele>128.0</ele><time>2026-04-11T15:13:37.001Z</time></trkpt><trkpt lat="45.175055257765585" lon="8.301231193712098"><ele>128.0</ele><time>2026-04-11T15:13:38.001Z</time></trkpt><trkpt lat="45.17493766134134" lon="8.301262695585699"><ele>128.0</ele><time>2026-04-11T15:13:39.001Z</time></trkpt><trkpt lat="45.174823906130996" lon="8.301324493039548"><ele>128.0</ele><time>2026-04-11T15:13:40.001Z</time></trkpt><trkpt lat="45.17467567262245" lon="8.3014334247935"><ele>127.75</ele><time>2026-04-11T15:13:41.001Z</time></trkpt><trkpt lat="45.1745568883469" lon="8.301534705358488"><ele>127.5</ele><time>2026-04-11T15:13:42.001Z</time></trkpt><trkpt lat="45.17444585672547" lon="8.301626519183637"><ele>127.25</ele><time>2026-04-11T15:13:43.001Z</time></trkpt><trkpt lat="45.174334733051886" lon="8.30170404864584"><ele>127.0</ele><time>2026-04-11T15:13:44.001Z</time></trkpt><trkpt lat="45.17420768793016" lon="8.301783119257626"><ele>127.0</ele><time>2026-04-11T15:13:45.001Z</time></trkpt><trkpt lat="45.17407361722011" lon="8.3018650997383"><ele>127.0</ele><time>2026-04-11T15:13:46.001Z</time></trkpt><trkpt lat="45.17394443785001" lon="8.301939561579392"><ele>127.0</ele><time>2026-04-11T15:13:47.001Z</time></trkpt><trkpt lat="45.173805650774966" lon="8.302017871524797"><ele>127.0</ele><time>2026-04-11T15:13:48.001Z</time></trkpt><trkpt lat="45.173662533443405" lon="8.302097673230548"><ele>126.33333333333334</ele><time>2026-04-11T15:13:49.001Z</time></trkpt><trkpt lat="45.173519657199215" lon="8.30217704882689"><ele>125.66666666666666</ele><time>2026-04-11T15:13:50.001Z</time></trkpt><trkpt lat="45.17337709907731" lon="8.302255678904237"><ele>125.0</ele><time>2026-04-11T15:13:51.001Z</time></trkpt><trkpt lat="45.173233301699014" lon="8.302334188146224"><ele>125.0</ele><time>2026-04-11T15:13:52.001Z</time></trkpt><trkpt lat="45.17309227392892" lon="8.302411185459583"><ele>125.0</ele><time>2026-04-11T15:13:53.001Z</time></trkpt><trkpt lat="45.172952765136074" lon="8.302487353391582"><ele>125.0</ele><time>2026-04-11T15:13:54.001Z</time></trkpt><trkpt lat="45.17281070335533" lon="8.302564915178461"><ele>125.0</ele><time>2026-04-11T15:13:55.001Z</time></trkpt><trkpt lat="45.172670181823065" lon="8.302638352835825"><ele>125.0</ele><time>2026-04-11T15:13:56.001Z</time></trkpt><trkpt lat="45.17255605775266" lon="8.302686319239266"><ele>125.0</ele><time>2026-04-11T15:13:57.001Z</time></trkpt><trkpt lat="45.17243896414863" lon="8.302730165664949"><ele>125.0</ele><time>2026-04-11T15:13:58.001Z</time></trkpt><trkpt lat="45.172353919256196" lon="8.30276054774688"><ele>125.16666666666666</ele><time>2026-04-11T15:13:59.001Z</time></trkpt><trkpt lat="45.17228066696987" lon="8.302783511111743"><ele>125.33333333333333</ele><time>2026-04-11T15:14:00.001Z</time></trkpt><trkpt lat="45.17221245619431" lon="8.3028029739735"><ele>125.5</ele><time>2026-04-11T15:14:01.001Z</time></trkpt><trkpt lat="45.172132526706" lon="8.30282466504653"><ele>125.66666666666666</ele><time>2026-04-11T15:14:02.001Z</time></trkpt><trkpt lat="45.17206733067248" lon="8.302842357799564"><ele>125.83333333333333</ele><time>2026-04-11T15:14:03.001Z</time></trkpt><trkpt lat="45.17196111699354" lon="8.302874596542772"><ele>126.0</ele><time>2026-04-11T15:14:05.002Z</time></trkpt><trkpt lat="45.17190121683687" lon="8.302922005354688"><ele>126.0</ele><time>2026-04-11T15:14:07.002Z</time></trkpt><trkpt lat="45.17184852303204" lon="8.303024566991114"><ele>126.0</ele><time>2026-04-11T15:14:09.002Z</time></trkpt><trkpt lat="45.171787126689345" lon="8.303087590653416"><ele>126.0</ele><time>2026-04-11T15:14:12.002Z</time></trkpt><trkpt lat="45.17172894645853" lon="8.303157394855033"><ele>126.0</ele><time>2026-04-11T15:14:15.002Z</time></trkpt><trkpt lat="45.17169452966788" lon="8.303300438138637"><ele>126.0</ele><time>2026-04-11T15:14:32.002Z</time></trkpt><trkpt lat="45.171650189284065" lon="8.303456413206678"><ele>126.0</ele><time>2026-04-11T15:14:34.002Z</time></trkpt><trkpt lat="45.17161233199764" lon="8.303618701473816"><ele>126.0</ele><time>2026-04-11T15:14:36.002Z</time></trkpt><trkpt lat="45.17154791299617" lon="8.303713963039149"><ele>126.0</ele><time>2026-04-11T15:14:37.002Z</time></trkpt><trkpt lat="45.17147815620262" lon="8.303836001669668"><ele>126.0</ele><time>2026-04-11T15:14:38.002Z</time></trkpt><trkpt lat="45.17140065810005" lon="8.303964296020691"><ele>126.0</ele><time>2026-04-11T15:14:39.002Z</time></trkpt><trkpt lat="45.17132850591294" lon="8.304112440834285"><ele>126.0</ele><time>2026-04-11T15:14:40.002Z</time></trkpt><trkpt lat="45.17121864900424" lon="8.30426240190245"><ele>126.0</ele><time>2026-04-11T15:14:41.003Z</time></trkpt><trkpt lat="45.17111269660776" lon="8.304435266325223"><ele>126.0</ele><time>2026-04-11T15:14:42.003Z</time></trkpt><trkpt lat="45.17102566059652" lon="8.304613582780144"><ele>126.0</ele><time>2026-04-11T15:14:43.003Z</time></trkpt><trkpt lat="45.17092340956329" lon="8.304779747362977"><ele>126.0</ele><time>2026-04-11T15:14:44.003Z</time></trkpt><trkpt lat="45.170817074799224" lon="8.304954343851696"><ele>126.0</ele><time>2026-04-11T15:14:45.003Z</time></trkpt><trkpt lat="45.17070865647354" lon="8.305132620024267"><ele>126.0</ele><time>2026-04-11T15:14:46.003Z</time></trkpt><trkpt lat="45.17060288769271" lon="8.305306027077297"><ele>126.0</ele><time>2026-04-11T15:14:47.003Z</time></trkpt><trkpt lat="45.17050399531436" lon="8.305465571022143"><ele>126.0</ele><time>2026-04-11T15:14:48.003Z</time></trkpt><trkpt lat="45.17040642296006" lon="8.305626515264876"><ele>126.0</ele><time>2026-04-11T15:14:49.003Z</time></trkpt><trkpt lat="45.17030087074826" lon="8.305761961467207"><ele>126.0</ele><time>2026-04-11T15:14:50.003Z</time></trkpt><trkpt lat="45.170215635435255" lon="8.305897854518244"><ele>126.0</ele><time>2026-04-11T15:14:51.003Z</time></trkpt><trkpt lat="45.1701299373101" lon="8.306038813267266"><ele>126.0</ele><time>2026-04-11T15:14:51.998Z</time></trkpt><trkpt lat="45.17005581262979" lon="8.306193796636641"><ele>126.0</ele><time>2026-04-11T15:14:52.998Z</time></trkpt><trkpt lat="45.16997207483806" lon="8.30633446814374"><ele>126.0</ele><time>2026-04-11T15:14:53.998Z</time></trkpt><trkpt lat="45.16989166206502" lon="8.306472799438849"><ele>126.0</ele><time>2026-04-11T15:14:54.998Z</time></trkpt><trkpt lat="45.16980003486524" lon="8.306574558431423"><ele>126.0</ele><time>2026-04-11T15:14:55.998Z</time></trkpt><trkpt lat="45.1697269730663" lon="8.30667153592855"><ele>126.0</ele><time>2026-04-11T15:14:56.998Z</time></trkpt><trkpt lat="45.16966549564834" lon="8.306752015867271"><ele>126.0</ele><time>2026-04-11T15:14:57.998Z</time></trkpt><trkpt lat="45.169618479474025" lon="8.30681356455082"><ele>126.0</ele><time>2026-04-11T15:14:58.998Z</time></trkpt><trkpt lat="45.1695955970455" lon="8.306905605926602"><ele>126.0</ele><time>2026-04-11T15:15:00.998Z</time></trkpt><trkpt lat="45.16960363995142" lon="8.306998228934834"><ele>126.0</ele><time>2026-04-11T15:15:07.999Z</time></trkpt><trkpt lat="45.16965215228668" lon="8.307072931160091"><ele>126.0</ele><time>2026-04-11T15:15:17.999Z</time></trkpt><trkpt lat="45.16958197407764" lon="8.307223727103887"><ele>126.0</ele><time>2026-04-11T15:15:24Z</time></trkpt><trkpt lat="45.16950859769132" lon="8.30735717412984"><ele>126.0</ele><time>2026-04-11T15:15:26Z</time></trkpt><trkpt lat="45.16947608550838" lon="8.3074479783263"><ele>126.0</ele><time>2026-04-11T15:15:27Z</time></trkpt><trkpt lat="45.169410348465554" lon="8.307560590878936"><ele>126.0</ele><time>2026-04-11T15:15:29Z</time></trkpt><trkpt lat="45.16951261088282" lon="8.307436992426204"><ele>126.0</ele><time>2026-04-11T15:15:52.001Z</time></trkpt><trkpt lat="45.16957668195209" lon="8.307316082795435"><ele>126.0</ele><time>2026-04-11T15:15:54.001Z</time></trkpt><trkpt lat="45.169638649148894" lon="8.307213891617856"><ele>126.0</ele><time>2026-04-11T15:15:56.001Z</time></trkpt><trkpt lat="45.169693137916276" lon="8.307127166986922"><ele>126.0</ele><time>2026-04-11T15:15:59.001Z</time></trkpt><trkpt lat="45.1697793226101" lon="8.307147685990248"><ele>126.0</ele><time>2026-04-11T15:16:03.001Z</time></trkpt><trkpt lat="45.16988404688483" lon="8.307161692549213"><ele>126.0</ele><time>2026-04-11T15:16:05.001Z</time></trkpt><trkpt lat="45.16997661372744" lon="8.307184967236493"><ele>126.6</ele><time>2026-04-11T15:16:07.001Z</time></trkpt><trkpt lat="45.17007807197728" lon="8.307228864337382"><ele>127.19999999999999</ele><time>2026-04-11T15:16:09.001Z</time></trkpt><trkpt lat="45.17018055850136" lon="8.307247180529378"><ele>127.80000000000001</ele><time>2026-04-11T15:16:11.001Z</time></trkpt><trkpt lat="45.170278364836506" lon="8.307263479877363"><ele>128.4</ele><time>2026-04-11T15:16:13.001Z</time></trkpt><trkpt lat="45.17039303184341" lon="8.30727264910527"><ele>129.0</ele><time>2026-04-11T15:16:15.001Z</time></trkpt><trkpt lat="45.170471533319756" lon="8.30734717931868"><ele>129.2</ele><time>2026-04-11T15:16:17.001Z</time></trkpt><trkpt lat="45.170539939690414" lon="8.307429914224098"><ele>129.4</ele><time>2026-04-11T15:16:19.002Z</time></trkpt><trkpt lat="45.170569035140616" lon="8.307571910454119"><ele>129.6</ele><time>2026-04-11T15:16:22.002Z</time></trkpt><trkpt lat="45.17053854594543" lon="8.307731713588865"><ele>129.8</ele><time>2026-04-11T15:16:24.002Z</time></trkpt><trkpt lat="45.1705335514304" lon="8.307899486031987"><ele>130.0</ele><time>2026-04-11T15:16:26.002Z</time></trkpt><trkpt lat="45.17052303436493" lon="8.308071509178577"><ele>130.0</ele><time>2026-04-11T15:16:28.002Z</time></trkpt><trkpt lat="45.17050375740644" lon="8.308238432280234"><ele>130.0</ele><time>2026-04-11T15:16:30.002Z</time></trkpt><trkpt lat="45.17048395212604" lon="8.308395026901442"><ele>130.0</ele><time>2026-04-11T15:16:32.002Z</time></trkpt><trkpt lat="45.170457524924494" lon="8.3085410626629"><ele>130.0</ele><time>2026-04-11T15:16:34.002Z</time></trkpt><trkpt lat="45.170421858544664" lon="8.308725472325806"><ele>130.0</ele><time>2026-04-11T15:16:36.002Z</time></trkpt><trkpt lat="45.17042480536847" lon="8.308831138078842"><ele>130.0</ele><time>2026-04-11T15:16:37.002Z</time></trkpt><trkpt lat="45.17042588066685" lon="8.30892763973129"><ele>130.0</ele><time>2026-04-11T15:16:38.002Z</time></trkpt><trkpt lat="45.170428265236794" lon="8.309057828899462"><ele>130.0</ele><time>2026-04-11T15:16:39.002Z</time></trkpt><trkpt lat="45.1704427490516" lon="8.30920443971078"><ele>130.0</ele><time>2026-04-11T15:16:40.002Z</time></trkpt><trkpt lat="45.170443863193604" lon="8.309350942385157"><ele>130.0</ele><time>2026-04-11T15:16:41.002Z</time></trkpt><trkpt lat="45.170444760008714" lon="8.30951601885666"><ele>129.75</ele><time>2026-04-11T15:16:42.002Z</time></trkpt><trkpt lat="45.17043828670145" lon="8.309696325767861"><ele>129.5</ele><time>2026-04-11T15:16:43.002Z</time></trkpt><trkpt lat="45.17044322758669" lon="8.30986265317754"><ele>129.25</ele><time>2026-04-11T15:16:44.002Z</time></trkpt><trkpt lat="45.170447600120355" lon="8.310015943457827"><ele>129.0</ele><time>2026-04-11T15:16:45.002Z</time></trkpt><trkpt lat="45.17045033478716" lon="8.310157522683062"><ele>128.25</ele><time>2026-04-11T15:16:46.002Z</time></trkpt><trkpt lat="45.17045303443353" lon="8.310297288526982"><ele>127.5</ele><time>2026-04-11T15:16:47.002Z</time></trkpt><trkpt lat="45.17045452575461" lon="8.310446358355122"><ele>126.75</ele><time>2026-04-11T15:16:48.002Z</time></trkpt><trkpt lat="45.170457231862954" lon="8.310622497869309"><ele>126.0</ele><time>2026-04-11T15:16:49.002Z</time></trkpt><trkpt lat="45.17046378075961" lon="8.310842084712771"><ele>125.33333333333334</ele><time>2026-04-11T15:16:50.002Z</time></trkpt><trkpt lat="45.170470440256594" lon="8.311089918949268"><ele>124.66666666666667</ele><time>2026-04-11T15:16:51.003Z</time></trkpt><trkpt lat="45.17047521615306" lon="8.31133518612042"><ele>124.0</ele><time>2026-04-11T15:16:52.003Z</time></trkpt><trkpt lat="45.17047824576194" lon="8.311586640653791"><ele>124.0</ele><time>2026-04-11T15:16:53.003Z</time></trkpt><trkpt lat="45.17048067290513" lon="8.311857728722185"><ele>124.0</ele><time>2026-04-11T15:16:54.003Z</time></trkpt><trkpt lat="45.170483271830385" lon="8.312148003464326"><ele>124.0</ele><time>2026-04-11T15:16:55.003Z</time></trkpt><trkpt lat="45.1704858324907" lon="8.312434004146082"><ele>124.66666666666667</ele><time>2026-04-11T15:16:56.003Z</time></trkpt><trkpt lat="45.17048863987078" lon="8.312725343170182"><ele>125.33333333333334</ele><time>2026-04-11T15:16:57.003Z</time></trkpt><trkpt lat="45.17049204047108" lon="8.312994706601541"><ele>126.0</ele><time>2026-04-11T15:16:57.998Z</time></trkpt><trkpt lat="45.17049537582916" lon="8.313258902114024"><ele>126.0</ele><time>2026-04-11T15:16:58.998Z</time></trkpt><trkpt lat="45.17049822048573" lon="8.313531009390784"><ele>126.0</ele><time>2026-04-11T15:16:59.998Z</time></trkpt><trkpt lat="45.17050026671922" lon="8.313818212576535"><ele>126.0</ele><time>2026-04-11T15:17:00.998Z</time></trkpt><trkpt lat="45.17050111290912" lon="8.314106817623884"><ele>126.0</ele><time>2026-04-11T15:17:01.998Z</time></trkpt><trkpt lat="45.17050204595838" lon="8.314422336583291"><ele>126.0</ele><time>2026-04-11T15:17:02.999Z</time></trkpt><trkpt lat="45.17050646942112" lon="8.314738484571402"><ele>126.0</ele><time>2026-04-11T15:17:03.999Z</time></trkpt><trkpt lat="45.17051126902714" lon="8.315049259072625"><ele>126.0</ele><time>2026-04-11T15:17:04.999Z</time></trkpt><trkpt lat="45.17051614511631" lon="8.3153649859111"><ele>126.0</ele><time>2026-04-11T15:17:05.999Z</time></trkpt><trkpt lat="45.17052059957866" lon="8.315678234817078"><ele>126.0</ele><time>2026-04-11T15:17:06.999Z</time></trkpt><trkpt lat="45.1705231703963" lon="8.315988577929899"><ele>126.33333333333334</ele><time>2026-04-11T15:17:07.999Z</time></trkpt><trkpt lat="45.170525680917784" lon="8.316291642248364"><ele>126.66666666666667</ele><time>2026-04-11T15:17:08.999Z</time></trkpt><trkpt lat="45.1705281344339" lon="8.31658782490316"><ele>127.0</ele><time>2026-04-11T15:17:09.999Z</time></trkpt><trkpt lat="45.170530884106945" lon="8.31687916227441"><ele>127.0</ele><time>2026-04-11T15:17:10.999Z</time></trkpt><trkpt lat="45.17053366508296" lon="8.317164221412083"><ele>127.0</ele><time>2026-04-11T15:17:11.999Z</time></trkpt><trkpt lat="45.170536426497925" lon="8.317447275663058"><ele>127.0</ele><time>2026-04-11T15:17:12.999Z</time></trkpt><trkpt lat="45.17053921791184" lon="8.317733404990749"><ele>126.66666666666667</ele><time>2026-04-11T15:17:13.999Z</time></trkpt><trkpt lat="45.17054194085888" lon="8.318012516035601"><ele>126.33333333333334</ele><time>2026-04-11T15:17:14.999Z</time></trkpt><trkpt lat="45.17054471155064" lon="8.3182828771194"><ele>126.0</ele><time>2026-04-11T15:17:15.999Z</time></trkpt><trkpt lat="45.17054770459547" lon="8.318546946661655"><ele>126.0</ele><time>2026-04-11T15:17:16.999Z</time></trkpt><trkpt lat="45.17055046926836" lon="8.318790867412522"><ele>126.0</ele><time>2026-04-11T15:17:18Z</time></trkpt><trkpt lat="45.1705530061913" lon="8.319014694525071"><ele>126.0</ele><time>2026-04-11T15:17:19Z</time></trkpt><trkpt lat="45.17055519937148" lon="8.319208194259096"><ele>126.0</ele><time>2026-04-11T15:17:20Z</time></trkpt><trkpt lat="45.17055712654878" lon="8.319378225053152"><ele>126.0</ele><time>2026-04-11T15:17:21Z</time></trkpt><trkpt lat="45.17055874922732" lon="8.319521390091936"><ele>126.0</ele><time>2026-04-11T15:17:22Z</time></trkpt><trkpt lat="45.170560418831265" lon="8.319668695676468"><ele>126.0</ele><time>2026-04-11T15:17:23Z</time></trkpt><trkpt lat="45.17056223435125" lon="8.319841122901378"><ele>126.0</ele><time>2026-04-11T15:17:24Z</time></trkpt><trkpt lat="45.170564006514084" lon="8.320042813936373"><ele>126.0</ele><time>2026-04-11T15:17:25Z</time></trkpt><trkpt lat="45.17056561130675" lon="8.3202643335394"><ele>126.0</ele><time>2026-04-11T15:17:26Z</time></trkpt><trkpt lat="45.17056626048759" lon="8.32049899498536"><ele>126.0</ele><time>2026-04-11T15:17:27Z</time></trkpt><trkpt lat="45.17056694467942" lon="8.320746312685817"><ele>126.0</ele><time>2026-04-11T15:17:28Z</time></trkpt><trkpt lat="45.170567968312106" lon="8.32099402342485"><ele>126.0</ele><time>2026-04-11T15:17:29Z</time></trkpt><trkpt lat="45.17056944522792" lon="8.321233741781965"><ele>126.0</ele><time>2026-04-11T15:17:30Z</time></trkpt><trkpt lat="45.170571459744345" lon="8.321471409325445"><ele>126.0</ele><time>2026-04-11T15:17:31Z</time></trkpt><trkpt lat="45.17057419925628" lon="8.321712961002818"><ele>126.0</ele><time>2026-04-11T15:17:32Z</time></trkpt><trkpt lat="45.17057722469429" lon="8.321979724004409"><ele>126.0</ele><time>2026-04-11T15:17:33Z</time></trkpt><trkpt lat="45.170580769868806" lon="8.322257983629056"><ele>126.0</ele><time>2026-04-11T15:17:34Z</time></trkpt><trkpt lat="45.17058449598504" lon="8.32254407924482"><ele>126.0</ele><time>2026-04-11T15:17:35Z</time></trkpt><trkpt lat="45.17058823224431" lon="8.322830953391891"><ele>126.0</ele><time>2026-04-11T15:17:36Z</time></trkpt><trkpt lat="45.17059188842854" lon="8.323111680099876"><ele>126.0</ele><time>2026-04-11T15:17:37Z</time></trkpt><trkpt lat="45.170595557281814" lon="8.323393377815743"><ele>126.0</ele><time>2026-04-11T15:17:38.001Z</time></trkpt><trkpt lat="45.1705992345768" lon="8.323675724443241"><ele>126.0</ele><time>2026-04-11T15:17:39.001Z</time></trkpt><trkpt lat="45.17060284155873" lon="8.323952673199626"><ele>125.33333333333334</ele><time>2026-04-11T15:17:40.001Z</time></trkpt><trkpt lat="45.17060658315319" lon="8.324214880725988"><ele>124.66666666666667</ele><time>2026-04-11T15:17:41.001Z</time></trkpt><trkpt lat="45.170610310611714" lon="8.324460892963947"><ele>124.0</ele><time>2026-04-11T15:17:42.001Z</time></trkpt><trkpt lat="45.1706132513422" lon="8.324688965995806"><ele>124.4</ele><time>2026-04-11T15:17:43.001Z</time></trkpt><trkpt lat="45.170610462859386" lon="8.324899863645827"><ele>124.80000000000001</ele><time>2026-04-11T15:17:44.001Z</time></trkpt><trkpt lat="45.17059174865119" lon="8.325055113601413"><ele>125.19999999999999</ele><time>2026-04-11T15:17:45.001Z</time></trkpt><trkpt lat="45.17056444652979" lon="8.32516894850587"><ele>125.6</ele><time>2026-04-11T15:17:46.001Z</time></trkpt><trkpt lat="45.17052235939796" lon="8.325285328320936"><ele>126.0</ele><time>2026-04-11T15:17:47.001Z</time></trkpt><trkpt lat="45.170464945260804" lon="8.32542290855926"><ele>125.75</ele><time>2026-04-11T15:17:48.001Z</time></trkpt><trkpt lat="45.170392811667035" lon="8.325586239481886"><ele>125.5</ele><time>2026-04-11T15:17:49.001Z</time></trkpt><trkpt lat="45.17031344060633" lon="8.325763000806486"><ele>125.25</ele><time>2026-04-11T15:17:50.001Z</time></trkpt><trkpt lat="45.17024396327591" lon="8.32595741546293"><ele>125.0</ele><time>2026-04-11T15:17:51.001Z</time></trkpt><trkpt lat="45.17015040178714" lon="8.32614255584717"><ele>125.0</ele><time>2026-04-11T15:17:52.001Z</time></trkpt><trkpt lat="45.17006179722142" lon="8.326336541345613"><ele>125.0</ele><time>2026-04-11T15:17:53.001Z</time></trkpt><trkpt lat="45.16997384229425" lon="8.326526791033618"><ele>125.0</ele><time>2026-04-11T15:17:54.001Z</time></trkpt><trkpt lat="45.169888111843115" lon="8.326721373045254"><ele>125.0</ele><time>2026-04-11T15:17:55.001Z</time></trkpt><trkpt lat="45.16980612831038" lon="8.326919502653515"><ele>125.0</ele><time>2026-04-11T15:17:56.001Z</time></trkpt><trkpt lat="45.16973145123755" lon="8.32712236493247"><ele>125.0</ele><time>2026-04-11T15:17:57.001Z</time></trkpt><trkpt lat="45.16967069300176" lon="8.327329604118532"><ele>125.0</ele><time>2026-04-11T15:17:58.001Z</time></trkpt><trkpt lat="45.16962586059085" lon="8.327535796737836"><ele>125.0</ele><time>2026-04-11T15:17:59.001Z</time></trkpt><trkpt lat="45.16959720043472" lon="8.327757199039388"><ele>125.0</ele><time>2026-04-11T15:18:00.001Z</time></trkpt><trkpt lat="45.169586279388916" lon="8.327982225546478"><ele>124.66666666666666</ele><time>2026-04-11T15:18:01.001Z</time></trkpt><trkpt lat="45.16959276537282" lon="8.328210792721418"><ele>124.33333333333334</ele><time>2026-04-11T15:18:02.001Z</time></trkpt><trkpt lat="45.16961595554724" lon="8.32842439725381"><ele>124.0</ele><time>2026-04-11T15:18:03.001Z</time></trkpt><trkpt lat="45.16966105699705" lon="8.328642595197719"><ele>124.0</ele><time>2026-04-11T15:18:04.001Z</time></trkpt><trkpt lat="45.16972745731859" lon="8.328863194111007"><ele>124.0</ele><time>2026-04-11T15:18:05.001Z</time></trkpt><trkpt lat="45.1698086759933" lon="8.329089208472974"><ele>124.0</ele><time>2026-04-11T15:18:06.002Z</time></trkpt><trkpt lat="45.16988028153775" lon="8.329338780271913"><ele>124.0</ele><time>2026-04-11T15:18:07.002Z</time></trkpt><trkpt lat="45.16997904812902" lon="8.32958364792951"><ele>124.0</ele><time>2026-04-11T15:18:08.002Z</time></trkpt><trkpt lat="45.170051731166915" lon="8.329834212323382"><ele>124.0</ele><time>2026-04-11T15:18:09.002Z</time></trkpt><trkpt lat="45.17011311653183" lon="8.330078432706161"><ele>124.33333333333334</ele><time>2026-04-11T15:18:10.002Z</time></trkpt><trkpt lat="45.17016631569287" lon="8.330332966684274"><ele>124.66666666666666</ele><time>2026-04-11T15:18:11.002Z</time></trkpt><trkpt lat="45.17020688919307" lon="8.330589078821628"><ele>125.0</ele><time>2026-04-11T15:18:12.002Z</time></trkpt><trkpt lat="45.17023647350498" lon="8.330856936745981"><ele>125.0</ele><time>2026-04-11T15:18:13.002Z</time></trkpt><trkpt lat="45.17025190654722" lon="8.331111251961923"><ele>125.0</ele><time>2026-04-11T15:18:14.002Z</time></trkpt><trkpt lat="45.170255691239326" lon="8.331369295770735"><ele>125.0</ele><time>2026-04-11T15:18:15.002Z</time></trkpt><trkpt lat="45.17024938160781" lon="8.331618745485708"><ele>125.33333333333333</ele><time>2026-04-11T15:18:16.002Z</time></trkpt><trkpt lat="45.1702422123051" lon="8.33186145512859"><ele>125.66666666666666</ele><time>2026-04-11T15:18:17.002Z</time></trkpt><trkpt lat="45.17023773894599" lon="8.332080796561062"><ele>126.0</ele><time>2026-04-11T15:18:18.002Z</time></trkpt><trkpt lat="45.17023319967179" lon="8.332300783286334"><ele>126.0</ele><time>2026-04-11T15:18:19.002Z</time></trkpt><trkpt lat="45.1702306424635" lon="8.332528954331428"><ele>126.0</ele><time>2026-04-11T15:18:20.002Z</time></trkpt><trkpt lat="45.17020773323157" lon="8.332766431772265"><ele>126.0</ele><time>2026-04-11T15:18:21.002Z</time></trkpt><trkpt lat="45.170222356161744" lon="8.333011852782558"><ele>126.0</ele><time>2026-04-11T15:18:22.002Z</time></trkpt><trkpt lat="45.170221516548565" lon="8.333270763457797"><ele>126.0</ele><time>2026-04-11T15:18:23.002Z</time></trkpt><trkpt lat="45.17020671330262" lon="8.33352748251474"><ele>126.0</ele><time>2026-04-11T15:18:24.002Z</time></trkpt><trkpt lat="45.17020847398174" lon="8.333792210373794"><ele>125.66666666666666</ele><time>2026-04-11T15:18:25.002Z</time></trkpt><trkpt lat="45.17021089621054" lon="8.334061866120479"><ele>125.33333333333333</ele><time>2026-04-11T15:18:26.002Z</time></trkpt><trkpt lat="45.1702164482656" lon="8.33432592042679"><ele>125.0</ele><time>2026-04-11T15:18:27.002Z</time></trkpt><trkpt lat="45.17024184975946" lon="8.33457970147996"><ele>124.66666666666666</ele><time>2026-04-11T15:18:28.002Z</time></trkpt><trkpt lat="45.17025151851832" lon="8.334824442586953"><ele>124.33333333333334</ele><time>2026-04-11T15:18:29.002Z</time></trkpt><trkpt lat="45.17024440756713" lon="8.335061602197902"><ele>124.0</ele><time>2026-04-11T15:18:30.002Z</time></trkpt><trkpt lat="45.17025994446203" lon="8.335314385267356"><ele>124.33333333333334</ele><time>2026-04-11T15:18:31.002Z</time></trkpt><trkpt lat="45.17027923388894" lon="8.335577388483758"><ele>124.66666666666666</ele><time>2026-04-11T15:18:32.002Z</time></trkpt><trkpt lat="45.17030844748877" lon="8.33584362773154"><ele>125.0</ele><time>2026-04-11T15:18:33.002Z</time></trkpt><trkpt lat="45.17035595515124" lon="8.336111469014565"><ele>125.0</ele><time>2026-04-11T15:18:34.002Z</time></trkpt><trkpt lat="45.17039218687842" lon="8.336384459977554"><ele>125.0</ele><time>2026-04-11T15:18:35.002Z</time></trkpt><trkpt lat="45.170417311007796" lon="8.336666307055154"><ele>125.0</ele><time>2026-04-11T15:18:36.002Z</time></trkpt><trkpt lat="45.17045483740675" lon="8.336939496060646"><ele>124.66666666666666</ele><time>2026-04-11T15:18:37.002Z</time></trkpt><trkpt lat="45.170493537239125" lon="8.33721127838282"><ele>124.33333333333334</ele><time>2026-04-11T15:18:38.003Z</time></trkpt><trkpt lat="45.17052960362344" lon="8.337466948173617"><ele>124.0</ele><time>2026-04-11T15:18:39.003Z</time></trkpt><trkpt lat="45.17056729309867" lon="8.337734123843076"><ele>123.66666666666667</ele><time>2026-04-11T15:18:40.003Z</time></trkpt><trkpt lat="45.17060583487261" lon="8.338001542645316"><ele>123.33333333333334</ele><time>2026-04-11T15:18:41.003Z</time></trkpt><trkpt lat="45.17064598376816" lon="8.338270536681872"><ele>123.0</ele><time>2026-04-11T15:18:42.003Z</time></trkpt><trkpt lat="45.17068706560833" lon="8.338532538922717"><ele>122.66666666666666</ele><time>2026-04-11T15:18:43.003Z</time></trkpt><trkpt lat="45.17072835386985" lon="8.33879245176856"><ele>122.33333333333333</ele><time>2026-04-11T15:18:44.003Z</time></trkpt><trkpt lat="45.170768142727134" lon="8.339041054663934"><ele>122.0</ele><time>2026-04-11T15:18:45.003Z</time></trkpt><trkpt lat="45.17080712833382" lon="8.339284639118635"><ele>122.0</ele><time>2026-04-11T15:18:46.003Z</time></trkpt><trkpt lat="45.17084393385531" lon="8.339518094585802"><ele>122.0</ele><time>2026-04-11T15:18:47.003Z</time></trkpt><trkpt lat="45.17087741959875" lon="8.33974411153623"><ele>122.0</ele><time>2026-04-11T15:18:48.003Z</time></trkpt><trkpt lat="45.17090264631185" lon="8.339962203052186"><ele>122.0</ele><time>2026-04-11T15:18:49.003Z</time></trkpt><trkpt lat="45.17091569039875" lon="8.340179236438333"><ele>122.0</ele><time>2026-04-11T15:18:50.003Z</time></trkpt><trkpt lat="45.17093056571078" lon="8.34041235053814"><ele>122.0</ele><time>2026-04-11T15:18:51.003Z</time></trkpt><trkpt lat="45.170945680061905" lon="8.34064921035038"><ele>122.33333333333333</ele><time>2026-04-11T15:18:52.003Z</time></trkpt><trkpt lat="45.17096005602896" lon="8.340887596530575"><ele>122.66666666666666</ele><time>2026-04-11T15:18:53.003Z</time></trkpt><trkpt lat="45.17097414492637" lon="8.341132513119433"><ele>123.0</ele><time>2026-04-11T15:18:54.003Z</time></trkpt><trkpt lat="45.17098638070189" lon="8.341377954370527"><ele>123.0</ele><time>2026-04-11T15:18:55.003Z</time></trkpt><trkpt lat="45.1709984443613" lon="8.34162263149295"><ele>123.0</ele><time>2026-04-11T15:18:56.003Z</time></trkpt><trkpt lat="45.17100901029691" lon="8.341850786796762"><ele>123.0</ele><time>2026-04-11T15:18:57.003Z</time></trkpt><trkpt lat="45.17101552872757" lon="8.342064101564814"><ele>123.33333333333334</ele><time>2026-04-11T15:18:58.003Z</time></trkpt><trkpt lat="45.17102419555664" lon="8.3422974038023"><ele>123.66666666666667</ele><time>2026-04-11T15:18:59.003Z</time></trkpt><trkpt lat="45.171037370819306" lon="8.342538924318285"><ele>124.0</ele><time>2026-04-11T15:19:00.003Z</time></trkpt><trkpt lat="45.17105109656538" lon="8.342777132573444"><ele>124.0</ele><time>2026-04-11T15:19:01.003Z</time></trkpt><trkpt lat="45.17106368201164" lon="8.34299555087111"><ele>124.0</ele><time>2026-04-11T15:19:02.003Z</time></trkpt><trkpt lat="45.17107478989795" lon="8.34318832629266"><ele>124.0</ele><time>2026-04-11T15:19:03.003Z</time></trkpt><trkpt lat="45.17108303399778" lon="8.343331401409642"><ele>124.0</ele><time>2026-04-11T15:19:03.998Z</time></trkpt><trkpt lat="45.171089302080766" lon="8.343440182939062"><ele>123.83333333333334</ele><time>2026-04-11T15:19:04.998Z</time></trkpt><trkpt lat="45.171094411566905" lon="8.343542439139608"><ele>123.66666666666667</ele><time>2026-04-11T15:19:05.998Z</time></trkpt><trkpt lat="45.17109997312672" lon="8.343663218713882"><ele>123.5</ele><time>2026-04-11T15:19:07.998Z</time></trkpt><trkpt lat="45.17110064481797" lon="8.343797397665233"><ele>123.33333333333334</ele><time>2026-04-11T15:19:31Z</time></trkpt><trkpt lat="45.17108249036806" lon="8.343899875068802"><ele>123.16666666666667</ele><time>2026-04-11T15:19:32Z</time></trkpt><trkpt lat="45.17104979290793" lon="8.343987891023309"><ele>123.0</ele><time>2026-04-11T15:19:33Z</time></trkpt><trkpt lat="45.1709989509798" lon="8.34409697140114"><ele>123.0</ele><time>2026-04-11T15:19:34Z</time></trkpt><trkpt lat="45.17094041833474" lon="8.344237296017567"><ele>123.0</ele><time>2026-04-11T15:19:35Z</time></trkpt><trkpt lat="45.17089880304436" lon="8.344381507205748"><ele>123.0</ele><time>2026-04-11T15:19:36Z</time></trkpt><trkpt lat="45.17086505689253" lon="8.344539087269046"><ele>123.0</ele><time>2026-04-11T15:19:37Z</time></trkpt><trkpt lat="45.17082255260102" lon="8.344703139369004"><ele>123.25</ele><time>2026-04-11T15:19:38Z</time></trkpt><trkpt lat="45.17077338580944" lon="8.344871753080184"><ele>123.5</ele><time>2026-04-11T15:19:39Z</time></trkpt><trkpt lat="45.17072024119477" lon="8.34504202936993"><ele>123.75</ele><time>2026-04-11T15:19:40Z</time></trkpt><trkpt lat="45.17067258717049" lon="8.34519840378003"><ele>124.0</ele><time>2026-04-11T15:19:41Z</time></trkpt><trkpt lat="45.1706321556392" lon="8.345345001065047"><ele>124.0</ele><time>2026-04-11T15:19:42.001Z</time></trkpt><trkpt lat="45.170597321400415" lon="8.345483609992796"><ele>124.0</ele><time>2026-04-11T15:19:43.001Z</time></trkpt><trkpt lat="45.17057276650616" lon="8.345603784319747"><ele>124.0</ele><time>2026-04-11T15:19:44.001Z</time></trkpt><trkpt lat="45.17057036645607" lon="8.345723455557435"><ele>124.0</ele><time>2026-04-11T15:19:45.001Z</time></trkpt><trkpt lat="45.17054695298679" lon="8.34585691811218"><ele>124.0</ele><time>2026-04-11T15:19:46.001Z</time></trkpt><trkpt lat="45.17052345000735" lon="8.346019823257691"><ele>124.0</ele><time>2026-04-11T15:19:47.001Z</time></trkpt><trkpt lat="45.17050476762751" lon="8.346194078275165"><ele>124.0</ele><time>2026-04-11T15:19:48.001Z</time></trkpt><trkpt lat="45.17054887188947" lon="8.346395268882414"><ele>124.0</ele><time>2026-04-11T15:19:49.001Z</time></trkpt><trkpt lat="45.17052567276147" lon="8.346586866606092"><ele>124.0</ele><time>2026-04-11T15:19:50.001Z</time></trkpt><trkpt lat="45.17050864300202" lon="8.3467572441433"><ele>123.80000000000001</ele><time>2026-04-11T15:19:51.001Z</time></trkpt><trkpt lat="45.17049362399359" lon="8.34690750500001"><ele>123.60000000000001</ele><time>2026-04-11T15:19:52.001Z</time></trkpt><trkpt lat="45.170476331629516" lon="8.347053302648755"><ele>123.4</ele><time>2026-04-11T15:19:53.001Z</time></trkpt><trkpt lat="45.17042683856713" lon="8.347210624560358"><ele>123.2</ele><time>2026-04-11T15:19:54.001Z</time></trkpt><trkpt lat="45.17037421621082" lon="8.347325327608788"><ele>123.0</ele><time>2026-04-11T15:19:55.001Z</time></trkpt><trkpt lat="45.17030961388639" lon="8.347452498787286"><ele>122.80000000000001</ele><time>2026-04-11T15:19:56.001Z</time></trkpt><trkpt lat="45.17024095137347" lon="8.34757714875478"><ele>122.60000000000001</ele><time>2026-04-11T15:19:57.001Z</time></trkpt><trkpt lat="45.170172761517456" lon="8.3477090309198"><ele>122.39999999999999</ele><time>2026-04-11T15:19:58.001Z</time></trkpt><trkpt lat="45.1701118149535" lon="8.347827064378656"><ele>122.19999999999999</ele><time>2026-04-11T15:19:59.001Z</time></trkpt><trkpt lat="45.170058599001976" lon="8.347932831560497"><ele>122.0</ele><time>2026-04-11T15:20:00.001Z</time></trkpt><trkpt lat="45.16999672613051" lon="8.348055804504707"><ele>121.75</ele><time>2026-04-11T15:20:01.001Z</time></trkpt><trkpt lat="45.16992954587429" lon="8.348195473753902"><ele>121.5</ele><time>2026-04-11T15:20:02.001Z</time></trkpt><trkpt lat="45.16985743950298" lon="8.348350598395422"><ele>121.25</ele><time>2026-04-11T15:20:03.001Z</time></trkpt><trkpt lat="45.1697841518086" lon="8.348513050330869"><ele>121.0</ele><time>2026-04-11T15:20:04.001Z</time></trkpt><trkpt lat="45.16971709710621" lon="8.348665603531577"><ele>121.0</ele><time>2026-04-11T15:20:05.001Z</time></trkpt><trkpt lat="45.16966280698882" lon="8.3487984807348"><ele>121.0</ele><time>2026-04-11T15:20:06.001Z</time></trkpt><trkpt lat="45.16961556819861" lon="8.348920398822"><ele>121.0</ele><time>2026-04-11T15:20:07.001Z</time></trkpt><trkpt lat="45.16957251208993" lon="8.349025965741653"><ele>121.0</ele><time>2026-04-11T15:20:08.001Z</time></trkpt><trkpt lat="45.169524952980666" lon="8.34913191211609"><ele>121.0</ele><time>2026-04-11T15:20:09.001Z</time></trkpt><trkpt lat="45.16946028846272" lon="8.349259127752298"><ele>121.0</ele><time>2026-04-11T15:20:10.002Z</time></trkpt><trkpt lat="45.16937808240289" lon="8.349378932329163"><ele>121.0</ele><time>2026-04-11T15:20:11.002Z</time></trkpt><trkpt lat="45.16928552695038" lon="8.349480603021506"><ele>121.0</ele><time>2026-04-11T15:20:12.002Z</time></trkpt><trkpt lat="45.16918430419723" lon="8.349575455764837"><ele>121.0</ele><time>2026-04-11T15:20:13.002Z</time></trkpt><trkpt lat="45.16907992650662" lon="8.34966837849144"><ele>121.0</ele><time>2026-04-11T15:20:14.002Z</time></trkpt><trkpt lat="45.16897353309277" lon="8.349762578694909"><ele>121.0</ele><time>2026-04-11T15:20:15.002Z</time></trkpt><trkpt lat="45.1688739201622" lon="8.349850775648482"><ele>121.0</ele><time>2026-04-11T15:20:16.002Z</time></trkpt><trkpt lat="45.16876552972119" lon="8.349946743993865"><ele>121.0</ele><time>2026-04-11T15:20:17.002Z</time></trkpt><trkpt lat="45.16867093700794" lon="8.350030496034101"><ele>121.0</ele><time>2026-04-11T15:20:18.002Z</time></trkpt><trkpt lat="45.16857470864215" lon="8.350115695792725"><ele>121.0</ele><time>2026-04-11T15:20:19.002Z</time></trkpt><trkpt lat="45.168481717688756" lon="8.350198029824604"><ele>121.0</ele><time>2026-04-11T15:20:20.002Z</time></trkpt><trkpt lat="45.16839717757265" lon="8.350273521649042"><ele>121.0</ele><time>2026-04-11T15:20:21.002Z</time></trkpt><trkpt lat="45.168314960654875" lon="8.350351677780637"><ele>121.0</ele><time>2026-04-11T15:20:22.002Z</time></trkpt><trkpt lat="45.16822933710304" lon="8.35044064054669"><ele>121.0</ele><time>2026-04-11T15:20:23.002Z</time></trkpt><trkpt lat="45.16814962502641" lon="8.350533558358624"><ele>121.0</ele><time>2026-04-11T15:20:24.002Z</time></trkpt><trkpt lat="45.16807218375327" lon="8.350633753389353"><ele>121.0</ele><time>2026-04-11T15:20:25.002Z</time></trkpt><trkpt lat="45.16798754170566" lon="8.350752829827513"><ele>121.0</ele><time>2026-04-11T15:20:26.002Z</time></trkpt><trkpt lat="45.1679065386061" lon="8.350872192217176"><ele>121.0</ele><time>2026-04-11T15:20:27.002Z</time></trkpt><trkpt lat="45.1678173121218" lon="8.351005217095105"><ele>121.0</ele><time>2026-04-11T15:20:28.002Z</time></trkpt><trkpt lat="45.16772896223233" lon="8.35113264781877"><ele>121.0</ele><time>2026-04-11T15:20:29.002Z</time></trkpt><trkpt lat="45.16765201660943" lon="8.351232312310746"><ele>121.0</ele><time>2026-04-11T15:20:30.002Z</time></trkpt><trkpt lat="45.16758667746093" lon="8.351306563911919"><ele>121.0</ele><time>2026-04-11T15:20:31.002Z</time></trkpt><trkpt lat="45.16752325390368" lon="8.351358774950354"><ele>121.0</ele><time>2026-04-11T15:20:32.002Z</time></trkpt><trkpt lat="45.167441451970255" lon="8.35146041524459"><ele>121.19999999999999</ele><time>2026-04-11T15:20:34.002Z</time></trkpt><trkpt lat="45.167390525004706" lon="8.351552536810402"><ele>121.39999999999999</ele><time>2026-04-11T15:20:35.002Z</time></trkpt><trkpt lat="45.16731352559288" lon="8.351649588876912"><ele>121.6</ele><time>2026-04-11T15:20:36.002Z</time></trkpt><trkpt lat="45.16723502923485" lon="8.351775678430402"><ele>121.8</ele><time>2026-04-11T15:20:37.002Z</time></trkpt><trkpt lat="45.167164394579665" lon="8.351926578306964"><ele>122.0</ele><time>2026-04-11T15:20:38.002Z</time></trkpt><trkpt lat="45.16706727846359" lon="8.352052178475192"><ele>123.66666666666666</ele><time>2026-04-11T15:20:39.002Z</time></trkpt><trkpt lat="45.166986423342045" lon="8.352220873528333"><ele>125.33333333333334</ele><time>2026-04-11T15:20:40.002Z</time></trkpt><trkpt lat="45.16689124540356" lon="8.352393784459528"><ele>127.0</ele><time>2026-04-11T15:20:41.002Z</time></trkpt><trkpt lat="45.16679475362883" lon="8.35256027369474"><ele>127.0</ele><time>2026-04-11T15:20:42.003Z</time></trkpt><trkpt lat="45.1667032830663" lon="8.352718852450918"><ele>127.0</ele><time>2026-04-11T15:20:43.003Z</time></trkpt><trkpt lat="45.16661169195149" lon="8.352884410625862"><ele>127.0</ele><time>2026-04-11T15:20:44.003Z</time></trkpt><trkpt lat="45.166498722312994" lon="8.35303500299269"><ele>127.0</ele><time>2026-04-11T15:20:45.003Z</time></trkpt><trkpt lat="45.16638739932795" lon="8.353195264809633"><ele>125.33333333333334</ele><time>2026-04-11T15:20:46.003Z</time></trkpt><trkpt lat="45.16629069623943" lon="8.353370839664407"><ele>123.66666666666666</ele><time>2026-04-11T15:20:47.003Z</time></trkpt><trkpt lat="45.16617973867636" lon="8.353534198689704"><ele>122.0</ele><time>2026-04-11T15:20:48.003Z</time></trkpt><trkpt lat="45.16607426431243" lon="8.353704230474031"><ele>121.33333333333333</ele><time>2026-04-11T15:20:49.003Z</time></trkpt><trkpt lat="45.16597669079832" lon="8.353886175596699"><ele>120.66666666666666</ele><time>2026-04-11T15:20:50.003Z</time></trkpt><trkpt lat="45.16587877771324" lon="8.354063119972306"><ele>120.0</ele><time>2026-04-11T15:20:51.003Z</time></trkpt><trkpt lat="45.16581351961485" lon="8.35427942982626"><ele>120.0</ele><time>2026-04-11T15:20:52.003Z</time></trkpt><trkpt lat="45.16572183205772" lon="8.354479729562723"><ele>120.0</ele><time>2026-04-11T15:20:53.003Z</time></trkpt><trkpt lat="45.16564239305784" lon="8.35467878964511"><ele>120.0</ele><time>2026-04-11T15:20:54.003Z</time></trkpt><trkpt lat="45.165571011004616" lon="8.354857660531698"><ele>120.0</ele><time>2026-04-11T15:20:55.003Z</time></trkpt><trkpt lat="45.165504656297486" lon="8.355025400087744"><ele>120.0</ele><time>2026-04-11T15:20:56.003Z</time></trkpt><trkpt lat="45.165451046210755" lon="8.355194860154413"><ele>120.0</ele><time>2026-04-11T15:20:57.003Z</time></trkpt><trkpt lat="45.16538490590192" lon="8.355333207848652"><ele>120.0</ele><time>2026-04-11T15:20:58.003Z</time></trkpt><trkpt lat="45.165335894544526" lon="8.355459187413652"><ele>119.83333333333333</ele><time>2026-04-11T15:20:59.003Z</time></trkpt><trkpt lat="45.16531495028981" lon="8.355576009082661"><ele>119.66666666666666</ele><time>2026-04-11T15:21:00.003Z</time></trkpt><trkpt lat="45.16528052100986" lon="8.355659339872725"><ele>119.5</ele><time>2026-04-11T15:21:01.003Z</time></trkpt><trkpt lat="45.165297036910246" lon="8.355754744272147"><ele>119.33333333333333</ele><time>2026-04-11T15:21:02.003Z</time></trkpt><trkpt lat="45.16532358048151" lon="8.355857102719243"><ele>119.16666666666666</ele><time>2026-04-11T15:21:03.003Z</time></trkpt><trkpt lat="45.165393201395204" lon="8.355935961443155"><ele>119.0</ele><time>2026-04-11T15:21:04.003Z</time></trkpt><trkpt lat="45.165425548431344" lon="8.35605198213129"><ele>119.0</ele><time>2026-04-11T15:21:05.003Z</time></trkpt><trkpt lat="45.16544440248712" lon="8.356194170503516"><ele>119.0</ele><time>2026-04-11T15:21:06.003Z</time></trkpt><trkpt lat="45.1654675348796" lon="8.3563580215018"><ele>119.0</ele><time>2026-04-11T15:21:07.003Z</time></trkpt><trkpt lat="45.165506935175486" lon="8.35650645780132"><ele>119.0</ele><time>2026-04-11T15:21:08.003Z</time></trkpt><trkpt lat="45.165515774858584" lon="8.356645675309492"><ele>119.0</ele><time>2026-04-11T15:21:09.003Z</time></trkpt><trkpt lat="45.165550897905455" lon="8.356762932305884"><ele>119.42857142857143</ele><time>2026-04-11T15:21:09.999Z</time></trkpt><trkpt lat="45.165567391077225" lon="8.356874751615782"><ele>119.85714285714286</ele><time>2026-04-11T15:21:10.999Z</time></trkpt><trkpt lat="45.16558380179043" lon="8.356977442474948"><ele>120.28571428571428</ele><time>2026-04-11T15:21:11.999Z</time></trkpt><trkpt lat="45.16560389591743" lon="8.357071039223088"><ele>120.71428571428571</ele><time>2026-04-11T15:21:12.999Z</time></trkpt><trkpt lat="45.16561099897207" lon="8.357174450691604"><ele>121.14285714285714</ele><time>2026-04-11T15:21:13.999Z</time></trkpt><trkpt lat="45.165629831072856" lon="8.357269341708855"><ele>121.57142857142856</ele><time>2026-04-11T15:21:14.999Z</time></trkpt><trkpt lat="45.16566236112826" lon="8.357351495474068"><ele>121.99999999999999</ele><time>2026-04-11T15:21:15.999Z</time></trkpt><trkpt lat="45.16568552762448" lon="8.357527304434168"><ele>121.8</ele><time>2026-04-11T15:21:17.999Z</time></trkpt><trkpt lat="45.16570559046279" lon="8.357618045930382"><ele>121.6</ele><time>2026-04-11T15:21:18.999Z</time></trkpt><trkpt lat="45.16574164915782" lon="8.357785865448717"><ele>121.39999999999999</ele><time>2026-04-11T15:21:20.999Z</time></trkpt><trkpt lat="45.16577478763579" lon="8.357956002111859"><ele>121.19999999999999</ele><time>2026-04-11T15:21:22.999Z</time></trkpt><trkpt lat="45.16580867438266" lon="8.35804801310675"><ele>121.0</ele><time>2026-04-11T15:21:23.999Z</time></trkpt><trkpt lat="45.165837013848765" lon="8.358228742936154"><ele>120.8</ele><time>2026-04-11T15:21:26Z</time></trkpt><trkpt lat="45.16585700559582" lon="8.35833332070314"><ele>120.6</ele><time>2026-04-11T15:21:27Z</time></trkpt><trkpt lat="45.165875703448286" lon="8.358453289891555"><ele>120.4</ele><time>2026-04-11T15:21:28Z</time></trkpt><trkpt lat="45.16589935101464" lon="8.358581619687127"><ele>120.2</ele><time>2026-04-11T15:21:29Z</time></trkpt><trkpt lat="45.16592649062103" lon="8.35871673887561"><ele>120.0</ele><time>2026-04-11T15:21:30Z</time></trkpt><trkpt lat="45.16594981034944" lon="8.358852822038504"><ele>120.0</ele><time>2026-04-11T15:21:31Z</time></trkpt><trkpt lat="45.16597545604752" lon="8.35898100953792"><ele>120.0</ele><time>2026-04-11T15:21:32Z</time></trkpt><trkpt lat="45.16600211763092" lon="8.35910617204237"><ele>120.0</ele><time>2026-04-11T15:21:33Z</time></trkpt><trkpt lat="45.16601821507183" lon="8.359239776536244"><ele>120.0</ele><time>2026-04-11T15:21:34Z</time></trkpt><trkpt lat="45.166033249309166" lon="8.359360394301302"><ele>120.0</ele><time>2026-04-11T15:21:35Z</time></trkpt><trkpt lat="45.16604131591149" lon="8.359465795599261"><ele>120.0</ele><time>2026-04-11T15:21:36Z</time></trkpt><trkpt lat="45.166061024765824" lon="8.359555531222178"><ele>120.2</ele><time>2026-04-11T15:21:37Z</time></trkpt><trkpt lat="45.166118578541614" lon="8.35970225325756"><ele>120.4</ele><time>2026-04-11T15:21:39Z</time></trkpt><trkpt lat="45.166175901407165" lon="8.359859803917832"><ele>120.6</ele><time>2026-04-11T15:21:41Z</time></trkpt><trkpt lat="45.16621769661585" lon="8.35995232775623"><ele>120.8</ele><time>2026-04-11T15:21:42Z</time></trkpt><trkpt lat="45.16626277829238" lon="8.360054714742484"><ele>121.0</ele><time>2026-04-11T15:21:43Z</time></trkpt><trkpt lat="45.16630007644492" lon="8.360187069830705"><ele>121.0</ele><time>2026-04-11T15:21:44.001Z</time></trkpt><trkpt lat="45.16636711069773" lon="8.360307936765095"><ele>121.0</ele><time>2026-04-11T15:21:45.001Z</time></trkpt><trkpt lat="45.16641004482473" lon="8.36046301010419"><ele>121.0</ele><time>2026-04-11T15:21:46.001Z</time></trkpt><trkpt lat="45.166462021079" lon="8.360600450076124"><ele>121.0</ele><time>2026-04-11T15:21:47.001Z</time></trkpt><trkpt lat="45.16651257514332" lon="8.360738606699783"><ele>121.0</ele><time>2026-04-11T15:21:48.001Z</time></trkpt><trkpt lat="45.16656800203019" lon="8.360851424048917"><ele>121.16666666666667</ele><time>2026-04-11T15:21:49.001Z</time></trkpt><trkpt lat="45.166605573181904" lon="8.360967275541222"><ele>121.33333333333334</ele><time>2026-04-11T15:21:50.001Z</time></trkpt><trkpt lat="45.166650469944095" lon="8.361074137904799"><ele>121.5</ele><time>2026-04-11T15:21:51.001Z</time></trkpt><trkpt lat="45.16668147773306" lon="8.361186419492617"><ele>121.66666666666666</ele><time>2026-04-11T15:21:52.001Z</time></trkpt><trkpt lat="45.16671829468137" lon="8.361290737936692"><ele>121.83333333333333</ele><time>2026-04-11T15:21:53.001Z</time></trkpt><trkpt lat="45.166748915630464" lon="8.361377581650173"><ele>122.0</ele><time>2026-04-11T15:21:54.001Z</time></trkpt><trkpt lat="45.16680803131411" lon="8.361477679037888"><ele>122.0</ele><time>2026-04-11T15:21:58.001Z</time></trkpt><trkpt lat="45.16686713202619" lon="8.36162452462701"><ele>121.99999999999999</ele><time>2026-04-11T15:22:00.001Z</time></trkpt><trkpt lat="45.16691243523836" lon="8.361736488633621"><ele>121.99999999999999</ele><time>2026-04-11T15:22:01.001Z</time></trkpt><trkpt lat="45.16697226403649" lon="8.361846588245012"><ele>122.0</ele><time>2026-04-11T15:22:02.001Z</time></trkpt><trkpt lat="45.16703375951744" lon="8.36199826694514"><ele>122.0</ele><time>2026-04-11T15:22:03.001Z</time></trkpt><trkpt lat="45.1670979932953" lon="8.362141463616394"><ele>122.0</ele><time>2026-04-11T15:22:04.001Z</time></trkpt><trkpt lat="45.167166796971635" lon="8.362278735924223"><ele>122.0</ele><time>2026-04-11T15:22:05.001Z</time></trkpt><trkpt lat="45.16722851194598" lon="8.362423982676257"><ele>122.0</ele><time>2026-04-11T15:22:06.001Z</time></trkpt><trkpt lat="45.16729419482007" lon="8.36255524221816"><ele>122.0</ele><time>2026-04-11T15:22:07.001Z</time></trkpt><trkpt lat="45.1673519693513" lon="8.362682891041759"><ele>122.0</ele><time>2026-04-11T15:22:08.001Z</time></trkpt><trkpt lat="45.167398257551035" lon="8.362798427604508"><ele>121.99999999999999</ele><time>2026-04-11T15:22:09.001Z</time></trkpt><trkpt lat="45.16744411893381" lon="8.36288693820537"><ele>121.99999999999999</ele><time>2026-04-11T15:22:10.001Z</time></trkpt><trkpt lat="45.167480917282525" lon="8.36299264590473"><ele>122.0</ele><time>2026-04-11T15:22:11.001Z</time></trkpt><trkpt lat="45.1675191020925" lon="8.363114482336021"><ele>122.0</ele><time>2026-04-11T15:22:12.001Z</time></trkpt><trkpt lat="45.16752445690817" lon="8.36326826520969"><ele>122.0</ele><time>2026-04-11T15:22:13.002Z</time></trkpt><trkpt lat="45.16755616881969" lon="8.363410745966045"><ele>121.99999999999999</ele><time>2026-04-11T15:22:14.002Z</time></trkpt><trkpt lat="45.16757159212253" lon="8.363567738671668"><ele>121.99999999999999</ele><time>2026-04-11T15:22:15.002Z</time></trkpt><trkpt lat="45.167569420977934" lon="8.36371217108579"><ele>122.0</ele><time>2026-04-11T15:22:16.002Z</time></trkpt><trkpt lat="45.16757796765855" lon="8.363817195326227"><ele>122.0</ele><time>2026-04-11T15:22:17.002Z</time></trkpt><trkpt lat="45.167478189519365" lon="8.363845752001305"><ele>121.8</ele><time>2026-04-11T15:22:21.002Z</time></trkpt><trkpt lat="45.16734680648082" lon="8.36387603065221"><ele>121.6</ele><time>2026-04-11T15:22:23.002Z</time></trkpt><trkpt lat="45.16726920891708" lon="8.363889065987758"><ele>121.39999999999999</ele><time>2026-04-11T15:22:24.002Z</time></trkpt><trkpt lat="45.16718123391865" lon="8.36389377224009"><ele>121.19999999999999</ele><time>2026-04-11T15:22:25.002Z</time></trkpt><trkpt lat="45.16707555993846" lon="8.363916023729994"><ele>121.0</ele><time>2026-04-11T15:22:26.002Z</time></trkpt><trkpt lat="45.166971615821524" lon="8.363928600306677"><ele>121.0</ele><time>2026-04-11T15:22:27.002Z</time></trkpt><trkpt lat="45.16687213107803" lon="8.363929747414325"><ele>121.0</ele><time>2026-04-11T15:22:28.002Z</time></trkpt><trkpt lat="45.16677511809254" lon="8.363947995527319"><ele>121.0</ele><time>2026-04-11T15:22:29.002Z</time></trkpt><trkpt lat="45.16667040065579" lon="8.36395807503994"><ele>121.0</ele><time>2026-04-11T15:22:30.002Z</time></trkpt><trkpt lat="45.16657062173684" lon="8.363973929383635"><ele>121.0</ele><time>2026-04-11T15:22:31.002Z</time></trkpt><trkpt lat="45.16647517105953" lon="8.363984953165746"><ele>121.00000000000001</ele><time>2026-04-11T15:22:32.002Z</time></trkpt><trkpt lat="45.166379670951855" lon="8.36399373075215"><ele>121.0</ele><time>2026-04-11T15:22:33.002Z</time></trkpt><trkpt lat="45.16628809625366" lon="8.364005718241717"><ele>121.0</ele><time>2026-04-11T15:22:34.002Z</time></trkpt><trkpt lat="45.16621387468125" lon="8.364014502790377"><ele>121.0</ele><time>2026-04-11T15:22:35.002Z</time></trkpt><trkpt lat="45.166137179860605" lon="8.364027913277935"><ele>121.00000000000001</ele><time>2026-04-11T15:22:37.002Z</time></trkpt><trkpt lat="45.16606930216015" lon="8.364024400418641"><ele>121.0</ele><time>2026-04-11T15:22:49.003Z</time></trkpt><trkpt lat="45.1660407723937" lon="8.364164100207203"><ele>121.00000000000001</ele><time>2026-04-11T15:22:50.003Z</time></trkpt><trkpt lat="45.166016597224456" lon="8.36425256273013"><ele>121.0</ele><time>2026-04-11T15:22:51.003Z</time></trkpt><trkpt lat="45.16598021968192" lon="8.36442984330768"><ele>121.0</ele><time>2026-04-11T15:22:53.003Z</time></trkpt><trkpt lat="45.165955913609075" lon="8.364531335362594"><ele>121.0</ele><time>2026-04-11T15:22:54.003Z</time></trkpt><trkpt lat="45.16592837859338" lon="8.364632339620087"><ele>121.00000000000001</ele><time>2026-04-11T15:22:55.003Z</time></trkpt><trkpt lat="45.16589745302509" lon="8.36472122876102"><ele>121.0</ele><time>2026-04-11T15:22:56.003Z</time></trkpt><trkpt lat="45.16582033708327" lon="8.36483904167205"><ele>121.0</ele><time>2026-04-11T15:22:58.003Z</time></trkpt><trkpt lat="45.16566311731555" lon="8.364897532864392"><ele>121.0</ele><time>2026-04-11T15:23:00.003Z</time></trkpt><trkpt lat="45.1655801542565" lon="8.364934269366064"><ele>121.0</ele><time>2026-04-11T15:23:01.003Z</time></trkpt><trkpt lat="45.165483954935496" lon="8.364979948811788"><ele>121.0</ele><time>2026-04-11T15:23:02.003Z</time></trkpt><trkpt lat="45.16538578835132" lon="8.365027986146737"><ele>121.00000000000001</ele><time>2026-04-11T15:23:03.003Z</time></trkpt><trkpt lat="45.16529234465004" lon="8.365076681043318"><ele>121.0</ele><time>2026-04-11T15:23:04.003Z</time></trkpt><trkpt lat="45.165211188891945" lon="8.365125583806545"><ele>121.0</ele><time>2026-04-11T15:23:05.003Z</time></trkpt><trkpt lat="45.16513697813901" lon="8.365163883401117"><ele>121.0</ele><time>2026-04-11T15:23:06.003Z</time></trkpt><trkpt lat="45.16506527417928" lon="8.36520601810357"><ele>121.00000000000001</ele><time>2026-04-11T15:23:07.003Z</time></trkpt><trkpt lat="45.16499161446354" lon="8.365246922128492"><ele>121.0</ele><time>2026-04-11T15:23:08.003Z</time></trkpt><trkpt lat="45.16490779548555" lon="8.365290728634486"><ele>121.8</ele><time>2026-04-11T15:23:09.003Z</time></trkpt><trkpt lat="45.164817244211086" lon="8.365345805098558"><ele>122.6</ele><time>2026-04-11T15:23:10.003Z</time></trkpt><trkpt lat="45.164728304763166" lon="8.365394688352826"><ele>123.4</ele><time>2026-04-11T15:23:11.003Z</time></trkpt><trkpt lat="45.16463674601301" lon="8.36544707321563"><ele>124.2</ele><time>2026-04-11T15:23:12.003Z</time></trkpt><trkpt lat="45.164544626275394" lon="8.365486187535797"><ele>125.0</ele><time>2026-04-11T15:23:13.003Z</time></trkpt><trkpt lat="45.164455486818" lon="8.365533565704329"><ele>125.2</ele><time>2026-04-11T15:23:14.003Z</time></trkpt><trkpt lat="45.16437782570342" lon="8.365574085333845"><ele>125.4</ele><time>2026-04-11T15:23:15.003Z</time></trkpt><trkpt lat="45.164303278885725" lon="8.36561474175306"><ele>125.6</ele><time>2026-04-11T15:23:15.998Z</time></trkpt><trkpt lat="45.164243960682235" lon="8.365646747167647"><ele>125.8</ele><time>2026-04-11T15:23:16.998Z</time></trkpt><trkpt lat="45.16418956863285" lon="8.36571864144251"><ele>126.0</ele><time>2026-04-11T15:23:20.999Z</time></trkpt><trkpt lat="45.16424043870716" lon="8.365982503289837"><ele>126.0</ele><time>2026-04-11T15:23:22.999Z</time></trkpt><trkpt lat="45.164272960571886" lon="8.36608529499881"><ele>126.0</ele><time>2026-04-11T15:23:23.999Z</time></trkpt><trkpt lat="45.16430792364013" lon="8.366195802735962"><ele>126.0</ele><time>2026-04-11T15:23:24.999Z</time></trkpt><trkpt lat="45.16434535098393" lon="8.366314099449665"><ele>126.0</ele><time>2026-04-11T15:23:25.999Z</time></trkpt><trkpt lat="45.164386329640834" lon="8.366443620660183"><ele>126.0</ele><time>2026-04-11T15:23:26.999Z</time></trkpt><trkpt lat="45.1644279930667" lon="8.366575302606897"><ele>125.83333333333333</ele><time>2026-04-11T15:23:27.999Z</time></trkpt><trkpt lat="45.164465820935455" lon="8.366695306946449"><ele>125.66666666666666</ele><time>2026-04-11T15:23:28.999Z</time></trkpt><trkpt lat="45.16450406264047" lon="8.366816433945043"><ele>125.5</ele><time>2026-04-11T15:23:29.999Z</time></trkpt><trkpt lat="45.16453762353163" lon="8.366924906917344"><ele>125.33333333333333</ele><time>2026-04-11T15:23:30.999Z</time></trkpt><trkpt lat="45.16458183665641" lon="8.367032677981232"><ele>125.16666666666666</ele><time>2026-04-11T15:23:31.999Z</time></trkpt><trkpt lat="45.16464154403727" lon="8.367117508235884"><ele>125.0</ele><time>2026-04-11T15:23:32.999Z</time></trkpt><trkpt lat="45.16467428863053" lon="8.367241077204147"><ele>125.0</ele><time>2026-04-11T15:23:33.999Z</time></trkpt><trkpt lat="45.16470809839007" lon="8.36739044973974"><ele>125.0</ele><time>2026-04-11T15:23:35Z</time></trkpt><trkpt lat="45.16474254783751" lon="8.367534834472016"><ele>125.0</ele><time>2026-04-11T15:23:36Z</time></trkpt><trkpt lat="45.16477827698668" lon="8.3676814826851"><ele>125.0</ele><time>2026-04-11T15:23:37Z</time></trkpt><trkpt lat="45.16481708046018" lon="8.367842619507243"><ele>125.0</ele><time>2026-04-11T15:23:38Z</time></trkpt><trkpt lat="45.164859937965375" lon="8.368022761798263"><ele>124.5</ele><time>2026-04-11T15:23:39Z</time></trkpt><trkpt lat="45.16491018676526" lon="8.36821663475489"><ele>124.0</ele><time>2026-04-11T15:23:40Z</time></trkpt><trkpt lat="45.16496111524301" lon="8.368411235527535"><ele>123.5</ele><time>2026-04-11T15:23:41Z</time></trkpt><trkpt lat="45.16500672563363" lon="8.368600458974534"><ele>123.0</ele><time>2026-04-11T15:23:42Z</time></trkpt><trkpt lat="45.165051096906076" lon="8.368783243454121"><ele>122.75</ele><time>2026-04-11T15:23:43Z</time></trkpt><trkpt lat="45.16509755916349" lon="8.368968511715911"><ele>122.5</ele><time>2026-04-11T15:23:44Z</time></trkpt><trkpt lat="45.16513995283867" lon="8.369149765676953"><ele>122.25</ele><time>2026-04-11T15:23:45Z</time></trkpt><trkpt lat="45.16518145336627" lon="8.369309275692013"><ele>122.0</ele><time>2026-04-11T15:23:46Z</time></trkpt><trkpt lat="45.165217666946944" lon="8.369453271923428"><ele>122.0</ele><time>2026-04-11T15:23:47Z</time></trkpt><trkpt lat="45.16524632083705" lon="8.36959509871848"><ele>121.99999999999999</ele><time>2026-04-11T15:23:48Z</time></trkpt><trkpt lat="45.16527669443171" lon="8.369732615456202"><ele>121.99999999999999</ele><time>2026-04-11T15:23:49Z</time></trkpt><trkpt lat="45.165312733178496" lon="8.36986531814696"><ele>122.0</ele><time>2026-04-11T15:23:50Z</time></trkpt><trkpt lat="45.165343442420806" lon="8.36999159595739"><ele>122.0</ele><time>2026-04-11T15:23:51Z</time></trkpt><trkpt lat="45.16537029647691" lon="8.370116494431612"><ele>122.0</ele><time>2026-04-11T15:23:52Z</time></trkpt><trkpt lat="45.16539018419432" lon="8.370228609493651"><ele>121.99999999999999</ele><time>2026-04-11T15:23:53Z</time></trkpt><trkpt lat="45.16541660702713" lon="8.370374533034788"><ele>121.99999999999999</ele><time>2026-04-11T15:23:55.001Z</time></trkpt><trkpt lat="45.16543040644289" lon="8.370477016416649"><ele>122.0</ele><time>2026-04-11T15:24:04.001Z</time></trkpt><trkpt lat="45.16554813895751" lon="8.370511491772819"><ele>122.0</ele><time>2026-04-11T15:24:07.001Z</time></trkpt><trkpt lat="45.16562661712914" lon="8.370502903646239"><ele>121.8</ele><time>2026-04-11T15:24:08.001Z</time></trkpt><trkpt lat="45.16570265179991" lon="8.37050333402622"><ele>121.6</ele><time>2026-04-11T15:24:09.001Z</time></trkpt><trkpt lat="45.16579380345733" lon="8.370508050613013"><ele>121.39999999999999</ele><time>2026-04-11T15:24:10.001Z</time></trkpt><trkpt lat="45.165897505169994" lon="8.37051894732447"><ele>121.19999999999999</ele><time>2026-04-11T15:24:11.001Z</time></trkpt><trkpt lat="45.16600719648506" lon="8.370519847606968"><ele>121.0</ele><time>2026-04-11T15:24:12.001Z</time></trkpt><trkpt lat="45.16610571295407" lon="8.370525972510983"><ele>121.0</ele><time>2026-04-11T15:24:13.001Z</time></trkpt><trkpt lat="45.166212084686634" lon="8.370527020209563"><ele>121.0</ele><time>2026-04-11T15:24:14.001Z</time></trkpt><trkpt lat="45.166302818096284" lon="8.37052973424923"><ele>121.0</ele><time>2026-04-11T15:24:15.001Z</time></trkpt><trkpt lat="45.16639231166964" lon="8.370533542892145"><ele>121.0</ele><time>2026-04-11T15:24:16.001Z</time></trkpt><trkpt lat="45.16647319756581" lon="8.370533768608862"><ele>121.0</ele><time>2026-04-11T15:24:17.001Z</time></trkpt><trkpt lat="45.16657283547352" lon="8.370540037555436"><ele>120.75</ele><time>2026-04-11T15:24:18.001Z</time></trkpt><trkpt lat="45.166684310653416" lon="8.37055144654357"><ele>120.5</ele><time>2026-04-11T15:24:19.001Z</time></trkpt><trkpt lat="45.16679779125052" lon="8.370569598536008"><ele>120.25</ele><time>2026-04-11T15:24:20.001Z</time></trkpt><trkpt lat="45.1669086090482" lon="8.370590102366934"><ele>120.0</ele><time>2026-04-11T15:24:21.001Z</time></trkpt><trkpt lat="45.167018387892426" lon="8.370625434272691"><ele>120.0</ele><time>2026-04-11T15:24:22.002Z</time></trkpt><trkpt lat="45.16713942458591" lon="8.370676644508798"><ele>120.0</ele><time>2026-04-11T15:24:23.002Z</time></trkpt><trkpt lat="45.1672674649823" lon="8.370731558730427"><ele>120.0</ele><time>2026-04-11T15:24:24.002Z</time></trkpt><trkpt lat="45.16740418603963" lon="8.37079050169184"><ele>120.0</ele><time>2026-04-11T15:24:25.002Z</time></trkpt><trkpt lat="45.167536886087994" lon="8.370847013490199"><ele>120.25</ele><time>2026-04-11T15:24:26.002Z</time></trkpt><trkpt lat="45.16766768988876" lon="8.370897670517186"><ele>120.5</ele><time>2026-04-11T15:24:27.002Z</time></trkpt><trkpt lat="45.16780345249293" lon="8.370953581237782"><ele>120.75</ele><time>2026-04-11T15:24:28.002Z</time></trkpt><trkpt lat="45.16792900758101" lon="8.371001735041983"><ele>121.0</ele><time>2026-04-11T15:24:29.002Z</time></trkpt><trkpt lat="45.16805369182289" lon="8.371048092305802"><ele>121.0</ele><time>2026-04-11T15:24:30.002Z</time></trkpt><trkpt lat="45.1681680200632" lon="8.37109848052656"><ele>121.0</ele><time>2026-04-11T15:24:31.002Z</time></trkpt><trkpt lat="45.16827463071203" lon="8.371141652796654"><ele>121.0</ele><time>2026-04-11T15:24:32.002Z</time></trkpt><trkpt lat="45.16836524291945" lon="8.371180116136006"><ele>121.0</ele><time>2026-04-11T15:24:33.002Z</time></trkpt><trkpt lat="45.16845432497779" lon="8.371221908533348"><ele>121.0</ele><time>2026-04-11T15:24:34.002Z</time></trkpt><trkpt lat="45.16852564043735" lon="8.37127675570138"><ele>120.8</ele><time>2026-04-11T15:24:35.002Z</time></trkpt><trkpt lat="45.16856880611864" lon="8.371386006916024"><ele>120.6</ele><time>2026-04-11T15:24:36.002Z</time></trkpt><trkpt lat="45.16863022888603" lon="8.371512382209895"><ele>120.4</ele><time>2026-04-11T15:24:37.002Z</time></trkpt><trkpt lat="45.16869747283434" lon="8.371665061719623"><ele>120.2</ele><time>2026-04-11T15:24:38.002Z</time></trkpt><trkpt lat="45.1687667956286" lon="8.371810419579573"><ele>120.0</ele><time>2026-04-11T15:24:39.002Z</time></trkpt><trkpt lat="45.16881133019449" lon="8.37194449950168"><ele>120.0</ele><time>2026-04-11T15:24:40.002Z</time></trkpt><trkpt lat="45.168807960238254" lon="8.372083712722688"><ele>120.0</ele><time>2026-04-11T15:24:41.002Z</time></trkpt><trkpt lat="45.16880401624723" lon="8.372209861180854"><ele>120.0</ele><time>2026-04-11T15:24:42.002Z</time></trkpt><trkpt lat="45.16881647151861" lon="8.37233209342983"><ele>120.0</ele><time>2026-04-11T15:24:43.002Z</time></trkpt><trkpt lat="45.16881155219465" lon="8.372481260150835"><ele>120.0</ele><time>2026-04-11T15:24:44.002Z</time></trkpt><trkpt lat="45.16881381447192" lon="8.372655296448853"><ele>120.0</ele><time>2026-04-11T15:24:45.002Z</time></trkpt><trkpt lat="45.168819369875706" lon="8.372854018657105"><ele>120.0</ele><time>2026-04-11T15:24:46.002Z</time></trkpt><trkpt lat="45.168826447250865" lon="8.373079517308046"><ele>120.0</ele><time>2026-04-11T15:24:47.002Z</time></trkpt><trkpt lat="45.16883190786575" lon="8.373322455571317"><ele>120.0</ele><time>2026-04-11T15:24:48.002Z</time></trkpt><trkpt lat="45.16883986464566" lon="8.373578262115503"><ele>120.0</ele><time>2026-04-11T15:24:49.002Z</time></trkpt><trkpt lat="45.16884980026562" lon="8.373825316479348"><ele>120.0</ele><time>2026-04-11T15:24:50.002Z</time></trkpt><trkpt lat="45.16885833088688" lon="8.374084077257809"><ele>120.0</ele><time>2026-04-11T15:24:51.002Z</time></trkpt><trkpt lat="45.168870609800926" lon="8.374354699799294"><ele>120.0</ele><time>2026-04-11T15:24:52.002Z</time></trkpt><trkpt lat="45.16888270787749" lon="8.374629664118148"><ele>120.0</ele><time>2026-04-11T15:24:53.002Z</time></trkpt><trkpt lat="45.168900226893165" lon="8.374894961779988"><ele>119.66666666666666</ele><time>2026-04-11T15:24:54.002Z</time></trkpt><trkpt lat="45.16891772119879" lon="8.375135640633786"><ele>119.33333333333333</ele><time>2026-04-11T15:24:55.003Z</time></trkpt><trkpt lat="45.16893839995915" lon="8.375360262845303"><ele>119.0</ele><time>2026-04-11T15:24:56.003Z</time></trkpt><trkpt lat="45.16897243884697" lon="8.375565737110596"><ele>119.0</ele><time>2026-04-11T15:24:57.003Z</time></trkpt><trkpt lat="45.169023142087184" lon="8.375762275654775"><ele>119.0</ele><time>2026-04-11T15:24:58.003Z</time></trkpt><trkpt lat="45.16910310092509" lon="8.375965307853896"><ele>119.0</ele><time>2026-04-11T15:24:59.003Z</time></trkpt><trkpt lat="45.16919708432004" lon="8.376180121962983"><ele>119.0</ele><time>2026-04-11T15:25:00.003Z</time></trkpt><trkpt lat="45.16929425511062" lon="8.376412394035908"><ele>119.0</ele><time>2026-04-11T15:25:01.003Z</time></trkpt><trkpt lat="45.16938464446049" lon="8.37666600788799"><ele>119.0</ele><time>2026-04-11T15:25:02.003Z</time></trkpt><trkpt lat="45.169466357548416" lon="8.376929633308796"><ele>119.33333333333333</ele><time>2026-04-11T15:25:03.003Z</time></trkpt><trkpt lat="45.169545217090786" lon="8.37719678808675"><ele>119.66666666666666</ele><time>2026-04-11T15:25:04.003Z</time></trkpt><trkpt lat="45.16961714518413" lon="8.377451730000187"><ele>120.0</ele><time>2026-04-11T15:25:05.003Z</time></trkpt><trkpt lat="45.16968282650499" lon="8.377706880564523"><ele>120.0</ele><time>2026-04-11T15:25:06.003Z</time></trkpt><trkpt lat="45.16973783302769" lon="8.37795230812237"><ele>120.0</ele><time>2026-04-11T15:25:07.003Z</time></trkpt><trkpt lat="45.16979029531375" lon="8.378192560472021"><ele>120.0</ele><time>2026-04-11T15:25:08.003Z</time></trkpt><trkpt lat="45.16983228221341" lon="8.378416310249744"><ele>119.66666666666666</ele><time>2026-04-11T15:25:09.003Z</time></trkpt><trkpt lat="45.16987058176891" lon="8.378629777494146"><ele>119.33333333333333</ele><time>2026-04-11T15:25:10.003Z</time></trkpt><trkpt lat="45.16990031097848" lon="8.378837904245717"><ele>119.0</ele><time>2026-04-11T15:25:11.003Z</time></trkpt><trkpt lat="45.16992093993649" lon="8.379045377383811"><ele>118.5</ele><time>2026-04-11T15:25:12.003Z</time></trkpt><trkpt lat="45.16993569060858" lon="8.379246671679411"><ele>118.0</ele><time>2026-04-11T15:25:13.003Z</time></trkpt><trkpt lat="45.16994856032397" lon="8.379440890852042"><ele>117.5</ele><time>2026-04-11T15:25:14.003Z</time></trkpt><trkpt lat="45.16996128988564" lon="8.379626756485695"><ele>117.0</ele><time>2026-04-11T15:25:15.003Z</time></trkpt><trkpt lat="45.16997665777668" lon="8.379794559393714"><ele>117.0</ele><time>2026-04-11T15:25:16.003Z</time></trkpt><trkpt lat="45.16999624526417" lon="8.379941106902962"><ele>116.99999999999999</ele><time>2026-04-11T15:25:17.003Z</time></trkpt><trkpt lat="45.1700081384686" lon="8.380055730490971"><ele>116.99999999999999</ele><time>2026-04-11T15:25:18.003Z</time></trkpt><trkpt lat="45.170003411308684" lon="8.38016803440739"><ele>117.0</ele><time>2026-04-11T15:25:20.003Z</time></trkpt><trkpt lat="45.16990138499332" lon="8.380223286722492"><ele>117.0</ele><time>2026-04-11T15:25:23.999Z</time></trkpt><trkpt lat="45.16979585521803" lon="8.380255786387178"><ele>117.0</ele><time>2026-04-11T15:25:25.999Z</time></trkpt><trkpt lat="45.16968264988354" lon="8.380356317078403"><ele>116.99999999999999</ele><time>2026-04-11T15:25:27.999Z</time></trkpt><trkpt lat="45.16961962080631" lon="8.380442270546967"><ele>116.99999999999999</ele><time>2026-04-11T15:25:28.999Z</time></trkpt><trkpt lat="45.16954822649651" lon="8.380557966275186"><ele>117.0</ele><time>2026-04-11T15:25:29.999Z</time></trkpt><trkpt lat="45.16947950675378" lon="8.380683519593793"><ele>117.0</ele><time>2026-04-11T15:25:30.999Z</time></trkpt><trkpt lat="45.169405366164646" lon="8.380822364666493"><ele>117.0</ele><time>2026-04-11T15:25:31.999Z</time></trkpt><trkpt lat="45.16932644965624" lon="8.380970461938865"><ele>117.0</ele><time>2026-04-11T15:25:32.999Z</time></trkpt><trkpt lat="45.16924487870932" lon="8.381117215229974"><ele>117.0</ele><time>2026-04-11T15:25:33.999Z</time></trkpt><trkpt lat="45.16916624002458" lon="8.381259629774739"><ele>117.0</ele><time>2026-04-11T15:25:34.999Z</time></trkpt><trkpt lat="45.16908916520661" lon="8.38140341217487"><ele>117.25</ele><time>2026-04-11T15:25:35.999Z</time></trkpt><trkpt lat="45.169013000116124" lon="8.381549712664246"><ele>117.5</ele><time>2026-04-11T15:25:36.999Z</time></trkpt><trkpt lat="45.168943294701954" lon="8.381679822127563"><ele>117.75</ele><time>2026-04-11T15:25:37.999Z</time></trkpt><trkpt lat="45.1688733194515" lon="8.38180996715327"><ele>118.0</ele><time>2026-04-11T15:25:38.999Z</time></trkpt><trkpt lat="45.168813901966935" lon="8.381918438670237"><ele>118.00000000000001</ele><time>2026-04-11T15:25:39.999Z</time></trkpt><trkpt lat="45.16875728492941" lon="8.382013718557042"><ele>118.0</ele><time>2026-04-11T15:25:40.999Z</time></trkpt><trkpt lat="45.16871618694297" lon="8.3821083018747"><ele>118.0</ele><time>2026-04-11T15:25:41.999Z</time></trkpt><trkpt lat="45.168698245956" lon="8.382206188057234"><ele>118.0</ele><time>2026-04-11T15:25:43Z</time></trkpt><trkpt lat="45.168695825676295" lon="8.38232069908066"><ele>118.00000000000001</ele><time>2026-04-11T15:25:44Z</time></trkpt><trkpt lat="45.16871077953791" lon="8.382423860093041"><ele>118.0</ele><time>2026-04-11T15:25:45Z</time></trkpt><trkpt lat="45.168730736961194" lon="8.382532698143152"><ele>118.33333333333334</ele><time>2026-04-11T15:25:46Z</time></trkpt><trkpt lat="45.16874091190649" lon="8.382662473644556"><ele>118.66666666666667</ele><time>2026-04-11T15:25:47Z</time></trkpt><trkpt lat="45.16875144077752" lon="8.382795400901147"><ele>119.0</ele><time>2026-04-11T15:25:48Z</time></trkpt><trkpt lat="45.16875246249449" lon="8.382912039625005"><ele>119.33333333333334</ele><time>2026-04-11T15:25:49Z</time></trkpt><trkpt lat="45.168736074035465" lon="8.383039154878526"><ele>119.66666666666667</ele><time>2026-04-11T15:25:50Z</time></trkpt><trkpt lat="45.16871102575463" lon="8.383144572205996"><ele>120.0</ele><time>2026-04-11T15:25:51Z</time></trkpt><trkpt lat="45.16866124405235" lon="8.383253516197124"><ele>120.4</ele><time>2026-04-11T15:25:52Z</time></trkpt><trkpt lat="45.16859030367496" lon="8.38335242310016"><ele>120.8</ele><time>2026-04-11T15:25:53Z</time></trkpt><trkpt lat="45.16851003288455" lon="8.383453247026607"><ele>121.19999999999999</ele><time>2026-04-11T15:25:54Z</time></trkpt><trkpt lat="45.16842754839698" lon="8.383560265828475"><ele>121.6</ele><time>2026-04-11T15:25:55Z</time></trkpt><trkpt lat="45.16833877055087" lon="8.383671717452096"><ele>122.0</ele><time>2026-04-11T15:25:56Z</time></trkpt><trkpt lat="45.16824598635674" lon="8.383769687367405"><ele>121.0</ele><time>2026-04-11T15:25:57Z</time></trkpt><trkpt lat="45.16814528048858" lon="8.383870345252284"><ele>120.0</ele><time>2026-04-11T15:25:58Z</time></trkpt><trkpt lat="45.167909321104595" lon="8.383710617045747"><ele>119.0</ele><time>2026-04-11T15:25:59Z</time></trkpt><trkpt lat="45.1678163349553" lon="8.383808011942007"><ele>119.0</ele><time>2026-04-11T15:26:00Z</time></trkpt><trkpt lat="45.16771092051391" lon="8.383914392194825"><ele>119.0</ele><time>2026-04-11T15:26:01Z</time></trkpt><trkpt lat="45.16760096317017" lon="8.384022637942525"><ele>119.0</ele><time>2026-04-11T15:26:02Z</time></trkpt><trkpt lat="45.167499020148334" lon="8.384117155235442"><ele>119.0</ele><time>2026-04-11T15:26:03.001Z</time></trkpt><trkpt lat="45.16740629049655" lon="8.384196075519867"><ele>118.75</ele><time>2026-04-11T15:26:04.001Z</time></trkpt><trkpt lat="45.167310017358254" lon="8.384276099871181"><ele>118.5</ele><time>2026-04-11T15:26:05.001Z</time></trkpt><trkpt lat="45.167209246497876" lon="8.384357751738179"><ele>118.25</ele><time>2026-04-11T15:26:06.001Z</time></trkpt><trkpt lat="45.167112335244525" lon="8.38443178443153"><ele>118.0</ele><time>2026-04-11T15:26:07.001Z</time></trkpt><trkpt lat="45.16701253135617" lon="8.384504192274251"><ele>118.0</ele><time>2026-04-11T15:26:08.001Z</time></trkpt><trkpt lat="45.166898046240256" lon="8.384583454835807"><ele>118.0</ele><time>2026-04-11T15:26:09.001Z</time></trkpt><trkpt lat="45.16678910948009" lon="8.38465762172501"><ele>118.0</ele><time>2026-04-11T15:26:10.001Z</time></trkpt><trkpt lat="45.16667261911514" lon="8.38473109068073"><ele>118.0</ele><time>2026-04-11T15:26:11.001Z</time></trkpt><trkpt lat="45.1665547825449" lon="8.384802233441182"><ele>117.75</ele><time>2026-04-11T15:26:12.001Z</time></trkpt><trkpt lat="45.16644386920972" lon="8.384867399010927"><ele>117.5</ele><time>2026-04-11T15:26:13.001Z</time></trkpt><trkpt lat="45.16634500314483" lon="8.384925254278581"><ele>117.25</ele><time>2026-04-11T15:26:14.001Z</time></trkpt><trkpt lat="45.16623763327959" lon="8.384988085720753"><ele>117.0</ele><time>2026-04-11T15:26:15.001Z</time></trkpt><trkpt lat="45.166120587249495" lon="8.38505657974318"><ele>117.0</ele><time>2026-04-11T15:26:16.001Z</time></trkpt><trkpt lat="45.165993834100824" lon="8.385130754263404"><ele>117.0</ele><time>2026-04-11T15:26:17.001Z</time></trkpt><trkpt lat="45.16586806927387" lon="8.385204350151254"><ele>117.0</ele><time>2026-04-11T15:26:18.001Z</time></trkpt><trkpt lat="45.16574726984551" lon="8.385275057104186"><ele>117.0</ele><time>2026-04-11T15:26:19.001Z</time></trkpt><trkpt lat="45.165633953061956" lon="8.38534025639748"><ele>117.19999999999999</ele><time>2026-04-11T15:26:20.001Z</time></trkpt><trkpt lat="45.165531483174455" lon="8.385399216507139"><ele>117.39999999999999</ele><time>2026-04-11T15:26:21.001Z</time></trkpt><trkpt lat="45.165439869587715" lon="8.38545268905276"><ele>117.60000000000001</ele><time>2026-04-11T15:26:22.001Z</time></trkpt><trkpt lat="45.16537111724406" lon="8.385493058643046"><ele>117.80000000000001</ele><time>2026-04-11T15:26:23.001Z</time></trkpt><trkpt lat="45.165303996258885" lon="8.385532939235665"><ele>118.0</ele><time>2026-04-11T15:26:25.001Z</time></trkpt><trkpt lat="45.16539502735781" lon="8.385917250748175"><ele>118.0</ele><time>2026-04-11T15:26:29.001Z</time></trkpt><trkpt lat="45.16543007662477" lon="8.386025953758702"><ele>118.00000000000001</ele><time>2026-04-11T15:26:30.001Z</time></trkpt><trkpt lat="45.165453167500054" lon="8.386137002101949"><ele>118.00000000000001</ele><time>2026-04-11T15:26:31.001Z</time></trkpt><trkpt lat="45.16552559002285" lon="8.386265924726318"><ele>118.0</ele><time>2026-04-11T15:26:33.002Z</time></trkpt><trkpt lat="45.16563906793699" lon="8.386261342451562"><ele>118.0</ele><time>2026-04-11T15:26:35.002Z</time></trkpt><trkpt lat="45.165719876051305" lon="8.386232313523037"><ele>118.00000000000001</ele><time>2026-04-11T15:26:36.002Z</time></trkpt><trkpt lat="45.165817954278594" lon="8.386210152159018"><ele>118.0</ele><time>2026-04-11T15:26:37.002Z</time></trkpt><trkpt lat="45.16590900151667" lon="8.386207216785849"><ele>118.0</ele><time>2026-04-11T15:26:38.002Z</time></trkpt><trkpt lat="45.165982053996984" lon="8.386234243866973"><ele>118.0</ele><time>2026-04-11T15:26:39.002Z</time></trkpt><trkpt lat="45.16603810285668" lon="8.386277776087065"><ele>118.00000000000001</ele><time>2026-04-11T15:26:40.002Z</time></trkpt><trkpt lat="45.16607830576544" lon="8.38634725472378"><ele>118.0</ele><time>2026-04-11T15:26:41.002Z</time></trkpt><trkpt lat="45.16610176863957" lon="8.38643815189832"><ele>118.0</ele><time>2026-04-11T15:26:42.002Z</time></trkpt><trkpt lat="45.166115647752925" lon="8.386566164715068"><ele>118.0</ele><time>2026-04-11T15:26:43.002Z</time></trkpt><trkpt lat="45.16612298774375" lon="8.38673499180631"><ele>118.0</ele><time>2026-04-11T15:26:44.002Z</time></trkpt><trkpt lat="45.16613878176135" lon="8.386929768804892"><ele>118.0</ele><time>2026-04-11T15:26:45.002Z</time></trkpt><trkpt lat="45.1661600540376" lon="8.387109374307629"><ele>118.5</ele><time>2026-04-11T15:26:46.002Z</time></trkpt><trkpt lat="45.166190856713534" lon="8.38726650093558"><ele>119.0</ele><time>2026-04-11T15:26:47.002Z</time></trkpt><trkpt lat="45.16623785655269" lon="8.38742963545617"><ele>119.5</ele><time>2026-04-11T15:26:48.002Z</time></trkpt><trkpt lat="45.16629499127115" lon="8.387593541301989"><ele>120.0</ele><time>2026-04-11T15:26:49.002Z</time></trkpt><trkpt lat="45.166353616586456" lon="8.387741423526398"><ele>120.0</ele><time>2026-04-11T15:26:50.002Z</time></trkpt><trkpt lat="45.166405950143634" lon="8.387862567962387"><ele>120.0</ele><time>2026-04-11T15:26:51.002Z</time></trkpt><trkpt lat="45.16645836426725" lon="8.38797421429975"><ele>120.0</ele><time>2026-04-11T15:26:52.002Z</time></trkpt><trkpt lat="45.16651612700794" lon="8.388076694553575"><ele>120.0</ele><time>2026-04-11T15:26:53.002Z</time></trkpt><trkpt lat="45.1665872698011" lon="8.388220563677843"><ele>120.0</ele><time>2026-04-11T15:26:54.002Z</time></trkpt><trkpt lat="45.166664583421806" lon="8.388382273841565"><ele>119.8</ele><time>2026-04-11T15:26:55.002Z</time></trkpt><trkpt lat="45.16673904779013" lon="8.388525977080631"><ele>119.6</ele><time>2026-04-11T15:26:56.002Z</time></trkpt><trkpt lat="45.166801790361276" lon="8.388642225461545"><ele>119.4</ele><time>2026-04-11T15:26:57.002Z</time></trkpt><trkpt lat="45.1668728461761" lon="8.388741421854608"><ele>119.2</ele><time>2026-04-11T15:26:58.002Z</time></trkpt><trkpt lat="45.16694102108679" lon="8.388832495480303"><ele>119.0</ele><time>2026-04-11T15:26:59.002Z</time></trkpt><trkpt lat="45.167006678047684" lon="8.388909910882008"><ele>119.33333333333333</ele><time>2026-04-11T15:27:00.002Z</time></trkpt><trkpt lat="45.16707398053246" lon="8.388997685161138"><ele>119.66666666666666</ele><time>2026-04-11T15:27:01.002Z</time></trkpt><trkpt lat="45.1671253511207" lon="8.389074009435145"><ele>120.0</ele><time>2026-04-11T15:27:02.002Z</time></trkpt><trkpt lat="45.16717988965334" lon="8.389157032175854"><ele>120.33333333333334</ele><time>2026-04-11T15:27:03.002Z</time></trkpt><trkpt lat="45.16723675113637" lon="8.389248564033538"><ele>120.66666666666667</ele><time>2026-04-11T15:27:04.003Z</time></trkpt><trkpt lat="45.1672876573705" lon="8.389330272288085"><ele>121.0</ele><time>2026-04-11T15:27:05.003Z</time></trkpt><trkpt lat="45.167337352289586" lon="8.389400085906804"><ele>120.33333333333334</ele><time>2026-04-11T15:27:06.003Z</time></trkpt><trkpt lat="45.16739069747926" lon="8.389472191141266"><ele>119.66666666666667</ele><time>2026-04-11T15:27:07.003Z</time></trkpt><trkpt lat="45.16744303103437" lon="8.38954212300469"><ele>119.0</ele><time>2026-04-11T15:27:08.003Z</time></trkpt><trkpt lat="45.16749550060949" lon="8.38961082530768"><ele>118.33333333333334</ele><time>2026-04-11T15:27:09.003Z</time></trkpt><trkpt lat="45.167545213674714" lon="8.389675732073167"><ele>117.66666666666667</ele><time>2026-04-11T15:27:10.003Z</time></trkpt><trkpt lat="45.16759289299468" lon="8.389739578887978"><ele>117.0</ele><time>2026-04-11T15:27:11.003Z</time></trkpt><trkpt lat="45.16768089008746" lon="8.3898763564713"><ele>117.0</ele><time>2026-04-11T15:27:13.003Z</time></trkpt><trkpt lat="45.16775679124744" lon="8.390012886800138"><ele>116.99999999999999</ele><time>2026-04-11T15:27:15.003Z</time></trkpt><trkpt lat="45.16785148321258" lon="8.390126404693477"><ele>116.99999999999999</ele><time>2026-04-11T15:27:17.003Z</time></trkpt><trkpt lat="45.16791586277854" lon="8.390165659741236"><ele>117.0</ele><time>2026-04-11T15:27:18.003Z</time></trkpt><trkpt lat="45.16798481128961" lon="8.390185623094839"><ele>117.0</ele><time>2026-04-11T15:27:19.003Z</time></trkpt><trkpt lat="45.16805673665329" lon="8.390193461737333"><ele>117.0</ele><time>2026-04-11T15:27:20.003Z</time></trkpt><trkpt lat="45.1681318028587" lon="8.390222780837794"><ele>116.99999999999999</ele><time>2026-04-11T15:27:21.003Z</time></trkpt><trkpt lat="45.16819460833678" lon="8.390303258708999"><ele>116.99999999999999</ele><time>2026-04-11T15:27:22.003Z</time></trkpt><trkpt lat="45.16825028391002" lon="8.390426480808111"><ele>117.0</ele><time>2026-04-11T15:27:23.003Z</time></trkpt><trkpt lat="45.1683121386214" lon="8.390583234949572"><ele>117.0</ele><time>2026-04-11T15:27:24.003Z</time></trkpt><trkpt lat="45.16837706216655" lon="8.390752840796909"><ele>117.0</ele><time>2026-04-11T15:27:25.003Z</time></trkpt><trkpt lat="45.16843707239222" lon="8.390923539041202"><ele>117.0</ele><time>2026-04-11T15:27:26.003Z</time></trkpt><trkpt lat="45.168487332677756" lon="8.391078765850695"><ele>117.0</ele><time>2026-04-11T15:27:27.003Z</time></trkpt><trkpt lat="45.168528777130724" lon="8.391205548915003"><ele>117.0</ele><time>2026-04-11T15:27:27.998Z</time></trkpt><trkpt lat="45.168577456773335" lon="8.391347111022569"><ele>116.75</ele><time>2026-04-11T15:27:28.998Z</time></trkpt><trkpt lat="45.16862364721866" lon="8.391492982054935"><ele>116.5</ele><time>2026-04-11T15:27:29.998Z</time></trkpt><trkpt lat="45.16866977775423" lon="8.391652899577137"><ele>116.25</ele><time>2026-04-11T15:27:30.998Z</time></trkpt><trkpt lat="45.168716059124336" lon="8.391814388506662"><ele>116.0</ele><time>2026-04-11T15:27:31.998Z</time></trkpt><trkpt lat="45.168761395568836" lon="8.391970466712817"><ele>116.0</ele><time>2026-04-11T15:27:32.998Z</time></trkpt><trkpt lat="45.16880752864258" lon="8.392111067313213"><ele>116.0</ele><time>2026-04-11T15:27:33.998Z</time></trkpt><trkpt lat="45.16885087856195" lon="8.392234783011794"><ele>116.0</ele><time>2026-04-11T15:27:34.998Z</time></trkpt><trkpt lat="45.16889951280285" lon="8.392344153170523"><ele>116.0</ele><time>2026-04-11T15:27:35.999Z</time></trkpt><trkpt lat="45.16894821158068" lon="8.392442087867007"><ele>116.0</ele><time>2026-04-11T15:27:36.999Z</time></trkpt><trkpt lat="45.16899569110665" lon="8.392532130400221"><ele>116.16666666666666</ele><time>2026-04-11T15:27:37.999Z</time></trkpt><trkpt lat="45.16903763183766" lon="8.39260660247148"><ele>116.33333333333333</ele><time>2026-04-11T15:27:38.999Z</time></trkpt><trkpt lat="45.16911293579405" lon="8.39271076632093"><ele>116.5</ele><time>2026-04-11T15:27:40.999Z</time></trkpt><trkpt lat="45.16918819831825" lon="8.392747069636037"><ele>116.66666666666666</ele><time>2026-04-11T15:27:42.999Z</time></trkpt><trkpt lat="45.16929402008677" lon="8.392736093024041"><ele>116.83333333333333</ele><time>2026-04-11T15:27:44.999Z</time></trkpt><trkpt lat="45.16937231366867" lon="8.392702923430043"><ele>117.0</ele><time>2026-04-11T15:27:45.999Z</time></trkpt><trkpt lat="45.16946305646675" lon="8.392664806327856"><ele>117.0</ele><time>2026-04-11T15:27:46.999Z</time></trkpt><trkpt lat="45.16956168496971" lon="8.392622106565616"><ele>117.0</ele><time>2026-04-11T15:27:47.999Z</time></trkpt><trkpt lat="45.1696592226739" lon="8.392583238032032"><ele>117.0</ele><time>2026-04-11T15:27:49Z</time></trkpt><trkpt lat="45.16977638724642" lon="8.392545612178319"><ele>117.0</ele><time>2026-04-11T15:27:50Z</time></trkpt><trkpt lat="45.16990408391483" lon="8.392512424687064"><ele>117.25</ele><time>2026-04-11T15:27:51Z</time></trkpt><trkpt lat="45.17003126483679" lon="8.392487351423068"><ele>117.5</ele><time>2026-04-11T15:27:52Z</time></trkpt><trkpt lat="45.17015549889582" lon="8.39247156790859"><ele>117.75</ele><time>2026-04-11T15:27:53Z</time></trkpt><trkpt lat="45.17026956657538" lon="8.392467844671016"><ele>118.0</ele><time>2026-04-11T15:27:54Z</time></trkpt><trkpt lat="45.170383912790754" lon="8.392480970565098"><ele>118.0</ele><time>2026-04-11T15:27:55Z</time></trkpt><trkpt lat="45.170500935903476" lon="8.392514814196929"><ele>118.0</ele><time>2026-04-11T15:27:56Z</time></trkpt><trkpt lat="45.17062886043456" lon="8.392556047946576"><ele>118.0</ele><time>2026-04-11T15:27:57Z</time></trkpt><trkpt lat="45.17077465334641" lon="8.392603166709817"><ele>118.0</ele><time>2026-04-11T15:27:58Z</time></trkpt><trkpt lat="45.17092055651041" lon="8.392654780083518"><ele>118.0</ele><time>2026-04-11T15:27:59Z</time></trkpt><trkpt lat="45.17107068813693" lon="8.392702619626695"><ele>118.0</ele><time>2026-04-11T15:28:00Z</time></trkpt><trkpt lat="45.17121766021784" lon="8.392748349567606"><ele>118.0</ele><time>2026-04-11T15:28:01Z</time></trkpt><trkpt lat="45.1713529865322" lon="8.392791459257394"><ele>118.0</ele><time>2026-04-11T15:28:02Z</time></trkpt><trkpt lat="45.171467214072585" lon="8.39283335655252"><ele>117.80000000000001</ele><time>2026-04-11T15:28:03Z</time></trkpt><trkpt lat="45.171592920463254" lon="8.392877047897999"><ele>117.60000000000001</ele><time>2026-04-11T15:28:04Z</time></trkpt><trkpt lat="45.171714109489876" lon="8.392916190102016"><ele>117.39999999999999</ele><time>2026-04-11T15:28:05Z</time></trkpt><trkpt lat="45.171814729627926" lon="8.392948853135712"><ele>117.19999999999999</ele><time>2026-04-11T15:28:06Z</time></trkpt><trkpt lat="45.17190495085121" lon="8.392976262582678"><ele>117.0</ele><time>2026-04-11T15:28:07.001Z</time></trkpt><trkpt lat="45.17198689868689" lon="8.393002968787876"><ele>117.0</ele><time>2026-04-11T15:28:08.001Z</time></trkpt><trkpt lat="45.17210587251141" lon="8.393031945071716"><ele>116.99999999999999</ele><time>2026-04-11T15:28:10.001Z</time></trkpt><trkpt lat="45.17217026963532" lon="8.39305077750157"><ele>116.99999999999999</ele><time>2026-04-11T15:28:11.001Z</time></trkpt><trkpt lat="45.17225460693399" lon="8.393102667152046"><ele>117.0</ele><time>2026-04-11T15:28:12.001Z</time></trkpt><trkpt lat="45.17235444724477" lon="8.393188914521275"><ele>117.0</ele><time>2026-04-11T15:28:13.001Z</time></trkpt><trkpt lat="45.17247648723557" lon="8.393307679065526"><ele>116.75</ele><time>2026-04-11T15:28:14.001Z</time></trkpt><trkpt lat="45.17260538518742" lon="8.393434982045363"><ele>116.5</ele><time>2026-04-11T15:28:15.001Z</time></trkpt><trkpt lat="45.172722126573696" lon="8.393542567416425"><ele>116.25</ele><time>2026-04-11T15:28:16.001Z</time></trkpt><trkpt lat="45.172823484002315" lon="8.39363737253141"><ele>116.0</ele><time>2026-04-11T15:28:17.001Z</time></trkpt><trkpt lat="45.17291781011456" lon="8.393722669590982"><ele>116.0</ele><time>2026-04-11T15:28:18.001Z</time></trkpt><trkpt lat="45.1729894253446" lon="8.393803838613916"><ele>116.0</ele><time>2026-04-11T15:28:19.001Z</time></trkpt><trkpt lat="45.17304644531694" lon="8.393899286548054"><ele>116.0</ele><time>2026-04-11T15:28:20.001Z</time></trkpt><trkpt lat="45.17307446663367" lon="8.39400532029042"><ele>116.0</ele><time>2026-04-11T15:28:21.001Z</time></trkpt><trkpt lat="45.17310316532445" lon="8.394153472409183"><ele>116.0</ele><time>2026-04-11T15:28:22.001Z</time></trkpt><trkpt lat="45.173126614121664" lon="8.394350749115304"><ele>116.0</ele><time>2026-04-11T15:28:23.001Z</time></trkpt><trkpt lat="45.17316221844419" lon="8.394596431509385"><ele>116.0</ele><time>2026-04-11T15:28:24.001Z</time></trkpt><trkpt lat="45.173207292365284" lon="8.394874803747433"><ele>116.0</ele><time>2026-04-11T15:28:25.001Z</time></trkpt><trkpt lat="45.1732545087481" lon="8.395168551046392"><ele>116.33333333333333</ele><time>2026-04-11T15:28:26.001Z</time></trkpt><trkpt lat="45.17329172393905" lon="8.395419029129"><ele>116.66666666666666</ele><time>2026-04-11T15:28:27.001Z</time></trkpt><trkpt lat="45.17332557728212" lon="8.39563880305259"><ele>117.0</ele><time>2026-04-11T15:28:28.001Z</time></trkpt><trkpt lat="45.17335486665316" lon="8.39584466955785"><ele>117.0</ele><time>2026-04-11T15:28:29.001Z</time></trkpt><trkpt lat="45.17337210517642" lon="8.396031173318688"><ele>117.0</ele><time>2026-04-11T15:28:30.001Z</time></trkpt><trkpt lat="45.17337588528273" lon="8.396239275613226"><ele>117.0</ele><time>2026-04-11T15:28:31.001Z</time></trkpt><trkpt lat="45.17336351777017" lon="8.396447115701164"><ele>117.0</ele><time>2026-04-11T15:28:32.001Z</time></trkpt><trkpt lat="45.17334688127539" lon="8.39667993124444"><ele>116.75</ele><time>2026-04-11T15:28:33.001Z</time></trkpt><trkpt lat="45.1733299712735" lon="8.396926211324443"><ele>116.5</ele><time>2026-04-11T15:28:34.002Z</time></trkpt><trkpt lat="45.173315808999" lon="8.39712707940442"><ele>116.25</ele><time>2026-04-11T15:28:35.002Z</time></trkpt><trkpt lat="45.173304167818564" lon="8.397307938143017"><ele>116.0</ele><time>2026-04-11T15:28:36.002Z</time></trkpt><trkpt lat="45.17328856124236" lon="8.397482557152744"><ele>116.0</ele><time>2026-04-11T15:28:37.002Z</time></trkpt><trkpt lat="45.17327309182539" lon="8.397628870246072"><ele>116.0</ele><time>2026-04-11T15:28:38.002Z</time></trkpt><trkpt lat="45.17326232129995" lon="8.397745835648283"><ele>116.0</ele><time>2026-04-11T15:28:39.002Z</time></trkpt><trkpt lat="45.17324861948622" lon="8.397853732001918"><ele>116.0</ele><time>2026-04-11T15:28:40.002Z</time></trkpt><trkpt lat="45.17322468972288" lon="8.398011874902917"><ele>116.0</ele><time>2026-04-11T15:28:42.002Z</time></trkpt><trkpt lat="45.173130031567275" lon="8.398072503297875"><ele>115.99999999999999</ele><time>2026-04-11T15:28:44.002Z</time></trkpt><trkpt lat="45.173059029394096" lon="8.398081216660342"><ele>116.0</ele><time>2026-04-11T15:28:45.002Z</time></trkpt><trkpt lat="45.17294616499516" lon="8.398138362677843"><ele>116.0</ele><time>2026-04-11T15:28:47.002Z</time></trkpt><trkpt lat="45.17291309788123" lon="8.398217650232379"><ele>116.0</ele><time>2026-04-11T15:28:48.002Z</time></trkpt><trkpt lat="45.17289258239095" lon="8.398316815928105"><ele>115.99999999999999</ele><time>2026-04-11T15:28:49.002Z</time></trkpt><trkpt lat="45.17287835337392" lon="8.398441841765736"><ele>116.0</ele><time>2026-04-11T15:28:50.002Z</time></trkpt><trkpt lat="45.172871342805045" lon="8.398607682680716"><ele>116.0</ele><time>2026-04-11T15:28:51.002Z</time></trkpt><trkpt lat="45.172862458598594" lon="8.398820631083776"><ele>116.0</ele><time>2026-04-11T15:28:52.002Z</time></trkpt><trkpt lat="45.17284686689717" lon="8.399044540098886"><ele>116.0</ele><time>2026-04-11T15:28:53.002Z</time></trkpt><trkpt lat="45.17283034973086" lon="8.399253451757648"><ele>116.0</ele><time>2026-04-11T15:28:54.002Z</time></trkpt><trkpt lat="45.17281222344428" lon="8.399483626396364"><ele>116.0</ele><time>2026-04-11T15:28:55.002Z</time></trkpt><trkpt lat="45.17279362796301" lon="8.399691393413345"><ele>116.0</ele><time>2026-04-11T15:28:56.002Z</time></trkpt><trkpt lat="45.17278125780531" lon="8.3998735061367"><ele>116.0</ele><time>2026-04-11T15:28:57.002Z</time></trkpt><trkpt lat="45.17276823923647" lon="8.400056093740439"><ele>116.0</ele><time>2026-04-11T15:28:58.002Z</time></trkpt><trkpt lat="45.17274286263717" lon="8.400270663209415"><ele>116.0</ele><time>2026-04-11T15:28:59.002Z</time></trkpt><trkpt lat="45.172712762023316" lon="8.400490552524838"><ele>116.0</ele><time>2026-04-11T15:29:00.002Z</time></trkpt><trkpt lat="45.17266827141211" lon="8.400711086412942"><ele>116.0</ele><time>2026-04-11T15:29:01.002Z</time></trkpt><trkpt lat="45.172608425628084" lon="8.400958644307929"><ele>116.0</ele><time>2026-04-11T15:29:02.002Z</time></trkpt><trkpt lat="45.17254180870472" lon="8.401216802421946"><ele>116.0</ele><time>2026-04-11T15:29:03.002Z</time></trkpt><trkpt lat="45.172482371637926" lon="8.401451602384757"><ele>116.0</ele><time>2026-04-11T15:29:04.002Z</time></trkpt><trkpt lat="45.172433093308754" lon="8.40165219724001"><ele>116.0</ele><time>2026-04-11T15:29:05.002Z</time></trkpt><trkpt lat="45.17238944773556" lon="8.40183594997043"><ele>116.0</ele><time>2026-04-11T15:29:06.002Z</time></trkpt><trkpt lat="45.172345754928045" lon="8.402022624674432"><ele>116.0</ele><time>2026-04-11T15:29:07.003Z</time></trkpt><trkpt lat="45.17230031695266" lon="8.4022102613808"><ele>115.75</ele><time>2026-04-11T15:29:08.003Z</time></trkpt><trkpt lat="45.17225578692946" lon="8.40238335086747"><ele>115.5</ele><time>2026-04-11T15:29:09.003Z</time></trkpt><trkpt lat="45.17221539805332" lon="8.40254016088706"><ele>115.25</ele><time>2026-04-11T15:29:10.003Z</time></trkpt><trkpt lat="45.17217695938793" lon="8.402691599651662"><ele>115.0</ele><time>2026-04-11T15:29:11.003Z</time></trkpt><trkpt lat="45.172145321123764" lon="8.402825717974181"><ele>115.0</ele><time>2026-04-11T15:29:12.003Z</time></trkpt><trkpt lat="45.17211781803793" lon="8.402937886399812"><ele>115.0</ele><time>2026-04-11T15:29:13.003Z</time></trkpt><trkpt lat="45.172095400629985" lon="8.403050144309622"><ele>115.0</ele><time>2026-04-11T15:29:14.003Z</time></trkpt><trkpt lat="45.1720718565071" lon="8.403181638727983"><ele>115.0</ele><time>2026-04-11T15:29:16.003Z</time></trkpt><trkpt lat="45.172122326574" lon="8.403257692549598"><ele>115.0</ele><time>2026-04-11T15:29:30.003Z</time></trkpt><trkpt lat="45.17224709051621" lon="8.403260653783795"><ele>115.0</ele><time>2026-04-11T15:29:32.003Z</time></trkpt><trkpt lat="45.172337166190125" lon="8.403253115900794"><ele>115.0</ele><time>2026-04-11T15:29:33.003Z</time></trkpt><trkpt lat="45.17243687000174" lon="8.403253160661949"><ele>115.0</ele><time>2026-04-11T15:29:33.999Z</time></trkpt><trkpt lat="45.172554916278365" lon="8.403256443086505"><ele>115.0</ele><time>2026-04-11T15:29:34.999Z</time></trkpt><trkpt lat="45.1726812624359" lon="8.403259441220989"><ele>115.0</ele><time>2026-04-11T15:29:35.999Z</time></trkpt><trkpt lat="45.172797491381196" lon="8.403262394113302"><ele>115.0</ele><time>2026-04-11T15:29:36.999Z</time></trkpt><trkpt lat="45.172929770919275" lon="8.403263582576438"><ele>115.0</ele><time>2026-04-11T15:29:37.999Z</time></trkpt><trkpt lat="45.17306807361859" lon="8.403261432972181"><ele>115.0</ele><time>2026-04-11T15:29:38.999Z</time></trkpt><trkpt lat="45.173208984887744" lon="8.40326342285532"><ele>115.0</ele><time>2026-04-11T15:29:39.999Z</time></trkpt><trkpt lat="45.173342599707674" lon="8.403275780873303"><ele>115.25</ele><time>2026-04-11T15:29:40.999Z</time></trkpt><trkpt lat="45.17347771221963" lon="8.40330346252859"><ele>115.5</ele><time>2026-04-11T15:29:41.999Z</time></trkpt><trkpt lat="45.173611173868174" lon="8.40335161113429"><ele>115.75</ele><time>2026-04-11T15:29:42.999Z</time></trkpt><trkpt lat="45.173740689250415" lon="8.403417733212331"><ele>116.0</ele><time>2026-04-11T15:29:43.999Z</time></trkpt><trkpt lat="45.17386881043759" lon="8.403478657025158"><ele>116.0</ele><time>2026-04-11T15:29:45Z</time></trkpt><trkpt lat="45.1739901114795" lon="8.403529371032842"><ele>116.0</ele><time>2026-04-11T15:29:46Z</time></trkpt><trkpt lat="45.17411055972161" lon="8.403585813690377"><ele>116.0</ele><time>2026-04-11T15:29:47Z</time></trkpt><trkpt lat="45.17423918428475" lon="8.403591525179559"><ele>116.0</ele><time>2026-04-11T15:29:48Z</time></trkpt><trkpt lat="45.174371782229855" lon="8.403581279997912"><ele>116.0</ele><time>2026-04-11T15:29:49Z</time></trkpt><trkpt lat="45.17450457426702" lon="8.403532696172187"><ele>116.0</ele><time>2026-04-11T15:29:50Z</time></trkpt><trkpt lat="45.174625935081494" lon="8.403462515266256"><ele>116.0</ele><time>2026-04-11T15:29:51Z</time></trkpt><trkpt lat="45.17473706938897" lon="8.40338698943282"><ele>116.0</ele><time>2026-04-11T15:29:52Z</time></trkpt><trkpt lat="45.17484344258391" lon="8.403295989041109"><ele>116.0</ele><time>2026-04-11T15:29:53Z</time></trkpt><trkpt lat="45.17495727401797" lon="8.403243153800846"><ele>116.0</ele><time>2026-04-11T15:29:54Z</time></trkpt><trkpt lat="45.175070665031626" lon="8.40320676241273"><ele>116.0</ele><time>2026-04-11T15:29:55Z</time></trkpt><trkpt lat="45.1751779394825" lon="8.403190096490894"><ele>116.0</ele><time>2026-04-11T15:29:56Z</time></trkpt><trkpt lat="45.17527769916515" lon="8.403219176023448"><ele>116.0</ele><time>2026-04-11T15:29:57Z</time></trkpt><trkpt lat="45.17538037570046" lon="8.403213378194154"><ele>116.0</ele><time>2026-04-11T15:29:58Z</time></trkpt><trkpt lat="45.17548131849592" lon="8.40323815343444"><ele>116.0</ele><time>2026-04-11T15:29:59Z</time></trkpt><trkpt lat="45.17559432769878" lon="8.403261264616301"><ele>116.0</ele><time>2026-04-11T15:30:00Z</time></trkpt><trkpt lat="45.17571569277107" lon="8.403286752914727"><ele>116.0</ele><time>2026-04-11T15:30:01Z</time></trkpt><trkpt lat="45.17585163390524" lon="8.403315450392189"><ele>116.25</ele><time>2026-04-11T15:30:02Z</time></trkpt><trkpt lat="45.17599732341726" lon="8.403343840910216"><ele>116.5</ele><time>2026-04-11T15:30:03Z</time></trkpt><trkpt lat="45.176138181746694" lon="8.403377155087387"><ele>116.75</ele><time>2026-04-11T15:30:04Z</time></trkpt><trkpt lat="45.17628595170503" lon="8.403407796998495"><ele>117.0</ele><time>2026-04-11T15:30:05Z</time></trkpt><trkpt lat="45.1764323419405" lon="8.403441968873674"><ele>117.0</ele><time>2026-04-11T15:30:06Z</time></trkpt><trkpt lat="45.17656043198673" lon="8.403482179766025"><ele>117.0</ele><time>2026-04-11T15:30:07Z</time></trkpt><trkpt lat="45.176690134041756" lon="8.40352397179103"><ele>117.0</ele><time>2026-04-11T15:30:08.001Z</time></trkpt><trkpt lat="45.17681564216843" lon="8.403559462959905"><ele>117.0</ele><time>2026-04-11T15:30:09.001Z</time></trkpt><trkpt lat="45.17693360919725" lon="8.403599672374954"><ele>117.0</ele><time>2026-04-11T15:30:10.001Z</time></trkpt><trkpt lat="45.17703865975191" lon="8.40363531782089"><ele>116.99999999999999</ele><time>2026-04-11T15:30:11.001Z</time></trkpt><trkpt lat="45.17713867548528" lon="8.403666893369294"><ele>116.99999999999999</ele><time>2026-04-11T15:30:12.001Z</time></trkpt><trkpt lat="45.177230483537755" lon="8.403702537759921"><ele>117.0</ele><time>2026-04-11T15:30:13.001Z</time></trkpt><trkpt lat="45.17731808038121" lon="8.403733011052525"><ele>117.0</ele><time>2026-04-11T15:30:14.001Z</time></trkpt><trkpt lat="45.17738718391876" lon="8.403755199221598"><ele>117.0</ele><time>2026-04-11T15:30:15.001Z</time></trkpt><trkpt lat="45.17745696684909" lon="8.403775580868473"><ele>117.0</ele><time>2026-04-11T15:30:16.001Z</time></trkpt><trkpt lat="45.177538911381774" lon="8.403817178773064"><ele>117.0</ele><time>2026-04-11T15:30:18.001Z</time></trkpt><trkpt lat="45.17760165305662" lon="8.403837213715255"><ele>117.0</ele><time>2026-04-11T15:30:30.001Z</time></trkpt><trkpt lat="45.1776743490664" lon="8.403878877185857"><ele>117.0</ele><time>2026-04-11T15:30:43.002Z</time></trkpt><trkpt lat="45.17776142929277" lon="8.403834905098163"><ele>117.0</ele><time>2026-04-11T15:30:45.002Z</time></trkpt><trkpt lat="45.17781588853916" lon="8.403778204155518"><ele>117.0</ele><time>2026-04-11T15:30:46.002Z</time></trkpt><trkpt lat="45.1778856398753" lon="8.40373718107659"><ele>117.00000000000001</ele><time>2026-04-11T15:30:47.002Z</time></trkpt><trkpt lat="45.17794540281547" lon="8.40370711888869"><ele>117.0</ele><time>2026-04-11T15:30:48.002Z</time></trkpt><trkpt lat="45.17800749647592" lon="8.40367582671358"><ele>117.0</ele><time>2026-04-11T15:30:49.002Z</time></trkpt><trkpt lat="45.17807588548476" lon="8.40364643521858"><ele>117.00000000000001</ele><time>2026-04-11T15:30:50.002Z</time></trkpt><trkpt lat="45.17813882781774" lon="8.403623530887355"><ele>117.0</ele><time>2026-04-11T15:30:51.002Z</time></trkpt><trkpt lat="45.17824224368239" lon="8.40361349540024"><ele>117.0</ele><time>2026-04-11T15:30:53.002Z</time></trkpt><trkpt lat="45.17827084940055" lon="8.4033338477757"><ele>116.8</ele><time>2026-04-11T15:30:55.002Z</time></trkpt><trkpt lat="45.17831517907522" lon="8.403196758867738"><ele>116.6</ele><time>2026-04-11T15:30:56.002Z</time></trkpt><trkpt lat="45.17835179261491" lon="8.403067132329818"><ele>116.39999999999999</ele><time>2026-04-11T15:30:57.002Z</time></trkpt><trkpt lat="45.17838681680595" lon="8.402931581995533"><ele>116.19999999999999</ele><time>2026-04-11T15:30:58.002Z</time></trkpt><trkpt lat="45.17842072070888" lon="8.40277533081621"><ele>116.0</ele><time>2026-04-11T15:30:59.002Z</time></trkpt><trkpt lat="45.17842326235176" lon="8.402601577830055"><ele>116.0</ele><time>2026-04-11T15:31:00.002Z</time></trkpt><trkpt lat="45.17843169273555" lon="8.402428612187355"><ele>116.0</ele><time>2026-04-11T15:31:01.002Z</time></trkpt><trkpt lat="45.17844115109558" lon="8.40227978382328"><ele>116.0</ele><time>2026-04-11T15:31:02.002Z</time></trkpt><trkpt lat="45.178434378453154" lon="8.402157614091067"><ele>116.0</ele><time>2026-04-11T15:31:03.002Z</time></trkpt><trkpt lat="45.17844446232039" lon="8.40205103386573"><ele>116.0</ele><time>2026-04-11T15:31:05.002Z</time></trkpt><trkpt lat="45.17844520656235" lon="8.401935088739283"><ele>115.99999999999999</ele><time>2026-04-11T15:31:39.003Z</time></trkpt><trkpt lat="45.17848515564106" lon="8.401833273981154"><ele>116.0</ele><time>2026-04-11T15:31:40Z</time></trkpt><trkpt lat="45.17850657523115" lon="8.401725730571629"><ele>116.0</ele><time>2026-04-11T15:31:40.999Z</time></trkpt><trkpt lat="45.17850857134731" lon="8.401631940493127"><ele>116.0</ele><time>2026-04-11T15:31:42Z</time></trkpt><trkpt lat="45.17854578822863" lon="8.401538938062583"><ele>115.99999999999999</ele><time>2026-04-11T15:31:44Z</time></trkpt><trkpt lat="45.17865678970774" lon="8.401539104792851"><ele>116.0</ele><time>2026-04-11T15:31:47Z</time></trkpt><trkpt lat="45.17873742810112" lon="8.401554049218358"><ele>116.0</ele><time>2026-04-11T15:31:48Z</time></trkpt><trkpt lat="45.17882977496987" lon="8.401548749895179"><ele>116.0</ele><time>2026-04-11T15:31:49Z</time></trkpt><trkpt lat="45.17891961670057" lon="8.401569017803519"><ele>116.0</ele><time>2026-04-11T15:31:50Z</time></trkpt><trkpt lat="45.17902587149652" lon="8.40158927553948"><ele>116.0</ele><time>2026-04-11T15:31:51Z</time></trkpt><trkpt lat="45.1791421704311" lon="8.401605148956532"><ele>116.0</ele><time>2026-04-11T15:31:52Z</time></trkpt><trkpt lat="45.17925640808948" lon="8.401624902866454"><ele>116.4</ele><time>2026-04-11T15:31:53Z</time></trkpt><trkpt lat="45.17936280822688" lon="8.401646780837776"><ele>116.8</ele><time>2026-04-11T15:31:54Z</time></trkpt><trkpt lat="45.17947244034953" lon="8.401666599364168"><ele>117.20000000000002</ele><time>2026-04-11T15:31:55Z</time></trkpt><trkpt lat="45.17958280133328" lon="8.401684992525322"><ele>117.60000000000001</ele><time>2026-04-11T15:31:56Z</time></trkpt><trkpt lat="45.17969524539018" lon="8.401705437841109"><ele>118.0</ele><time>2026-04-11T15:31:57Z</time></trkpt><trkpt lat="45.17981166276548" lon="8.40172735484921"><ele>117.5</ele><time>2026-04-11T15:31:58Z</time></trkpt><trkpt lat="45.17993050135998" lon="8.401746197433322"><ele>117.0</ele><time>2026-04-11T15:31:59Z</time></trkpt><trkpt lat="45.18005041871621" lon="8.401765672425928"><ele>116.5</ele><time>2026-04-11T15:32:00Z</time></trkpt><trkpt lat="45.18016657526292" lon="8.401784159992339"><ele>116.0</ele><time>2026-04-11T15:32:01Z</time></trkpt><trkpt lat="45.180283605559666" lon="8.401803526973135"><ele>116.0</ele><time>2026-04-11T15:32:02Z</time></trkpt><trkpt lat="45.18039559433671" lon="8.401822220917987"><ele>116.0</ele><time>2026-04-11T15:32:03Z</time></trkpt><trkpt lat="45.18051118084181" lon="8.401838907142185"><ele>116.0</ele><time>2026-04-11T15:32:04Z</time></trkpt><trkpt lat="45.18062895724766" lon="8.401854711468255"><ele>116.0</ele><time>2026-04-11T15:32:05Z</time></trkpt><trkpt lat="45.180739163036804" lon="8.40188018791913"><ele>116.19999999999999</ele><time>2026-04-11T15:32:06Z</time></trkpt><trkpt lat="45.18085256665929" lon="8.40189748347603"><ele>116.39999999999999</ele><time>2026-04-11T15:32:07Z</time></trkpt><trkpt lat="45.18096336539033" lon="8.401916553071343"><ele>116.6</ele><time>2026-04-11T15:32:08Z</time></trkpt><trkpt lat="45.181073236977866" lon="8.401933191528524"><ele>116.8</ele><time>2026-04-11T15:32:09Z</time></trkpt><trkpt lat="45.18118557420993" lon="8.401950186406053"><ele>117.0</ele><time>2026-04-11T15:32:10Z</time></trkpt><trkpt lat="45.18127913877634" lon="8.401973462630341"><ele>117.0</ele><time>2026-04-11T15:32:11Z</time></trkpt><trkpt lat="45.18137011867954" lon="8.401990633673304"><ele>117.0</ele><time>2026-04-11T15:32:12.001Z</time></trkpt><trkpt lat="45.18145293589532" lon="8.402005197620205"><ele>117.0</ele><time>2026-04-11T15:32:13.001Z</time></trkpt><trkpt lat="45.18153170217759" lon="8.402013907230216"><ele>117.0</ele><time>2026-04-11T15:32:14.001Z</time></trkpt><trkpt lat="45.18159607128929" lon="8.402024856975402"><ele>117.0</ele><time>2026-04-11T15:32:15.001Z</time></trkpt><trkpt lat="45.18166666193988" lon="8.40204013765575"><ele>117.0</ele><time>2026-04-11T15:32:17.001Z</time></trkpt><trkpt lat="45.18174384488473" lon="8.402088359757393"><ele>117.19999999999999</ele><time>2026-04-11T15:32:20.001Z</time></trkpt><trkpt lat="45.1818904630484" lon="8.402067375656545"><ele>117.39999999999999</ele><time>2026-04-11T15:32:22.001Z</time></trkpt><trkpt lat="45.181969436007016" lon="8.402073109466773"><ele>117.60000000000001</ele><time>2026-04-11T15:32:23.001Z</time></trkpt><trkpt lat="45.182040155413915" lon="8.402070053071965"><ele>117.80000000000001</ele><time>2026-04-11T15:32:24.001Z</time></trkpt><trkpt lat="45.18213210588151" lon="8.40205996833596"><ele>118.0</ele><time>2026-04-11T15:32:25.001Z</time></trkpt><trkpt lat="45.18222158063322" lon="8.402049081278665"><ele>118.00000000000001</ele><time>2026-04-11T15:32:26.001Z</time></trkpt><trkpt lat="45.18231163977997" lon="8.402037139464632"><ele>118.0</ele><time>2026-04-11T15:32:27.001Z</time></trkpt><trkpt lat="45.18240313255522" lon="8.402052627888379"><ele>118.0</ele><time>2026-04-11T15:32:28.001Z</time></trkpt><trkpt lat="45.182484670093686" lon="8.402047324229674"><ele>118.0</ele><time>2026-04-11T15:32:29.001Z</time></trkpt><trkpt lat="45.1825528914128" lon="8.402049337265566"><ele>118.00000000000001</ele><time>2026-04-11T15:32:30.001Z</time></trkpt><trkpt lat="45.18263852382242" lon="8.40205930230453"><ele>118.0</ele><time>2026-04-11T15:32:31.001Z</time></trkpt><trkpt lat="45.182726461445895" lon="8.40209351256849"><ele>118.16666666666667</ele><time>2026-04-11T15:32:32.001Z</time></trkpt><trkpt lat="45.18280874026424" lon="8.402132628661528"><ele>118.33333333333334</ele><time>2026-04-11T15:32:33.001Z</time></trkpt><trkpt lat="45.18289378507524" lon="8.402168484890217"><ele>118.5</ele><time>2026-04-11T15:32:34.001Z</time></trkpt><trkpt lat="45.182985859954606" lon="8.402194050967982"><ele>118.66666666666666</ele><time>2026-04-11T15:32:35.001Z</time></trkpt><trkpt lat="45.18307061636927" lon="8.40222174431695"><ele>118.83333333333333</ele><time>2026-04-11T15:32:36.001Z</time></trkpt><trkpt lat="45.18314023011154" lon="8.402268387491247"><ele>119.0</ele><time>2026-04-11T15:32:37.001Z</time></trkpt><trkpt lat="45.18322036340481" lon="8.402306051615206"><ele>119.33333333333333</ele><time>2026-04-11T15:32:38.001Z</time></trkpt><trkpt lat="45.18330338893169" lon="8.402328279095515"><ele>119.66666666666666</ele><time>2026-04-11T15:32:39.001Z</time></trkpt><trkpt lat="45.18336960454906" lon="8.40237090293178"><ele>120.0</ele><time>2026-04-11T15:32:40.001Z</time></trkpt><trkpt lat="45.18342944363952" lon="8.40240682981215"><ele>120.33333333333334</ele><time>2026-04-11T15:32:41.001Z</time></trkpt><trkpt lat="45.18347867850478" lon="8.402470919549007"><ele>120.66666666666667</ele><time>2026-04-11T15:32:42.001Z</time></trkpt><trkpt lat="45.18353912334647" lon="8.402520983432453"><ele>121.0</ele><time>2026-04-11T15:32:44.002Z</time></trkpt><trkpt lat="45.18361250863361" lon="8.402262496885308"><ele>121.0</ele><time>2026-04-11T15:32:46.002Z</time></trkpt><trkpt lat="45.18361175608909" lon="8.402144250601813"><ele>121.0</ele><time>2026-04-11T15:32:47.002Z</time></trkpt><trkpt lat="45.18362615527671" lon="8.402011469898497"><ele>121.0</ele><time>2026-04-11T15:32:48.002Z</time></trkpt><trkpt lat="45.183647545128494" lon="8.401866650169282"><ele>121.0</ele><time>2026-04-11T15:32:49.002Z</time></trkpt><trkpt lat="45.18366243108058" lon="8.40171016937482"><ele>121.0</ele><time>2026-04-11T15:32:50.002Z</time></trkpt><trkpt lat="45.183676192089486" lon="8.401573636618027"><ele>121.0</ele><time>2026-04-11T15:32:51.002Z</time></trkpt><trkpt lat="45.18370385431707" lon="8.401439718566614"><ele>121.0</ele><time>2026-04-11T15:32:52.002Z</time></trkpt><trkpt lat="45.183727248874774" lon="8.401319439269193"><ele>121.0</ele><time>2026-04-11T15:32:53.002Z</time></trkpt><trkpt lat="45.183745226869775" lon="8.401201596858474"><ele>121.0</ele><time>2026-04-11T15:32:54.002Z</time></trkpt><trkpt lat="45.18376309038384" lon="8.401093583889505"><ele>121.0</ele><time>2026-04-11T15:32:55.002Z</time></trkpt><trkpt lat="45.183796911193234" lon="8.40094974010263"><ele>121.00000000000001</ele><time>2026-04-11T15:32:57.002Z</time></trkpt><trkpt lat="45.18379796923335" lon="8.40081634841832"><ele>121.0</ele><time>2026-04-11T15:33:03.002Z</time></trkpt><trkpt lat="45.18378424613655" lon="8.400721558000646"><ele>121.0</ele><time>2026-04-11T15:33:04.002Z</time></trkpt><trkpt lat="45.18379055581726" lon="8.400610667885097"><ele>121.0</ele><time>2026-04-11T15:33:05.002Z</time></trkpt><trkpt lat="45.18378379594523" lon="8.400510406839457"><ele>121.00000000000001</ele><time>2026-04-11T15:33:06.002Z</time></trkpt><trkpt lat="45.18377675961415" lon="8.400389924534387"><ele>121.0</ele><time>2026-04-11T15:33:07.002Z</time></trkpt><trkpt lat="45.18376859978023" lon="8.400249405851069"><ele>120.6</ele><time>2026-04-11T15:33:08.002Z</time></trkpt><trkpt lat="45.183760557957505" lon="8.40009500315579"><ele>120.19999999999999</ele><time>2026-04-11T15:33:09.002Z</time></trkpt><trkpt lat="45.183754346526975" lon="8.399939877784051"><ele>119.80000000000001</ele><time>2026-04-11T15:33:10.002Z</time></trkpt><trkpt lat="45.18374909552556" lon="8.399791847111818"><ele>119.4</ele><time>2026-04-11T15:33:11.002Z</time></trkpt><trkpt lat="45.18374429866406" lon="8.399653302711773"><ele>119.0</ele><time>2026-04-11T15:33:12.002Z</time></trkpt><trkpt lat="45.18373808794555" lon="8.39951249877318"><ele>119.0</ele><time>2026-04-11T15:33:13.002Z</time></trkpt><trkpt lat="45.183730182475266" lon="8.399379004040926"><ele>119.0</ele><time>2026-04-11T15:33:14.002Z</time></trkpt><trkpt lat="45.183721764886215" lon="8.399243431785209"><ele>119.0</ele><time>2026-04-11T15:33:15.002Z</time></trkpt><trkpt lat="45.18371441986554" lon="8.399112329589308"><ele>119.0</ele><time>2026-04-11T15:33:16.002Z</time></trkpt><trkpt lat="45.18369101052834" lon="8.398996493317949"><ele>119.0</ele><time>2026-04-11T15:33:17.003Z</time></trkpt><trkpt lat="45.18371016380122" lon="8.398878923650772"><ele>119.0</ele><time>2026-04-11T15:33:19.003Z</time></trkpt><trkpt lat="45.18389972768329" lon="8.398894430255641"><ele>119.0</ele><time>2026-04-11T15:33:23.003Z</time></trkpt><trkpt lat="45.18396530971196" lon="8.398889299808207"><ele>119.0</ele><time>2026-04-11T15:33:24.003Z</time></trkpt><trkpt lat="45.1840554245393" lon="8.39886357481358"><ele>119.0</ele><time>2026-04-11T15:33:25.003Z</time></trkpt><trkpt lat="45.18416258713941" lon="8.398876039898484"><ele>119.0</ele><time>2026-04-11T15:33:26.003Z</time></trkpt><trkpt lat="45.18427073863375" lon="8.39886995322809"><ele>119.0</ele><time>2026-04-11T15:33:27.003Z</time></trkpt><trkpt lat="45.18438138557363" lon="8.39886925753555"><ele>119.0</ele><time>2026-04-11T15:33:28.003Z</time></trkpt><trkpt lat="45.1844912965516" lon="8.398868172381672"><ele>119.0</ele><time>2026-04-11T15:33:29.003Z</time></trkpt><trkpt lat="45.184601330323275" lon="8.398868137216365"><ele>119.0</ele><time>2026-04-11T15:33:30.003Z</time></trkpt><trkpt lat="45.18472120306514" lon="8.398866926421766"><ele>119.0</ele><time>2026-04-11T15:33:31.003Z</time></trkpt><trkpt lat="45.184838272885585" lon="8.398863821119559"><ele>119.0</ele><time>2026-04-11T15:33:32.003Z</time></trkpt><trkpt lat="45.184957284898395" lon="8.398860664303703"><ele>119.0</ele><time>2026-04-11T15:33:33.003Z</time></trkpt><trkpt lat="45.18508166256547" lon="8.398853495725323"><ele>119.0</ele><time>2026-04-11T15:33:34.003Z</time></trkpt><trkpt lat="45.18520825369625" lon="8.398844798436821"><ele>119.0</ele><time>2026-04-11T15:33:35.003Z</time></trkpt><trkpt lat="45.18532933420553" lon="8.398835183696843"><ele>119.0</ele><time>2026-04-11T15:33:36.003Z</time></trkpt><trkpt lat="45.18543818720737" lon="8.39882653992252"><ele>119.0</ele><time>2026-04-11T15:33:37.003Z</time></trkpt><trkpt lat="45.18554131520716" lon="8.398818350761994"><ele>119.0</ele><time>2026-04-11T15:33:38.003Z</time></trkpt><trkpt lat="45.185644503135265" lon="8.398790581349635"><ele>119.0</ele><time>2026-04-11T15:33:39.003Z</time></trkpt><trkpt lat="45.18574170505186" lon="8.398745569648138"><ele>118.66666666666666</ele><time>2026-04-11T15:33:40.003Z</time></trkpt><trkpt lat="45.18582974445784" lon="8.398659415850593"><ele>118.33333333333333</ele><time>2026-04-11T15:33:41.003Z</time></trkpt><trkpt lat="45.185904597766935" lon="8.398585072573448"><ele>118.0</ele><time>2026-04-11T15:33:42.003Z</time></trkpt><trkpt lat="45.18596888929243" lon="8.398518668196157"><ele>117.66666666666666</ele><time>2026-04-11T15:33:43.003Z</time></trkpt><trkpt lat="45.18602877458263" lon="8.39845681377958"><ele>117.33333333333333</ele><time>2026-04-11T15:33:44.003Z</time></trkpt><trkpt lat="45.18609336487061" lon="8.398390099320194"><ele>117.0</ele><time>2026-04-11T15:33:45.003Z</time></trkpt><trkpt lat="45.186164623499764" lon="8.398311036576162"><ele>117.0</ele><time>2026-04-11T15:33:45.999Z</time></trkpt><trkpt lat="45.18624352371873" lon="8.398235449229167"><ele>116.99999999999999</ele><time>2026-04-11T15:33:46.999Z</time></trkpt><trkpt lat="45.18632508931821" lon="8.39815199261872"><ele>116.99999999999999</ele><time>2026-04-11T15:33:47.999Z</time></trkpt><trkpt lat="45.186407202954825" lon="8.398051037874236"><ele>117.0</ele><time>2026-04-11T15:33:48.999Z</time></trkpt><trkpt lat="45.186494774783554" lon="8.397940518050715"><ele>117.0</ele><time>2026-04-11T15:33:49.999Z</time></trkpt><trkpt lat="45.18658483100089" lon="8.3978602006914"><ele>117.16666666666667</ele><time>2026-04-11T15:33:50.999Z</time></trkpt><trkpt lat="45.186652773780935" lon="8.39778050297017"><ele>117.33333333333334</ele><time>2026-04-11T15:33:51.999Z</time></trkpt><trkpt lat="45.18671857055058" lon="8.39770332241276"><ele>117.5</ele><time>2026-04-11T15:33:52.999Z</time></trkpt><trkpt lat="45.1867752056473" lon="8.397636089116899"><ele>117.66666666666667</ele><time>2026-04-11T15:33:53.999Z</time></trkpt><trkpt lat="45.18683273720889" lon="8.397569125463916"><ele>117.83333333333334</ele><time>2026-04-11T15:33:54.999Z</time></trkpt><trkpt lat="45.18689590830743" lon="8.397483062379122"><ele>118.0</ele><time>2026-04-11T15:33:55.999Z</time></trkpt><trkpt lat="45.18696988393647" lon="8.397416158402082"><ele>118.0</ele><time>2026-04-11T15:33:56.999Z</time></trkpt><trkpt lat="45.18705680313739" lon="8.3973473485396"><ele>118.0</ele><time>2026-04-11T15:33:57.999Z</time></trkpt><trkpt lat="45.187134728536925" lon="8.397237675327537"><ele>118.0</ele><time>2026-04-11T15:33:58.999Z</time></trkpt><trkpt lat="45.187161975974945" lon="8.397099966877997"><ele>118.0</ele><time>2026-04-11T15:34:00Z</time></trkpt><trkpt lat="45.187319657000266" lon="8.397089970726679"><ele>117.80000000000001</ele><time>2026-04-11T15:34:01Z</time></trkpt><trkpt lat="45.1874052775484" lon="8.396997447364203"><ele>117.60000000000001</ele><time>2026-04-11T15:34:02Z</time></trkpt><trkpt lat="45.187487144021134" lon="8.396917570451484"><ele>117.39999999999999</ele><time>2026-04-11T15:34:03Z</time></trkpt><trkpt lat="45.187588178688486" lon="8.39681480449262"><ele>117.19999999999999</ele><time>2026-04-11T15:34:04Z</time></trkpt><trkpt lat="45.187682862526415" lon="8.39672265677276"><ele>117.0</ele><time>2026-04-11T15:34:05Z</time></trkpt><trkpt lat="45.18776486199453" lon="8.396644981555802"><ele>117.0</ele><time>2026-04-11T15:34:06Z</time></trkpt><trkpt lat="45.187858121961284" lon="8.396550656771856"><ele>117.0</ele><time>2026-04-11T15:34:07Z</time></trkpt><trkpt lat="45.187955918699856" lon="8.39645172459795"><ele>117.0</ele><time>2026-04-11T15:34:08Z</time></trkpt><trkpt lat="45.18805622016555" lon="8.396347005713702"><ele>117.0</ele><time>2026-04-11T15:34:09Z</time></trkpt><trkpt lat="45.18815482040427" lon="8.396246459211119"><ele>116.8</ele><time>2026-04-11T15:34:10Z</time></trkpt><trkpt lat="45.18825255129227" lon="8.396147306340833"><ele>116.6</ele><time>2026-04-11T15:34:11Z</time></trkpt><trkpt lat="45.18833982506396" lon="8.396058483704335"><ele>116.39999999999999</ele><time>2026-04-11T15:34:12Z</time></trkpt><trkpt lat="45.18842414932017" lon="8.395971752649075"><ele>116.19999999999999</ele><time>2026-04-11T15:34:13Z</time></trkpt><trkpt lat="45.18850066298365" lon="8.3958891463694"><ele>116.0</ele><time>2026-04-11T15:34:14Z</time></trkpt><trkpt lat="45.18856895934818" lon="8.395812878013013"><ele>116.0</ele><time>2026-04-11T15:34:15Z</time></trkpt><trkpt lat="45.18863442670047" lon="8.395742413479132"><ele>116.0</ele><time>2026-04-11T15:34:16Z</time></trkpt><trkpt lat="45.18872905757009" lon="8.395707271106712"><ele>116.0</ele><time>2026-04-11T15:34:18Z</time></trkpt><trkpt lat="45.18883936445095" lon="8.395757204270744"><ele>116.0</ele><time>2026-04-11T15:34:20Z</time></trkpt><trkpt lat="45.18893346901572" lon="8.395779236524236"><ele>116.0</ele><time>2026-04-11T15:34:21Z</time></trkpt><trkpt lat="45.18904380532765" lon="8.395807643050404"><ele>115.8</ele><time>2026-04-11T15:34:22.001Z</time></trkpt><trkpt lat="45.18915037485339" lon="8.39583135594222"><ele>115.6</ele><time>2026-04-11T15:34:23.001Z</time></trkpt><trkpt lat="45.18922473761035" lon="8.395844312020726"><ele>115.4</ele><time>2026-04-11T15:34:24.001Z</time></trkpt><trkpt lat="45.18930216543075" lon="8.395858553889019"><ele>115.2</ele><time>2026-04-11T15:34:25.001Z</time></trkpt><trkpt lat="45.18941074113308" lon="8.39593407230928"><ele>115.0</ele><time>2026-04-11T15:34:27.001Z</time></trkpt><trkpt lat="45.18950146214795" lon="8.395776097464054"><ele>115.0</ele><time>2026-04-11T15:34:31.001Z</time></trkpt><trkpt lat="45.18952643730372" lon="8.395657883144503"><ele>115.0</ele><time>2026-04-11T15:34:32.001Z</time></trkpt><trkpt lat="45.189560556438046" lon="8.39551927061527"><ele>115.0</ele><time>2026-04-11T15:34:33.001Z</time></trkpt><trkpt lat="45.18960298742079" lon="8.395371273975504"><ele>115.0</ele><time>2026-04-11T15:34:34.001Z</time></trkpt><trkpt lat="45.18964851233376" lon="8.395203509988766"><ele>115.0</ele><time>2026-04-11T15:34:35.001Z</time></trkpt><trkpt lat="45.189693852291306" lon="8.395036203229242"><ele>115.0</ele><time>2026-04-11T15:34:36.001Z</time></trkpt><trkpt lat="45.189739193293896" lon="8.394871731000467"><ele>115.0</ele><time>2026-04-11T15:34:37.001Z</time></trkpt><trkpt lat="45.1897860884632" lon="8.39470754069314"><ele>115.0</ele><time>2026-04-11T15:34:38.001Z</time></trkpt><trkpt lat="45.18983157376306" lon="8.39454413376867"><ele>115.0</ele><time>2026-04-11T15:34:39.001Z</time></trkpt><trkpt lat="45.18987639169385" lon="8.39437520637567"><ele>115.25</ele><time>2026-04-11T15:34:40.001Z</time></trkpt><trkpt lat="45.18992084029903" lon="8.394207992623114"><ele>115.5</ele><time>2026-04-11T15:34:41.001Z</time></trkpt><trkpt lat="45.18996753286676" lon="8.3940382632367"><ele>115.75</ele><time>2026-04-11T15:34:42.001Z</time></trkpt><trkpt lat="45.190011223864055" lon="8.393874449303064"><ele>116.0</ele><time>2026-04-11T15:34:43.001Z</time></trkpt><trkpt lat="45.190056839796284" lon="8.39370217470088"><ele>116.0</ele><time>2026-04-11T15:34:44.001Z</time></trkpt><trkpt lat="45.19010426817896" lon="8.393532126375376"><ele>116.0</ele><time>2026-04-11T15:34:45.001Z</time></trkpt><trkpt lat="45.19014781776677" lon="8.393372810652926"><ele>116.0</ele><time>2026-04-11T15:34:46.001Z</time></trkpt><trkpt lat="45.19019256719029" lon="8.393210641493786"><ele>116.0</ele><time>2026-04-11T15:34:47.001Z</time></trkpt><trkpt lat="45.190238125373575" lon="8.393053752385594"><ele>116.19999999999999</ele><time>2026-04-11T15:34:48.001Z</time></trkpt><trkpt lat="45.1902822908546" lon="8.392899642111473"><ele>116.39999999999999</ele><time>2026-04-11T15:34:49.001Z</time></trkpt><trkpt lat="45.190321094094216" lon="8.392754117309256"><ele>116.6</ele><time>2026-04-11T15:34:50.001Z</time></trkpt><trkpt lat="45.190360588191844" lon="8.392611735536434"><ele>116.8</ele><time>2026-04-11T15:34:51.001Z</time></trkpt><trkpt lat="45.190402109429876" lon="8.392470985360232"><ele>117.0</ele><time>2026-04-11T15:34:52.002Z</time></trkpt><trkpt lat="45.19044573566989" lon="8.392316918949659"><ele>117.19999999999999</ele><time>2026-04-11T15:34:53.002Z</time></trkpt><trkpt lat="45.19048980037234" lon="8.392162617233272"><ele>117.39999999999999</ele><time>2026-04-11T15:34:54.002Z</time></trkpt><trkpt lat="45.19052759396931" lon="8.392021502263976"><ele>117.60000000000001</ele><time>2026-04-11T15:34:55.002Z</time></trkpt><trkpt lat="45.190563708248355" lon="8.391886301014175"><ele>117.80000000000001</ele><time>2026-04-11T15:34:56.002Z</time></trkpt><trkpt lat="45.19060074069783" lon="8.391757549182424"><ele>118.0</ele><time>2026-04-11T15:34:57.002Z</time></trkpt><trkpt lat="45.19063482795405" lon="8.391642544900492"><ele>118.0</ele><time>2026-04-11T15:34:58.002Z</time></trkpt><trkpt lat="45.19065742806734" lon="8.391553825759058"><ele>118.00000000000001</ele><time>2026-04-11T15:34:59.002Z</time></trkpt><trkpt lat="45.19068725211549" lon="8.391468628656156"><ele>118.00000000000001</ele><time>2026-04-11T15:35:01.002Z</time></trkpt><trkpt lat="45.190856305018805" lon="8.391440940446497"><ele>118.0</ele><time>2026-04-11T15:35:04.002Z</time></trkpt><trkpt lat="45.19096189047524" lon="8.391424030382005"><ele>118.0</ele><time>2026-04-11T15:35:05.002Z</time></trkpt><trkpt lat="45.19106775687568" lon="8.391411333352526"><ele>118.0</ele><time>2026-04-11T15:35:06.002Z</time></trkpt><trkpt lat="45.19117727717777" lon="8.3914045464545"><ele>118.0</ele><time>2026-04-11T15:35:07.002Z</time></trkpt><trkpt lat="45.19130624817668" lon="8.391395738501947"><ele>118.0</ele><time>2026-04-11T15:35:08.002Z</time></trkpt><trkpt lat="45.19144085185333" lon="8.391383079303507"><ele>118.0</ele><time>2026-04-11T15:35:09.002Z</time></trkpt><trkpt lat="45.19157899376492" lon="8.391372021982322"><ele>118.0</ele><time>2026-04-11T15:35:10.002Z</time></trkpt><trkpt lat="45.191706480392675" lon="8.391358636292896"><ele>118.0</ele><time>2026-04-11T15:35:11.002Z</time></trkpt><trkpt lat="45.19183911669931" lon="8.391342237543736"><ele>118.0</ele><time>2026-04-11T15:35:12.002Z</time></trkpt><trkpt lat="45.19197124729279" lon="8.391327624075346"><ele>118.0</ele><time>2026-04-11T15:35:13.002Z</time></trkpt><trkpt lat="45.19209573427908" lon="8.391316219742484"><ele>118.25</ele><time>2026-04-11T15:35:14.002Z</time></trkpt><trkpt lat="45.1922219499069" lon="8.391301653577603"><ele>118.5</ele><time>2026-04-11T15:35:15.002Z</time></trkpt><trkpt lat="45.192339109740885" lon="8.391290242225397"><ele>118.75</ele><time>2026-04-11T15:35:16.002Z</time></trkpt><trkpt lat="45.19245699535592" lon="8.39127560077555"><ele>119.0</ele><time>2026-04-11T15:35:17.002Z</time></trkpt><trkpt lat="45.192563542122755" lon="8.391267230125457"><ele>118.99999999999999</ele><time>2026-04-11T15:35:18.002Z</time></trkpt><trkpt lat="45.19266070056577" lon="8.391256443473248"><ele>119.0</ele><time>2026-04-11T15:35:19.002Z</time></trkpt><trkpt lat="45.192754677426045" lon="8.391248790767037"><ele>119.0</ele><time>2026-04-11T15:35:20.002Z</time></trkpt><trkpt lat="45.19282326405062" lon="8.39125355330436"><ele>119.0</ele><time>2026-04-11T15:35:21.002Z</time></trkpt><trkpt lat="45.19290954636599" lon="8.391174201367567"><ele>118.99999999999999</ele><time>2026-04-11T15:35:23.002Z</time></trkpt><trkpt lat="45.19293553682498" lon="8.391090917069892"><ele>119.0</ele><time>2026-04-11T15:35:24.002Z</time></trkpt><trkpt lat="45.19298052129025" lon="8.390999727868342"><ele>119.0</ele><time>2026-04-11T15:35:25.003Z</time></trkpt><trkpt lat="45.19304146487947" lon="8.390857209391005"><ele>119.0</ele><time>2026-04-11T15:35:26.003Z</time></trkpt><trkpt lat="45.193103262449576" lon="8.390708993867712"><ele>119.0</ele><time>2026-04-11T15:35:27.003Z</time></trkpt><trkpt lat="45.193168289903824" lon="8.390553031941328"><ele>119.0</ele><time>2026-04-11T15:35:28.003Z</time></trkpt><trkpt lat="45.19323350940721" lon="8.390396609125292"><ele>119.0</ele><time>2026-04-11T15:35:29.003Z</time></trkpt><trkpt lat="45.19330938204118" lon="8.390219306482855"><ele>119.0</ele><time>2026-04-11T15:35:30.003Z</time></trkpt><trkpt lat="45.1933807690521" lon="8.390054551690172"><ele>119.0</ele><time>2026-04-11T15:35:31.003Z</time></trkpt><trkpt lat="45.19346306377911" lon="8.389864622626785"><ele>119.0</ele><time>2026-04-11T15:35:32.003Z</time></trkpt><trkpt lat="45.193551330989955" lon="8.389657755460828"><ele>118.66666666666666</ele><time>2026-04-11T15:35:33.003Z</time></trkpt><trkpt lat="45.19364589518375" lon="8.389429836231473"><ele>118.33333333333334</ele><time>2026-04-11T15:35:34.003Z</time></trkpt><trkpt lat="45.19373624436366" lon="8.389211244626138"><ele>118.0</ele><time>2026-04-11T15:35:35.003Z</time></trkpt><trkpt lat="45.19381778358425" lon="8.389007989174154"><ele>118.0</ele><time>2026-04-11T15:35:36.003Z</time></trkpt><trkpt lat="45.19389326933429" lon="8.38881910284339"><ele>118.0</ele><time>2026-04-11T15:35:37.003Z</time></trkpt><trkpt lat="45.1939677960399" lon="8.388635056980347"><ele>118.0</ele><time>2026-04-11T15:35:38.003Z</time></trkpt><trkpt lat="45.19404703209474" lon="8.388444882816486"><ele>118.0</ele><time>2026-04-11T15:35:39.003Z</time></trkpt><trkpt lat="45.19413185736415" lon="8.38824428597416"><ele>118.0</ele><time>2026-04-11T15:35:40.003Z</time></trkpt><trkpt lat="45.19421374375503" lon="8.388050639289617"><ele>118.0</ele><time>2026-04-11T15:35:41.003Z</time></trkpt><trkpt lat="45.194299410806046" lon="8.387846896869407"><ele>118.0</ele><time>2026-04-11T15:35:42.003Z</time></trkpt><trkpt lat="45.194380665319606" lon="8.387653384906438"><ele>118.0</ele><time>2026-04-11T15:35:43.003Z</time></trkpt><trkpt lat="45.194454951624145" lon="8.387476467766383"><ele>118.0</ele><time>2026-04-11T15:35:44.003Z</time></trkpt><trkpt lat="45.194527895537625" lon="8.38730274809553"><ele>118.0</ele><time>2026-04-11T15:35:45.003Z</time></trkpt><trkpt lat="45.19460763240925" lon="8.38711285062029"><ele>118.0</ele><time>2026-04-11T15:35:46.003Z</time></trkpt><trkpt lat="45.194682830096916" lon="8.386934051722479"><ele>118.0</ele><time>2026-04-11T15:35:47.003Z</time></trkpt><trkpt lat="45.19475887111067" lon="8.386754201196979"><ele>118.0</ele><time>2026-04-11T15:35:48.003Z</time></trkpt><trkpt lat="45.194838202104144" lon="8.38656656947112"><ele>118.0</ele><time>2026-04-11T15:35:49.003Z</time></trkpt><trkpt lat="45.19491313438487" lon="8.38638861901104"><ele>118.75</ele><time>2026-04-11T15:35:50.003Z</time></trkpt><trkpt lat="45.19499331132541" lon="8.386196567011464"><ele>119.5</ele><time>2026-04-11T15:35:51.003Z</time></trkpt><trkpt lat="45.195067229616086" lon="8.386019506293195"><ele>120.25</ele><time>2026-04-11T15:35:51.999Z</time></trkpt><trkpt lat="45.19513351493141" lon="8.38586072939768"><ele>121.0</ele><time>2026-04-11T15:35:52.999Z</time></trkpt><trkpt lat="45.19519994870659" lon="8.385701596953233"><ele>121.0</ele><time>2026-04-11T15:35:53.999Z</time></trkpt><trkpt lat="45.19526390265905" lon="8.385548404558387"><ele>121.0</ele><time>2026-04-11T15:35:54.999Z</time></trkpt><trkpt lat="45.1953258818744" lon="8.38540595718432"><ele>121.0</ele><time>2026-04-11T15:35:55.999Z</time></trkpt><trkpt lat="45.19538518138048" lon="8.385268972824994"><ele>121.0</ele><time>2026-04-11T15:35:56.999Z</time></trkpt><trkpt lat="45.19542449470924" lon="8.385161498548255"><ele>121.0</ele><time>2026-04-11T15:35:57.999Z</time></trkpt><trkpt lat="45.195451411133696" lon="8.385054710930875"><ele>120.5</ele><time>2026-04-11T15:35:58.999Z</time></trkpt><trkpt lat="45.19542784250441" lon="8.384911716864384"><ele>120.0</ele><time>2026-04-11T15:35:59.999Z</time></trkpt><trkpt lat="45.19540719229722" lon="8.384756780442547"><ele>119.5</ele><time>2026-04-11T15:36:00.999Z</time></trkpt><trkpt lat="45.195385422549435" lon="8.384580421592554"><ele>119.0</ele><time>2026-04-11T15:36:01.999Z</time></trkpt><trkpt lat="45.19536393041552" lon="8.384393980015954"><ele>119.0</ele><time>2026-04-11T15:36:02.999Z</time></trkpt><trkpt lat="45.19534049336157" lon="8.384189766497517"><ele>119.0</ele><time>2026-04-11T15:36:03.999Z</time></trkpt><trkpt lat="45.19532126964067" lon="8.383999843308754"><ele>119.0</ele><time>2026-04-11T15:36:04.999Z</time></trkpt><trkpt lat="45.195305242770814" lon="8.383809004336992"><ele>119.0</ele><time>2026-04-11T15:36:06Z</time></trkpt><trkpt lat="45.19528632850995" lon="8.383612804974584"><ele>119.0</ele><time>2026-04-11T15:36:07Z</time></trkpt><trkpt lat="45.19526617124669" lon="8.38341627654532"><ele>119.0</ele><time>2026-04-11T15:36:08Z</time></trkpt><trkpt lat="45.195245864179164" lon="8.383215507584028"><ele>119.0</ele><time>2026-04-11T15:36:09Z</time></trkpt><trkpt lat="45.19522915169142" lon="8.383023208788508"><ele>119.0</ele><time>2026-04-11T15:36:10Z</time></trkpt><trkpt lat="45.19521311253726" lon="8.382827025970903"><ele>119.0</ele><time>2026-04-11T15:36:11Z</time></trkpt><trkpt lat="45.19519860574385" lon="8.382626574160149"><ele>119.0</ele><time>2026-04-11T15:36:12Z</time></trkpt><trkpt lat="45.195179739931504" lon="8.382431333188586"><ele>119.0</ele><time>2026-04-11T15:36:13Z</time></trkpt><trkpt lat="45.195158878071226" lon="8.382232286772224"><ele>119.0</ele><time>2026-04-11T15:36:14Z</time></trkpt><trkpt lat="45.195138217101075" lon="8.382017195848288"><ele>118.75</ele><time>2026-04-11T15:36:15Z</time></trkpt><trkpt lat="45.19511775594163" lon="8.381799603276132"><ele>118.5</ele><time>2026-04-11T15:36:16Z</time></trkpt><trkpt lat="45.195096822359545" lon="8.38157856530623"><ele>118.25</ele><time>2026-04-11T15:36:17Z</time></trkpt><trkpt lat="45.195078869382556" lon="8.381392607486088"><ele>118.0</ele><time>2026-04-11T15:36:18Z</time></trkpt><trkpt lat="45.195062082551345" lon="8.381216057345869"><ele>118.0</ele><time>2026-04-11T15:36:19Z</time></trkpt><trkpt lat="45.195043656741056" lon="8.381027298109245"><ele>118.0</ele><time>2026-04-11T15:36:20Z</time></trkpt><trkpt lat="45.1950246820676" lon="8.380824250510681"><ele>118.0</ele><time>2026-04-11T15:36:21Z</time></trkpt><trkpt lat="45.1950049560089" lon="8.380611258001762"><ele>118.0</ele><time>2026-04-11T15:36:22Z</time></trkpt><trkpt lat="45.19498350687793" lon="8.380388761043976"><ele>118.33333333333334</ele><time>2026-04-11T15:36:23Z</time></trkpt><trkpt lat="45.19496791541774" lon="8.38016466376795"><ele>118.66666666666666</ele><time>2026-04-11T15:36:24Z</time></trkpt><trkpt lat="45.194943333271056" lon="8.379924873635558"><ele>119.0</ele><time>2026-04-11T15:36:25Z</time></trkpt><trkpt lat="45.194922981434935" lon="8.379702441636391"><ele>119.0</ele><time>2026-04-11T15:36:26.001Z</time></trkpt><trkpt lat="45.19490078732517" lon="8.379493724408434"><ele>119.0</ele><time>2026-04-11T15:36:27.001Z</time></trkpt><trkpt lat="45.194881560322735" lon="8.379303040458108"><ele>119.0</ele><time>2026-04-11T15:36:28.001Z</time></trkpt><trkpt lat="45.194861436493696" lon="8.379117196276276"><ele>119.0</ele><time>2026-04-11T15:36:29.001Z</time></trkpt><trkpt lat="45.19484326938053" lon="8.378927894009646"><ele>119.2</ele><time>2026-04-11T15:36:30.001Z</time></trkpt><trkpt lat="45.19482899066637" lon="8.378750358697845"><ele>119.4</ele><time>2026-04-11T15:36:31.001Z</time></trkpt><trkpt lat="45.19483293493792" lon="8.37858064577748"><ele>119.6</ele><time>2026-04-11T15:36:32.001Z</time></trkpt><trkpt lat="45.19482455902983" lon="8.378432361581897"><ele>119.8</ele><time>2026-04-11T15:36:33.001Z</time></trkpt><trkpt lat="45.194801367528996" lon="8.378324336437633"><ele>120.0</ele><time>2026-04-11T15:36:34.001Z</time></trkpt><trkpt lat="45.19478096723448" lon="8.37815655129979"><ele>120.0</ele><time>2026-04-11T15:36:36.001Z</time></trkpt><trkpt lat="45.19473004997469" lon="8.378089049919057"><ele>120.0</ele><time>2026-04-11T15:36:37.001Z</time></trkpt><trkpt lat="45.19464707384017" lon="8.378074166976063"><ele>120.0</ele><time>2026-04-11T15:36:38.001Z</time></trkpt><trkpt lat="45.19458008845156" lon="8.378025238796926"><ele>120.0</ele><time>2026-04-11T15:36:39.001Z</time></trkpt><trkpt lat="45.19453074306167" lon="8.377952511340101"><ele>120.0</ele><time>2026-04-11T15:36:40.001Z</time></trkpt><trkpt lat="45.19453320604323" lon="8.377858803454993"><ele>120.0</ele><time>2026-04-11T15:36:41.001Z</time></trkpt><trkpt lat="45.19454065996344" lon="8.377751017556436"><ele>120.0</ele><time>2026-04-11T15:36:42.001Z</time></trkpt><trkpt lat="45.19455278506374" lon="8.377611798567543"><ele>120.0</ele><time>2026-04-11T15:36:43.001Z</time></trkpt><trkpt lat="45.194567123778796" lon="8.377429393255149"><ele>120.0</ele><time>2026-04-11T15:36:44.001Z</time></trkpt><trkpt lat="45.19458083191134" lon="8.37722615732617"><ele>120.0</ele><time>2026-04-11T15:36:45.001Z</time></trkpt><trkpt lat="45.19458624602375" lon="8.377039252427508"><ele>120.0</ele><time>2026-04-11T15:36:46.001Z</time></trkpt><trkpt lat="45.19457839045665" lon="8.37685227783639"><ele>120.0</ele><time>2026-04-11T15:36:47.001Z</time></trkpt><trkpt lat="45.19453268032926" lon="8.376681626231145"><ele>120.0</ele><time>2026-04-11T15:36:48.001Z</time></trkpt><trkpt lat="45.1944900480034" lon="8.376503975452657"><ele>120.0</ele><time>2026-04-11T15:36:49.001Z</time></trkpt><trkpt lat="45.19443663811254" lon="8.376309331674715"><ele>120.0</ele><time>2026-04-11T15:36:50.001Z</time></trkpt><trkpt lat="45.19437507317154" lon="8.376101592898035"><ele>120.0</ele><time>2026-04-11T15:36:51.001Z</time></trkpt><trkpt lat="45.19431263012481" lon="8.375867654341054"><ele>120.0</ele><time>2026-04-11T15:36:52.001Z</time></trkpt><trkpt lat="45.19425211997762" lon="8.375630492497994"><ele>120.0</ele><time>2026-04-11T15:36:53.001Z</time></trkpt><trkpt lat="45.19419674158715" lon="8.375391579950588"><ele>120.0</ele><time>2026-04-11T15:36:54.001Z</time></trkpt><trkpt lat="45.194168925069434" lon="8.375159808585506"><ele>120.0</ele><time>2026-04-11T15:36:55.002Z</time></trkpt><trkpt lat="45.194135365741154" lon="8.374963978166697"><ele>120.0</ele><time>2026-04-11T15:36:56.002Z</time></trkpt><trkpt lat="45.194088998341456" lon="8.374781578796176"><ele>120.0</ele><time>2026-04-11T15:36:57.002Z</time></trkpt><trkpt lat="45.19406059235287" lon="8.3745819784172"><ele>120.0</ele><time>2026-04-11T15:36:58.002Z</time></trkpt><trkpt lat="45.194029095981264" lon="8.374405483320231"><ele>120.0</ele><time>2026-04-11T15:36:59.002Z</time></trkpt><trkpt lat="45.194008867951304" lon="8.374233355267263"><ele>120.0</ele><time>2026-04-11T15:37:00.002Z</time></trkpt><trkpt lat="45.19402562727438" lon="8.374052374295687"><ele>120.0</ele><time>2026-04-11T15:37:01.002Z</time></trkpt><trkpt lat="45.19405199814035" lon="8.373870301829477"><ele>120.0</ele><time>2026-04-11T15:37:02.002Z</time></trkpt><trkpt lat="45.194092619046046" lon="8.37367323794376"><ele>120.0</ele><time>2026-04-11T15:37:03.002Z</time></trkpt><trkpt lat="45.194126483657406" lon="8.373449205366263"><ele>120.0</ele><time>2026-04-11T15:37:04.002Z</time></trkpt><trkpt lat="45.194178845796046" lon="8.373223070269942"><ele>120.0</ele><time>2026-04-11T15:37:05.002Z</time></trkpt><trkpt lat="45.19423324808357" lon="8.372971422309517"><ele>120.0</ele><time>2026-04-11T15:37:06.002Z</time></trkpt><trkpt lat="45.194286663224" lon="8.372736918768238"><ele>120.0</ele><time>2026-04-11T15:37:07.002Z</time></trkpt><trkpt lat="45.19433785834675" lon="8.372523065477786"><ele>120.0</ele><time>2026-04-11T15:37:08.002Z</time></trkpt><trkpt lat="45.19438235581339" lon="8.372323708830786"><ele>120.0</ele><time>2026-04-11T15:37:09.002Z</time></trkpt><trkpt lat="45.194438526208884" lon="8.372146064232643"><ele>120.0</ele><time>2026-04-11T15:37:10.002Z</time></trkpt><trkpt lat="45.19447810407512" lon="8.371991031322862"><ele>120.0</ele><time>2026-04-11T15:37:11.002Z</time></trkpt><trkpt lat="45.194510373681084" lon="8.371868916752483"><ele>120.16666666666667</ele><time>2026-04-11T15:37:12.002Z</time></trkpt><trkpt lat="45.19453385711107" lon="8.371758861648633"><ele>120.33333333333334</ele><time>2026-04-11T15:37:13.002Z</time></trkpt><trkpt lat="45.194586538231505" lon="8.371674685687958"><ele>120.5</ele><time>2026-04-11T15:37:14.002Z</time></trkpt><trkpt lat="45.19467271220472" lon="8.3716360147132"><ele>120.66666666666667</ele><time>2026-04-11T15:37:15.002Z</time></trkpt><trkpt lat="45.194753337530784" lon="8.371599932092742"><ele>120.83333333333334</ele><time>2026-04-11T15:37:16.002Z</time></trkpt><trkpt lat="45.194860012012725" lon="8.371590128948766"><ele>121.0</ele><time>2026-04-11T15:37:17.002Z</time></trkpt><trkpt lat="45.19497926968225" lon="8.371558681699677"><ele>121.00000000000001</ele><time>2026-04-11T15:37:18.002Z</time></trkpt><trkpt lat="45.19507233231816" lon="8.371515000133375"><ele>121.0</ele><time>2026-04-11T15:37:19.002Z</time></trkpt><trkpt lat="45.19513896255475" lon="8.371472363429419"><ele>121.0</ele><time>2026-04-11T15:37:20.002Z</time></trkpt><trkpt lat="45.19519052594808" lon="8.371386079112497"><ele>121.0</ele><time>2026-04-11T15:37:21.002Z</time></trkpt><trkpt lat="45.195201475798775" lon="8.371261093438127"><ele>121.00000000000001</ele><time>2026-04-11T15:37:22.002Z</time></trkpt><trkpt lat="45.195222622216576" lon="8.37113333393286"><ele>121.0</ele><time>2026-04-11T15:37:23.002Z</time></trkpt><trkpt lat="45.1952455756365" lon="8.370973664048895"><ele>121.0</ele><time>2026-04-11T15:37:24.002Z</time></trkpt><trkpt lat="45.19528311662949" lon="8.37080837689805"><ele>121.0</ele><time>2026-04-11T15:37:25.002Z</time></trkpt><trkpt lat="45.1953348154451" lon="8.370674932788045"><ele>121.0</ele><time>2026-04-11T15:37:26.002Z</time></trkpt><trkpt lat="45.19540113710315" lon="8.370556230626597"><ele>121.0</ele><time>2026-04-11T15:37:27.003Z</time></trkpt><trkpt lat="45.19549724375414" lon="8.370473426561585"><ele>121.0</ele><time>2026-04-11T15:37:28.003Z</time></trkpt><trkpt lat="45.19555484671045" lon="8.37035757855445"><ele>121.00000000000001</ele><time>2026-04-11T15:37:29.003Z</time></trkpt><trkpt lat="45.19561127892733" lon="8.370288665749639"><ele>121.0</ele><time>2026-04-11T15:37:30.003Z</time></trkpt><trkpt lat="45.19567126895483" lon="8.370217842423642"><ele>121.0</ele><time>2026-04-11T15:37:32.003Z</time></trkpt><trkpt lat="45.195770226434576" lon="8.370245819453471"><ele>121.0</ele><time>2026-04-11T15:37:39.003Z</time></trkpt><trkpt lat="45.195837998935914" lon="8.370253482180447"><ele>121.00000000000001</ele><time>2026-04-11T15:37:41.003Z</time></trkpt><trkpt lat="45.195906748321455" lon="8.37024856045443"><ele>121.0</ele><time>2026-04-11T15:37:42.003Z</time></trkpt><trkpt lat="45.195993056943806" lon="8.370250597158115"><ele>121.16666666666667</ele><time>2026-04-11T15:37:43.003Z</time></trkpt><trkpt lat="45.1960797589619" lon="8.370233304191471"><ele>121.33333333333334</ele><time>2026-04-11T15:37:44.003Z</time></trkpt><trkpt lat="45.196149632145016" lon="8.37021740285352"><ele>121.5</ele><time>2026-04-11T15:37:45.003Z</time></trkpt><trkpt lat="45.19624714627747" lon="8.37020077948515"><ele>121.66666666666666</ele><time>2026-04-11T15:37:47.003Z</time></trkpt><trkpt lat="45.19631008095416" lon="8.370218668488523"><ele>121.83333333333333</ele><time>2026-04-11T15:37:54.003Z</time></trkpt><trkpt lat="45.196334343535945" lon="8.37033929603448"><ele>122.0</ele><time>2026-04-11T15:37:55.003Z</time></trkpt><trkpt lat="45.19634474728731" lon="8.37045114382601"><ele>122.0</ele><time>2026-04-11T15:37:56.003Z</time></trkpt><trkpt lat="45.196340631145105" lon="8.370633692230758"><ele>122.0</ele><time>2026-04-11T15:37:58Z</time></trkpt><trkpt lat="45.19634541345273" lon="8.370759602792695"><ele>122.0</ele><time>2026-04-11T15:38:00Z</time></trkpt><trkpt lat="45.19654992641969" lon="8.370785062975823"><ele>122.0</ele><time>2026-04-11T15:38:02Z</time></trkpt><trkpt lat="45.196629936236675" lon="8.370778527611483"><ele>122.0</ele><time>2026-04-11T15:38:03Z</time></trkpt><trkpt lat="45.19672498311751" lon="8.370754999546248"><ele>122.0</ele><time>2026-04-11T15:38:04Z</time></trkpt><trkpt lat="45.196847433747934" lon="8.370747165049881"><ele>122.0</ele><time>2026-04-11T15:38:05Z</time></trkpt><trkpt lat="45.19696139425887" lon="8.370727265590737"><ele>122.0</ele><time>2026-04-11T15:38:06Z</time></trkpt><trkpt lat="45.19707718217454" lon="8.370707047051349"><ele>122.0</ele><time>2026-04-11T15:38:07Z</time></trkpt><trkpt lat="45.197190186027015" lon="8.370687314656145"><ele>121.99999999999999</ele><time>2026-04-11T15:38:08Z</time></trkpt><trkpt lat="45.19729628795932" lon="8.37066878746178"><ele>121.99999999999999</ele><time>2026-04-11T15:38:09Z</time></trkpt><trkpt lat="45.19738791613394" lon="8.370652787598136"><ele>122.0</ele><time>2026-04-11T15:38:10Z</time></trkpt><trkpt lat="45.197467845142654" lon="8.370638830636917"><ele>122.0</ele><time>2026-04-11T15:38:11Z</time></trkpt><trkpt lat="45.19753676196136" lon="8.370626796493585"><ele>122.0</ele><time>2026-04-11T15:38:12Z</time></trkpt><trkpt lat="45.19765429511557" lon="8.370571509619449"><ele>121.99999999999999</ele><time>2026-04-11T15:38:14Z</time></trkpt><trkpt lat="45.19773146732551" lon="8.370510343337532"><ele>121.99999999999999</ele><time>2026-04-11T15:38:16Z</time></trkpt><trkpt lat="45.19783178994703" lon="8.370425425431392"><ele>122.0</ele><time>2026-04-11T15:38:23Z</time></trkpt><trkpt lat="45.19789412107608" lon="8.370358246213089"><ele>122.0</ele><time>2026-04-11T15:38:24Z</time></trkpt><trkpt lat="45.19793944505399" lon="8.37029172500254"><ele>122.33333333333333</ele><time>2026-04-11T15:38:25Z</time></trkpt><trkpt lat="45.19797237345225" lon="8.370212141565199"><ele>122.66666666666666</ele><time>2026-04-11T15:38:26Z</time></trkpt><trkpt lat="45.19799632710536" lon="8.370120584009788"><ele>123.0</ele><time>2026-04-11T15:38:27Z</time></trkpt><trkpt lat="45.198032240181604" lon="8.369977690236142"><ele>123.33333333333334</ele><time>2026-04-11T15:38:29Z</time></trkpt><trkpt lat="45.1980534294268" lon="8.369890891235473"><ele>123.66666666666667</ele><time>2026-04-11T15:38:31Z</time></trkpt><trkpt lat="45.19815319849445" lon="8.369854322435925"><ele>124.0</ele><time>2026-04-11T15:38:34.001Z</time></trkpt><trkpt lat="45.19829111783221" lon="8.36982587800714"><ele>124.00000000000001</ele><time>2026-04-11T15:38:36.001Z</time></trkpt><trkpt lat="45.19836966188765" lon="8.369792338177849"><ele>124.0</ele><time>2026-04-11T15:38:37.001Z</time></trkpt><trkpt lat="45.198457755248576" lon="8.369786602371962"><ele>124.0</ele><time>2026-04-11T15:38:38.001Z</time></trkpt><trkpt lat="45.19853522068606" lon="8.369765747853988"><ele>124.0</ele><time>2026-04-11T15:38:39.001Z</time></trkpt><trkpt lat="45.19860044188409" lon="8.369745596580286"><ele>124.00000000000001</ele><time>2026-04-11T15:38:40.001Z</time></trkpt><trkpt lat="45.19870153903774" lon="8.369729214326519"><ele>124.0</ele><time>2026-04-11T15:38:42.001Z</time></trkpt><trkpt lat="45.19878991224102" lon="8.369715848032783"><ele>124.00000000000001</ele><time>2026-04-11T15:38:44.001Z</time></trkpt><trkpt lat="45.19888127180311" lon="8.369700092546141"><ele>124.0</ele><time>2026-04-11T15:38:46.001Z</time></trkpt><trkpt lat="45.19890282111407" lon="8.369604296422446"><ele>124.0</ele><time>2026-04-11T15:38:49.001Z</time></trkpt><trkpt lat="45.19889066312379" lon="8.3694651201769"><ele>124.0</ele><time>2026-04-11T15:38:51.001Z</time></trkpt><trkpt lat="45.19891796321684" lon="8.369363433127008"><ele>124.00000000000001</ele><time>2026-04-11T15:38:54.001Z</time></trkpt><trkpt lat="45.19902150242111" lon="8.369324475276228"><ele>124.0</ele><time>2026-04-11T15:38:56.001Z</time></trkpt><trkpt lat="45.19908751038852" lon="8.369354707161435"><ele>124.00000000000001</ele><time>2026-04-11T15:38:59.001Z</time></trkpt><trkpt lat="45.19912642356225" lon="8.369209961232446"><ele>124.0</ele><time>2026-04-11T15:39:03.001Z</time></trkpt><trkpt lat="45.19911274986791" lon="8.36911688065059"><ele>124.0</ele><time>2026-04-11T15:39:04.002Z</time></trkpt><trkpt lat="45.199094656490686" lon="8.369006164058948"><ele>124.0</ele><time>2026-04-11T15:39:05.002Z</time></trkpt><trkpt lat="45.19907113350406" lon="8.368906926670599"><ele>124.00000000000001</ele><time>2026-04-11T15:39:06.002Z</time></trkpt><trkpt lat="45.199040434402946" lon="8.368790720566185"><ele>124.0</ele><time>2026-04-11T15:39:07.002Z</time></trkpt><trkpt lat="45.199017161300816" lon="8.368655134494311"><ele>123.80000000000001</ele><time>2026-04-11T15:39:08.002Z</time></trkpt><trkpt lat="45.19895209394153" lon="8.368549699128852"><ele>123.60000000000001</ele><time>2026-04-11T15:39:09.002Z</time></trkpt><trkpt lat="45.19889831758278" lon="8.368432854480096"><ele>123.4</ele><time>2026-04-11T15:39:10.002Z</time></trkpt><trkpt lat="45.19884900871273" lon="8.368330933026732"><ele>123.2</ele><time>2026-04-11T15:39:11.002Z</time></trkpt><trkpt lat="45.198795270907624" lon="8.368218334707914"><ele>123.0</ele><time>2026-04-11T15:39:12.002Z</time></trkpt><trkpt lat="45.198734765942966" lon="8.3680961295178"><ele>123.0</ele><time>2026-04-11T15:39:13.002Z</time></trkpt><trkpt lat="45.1986736243113" lon="8.367976099266329"><ele>123.00000000000001</ele><time>2026-04-11T15:39:14.002Z</time></trkpt><trkpt lat="45.198612887922685" lon="8.367853417231759"><ele>123.00000000000001</ele><time>2026-04-11T15:39:15.002Z</time></trkpt><trkpt lat="45.198548445247845" lon="8.367733911384962"><ele>123.0</ele><time>2026-04-11T15:39:16.002Z</time></trkpt><trkpt lat="45.19848795767973" lon="8.367614112446095"><ele>123.0</ele><time>2026-04-11T15:39:17.002Z</time></trkpt><trkpt lat="45.19842607505013" lon="8.367492710716922"><ele>123.0</ele><time>2026-04-11T15:39:18.002Z</time></trkpt><trkpt lat="45.198364506808645" lon="8.367365452380913"><ele>123.00000000000001</ele><time>2026-04-11T15:39:19.002Z</time></trkpt><trkpt lat="45.198300763444465" lon="8.367240640096151"><ele>123.00000000000001</ele><time>2026-04-11T15:39:20.002Z</time></trkpt><trkpt lat="45.19824328701631" lon="8.367120770137523"><ele>123.0</ele><time>2026-04-11T15:39:21.002Z</time></trkpt><trkpt lat="45.198197190859666" lon="8.367006133402173"><ele>123.0</ele><time>2026-04-11T15:39:22.002Z</time></trkpt><trkpt lat="45.19815279162059" lon="8.36692187708286"><ele>123.16666666666667</ele><time>2026-04-11T15:39:23.002Z</time></trkpt><trkpt lat="45.19809998092251" lon="8.366843588705297"><ele>123.33333333333334</ele><time>2026-04-11T15:39:24.002Z</time></trkpt><trkpt lat="45.198048669106406" lon="8.36678428095246"><ele>123.5</ele><time>2026-04-11T15:39:25.002Z</time></trkpt><trkpt lat="45.197952600198036" lon="8.366662381693759"><ele>123.66666666666667</ele><time>2026-04-11T15:39:27.002Z</time></trkpt><trkpt lat="45.197898248754" lon="8.366595762516006"><ele>123.83333333333334</ele><time>2026-04-11T15:39:28.002Z</time></trkpt><trkpt lat="45.19784511672851" lon="8.366531401485418"><ele>124.0</ele><time>2026-04-11T15:39:29.002Z</time></trkpt><trkpt lat="45.197771263866116" lon="8.366423049667787"><ele>123.6</ele><time>2026-04-11T15:39:31.002Z</time></trkpt><trkpt lat="45.19771777218815" lon="8.36633940448796"><ele>123.2</ele><time>2026-04-11T15:39:33.002Z</time></trkpt><trkpt lat="45.19765981512914" lon="8.36625527270218"><ele>122.79999999999998</ele><time>2026-04-11T15:39:36.002Z</time></trkpt><trkpt lat="45.197708124942345" lon="8.366105343222449"><ele>122.39999999999999</ele><time>2026-04-11T15:39:37.003Z</time></trkpt><trkpt lat="45.197738515319045" lon="8.366002334129762"><ele>122.0</ele><time>2026-04-11T15:39:38.003Z</time></trkpt><trkpt lat="45.19778141163102" lon="8.365885370812265"><ele>122.0</ele><time>2026-04-11T15:39:39.003Z</time></trkpt><trkpt lat="45.19782667870144" lon="8.365765921408991"><ele>121.99999999999999</ele><time>2026-04-11T15:39:40.003Z</time></trkpt><trkpt lat="45.19786815853429" lon="8.365657648136661"><ele>121.99999999999999</ele><time>2026-04-11T15:39:41.003Z</time></trkpt><trkpt lat="45.19791066336095" lon="8.36555101909979"><ele>122.0</ele><time>2026-04-11T15:39:42.003Z</time></trkpt><trkpt lat="45.19795388495188" lon="8.365436497362078"><ele>122.0</ele><time>2026-04-11T15:39:43.003Z</time></trkpt><trkpt lat="45.19800946525669" lon="8.365318371855349"><ele>122.0</ele><time>2026-04-11T15:39:44.003Z</time></trkpt><trkpt lat="45.19809700296126" lon="8.365213020618109"><ele>122.0</ele><time>2026-04-11T15:39:45.003Z</time></trkpt><trkpt lat="45.19820708178175" lon="8.365109760579328"><ele>122.0</ele><time>2026-04-11T15:39:46.003Z</time></trkpt><trkpt lat="45.198335149020274" lon="8.365011846164446"><ele>122.0</ele><time>2026-04-11T15:39:47.003Z</time></trkpt><trkpt lat="45.198466153447434" lon="8.364910670798606"><ele>122.0</ele><time>2026-04-11T15:39:48.003Z</time></trkpt><trkpt lat="45.19859738293384" lon="8.364808200608428"><ele>122.0</ele><time>2026-04-11T15:39:49.003Z</time></trkpt><trkpt lat="45.198739187394374" lon="8.36469769992423"><ele>122.0</ele><time>2026-04-11T15:39:50.003Z</time></trkpt><trkpt lat="45.19888685286567" lon="8.364582393258218"><ele>122.0</ele><time>2026-04-11T15:39:51.003Z</time></trkpt><trkpt lat="45.19904891050288" lon="8.364483979086383"><ele>122.0</ele><time>2026-04-11T15:39:52.003Z</time></trkpt><trkpt lat="45.199202177189655" lon="8.36436736213469"><ele>122.0</ele><time>2026-04-11T15:39:53.003Z</time></trkpt><trkpt lat="45.19935118727875" lon="8.364251078941612"><ele>122.0</ele><time>2026-04-11T15:39:54.003Z</time></trkpt><trkpt lat="45.19950195817095" lon="8.36413352867212"><ele>122.0</ele><time>2026-04-11T15:39:55.003Z</time></trkpt><trkpt lat="45.199657248245074" lon="8.364013591007359"><ele>122.0</ele><time>2026-04-11T15:39:56.003Z</time></trkpt><trkpt lat="45.19981443848374" lon="8.363891574922116"><ele>123.0</ele><time>2026-04-11T15:39:57.003Z</time></trkpt><trkpt lat="45.1999701344863" lon="8.363767810651117"><ele>124.0</ele><time>2026-04-11T15:39:58.003Z</time></trkpt><trkpt lat="45.2001274493685" lon="8.363643137570861"><ele>125.0</ele><time>2026-04-11T15:39:59.003Z</time></trkpt><trkpt lat="45.20028522732257" lon="8.3635186359721"><ele>125.0</ele><time>2026-04-11T15:40:00.003Z</time></trkpt><trkpt lat="45.20043816922452" lon="8.363398097931022"><ele>125.0</ele><time>2026-04-11T15:40:01.003Z</time></trkpt><trkpt lat="45.200576670080565" lon="8.363267320083036"><ele>125.0</ele><time>2026-04-11T15:40:02.003Z</time></trkpt><trkpt lat="45.2007180905298" lon="8.363169636805623"><ele>126.0</ele><time>2026-04-11T15:40:03.003Z</time></trkpt><trkpt lat="45.20086128970912" lon="8.36308271631828"><ele>127.0</ele><time>2026-04-11T15:40:03.999Z</time></trkpt><trkpt lat="45.201013183784376" lon="8.363015070654404"><ele>128.0</ele><time>2026-04-11T15:40:04.999Z</time></trkpt><trkpt lat="45.20116932242823" lon="8.362973937523268"><ele>129.0</ele><time>2026-04-11T15:40:05.999Z</time></trkpt><trkpt lat="45.20132377707365" lon="8.362948104189991"><ele>130.0</ele><time>2026-04-11T15:40:06.999Z</time></trkpt><trkpt lat="45.201466686821405" lon="8.362935438631519"><ele>131.0</ele><time>2026-04-11T15:40:07.999Z</time></trkpt><trkpt lat="45.20160188241886" lon="8.362914960669897"><ele>132.0</ele><time>2026-04-11T15:40:08.999Z</time></trkpt><trkpt lat="45.20172445548378" lon="8.362897436320626"><ele>132.0</ele><time>2026-04-11T15:40:09.999Z</time></trkpt><trkpt lat="45.20182907827626" lon="8.362895152972728"><ele>132.0</ele><time>2026-04-11T15:40:10.999Z</time></trkpt><trkpt lat="45.20190696616057" lon="8.362851273005369"><ele>132.0</ele><time>2026-04-11T15:40:11.999Z</time></trkpt><trkpt lat="45.20194189758771" lon="8.362769871467306"><ele>132.0</ele><time>2026-04-11T15:40:12.999Z</time></trkpt><trkpt lat="45.20192872447375" lon="8.36266345161743"><ele>132.0</ele><time>2026-04-11T15:40:13.999Z</time></trkpt><trkpt lat="45.201905039356156" lon="8.362552951866471"><ele>132.0</ele><time>2026-04-11T15:40:14.999Z</time></trkpt><trkpt lat="45.20186999278021" lon="8.362419873981537"><ele>132.0</ele><time>2026-04-11T15:40:15.999Z</time></trkpt><trkpt lat="45.201839289812185" lon="8.362267948540502"><ele>132.0</ele><time>2026-04-11T15:40:16.999Z</time></trkpt><trkpt lat="45.201830221196744" lon="8.362097362642025"><ele>132.0</ele><time>2026-04-11T15:40:17.999Z</time></trkpt><trkpt lat="45.201822145994946" lon="8.361931802589345"><ele>132.0</ele><time>2026-04-11T15:40:18.999Z</time></trkpt><trkpt lat="45.201844939099175" lon="8.361792481445521"><ele>131.5</ele><time>2026-04-11T15:40:19.999Z</time></trkpt><trkpt lat="45.20189661471153" lon="8.361664826598723"><ele>131.0</ele><time>2026-04-11T15:40:21Z</time></trkpt><trkpt lat="45.20196541459797" lon="8.361512491205339"><ele>130.5</ele><time>2026-04-11T15:40:22Z</time></trkpt><trkpt lat="45.202044023518695" lon="8.361338396279622"><ele>130.0</ele><time>2026-04-11T15:40:23Z</time></trkpt><trkpt lat="45.20212719055565" lon="8.361154207612243"><ele>130.33333333333334</ele><time>2026-04-11T15:40:24Z</time></trkpt><trkpt lat="45.20220523532395" lon="8.360983013165649"><ele>130.66666666666666</ele><time>2026-04-11T15:40:25Z</time></trkpt><trkpt lat="45.202289386638626" lon="8.360801525005437"><ele>131.0</ele><time>2026-04-11T15:40:26Z</time></trkpt><trkpt lat="45.202379659813765" lon="8.360613109334594"><ele>129.66666666666666</ele><time>2026-04-11T15:40:27Z</time></trkpt><trkpt lat="45.2024775340226" lon="8.360418508444406"><ele>128.33333333333334</ele><time>2026-04-11T15:40:28Z</time></trkpt><trkpt lat="45.20257847263641" lon="8.360220030150172"><ele>127.0</ele><time>2026-04-11T15:40:29Z</time></trkpt><trkpt lat="45.20267367791651" lon="8.360011797888125"><ele>127.0</ele><time>2026-04-11T15:40:30Z</time></trkpt><trkpt lat="45.2027691760204" lon="8.359836630033193"><ele>127.0</ele><time>2026-04-11T15:40:31Z</time></trkpt><trkpt lat="45.20285862926681" lon="8.359684715524"><ele>127.0</ele><time>2026-04-11T15:40:32Z</time></trkpt><trkpt lat="45.20294720166249" lon="8.359559704979453"><ele>127.0</ele><time>2026-04-11T15:40:33Z</time></trkpt><trkpt lat="45.20303783961946" lon="8.35947549530116"><ele>127.0</ele><time>2026-04-11T15:40:34Z</time></trkpt><trkpt lat="45.203138040197025" lon="8.359427647900958"><ele>126.99999999999999</ele><time>2026-04-11T15:40:35Z</time></trkpt><trkpt lat="45.20324731063098" lon="8.359411432693335"><ele>126.99999999999999</ele><time>2026-04-11T15:40:36Z</time></trkpt><trkpt lat="45.20335524205419" lon="8.359410860875313"><ele>127.0</ele><time>2026-04-11T15:40:37Z</time></trkpt><trkpt lat="45.203452832951" lon="8.359420641827919"><ele>127.0</ele><time>2026-04-11T15:40:38Z</time></trkpt><trkpt lat="45.203540842588964" lon="8.359432318306137"><ele>128.4</ele><time>2026-04-11T15:40:39Z</time></trkpt><trkpt lat="45.20363339395926" lon="8.359449150269723"><ele>129.79999999999998</ele><time>2026-04-11T15:40:40Z</time></trkpt><trkpt lat="45.203724700156165" lon="8.359467532073364"><ele>131.2</ele><time>2026-04-11T15:40:41.001Z</time></trkpt><trkpt lat="45.20382611356282" lon="8.359491084399423"><ele>132.6</ele><time>2026-04-11T15:40:42.001Z</time></trkpt><trkpt lat="45.20394537865275" lon="8.359527625120863"><ele>134.0</ele><time>2026-04-11T15:40:43.001Z</time></trkpt><trkpt lat="45.2040794499928" lon="8.359574891141337"><ele>134.25</ele><time>2026-04-11T15:40:44.001Z</time></trkpt><trkpt lat="45.20421807046123" lon="8.359624322181439"><ele>134.5</ele><time>2026-04-11T15:40:45.001Z</time></trkpt><trkpt lat="45.20436154715514" lon="8.359670287538886"><ele>134.75</ele><time>2026-04-11T15:40:46.001Z</time></trkpt><trkpt lat="45.20450508655695" lon="8.359717704235988"><ele>135.0</ele><time>2026-04-11T15:40:47.001Z</time></trkpt><trkpt lat="45.204645964860774" lon="8.359764180490059"><ele>135.0</ele><time>2026-04-11T15:40:48.001Z</time></trkpt><trkpt lat="45.20478229179859" lon="8.359808336246008"><ele>135.0</ele><time>2026-04-11T15:40:49.001Z</time></trkpt><trkpt lat="45.20491814682744" lon="8.359854162192615"><ele>135.0</ele><time>2026-04-11T15:40:50.001Z</time></trkpt><trkpt lat="45.20505916181619" lon="8.35990286800252"><ele>135.0</ele><time>2026-04-11T15:40:51.001Z</time></trkpt><trkpt lat="45.20521120151868" lon="8.359956001294965"><ele>135.33333333333334</ele><time>2026-04-11T15:40:52.001Z</time></trkpt><trkpt lat="45.205384282724815" lon="8.36001405478151"><ele>135.66666666666669</ele><time>2026-04-11T15:40:53.001Z</time></trkpt><trkpt lat="45.2055675852601" lon="8.36007533039004"><ele>136.0</ele><time>2026-04-11T15:40:54.001Z</time></trkpt><trkpt lat="45.205751017651465" lon="8.360139092168685"><ele>136.0</ele><time>2026-04-11T15:40:55.001Z</time></trkpt><trkpt lat="45.205936695415886" lon="8.360203135285174"><ele>136.0</ele><time>2026-04-11T15:40:56.001Z</time></trkpt><trkpt lat="45.20612647891693" lon="8.360265280748596"><ele>136.0</ele><time>2026-04-11T15:40:57.001Z</time></trkpt><trkpt lat="45.20632740636601" lon="8.36033572298075"><ele>135.66666666666669</ele><time>2026-04-11T15:40:58.001Z</time></trkpt><trkpt lat="45.20653005616357" lon="8.360407329450327"><ele>135.33333333333334</ele><time>2026-04-11T15:40:59.001Z</time></trkpt><trkpt lat="45.20673297063921" lon="8.360478336807617"><ele>135.0</ele><time>2026-04-11T15:41:00.001Z</time></trkpt><trkpt lat="45.20693672225276" lon="8.360551961859706"><ele>135.0</ele><time>2026-04-11T15:41:01.001Z</time></trkpt><trkpt lat="45.20714167167979" lon="8.360621124252814"><ele>135.0</ele><time>2026-04-11T15:41:02.001Z</time></trkpt><trkpt lat="45.20735811987365" lon="8.360691987012226"><ele>135.0</ele><time>2026-04-11T15:41:03.001Z</time></trkpt><trkpt lat="45.20757668416092" lon="8.360769213090508"><ele>135.0</ele><time>2026-04-11T15:41:04.001Z</time></trkpt><trkpt lat="45.20779805873646" lon="8.360848651298049"><ele>135.0</ele><time>2026-04-11T15:41:05.001Z</time></trkpt><trkpt lat="45.20802870380065" lon="8.360928620076075"><ele>135.0</ele><time>2026-04-11T15:41:06.001Z</time></trkpt><trkpt lat="45.20825252656231" lon="8.361007275282924"><ele>135.0</ele><time>2026-04-11T15:41:07.001Z</time></trkpt><trkpt lat="45.20848248697388" lon="8.36108718162971"><ele>135.0</ele><time>2026-04-11T15:41:08.001Z</time></trkpt><trkpt lat="45.20871016226393" lon="8.361166775452109"><ele>135.0</ele><time>2026-04-11T15:41:09.001Z</time></trkpt><trkpt lat="45.20893717392016" lon="8.361246458207013"><ele>134.5</ele><time>2026-04-11T15:41:10.002Z</time></trkpt><trkpt lat="45.209167597142816" lon="8.361324756670049"><ele>134.0</ele><time>2026-04-11T15:41:11.002Z</time></trkpt><trkpt lat="45.209395123337416" lon="8.361404278948902"><ele>134.0</ele><time>2026-04-11T15:41:12.002Z</time></trkpt><trkpt lat="45.209621994272524" lon="8.36148427930241"><ele>134.0</ele><time>2026-04-11T15:41:13.002Z</time></trkpt><trkpt lat="45.20984710928378" lon="8.361561293243657"><ele>134.0</ele><time>2026-04-11T15:41:14.002Z</time></trkpt><trkpt lat="45.21006709892965" lon="8.361635490025511"><ele>134.0</ele><time>2026-04-11T15:41:15.002Z</time></trkpt><trkpt lat="45.21028959914258" lon="8.361713867905365"><ele>134.0</ele><time>2026-04-11T15:41:16.002Z</time></trkpt><trkpt lat="45.21051029355196" lon="8.361788334859394"><ele>134.0</ele><time>2026-04-11T15:41:17.002Z</time></trkpt><trkpt lat="45.210731197070075" lon="8.361863719797714"><ele>134.0</ele><time>2026-04-11T15:41:18.002Z</time></trkpt><trkpt lat="45.2109530020918" lon="8.361939085215122"><ele>134.0</ele><time>2026-04-11T15:41:19.002Z</time></trkpt><trkpt lat="45.2111738633227" lon="8.362018625237209"><ele>134.0</ele><time>2026-04-11T15:41:20.002Z</time></trkpt><trkpt lat="45.21140108353548" lon="8.362099338491854"><ele>134.0</ele><time>2026-04-11T15:41:21.002Z</time></trkpt><trkpt lat="45.2116286739754" lon="8.362178250471963"><ele>131.0</ele><time>2026-04-11T15:41:22.002Z</time></trkpt><trkpt lat="45.21186937832074" lon="8.362259083082112"><ele>128.0</ele><time>2026-04-11T15:41:23.002Z</time></trkpt><trkpt lat="45.21210915865218" lon="8.362341603111101"><ele>127.5</ele><time>2026-04-11T15:41:24.002Z</time></trkpt><trkpt lat="45.21235166503475" lon="8.362424504077046"><ele>127.0</ele><time>2026-04-11T15:41:25.002Z</time></trkpt><trkpt lat="45.21259874393163" lon="8.362510236366004"><ele>127.0</ele><time>2026-04-11T15:41:26.002Z</time></trkpt><trkpt lat="45.212836814276514" lon="8.362594197063121"><ele>127.0</ele><time>2026-04-11T15:41:27.002Z</time></trkpt><trkpt lat="45.21307638129892" lon="8.362677043725046"><ele>127.0</ele><time>2026-04-11T15:41:28.002Z</time></trkpt><trkpt lat="45.21331396867096" lon="8.362759707371216"><ele>127.0</ele><time>2026-04-11T15:41:29.002Z</time></trkpt><trkpt lat="45.21355002625758" lon="8.362845940509022"><ele>127.0</ele><time>2026-04-11T15:41:30.002Z</time></trkpt><trkpt lat="45.21378651724303" lon="8.362930376506377"><ele>127.0</ele><time>2026-04-11T15:41:31.002Z</time></trkpt><trkpt lat="45.21402459045569" lon="8.3630137632247"><ele>127.0</ele><time>2026-04-11T15:41:32.002Z</time></trkpt><trkpt lat="45.21425818296177" lon="8.36309550461733"><ele>127.0</ele><time>2026-04-11T15:41:33.002Z</time></trkpt><trkpt lat="45.214493469887806" lon="8.363174469667335"><ele>127.0</ele><time>2026-04-11T15:41:34.002Z</time></trkpt><trkpt lat="45.21472827522425" lon="8.36325383948405"><ele>127.0</ele><time>2026-04-11T15:41:35.002Z</time></trkpt><trkpt lat="45.21495692247839" lon="8.363334653456356"><ele>126.5</ele><time>2026-04-11T15:41:36.002Z</time></trkpt><trkpt lat="45.21518663732276" lon="8.363414620073755"><ele>126.0</ele><time>2026-04-11T15:41:37.002Z</time></trkpt><trkpt lat="45.21541644315325" lon="8.363495949750012"><ele>126.0</ele><time>2026-04-11T15:41:38.002Z</time></trkpt><trkpt lat="45.215651905976415" lon="8.363575783157115"><ele>126.0</ele><time>2026-04-11T15:41:39.002Z</time></trkpt><trkpt lat="45.21588389838139" lon="8.363655146958031"><ele>126.0</ele><time>2026-04-11T15:41:40.002Z</time></trkpt><trkpt lat="45.21611738327612" lon="8.36373495461953"><ele>126.0</ele><time>2026-04-11T15:41:41.002Z</time></trkpt><trkpt lat="45.216350351933684" lon="8.363816315095582"><ele>126.0</ele><time>2026-04-11T15:41:42.002Z</time></trkpt><trkpt lat="45.21658978988615" lon="8.363899348069731"><ele>126.0</ele><time>2026-04-11T15:41:43.003Z</time></trkpt><trkpt lat="45.216825153807065" lon="8.363982381993583"><ele>126.0</ele><time>2026-04-11T15:41:44.003Z</time></trkpt><trkpt lat="45.21705543078246" lon="8.364063852325026"><ele>126.0</ele><time>2026-04-11T15:41:45.003Z</time></trkpt><trkpt lat="45.21729432329276" lon="8.364144870551614"><ele>125.5</ele><time>2026-04-11T15:41:46.003Z</time></trkpt><trkpt lat="45.217516790684755" lon="8.364221289001367"><ele>125.0</ele><time>2026-04-11T15:41:47.003Z</time></trkpt><trkpt lat="45.21774247683938" lon="8.364294641548916"><ele>125.0</ele><time>2026-04-11T15:41:48.003Z</time></trkpt><trkpt lat="45.217959955299264" lon="8.364393954400704"><ele>125.0</ele><time>2026-04-11T15:41:49.003Z</time></trkpt><trkpt lat="45.21818014520163" lon="8.364470423742516"><ele>124.5</ele><time>2026-04-11T15:41:50.003Z</time></trkpt><trkpt lat="45.218401017926" lon="8.36454682489836"><ele>124.0</ele><time>2026-04-11T15:41:51.003Z</time></trkpt><trkpt lat="45.218625582614735" lon="8.364601140913814"><ele>124.0</ele><time>2026-04-11T15:41:52.003Z</time></trkpt><trkpt lat="45.218835216212184" lon="8.364673273320701"><ele>124.0</ele><time>2026-04-11T15:41:53.003Z</time></trkpt><trkpt lat="45.219025332529085" lon="8.364762778999607"><ele>124.0</ele><time>2026-04-11T15:41:54.003Z</time></trkpt><trkpt lat="45.21922025698467" lon="8.364830404291817"><ele>125.0</ele><time>2026-04-11T15:41:55.003Z</time></trkpt><trkpt lat="45.21941484349544" lon="8.364875218279778"><ele>126.0</ele><time>2026-04-11T15:41:56.003Z</time></trkpt><trkpt lat="45.21961037899561" lon="8.364945053285059"><ele>127.0</ele><time>2026-04-11T15:41:57.003Z</time></trkpt><trkpt lat="45.21979529909334" lon="8.36501375786805"><ele>127.66666666666667</ele><time>2026-04-11T15:41:58.003Z</time></trkpt><trkpt lat="45.21997162699561" lon="8.365076788811315"><ele>128.33333333333334</ele><time>2026-04-11T15:41:59.003Z</time></trkpt><trkpt lat="45.220140653943524" lon="8.365136658347645"><ele>129.0</ele><time>2026-04-11T15:42:00.003Z</time></trkpt><trkpt lat="45.22030266133538" lon="8.36519120398271"><ele>129.0</ele><time>2026-04-11T15:42:01.003Z</time></trkpt><trkpt lat="45.22046868263734" lon="8.365247889834913"><ele>129.0</ele><time>2026-04-11T15:42:02.003Z</time></trkpt><trkpt lat="45.220633346611585" lon="8.365286987767313"><ele>129.0</ele><time>2026-04-11T15:42:03.003Z</time></trkpt><trkpt lat="45.220791602729285" lon="8.365304170163826"><ele>129.66666666666666</ele><time>2026-04-11T15:42:04.003Z</time></trkpt><trkpt lat="45.22094187787972" lon="8.365291371190676"><ele>130.33333333333331</ele><time>2026-04-11T15:42:05.003Z</time></trkpt><trkpt lat="45.22109164500212" lon="8.365244592678044"><ele>131.0</ele><time>2026-04-11T15:42:06.003Z</time></trkpt><trkpt lat="45.22124272854246" lon="8.365158210791733"><ele>131.0</ele><time>2026-04-11T15:42:07.003Z</time></trkpt><trkpt lat="45.22139421598511" lon="8.36503986901857"><ele>131.0</ele><time>2026-04-11T15:42:08.003Z</time></trkpt><trkpt lat="45.221537379832114" lon="8.364903423149586"><ele>131.0</ele><time>2026-04-11T15:42:09.003Z</time></trkpt><trkpt lat="45.22167149148333" lon="8.364780968733633"><ele>131.25</ele><time>2026-04-11T15:42:09.999Z</time></trkpt><trkpt lat="45.2217977947567" lon="8.36467267468854"><ele>131.5</ele><time>2026-04-11T15:42:10.999Z</time></trkpt><trkpt lat="45.22191962616768" lon="8.364594208646626"><ele>131.75</ele><time>2026-04-11T15:42:11.999Z</time></trkpt><trkpt lat="45.22203733784848" lon="8.364561402334624"><ele>132.0</ele><time>2026-04-11T15:42:12.999Z</time></trkpt><trkpt lat="45.22215189059229" lon="8.364554001978501"><ele>132.0</ele><time>2026-04-11T15:42:13.999Z</time></trkpt><trkpt lat="45.22227710946166" lon="8.36458930657972"><ele>132.0</ele><time>2026-04-11T15:42:14.999Z</time></trkpt><trkpt lat="45.22239088435392" lon="8.36464415584775"><ele>132.0</ele><time>2026-04-11T15:42:15.999Z</time></trkpt><trkpt lat="45.22251626866486" lon="8.364702012515568"><ele>132.0</ele><time>2026-04-11T15:42:16.999Z</time></trkpt><trkpt lat="45.22263969533603" lon="8.364753747060844"><ele>132.75</ele><time>2026-04-11T15:42:17.999Z</time></trkpt><trkpt lat="45.222756529770294" lon="8.364789146456438"><ele>133.5</ele><time>2026-04-11T15:42:18.999Z</time></trkpt><trkpt lat="45.22287723083197" lon="8.364826267389622"><ele>134.25</ele><time>2026-04-11T15:42:19.999Z</time></trkpt><trkpt lat="45.222999062656115" lon="8.364859217912851"><ele>135.0</ele><time>2026-04-11T15:42:20.999Z</time></trkpt><trkpt lat="45.22313435686165" lon="8.364901490872452"><ele>134.0</ele><time>2026-04-11T15:42:21.999Z</time></trkpt><trkpt lat="45.22328222517681" lon="8.364952776429545"><ele>133.0</ele><time>2026-04-11T15:42:22.999Z</time></trkpt><trkpt lat="45.22344316771087" lon="8.365014084034975"><ele>132.0</ele><time>2026-04-11T15:42:24Z</time></trkpt><trkpt lat="45.22360928779768" lon="8.36508792599774"><ele>132.0</ele><time>2026-04-11T15:42:25Z</time></trkpt><trkpt lat="45.22378597960525" lon="8.365168481313308"><ele>132.0</ele><time>2026-04-11T15:42:26Z</time></trkpt><trkpt lat="45.2239759458081" lon="8.365243817012486"><ele>132.0</ele><time>2026-04-11T15:42:27Z</time></trkpt><trkpt lat="45.224183842241075" lon="8.36531937204791"><ele>132.0</ele><time>2026-04-11T15:42:28Z</time></trkpt><trkpt lat="45.224401310719" lon="8.36539664611625"><ele>132.0</ele><time>2026-04-11T15:42:29Z</time></trkpt><trkpt lat="45.22461619284194" lon="8.365479398880344"><ele>132.0</ele><time>2026-04-11T15:42:30Z</time></trkpt><trkpt lat="45.22483770371096" lon="8.365557631264078"><ele>131.5</ele><time>2026-04-11T15:42:31Z</time></trkpt><trkpt lat="45.22506439050736" lon="8.365642653325489"><ele>131.0</ele><time>2026-04-11T15:42:32Z</time></trkpt><trkpt lat="45.22529407463717" lon="8.365722641580527"><ele>131.0</ele><time>2026-04-11T15:42:33Z</time></trkpt><trkpt lat="45.22551779373556" lon="8.365803577503083"><ele>131.0</ele><time>2026-04-11T15:42:34Z</time></trkpt><trkpt lat="45.225737071108824" lon="8.365883978105106"><ele>130.33333333333331</ele><time>2026-04-11T15:42:35Z</time></trkpt><trkpt lat="45.225947396950964" lon="8.3659644821054"><ele>129.66666666666666</ele><time>2026-04-11T15:42:36Z</time></trkpt><trkpt lat="45.22615475832757" lon="8.366041131568466"><ele>129.0</ele><time>2026-04-11T15:42:37Z</time></trkpt><trkpt lat="45.226366456860305" lon="8.366116815992463"><ele>129.33333333333334</ele><time>2026-04-11T15:42:38Z</time></trkpt><trkpt lat="45.22657636070434" lon="8.36619196492443"><ele>129.66666666666669</ele><time>2026-04-11T15:42:39Z</time></trkpt><trkpt lat="45.22678497285577" lon="8.366270599501217"><ele>130.0</ele><time>2026-04-11T15:42:40Z</time></trkpt><trkpt lat="45.226993023791245" lon="8.366351112370378"><ele>130.0</ele><time>2026-04-11T15:42:41Z</time></trkpt><trkpt lat="45.227196397802224" lon="8.36642562596209"><ele>130.0</ele><time>2026-04-11T15:42:42Z</time></trkpt><trkpt lat="45.22738590037245" lon="8.366496101001363"><ele>130.0</ele><time>2026-04-11T15:42:43Z</time></trkpt><trkpt lat="45.22756225471196" lon="8.366560007157288"><ele>130.0</ele><time>2026-04-11T15:42:44Z</time></trkpt><trkpt lat="45.227734269565254" lon="8.36662384925321"><ele>130.0</ele><time>2026-04-11T15:42:45Z</time></trkpt><trkpt lat="45.22791376713752" lon="8.366690949657537"><ele>130.0</ele><time>2026-04-11T15:42:46.001Z</time></trkpt><trkpt lat="45.22809733826293" lon="8.366757582991301"><ele>130.33333333333334</ele><time>2026-04-11T15:42:47.001Z</time></trkpt><trkpt lat="45.22828905344335" lon="8.366828716915112"><ele>130.66666666666666</ele><time>2026-04-11T15:42:48.001Z</time></trkpt><trkpt lat="45.2284913726917" lon="8.366903082131154"><ele>131.0</ele><time>2026-04-11T15:42:49.001Z</time></trkpt><trkpt lat="45.22869284851349" lon="8.36697824719076"><ele>131.0</ele><time>2026-04-11T15:42:50.001Z</time></trkpt><trkpt lat="45.22889055190874" lon="8.367050393400895"><ele>131.0</ele><time>2026-04-11T15:42:51.001Z</time></trkpt><trkpt lat="45.22907475773908" lon="8.367117220183369"><ele>131.0</ele><time>2026-04-11T15:42:52.001Z</time></trkpt><trkpt lat="45.22924256094783" lon="8.367180217119456"><ele>131.0</ele><time>2026-04-11T15:42:53.001Z</time></trkpt><trkpt lat="45.22940605587002" lon="8.367250025835071"><ele>131.0</ele><time>2026-04-11T15:42:54.001Z</time></trkpt><trkpt lat="45.22955057376913" lon="8.367343542361205"><ele>131.0</ele><time>2026-04-11T15:42:55.001Z</time></trkpt><trkpt lat="45.22968410653302" lon="8.367465199730619"><ele>131.0</ele><time>2026-04-11T15:42:56.001Z</time></trkpt><trkpt lat="45.229806547524255" lon="8.367615307084268"><ele>131.0</ele><time>2026-04-11T15:42:57.001Z</time></trkpt><trkpt lat="45.22990823302262" lon="8.36777971566614"><ele>131.0</ele><time>2026-04-11T15:42:58.001Z</time></trkpt><trkpt lat="45.229991441163" lon="8.367943443673562"><ele>130.75</ele><time>2026-04-11T15:42:59.001Z</time></trkpt><trkpt lat="45.230064977775484" lon="8.368106116193674"><ele>130.5</ele><time>2026-04-11T15:43:00.001Z</time></trkpt><trkpt lat="45.23012592982383" lon="8.368284152441952"><ele>130.25</ele><time>2026-04-11T15:43:01.001Z</time></trkpt><trkpt lat="45.230183002130424" lon="8.368469362945016"><ele>130.0</ele><time>2026-04-11T15:43:02.001Z</time></trkpt><trkpt lat="45.23024412451211" lon="8.368666631907264"><ele>130.0</ele><time>2026-04-11T15:43:03.001Z</time></trkpt><trkpt lat="45.230318894051905" lon="8.368852999798346"><ele>130.0</ele><time>2026-04-11T15:43:04.001Z</time></trkpt><trkpt lat="45.230420182395854" lon="8.369021792561812"><ele>130.0</ele><time>2026-04-11T15:43:05.001Z</time></trkpt><trkpt lat="45.23054108451171" lon="8.369177107335146"><ele>128.66666666666669</ele><time>2026-04-11T15:43:06.001Z</time></trkpt><trkpt lat="45.230672809410194" lon="8.369315480984787"><ele>127.33333333333334</ele><time>2026-04-11T15:43:07.001Z</time></trkpt><trkpt lat="45.230796444345415" lon="8.369431261335018"><ele>126.0</ele><time>2026-04-11T15:43:08.001Z</time></trkpt><trkpt lat="45.23091567138048" lon="8.369540418662792"><ele>126.0</ele><time>2026-04-11T15:43:09.001Z</time></trkpt><trkpt lat="45.2310275999463" lon="8.369648966631823"><ele>126.0</ele><time>2026-04-11T15:43:10.001Z</time></trkpt><trkpt lat="45.23112496105937" lon="8.369752156159922"><ele>126.0</ele><time>2026-04-11T15:43:11.001Z</time></trkpt><trkpt lat="45.23120614159879" lon="8.369852360245318"><ele>126.0</ele><time>2026-04-11T15:43:12.001Z</time></trkpt><trkpt lat="45.23126148563863" lon="8.369961711476016"><ele>126.0</ele><time>2026-04-11T15:43:13.001Z</time></trkpt><trkpt lat="45.231313631683484" lon="8.370048604329538"><ele>126.0</ele><time>2026-04-11T15:43:14.001Z</time></trkpt><trkpt lat="45.23135742471525" lon="8.370126375146945"><ele>126.0</ele><time>2026-04-11T15:43:15.001Z</time></trkpt><trkpt lat="45.231517033716685" lon="8.370013045214836"><ele>126.0</ele><time>2026-04-11T15:43:17.002Z</time></trkpt><trkpt lat="45.23161040979155" lon="8.370015259106339"><ele>126.0</ele><time>2026-04-11T15:43:18.002Z</time></trkpt><trkpt lat="45.231709856830484" lon="8.369977786933482"><ele>125.83333333333333</ele><time>2026-04-11T15:43:19.002Z</time></trkpt><trkpt lat="45.23179781087235" lon="8.370044976089165"><ele>125.66666666666666</ele><time>2026-04-11T15:43:20.002Z</time></trkpt><trkpt lat="45.23187901064743" lon="8.370059329072772"><ele>125.5</ele><time>2026-04-11T15:43:22.002Z</time></trkpt><trkpt lat="45.23198107338228" lon="8.37012894304058"><ele>125.33333333333333</ele><time>2026-04-11T15:44:04.003Z</time></trkpt><trkpt lat="45.23205232590464" lon="8.37016416598567"><ele>125.16666666666666</ele><time>2026-04-11T15:44:05.003Z</time></trkpt><trkpt lat="45.232118739864575" lon="8.370196997036325"><ele>125.0</ele><time>2026-04-11T15:44:06.003Z</time></trkpt><trkpt lat="45.23220625112369" lon="8.370240257320008"><ele>124.8</ele><time>2026-04-11T15:44:07.003Z</time></trkpt><trkpt lat="45.23231113810999" lon="8.370292107110034"><ele>124.6</ele><time>2026-04-11T15:44:08.003Z</time></trkpt><trkpt lat="45.232411008167496" lon="8.370341476840196"><ele>124.4</ele><time>2026-04-11T15:44:09.003Z</time></trkpt><trkpt lat="45.232517666932054" lon="8.37036941813319"><ele>124.2</ele><time>2026-04-11T15:44:10.003Z</time></trkpt><trkpt lat="45.232622491552036" lon="8.370425048153924"><ele>124.0</ele><time>2026-04-11T15:44:11.003Z</time></trkpt><trkpt lat="45.23273083149266" lon="8.370472456271028"><ele>124.0</ele><time>2026-04-11T15:44:12.003Z</time></trkpt><trkpt lat="45.23282920396304" lon="8.370514562518636"><ele>124.0</ele><time>2026-04-11T15:44:13.003Z</time></trkpt><trkpt lat="45.232930653341015" lon="8.370558106167424"><ele>124.0</ele><time>2026-04-11T15:44:14.003Z</time></trkpt><trkpt lat="45.23304234535418" lon="8.370584137554175"><ele>124.0</ele><time>2026-04-11T15:44:15.003Z</time></trkpt><trkpt lat="45.233153478492866" lon="8.370614775588122"><ele>124.0</ele><time>2026-04-11T15:44:15.999Z</time></trkpt><trkpt lat="45.23327200029419" lon="8.37061872420412"><ele>124.5</ele><time>2026-04-11T15:44:16.999Z</time></trkpt><trkpt lat="45.23338866678545" lon="8.370625685568488"><ele>125.0</ele><time>2026-04-11T15:44:18Z</time></trkpt><trkpt lat="45.233511197022814" lon="8.370624092511763"><ele>125.5</ele><time>2026-04-11T15:44:19Z</time></trkpt><trkpt lat="45.23363440730317" lon="8.370616173274554"><ele>126.0</ele><time>2026-04-11T15:44:20Z</time></trkpt><trkpt lat="45.23375900891518" lon="8.370596044096446"><ele>126.0</ele><time>2026-04-11T15:44:21Z</time></trkpt><trkpt lat="45.233877521353236" lon="8.370571400938374"><ele>126.0</ele><time>2026-04-11T15:44:22Z</time></trkpt><trkpt lat="45.23399377135295" lon="8.370549309908768"><ele>126.0</ele><time>2026-04-11T15:44:23Z</time></trkpt><trkpt lat="45.23409875582787" lon="8.370508254965925"><ele>126.0</ele><time>2026-04-11T15:44:24Z</time></trkpt><trkpt lat="45.23421473858766" lon="8.370467941589512"><ele>126.0</ele><time>2026-04-11T15:44:25Z</time></trkpt><trkpt lat="45.234329957949825" lon="8.370432944517242"><ele>126.0</ele><time>2026-04-11T15:44:26Z</time></trkpt><trkpt lat="45.234434793130184" lon="8.370391484373657"><ele>126.0</ele><time>2026-04-11T15:44:27Z</time></trkpt><trkpt lat="45.23454156324448" lon="8.370348839807187"><ele>126.0</ele><time>2026-04-11T15:44:28Z</time></trkpt><trkpt lat="45.2346465628749" lon="8.370318281211437"><ele>126.0</ele><time>2026-04-11T15:44:29Z</time></trkpt><trkpt lat="45.234738779233204" lon="8.37028088227856"><ele>126.33333333333333</ele><time>2026-04-11T15:44:30Z</time></trkpt><trkpt lat="45.234830002169176" lon="8.37022939438619"><ele>126.66666666666666</ele><time>2026-04-11T15:44:31Z</time></trkpt><trkpt lat="45.234930793195275" lon="8.370184072604056"><ele>127.0</ele><time>2026-04-11T15:44:32Z</time></trkpt><trkpt lat="45.23502030466353" lon="8.370163836007158"><ele>127.33333333333333</ele><time>2026-04-11T15:44:33Z</time></trkpt><trkpt lat="45.235094476307395" lon="8.370144341421538"><ele>127.66666666666666</ele><time>2026-04-11T15:44:34Z</time></trkpt><trkpt lat="45.23516229157685" lon="8.370112382365118"><ele>128.0</ele><time>2026-04-11T15:44:35Z</time></trkpt><trkpt lat="45.23524541943236" lon="8.370122875662288"><ele>127.99999999999999</ele><time>2026-04-11T15:44:36Z</time></trkpt><trkpt lat="45.23533387307968" lon="8.370134532491637"><ele>128.0</ele><time>2026-04-11T15:44:37Z</time></trkpt><trkpt lat="45.23542369461686" lon="8.370146730448964"><ele>128.0</ele><time>2026-04-11T15:44:38Z</time></trkpt><trkpt lat="45.23549994013257" lon="8.370153155235727"><ele>128.0</ele><time>2026-04-11T15:44:39Z</time></trkpt><trkpt lat="45.23557591404129" lon="8.37016040023846"><ele>127.99999999999999</ele><time>2026-04-11T15:44:40Z</time></trkpt><trkpt lat="45.23563927446685" lon="8.370177999380179"><ele>128.0</ele><time>2026-04-11T15:44:41Z</time></trkpt><trkpt lat="45.235733590818946" lon="8.370140713409299"><ele>128.6</ele><time>2026-04-11T15:44:43Z</time></trkpt><trkpt lat="45.23581246448649" lon="8.370114395292264"><ele>129.20000000000002</ele><time>2026-04-11T15:44:45Z</time></trkpt><trkpt lat="45.23581221566045" lon="8.369968990150848"><ele>129.8</ele><time>2026-04-11T15:44:46Z</time></trkpt><trkpt lat="45.235857696292726" lon="8.36979125670827"><ele>130.4</ele><time>2026-04-11T15:44:48Z</time></trkpt><trkpt lat="45.235889317050294" lon="8.369665831720814"><ele>131.0</ele><time>2026-04-11T15:44:49Z</time></trkpt><trkpt lat="45.235918178575766" lon="8.369553228843566"><ele>131.0</ele><time>2026-04-11T15:44:50.001Z</time></trkpt><trkpt lat="45.23594779046627" lon="8.369437069188004"><ele>131.0</ele><time>2026-04-11T15:44:51.001Z</time></trkpt><trkpt lat="45.2359818454061" lon="8.369303484723071"><ele>131.0</ele><time>2026-04-11T15:44:52.001Z</time></trkpt><trkpt lat="45.23602105494935" lon="8.369167950620966"><ele>131.0</ele><time>2026-04-11T15:44:53.001Z</time></trkpt><trkpt lat="45.23604577361791" lon="8.36903385399998"><ele>131.0</ele><time>2026-04-11T15:44:54.001Z</time></trkpt><trkpt lat="45.236087764451895" lon="8.368894645378033"><ele>130.4</ele><time>2026-04-11T15:44:55.001Z</time></trkpt><trkpt lat="45.236132189083285" lon="8.368763446148874"><ele>129.8</ele><time>2026-04-11T15:44:56.001Z</time></trkpt><trkpt lat="45.23617071745223" lon="8.368611543327539"><ele>129.20000000000002</ele><time>2026-04-11T15:44:57.001Z</time></trkpt><trkpt lat="45.23622838703221" lon="8.368478246152542"><ele>128.6</ele><time>2026-04-11T15:44:58.001Z</time></trkpt><trkpt lat="45.2362667711808" lon="8.368346775314574"><ele>128.0</ele><time>2026-04-11T15:44:59.001Z</time></trkpt><trkpt lat="45.23630426102893" lon="8.368217977475119"><ele>128.0</ele><time>2026-04-11T15:45:00.001Z</time></trkpt><trkpt lat="45.23633986438977" lon="8.368078218210863"><ele>128.0</ele><time>2026-04-11T15:45:01.001Z</time></trkpt><trkpt lat="45.23637744037775" lon="8.367961717078071"><ele>128.0</ele><time>2026-04-11T15:45:02.001Z</time></trkpt><trkpt lat="45.236418687203475" lon="8.367867119524346"><ele>128.0</ele><time>2026-04-11T15:45:03.001Z</time></trkpt><trkpt lat="45.236473538543294" lon="8.36774688504797"><ele>128.0</ele><time>2026-04-11T15:45:04.001Z</time></trkpt><trkpt lat="45.23658528194618" lon="8.367653240627597"><ele>127.75</ele><time>2026-04-11T15:45:05.001Z</time></trkpt><trkpt lat="45.2366856999946" lon="8.36751707646156"><ele>127.5</ele><time>2026-04-11T15:45:06.001Z</time></trkpt><trkpt lat="45.23677557987568" lon="8.367364829649755"><ele>127.25</ele><time>2026-04-11T15:45:07.001Z</time></trkpt><trkpt lat="45.23685410338602" lon="8.36717985392653"><ele>127.0</ele><time>2026-04-11T15:45:08.001Z</time></trkpt><trkpt lat="45.23693020560712" lon="8.36698814197274"><ele>127.0</ele><time>2026-04-11T15:45:09.001Z</time></trkpt><trkpt lat="45.236998739748174" lon="8.366815494358802"><ele>127.0</ele><time>2026-04-11T15:45:10.001Z</time></trkpt><trkpt lat="45.237062334144845" lon="8.366650107294873"><ele>127.0</ele><time>2026-04-11T15:45:11.001Z</time></trkpt><trkpt lat="45.23712041039748" lon="8.366495758869199"><ele>127.0</ele><time>2026-04-11T15:45:12.001Z</time></trkpt><trkpt lat="45.23717145015028" lon="8.366352859786582"><ele>127.00000000000001</ele><time>2026-04-11T15:45:13.001Z</time></trkpt><trkpt lat="45.23721111881846" lon="8.366241797235535"><ele>127.0</ele><time>2026-04-11T15:45:14.001Z</time></trkpt><trkpt lat="45.23722806117797" lon="8.366147493511287"><ele>127.0</ele><time>2026-04-11T15:45:15.001Z</time></trkpt><trkpt lat="45.23727885911691" lon="8.366049088044958"><ele>127.0</ele><time>2026-04-11T15:45:17.001Z</time></trkpt><trkpt lat="45.23738699966076" lon="8.366129268488011"><ele>127.00000000000001</ele><time>2026-04-11T15:45:19.001Z</time></trkpt><trkpt lat="45.237465419345384" lon="8.366147231641824"><ele>127.0</ele><time>2026-04-11T15:45:20.001Z</time></trkpt><trkpt lat="45.23756824577477" lon="8.366172805358442"><ele>127.0</ele><time>2026-04-11T15:45:21.001Z</time></trkpt><trkpt lat="45.23767391458967" lon="8.36620892097857"><ele>126.99999999999999</ele><time>2026-04-11T15:45:22.001Z</time></trkpt><trkpt lat="45.2377743993917" lon="8.366245598223093"><ele>126.99999999999999</ele><time>2026-04-11T15:45:23.002Z</time></trkpt><trkpt lat="45.23788358928342" lon="8.366285895927371"><ele>127.0</ele><time>2026-04-11T15:45:24.002Z</time></trkpt><trkpt lat="45.238002403315036" lon="8.366325729983137"><ele>127.0</ele><time>2026-04-11T15:45:25.002Z</time></trkpt><trkpt lat="45.238115180898824" lon="8.366370383658353"><ele>127.75</ele><time>2026-04-11T15:45:26.002Z</time></trkpt><trkpt lat="45.23822555162566" lon="8.366410075486462"><ele>128.5</ele><time>2026-04-11T15:45:27.002Z</time></trkpt><trkpt lat="45.23834029436188" lon="8.36645134010401"><ele>129.25</ele><time>2026-04-11T15:45:28.002Z</time></trkpt><trkpt lat="45.23844771194666" lon="8.366492864158511"><ele>130.0</ele><time>2026-04-11T15:45:29.002Z</time></trkpt><trkpt lat="45.23855128652317" lon="8.366530698806269"><ele>130.0</ele><time>2026-04-11T15:45:30.002Z</time></trkpt><trkpt lat="45.23863793856994" lon="8.366564453210724"><ele>130.0</ele><time>2026-04-11T15:45:31.002Z</time></trkpt><trkpt lat="45.238703553063914" lon="8.366588972994874"><ele>130.0</ele><time>2026-04-11T15:45:32.002Z</time></trkpt><trkpt lat="45.23877242046783" lon="8.366632512262282"><ele>130.0</ele><time>2026-04-11T15:45:37.002Z</time></trkpt><trkpt lat="45.23885134458461" lon="8.366446760985882"><ele>130.0</ele><time>2026-04-11T15:45:39.002Z</time></trkpt><trkpt lat="45.2388701420229" lon="8.366355502564875"><ele>130.0</ele><time>2026-04-11T15:45:40.002Z</time></trkpt><trkpt lat="45.238915885083834" lon="8.366263722932466"><ele>130.0</ele><time>2026-04-11T15:45:41.002Z</time></trkpt><trkpt lat="45.23907590124566" lon="8.36617410507267"><ele>130.0</ele><time>2026-04-11T15:45:43.002Z</time></trkpt><trkpt lat="45.239193600978815" lon="8.366173343403986"><ele>130.0</ele><time>2026-04-11T15:45:44.002Z</time></trkpt><trkpt lat="45.23931651565393" lon="8.366191916319446"><ele>130.0</ele><time>2026-04-11T15:45:45.002Z</time></trkpt><trkpt lat="45.239439450587746" lon="8.366213322383727"><ele>130.0</ele><time>2026-04-11T15:45:46.002Z</time></trkpt><trkpt lat="45.239581144517096" lon="8.366220912417429"><ele>130.0</ele><time>2026-04-11T15:45:47.002Z</time></trkpt><trkpt lat="45.23973576077821" lon="8.366227398106096"><ele>130.0</ele><time>2026-04-11T15:45:48.002Z</time></trkpt><trkpt lat="45.239895148970696" lon="8.36623900077613"><ele>130.0</ele><time>2026-04-11T15:45:49.002Z</time></trkpt><trkpt lat="45.24004865540793" lon="8.366250661435245"><ele>130.0</ele><time>2026-04-11T15:45:50.002Z</time></trkpt><trkpt lat="45.24019775061138" lon="8.36625862407668"><ele>130.0</ele><time>2026-04-11T15:45:51.002Z</time></trkpt><trkpt lat="45.24034793779739" lon="8.366261806976658"><ele>130.0</ele><time>2026-04-11T15:45:52.002Z</time></trkpt><trkpt lat="45.240491138885304" lon="8.366269971591699"><ele>130.0</ele><time>2026-04-11T15:45:53.002Z</time></trkpt><trkpt lat="45.24062931015898" lon="8.366274981825468"><ele>130.0</ele><time>2026-04-11T15:45:54.002Z</time></trkpt><trkpt lat="45.24075277597418" lon="8.366281466326454"><ele>130.0</ele><time>2026-04-11T15:45:55.002Z</time></trkpt><trkpt lat="45.24087161140346" lon="8.3662918515126"><ele>130.25</ele><time>2026-04-11T15:45:56.002Z</time></trkpt><trkpt lat="45.24098891057805" lon="8.366308020791099"><ele>130.5</ele><time>2026-04-11T15:45:57.003Z</time></trkpt><trkpt lat="45.24110580656265" lon="8.366311485417837"><ele>130.75</ele><time>2026-04-11T15:45:58.003Z</time></trkpt><trkpt lat="45.24120929201196" lon="8.366323456128168"><ele>131.0</ele><time>2026-04-11T15:45:59.003Z</time></trkpt><trkpt lat="45.2413333645512" lon="8.366355598581952"><ele>130.5</ele><time>2026-04-11T15:46:00.003Z</time></trkpt><trkpt lat="45.241464008001685" lon="8.366391239740441"><ele>130.0</ele><time>2026-04-11T15:46:01.003Z</time></trkpt><trkpt lat="45.24159582955194" lon="8.366436406139"><ele>129.5</ele><time>2026-04-11T15:46:02.003Z</time></trkpt><trkpt lat="45.241724837504364" lon="8.366497263076901"><ele>129.0</ele><time>2026-04-11T15:46:03.003Z</time></trkpt><trkpt lat="45.24185690428582" lon="8.366545566117372"><ele>129.0</ele><time>2026-04-11T15:46:04.003Z</time></trkpt><trkpt lat="45.241975903523475" lon="8.36656633615278"><ele>129.0</ele><time>2026-04-11T15:46:05.003Z</time></trkpt><trkpt lat="45.242085970413235" lon="8.36655235107552"><ele>129.0</ele><time>2026-04-11T15:46:06.003Z</time></trkpt><trkpt lat="45.242203082622844" lon="8.366489424822259"><ele>129.0</ele><time>2026-04-11T15:46:07.003Z</time></trkpt><trkpt lat="45.24232926910266" lon="8.366384769984778"><ele>129.0</ele><time>2026-04-11T15:46:08.003Z</time></trkpt><trkpt lat="45.242477697055264" lon="8.366278040734846"><ele>129.0</ele><time>2026-04-11T15:46:09.003Z</time></trkpt><trkpt lat="45.24264135656514" lon="8.366150058780804"><ele>129.0</ele><time>2026-04-11T15:46:10.003Z</time></trkpt><trkpt lat="45.24281504184051" lon="8.366012197947072"><ele>129.0</ele><time>2026-04-11T15:46:11.003Z</time></trkpt><trkpt lat="45.24298875783681" lon="8.365847070669247"><ele>129.0</ele><time>2026-04-11T15:46:12.003Z</time></trkpt><trkpt lat="45.243165354906544" lon="8.365698686359574"><ele>129.0</ele><time>2026-04-11T15:46:13.003Z</time></trkpt><trkpt lat="45.24334932206984" lon="8.365574095493098"><ele>128.66666666666666</ele><time>2026-04-11T15:46:14.003Z</time></trkpt><trkpt lat="45.24354097151339" lon="8.36541774992578"><ele>128.33333333333331</ele><time>2026-04-11T15:46:15.003Z</time></trkpt><trkpt lat="45.24373397512651" lon="8.365260299607401"><ele>128.0</ele><time>2026-04-11T15:46:16.003Z</time></trkpt><trkpt lat="45.2439176413156" lon="8.365110466680768"><ele>128.33333333333331</ele><time>2026-04-11T15:46:17.003Z</time></trkpt><trkpt lat="45.24406354707972" lon="8.364962505978378"><ele>128.66666666666666</ele><time>2026-04-11T15:46:18.003Z</time></trkpt><trkpt lat="45.24420056175373" lon="8.364875683761193"><ele>129.0</ele><time>2026-04-11T15:46:19.003Z</time></trkpt><trkpt lat="45.244316577982794" lon="8.364772561536883"><ele>128.66666666666666</ele><time>2026-04-11T15:46:20.003Z</time></trkpt><trkpt lat="45.24442264146451" lon="8.36465502552206"><ele>128.33333333333331</ele><time>2026-04-11T15:46:21.003Z</time></trkpt><trkpt lat="45.24450741747071" lon="8.36447258664808"><ele>128.0</ele><time>2026-04-11T15:46:21.999Z</time></trkpt><trkpt lat="45.24458131743437" lon="8.364263266954262"><ele>128.0</ele><time>2026-04-11T15:46:22.999Z</time></trkpt><trkpt lat="45.24464946131769" lon="8.364006722933466"><ele>128.0</ele><time>2026-04-11T15:46:23.999Z</time></trkpt><trkpt lat="45.24471792206605" lon="8.363740645000977"><ele>128.0</ele><time>2026-04-11T15:46:25Z</time></trkpt><trkpt lat="45.2448190468054" lon="8.363473328973328"><ele>128.33333333333331</ele><time>2026-04-11T15:46:25.999Z</time></trkpt><trkpt lat="45.244904894590725" lon="8.363193939788175"><ele>128.66666666666666</ele><time>2026-04-11T15:46:26.999Z</time></trkpt><trkpt lat="45.24498224830795" lon="8.362940523697464"><ele>129.0</ele><time>2026-04-11T15:46:27.999Z</time></trkpt><trkpt lat="45.24505301050878" lon="8.362708702252379"><ele>129.0</ele><time>2026-04-11T15:46:28.999Z</time></trkpt><trkpt lat="45.24511800383851" lon="8.36249577983425"><ele>129.0</ele><time>2026-04-11T15:46:30Z</time></trkpt><trkpt lat="45.245179077349306" lon="8.362303069509913"><ele>129.0</ele><time>2026-04-11T15:46:31Z</time></trkpt><trkpt lat="45.245233533318064" lon="8.362150357796452"><ele>129.0</ele><time>2026-04-11T15:46:32Z</time></trkpt><trkpt lat="45.245290704229205" lon="8.362029776935723"><ele>129.0</ele><time>2026-04-11T15:46:33Z</time></trkpt><trkpt lat="45.24535584994803" lon="8.361932810600152"><ele>129.0</ele><time>2026-04-11T15:46:34Z</time></trkpt><trkpt lat="45.24543574694056" lon="8.361857961850601"><ele>129.0</ele><time>2026-04-11T15:46:35Z</time></trkpt><trkpt lat="45.24553089108374" lon="8.361789624363082"><ele>129.0</ele><time>2026-04-11T15:46:36Z</time></trkpt><trkpt lat="45.24564286550675" lon="8.361719731639399"><ele>129.0</ele><time>2026-04-11T15:46:37Z</time></trkpt><trkpt lat="45.24577286251998" lon="8.361619670481778"><ele>129.0</ele><time>2026-04-11T15:46:38Z</time></trkpt><trkpt lat="45.245934881234305" lon="8.361552257716038"><ele>129.0</ele><time>2026-04-11T15:46:39Z</time></trkpt><trkpt lat="45.24610156093" lon="8.361432297429923"><ele>129.0</ele><time>2026-04-11T15:46:40Z</time></trkpt><trkpt lat="45.246283655049496" lon="8.361349650405328"><ele>129.0</ele><time>2026-04-11T15:46:41Z</time></trkpt><trkpt lat="45.24645063462252" lon="8.361253431873662"><ele>129.0</ele><time>2026-04-11T15:46:42Z</time></trkpt><trkpt lat="45.246629986332536" lon="8.361150968110607"><ele>129.0</ele><time>2026-04-11T15:46:43Z</time></trkpt><trkpt lat="45.24682437177516" lon="8.361039915573508"><ele>129.0</ele><time>2026-04-11T15:46:44Z</time></trkpt><trkpt lat="45.247023998265995" lon="8.360925868830796"><ele>129.0</ele><time>2026-04-11T15:46:45Z</time></trkpt><trkpt lat="45.24723023687795" lon="8.36080799096595"><ele>129.0</ele><time>2026-04-11T15:46:46Z</time></trkpt><trkpt lat="45.24744093354629" lon="8.360687493038057"><ele>129.0</ele><time>2026-04-11T15:46:47Z</time></trkpt><trkpt lat="45.24764642655105" lon="8.360568972861232"><ele>129.0</ele><time>2026-04-11T15:46:48Z</time></trkpt><trkpt lat="45.24784859745246" lon="8.36045092338508"><ele>129.0</ele><time>2026-04-11T15:46:49Z</time></trkpt><trkpt lat="45.2480583016774" lon="8.360328475133132"><ele>128.5</ele><time>2026-04-11T15:46:50Z</time></trkpt><trkpt lat="45.24827278310563" lon="8.360203346849216"><ele>128.0</ele><time>2026-04-11T15:46:51Z</time></trkpt><trkpt lat="45.2484906625812" lon="8.360074354623869"><ele>128.0</ele><time>2026-04-11T15:46:52Z</time></trkpt><trkpt lat="45.24871662524915" lon="8.359940159931954"><ele>128.0</ele><time>2026-04-11T15:46:53Z</time></trkpt><trkpt lat="45.24893558903505" lon="8.359810719770456"><ele>128.5</ele><time>2026-04-11T15:46:54Z</time></trkpt><trkpt lat="45.2491556490455" lon="8.359680631621881"><ele>129.0</ele><time>2026-04-11T15:46:55Z</time></trkpt><trkpt lat="45.24937515807836" lon="8.35955156952438"><ele>129.0</ele><time>2026-04-11T15:46:56.001Z</time></trkpt><trkpt lat="45.24959762534332" lon="8.359420893436074"><ele>129.0</ele><time>2026-04-11T15:46:57.001Z</time></trkpt><trkpt lat="45.24981303521647" lon="8.359295194139284"><ele>129.33333333333334</ele><time>2026-04-11T15:46:58.001Z</time></trkpt><trkpt lat="45.25001676436303" lon="8.359178949799643"><ele>129.66666666666669</ele><time>2026-04-11T15:46:59.001Z</time></trkpt><trkpt lat="45.25020999197069" lon="8.359070951552127"><ele>130.0</ele><time>2026-04-11T15:47:00.001Z</time></trkpt><trkpt lat="45.250387716568554" lon="8.358970456375536"><ele>130.0</ele><time>2026-04-11T15:47:01.001Z</time></trkpt><trkpt lat="45.250560052031595" lon="8.358870617331242"><ele>130.0</ele><time>2026-04-11T15:47:02.001Z</time></trkpt><trkpt lat="45.25072408732767" lon="8.358771547598492"><ele>130.0</ele><time>2026-04-11T15:47:03.001Z</time></trkpt><trkpt lat="45.25088529288615" lon="8.358674186398195"><ele>129.33333333333334</ele><time>2026-04-11T15:47:04.001Z</time></trkpt><trkpt lat="45.25103435496683" lon="8.358570557457453"><ele>128.66666666666666</ele><time>2026-04-11T15:47:05.001Z</time></trkpt><trkpt lat="45.25117380081519" lon="8.358445810257733"><ele>128.0</ele><time>2026-04-11T15:47:06.001Z</time></trkpt><trkpt lat="45.25132034126481" lon="8.358294742499425"><ele>128.33333333333331</ele><time>2026-04-11T15:47:07.001Z</time></trkpt><trkpt lat="45.25146780854833" lon="8.358123813468968"><ele>128.66666666666666</ele><time>2026-04-11T15:47:08.001Z</time></trkpt><trkpt lat="45.251597112225355" lon="8.357935448206673"><ele>129.0</ele><time>2026-04-11T15:47:09.001Z</time></trkpt><trkpt lat="45.25173894433775" lon="8.3577856590791"><ele>129.0</ele><time>2026-04-11T15:47:10.001Z</time></trkpt><trkpt lat="45.251864169785875" lon="8.357609572982655"><ele>129.0</ele><time>2026-04-11T15:47:11.001Z</time></trkpt><trkpt lat="45.25198134617484" lon="8.357397064528868"><ele>129.0</ele><time>2026-04-11T15:47:12.001Z</time></trkpt><trkpt lat="45.25209979245726" lon="8.357162394788181"><ele>129.0</ele><time>2026-04-11T15:47:13.001Z</time></trkpt><trkpt lat="45.25222123574251" lon="8.3569118791388"><ele>129.0</ele><time>2026-04-11T15:47:14.001Z</time></trkpt><trkpt lat="45.25234162421095" lon="8.356658796733788"><ele>129.0</ele><time>2026-04-11T15:47:15.001Z</time></trkpt><trkpt lat="45.25246006754736" lon="8.356409803417234"><ele>129.0</ele><time>2026-04-11T15:47:16.001Z</time></trkpt><trkpt lat="45.25257222561576" lon="8.356172745638034"><ele>129.0</ele><time>2026-04-11T15:47:17.001Z</time></trkpt><trkpt lat="45.252655707602415" lon="8.355953148662874"><ele>129.0</ele><time>2026-04-11T15:47:18.001Z</time></trkpt><trkpt lat="45.25273046769857" lon="8.355797281132855"><ele>129.0</ele><time>2026-04-11T15:47:19.001Z</time></trkpt><trkpt lat="45.25279025708721" lon="8.355667815374558"><ele>129.0</ele><time>2026-04-11T15:47:20.001Z</time></trkpt><trkpt lat="45.25283680362134" lon="8.355563013421037"><ele>129.0</ele><time>2026-04-11T15:47:21.001Z</time></trkpt><trkpt lat="45.252877828597505" lon="8.35547426189163"><ele>129.0</ele><time>2026-04-11T15:47:22.001Z</time></trkpt><trkpt lat="45.252950253523046" lon="8.355404051688723"><ele>129.0</ele><time>2026-04-11T15:47:24.001Z</time></trkpt><trkpt lat="45.253004734392796" lon="8.355507607855124"><ele>129.0</ele><time>2026-04-11T15:47:26.001Z</time></trkpt><trkpt lat="45.253061708769565" lon="8.355551935946906"><ele>129.0</ele><time>2026-04-11T15:47:27.002Z</time></trkpt><trkpt lat="45.25314205892748" lon="8.355616435158279"><ele>129.0</ele><time>2026-04-11T15:47:28.002Z</time></trkpt><trkpt lat="45.253235669784736" lon="8.3557243194347"><ele>129.0</ele><time>2026-04-11T15:47:29.002Z</time></trkpt><trkpt lat="45.25332268399018" lon="8.355844376895563"><ele>129.0</ele><time>2026-04-11T15:47:30.002Z</time></trkpt><trkpt lat="45.25340990822898" lon="8.35597405689016"><ele>129.0</ele><time>2026-04-11T15:47:31.002Z</time></trkpt><trkpt lat="45.25348883980919" lon="8.356100515182321"><ele>129.0</ele><time>2026-04-11T15:47:32.002Z</time></trkpt><trkpt lat="45.25355907660436" lon="8.356214965209306"><ele>129.0</ele><time>2026-04-11T15:47:33.002Z</time></trkpt><trkpt lat="45.253650588961634" lon="8.356329693036441"><ele>129.0</ele><time>2026-04-11T15:47:34.002Z</time></trkpt><trkpt lat="45.25374851787551" lon="8.356438697362547"><ele>129.0</ele><time>2026-04-11T15:47:35.002Z</time></trkpt><trkpt lat="45.25382734683528" lon="8.356565580539943"><ele>129.0</ele><time>2026-04-11T15:47:36.002Z</time></trkpt><trkpt lat="45.253941426926374" lon="8.356676195164711"><ele>129.0</ele><time>2026-04-11T15:47:37.002Z</time></trkpt><trkpt lat="45.254042340596335" lon="8.356832739094191"><ele>129.0</ele><time>2026-04-11T15:47:38.002Z</time></trkpt><trkpt lat="45.25416586489549" lon="8.356953755447991"><ele>129.0</ele><time>2026-04-11T15:47:39.002Z</time></trkpt><trkpt lat="45.25427848797677" lon="8.357094639307343"><ele>129.0</ele><time>2026-04-11T15:47:40.002Z</time></trkpt><trkpt lat="45.25437835383365" lon="8.35724651023795"><ele>129.0</ele><time>2026-04-11T15:47:41.002Z</time></trkpt><trkpt lat="45.254491025873676" lon="8.357389299578617"><ele>129.0</ele><time>2026-04-11T15:47:42.002Z</time></trkpt><trkpt lat="45.25459883735287" lon="8.357532022944655"><ele>129.25</ele><time>2026-04-11T15:47:43.002Z</time></trkpt><trkpt lat="45.25470506750844" lon="8.357675976476637"><ele>129.5</ele><time>2026-04-11T15:47:44.002Z</time></trkpt><trkpt lat="45.25480083860336" lon="8.357807633362148"><ele>129.75</ele><time>2026-04-11T15:47:45.002Z</time></trkpt><trkpt lat="45.254895364516265" lon="8.357937845342423"><ele>130.0</ele><time>2026-04-11T15:47:46.002Z</time></trkpt><trkpt lat="45.254985278560966" lon="8.358064018845356"><ele>130.0</ele><time>2026-04-11T15:47:47.002Z</time></trkpt><trkpt lat="45.25508221650578" lon="8.358170082543827"><ele>130.0</ele><time>2026-04-11T15:47:48.002Z</time></trkpt><trkpt lat="45.255147312911376" lon="8.358287804052381"><ele>130.0</ele><time>2026-04-11T15:47:49.002Z</time></trkpt><trkpt lat="45.25524093041822" lon="8.358386084666986"><ele>130.0</ele><time>2026-04-11T15:47:50.002Z</time></trkpt><trkpt lat="45.25532277247341" lon="8.358525135570467"><ele>130.0</ele><time>2026-04-11T15:47:51.002Z</time></trkpt><trkpt lat="45.255414104023465" lon="8.358647584331033"><ele>130.0</ele><time>2026-04-11T15:47:52.002Z</time></trkpt><trkpt lat="45.25550531904343" lon="8.358736910428108"><ele>130.0</ele><time>2026-04-11T15:47:53.002Z</time></trkpt><trkpt lat="45.25557630285544" lon="8.35883052334227"><ele>130.0</ele><time>2026-04-11T15:47:54.002Z</time></trkpt><trkpt lat="45.25565445193783" lon="8.358912476894789"><ele>130.0</ele><time>2026-04-11T15:47:55.002Z</time></trkpt><trkpt lat="45.25574322545346" lon="8.358965074468655"><ele>130.0</ele><time>2026-04-11T15:47:56.002Z</time></trkpt><trkpt lat="45.255821030368246" lon="8.359010155233268"><ele>130.0</ele><time>2026-04-11T15:47:57.002Z</time></trkpt><trkpt lat="45.2559006811618" lon="8.359031344135124"><ele>130.0</ele><time>2026-04-11T15:47:58.002Z</time></trkpt><trkpt lat="45.25598671800103" lon="8.359027074238742"><ele>130.0</ele><time>2026-04-11T15:47:59.002Z</time></trkpt><trkpt lat="45.25606056690422" lon="8.358990108216098"><ele>130.0</ele><time>2026-04-11T15:48:00.003Z</time></trkpt><trkpt lat="45.25614754771256" lon="8.358935606214745"><ele>130.0</ele><time>2026-04-11T15:48:01.003Z</time></trkpt><trkpt lat="45.25623733088454" lon="8.35887414115294"><ele>129.75</ele><time>2026-04-11T15:48:02.003Z</time></trkpt><trkpt lat="45.25633435183568" lon="8.358801152128374"><ele>129.5</ele><time>2026-04-11T15:48:03.003Z</time></trkpt><trkpt lat="45.256439921277156" lon="8.358720253794303"><ele>129.25</ele><time>2026-04-11T15:48:04.003Z</time></trkpt><trkpt lat="45.25656351110249" lon="8.3586281502907"><ele>129.0</ele><time>2026-04-11T15:48:05.003Z</time></trkpt><trkpt lat="45.2566925000994" lon="8.35853211529359"><ele>129.0</ele><time>2026-04-11T15:48:06.003Z</time></trkpt><trkpt lat="45.25681737030159" lon="8.358448470227032"><ele>129.0</ele><time>2026-04-11T15:48:07.003Z</time></trkpt><trkpt lat="45.256945275608956" lon="8.358400291875306"><ele>129.0</ele><time>2026-04-11T15:48:08.003Z</time></trkpt><trkpt lat="45.257065410654704" lon="8.358319796834746"><ele>129.0</ele><time>2026-04-11T15:48:09.003Z</time></trkpt><trkpt lat="45.2571859750692" lon="8.358272808130195"><ele>129.0</ele><time>2026-04-11T15:48:10.003Z</time></trkpt><trkpt lat="45.25729385459322" lon="8.358219554025753"><ele>129.0</ele><time>2026-04-11T15:48:11.003Z</time></trkpt><trkpt lat="45.25738611269751" lon="8.358171540626081"><ele>129.0</ele><time>2026-04-11T15:48:12.003Z</time></trkpt><trkpt lat="45.25746557703209" lon="8.358128189127392"><ele>129.0</ele><time>2026-04-11T15:48:13.003Z</time></trkpt><trkpt lat="45.25752562359689" lon="8.358067455372106"><ele>129.0</ele><time>2026-04-11T15:48:14.003Z</time></trkpt><trkpt lat="45.25758120666367" lon="8.358011889854584"><ele>129.0</ele><time>2026-04-11T15:48:15.003Z</time></trkpt><trkpt lat="45.257693258512454" lon="8.357993180209794"><ele>129.0</ele><time>2026-04-11T15:48:17.003Z</time></trkpt><trkpt lat="45.257795367756515" lon="8.357989997514787"><ele>129.0</ele><time>2026-04-11T15:48:19.003Z</time></trkpt><trkpt lat="45.25784277463206" lon="8.357859412209608"><ele>129.0</ele><time>2026-04-11T15:48:20.003Z</time></trkpt><trkpt lat="45.25791366764803" lon="8.357781801963368"><ele>129.0</ele><time>2026-04-11T15:48:21.003Z</time></trkpt><trkpt lat="45.257991558233066" lon="8.35768621073681"><ele>129.0</ele><time>2026-04-11T15:48:22.003Z</time></trkpt><trkpt lat="45.258070022168596" lon="8.357592524835509"><ele>129.25</ele><time>2026-04-11T15:48:23.003Z</time></trkpt><trkpt lat="45.258159363934425" lon="8.357497395420665"><ele>129.5</ele><time>2026-04-11T15:48:24.003Z</time></trkpt><trkpt lat="45.258252648641296" lon="8.357374931390414"><ele>129.75</ele><time>2026-04-11T15:48:25.003Z</time></trkpt><trkpt lat="45.2583659958149" lon="8.357281632798976"><ele>130.0</ele><time>2026-04-11T15:48:26.003Z</time></trkpt><trkpt lat="45.25845852162643" lon="8.357183920062504"><ele>130.0</ele><time>2026-04-11T15:48:27.003Z</time></trkpt><trkpt lat="45.258530708399" lon="8.357077742095845"><ele>130.0</ele><time>2026-04-11T15:48:27.999Z</time></trkpt><trkpt lat="45.25859926009552" lon="8.35699152751298"><ele>130.0</ele><time>2026-04-11T15:48:28.999Z</time></trkpt><trkpt lat="45.258667494865755" lon="8.35687645302566"><ele>130.0</ele><time>2026-04-11T15:48:29.999Z</time></trkpt><trkpt lat="45.25873338385462" lon="8.356760914955185"><ele>130.0</ele><time>2026-04-11T15:48:30.999Z</time></trkpt><trkpt lat="45.2588010564535" lon="8.356639387542598"><ele>130.0</ele><time>2026-04-11T15:48:31.999Z</time></trkpt><trkpt lat="45.258852002434516" lon="8.356509527223068"><ele>130.0</ele><time>2026-04-11T15:48:32.999Z</time></trkpt><trkpt lat="45.25889672953502" lon="8.356412286219987"><ele>130.0</ele><time>2026-04-11T15:48:33.999Z</time></trkpt><trkpt lat="45.258955532575264" lon="8.356341286930872"><ele>130.0</ele><time>2026-04-11T15:48:34.999Z</time></trkpt><trkpt lat="45.259005159845344" lon="8.356279542672603"><ele>130.0</ele><time>2026-04-11T15:48:35.999Z</time></trkpt><trkpt lat="45.25906836321391" lon="8.356261772568285"><ele>130.0</ele><time>2026-04-11T15:48:36.999Z</time></trkpt><trkpt lat="45.25917894400261" lon="8.356372584160114"><ele>130.2</ele><time>2026-04-11T15:48:38.999Z</time></trkpt><trkpt lat="45.25927108709334" lon="8.356449305509424"><ele>130.4</ele><time>2026-04-11T15:48:39.999Z</time></trkpt><trkpt lat="45.25936723073435" lon="8.356533060019052"><ele>130.6</ele><time>2026-04-11T15:48:40.999Z</time></trkpt><trkpt lat="45.25945902455201" lon="8.356593145177712"><ele>130.8</ele><time>2026-04-11T15:48:42Z</time></trkpt><trkpt lat="45.2595371738667" lon="8.356657362969646"><ele>131.0</ele><time>2026-04-11T15:48:43Z</time></trkpt><trkpt lat="45.259606543170605" lon="8.356703154178804"><ele>131.0</ele><time>2026-04-11T15:48:44Z</time></trkpt><trkpt lat="45.25967642729154" lon="8.356724100505065"><ele>131.0</ele><time>2026-04-11T15:48:45Z</time></trkpt><trkpt lat="45.259740125030284" lon="8.356714390755076"><ele>131.0</ele><time>2026-04-11T15:48:46Z</time></trkpt><trkpt lat="45.25980389411825" lon="8.356677416822476"><ele>131.0</ele><time>2026-04-11T15:48:47Z</time></trkpt><trkpt lat="45.25985223578702" lon="8.356609372090913"><ele>131.0</ele><time>2026-04-11T15:48:48Z</time></trkpt><trkpt lat="45.25990941192012" lon="8.356513559233253"><ele>131.0</ele><time>2026-04-11T15:48:49Z</time></trkpt><trkpt lat="45.259992294516564" lon="8.356396044922636"><ele>131.0</ele><time>2026-04-11T15:48:50Z</time></trkpt><trkpt lat="45.2601004966081" lon="8.356313526446124"><ele>131.0</ele><time>2026-04-11T15:48:51Z</time></trkpt><trkpt lat="45.2602037875996" lon="8.35625883616561"><ele>131.0</ele><time>2026-04-11T15:48:52Z</time></trkpt><trkpt lat="45.260323482604186" lon="8.35621297415776"><ele>131.0</ele><time>2026-04-11T15:48:53Z</time></trkpt><trkpt lat="45.26043717844304" lon="8.356126906917707"><ele>131.0</ele><time>2026-04-11T15:48:54Z</time></trkpt><trkpt lat="45.26054198857754" lon="8.356070401940919"><ele>131.0</ele><time>2026-04-11T15:48:55Z</time></trkpt><trkpt lat="45.26065124937532" lon="8.35602212076364"><ele>131.0</ele><time>2026-04-11T15:48:56Z</time></trkpt><trkpt lat="45.2607599291441" lon="8.355937354103112"><ele>131.0</ele><time>2026-04-11T15:48:57Z</time></trkpt><trkpt lat="45.26084198301239" lon="8.355838112379333"><ele>130.8</ele><time>2026-04-11T15:48:58Z</time></trkpt><trkpt lat="45.26093117222759" lon="8.355756410598536"><ele>130.6</ele><time>2026-04-11T15:48:59Z</time></trkpt><trkpt lat="45.26102125250794" lon="8.355683936977954"><ele>130.4</ele><time>2026-04-11T15:49:00Z</time></trkpt><trkpt lat="45.26108479607089" lon="8.355563296608976"><ele>130.2</ele><time>2026-04-11T15:49:01Z</time></trkpt><trkpt lat="45.261148374775786" lon="8.355450821185546"><ele>130.0</ele><time>2026-04-11T15:49:02Z</time></trkpt><trkpt lat="45.26119960091657" lon="8.355345384975438"><ele>130.0</ele><time>2026-04-11T15:49:03.001Z</time></trkpt><trkpt lat="45.26125121627859" lon="8.355261889584213"><ele>130.0</ele><time>2026-04-11T15:49:04.001Z</time></trkpt><trkpt lat="45.26131312425092" lon="8.35521905446043"><ele>130.0</ele><time>2026-04-11T15:49:05.001Z</time></trkpt><trkpt lat="45.26138743937892" lon="8.355216234301663"><ele>130.0</ele><time>2026-04-11T15:49:06.001Z</time></trkpt><trkpt lat="45.261454115860374" lon="8.355285384187933"><ele>130.0</ele><time>2026-04-11T15:49:07.001Z</time></trkpt><trkpt lat="45.2615286215215" lon="8.355335595279954"><ele>130.0</ele><time>2026-04-11T15:49:08.001Z</time></trkpt><trkpt lat="45.26162707007698" lon="8.355391052094234"><ele>129.75</ele><time>2026-04-11T15:49:09.001Z</time></trkpt><trkpt lat="45.26175638284756" lon="8.355437950092863"><ele>129.5</ele><time>2026-04-11T15:49:10.001Z</time></trkpt><trkpt lat="45.26188374623456" lon="8.35550143348015"><ele>129.25</ele><time>2026-04-11T15:49:11.001Z</time></trkpt><trkpt lat="45.261990458484604" lon="8.35555615549172"><ele>129.0</ele><time>2026-04-11T15:49:12.001Z</time></trkpt><trkpt lat="45.2620871072766" lon="8.355607265851493"><ele>129.16666666666666</ele><time>2026-04-11T15:49:13.001Z</time></trkpt><trkpt lat="45.262161283659985" lon="8.355687350125985"><ele>129.33333333333334</ele><time>2026-04-11T15:49:14.001Z</time></trkpt><trkpt lat="45.262223179394724" lon="8.355746571931162"><ele>129.5</ele><time>2026-04-11T15:49:15.001Z</time></trkpt><trkpt lat="45.262271308718404" lon="8.35583433731667"><ele>129.66666666666669</ele><time>2026-04-11T15:49:16.001Z</time></trkpt><trkpt lat="45.262316497162125" lon="8.355935538403703"><ele>129.83333333333334</ele><time>2026-04-11T15:49:17.001Z</time></trkpt><trkpt lat="45.262372355677314" lon="8.356062212083325"><ele>130.0</ele><time>2026-04-11T15:49:18.001Z</time></trkpt><trkpt lat="45.26244417049834" lon="8.356228563174403"><ele>129.75</ele><time>2026-04-11T15:49:19.001Z</time></trkpt><trkpt lat="45.26252214249413" lon="8.356409176798666"><ele>129.5</ele><time>2026-04-11T15:49:20.001Z</time></trkpt><trkpt lat="45.262598063472225" lon="8.356585039263953"><ele>129.25</ele><time>2026-04-11T15:49:21.001Z</time></trkpt><trkpt lat="45.2626888611858" lon="8.356748011943592"><ele>129.0</ele><time>2026-04-11T15:49:22.001Z</time></trkpt><trkpt lat="45.262766173038976" lon="8.356927065893313"><ele>129.0</ele><time>2026-04-11T15:49:23.001Z</time></trkpt><trkpt lat="45.262845319814005" lon="8.357111725866517"><ele>129.0</ele><time>2026-04-11T15:49:24.001Z</time></trkpt><trkpt lat="45.26292322841409" lon="8.357281024942822"><ele>129.0</ele><time>2026-04-11T15:49:25.001Z</time></trkpt><trkpt lat="45.26300914943494" lon="8.35746752082016"><ele>129.0</ele><time>2026-04-11T15:49:26.001Z</time></trkpt><trkpt lat="45.26308981547891" lon="8.357651044312595"><ele>129.0</ele><time>2026-04-11T15:49:27.001Z</time></trkpt><trkpt lat="45.263169478207885" lon="8.357833864645443"><ele>129.0</ele><time>2026-04-11T15:49:28.001Z</time></trkpt><trkpt lat="45.26324591544009" lon="8.358005465371926"><ele>129.0</ele><time>2026-04-11T15:49:29.001Z</time></trkpt><trkpt lat="45.26332669610415" lon="8.358190605602397"><ele>130.0</ele><time>2026-04-11T15:49:30.001Z</time></trkpt><trkpt lat="45.26341662295591" lon="8.35839225259991"><ele>131.0</ele><time>2026-04-11T15:49:31.001Z</time></trkpt><trkpt lat="45.26351185972052" lon="8.358600788653053"><ele>132.0</ele><time>2026-04-11T15:49:32.002Z</time></trkpt><trkpt lat="45.26358871382055" lon="8.358814608824767"><ele>131.33333333333334</ele><time>2026-04-11T15:49:33.002Z</time></trkpt><trkpt lat="45.26368272778413" lon="8.358983126696783"><ele>130.66666666666669</ele><time>2026-04-11T15:49:34.002Z</time></trkpt><trkpt lat="45.26376303556166" lon="8.359164987624961"><ele>130.0</ele><time>2026-04-11T15:49:35.002Z</time></trkpt><trkpt lat="45.26384515260971" lon="8.359350181288756"><ele>130.0</ele><time>2026-04-11T15:49:36.002Z</time></trkpt><trkpt lat="45.263928339378566" lon="8.359536121185272"><ele>130.0</ele><time>2026-04-11T15:49:37.002Z</time></trkpt><trkpt lat="45.26401234788895" lon="8.359726734592398"><ele>130.0</ele><time>2026-04-11T15:49:38.002Z</time></trkpt><trkpt lat="45.26409070645392" lon="8.35990567591626"><ele>130.0</ele><time>2026-04-11T15:49:39.002Z</time></trkpt><trkpt lat="45.2641701123271" lon="8.36008645611576"><ele>130.0</ele><time>2026-04-11T15:49:40.002Z</time></trkpt><trkpt lat="45.26424711547912" lon="8.360267610958788"><ele>130.0</ele><time>2026-04-11T15:49:41.002Z</time></trkpt><trkpt lat="45.264321449305235" lon="8.360450259360455"><ele>130.0</ele><time>2026-04-11T15:49:42.002Z</time></trkpt><trkpt lat="45.26438334846333" lon="8.360626713926791"><ele>129.75</ele><time>2026-04-11T15:49:43.002Z</time></trkpt><trkpt lat="45.264441128544526" lon="8.360797307908001"><ele>129.5</ele><time>2026-04-11T15:49:44.002Z</time></trkpt><trkpt lat="45.26449030863555" lon="8.360974244749805"><ele>129.25</ele><time>2026-04-11T15:49:45.002Z</time></trkpt><trkpt lat="45.264530470241844" lon="8.361146006550522"><ele>129.0</ele><time>2026-04-11T15:49:46.002Z</time></trkpt><trkpt lat="45.264554568819435" lon="8.361308440433117"><ele>128.8</ele><time>2026-04-11T15:49:47.002Z</time></trkpt><trkpt lat="45.26459570400861" lon="8.361449460265955"><ele>128.60000000000002</ele><time>2026-04-11T15:49:48.002Z</time></trkpt><trkpt lat="45.26461152490802" lon="8.361596610186657"><ele>128.4</ele><time>2026-04-11T15:49:49.002Z</time></trkpt><trkpt lat="45.26464296529328" lon="8.361729532669997"><ele>128.20000000000002</ele><time>2026-04-11T15:49:50.002Z</time></trkpt><trkpt lat="45.264688063674804" lon="8.361840151984403"><ele>128.0</ele><time>2026-04-11T15:49:51.002Z</time></trkpt><trkpt lat="45.264734731156075" lon="8.361927778641151"><ele>128.33333333333331</ele><time>2026-04-11T15:49:53.002Z</time></trkpt><trkpt lat="45.26480410849931" lon="8.361873197941927"><ele>128.66666666666666</ele><time>2026-04-11T15:49:55.002Z</time></trkpt><trkpt lat="45.26486718894288" lon="8.361786164252768"><ele>129.0</ele><time>2026-04-11T15:49:58.002Z</time></trkpt><trkpt lat="45.264947845151006" lon="8.361722935627178"><ele>129.33333333333334</ele><time>2026-04-11T15:50:00.002Z</time></trkpt><trkpt lat="45.265016983108914" lon="8.361642288262718"><ele>129.66666666666669</ele><time>2026-04-11T15:50:48Z</time></trkpt><trkpt lat="45.26507184488673" lon="8.361592529115883"><ele>130.0</ele><time>2026-04-11T15:50:49Z</time></trkpt><trkpt lat="45.26517878984662" lon="8.361499088331396"><ele>130.0</ele><time>2026-04-11T15:50:51Z</time></trkpt><trkpt lat="45.265230435490665" lon="8.36144340957078"><ele>130.0</ele><time>2026-04-11T15:50:52Z</time></trkpt><trkpt lat="45.265285091860406" lon="8.361323216175283"><ele>130.0</ele><time>2026-04-11T15:50:54Z</time></trkpt><trkpt lat="45.26531227404588" lon="8.361207317073053"><ele>130.0</ele><time>2026-04-11T15:50:56Z</time></trkpt><trkpt lat="45.26532799579069" lon="8.361088223136022"><ele>130.0</ele><time>2026-04-11T15:50:58Z</time></trkpt><trkpt lat="45.26534079518188" lon="8.36096977948468"><ele>130.0</ele><time>2026-04-11T15:51:00Z</time></trkpt><trkpt lat="45.26535021092575" lon="8.360851346325093"><ele>130.0</ele><time>2026-04-11T15:51:02.001Z</time></trkpt><trkpt lat="45.26536030156276" lon="8.360702331081189"><ele>130.0</ele><time>2026-04-11T15:51:04.001Z</time></trkpt><trkpt lat="45.26536709941327" lon="8.360601942612893"><ele>130.0</ele><time>2026-04-11T15:51:05.001Z</time></trkpt><trkpt lat="45.26537494224375" lon="8.360467579578652"><ele>130.0</ele><time>2026-04-11T15:51:06.001Z</time></trkpt><trkpt lat="45.265384590809845" lon="8.36028930106809"><ele>130.0</ele><time>2026-04-11T15:51:07.001Z</time></trkpt><trkpt lat="45.26539468043016" lon="8.36007595508174"><ele>130.25</ele><time>2026-04-11T15:51:08.001Z</time></trkpt><trkpt lat="45.26540547011428" lon="8.359847806110148"><ele>130.5</ele><time>2026-04-11T15:51:09.001Z</time></trkpt><trkpt lat="45.265411707100284" lon="8.359661563729809"><ele>130.75</ele><time>2026-04-11T15:51:10.001Z</time></trkpt><trkpt lat="45.26540111874453" lon="8.359494863632657"><ele>131.0</ele><time>2026-04-11T15:51:11.001Z</time></trkpt><trkpt lat="45.26540865605173" lon="8.359333437247173"><ele>131.0</ele><time>2026-04-11T15:51:12.001Z</time></trkpt><trkpt lat="45.26541090152499" lon="8.359177033952934"><ele>131.0</ele><time>2026-04-11T15:51:13.001Z</time></trkpt><trkpt lat="45.265415107022164" lon="8.359038957232857"><ele>131.0</ele><time>2026-04-11T15:51:14.001Z</time></trkpt><trkpt lat="45.265415924683374" lon="8.358910113660796"><ele>131.0</ele><time>2026-04-11T15:51:15.001Z</time></trkpt><trkpt lat="45.26542024375034" lon="8.35878966664424"><ele>131.0</ele><time>2026-04-11T15:51:16.001Z</time></trkpt><trkpt lat="45.26542680990669" lon="8.35866292232053"><ele>131.0</ele><time>2026-04-11T15:51:17.001Z</time></trkpt><trkpt lat="45.26544277329513" lon="8.3585115229152"><ele>131.0</ele><time>2026-04-11T15:51:18.001Z</time></trkpt><trkpt lat="45.26549486370101" lon="8.358366514231927"><ele>131.0</ele><time>2026-04-11T15:51:19.001Z</time></trkpt><trkpt lat="45.26554188301705" lon="8.358237577978889"><ele>131.0</ele><time>2026-04-11T15:51:20.001Z</time></trkpt><trkpt lat="45.265587714599384" lon="8.358086449032731"><ele>131.0</ele><time>2026-04-11T15:51:21.001Z</time></trkpt><trkpt lat="45.26567811860463" lon="8.357936612873381"><ele>131.2</ele><time>2026-04-11T15:51:22.001Z</time></trkpt><trkpt lat="45.2657417661445" lon="8.35777162547511"><ele>131.39999999999998</ele><time>2026-04-11T15:51:23.001Z</time></trkpt><trkpt lat="45.26580771791325" lon="8.357634559137232"><ele>131.6</ele><time>2026-04-11T15:51:24.001Z</time></trkpt><trkpt lat="45.26586986592925" lon="8.357521537651735"><ele>131.79999999999998</ele><time>2026-04-11T15:51:25.001Z</time></trkpt><trkpt lat="45.26591972836762" lon="8.357408499278495"><ele>132.0</ele><time>2026-04-11T15:51:26.001Z</time></trkpt><trkpt lat="45.265973632646" lon="8.357305553009914"><ele>132.0</ele><time>2026-04-11T15:51:27.001Z</time></trkpt><trkpt lat="45.266027635009486" lon="8.357207098001702"><ele>132.0</ele><time>2026-04-11T15:51:28.001Z</time></trkpt><trkpt lat="45.26608159378559" lon="8.357121101119427"><ele>132.0</ele><time>2026-04-11T15:51:29.001Z</time></trkpt><trkpt lat="45.26610981512572" lon="8.357025931647124"><ele>132.0</ele><time>2026-04-11T15:51:30.001Z</time></trkpt><trkpt lat="45.26615720726897" lon="8.356939372457422"><ele>132.0</ele><time>2026-04-11T15:51:31.001Z</time></trkpt><trkpt lat="45.26621248995585" lon="8.356852743225788"><ele>132.0</ele><time>2026-04-11T15:51:32.001Z</time></trkpt><trkpt lat="45.26625703527029" lon="8.356760857049094"><ele>131.83333333333334</ele><time>2026-04-11T15:51:33.001Z</time></trkpt><trkpt lat="45.266285305038124" lon="8.356678892614804"><ele>131.66666666666666</ele><time>2026-04-11T15:51:34.001Z</time></trkpt><trkpt lat="45.26632397325861" lon="8.35658450123083"><ele>131.5</ele><time>2026-04-11T15:51:35.001Z</time></trkpt><trkpt lat="45.26636646387978" lon="8.356474673188561"><ele>131.33333333333331</ele><time>2026-04-11T15:51:36.002Z</time></trkpt><trkpt lat="45.266414863745766" lon="8.356360571412887"><ele>131.16666666666666</ele><time>2026-04-11T15:51:37.002Z</time></trkpt><trkpt lat="45.26645763130127" lon="8.35625898901664"><ele>131.0</ele><time>2026-04-11T15:51:38.002Z</time></trkpt><trkpt lat="45.26649906311995" lon="8.356163901076291"><ele>131.0</ele><time>2026-04-11T15:51:39.002Z</time></trkpt><trkpt lat="45.26653900899337" lon="8.356081967339835"><ele>131.0</ele><time>2026-04-11T15:51:40.002Z</time></trkpt><trkpt lat="45.26658038805068" lon="8.355998455320078"><ele>131.0</ele><time>2026-04-11T15:51:41.002Z</time></trkpt><trkpt lat="45.2666202331376" lon="8.355913286288152"><ele>131.0</ele><time>2026-04-11T15:51:42.002Z</time></trkpt><trkpt lat="45.26665886128762" lon="8.355828777114072"><ele>131.0</ele><time>2026-04-11T15:51:43.002Z</time></trkpt><trkpt lat="45.26669258495225" lon="8.355751010467472"><ele>131.0</ele><time>2026-04-11T15:51:44.002Z</time></trkpt><trkpt lat="45.266743882651966" lon="8.355648885866469"><ele>131.0</ele><time>2026-04-11T15:51:46.002Z</time></trkpt><trkpt lat="45.26678641132036" lon="8.355564023324984"><ele>131.0</ele><time>2026-04-11T15:51:49.002Z</time></trkpt><trkpt lat="45.26684443292482" lon="8.355493145274876"><ele>131.0</ele><time>2026-04-11T15:51:53.002Z</time></trkpt><trkpt lat="45.26694791841107" lon="8.355577252011111"><ele>131.0</ele><time>2026-04-11T15:51:56.002Z</time></trkpt><trkpt lat="45.26703250288168" lon="8.355664915666637"><ele>131.0</ele><time>2026-04-11T15:51:58.002Z</time></trkpt><trkpt lat="45.267116729605995" lon="8.355747088382548"><ele>131.0</ele><time>2026-04-11T15:52:00.002Z</time></trkpt><trkpt lat="45.26722186822255" lon="8.355856526893028"><ele>131.0</ele><time>2026-04-11T15:52:02.002Z</time></trkpt><trkpt lat="45.26732187422399" lon="8.355980808096938"><ele>131.0</ele><time>2026-04-11T15:52:04.002Z</time></trkpt><trkpt lat="45.26737827097463" lon="8.356045139104307"><ele>131.0</ele><time>2026-04-11T15:52:05.002Z</time></trkpt><trkpt lat="45.26743482926404" lon="8.356106113765136"><ele>131.0</ele><time>2026-04-11T15:52:06.002Z</time></trkpt><trkpt lat="45.26749132560937" lon="8.356168435693238"><ele>131.0</ele><time>2026-04-11T15:52:07.002Z</time></trkpt><trkpt lat="45.26754517193231" lon="8.356230140749874"><ele>131.0</ele><time>2026-04-11T15:52:08.002Z</time></trkpt><trkpt lat="45.2675985929911" lon="8.35629519821345"><ele>131.0</ele><time>2026-04-11T15:52:09.002Z</time></trkpt><trkpt lat="45.26765328347057" lon="8.356346452987292"><ele>131.0</ele><time>2026-04-11T15:52:10.002Z</time></trkpt><trkpt lat="45.26774612377999" lon="8.356440858051814"><ele>131.0</ele><time>2026-04-11T15:52:12.003Z</time></trkpt><trkpt lat="45.26781596599927" lon="8.356538597382984"><ele>131.0</ele><time>2026-04-11T15:52:14.003Z</time></trkpt><trkpt lat="45.26786057467971" lon="8.3566020542478"><ele>131.0</ele><time>2026-04-11T15:52:16.003Z</time></trkpt><trkpt lat="45.26790692990576" lon="8.35667042555819"><ele>131.0</ele><time>2026-04-11T15:52:18.003Z</time></trkpt><trkpt lat="45.267955243292135" lon="8.356739378578919"><ele>131.0</ele><time>2026-04-11T15:52:21.003Z</time></trkpt><trkpt lat="45.26792459682126" lon="8.356695793394136"><ele>131.0</ele><time>2026-04-11T15:55:36.001Z</time></trkpt><trkpt lat="45.26785411438677" lon="8.356594588113044"><ele>131.0</ele><time>2026-04-11T15:55:39.001Z</time></trkpt><trkpt lat="45.26777595093294" lon="8.356489318002753"><ele>131.0</ele><time>2026-04-11T15:55:41.001Z</time></trkpt><trkpt lat="45.2676911162723" lon="8.356391911101683"><ele>131.0</ele><time>2026-04-11T15:55:43.001Z</time></trkpt><trkpt lat="45.267620713918376" lon="8.35631452766491"><ele>131.0</ele><time>2026-04-11T15:55:45.001Z</time></trkpt><trkpt lat="45.26754275622472" lon="8.356228840168926"><ele>131.0</ele><time>2026-04-11T15:55:46.001Z</time></trkpt><trkpt lat="45.26746268501551" lon="8.35614082943593"><ele>131.0</ele><time>2026-04-11T15:55:47.001Z</time></trkpt><trkpt lat="45.26738237888197" lon="8.356054924460173"><ele>131.0</ele><time>2026-04-11T15:55:48.001Z</time></trkpt><trkpt lat="45.26731256041801" lon="8.355979148213198"><ele>131.0</ele><time>2026-04-11T15:55:49.001Z</time></trkpt><trkpt lat="45.267236882874336" lon="8.355897013091534"><ele>131.0</ele><time>2026-04-11T15:55:50.001Z</time></trkpt><trkpt lat="45.26715718645749" lon="8.355810515975957"><ele>131.0</ele><time>2026-04-11T15:55:51.001Z</time></trkpt><trkpt lat="45.26707405872233" lon="8.355720294542532"><ele>131.0</ele><time>2026-04-11T15:55:52.001Z</time></trkpt><trkpt lat="45.266991903118736" lon="8.355631128305347"><ele>131.0</ele><time>2026-04-11T15:55:53.001Z</time></trkpt><trkpt lat="45.26692242553106" lon="8.355555722039833"><ele>131.0</ele><time>2026-04-11T15:55:54.001Z</time></trkpt><trkpt lat="45.266878171953145" lon="8.355487401921412"><ele>131.0</ele><time>2026-04-11T15:55:55.001Z</time></trkpt><trkpt lat="45.26680682036125" lon="8.355459952565159"><ele>131.0</ele><time>2026-04-11T15:55:58.001Z</time></trkpt><trkpt lat="45.266680854013984" lon="8.35573542236923"><ele>131.0</ele><time>2026-04-11T15:56:00.002Z</time></trkpt><trkpt lat="45.266636202071275" lon="8.355841779550808"><ele>131.0</ele><time>2026-04-11T15:56:01.002Z</time></trkpt><trkpt lat="45.26658749401522" lon="8.355954281677347"><ele>131.0</ele><time>2026-04-11T15:56:02.002Z</time></trkpt><trkpt lat="45.26653792685084" lon="8.356067545145569"><ele>131.0</ele><time>2026-04-11T15:56:03.002Z</time></trkpt><trkpt lat="45.26648506653555" lon="8.35618801798577"><ele>131.0</ele><time>2026-04-11T15:56:04.002Z</time></trkpt><trkpt lat="45.266432708658066" lon="8.356319785282519"><ele>130.6</ele><time>2026-04-11T15:56:05.002Z</time></trkpt><trkpt lat="45.266371576228494" lon="8.356448291473974"><ele>130.2</ele><time>2026-04-11T15:56:06.002Z</time></trkpt><trkpt lat="45.2663139732551" lon="8.356582462882251"><ele>129.8</ele><time>2026-04-11T15:56:07.002Z</time></trkpt><trkpt lat="45.26625160414087" lon="8.356717925619987"><ele>129.4</ele><time>2026-04-11T15:56:08.002Z</time></trkpt><trkpt lat="45.26618937494658" lon="8.356854943722547"><ele>129.0</ele><time>2026-04-11T15:56:09.002Z</time></trkpt><trkpt lat="45.26612134836944" lon="8.356997462751004"><ele>129.0</ele><time>2026-04-11T15:56:10.002Z</time></trkpt><trkpt lat="45.266049721209285" lon="8.357142266340741"><ele>129.0</ele><time>2026-04-11T15:56:11.002Z</time></trkpt><trkpt lat="45.26598048232429" lon="8.357279044004214"><ele>129.0</ele><time>2026-04-11T15:56:12.002Z</time></trkpt><trkpt lat="45.26590748973016" lon="8.357424419391913"><ele>129.0</ele><time>2026-04-11T15:56:13.002Z</time></trkpt><trkpt lat="45.26582987543447" lon="8.357581467888433"><ele>129.5</ele><time>2026-04-11T15:56:14.002Z</time></trkpt><trkpt lat="45.26575479850126" lon="8.357731870860567"><ele>130.0</ele><time>2026-04-11T15:56:15.002Z</time></trkpt><trkpt lat="45.26569293372709" lon="8.357868564712822"><ele>130.5</ele><time>2026-04-11T15:56:16.002Z</time></trkpt><trkpt lat="45.26563165470334" lon="8.357993597189486"><ele>131.0</ele><time>2026-04-11T15:56:17.002Z</time></trkpt><trkpt lat="45.26557057041927" lon="8.358106465396178"><ele>131.0</ele><time>2026-04-11T15:56:18.002Z</time></trkpt><trkpt lat="45.26552107537952" lon="8.358237148356432"><ele>131.0</ele><time>2026-04-11T15:56:19.002Z</time></trkpt><trkpt lat="45.26547095481735" lon="8.358386447101418"><ele>131.0</ele><time>2026-04-11T15:56:20.002Z</time></trkpt><trkpt lat="45.26543294814012" lon="8.358551838433426"><ele>131.0</ele><time>2026-04-11T15:56:21.002Z</time></trkpt><trkpt lat="45.265415444695044" lon="8.358724091858136"><ele>131.25</ele><time>2026-04-11T15:56:22.002Z</time></trkpt><trkpt lat="45.26541374230367" lon="8.358885682912161"><ele>131.5</ele><time>2026-04-11T15:56:23.002Z</time></trkpt><trkpt lat="45.26541127878216" lon="8.359040515592877"><ele>131.75</ele><time>2026-04-11T15:56:24.002Z</time></trkpt><trkpt lat="45.26540938048312" lon="8.359201720155351"><ele>132.0</ele><time>2026-04-11T15:56:25.002Z</time></trkpt><trkpt lat="45.26540611458519" lon="8.359364100271899"><ele>132.0</ele><time>2026-04-11T15:56:26.002Z</time></trkpt><trkpt lat="45.265401570971555" lon="8.35955161869008"><ele>132.0</ele><time>2026-04-11T15:56:27.002Z</time></trkpt><trkpt lat="45.26539513710054" lon="8.359755027582105"><ele>132.0</ele><time>2026-04-11T15:56:28.002Z</time></trkpt><trkpt lat="45.26536713446756" lon="8.359952886883407"><ele>132.0</ele><time>2026-04-11T15:56:29.002Z</time></trkpt><trkpt lat="45.2653588333255" lon="8.360128415414213"><ele>131.79999999999998</ele><time>2026-04-11T15:56:30.002Z</time></trkpt><trkpt lat="45.26535121119662" lon="8.360289585919483"><ele>131.6</ele><time>2026-04-11T15:56:31.002Z</time></trkpt><trkpt lat="45.26534257034139" lon="8.360449808149836"><ele>131.39999999999998</ele><time>2026-04-11T15:56:32.002Z</time></trkpt><trkpt lat="45.265344287952495" lon="8.360612473876374"><ele>131.2</ele><time>2026-04-11T15:56:33.002Z</time></trkpt><trkpt lat="45.265335069350925" lon="8.360761323445026"><ele>131.0</ele><time>2026-04-11T15:56:34.002Z</time></trkpt><trkpt lat="45.26533001733331" lon="8.36089480686899"><ele>130.83333333333331</ele><time>2026-04-11T15:56:35.002Z</time></trkpt><trkpt lat="45.26531158906325" lon="8.36102035424526"><ele>130.66666666666666</ele><time>2026-04-11T15:56:36.002Z</time></trkpt><trkpt lat="45.26530242437396" lon="8.361128535631265"><ele>130.5</ele><time>2026-04-11T15:56:37.002Z</time></trkpt><trkpt lat="45.26527941413674" lon="8.361234230697004"><ele>130.33333333333334</ele><time>2026-04-11T15:56:38.002Z</time></trkpt><trkpt lat="45.26525022617202" lon="8.361327536434418"><ele>130.16666666666669</ele><time>2026-04-11T15:56:39.002Z</time></trkpt><trkpt lat="45.265211691558065" lon="8.361412014453991"><ele>130.0</ele><time>2026-04-11T15:56:40.002Z</time></trkpt><trkpt lat="45.2651625240511" lon="8.361478542635707"><ele>130.0</ele><time>2026-04-11T15:56:41.002Z</time></trkpt><trkpt lat="45.265082413558105" lon="8.361538722119086"><ele>130.0</ele><time>2026-04-11T15:56:43.002Z</time></trkpt><trkpt lat="45.26502473653158" lon="8.36161555633079"><ele>130.0</ele><time>2026-04-11T15:56:46.003Z</time></trkpt><trkpt lat="45.26508976882568" lon="8.36186958915705"><ele>130.0</ele><time>2026-04-11T15:56:47.003Z</time></trkpt><trkpt lat="45.26514410210016" lon="8.361968500236985"><ele>130.0</ele><time>2026-04-11T15:56:48.003Z</time></trkpt><trkpt lat="45.26518453138768" lon="8.36207655395331"><ele>130.0</ele><time>2026-04-11T15:56:49.003Z</time></trkpt><trkpt lat="45.26523093314423" lon="8.362193624410997"><ele>130.0</ele><time>2026-04-11T15:56:50.003Z</time></trkpt><trkpt lat="45.26528025227246" lon="8.362309569740713"><ele>130.0</ele><time>2026-04-11T15:56:51.003Z</time></trkpt><trkpt lat="45.26532076576119" lon="8.362400075876012"><ele>130.0</ele><time>2026-04-11T15:56:52.001Z</time></trkpt><trkpt lat="45.26535708530759" lon="8.362516440766088"><ele>130.0</ele><time>2026-04-11T15:56:54.001Z</time></trkpt><trkpt lat="45.265402781040905" lon="8.362626180041847"><ele>130.0</ele><time>2026-04-11T15:56:56.001Z</time></trkpt><trkpt lat="45.26544435630139" lon="8.362715835136813"><ele>129.8</ele><time>2026-04-11T15:56:57.001Z</time></trkpt><trkpt lat="45.265488300877074" lon="8.362811008576195"><ele>129.6</ele><time>2026-04-11T15:56:58.001Z</time></trkpt><trkpt lat="45.265538032498" lon="8.362919944238307"><ele>129.4</ele><time>2026-04-11T15:56:59.001Z</time></trkpt><trkpt lat="45.26559417079508" lon="8.363042386596607"><ele>129.2</ele><time>2026-04-11T15:57:00.001Z</time></trkpt><trkpt lat="45.265655855704466" lon="8.363177492350383"><ele>129.0</ele><time>2026-04-11T15:57:01.001Z</time></trkpt><trkpt lat="45.265718794534145" lon="8.363317650770664"><ele>128.75</ele><time>2026-04-11T15:57:02.001Z</time></trkpt><trkpt lat="45.265780168800404" lon="8.363460025549859"><ele>128.5</ele><time>2026-04-11T15:57:03.001Z</time></trkpt><trkpt lat="45.26585202181805" lon="8.36362018286118"><ele>128.25</ele><time>2026-04-11T15:57:04.001Z</time></trkpt><trkpt lat="45.265926440141705" lon="8.36379224855886"><ele>128.0</ele><time>2026-04-11T15:57:05.001Z</time></trkpt><trkpt lat="45.266010618670215" lon="8.363983905335155"><ele>128.0</ele><time>2026-04-11T15:57:06.001Z</time></trkpt><trkpt lat="45.26610037840956" lon="8.364182730342273"><ele>128.0</ele><time>2026-04-11T15:57:07.001Z</time></trkpt><trkpt lat="45.26619413851425" lon="8.364376181437331"><ele>128.0</ele><time>2026-04-11T15:57:08.001Z</time></trkpt><trkpt lat="45.26629179774409" lon="8.364576727201865"><ele>128.0</ele><time>2026-04-11T15:57:09.001Z</time></trkpt><trkpt lat="45.26639641238173" lon="8.364779044603074"><ele>128.0</ele><time>2026-04-11T15:57:10.001Z</time></trkpt><trkpt lat="45.26650373062117" lon="8.364981265845723"><ele>128.0</ele><time>2026-04-11T15:57:11.001Z</time></trkpt><trkpt lat="45.26661998189927" lon="8.365187648892354"><ele>128.0</ele><time>2026-04-11T15:57:12.001Z</time></trkpt><trkpt lat="45.26674203340578" lon="8.365392346692568"><ele>128.0</ele><time>2026-04-11T15:57:13.001Z</time></trkpt><trkpt lat="45.266868489857536" lon="8.365593988582868"><ele>128.0</ele><time>2026-04-11T15:57:14.001Z</time></trkpt><trkpt lat="45.266999555800034" lon="8.365790439443174"><ele>128.33333333333331</ele><time>2026-04-11T15:57:15.001Z</time></trkpt><trkpt lat="45.26713698482947" lon="8.365987174196526"><ele>128.66666666666666</ele><time>2026-04-11T15:57:16.001Z</time></trkpt><trkpt lat="45.26728636802947" lon="8.366183644999541"><ele>129.0</ele><time>2026-04-11T15:57:17.001Z</time></trkpt><trkpt lat="45.26743067906527" lon="8.366367902996233"><ele>129.33333333333334</ele><time>2026-04-11T15:57:18.001Z</time></trkpt><trkpt lat="45.26758293639686" lon="8.366550858697506"><ele>129.66666666666669</ele><time>2026-04-11T15:57:19.001Z</time></trkpt><trkpt lat="45.26773455631306" lon="8.36672890600863"><ele>130.0</ele><time>2026-04-11T15:57:20.001Z</time></trkpt><trkpt lat="45.267888833812925" lon="8.366896373764126"><ele>130.0</ele><time>2026-04-11T15:57:21.001Z</time></trkpt><trkpt lat="45.26804135684222" lon="8.367055631600469"><ele>130.0</ele><time>2026-04-11T15:57:22.001Z</time></trkpt><trkpt lat="45.268200560327905" lon="8.367207403413953"><ele>130.0</ele><time>2026-04-11T15:57:23.001Z</time></trkpt><trkpt lat="45.26836081602425" lon="8.367354297595964"><ele>130.0</ele><time>2026-04-11T15:57:24.001Z</time></trkpt><trkpt lat="45.26852260199108" lon="8.367493720455332"><ele>130.0</ele><time>2026-04-11T15:57:25.001Z</time></trkpt><trkpt lat="45.26868893555646" lon="8.367629589875225"><ele>130.0</ele><time>2026-04-11T15:57:26.001Z</time></trkpt><trkpt lat="45.26885856811796" lon="8.36775957486027"><ele>129.66666666666669</ele><time>2026-04-11T15:57:27.001Z</time></trkpt><trkpt lat="45.26902881010633" lon="8.367885236704115"><ele>129.33333333333334</ele><time>2026-04-11T15:57:28.001Z</time></trkpt><trkpt lat="45.269204808457225" lon="8.36799670367853"><ele>129.0</ele><time>2026-04-11T15:57:29.001Z</time></trkpt><trkpt lat="45.26937813463519" lon="8.368106365690211"><ele>129.0</ele><time>2026-04-11T15:57:30.001Z</time></trkpt><trkpt lat="45.26954551237172" lon="8.368209602653197"><ele>129.0</ele><time>2026-04-11T15:57:31.001Z</time></trkpt><trkpt lat="45.26970232980841" lon="8.368296947505678"><ele>129.0</ele><time>2026-04-11T15:57:32.001Z</time></trkpt><trkpt lat="45.26984608364083" lon="8.368367720762805"><ele>129.0</ele><time>2026-04-11T15:57:33.001Z</time></trkpt><trkpt lat="45.269980737611434" lon="8.368430689444182"><ele>129.0</ele><time>2026-04-11T15:57:34.001Z</time></trkpt><trkpt lat="45.27011298796184" lon="8.368490230098494"><ele>129.0</ele><time>2026-04-11T15:57:35.001Z</time></trkpt><trkpt lat="45.27025505158407" lon="8.368547718596282"><ele>129.0</ele><time>2026-04-11T15:57:36.001Z</time></trkpt><trkpt lat="45.27040568859599" lon="8.368603992666788"><ele>129.0</ele><time>2026-04-11T15:57:37.001Z</time></trkpt><trkpt lat="45.270561740504604" lon="8.368655307851537"><ele>129.0</ele><time>2026-04-11T15:57:38.001Z</time></trkpt><trkpt lat="45.27072288402141" lon="8.368705421841195"><ele>129.0</ele><time>2026-04-11T15:57:39.001Z</time></trkpt><trkpt lat="45.270886398703034" lon="8.36874903716158"><ele>129.33333333333334</ele><time>2026-04-11T15:57:40.001Z</time></trkpt><trkpt lat="45.271054360698244" lon="8.368785884525742"><ele>129.66666666666669</ele><time>2026-04-11T15:57:41.001Z</time></trkpt><trkpt lat="45.2712287763998" lon="8.368817487453244"><ele>130.0</ele><time>2026-04-11T15:57:42.001Z</time></trkpt><trkpt lat="45.27140806965694" lon="8.368844329441812"><ele>129.66666666666669</ele><time>2026-04-11T15:57:43.001Z</time></trkpt><trkpt lat="45.27159527329555" lon="8.36886721860128"><ele>129.33333333333334</ele><time>2026-04-11T15:57:44.001Z</time></trkpt><trkpt lat="45.27178129788322" lon="8.368885426026972"><ele>129.0</ele><time>2026-04-11T15:57:45.001Z</time></trkpt><trkpt lat="45.27198197594456" lon="8.368897507111912"><ele>129.0</ele><time>2026-04-11T15:57:46.001Z</time></trkpt><trkpt lat="45.27218461562245" lon="8.368902645667376"><ele>129.0</ele><time>2026-04-11T15:57:47.001Z</time></trkpt><trkpt lat="45.272379016026484" lon="8.368897309145236"><ele>129.0</ele><time>2026-04-11T15:57:48.001Z</time></trkpt><trkpt lat="45.272574418069176" lon="8.36888394251798"><ele>128.66666666666666</ele><time>2026-04-11T15:57:49.001Z</time></trkpt><trkpt lat="45.272772846838215" lon="8.368865938048662"><ele>128.33333333333331</ele><time>2026-04-11T15:57:50.001Z</time></trkpt><trkpt lat="45.272970933292" lon="8.36884318437851"><ele>128.0</ele><time>2026-04-11T15:57:51.001Z</time></trkpt><trkpt lat="45.2731684143039" lon="8.368816420536588"><ele>128.66666666666666</ele><time>2026-04-11T15:57:52.001Z</time></trkpt><trkpt lat="45.27336683429091" lon="8.368786712744539"><ele>129.33333333333334</ele><time>2026-04-11T15:57:53.001Z</time></trkpt><trkpt lat="45.27356074526454" lon="8.368759929746652"><ele>130.0</ele><time>2026-04-11T15:57:54.001Z</time></trkpt><trkpt lat="45.27375500502174" lon="8.368733782775077"><ele>130.0</ele><time>2026-04-11T15:57:55.001Z</time></trkpt><trkpt lat="45.27394877120478" lon="8.36870677326796"><ele>130.0</ele><time>2026-04-11T15:57:56.001Z</time></trkpt><trkpt lat="45.27414190373892" lon="8.368681314273532"><ele>130.0</ele><time>2026-04-11T15:57:57.001Z</time></trkpt><trkpt lat="45.2743347815799" lon="8.368656516554216"><ele>130.0</ele><time>2026-04-11T15:57:58.001Z</time></trkpt><trkpt lat="45.27452924980569" lon="8.36863127572014"><ele>130.0</ele><time>2026-04-11T15:57:59.001Z</time></trkpt><trkpt lat="45.27472459483436" lon="8.368606333938091"><ele>130.0</ele><time>2026-04-11T15:58:00.001Z</time></trkpt><trkpt lat="45.27491724685745" lon="8.368581578970234"><ele>129.66666666666669</ele><time>2026-04-11T15:58:01.001Z</time></trkpt><trkpt lat="45.27511274837105" lon="8.368555547767883"><ele>129.33333333333334</ele><time>2026-04-11T15:58:02.001Z</time></trkpt><trkpt lat="45.27530748915733" lon="8.368529543816367"><ele>129.0</ele><time>2026-04-11T15:58:03.001Z</time></trkpt><trkpt lat="45.27550484628311" lon="8.368502849204116"><ele>128.66666666666666</ele><time>2026-04-11T15:58:04.001Z</time></trkpt><trkpt lat="45.27570466963533" lon="8.368476047802341"><ele>128.33333333333331</ele><time>2026-04-11T15:58:05.001Z</time></trkpt><trkpt lat="45.275904788015986" lon="8.368451609272151"><ele>128.0</ele><time>2026-04-11T15:58:06.002Z</time></trkpt><trkpt lat="45.27610318245996" lon="8.368431982455732"><ele>128.0</ele><time>2026-04-11T15:58:07.002Z</time></trkpt><trkpt lat="45.27630077768508" lon="8.368415917479139"><ele>128.0</ele><time>2026-04-11T15:58:08.002Z</time></trkpt><trkpt lat="45.276503055063905" lon="8.368404892267755"><ele>128.0</ele><time>2026-04-11T15:58:09.002Z</time></trkpt><trkpt lat="45.276701379716506" lon="8.368407146738797"><ele>128.66666666666666</ele><time>2026-04-11T15:58:10.002Z</time></trkpt><trkpt lat="45.27690085002589" lon="8.368414137123384"><ele>129.33333333333334</ele><time>2026-04-11T15:58:11.002Z</time></trkpt><trkpt lat="45.27709803497428" lon="8.368430507213168"><ele>130.0</ele><time>2026-04-11T15:58:12.002Z</time></trkpt><trkpt lat="45.27729422498003" lon="8.368454452982263"><ele>130.0</ele><time>2026-04-11T15:58:13.002Z</time></trkpt><trkpt lat="45.277492766477984" lon="8.368486282973924"><ele>130.0</ele><time>2026-04-11T15:58:14.002Z</time></trkpt><trkpt lat="45.27768944586746" lon="8.368523610485015"><ele>130.0</ele><time>2026-04-11T15:58:15.002Z</time></trkpt><trkpt lat="45.27788182750001" lon="8.368574566630212"><ele>130.0</ele><time>2026-04-11T15:58:16.002Z</time></trkpt><trkpt lat="45.278074334322625" lon="8.368636516313089"><ele>130.0</ele><time>2026-04-11T15:58:17.002Z</time></trkpt><trkpt lat="45.27826587962775" lon="8.368703396650968"><ele>130.0</ele><time>2026-04-11T15:58:18.002Z</time></trkpt><trkpt lat="45.27845380493675" lon="8.368774354194578"><ele>130.0</ele><time>2026-04-11T15:58:19.002Z</time></trkpt><trkpt lat="45.2786351376243" lon="8.368850523801372"><ele>130.0</ele><time>2026-04-11T15:58:20.002Z</time></trkpt><trkpt lat="45.27880630874226" lon="8.368929018378521"><ele>130.0</ele><time>2026-04-11T15:58:21.002Z</time></trkpt><trkpt lat="45.27896751111643" lon="8.369004882680036"><ele>130.2</ele><time>2026-04-11T15:58:22.002Z</time></trkpt><trkpt lat="45.279107136514824" lon="8.369079974770806"><ele>130.4</ele><time>2026-04-11T15:58:23.002Z</time></trkpt><trkpt lat="45.27920981534637" lon="8.369145844408106"><ele>130.6</ele><time>2026-04-11T15:58:24.002Z</time></trkpt><trkpt lat="45.279272540136084" lon="8.369196667975302"><ele>130.8</ele><time>2026-04-11T15:58:25.002Z</time></trkpt><trkpt lat="45.27934846669126" lon="8.369287495746159"><ele>131.0</ele><time>2026-04-11T15:58:27.002Z</time></trkpt><trkpt lat="45.27938785140279" lon="8.369358242780976"><ele>131.0</ele><time>2026-04-11T15:58:28.002Z</time></trkpt><trkpt lat="45.27943452191202" lon="8.369446723762888"><ele>131.0</ele><time>2026-04-11T15:58:29.002Z</time></trkpt><trkpt lat="45.27949157355182" lon="8.369525892653765"><ele>131.0</ele><time>2026-04-11T15:58:30.002Z</time></trkpt><trkpt lat="45.279561794652444" lon="8.369579169623055"><ele>131.0</ele><time>2026-04-11T15:58:31.002Z</time></trkpt><trkpt lat="45.27964430242464" lon="8.369601563117072"><ele>131.0</ele><time>2026-04-11T15:58:32.002Z</time></trkpt><trkpt lat="45.27972970999326" lon="8.369589812690304"><ele>131.0</ele><time>2026-04-11T15:58:33.002Z</time></trkpt><trkpt lat="45.279810674778105" lon="8.369538032022982"><ele>130.75</ele><time>2026-04-11T15:58:34.002Z</time></trkpt><trkpt lat="45.27991925656091" lon="8.369618809781775"><ele>130.5</ele><time>2026-04-11T15:58:35.002Z</time></trkpt><trkpt lat="45.28001762749804" lon="8.369683021208232"><ele>130.25</ele><time>2026-04-11T15:58:36.002Z</time></trkpt><trkpt lat="45.28012931516713" lon="8.369765304010105"><ele>130.0</ele><time>2026-04-11T15:58:37.002Z</time></trkpt><trkpt lat="45.28024331236722" lon="8.369849560077187"><ele>129.66666666666669</ele><time>2026-04-11T15:58:38.002Z</time></trkpt><trkpt lat="45.28036572247736" lon="8.369970901534964"><ele>129.33333333333334</ele><time>2026-04-11T15:58:39.002Z</time></trkpt><trkpt lat="45.28050614977422" lon="8.370088763297634"><ele>129.0</ele><time>2026-04-11T15:58:40.002Z</time></trkpt><trkpt lat="45.28066248347105" lon="8.37019932915051"><ele>128.66666666666666</ele><time>2026-04-11T15:58:41.002Z</time></trkpt><trkpt lat="45.280819650135534" lon="8.370359197093334"><ele>128.33333333333331</ele><time>2026-04-11T15:58:42.002Z</time></trkpt><trkpt lat="45.28097558592631" lon="8.370536137726994"><ele>128.0</ele><time>2026-04-11T15:58:43.002Z</time></trkpt><trkpt lat="45.28111905014614" lon="8.37070302287869"><ele>128.0</ele><time>2026-04-11T15:58:44.002Z</time></trkpt><trkpt lat="45.28126765001782" lon="8.370884516602983"><ele>128.0</ele><time>2026-04-11T15:58:45.002Z</time></trkpt><trkpt lat="45.2814260220836" lon="8.371068755526283"><ele>128.0</ele><time>2026-04-11T15:58:46.002Z</time></trkpt><trkpt lat="45.28158571929314" lon="8.371252734693472"><ele>128.66666666666666</ele><time>2026-04-11T15:58:47.002Z</time></trkpt><trkpt lat="45.28174926551885" lon="8.371441709497955"><ele>129.33333333333334</ele><time>2026-04-11T15:58:48.002Z</time></trkpt><trkpt lat="45.28192157362192" lon="8.371635770394544"><ele>130.0</ele><time>2026-04-11T15:58:49.002Z</time></trkpt><trkpt lat="45.28211000087735" lon="8.371846632553718"><ele>130.0</ele><time>2026-04-11T15:58:50.002Z</time></trkpt><trkpt lat="45.28230685994471" lon="8.37206425970022"><ele>130.0</ele><time>2026-04-11T15:58:51.002Z</time></trkpt><trkpt lat="45.28251797493792" lon="8.372301174560452"><ele>130.0</ele><time>2026-04-11T15:58:52.002Z</time></trkpt><trkpt lat="45.282723575404354" lon="8.372532242223983"><ele>130.0</ele><time>2026-04-11T15:58:53.002Z</time></trkpt><trkpt lat="45.28292636077923" lon="8.372762225126715"><ele>130.0</ele><time>2026-04-11T15:58:54.002Z</time></trkpt><trkpt lat="45.283131245881854" lon="8.372995768579928"><ele>130.0</ele><time>2026-04-11T15:58:55.002Z</time></trkpt><trkpt lat="45.2833325353082" lon="8.373223696451412"><ele>130.0</ele><time>2026-04-11T15:58:56.003Z</time></trkpt><trkpt lat="45.28352366631202" lon="8.373439243569674"><ele>130.0</ele><time>2026-04-11T15:58:57.003Z</time></trkpt><trkpt lat="45.2837087831693" lon="8.37365033858391"><ele>130.0</ele><time>2026-04-11T15:58:58.001Z</time></trkpt><trkpt lat="45.28388935811765" lon="8.373858058829349"><ele>130.0</ele><time>2026-04-11T15:58:59.001Z</time></trkpt><trkpt lat="45.284074178382895" lon="8.374068017144007"><ele>130.0</ele><time>2026-04-11T15:59:00.001Z</time></trkpt><trkpt lat="45.284264527683646" lon="8.374281693350778"><ele>130.0</ele><time>2026-04-11T15:59:01.001Z</time></trkpt><trkpt lat="45.284458759767055" lon="8.374504863137052"><ele>129.5</ele><time>2026-04-11T15:59:02.001Z</time></trkpt><trkpt lat="45.284652794578605" lon="8.374726743081716"><ele>129.0</ele><time>2026-04-11T15:59:03.001Z</time></trkpt><trkpt lat="45.284843257585365" lon="8.374940258961438"><ele>129.0</ele><time>2026-04-11T15:59:04.001Z</time></trkpt><trkpt lat="45.28502300714069" lon="8.3751456443806"><ele>129.0</ele><time>2026-04-11T15:59:05.001Z</time></trkpt><trkpt lat="45.28518797071317" lon="8.375332661737495"><ele>129.0</ele><time>2026-04-11T15:59:06.001Z</time></trkpt><trkpt lat="45.285355230469996" lon="8.375519888883138"><ele>129.0</ele><time>2026-04-11T15:59:07.001Z</time></trkpt><trkpt lat="45.28551576689198" lon="8.375704217817326"><ele>129.0</ele><time>2026-04-11T15:59:08.001Z</time></trkpt><trkpt lat="45.28566867038409" lon="8.375879991337317"><ele>129.0</ele><time>2026-04-11T15:59:09.001Z</time></trkpt><trkpt lat="45.28581510804991" lon="8.376046842722586"><ele>128.66666666666666</ele><time>2026-04-11T15:59:10.001Z</time></trkpt><trkpt lat="45.285966594225904" lon="8.376218040028169"><ele>128.33333333333331</ele><time>2026-04-11T15:59:11.001Z</time></trkpt><trkpt lat="45.28611796118003" lon="8.376392712630798"><ele>128.0</ele><time>2026-04-11T15:59:12.001Z</time></trkpt><trkpt lat="45.28626446000427" lon="8.376571387761707"><ele>128.0</ele><time>2026-04-11T15:59:13.001Z</time></trkpt><trkpt lat="45.286410513227956" lon="8.376755167588678"><ele>128.0</ele><time>2026-04-11T15:59:14.001Z</time></trkpt><trkpt lat="45.28656177987461" lon="8.376944281781002"><ele>128.0</ele><time>2026-04-11T15:59:15.001Z</time></trkpt><trkpt lat="45.28671781301094" lon="8.377130867467997"><ele>128.33333333333331</ele><time>2026-04-11T15:59:16.001Z</time></trkpt><trkpt lat="45.2868846435055" lon="8.377330272413305"><ele>128.66666666666666</ele><time>2026-04-11T15:59:17.001Z</time></trkpt><trkpt lat="45.287051634145335" lon="8.377529538257086"><ele>129.0</ele><time>2026-04-11T15:59:18.001Z</time></trkpt><trkpt lat="45.287218668309805" lon="8.37773211683315"><ele>129.0</ele><time>2026-04-11T15:59:19.001Z</time></trkpt><trkpt lat="45.287389849097856" lon="8.37793401857956"><ele>129.0</ele><time>2026-04-11T15:59:20.001Z</time></trkpt><trkpt lat="45.287558797515764" lon="8.37813725917614"><ele>129.0</ele><time>2026-04-11T15:59:21.001Z</time></trkpt><trkpt lat="45.28771982230231" lon="8.378330737567941"><ele>129.0</ele><time>2026-04-11T15:59:22.001Z</time></trkpt><trkpt lat="45.28787254017391" lon="8.37851603842149"><ele>129.0</ele><time>2026-04-11T15:59:23.001Z</time></trkpt><trkpt lat="45.28803647546278" lon="8.378712361880368"><ele>129.0</ele><time>2026-04-11T15:59:24.001Z</time></trkpt><trkpt lat="45.28820901847459" lon="8.3789148554037"><ele>129.5</ele><time>2026-04-11T15:59:25.001Z</time></trkpt><trkpt lat="45.28839147147027" lon="8.3791249594298"><ele>130.0</ele><time>2026-04-11T15:59:26.001Z</time></trkpt><trkpt lat="45.28858322504198" lon="8.37934443172691"><ele>130.0</ele><time>2026-04-11T15:59:27.001Z</time></trkpt><trkpt lat="45.28878188501019" lon="8.379560561970566"><ele>130.0</ele><time>2026-04-11T15:59:28.001Z</time></trkpt><trkpt lat="45.28898633268456" lon="8.37978053061373"><ele>130.0</ele><time>2026-04-11T15:59:29.001Z</time></trkpt><trkpt lat="45.28919441173105" lon="8.380010132972911"><ele>130.0</ele><time>2026-04-11T15:59:30.001Z</time></trkpt><trkpt lat="45.28940915687636" lon="8.380250832421103"><ele>130.0</ele><time>2026-04-11T15:59:31.001Z</time></trkpt><trkpt lat="45.28962541863252" lon="8.380492385339291"><ele>130.0</ele><time>2026-04-11T15:59:32.001Z</time></trkpt><trkpt lat="45.289844570429395" lon="8.380735831378354"><ele>129.0</ele><time>2026-04-11T15:59:33.001Z</time></trkpt><trkpt lat="45.29006709509373" lon="8.380979586653957"><ele>128.0</ele><time>2026-04-11T15:59:34.001Z</time></trkpt><trkpt lat="45.29029161167203" lon="8.381225220963367"><ele>128.0</ele><time>2026-04-11T15:59:35.001Z</time></trkpt><trkpt lat="45.29051618131567" lon="8.381472813156423"><ele>128.0</ele><time>2026-04-11T15:59:36.001Z</time></trkpt><trkpt lat="45.29073606009681" lon="8.381719747304398"><ele>128.5</ele><time>2026-04-11T15:59:37.001Z</time></trkpt><trkpt lat="45.2909584416948" lon="8.381965355768665"><ele>129.0</ele><time>2026-04-11T15:59:38.001Z</time></trkpt><trkpt lat="45.29118218509079" lon="8.382213235265892"><ele>129.5</ele><time>2026-04-11T15:59:39.001Z</time></trkpt><trkpt lat="45.29140392530356" lon="8.38246024033124"><ele>130.0</ele><time>2026-04-11T15:59:40.001Z</time></trkpt><trkpt lat="45.29162743992415" lon="8.382708527304038"><ele>130.5</ele><time>2026-04-11T15:59:41.001Z</time></trkpt><trkpt lat="45.291849923008826" lon="8.382955227882007"><ele>131.0</ele><time>2026-04-11T15:59:42.001Z</time></trkpt><trkpt lat="45.292064538719195" lon="8.38318428875642"><ele>131.0</ele><time>2026-04-11T15:59:43.001Z</time></trkpt><trkpt lat="45.29225678339326" lon="8.38340127223735"><ele>131.0</ele><time>2026-04-11T15:59:44.001Z</time></trkpt><trkpt lat="45.292444574210066" lon="8.383606026512515"><ele>131.0</ele><time>2026-04-11T15:59:45.001Z</time></trkpt><trkpt lat="45.29263408396684" lon="8.38381297351399"><ele>131.0</ele><time>2026-04-11T15:59:46.001Z</time></trkpt><trkpt lat="45.29281370260583" lon="8.384004609802549"><ele>131.33333333333331</ele><time>2026-04-11T15:59:47.001Z</time></trkpt><trkpt lat="45.292984620838745" lon="8.384195323939757"><ele>131.66666666666666</ele><time>2026-04-11T15:59:48.001Z</time></trkpt><trkpt lat="45.29316147677348" lon="8.384394786004318"><ele>132.0</ele><time>2026-04-11T15:59:49.001Z</time></trkpt><trkpt lat="45.293346106488755" lon="8.384603788182899"><ele>130.5</ele><time>2026-04-11T15:59:50.001Z</time></trkpt><trkpt lat="45.29353054663499" lon="8.384811041142905"><ele>129.0</ele><time>2026-04-11T15:59:51.001Z</time></trkpt><trkpt lat="45.2937103513966" lon="8.385011370583635"><ele>129.0</ele><time>2026-04-11T15:59:52.001Z</time></trkpt><trkpt lat="45.29387876984437" lon="8.385193576716537"><ele>129.0</ele><time>2026-04-11T15:59:53.001Z</time></trkpt><trkpt lat="45.29404844950099" lon="8.385383623472432"><ele>129.0</ele><time>2026-04-11T15:59:54.001Z</time></trkpt><trkpt lat="45.294220253527335" lon="8.385575644087638"><ele>129.33333333333334</ele><time>2026-04-11T15:59:55.001Z</time></trkpt><trkpt lat="45.29438707171745" lon="8.38576689747794"><ele>129.66666666666669</ele><time>2026-04-11T15:59:56.001Z</time></trkpt><trkpt lat="45.29454661434194" lon="8.385940853131183"><ele>130.0</ele><time>2026-04-11T15:59:57.001Z</time></trkpt><trkpt lat="45.29469889016341" lon="8.386110004225293"><ele>129.33333333333334</ele><time>2026-04-11T15:59:58.001Z</time></trkpt><trkpt lat="45.29483170970089" lon="8.386264733696825"><ele>128.66666666666666</ele><time>2026-04-11T15:59:59.001Z</time></trkpt><trkpt lat="45.29494580150937" lon="8.386399929748304"><ele>128.0</ele><time>2026-04-11T16:00:00.001Z</time></trkpt><trkpt lat="45.295045683339524" lon="8.386516719998886"><ele>128.0</ele><time>2026-04-11T16:00:01.001Z</time></trkpt><trkpt lat="45.29513027769694" lon="8.386614039126812"><ele>128.0</ele><time>2026-04-11T16:00:02.001Z</time></trkpt><trkpt lat="45.295208159795905" lon="8.386705544857525"><ele>128.0</ele><time>2026-04-11T16:00:03.001Z</time></trkpt><trkpt lat="45.29528973011799" lon="8.386800764306685"><ele>128.0</ele><time>2026-04-11T16:00:04.001Z</time></trkpt><trkpt lat="45.29537466723741" lon="8.386897063829105"><ele>128.0</ele><time>2026-04-11T16:00:05.001Z</time></trkpt><trkpt lat="45.29544483056576" lon="8.386981280823475"><ele>127.99999999999999</ele><time>2026-04-11T16:00:06.001Z</time></trkpt><trkpt lat="45.29550748006211" lon="8.387054261159927"><ele>128.0</ele><time>2026-04-11T16:00:07.001Z</time></trkpt><trkpt lat="45.29556211027005" lon="8.387122528705556"><ele>128.0</ele><time>2026-04-11T16:00:08.001Z</time></trkpt><trkpt lat="45.29565046655424" lon="8.387236844722144"><ele>128.0</ele><time>2026-04-11T16:00:10.002Z</time></trkpt><trkpt lat="45.29570571631619" lon="8.387298779059163"><ele>127.99999999999999</ele><time>2026-04-11T16:00:11.002Z</time></trkpt><trkpt lat="45.29577296103333" lon="8.387369125152375"><ele>128.0</ele><time>2026-04-11T16:00:12.002Z</time></trkpt><trkpt lat="45.295845622450706" lon="8.38744755673998"><ele>128.0</ele><time>2026-04-11T16:00:13.002Z</time></trkpt><trkpt lat="45.295915291685645" lon="8.387526522998765"><ele>128.0</ele><time>2026-04-11T16:00:14.002Z</time></trkpt><trkpt lat="45.29598296213467" lon="8.387608457018027"><ele>128.0</ele><time>2026-04-11T16:00:15.002Z</time></trkpt><trkpt lat="45.296048176523335" lon="8.387710110918391"><ele>128.0</ele><time>2026-04-11T16:00:16.002Z</time></trkpt><trkpt lat="45.296107508340164" lon="8.387828449961523"><ele>128.0</ele><time>2026-04-11T16:00:17.002Z</time></trkpt><trkpt lat="45.296151117537754" lon="8.387959546263964"><ele>128.0</ele><time>2026-04-11T16:00:18.002Z</time></trkpt><trkpt lat="45.29616996479349" lon="8.388090186153853"><ele>128.0</ele><time>2026-04-11T16:00:19.002Z</time></trkpt><trkpt lat="45.29617786912385" lon="8.388226400323594"><ele>128.0</ele><time>2026-04-11T16:00:20.002Z</time></trkpt><trkpt lat="45.296154278699255" lon="8.388360307668698"><ele>128.0</ele><time>2026-04-11T16:00:21.002Z</time></trkpt><trkpt lat="45.29609966213632" lon="8.388482697339096"><ele>128.0</ele><time>2026-04-11T16:00:22.002Z</time></trkpt><trkpt lat="45.29602048570774" lon="8.388582618651204"><ele>128.0</ele><time>2026-04-11T16:00:23.002Z</time></trkpt><trkpt lat="45.29592881180112" lon="8.388654467953767"><ele>128.0</ele><time>2026-04-11T16:00:24.002Z</time></trkpt><trkpt lat="45.29583336719021" lon="8.388696672677662"><ele>128.0</ele><time>2026-04-11T16:00:25.002Z</time></trkpt><trkpt lat="45.295731983261994" lon="8.38872362918774"><ele>128.0</ele><time>2026-04-11T16:00:26.002Z</time></trkpt><trkpt lat="45.29562893193891" lon="8.388736109883652"><ele>128.0</ele><time>2026-04-11T16:00:27.002Z</time></trkpt><trkpt lat="45.29553410075595" lon="8.388741940037079"><ele>128.16666666666666</ele><time>2026-04-11T16:00:28.002Z</time></trkpt><trkpt lat="45.29544442492927" lon="8.388753326117657"><ele>128.33333333333331</ele><time>2026-04-11T16:00:29.002Z</time></trkpt><trkpt lat="45.295365372810735" lon="8.388762627727429"><ele>128.5</ele><time>2026-04-11T16:00:30.002Z</time></trkpt><trkpt lat="45.295299705220565" lon="8.388769255858074"><ele>128.66666666666666</ele><time>2026-04-11T16:00:31.002Z</time></trkpt><trkpt lat="45.29520229316697" lon="8.38877606320336"><ele>128.83333333333334</ele><time>2026-04-11T16:00:33.002Z</time></trkpt><trkpt lat="45.295125721297104" lon="8.388772251731066"><ele>129.0</ele><time>2026-04-11T16:00:36.002Z</time></trkpt><trkpt lat="45.29506223144753" lon="8.388786817922977"><ele>129.0</ele><time>2026-04-11T16:00:45.002Z</time></trkpt><trkpt lat="45.294972722373615" lon="8.388832672744982"><ele>129.0</ele><time>2026-04-11T16:00:48.002Z</time></trkpt><trkpt lat="45.294907207266164" lon="8.38882636618947"><ele>129.0</ele><time>2026-04-11T16:00:49.002Z</time></trkpt><trkpt lat="45.29484282933059" lon="8.38881977332369"><ele>129.0</ele><time>2026-04-11T16:00:50.002Z</time></trkpt><trkpt lat="45.29472949681214" lon="8.388824998196508"><ele>129.0</ele><time>2026-04-11T16:00:52.002Z</time></trkpt><trkpt lat="45.29462511650603" lon="8.38884028402263"><ele>129.0</ele><time>2026-04-11T16:00:54.002Z</time></trkpt><trkpt lat="45.294511292372725" lon="8.388854427774257"><ele>129.16666666666666</ele><time>2026-04-11T16:00:56.002Z</time></trkpt><trkpt lat="45.294382395875324" lon="8.388862836767156"><ele>129.33333333333334</ele><time>2026-04-11T16:00:58.002Z</time></trkpt><trkpt lat="45.294306807448194" lon="8.388874428967549"><ele>129.5</ele><time>2026-04-11T16:00:59.002Z</time></trkpt><trkpt lat="45.29422797958193" lon="8.388897696180704"><ele>129.66666666666669</ele><time>2026-04-11T16:01:00.002Z</time></trkpt><trkpt lat="45.29415126369296" lon="8.38891648536149"><ele>129.83333333333334</ele><time>2026-04-11T16:01:01.002Z</time></trkpt><trkpt lat="45.294070533366195" lon="8.388934593879352"><ele>130.0</ele><time>2026-04-11T16:01:02.002Z</time></trkpt><trkpt lat="45.29398948926864" lon="8.388952534965956"><ele>129.83333333333334</ele><time>2026-04-11T16:01:03.002Z</time></trkpt><trkpt lat="45.29390706999563" lon="8.38896647670177"><ele>129.66666666666669</ele><time>2026-04-11T16:01:04.002Z</time></trkpt><trkpt lat="45.293828034486474" lon="8.388978682915598"><ele>129.5</ele><time>2026-04-11T16:01:05.002Z</time></trkpt><trkpt lat="45.293735971854105" lon="8.388991879197565"><ele>129.33333333333334</ele><time>2026-04-11T16:01:06.002Z</time></trkpt><trkpt lat="45.29364416263896" lon="8.389006001241533"><ele>129.16666666666666</ele><time>2026-04-11T16:01:07.002Z</time></trkpt><trkpt lat="45.29354986783447" lon="8.389021484483592"><ele>129.0</ele><time>2026-04-11T16:01:08.001Z</time></trkpt><trkpt lat="45.2934547517516" lon="8.389035681555425"><ele>129.0</ele><time>2026-04-11T16:01:09.001Z</time></trkpt><trkpt lat="45.29336055695515" lon="8.389053848088565"><ele>129.0</ele><time>2026-04-11T16:01:10.001Z</time></trkpt><trkpt lat="45.293259070096326" lon="8.38907567712013"><ele>129.0</ele><time>2026-04-11T16:01:11.001Z</time></trkpt><trkpt lat="45.293156532748974" lon="8.389098642870598"><ele>129.0</ele><time>2026-04-11T16:01:12.001Z</time></trkpt><trkpt lat="45.29305091632394" lon="8.389120746442478"><ele>129.0</ele><time>2026-04-11T16:01:13.001Z</time></trkpt><trkpt lat="45.29294389395521" lon="8.389140170631505"><ele>129.0</ele><time>2026-04-11T16:01:14.001Z</time></trkpt><trkpt lat="45.292831824308514" lon="8.3891618053019"><ele>129.0</ele><time>2026-04-11T16:01:15.001Z</time></trkpt><trkpt lat="45.292715262408926" lon="8.389181547911733"><ele>129.0</ele><time>2026-04-11T16:01:16.001Z</time></trkpt><trkpt lat="45.29260299085879" lon="8.389194823475616"><ele>129.0</ele><time>2026-04-11T16:01:17.001Z</time></trkpt><trkpt lat="45.2924770790981" lon="8.389202056523265"><ele>129.0</ele><time>2026-04-11T16:01:18.001Z</time></trkpt><trkpt lat="45.2923420375095" lon="8.389201111979624"><ele>129.0</ele><time>2026-04-11T16:01:19.001Z</time></trkpt><trkpt lat="45.292202221683866" lon="8.389194042217653"><ele>129.0</ele><time>2026-04-11T16:01:20.001Z</time></trkpt><trkpt lat="45.29206706232936" lon="8.389176269378702"><ele>129.0</ele><time>2026-04-11T16:01:21.001Z</time></trkpt><trkpt lat="45.29193875755669" lon="8.389143228272669"><ele>129.5</ele><time>2026-04-11T16:01:22.001Z</time></trkpt><trkpt lat="45.29181023078464" lon="8.389099397875485"><ele>130.0</ele><time>2026-04-11T16:01:23.001Z</time></trkpt><trkpt lat="45.2916830650374" lon="8.389052031307608"><ele>130.5</ele><time>2026-04-11T16:01:24.001Z</time></trkpt><trkpt lat="45.29156299586445" lon="8.388999234808871"><ele>131.0</ele><time>2026-04-11T16:01:25.001Z</time></trkpt><trkpt lat="45.29145205459511" lon="8.388916245474219"><ele>130.75</ele><time>2026-04-11T16:01:26.001Z</time></trkpt><trkpt lat="45.29134966592952" lon="8.388844534416114"><ele>130.5</ele><time>2026-04-11T16:01:27.001Z</time></trkpt><trkpt lat="45.29125799067769" lon="8.388775083700763"><ele>130.25</ele><time>2026-04-11T16:01:28.001Z</time></trkpt><trkpt lat="45.291153489322774" lon="8.388693171108535"><ele>130.0</ele><time>2026-04-11T16:01:29.001Z</time></trkpt><trkpt lat="45.29103313810783" lon="8.388593044984447"><ele>130.0</ele><time>2026-04-11T16:01:30.001Z</time></trkpt><trkpt lat="45.29090351756495" lon="8.388482935762882"><ele>130.0</ele><time>2026-04-11T16:01:31.001Z</time></trkpt><trkpt lat="45.29077404599992" lon="8.388374685394187"><ele>130.0</ele><time>2026-04-11T16:01:32.001Z</time></trkpt><trkpt lat="45.29065620982165" lon="8.388276958206164"><ele>130.0</ele><time>2026-04-11T16:01:33.001Z</time></trkpt><trkpt lat="45.29052995706298" lon="8.388174198854703"><ele>130.0</ele><time>2026-04-11T16:01:34.001Z</time></trkpt><trkpt lat="45.29040711814546" lon="8.388076953616293"><ele>130.0</ele><time>2026-04-11T16:01:35.001Z</time></trkpt><trkpt lat="45.29028174943849" lon="8.38799368668342"><ele>130.0</ele><time>2026-04-11T16:01:36.001Z</time></trkpt><trkpt lat="45.290152711453906" lon="8.387942761154104"><ele>130.0</ele><time>2026-04-11T16:01:37.001Z</time></trkpt><trkpt lat="45.290026921006124" lon="8.387892157437634"><ele>129.25</ele><time>2026-04-11T16:01:38.001Z</time></trkpt><trkpt lat="45.28989267022499" lon="8.387866651031432"><ele>128.5</ele><time>2026-04-11T16:01:39.001Z</time></trkpt><trkpt lat="45.28975554560533" lon="8.387866111611954"><ele>127.75</ele><time>2026-04-11T16:01:40.001Z</time></trkpt><trkpt lat="45.28962716093809" lon="8.387901751223351"><ele>127.0</ele><time>2026-04-11T16:01:41.001Z</time></trkpt><trkpt lat="45.28950854995557" lon="8.387971505070382"><ele>127.25</ele><time>2026-04-11T16:01:42.001Z</time></trkpt><trkpt lat="45.289395125125594" lon="8.388081908191358"><ele>127.5</ele><time>2026-04-11T16:01:43.001Z</time></trkpt><trkpt lat="45.28929857714449" lon="8.388219728098564"><ele>127.75</ele><time>2026-04-11T16:01:44.001Z</time></trkpt><trkpt lat="45.289224711147405" lon="8.38838016649029"><ele>128.0</ele><time>2026-04-11T16:01:45.001Z</time></trkpt><trkpt lat="45.28917321993568" lon="8.388557796469197"><ele>128.0</ele><time>2026-04-11T16:01:46.001Z</time></trkpt><trkpt lat="45.28915130849182" lon="8.388740195619334"><ele>128.0</ele><time>2026-04-11T16:01:47.001Z</time></trkpt><trkpt lat="45.28915037686669" lon="8.388952291639836"><ele>128.0</ele><time>2026-04-11T16:01:48.001Z</time></trkpt><trkpt lat="45.28917008708228" lon="8.389188711894434"><ele>128.0</ele><time>2026-04-11T16:01:49.001Z</time></trkpt><trkpt lat="45.289204545340596" lon="8.389436231809574"><ele>127.66666666666666</ele><time>2026-04-11T16:01:50.001Z</time></trkpt><trkpt lat="45.28925019572207" lon="8.389671748483094"><ele>127.33333333333334</ele><time>2026-04-11T16:01:51.001Z</time></trkpt><trkpt lat="45.28930491254644" lon="8.389899113293557"><ele>127.0</ele><time>2026-04-11T16:01:52.001Z</time></trkpt><trkpt lat="45.28935522339919" lon="8.390133401495824"><ele>127.0</ele><time>2026-04-11T16:01:53.001Z</time></trkpt><trkpt lat="45.289390871705244" lon="8.390376826074771"><ele>127.0</ele><time>2026-04-11T16:01:54.001Z</time></trkpt><trkpt lat="45.28940659954219" lon="8.390616359511005"><ele>127.0</ele><time>2026-04-11T16:01:55.001Z</time></trkpt><trkpt lat="45.28940763445399" lon="8.390868444659088"><ele>127.66666666666667</ele><time>2026-04-11T16:01:56.001Z</time></trkpt><trkpt lat="45.289388808099666" lon="8.391109453303242"><ele>128.33333333333334</ele><time>2026-04-11T16:01:57.001Z</time></trkpt><trkpt lat="45.289354158881046" lon="8.391354347028743"><ele>129.0</ele><time>2026-04-11T16:01:58.001Z</time></trkpt><trkpt lat="45.289299430765794" lon="8.391587837548633"><ele>129.0</ele><time>2026-04-11T16:01:59.001Z</time></trkpt><trkpt lat="45.28922472496975" lon="8.391816287189974"><ele>129.0</ele><time>2026-04-11T16:02:00.001Z</time></trkpt><trkpt lat="45.289137371196155" lon="8.392044250151857"><ele>129.0</ele><time>2026-04-11T16:02:01.001Z</time></trkpt><trkpt lat="45.289034639786095" lon="8.392278112797086"><ele>128.33333333333334</ele><time>2026-04-11T16:02:02.001Z</time></trkpt><trkpt lat="45.28891532677621" lon="8.392510594473434"><ele>127.66666666666667</ele><time>2026-04-11T16:02:03.001Z</time></trkpt><trkpt lat="45.28878957765882" lon="8.392734228478977"><ele>127.0</ele><time>2026-04-11T16:02:04.001Z</time></trkpt><trkpt lat="45.288668357924315" lon="8.39294914411397"><ele>127.33333333333334</ele><time>2026-04-11T16:02:05.001Z</time></trkpt><trkpt lat="45.28854673795831" lon="8.393160188848507"><ele>127.66666666666666</ele><time>2026-04-11T16:02:06.001Z</time></trkpt><trkpt lat="45.288422759030915" lon="8.39337461929242"><ele>128.0</ele><time>2026-04-11T16:02:07.001Z</time></trkpt><trkpt lat="45.288295818469344" lon="8.393583357753586"><ele>128.0</ele><time>2026-04-11T16:02:08.001Z</time></trkpt><trkpt lat="45.288165169204746" lon="8.393791289415471"><ele>128.0</ele><time>2026-04-11T16:02:09.001Z</time></trkpt><trkpt lat="45.288029249142745" lon="8.394008379830165"><ele>128.0</ele><time>2026-04-11T16:02:10.001Z</time></trkpt><trkpt lat="45.28788600768342" lon="8.39423391240358"><ele>128.0</ele><time>2026-04-11T16:02:11.001Z</time></trkpt><trkpt lat="45.28773457384347" lon="8.394464612134628"><ele>128.0</ele><time>2026-04-11T16:02:12.001Z</time></trkpt><trkpt lat="45.287578843754616" lon="8.394694836293331"><ele>128.0</ele><time>2026-04-11T16:02:13.001Z</time></trkpt><trkpt lat="45.28741848787145" lon="8.394929849070511"><ele>127.0</ele><time>2026-04-11T16:02:14.001Z</time></trkpt><trkpt lat="45.287251511384596" lon="8.395169040178553"><ele>126.0</ele><time>2026-04-11T16:02:15.001Z</time></trkpt><trkpt lat="45.28708077389865" lon="8.395418827613057"><ele>127.0</ele><time>2026-04-11T16:02:16.001Z</time></trkpt><trkpt lat="45.28690759498377" lon="8.395670269883402"><ele>128.0</ele><time>2026-04-11T16:02:17.001Z</time></trkpt><trkpt lat="45.286728508778545" lon="8.39592553639804"><ele>128.0</ele><time>2026-04-11T16:02:18.001Z</time></trkpt><trkpt lat="45.286547066030494" lon="8.396182244520988"><ele>128.0</ele><time>2026-04-11T16:02:19.001Z</time></trkpt><trkpt lat="45.286365668628264" lon="8.396437896960093"><ele>127.0</ele><time>2026-04-11T16:02:20.001Z</time></trkpt><trkpt lat="45.286180165131796" lon="8.396699136835757"><ele>126.0</ele><time>2026-04-11T16:02:21.001Z</time></trkpt><trkpt lat="45.28599822086012" lon="8.396960820125436"><ele>126.5</ele><time>2026-04-11T16:02:22.001Z</time></trkpt><trkpt lat="45.285815809694675" lon="8.3972231845718"><ele>127.0</ele><time>2026-04-11T16:02:23.001Z</time></trkpt><trkpt lat="45.28563286963422" lon="8.397483379019217"><ele>127.5</ele><time>2026-04-11T16:02:24.001Z</time></trkpt><trkpt lat="45.28544948655143" lon="8.397743305837949"><ele>128.0</ele><time>2026-04-11T16:02:25.002Z</time></trkpt><trkpt lat="45.28526285291374" lon="8.39800631938117"><ele>128.0</ele><time>2026-04-11T16:02:26.002Z</time></trkpt><trkpt lat="45.28507512383178" lon="8.3982736185279"><ele>128.0</ele><time>2026-04-11T16:02:27.002Z</time></trkpt><trkpt lat="45.28488989070344" lon="8.398536708121577"><ele>127.5</ele><time>2026-04-11T16:02:28.002Z</time></trkpt><trkpt lat="45.28470280052946" lon="8.398804123082503"><ele>127.0</ele><time>2026-04-11T16:02:29.002Z</time></trkpt><trkpt lat="45.28451083335625" lon="8.39907512568278"><ele>127.0</ele><time>2026-04-11T16:02:30.002Z</time></trkpt><trkpt lat="45.28431409133243" lon="8.399353186247497"><ele>127.0</ele><time>2026-04-11T16:02:31.002Z</time></trkpt><trkpt lat="45.28411087939322" lon="8.399641244226068"><ele>127.0</ele><time>2026-04-11T16:02:32.002Z</time></trkpt><trkpt lat="45.28390307209529" lon="8.399933395375387"><ele>127.0</ele><time>2026-04-11T16:02:33.002Z</time></trkpt><trkpt lat="45.28369495488955" lon="8.400232811120071"><ele>127.5</ele><time>2026-04-11T16:02:34.002Z</time></trkpt><trkpt lat="45.28348499030321" lon="8.40052461816257"><ele>128.0</ele><time>2026-04-11T16:02:35.002Z</time></trkpt><trkpt lat="45.28327528277051" lon="8.400823170363964"><ele>128.0</ele><time>2026-04-11T16:02:36.002Z</time></trkpt><trkpt lat="45.283062558117635" lon="8.40112154234345"><ele>128.0</ele><time>2026-04-11T16:02:37.002Z</time></trkpt><trkpt lat="45.28285477378938" lon="8.401421795624724"><ele>129.0</ele><time>2026-04-11T16:02:38.002Z</time></trkpt><trkpt lat="45.28264520594212" lon="8.401716882862235"><ele>130.0</ele><time>2026-04-11T16:02:39.002Z</time></trkpt><trkpt lat="45.28243451530364" lon="8.402015796138105"><ele>128.5</ele><time>2026-04-11T16:02:40.002Z</time></trkpt><trkpt lat="45.28222627196453" lon="8.402304995951456"><ele>127.0</ele><time>2026-04-11T16:02:41.002Z</time></trkpt><trkpt lat="45.282021852048466" lon="8.402601300204928"><ele>127.0</ele><time>2026-04-11T16:02:42.002Z</time></trkpt><trkpt lat="45.2818131505399" lon="8.402895763215026"><ele>127.0</ele><time>2026-04-11T16:02:43.002Z</time></trkpt><trkpt lat="45.2816027388595" lon="8.403191233930595"><ele>127.0</ele><time>2026-04-11T16:02:44.002Z</time></trkpt><trkpt lat="45.28139197579844" lon="8.40348543578826"><ele>127.0</ele><time>2026-04-11T16:02:45.002Z</time></trkpt><trkpt lat="45.28118416511792" lon="8.403779244182456"><ele>127.5</ele><time>2026-04-11T16:02:46.002Z</time></trkpt><trkpt lat="45.280976741483585" lon="8.404072242413134"><ele>128.0</ele><time>2026-04-11T16:02:47.002Z</time></trkpt><trkpt lat="45.28076678519744" lon="8.404368736368005"><ele>127.5</ele><time>2026-04-11T16:02:48.002Z</time></trkpt><trkpt lat="45.28055944229163" lon="8.404657424181933"><ele>127.0</ele><time>2026-04-11T16:02:49.002Z</time></trkpt><trkpt lat="45.280355018971" lon="8.40494602349316"><ele>127.0</ele><time>2026-04-11T16:02:50.002Z</time></trkpt><trkpt lat="45.28015016634667" lon="8.405237357102052"><ele>127.0</ele><time>2026-04-11T16:02:51.002Z</time></trkpt><trkpt lat="45.2799469306021" lon="8.405526823829083"><ele>127.0</ele><time>2026-04-11T16:02:52.002Z</time></trkpt><trkpt lat="45.279741672719204" lon="8.405816311894414"><ele>127.0</ele><time>2026-04-11T16:02:53.002Z</time></trkpt><trkpt lat="45.27953733184217" lon="8.406103981194263"><ele>127.0</ele><time>2026-04-11T16:02:54.002Z</time></trkpt><trkpt lat="45.279333129974525" lon="8.406388596506005"><ele>127.0</ele><time>2026-04-11T16:02:55.002Z</time></trkpt><trkpt lat="45.27912741777855" lon="8.406677565447373"><ele>126.5</ele><time>2026-04-11T16:02:56.002Z</time></trkpt><trkpt lat="45.27892445854491" lon="8.406966156292837"><ele>126.0</ele><time>2026-04-11T16:02:57.002Z</time></trkpt><trkpt lat="45.2787232755939" lon="8.407257041127316"><ele>126.0</ele><time>2026-04-11T16:02:58.002Z</time></trkpt><trkpt lat="45.278521633275105" lon="8.40754150753729"><ele>126.0</ele><time>2026-04-11T16:02:59.002Z</time></trkpt><trkpt lat="45.27832077604958" lon="8.407825228328868"><ele>126.0</ele><time>2026-04-11T16:03:00.002Z</time></trkpt><trkpt lat="45.2781211741482" lon="8.408106786602882"><ele>126.0</ele><time>2026-04-11T16:03:01.002Z</time></trkpt><trkpt lat="45.27792025106991" lon="8.408391114101995"><ele>126.0</ele><time>2026-04-11T16:03:02.002Z</time></trkpt><trkpt lat="45.27771974388891" lon="8.408676992717133"><ele>126.0</ele><time>2026-04-11T16:03:03.002Z</time></trkpt><trkpt lat="45.2775177232674" lon="8.408963323816815"><ele>127.0</ele><time>2026-04-11T16:03:04.002Z</time></trkpt><trkpt lat="45.277319595697534" lon="8.40924563536614"><ele>128.0</ele><time>2026-04-11T16:03:05.002Z</time></trkpt><trkpt lat="45.27712231331858" lon="8.40952524021146"><ele>127.5</ele><time>2026-04-11T16:03:06.002Z</time></trkpt><trkpt lat="45.27692197687927" lon="8.409802434082716"><ele>127.0</ele><time>2026-04-11T16:03:07.002Z</time></trkpt><trkpt lat="45.276724854111386" lon="8.410081629849119"><ele>127.0</ele><time>2026-04-11T16:03:08.002Z</time></trkpt><trkpt lat="45.27652901241661" lon="8.410357780608349"><ele>127.0</ele><time>2026-04-11T16:03:09.002Z</time></trkpt><trkpt lat="45.276332015131565" lon="8.410637826313152"><ele>127.5</ele><time>2026-04-11T16:03:10.001Z</time></trkpt><trkpt lat="45.2761370609926" lon="8.410923418314397"><ele>128.0</ele><time>2026-04-11T16:03:11.001Z</time></trkpt><trkpt lat="45.275935748452696" lon="8.411205773686335"><ele>127.5</ele><time>2026-04-11T16:03:12.001Z</time></trkpt><trkpt lat="45.275739495071676" lon="8.411481425699403"><ele>127.0</ele><time>2026-04-11T16:03:13.001Z</time></trkpt><trkpt lat="45.275539049568835" lon="8.411759753612127"><ele>126.0</ele><time>2026-04-11T16:03:14.001Z</time></trkpt><trkpt lat="45.275339428299425" lon="8.412039163540026"><ele>125.0</ele><time>2026-04-11T16:03:15.001Z</time></trkpt><trkpt lat="45.2751415290914" lon="8.412322980998985"><ele>125.0</ele><time>2026-04-11T16:03:16.001Z</time></trkpt><trkpt lat="45.27494745294322" lon="8.412603820248721"><ele>125.0</ele><time>2026-04-11T16:03:17.001Z</time></trkpt><trkpt lat="45.274751939806855" lon="8.412882938983723"><ele>125.0</ele><time>2026-04-11T16:03:18.001Z</time></trkpt><trkpt lat="45.27455617232299" lon="8.413160338277217"><ele>125.0</ele><time>2026-04-11T16:03:19.001Z</time></trkpt><trkpt lat="45.27435807901541" lon="8.413441502881216"><ele>125.0</ele><time>2026-04-11T16:03:20.001Z</time></trkpt><trkpt lat="45.27416009975014" lon="8.413721472164063"><ele>125.0</ele><time>2026-04-11T16:03:21.001Z</time></trkpt><trkpt lat="45.27396274727822" lon="8.413999755717605"><ele>125.0</ele><time>2026-04-11T16:03:22.001Z</time></trkpt><trkpt lat="45.27376517923866" lon="8.414280389121195"><ele>125.0</ele><time>2026-04-11T16:03:23.001Z</time></trkpt><trkpt lat="45.27357062897497" lon="8.41455577582925"><ele>125.0</ele><time>2026-04-11T16:03:24.001Z</time></trkpt><trkpt lat="45.27337383300005" lon="8.4148361856061"><ele>125.0</ele><time>2026-04-11T16:03:25.001Z</time></trkpt><trkpt lat="45.273177137562314" lon="8.415115601103398"><ele>125.5</ele><time>2026-04-11T16:03:26.001Z</time></trkpt><trkpt lat="45.272979193625815" lon="8.41539506999235"><ele>126.0</ele><time>2026-04-11T16:03:27.001Z</time></trkpt><trkpt lat="45.27278182476814" lon="8.415673119052272"><ele>127.5</ele><time>2026-04-11T16:03:28.001Z</time></trkpt><trkpt lat="45.272587356710865" lon="8.415948333676504"><ele>129.0</ele><time>2026-04-11T16:03:29.001Z</time></trkpt><trkpt lat="45.27239169407023" lon="8.416222543424995"><ele>128.5</ele><time>2026-04-11T16:03:30.001Z</time></trkpt><trkpt lat="45.27219925086113" lon="8.416497105704634"><ele>128.0</ele><time>2026-04-11T16:03:31.001Z</time></trkpt><trkpt lat="45.27200574368174" lon="8.416770089706866"><ele>128.0</ele><time>2026-04-11T16:03:32.001Z</time></trkpt><trkpt lat="45.27181316701732" lon="8.417042406978412"><ele>128.0</ele><time>2026-04-11T16:03:33.001Z</time></trkpt><trkpt lat="45.27162222709172" lon="8.4173137353153"><ele>126.5</ele><time>2026-04-11T16:03:34.001Z</time></trkpt><trkpt lat="45.27143026828965" lon="8.417583092893862"><ele>125.0</ele><time>2026-04-11T16:03:35.001Z</time></trkpt><trkpt lat="45.27123773772549" lon="8.417852545752927"><ele>127.0</ele><time>2026-04-11T16:03:36.001Z</time></trkpt><trkpt lat="45.27104459188691" lon="8.418120203435354"><ele>129.0</ele><time>2026-04-11T16:03:37.001Z</time></trkpt><trkpt lat="45.27085273434007" lon="8.41839112419855"><ele>129.0</ele><time>2026-04-11T16:03:38.001Z</time></trkpt><trkpt lat="45.270660630992296" lon="8.418663505080058"><ele>129.0</ele><time>2026-04-11T16:03:39.001Z</time></trkpt><trkpt lat="45.27046845917006" lon="8.418935082229298"><ele>128.0</ele><time>2026-04-11T16:03:40.001Z</time></trkpt><trkpt lat="45.27027862317869" lon="8.419203712238348"><ele>127.0</ele><time>2026-04-11T16:03:41.001Z</time></trkpt><trkpt lat="45.27008946828274" lon="8.419472220548219"><ele>127.5</ele><time>2026-04-11T16:03:42.001Z</time></trkpt><trkpt lat="45.26989937568315" lon="8.419737468883202"><ele>128.0</ele><time>2026-04-11T16:03:43.001Z</time></trkpt><trkpt lat="45.26970992075782" lon="8.420001323443579"><ele>127.5</ele><time>2026-04-11T16:03:44.001Z</time></trkpt><trkpt lat="45.26952307259798" lon="8.4202638497983"><ele>127.0</ele><time>2026-04-11T16:03:45.001Z</time></trkpt><trkpt lat="45.26933824003697" lon="8.420525727197246"><ele>127.0</ele><time>2026-04-11T16:03:46.001Z</time></trkpt><trkpt lat="45.26915657230616" lon="8.420782897311975"><ele>127.0</ele><time>2026-04-11T16:03:47.001Z</time></trkpt><trkpt lat="45.26897976181583" lon="8.421034686392755"><ele>127.0</ele><time>2026-04-11T16:03:48.001Z</time></trkpt><trkpt lat="45.26880017944048" lon="8.42129041319963"><ele>127.0</ele><time>2026-04-11T16:03:49.001Z</time></trkpt><trkpt lat="45.268618885938395" lon="8.421545747624291"><ele>127.0</ele><time>2026-04-11T16:03:50.001Z</time></trkpt><trkpt lat="45.268440112995776" lon="8.42179723642602"><ele>127.0</ele><time>2026-04-11T16:03:51.001Z</time></trkpt><trkpt lat="45.26826081540562" lon="8.422050298171495"><ele>125.5</ele><time>2026-04-11T16:03:52.001Z</time></trkpt><trkpt lat="45.26808460480209" lon="8.422297681992344"><ele>124.0</ele><time>2026-04-11T16:03:53.001Z</time></trkpt><trkpt lat="45.26790711523366" lon="8.422547549266705"><ele>124.0</ele><time>2026-04-11T16:03:54.001Z</time></trkpt><trkpt lat="45.267732587663396" lon="8.422795968709744"><ele>124.0</ele><time>2026-04-11T16:03:55.001Z</time></trkpt><trkpt lat="45.26755920135361" lon="8.423040664858545"><ele>124.0</ele><time>2026-04-11T16:03:56.001Z</time></trkpt><trkpt lat="45.26738530858501" lon="8.423287941134893"><ele>124.0</ele><time>2026-04-11T16:03:57.001Z</time></trkpt><trkpt lat="45.26721237283108" lon="8.423535534519395"><ele>124.0</ele><time>2026-04-11T16:03:58.001Z</time></trkpt><trkpt lat="45.26703853386142" lon="8.42378214462781"><ele>124.0</ele><time>2026-04-11T16:03:59.001Z</time></trkpt><trkpt lat="45.26686728025875" lon="8.424022553181214"><ele>124.0</ele><time>2026-04-11T16:04:00.001Z</time></trkpt><trkpt lat="45.266697425160295" lon="8.424259424919729"><ele>124.0</ele><time>2026-04-11T16:04:01.001Z</time></trkpt><trkpt lat="45.26652713321045" lon="8.424498766859601"><ele>124.0</ele><time>2026-04-11T16:04:02.001Z</time></trkpt><trkpt lat="45.26635802291075" lon="8.424736555949647"><ele>124.0</ele><time>2026-04-11T16:04:03.001Z</time></trkpt><trkpt lat="45.266187922285376" lon="8.424978704391037"><ele>124.0</ele><time>2026-04-11T16:04:04.001Z</time></trkpt><trkpt lat="45.26601873883386" lon="8.42522082245863"><ele>124.0</ele><time>2026-04-11T16:04:05.001Z</time></trkpt><trkpt lat="45.2658416292105" lon="8.425466370346088"><ele>124.5</ele><time>2026-04-11T16:04:06.001Z</time></trkpt><trkpt lat="45.265668134503585" lon="8.425705427348975"><ele>125.0</ele><time>2026-04-11T16:04:07.001Z</time></trkpt><trkpt lat="45.265494903686964" lon="8.425950502692535"><ele>124.5</ele><time>2026-04-11T16:04:08.001Z</time></trkpt><trkpt lat="45.26532344133342" lon="8.426194391203824"><ele>124.0</ele><time>2026-04-11T16:04:09.001Z</time></trkpt><trkpt lat="45.26515336316559" lon="8.42643642270349"><ele>124.0</ele><time>2026-04-11T16:04:10.001Z</time></trkpt><trkpt lat="45.264983602260166" lon="8.426676769648182"><ele>124.0</ele><time>2026-04-11T16:04:11.001Z</time></trkpt><trkpt lat="45.264814459991506" lon="8.42691640309065"><ele>123.0</ele><time>2026-04-11T16:04:12.001Z</time></trkpt><trkpt lat="45.264645790695965" lon="8.42715736328604"><ele>122.0</ele><time>2026-04-11T16:04:13.001Z</time></trkpt><trkpt lat="45.26447536225927" lon="8.427400200142706"><ele>122.0</ele><time>2026-04-11T16:04:14.001Z</time></trkpt><trkpt lat="45.26430694021281" lon="8.427638071695636"><ele>122.0</ele><time>2026-04-11T16:04:15.001Z</time></trkpt><trkpt lat="45.26413837510133" lon="8.427877043304377"><ele>122.0</ele><time>2026-04-11T16:04:16.001Z</time></trkpt><trkpt lat="45.26396882959234" lon="8.42811881755837"><ele>122.0</ele><time>2026-04-11T16:04:17.001Z</time></trkpt><trkpt lat="45.26379945846434" lon="8.428358820927759"><ele>122.5</ele><time>2026-04-11T16:04:18.001Z</time></trkpt><trkpt lat="45.263631153358475" lon="8.428599661824022"><ele>123.0</ele><time>2026-04-11T16:04:19.001Z</time></trkpt><trkpt lat="45.26345817766862" lon="8.428845692291961"><ele>123.0</ele><time>2026-04-11T16:04:20.001Z</time></trkpt><trkpt lat="45.263286688847245" lon="8.42908596530329"><ele>123.0</ele><time>2026-04-11T16:04:21.001Z</time></trkpt><trkpt lat="45.26311459039753" lon="8.429327121818858"><ele>123.5</ele><time>2026-04-11T16:04:22.001Z</time></trkpt><trkpt lat="45.262944352554825" lon="8.429567084940267"><ele>124.0</ele><time>2026-04-11T16:04:23.001Z</time></trkpt><trkpt lat="45.262773891985205" lon="8.42981202341094"><ele>124.0</ele><time>2026-04-11T16:04:24.001Z</time></trkpt><trkpt lat="45.262603158811" lon="8.430054325202704"><ele>124.0</ele><time>2026-04-11T16:04:25.001Z</time></trkpt><trkpt lat="45.26243145836533" lon="8.43029980870993"><ele>123.0</ele><time>2026-04-11T16:04:26.001Z</time></trkpt><trkpt lat="45.26225974328031" lon="8.430541107240337"><ele>122.0</ele><time>2026-04-11T16:04:27.001Z</time></trkpt><trkpt lat="45.26208780506193" lon="8.4307824753554"><ele>122.0</ele><time>2026-04-11T16:04:28.001Z</time></trkpt><trkpt lat="45.26191580664396" lon="8.431025333556779"><ele>122.0</ele><time>2026-04-11T16:04:29.001Z</time></trkpt><trkpt lat="45.26174463903303" lon="8.43126818921338"><ele>122.5</ele><time>2026-04-11T16:04:30.001Z</time></trkpt><trkpt lat="45.26157411730438" lon="8.43150930245296"><ele>123.0</ele><time>2026-04-11T16:04:31.001Z</time></trkpt><trkpt lat="45.26140182474257" lon="8.431753357120503"><ele>122.5</ele><time>2026-04-11T16:04:32.001Z</time></trkpt><trkpt lat="45.26123009712655" lon="8.431998356168984"><ele>122.0</ele><time>2026-04-11T16:04:33.001Z</time></trkpt><trkpt lat="45.261058604357004" lon="8.432242862983085"><ele>122.0</ele><time>2026-04-11T16:04:34.001Z</time></trkpt><trkpt lat="45.260885403493425" lon="8.432483644786727"><ele>122.0</ele><time>2026-04-11T16:04:35.001Z</time></trkpt><trkpt lat="45.26071338981157" lon="8.432725168560571"><ele>122.5</ele><time>2026-04-11T16:04:36.001Z</time></trkpt><trkpt lat="45.26053926511958" lon="8.432968875421786"><ele>123.0</ele><time>2026-04-11T16:04:37.001Z</time></trkpt><trkpt lat="45.26036652485298" lon="8.433211312533883"><ele>123.0</ele><time>2026-04-11T16:04:38.001Z</time></trkpt><trkpt lat="45.26019482962374" lon="8.433454717092898"><ele>123.0</ele><time>2026-04-11T16:04:39.001Z</time></trkpt><trkpt lat="45.260022672687974" lon="8.433698139922276"><ele>122.0</ele><time>2026-04-11T16:04:40.001Z</time></trkpt><trkpt lat="45.259851641933565" lon="8.433941801521186"><ele>121.0</ele><time>2026-04-11T16:04:41.001Z</time></trkpt><trkpt lat="45.25968067527882" lon="8.434184970683397"><ele>121.0</ele><time>2026-04-11T16:04:42.001Z</time></trkpt><trkpt lat="45.259509739421354" lon="8.434426893683803"><ele>121.0</ele><time>2026-04-11T16:04:43.001Z</time></trkpt><trkpt lat="45.259339908950714" lon="8.434668511229896"><ele>121.5</ele><time>2026-04-11T16:04:44.001Z</time></trkpt><trkpt lat="45.25916850541872" lon="8.434909854201287"><ele>122.0</ele><time>2026-04-11T16:04:45.001Z</time></trkpt><trkpt lat="45.258999809211865" lon="8.435153109216552"><ele>122.0</ele><time>2026-04-11T16:04:46.001Z</time></trkpt><trkpt lat="45.25883107214604" lon="8.435398307257643"><ele>122.0</ele><time>2026-04-11T16:04:47.001Z</time></trkpt><trkpt lat="45.258659619028364" lon="8.435638164717062"><ele>122.5</ele><time>2026-04-11T16:04:48.001Z</time></trkpt><trkpt lat="45.25849199593719" lon="8.435877694849076"><ele>123.0</ele><time>2026-04-11T16:04:49.001Z</time></trkpt><trkpt lat="45.25832720064152" lon="8.436117863551"><ele>123.0</ele><time>2026-04-11T16:04:50.001Z</time></trkpt><trkpt lat="45.25816181155998" lon="8.436359236481898"><ele>123.0</ele><time>2026-04-11T16:04:51.001Z</time></trkpt><trkpt lat="45.25799960541419" lon="8.436602847685942"><ele>123.0</ele><time>2026-04-11T16:04:52.001Z</time></trkpt><trkpt lat="45.25783866473882" lon="8.436847768717591"><ele>123.0</ele><time>2026-04-11T16:04:53.001Z</time></trkpt><trkpt lat="45.25767732046485" lon="8.437098372987801"><ele>123.0</ele><time>2026-04-11T16:04:54.001Z</time></trkpt><trkpt lat="45.25751631668105" lon="8.437351053527927"><ele>123.0</ele><time>2026-04-11T16:04:55.001Z</time></trkpt><trkpt lat="45.25735817256726" lon="8.437606576104022"><ele>122.5</ele><time>2026-04-11T16:04:56.001Z</time></trkpt><trkpt lat="45.25720054200006" lon="8.437865870148846"><ele>122.0</ele><time>2026-04-11T16:04:57.001Z</time></trkpt><trkpt lat="45.25704388018197" lon="8.43813134301033"><ele>121.5</ele><time>2026-04-11T16:04:58.001Z</time></trkpt><trkpt lat="45.25688818046552" lon="8.43839831804678"><ele>121.0</ele><time>2026-04-11T16:04:59.001Z</time></trkpt><trkpt lat="45.25673423420142" lon="8.438663610039411"><ele>121.0</ele><time>2026-04-11T16:05:00.001Z</time></trkpt><trkpt lat="45.256577927843935" lon="8.438938099106121"><ele>121.0</ele><time>2026-04-11T16:05:01.001Z</time></trkpt><trkpt lat="45.25642696192379" lon="8.439209234512886"><ele>122.5</ele><time>2026-04-11T16:05:02.001Z</time></trkpt><trkpt lat="45.25628285342978" lon="8.439481967204166"><ele>124.0</ele><time>2026-04-11T16:05:03.001Z</time></trkpt><trkpt lat="45.256138674758105" lon="8.439755043009542"><ele>125.0</ele><time>2026-04-11T16:05:04.001Z</time></trkpt><trkpt lat="45.25599496920048" lon="8.440027426909566"><ele>126.0</ele><time>2026-04-11T16:05:05.001Z</time></trkpt><trkpt lat="45.25585451397918" lon="8.440296434476453"><ele>125.5</ele><time>2026-04-11T16:05:06.001Z</time></trkpt><trkpt lat="45.255713980693095" lon="8.440563797800378"><ele>125.0</ele><time>2026-04-11T16:05:07.001Z</time></trkpt><trkpt lat="45.25557671703152" lon="8.440834446170024"><ele>125.0</ele><time>2026-04-11T16:05:08.001Z</time></trkpt><trkpt lat="45.255444432806215" lon="8.441108884494396"><ele>125.0</ele><time>2026-04-11T16:05:09.001Z</time></trkpt><trkpt lat="45.255315036272066" lon="8.441383841307763"><ele>124.0</ele><time>2026-04-11T16:05:10.001Z</time></trkpt><trkpt lat="45.255187908901846" lon="8.4416546174466"><ele>123.0</ele><time>2026-04-11T16:05:11.002Z</time></trkpt><trkpt lat="45.2550634185955" lon="8.44192507367378"><ele>122.5</ele><time>2026-04-11T16:05:12.002Z</time></trkpt><trkpt lat="45.25494137515999" lon="8.442197683850612"><ele>122.0</ele><time>2026-04-11T16:05:13.002Z</time></trkpt><trkpt lat="45.2548202908192" lon="8.442468629427857"><ele>121.66666666666666</ele><time>2026-04-11T16:05:14.002Z</time></trkpt><trkpt lat="45.25470583594058" lon="8.44272450044584"><ele>121.33333333333334</ele><time>2026-04-11T16:05:15.002Z</time></trkpt><trkpt lat="45.25459327654576" lon="8.442976069353094"><ele>121.0</ele><time>2026-04-11T16:05:16Z</time></trkpt><trkpt lat="45.25448355863369" lon="8.443227719897845"><ele>121.0</ele><time>2026-04-11T16:05:17Z</time></trkpt><trkpt lat="45.254378705464326" lon="8.443468271534652"><ele>121.0</ele><time>2026-04-11T16:05:18Z</time></trkpt><trkpt lat="45.25428006805961" lon="8.4436952559321"><ele>121.0</ele><time>2026-04-11T16:05:19Z</time></trkpt><trkpt lat="45.254187645285626" lon="8.443914518626304"><ele>121.33333333333334</ele><time>2026-04-11T16:05:20Z</time></trkpt><trkpt lat="45.25410080889392" lon="8.444126906504955"><ele>121.66666666666666</ele><time>2026-04-11T16:05:21Z</time></trkpt><trkpt lat="45.25401328503266" lon="8.444334600917086"><ele>122.0</ele><time>2026-04-11T16:05:22Z</time></trkpt><trkpt lat="45.25392770729851" lon="8.444535478909444"><ele>121.33333333333333</ele><time>2026-04-11T16:05:23Z</time></trkpt><trkpt lat="45.253844332036444" lon="8.444729408536784"><ele>120.66666666666666</ele><time>2026-04-11T16:05:24Z</time></trkpt><trkpt lat="45.253761287748006" lon="8.444919825790594"><ele>120.0</ele><time>2026-04-11T16:05:25Z</time></trkpt><trkpt lat="45.25368206302113" lon="8.445099831409937"><ele>120.0</ele><time>2026-04-11T16:05:26Z</time></trkpt><trkpt lat="45.25360165384403" lon="8.445284003255749"><ele>120.0</ele><time>2026-04-11T16:05:27Z</time></trkpt><trkpt lat="45.25351569465632" lon="8.445469273776329"><ele>120.0</ele><time>2026-04-11T16:05:28Z</time></trkpt><trkpt lat="45.253431820741255" lon="8.445642270195847"><ele>120.75</ele><time>2026-04-11T16:05:29Z</time></trkpt><trkpt lat="45.25334915780654" lon="8.445802790159803"><ele>121.5</ele><time>2026-04-11T16:05:30Z</time></trkpt><trkpt lat="45.25326270119455" lon="8.445948475606519"><ele>122.25</ele><time>2026-04-11T16:05:31Z</time></trkpt><trkpt lat="45.253169941221984" lon="8.44607647663744"><ele>123.0</ele><time>2026-04-11T16:05:32Z</time></trkpt><trkpt lat="45.253081470651615" lon="8.446199742150414"><ele>123.25</ele><time>2026-04-11T16:05:33Z</time></trkpt><trkpt lat="45.25300216962228" lon="8.446331061192605"><ele>123.5</ele><time>2026-04-11T16:05:34Z</time></trkpt><trkpt lat="45.2529290418895" lon="8.446475403882523"><ele>123.75</ele><time>2026-04-11T16:05:35Z</time></trkpt><trkpt lat="45.252862298145004" lon="8.446623140789853"><ele>124.0</ele><time>2026-04-11T16:05:36Z</time></trkpt><trkpt lat="45.25279726582823" lon="8.446763315667845"><ele>124.0</ele><time>2026-04-11T16:05:37Z</time></trkpt><trkpt lat="45.25273293075119" lon="8.4468968918469"><ele>124.0</ele><time>2026-04-11T16:05:38Z</time></trkpt><trkpt lat="45.25267181245949" lon="8.447022042386878"><ele>124.0</ele><time>2026-04-11T16:05:39Z</time></trkpt><trkpt lat="45.25262259609596" lon="8.447139041542883"><ele>124.0</ele><time>2026-04-11T16:05:40Z</time></trkpt><trkpt lat="45.25258727342797" lon="8.4472411466741"><ele>124.0</ele><time>2026-04-11T16:05:41Z</time></trkpt><trkpt lat="45.25255446494843" lon="8.447325329323851"><ele>124.0</ele><time>2026-04-11T16:05:42Z</time></trkpt><trkpt lat="45.252483972411284" lon="8.447391808570671"><ele>124.0</ele><time>2026-04-11T16:05:44Z</time></trkpt><trkpt lat="45.252420114010114" lon="8.447460618353384"><ele>124.0</ele><time>2026-04-11T16:05:48Z</time></trkpt><trkpt lat="45.25233665501003" lon="8.447703964512455"><ele>124.0</ele><time>2026-04-11T16:17:42Z</time></trkpt><trkpt lat="45.25230896588598" lon="8.44778866458156"><ele>124.0</ele><time>2026-04-11T16:17:43Z</time></trkpt><trkpt lat="45.25224524216428" lon="8.447921830254723"><ele>123.80000000000001</ele><time>2026-04-11T16:17:45Z</time></trkpt><trkpt lat="45.25220127992514" lon="8.448034143147542"><ele>123.60000000000001</ele><time>2026-04-11T16:17:46Z</time></trkpt><trkpt lat="45.25216368831149" lon="8.448167502359901"><ele>123.4</ele><time>2026-04-11T16:17:47Z</time></trkpt><trkpt lat="45.25211545636767" lon="8.448304322955426"><ele>123.2</ele><time>2026-04-11T16:17:48Z</time></trkpt><trkpt lat="45.25206572611882" lon="8.44843647308421"><ele>123.0</ele><time>2026-04-11T16:17:49Z</time></trkpt><trkpt lat="45.25201829279562" lon="8.448567273500469"><ele>123.0</ele><time>2026-04-11T16:17:50Z</time></trkpt><trkpt lat="45.251986028929224" lon="8.448732567405147"><ele>123.0</ele><time>2026-04-11T16:17:51Z</time></trkpt><trkpt lat="45.25191874617558" lon="8.4488863142102"><ele>123.0</ele><time>2026-04-11T16:17:51.999Z</time></trkpt><trkpt lat="45.25184550310043" lon="8.449037866272555"><ele>123.0</ele><time>2026-04-11T16:17:52.999Z</time></trkpt><trkpt lat="45.251772333190594" lon="8.449189007842296"><ele>123.25</ele><time>2026-04-11T16:17:53.999Z</time></trkpt><trkpt lat="45.251705302312885" lon="8.449342708931226"><ele>123.5</ele><time>2026-04-11T16:17:54.999Z</time></trkpt><trkpt lat="45.251653242127304" lon="8.44952090608141"><ele>123.75</ele><time>2026-04-11T16:17:55.999Z</time></trkpt><trkpt lat="45.25160791808482" lon="8.449722398981704"><ele>124.0</ele><time>2026-04-11T16:17:56.999Z</time></trkpt><trkpt lat="45.25157348199661" lon="8.449936589021144"><ele>123.33333333333334</ele><time>2026-04-11T16:17:57.999Z</time></trkpt><trkpt lat="45.251544230600224" lon="8.450137559379547"><ele>122.66666666666666</ele><time>2026-04-11T16:17:58.999Z</time></trkpt><trkpt lat="45.251499937063265" lon="8.450365357403655"><ele>122.0</ele><time>2026-04-11T16:17:59.999Z</time></trkpt><trkpt lat="45.25143899993274" lon="8.450576062614413"><ele>121.33333333333333</ele><time>2026-04-11T16:18:00.999Z</time></trkpt><trkpt lat="45.25138653539698" lon="8.450806556287336"><ele>120.66666666666666</ele><time>2026-04-11T16:18:01.999Z</time></trkpt><trkpt lat="45.25128046927514" lon="8.451022496412962"><ele>120.0</ele><time>2026-04-11T16:18:02.999Z</time></trkpt><trkpt lat="45.25119315418361" lon="8.451251174171967"><ele>120.66666666666666</ele><time>2026-04-11T16:18:03.999Z</time></trkpt><trkpt lat="45.251101175067404" lon="8.451486214236091"><ele>121.33333333333333</ele><time>2026-04-11T16:18:04.999Z</time></trkpt><trkpt lat="45.25100441917326" lon="8.451727796027951"><ele>122.0</ele><time>2026-04-11T16:18:05.999Z</time></trkpt><trkpt lat="45.25091119686796" lon="8.451979844335481"><ele>122.0</ele><time>2026-04-11T16:18:06.999Z</time></trkpt><trkpt lat="45.2508145356268" lon="8.45223646644769"><ele>122.0</ele><time>2026-04-11T16:18:07.999Z</time></trkpt><trkpt lat="45.25071385881632" lon="8.452496221095297"><ele>122.0</ele><time>2026-04-11T16:18:08.999Z</time></trkpt><trkpt lat="45.250611756152665" lon="8.452762425520179"><ele>121.66666666666666</ele><time>2026-04-11T16:18:09.999Z</time></trkpt><trkpt lat="45.25050528220063" lon="8.453029826570603"><ele>121.33333333333334</ele><time>2026-04-11T16:18:10.999Z</time></trkpt><trkpt lat="45.250397335950844" lon="8.453295741194543"><ele>121.0</ele><time>2026-04-11T16:18:11.999Z</time></trkpt><trkpt lat="45.25029137163019" lon="8.453561774874728"><ele>121.66666666666667</ele><time>2026-04-11T16:18:12.999Z</time></trkpt><trkpt lat="45.25018983487756" lon="8.45381142925767"><ele>122.33333333333334</ele><time>2026-04-11T16:18:13.999Z</time></trkpt><trkpt lat="45.25008671103395" lon="8.45406555829974"><ele>123.0</ele><time>2026-04-11T16:18:14.999Z</time></trkpt><trkpt lat="45.249974120517116" lon="8.454329455299552"><ele>123.0</ele><time>2026-04-11T16:18:15.999Z</time></trkpt><trkpt lat="45.24986099203176" lon="8.454605068765654"><ele>123.0</ele><time>2026-04-11T16:18:16.999Z</time></trkpt><trkpt lat="45.249752400416895" lon="8.454888162231178"><ele>121.5</ele><time>2026-04-11T16:18:17.999Z</time></trkpt><trkpt lat="45.24963465298387" lon="8.455173518040139"><ele>120.0</ele><time>2026-04-11T16:18:18.999Z</time></trkpt><trkpt lat="45.249515214402514" lon="8.455467453731346"><ele>120.0</ele><time>2026-04-11T16:18:19.999Z</time></trkpt><trkpt lat="45.249399069734466" lon="8.4557536870405"><ele>120.0</ele><time>2026-04-11T16:18:20.999Z</time></trkpt><trkpt lat="45.249283662458176" lon="8.456043873457917"><ele>120.5</ele><time>2026-04-11T16:18:21.999Z</time></trkpt><trkpt lat="45.24916651475981" lon="8.456337402924"><ele>121.0</ele><time>2026-04-11T16:18:22.999Z</time></trkpt><trkpt lat="45.24905038138654" lon="8.456628542999916"><ele>121.0</ele><time>2026-04-11T16:18:23.999Z</time></trkpt><trkpt lat="45.24893451360698" lon="8.456918828113839"><ele>121.0</ele><time>2026-04-11T16:18:24.999Z</time></trkpt><trkpt lat="45.24881714117109" lon="8.457208234489556"><ele>121.0</ele><time>2026-04-11T16:18:25.999Z</time></trkpt><trkpt lat="45.24869981339895" lon="8.457499228434376"><ele>121.0</ele><time>2026-04-11T16:18:26.999Z</time></trkpt><trkpt lat="45.24858052152936" lon="8.457787668243956"><ele>120.5</ele><time>2026-04-11T16:18:27.999Z</time></trkpt><trkpt lat="45.24846572287918" lon="8.458063545109766"><ele>120.0</ele><time>2026-04-11T16:18:28.999Z</time></trkpt><trkpt lat="45.24834786288271" lon="8.458352843865656"><ele>120.0</ele><time>2026-04-11T16:18:29.999Z</time></trkpt><trkpt lat="45.24823556268006" lon="8.45863575183819"><ele>120.0</ele><time>2026-04-11T16:18:30.999Z</time></trkpt><trkpt lat="45.24812521999583" lon="8.45891313213971"><ele>120.5</ele><time>2026-04-11T16:18:31.999Z</time></trkpt><trkpt lat="45.248016113406486" lon="8.459189864027447"><ele>121.0</ele><time>2026-04-11T16:18:32.999Z</time></trkpt><trkpt lat="45.24790482012489" lon="8.459475839775521"><ele>120.66666666666667</ele><time>2026-04-11T16:18:33.999Z</time></trkpt><trkpt lat="45.247793848810566" lon="8.459745207090977"><ele>120.33333333333334</ele><time>2026-04-11T16:18:34.999Z</time></trkpt><trkpt lat="45.247673173891" lon="8.46000011568784"><ele>120.0</ele><time>2026-04-11T16:18:35.999Z</time></trkpt><trkpt lat="45.247573745667076" lon="8.46029477517955"><ele>120.66666666666666</ele><time>2026-04-11T16:18:36.999Z</time></trkpt><trkpt lat="45.24746732265873" lon="8.460570384159116"><ele>121.33333333333333</ele><time>2026-04-11T16:18:37.999Z</time></trkpt><trkpt lat="45.24736056142301" lon="8.460843011331782"><ele>122.0</ele><time>2026-04-11T16:18:38.999Z</time></trkpt><trkpt lat="45.24725536807027" lon="8.46112438689574"><ele>121.0</ele><time>2026-04-11T16:18:39.999Z</time></trkpt><trkpt lat="45.24715173797981" lon="8.46139977622225"><ele>120.0</ele><time>2026-04-11T16:18:40.999Z</time></trkpt><trkpt lat="45.247048468408046" lon="8.461682748530235"><ele>119.0</ele><time>2026-04-11T16:18:41.999Z</time></trkpt><trkpt lat="45.246948441571604" lon="8.461963169809037"><ele>119.0</ele><time>2026-04-11T16:18:42.999Z</time></trkpt><trkpt lat="45.24684855074495" lon="8.462246236339649"><ele>119.0</ele><time>2026-04-11T16:18:43.999Z</time></trkpt><trkpt lat="45.246753794023206" lon="8.462531511010209"><ele>119.0</ele><time>2026-04-11T16:18:44.999Z</time></trkpt><trkpt lat="45.246659879798074" lon="8.462818569727915"><ele>119.0</ele><time>2026-04-11T16:18:45.999Z</time></trkpt><trkpt lat="45.24656861469429" lon="8.46311005591217"><ele>119.0</ele><time>2026-04-11T16:18:46.999Z</time></trkpt><trkpt lat="45.246479700632975" lon="8.463402732584388"><ele>119.0</ele><time>2026-04-11T16:18:47.999Z</time></trkpt><trkpt lat="45.24639369276159" lon="8.463700720699599"><ele>119.5</ele><time>2026-04-11T16:18:48.999Z</time></trkpt><trkpt lat="45.2463080637236" lon="8.463992243646777"><ele>120.0</ele><time>2026-04-11T16:18:49.999Z</time></trkpt><trkpt lat="45.246225602347074" lon="8.464296599744358"><ele>120.0</ele><time>2026-04-11T16:18:50.999Z</time></trkpt><trkpt lat="45.24614730417612" lon="8.464600903343264"><ele>120.0</ele><time>2026-04-11T16:18:51.999Z</time></trkpt><trkpt lat="45.24607178305611" lon="8.464900132775423"><ele>120.66666666666666</ele><time>2026-04-11T16:18:52.999Z</time></trkpt><trkpt lat="45.245997477470695" lon="8.465198850122373"><ele>121.33333333333333</ele><time>2026-04-11T16:18:53.999Z</time></trkpt><trkpt lat="45.24592538920051" lon="8.465495555897599"><ele>122.0</ele><time>2026-04-11T16:18:54.999Z</time></trkpt><trkpt lat="45.245855867040426" lon="8.465780681995684"><ele>122.33333333333333</ele><time>2026-04-11T16:18:55.999Z</time></trkpt><trkpt lat="45.245786739739586" lon="8.466067615122803"><ele>122.66666666666666</ele><time>2026-04-11T16:18:56.999Z</time></trkpt><trkpt lat="45.24571946334153" lon="8.46634750763621"><ele>123.0</ele><time>2026-04-11T16:18:57.999Z</time></trkpt><trkpt lat="45.24565285088723" lon="8.466623601394147"><ele>122.66666666666666</ele><time>2026-04-11T16:18:58.999Z</time></trkpt><trkpt lat="45.245585298711866" lon="8.466887910577272"><ele>122.33333333333333</ele><time>2026-04-11T16:18:59.999Z</time></trkpt><trkpt lat="45.24551054142749" lon="8.467136087867905"><ele>122.0</ele><time>2026-04-11T16:19:00.999Z</time></trkpt><trkpt lat="45.24542167092288" lon="8.467389070639342"><ele>122.0</ele><time>2026-04-11T16:19:01.999Z</time></trkpt><trkpt lat="45.24532125816815" lon="8.467642332995606"><ele>122.0</ele><time>2026-04-11T16:19:02.999Z</time></trkpt><trkpt lat="45.24521120102439" lon="8.467888768815449"><ele>122.0</ele><time>2026-04-11T16:19:03.999Z</time></trkpt><trkpt lat="45.2450911189269" lon="8.468126765477034"><ele>122.0</ele><time>2026-04-11T16:19:04.999Z</time></trkpt><trkpt lat="45.24496393080173" lon="8.468351959656621"><ele>122.0</ele><time>2026-04-11T16:19:05.999Z</time></trkpt><trkpt lat="45.244828434627436" lon="8.468559396085237"><ele>122.0</ele><time>2026-04-11T16:19:06.999Z</time></trkpt><trkpt lat="45.24469141938259" lon="8.468738054445694"><ele>121.33333333333333</ele><time>2026-04-11T16:19:07.999Z</time></trkpt><trkpt lat="45.24454619751014" lon="8.468895699281036"><ele>120.66666666666666</ele><time>2026-04-11T16:19:08.999Z</time></trkpt><trkpt lat="45.24439195457735" lon="8.469036570184862"><ele>120.0</ele><time>2026-04-11T16:19:09.999Z</time></trkpt><trkpt lat="45.24422821530572" lon="8.469153799246541"><ele>120.0</ele><time>2026-04-11T16:19:10.999Z</time></trkpt><trkpt lat="45.244056983079396" lon="8.469244020856825"><ele>120.0</ele><time>2026-04-11T16:19:11.999Z</time></trkpt><trkpt lat="45.243893026832296" lon="8.469305675694487"><ele>120.0</ele><time>2026-04-11T16:19:12.999Z</time></trkpt><trkpt lat="45.24373601266035" lon="8.469346660875447"><ele>120.0</ele><time>2026-04-11T16:19:13.999Z</time></trkpt><trkpt lat="45.24358340284708" lon="8.469370112976144"><ele>120.0</ele><time>2026-04-11T16:19:14.999Z</time></trkpt><trkpt lat="45.24344310990007" lon="8.469360040980792"><ele>120.0</ele><time>2026-04-11T16:19:15.999Z</time></trkpt><trkpt lat="45.24330622807519" lon="8.469331122186988"><ele>120.0</ele><time>2026-04-11T16:19:16.999Z</time></trkpt><trkpt lat="45.243176358251105" lon="8.469283699543798"><ele>119.75</ele><time>2026-04-11T16:19:17.999Z</time></trkpt><trkpt lat="45.243060865191005" lon="8.469217117427288"><ele>119.5</ele><time>2026-04-11T16:19:18.999Z</time></trkpt><trkpt lat="45.24296047850802" lon="8.46912296942752"><ele>119.25</ele><time>2026-04-11T16:19:19.999Z</time></trkpt><trkpt lat="45.24288007017383" lon="8.469002681867812"><ele>119.0</ele><time>2026-04-11T16:19:20.999Z</time></trkpt><trkpt lat="45.24282752511885" lon="8.468861630408487"><ele>119.0</ele><time>2026-04-11T16:19:21.999Z</time></trkpt><trkpt lat="45.242802104315416" lon="8.468704185412967"><ele>119.0</ele><time>2026-04-11T16:19:22.999Z</time></trkpt><trkpt lat="45.24280123821911" lon="8.468540305294798"><ele>119.0</ele><time>2026-04-11T16:19:23.999Z</time></trkpt><trkpt lat="45.242830320362216" lon="8.468375354761228"><ele>119.0</ele><time>2026-04-11T16:19:24.999Z</time></trkpt><trkpt lat="45.24288671779165" lon="8.46822433199352"><ele>119.0</ele><time>2026-04-11T16:19:25.999Z</time></trkpt><trkpt lat="45.24296725140093" lon="8.468082195415644"><ele>119.0</ele><time>2026-04-11T16:19:26.999Z</time></trkpt><trkpt lat="45.24307086827242" lon="8.46795438350589"><ele>119.0</ele><time>2026-04-11T16:19:27.999Z</time></trkpt><trkpt lat="45.243191870591716" lon="8.467839475486517"><ele>119.0</ele><time>2026-04-11T16:19:28.999Z</time></trkpt><trkpt lat="45.24333129404579" lon="8.467743470685193"><ele>119.0</ele><time>2026-04-11T16:19:29.999Z</time></trkpt><trkpt lat="45.24348286632931" lon="8.467677497411012"><ele>119.0</ele><time>2026-04-11T16:19:30.999Z</time></trkpt><trkpt lat="45.2436488420243" lon="8.467630748241904"><ele>119.0</ele><time>2026-04-11T16:19:31.999Z</time></trkpt><trkpt lat="45.24382716428162" lon="8.467569622617201"><ele>119.0</ele><time>2026-04-11T16:19:32.999Z</time></trkpt><trkpt lat="45.244013269056296" lon="8.467505758273202"><ele>119.0</ele><time>2026-04-11T16:19:33.999Z</time></trkpt><trkpt lat="45.24420784975771" lon="8.467443801021517"><ele>119.0</ele><time>2026-04-11T16:19:34.999Z</time></trkpt><trkpt lat="45.24439333117317" lon="8.467383203030584"><ele>119.0</ele><time>2026-04-11T16:19:35.999Z</time></trkpt><trkpt lat="45.244584163717995" lon="8.467325052389146"><ele>119.0</ele><time>2026-04-11T16:19:36.999Z</time></trkpt><trkpt lat="45.244786733560076" lon="8.467268016202915"><ele>119.0</ele><time>2026-04-11T16:19:37.999Z</time></trkpt><trkpt lat="45.24499883590974" lon="8.467211088538347"><ele>120.0</ele><time>2026-04-11T16:19:38.999Z</time></trkpt><trkpt lat="45.24522213984018" lon="8.467157461953251"><ele>121.0</ele><time>2026-04-11T16:19:39.999Z</time></trkpt><trkpt lat="45.24545557772965" lon="8.467107612525336"><ele>122.0</ele><time>2026-04-11T16:19:40.999Z</time></trkpt><trkpt lat="45.245689784694214" lon="8.467064855726502"><ele>123.0</ele><time>2026-04-11T16:19:41.999Z</time></trkpt><trkpt lat="45.245935435473186" lon="8.467018987035118"><ele>123.0</ele><time>2026-04-11T16:19:42.999Z</time></trkpt><trkpt lat="45.246183729186086" lon="8.46698295213574"><ele>123.0</ele><time>2026-04-11T16:19:43.999Z</time></trkpt><trkpt lat="45.246433865485265" lon="8.466954405172906"><ele>121.5</ele><time>2026-04-11T16:19:44.999Z</time></trkpt><trkpt lat="45.24669220749492" lon="8.466932020634601"><ele>120.0</ele><time>2026-04-11T16:19:45.999Z</time></trkpt><trkpt lat="45.24696041770261" lon="8.466910274491148"><ele>120.0</ele><time>2026-04-11T16:19:46.999Z</time></trkpt><trkpt lat="45.247231896030215" lon="8.466893165402189"><ele>120.0</ele><time>2026-04-11T16:19:47.999Z</time></trkpt><trkpt lat="45.24751087218017" lon="8.466880707336136"><ele>120.0</ele><time>2026-04-11T16:19:48.999Z</time></trkpt><trkpt lat="45.24779119270895" lon="8.46687646987903"><ele>120.0</ele><time>2026-04-11T16:19:49.999Z</time></trkpt><trkpt lat="45.248076710939614" lon="8.466879960355149"><ele>119.5</ele><time>2026-04-11T16:19:50.999Z</time></trkpt><trkpt lat="45.2483601669253" lon="8.466886407989625"><ele>119.0</ele><time>2026-04-11T16:19:51.999Z</time></trkpt><trkpt lat="45.24865269019732" lon="8.466898372227094"><ele>119.0</ele><time>2026-04-11T16:19:52.999Z</time></trkpt><trkpt lat="45.24894657072948" lon="8.466913831580829"><ele>119.0</ele><time>2026-04-11T16:19:53.999Z</time></trkpt><trkpt lat="45.24923678008165" lon="8.466932686307704"><ele>118.5</ele><time>2026-04-11T16:19:54.999Z</time></trkpt><trkpt lat="45.2495315567156" lon="8.46695412555581"><ele>118.0</ele><time>2026-04-11T16:19:55.999Z</time></trkpt><trkpt lat="45.249827602114905" lon="8.46697977659718"><ele>117.0</ele><time>2026-04-11T16:19:56.999Z</time></trkpt><trkpt lat="45.25012252671923" lon="8.467000248319856"><ele>116.0</ele><time>2026-04-11T16:19:57.998Z</time></trkpt><trkpt lat="45.25041774315768" lon="8.46702044276626"><ele>115.5</ele><time>2026-04-11T16:19:58.998Z</time></trkpt><trkpt lat="45.2507101843122" lon="8.46703983005344"><ele>115.0</ele><time>2026-04-11T16:19:59.998Z</time></trkpt><trkpt lat="45.2510041381033" lon="8.467059530850335"><ele>115.0</ele><time>2026-04-11T16:20:00.998Z</time></trkpt><trkpt lat="45.25129629291485" lon="8.467078101429458"><ele>115.0</ele><time>2026-04-11T16:20:01.998Z</time></trkpt><trkpt lat="45.25159615619548" lon="8.46709997487092"><ele>114.5</ele><time>2026-04-11T16:20:02.998Z</time></trkpt><trkpt lat="45.251893275767934" lon="8.467120740977073"><ele>114.0</ele><time>2026-04-11T16:20:03.998Z</time></trkpt><trkpt lat="45.252189593366424" lon="8.467143498173618"><ele>115.0</ele><time>2026-04-11T16:20:04.998Z</time></trkpt><trkpt lat="45.25247974496587" lon="8.467164614957843"><ele>116.0</ele><time>2026-04-11T16:20:05.998Z</time></trkpt><trkpt lat="45.252770813116996" lon="8.467184973973712"><ele>116.0</ele><time>2026-04-11T16:20:06.998Z</time></trkpt><trkpt lat="45.25306140915064" lon="8.467204988411819"><ele>116.0</ele><time>2026-04-11T16:20:07.999Z</time></trkpt><trkpt lat="45.25334745028658" lon="8.467224625301974"><ele>117.0</ele><time>2026-04-11T16:20:08.999Z</time></trkpt><trkpt lat="45.253635540836456" lon="8.467240884061566"><ele>118.0</ele><time>2026-04-11T16:20:09.999Z</time></trkpt><trkpt lat="45.2539203070071" lon="8.467258668764977"><ele>118.0</ele><time>2026-04-11T16:20:10.999Z</time></trkpt><trkpt lat="45.254204097344406" lon="8.467277860583778"><ele>118.0</ele><time>2026-04-11T16:20:11.999Z</time></trkpt><trkpt lat="45.25448481228112" lon="8.467297898125555"><ele>118.0</ele><time>2026-04-11T16:20:12.999Z</time></trkpt><trkpt lat="45.254762059659264" lon="8.467319301881364"><ele>118.0</ele><time>2026-04-11T16:20:13.999Z</time></trkpt><trkpt lat="45.25503840042846" lon="8.467340926685996"><ele>118.5</ele><time>2026-04-11T16:20:14.999Z</time></trkpt><trkpt lat="45.25531414996648" lon="8.467361974565984"><ele>119.0</ele><time>2026-04-11T16:20:15.999Z</time></trkpt><trkpt lat="45.25558888178566" lon="8.467379851689609"><ele>118.0</ele><time>2026-04-11T16:20:16.999Z</time></trkpt><trkpt lat="45.255865262292495" lon="8.467399156622157"><ele>117.0</ele><time>2026-04-11T16:20:17.999Z</time></trkpt><trkpt lat="45.25614080146959" lon="8.467419034799045"><ele>117.0</ele><time>2026-04-11T16:20:18.999Z</time></trkpt><trkpt lat="45.25641671158585" lon="8.467441591505166"><ele>117.0</ele><time>2026-04-11T16:20:19.999Z</time></trkpt><trkpt lat="45.25669222299244" lon="8.467459637641344"><ele>118.0</ele><time>2026-04-11T16:20:20.999Z</time></trkpt><trkpt lat="45.256968391901474" lon="8.467479110995646"><ele>119.0</ele><time>2026-04-11T16:20:21.999Z</time></trkpt><trkpt lat="45.25724434708497" lon="8.467499955200731"><ele>119.0</ele><time>2026-04-11T16:20:22.999Z</time></trkpt><trkpt lat="45.25751836352518" lon="8.467519466236869"><ele>119.0</ele><time>2026-04-11T16:20:23.999Z</time></trkpt><trkpt lat="45.25779305173255" lon="8.467540175604176"><ele>119.0</ele><time>2026-04-11T16:20:24.999Z</time></trkpt><trkpt lat="45.25806564229004" lon="8.467561351482"><ele>119.0</ele><time>2026-04-11T16:20:25.999Z</time></trkpt><trkpt lat="45.25833712127876" lon="8.467580492499682"><ele>119.5</ele><time>2026-04-11T16:20:26.999Z</time></trkpt><trkpt lat="45.25860920537803" lon="8.467597810273736"><ele>120.0</ele><time>2026-04-11T16:20:27.999Z</time></trkpt><trkpt lat="45.258879925416956" lon="8.467614936040235"><ele>120.0</ele><time>2026-04-11T16:20:28.999Z</time></trkpt><trkpt lat="45.25914621665836" lon="8.467636491330342"><ele>120.0</ele><time>2026-04-11T16:20:29.999Z</time></trkpt><trkpt lat="45.25941565440757" lon="8.46764994397997"><ele>120.0</ele><time>2026-04-11T16:20:30.999Z</time></trkpt><trkpt lat="45.25967310996953" lon="8.467675175321032"><ele>120.0</ele><time>2026-04-11T16:20:31.999Z</time></trkpt><trkpt lat="45.25993451752321" lon="8.467694425753447"><ele>119.5</ele><time>2026-04-11T16:20:32.999Z</time></trkpt><trkpt lat="45.26019301157556" lon="8.46771405295635"><ele>119.0</ele><time>2026-04-11T16:20:33.999Z</time></trkpt><trkpt lat="45.26045026507468" lon="8.467731344823825"><ele>118.5</ele><time>2026-04-11T16:20:34.999Z</time></trkpt><trkpt lat="45.26070346504566" lon="8.467749228938098"><ele>118.0</ele><time>2026-04-11T16:20:35.999Z</time></trkpt><trkpt lat="45.260961927629346" lon="8.467764386834007"><ele>118.0</ele><time>2026-04-11T16:20:36.999Z</time></trkpt><trkpt lat="45.26121361333124" lon="8.467781798505463"><ele>118.0</ele><time>2026-04-11T16:20:37.999Z</time></trkpt><trkpt lat="45.261465799566615" lon="8.467798243721846"><ele>118.0</ele><time>2026-04-11T16:20:38.999Z</time></trkpt><trkpt lat="45.261715531300176" lon="8.467818926509628"><ele>118.0</ele><time>2026-04-11T16:20:39.999Z</time></trkpt><trkpt lat="45.261961893971716" lon="8.467839735146438"><ele>118.0</ele><time>2026-04-11T16:20:40.999Z</time></trkpt><trkpt lat="45.262209419822426" lon="8.467864629974509"><ele>118.0</ele><time>2026-04-11T16:20:41.999Z</time></trkpt><trkpt lat="45.26245262203914" lon="8.467888070400306"><ele>117.5</ele><time>2026-04-11T16:20:42.999Z</time></trkpt><trkpt lat="45.26269339212038" lon="8.467916227443066"><ele>117.0</ele><time>2026-04-11T16:20:43.999Z</time></trkpt><trkpt lat="45.26293450573129" lon="8.467945424349766"><ele>117.5</ele><time>2026-04-11T16:20:44.999Z</time></trkpt><trkpt lat="45.26317732054721" lon="8.467976001988847"><ele>118.0</ele><time>2026-04-11T16:20:45.999Z</time></trkpt><trkpt lat="45.26341425756355" lon="8.46800747885653"><ele>118.0</ele><time>2026-04-11T16:20:46.999Z</time></trkpt><trkpt lat="45.263658479681254" lon="8.46803963742505"><ele>118.0</ele><time>2026-04-11T16:20:47.999Z</time></trkpt><trkpt lat="45.263894655805714" lon="8.46807705439758"><ele>117.5</ele><time>2026-04-11T16:20:48.999Z</time></trkpt><trkpt lat="45.26413422264883" lon="8.468116526955248"><ele>117.0</ele><time>2026-04-11T16:20:49.999Z</time></trkpt><trkpt lat="45.26437195255076" lon="8.468158465158043"><ele>117.0</ele><time>2026-04-11T16:20:50.999Z</time></trkpt><trkpt lat="45.26460789784186" lon="8.468203048723915"><ele>117.0</ele><time>2026-04-11T16:20:51.999Z</time></trkpt><trkpt lat="45.26485006058907" lon="8.468250009335286"><ele>118.0</ele><time>2026-04-11T16:20:52.999Z</time></trkpt><trkpt lat="45.26509229496124" lon="8.46829645311966"><ele>119.0</ele><time>2026-04-11T16:20:53.999Z</time></trkpt><trkpt lat="45.26532705508338" lon="8.468342378306277"><ele>119.0</ele><time>2026-04-11T16:20:54.999Z</time></trkpt><trkpt lat="45.26556687862418" lon="8.468393906451134"><ele>119.0</ele><time>2026-04-11T16:20:55.999Z</time></trkpt><trkpt lat="45.26580643155385" lon="8.468442316608831"><ele>119.5</ele><time>2026-04-11T16:20:56.999Z</time></trkpt><trkpt lat="45.26604707445855" lon="8.468492920010965"><ele>120.0</ele><time>2026-04-11T16:20:57.999Z</time></trkpt><trkpt lat="45.26628619485929" lon="8.468545751046682"><ele>120.0</ele><time>2026-04-11T16:20:58.999Z</time></trkpt><trkpt lat="45.266524395072956" lon="8.468603241470182"><ele>120.0</ele><time>2026-04-11T16:21:00Z</time></trkpt><trkpt lat="45.266765291361125" lon="8.468665270814265"><ele>120.0</ele><time>2026-04-11T16:21:01Z</time></trkpt><trkpt lat="45.26700359595973" lon="8.46872940231715"><ele>120.0</ele><time>2026-04-11T16:21:02Z</time></trkpt><trkpt lat="45.26723845838867" lon="8.468797821431888"><ele>119.5</ele><time>2026-04-11T16:21:03Z</time></trkpt><trkpt lat="45.26747707989433" lon="8.468862687382115"><ele>119.0</ele><time>2026-04-11T16:21:04Z</time></trkpt><trkpt lat="45.26771726279247" lon="8.468925611932002"><ele>119.0</ele><time>2026-04-11T16:21:05Z</time></trkpt><trkpt lat="45.26795587455352" lon="8.468988692303293"><ele>119.0</ele><time>2026-04-11T16:21:06Z</time></trkpt><trkpt lat="45.26819663326195" lon="8.469053060873723"><ele>119.0</ele><time>2026-04-11T16:21:07Z</time></trkpt><trkpt lat="45.268438359759" lon="8.469120279414398"><ele>119.0</ele><time>2026-04-11T16:21:08Z</time></trkpt><trkpt lat="45.268680367590946" lon="8.469187133098616"><ele>119.0</ele><time>2026-04-11T16:21:09Z</time></trkpt><trkpt lat="45.268924001376284" lon="8.469254830918539"><ele>119.0</ele><time>2026-04-11T16:21:10Z</time></trkpt><trkpt lat="45.26916781064898" lon="8.469322704106453"><ele>120.0</ele><time>2026-04-11T16:21:11Z</time></trkpt><trkpt lat="45.26940954336662" lon="8.469389663621865"><ele>121.0</ele><time>2026-04-11T16:21:12Z</time></trkpt><trkpt lat="45.269653625612754" lon="8.469457409523109"><ele>119.0</ele><time>2026-04-11T16:21:13Z</time></trkpt><trkpt lat="45.2698980073537" lon="8.469527871553074"><ele>117.0</ele><time>2026-04-11T16:21:14Z</time></trkpt><trkpt lat="45.270143518467" lon="8.469586626987585"><ele>116.0</ele><time>2026-04-11T16:21:15Z</time></trkpt><trkpt lat="45.270387840757316" lon="8.46965548413292"><ele>115.0</ele><time>2026-04-11T16:21:16Z</time></trkpt><trkpt lat="45.27063100269631" lon="8.469725311959554"><ele>115.0</ele><time>2026-04-11T16:21:17Z</time></trkpt><trkpt lat="45.270876468789574" lon="8.469794027474833"><ele>115.0</ele><time>2026-04-11T16:21:18Z</time></trkpt><trkpt lat="45.27111636430939" lon="8.469862537978688"><ele>115.0</ele><time>2026-04-11T16:21:19Z</time></trkpt><trkpt lat="45.27135603635343" lon="8.469928398494691"><ele>115.0</ele><time>2026-04-11T16:21:20Z</time></trkpt><trkpt lat="45.27159585671532" lon="8.469994351529683"><ele>114.5</ele><time>2026-04-11T16:21:21Z</time></trkpt><trkpt lat="45.271829784550896" lon="8.470058435761294"><ele>114.0</ele><time>2026-04-11T16:21:22Z</time></trkpt><trkpt lat="45.27206525864227" lon="8.47012147840756"><ele>114.5</ele><time>2026-04-11T16:21:23Z</time></trkpt><trkpt lat="45.272297420760765" lon="8.470186896650395"><ele>115.0</ele><time>2026-04-11T16:21:24Z</time></trkpt><trkpt lat="45.27252939812165" lon="8.47024853409397"><ele>115.0</ele><time>2026-04-11T16:21:25Z</time></trkpt><trkpt lat="45.272760472264" lon="8.470314908269835"><ele>115.0</ele><time>2026-04-11T16:21:26Z</time></trkpt><trkpt lat="45.27299285766018" lon="8.47037820880854"><ele>114.5</ele><time>2026-04-11T16:21:27Z</time></trkpt><trkpt lat="45.27322708748454" lon="8.470443057586404"><ele>114.0</ele><time>2026-04-11T16:21:28Z</time></trkpt><trkpt lat="45.27345944024618" lon="8.470507536059198"><ele>114.0</ele><time>2026-04-11T16:21:29Z</time></trkpt><trkpt lat="45.27369020870906" lon="8.470573022580291"><ele>114.0</ele><time>2026-04-11T16:21:30Z</time></trkpt><trkpt lat="45.27392316384146" lon="8.470636431420848"><ele>114.0</ele><time>2026-04-11T16:21:31Z</time></trkpt><trkpt lat="45.27415812709456" lon="8.470701424554335"><ele>114.0</ele><time>2026-04-11T16:21:32Z</time></trkpt><trkpt lat="45.27439429576009" lon="8.470766690529011"><ele>114.0</ele><time>2026-04-11T16:21:33Z</time></trkpt><trkpt lat="45.274632429479794" lon="8.470828453145858"><ele>114.0</ele><time>2026-04-11T16:21:34Z</time></trkpt><trkpt lat="45.274869893754364" lon="8.470890122339862"><ele>114.5</ele><time>2026-04-11T16:21:35Z</time></trkpt><trkpt lat="45.27510744828132" lon="8.470949365111027"><ele>115.0</ele><time>2026-04-11T16:21:36Z</time></trkpt><trkpt lat="45.27534912065619" lon="8.471004830288727"><ele>115.0</ele><time>2026-04-11T16:21:37Z</time></trkpt><trkpt lat="45.275589020927505" lon="8.471060137973664"><ele>115.0</ele><time>2026-04-11T16:21:38Z</time></trkpt><trkpt lat="45.275831090528264" lon="8.47111230741573"><ele>115.5</ele><time>2026-04-11T16:21:39Z</time></trkpt><trkpt lat="45.276074241854126" lon="8.471162225039022"><ele>116.0</ele><time>2026-04-11T16:21:40Z</time></trkpt><trkpt lat="45.276318454606134" lon="8.471209975537711"><ele>116.0</ele><time>2026-04-11T16:21:41Z</time></trkpt><trkpt lat="45.27656002513337" lon="8.47125632358973"><ele>116.0</ele><time>2026-04-11T16:21:42Z</time></trkpt><trkpt lat="45.276803462829314" lon="8.471298970401781"><ele>115.5</ele><time>2026-04-11T16:21:43Z</time></trkpt><trkpt lat="45.27704402526567" lon="8.471339233164176"><ele>115.0</ele><time>2026-04-11T16:21:44Z</time></trkpt><trkpt lat="45.27728553841308" lon="8.471373020847984"><ele>115.0</ele><time>2026-04-11T16:21:45Z</time></trkpt><trkpt lat="45.27752376971019" lon="8.471406467625918"><ele>115.0</ele><time>2026-04-11T16:21:46Z</time></trkpt><trkpt lat="45.27776150531926" lon="8.471440644021252"><ele>115.0</ele><time>2026-04-11T16:21:47Z</time></trkpt><trkpt lat="45.27799881682987" lon="8.471472867655901"><ele>115.0</ele><time>2026-04-11T16:21:48Z</time></trkpt><trkpt lat="45.27823494568092" lon="8.471500388118992"><ele>114.5</ele><time>2026-04-11T16:21:49Z</time></trkpt><trkpt lat="45.27847410228915" lon="8.471525150084146"><ele>114.0</ele><time>2026-04-11T16:21:50Z</time></trkpt><trkpt lat="45.278709161639924" lon="8.471549189514274"><ele>114.5</ele><time>2026-04-11T16:21:51Z</time></trkpt><trkpt lat="45.27894102126769" lon="8.471570786590283"><ele>115.0</ele><time>2026-04-11T16:21:52Z</time></trkpt><trkpt lat="45.279170304480424" lon="8.471590500808222"><ele>115.0</ele><time>2026-04-11T16:21:53Z</time></trkpt><trkpt lat="45.27940388989139" lon="8.471605792801828"><ele>115.0</ele><time>2026-04-11T16:21:54Z</time></trkpt><trkpt lat="45.27963789650235" lon="8.471618944050638"><ele>116.0</ele><time>2026-04-11T16:21:55Z</time></trkpt><trkpt lat="45.279870600531915" lon="8.471634101813633"><ele>117.0</ele><time>2026-04-11T16:21:56Z</time></trkpt><trkpt lat="45.28009968649865" lon="8.471638993686506"><ele>117.0</ele><time>2026-04-11T16:21:57Z</time></trkpt><trkpt lat="45.280333077281746" lon="8.471650148796828"><ele>117.0</ele><time>2026-04-11T16:21:58Z</time></trkpt><trkpt lat="45.280570529088834" lon="8.471665253951986"><ele>117.0</ele><time>2026-04-11T16:21:59Z</time></trkpt><trkpt lat="45.280809344572724" lon="8.471665267756846"><ele>117.0</ele><time>2026-04-11T16:22:00Z</time></trkpt><trkpt lat="45.28104327758447" lon="8.471666232052316"><ele>117.0</ele><time>2026-04-11T16:22:01Z</time></trkpt><trkpt lat="45.28127742355444" lon="8.47166334092205"><ele>117.0</ele><time>2026-04-11T16:22:02Z</time></trkpt><trkpt lat="45.28151731742583" lon="8.471659382916739"><ele>116.0</ele><time>2026-04-11T16:22:03Z</time></trkpt><trkpt lat="45.28175435833103" lon="8.47165475038703"><ele>115.0</ele><time>2026-04-11T16:22:03.999Z</time></trkpt><trkpt lat="45.28199423974358" lon="8.471644361541362"><ele>115.0</ele><time>2026-04-11T16:22:04.999Z</time></trkpt><trkpt lat="45.28223203461543" lon="8.47163701340576"><ele>115.0</ele><time>2026-04-11T16:22:05.999Z</time></trkpt><trkpt lat="45.282469737670844" lon="8.471626129954416"><ele>115.5</ele><time>2026-04-11T16:22:06.999Z</time></trkpt><trkpt lat="45.28270854270554" lon="8.47161464628151"><ele>116.0</ele><time>2026-04-11T16:22:07.999Z</time></trkpt><trkpt lat="45.28294685826969" lon="8.471607166135573"><ele>115.5</ele><time>2026-04-11T16:22:08.999Z</time></trkpt><trkpt lat="45.283184583715844" lon="8.471598585789744"><ele>115.0</ele><time>2026-04-11T16:22:09.999Z</time></trkpt><trkpt lat="45.28342210896923" lon="8.471588560826078"><ele>115.0</ele><time>2026-04-11T16:22:10.999Z</time></trkpt><trkpt lat="45.28366034943613" lon="8.471581298980782"><ele>115.0</ele><time>2026-04-11T16:22:11.999Z</time></trkpt><trkpt lat="45.283899873099344" lon="8.471571371215123"><ele>115.0</ele><time>2026-04-11T16:22:12.999Z</time></trkpt><trkpt lat="45.284139061974976" lon="8.471560638034813"><ele>115.0</ele><time>2026-04-11T16:22:13.999Z</time></trkpt><trkpt lat="45.284380679270946" lon="8.471550835600537"><ele>115.0</ele><time>2026-04-11T16:22:14.999Z</time></trkpt><trkpt lat="45.284619688676216" lon="8.471540702541539"><ele>115.0</ele><time>2026-04-11T16:22:15.999Z</time></trkpt><trkpt lat="45.284855831031244" lon="8.47153314056193"><ele>115.5</ele><time>2026-04-11T16:22:16.999Z</time></trkpt><trkpt lat="45.28509567174061" lon="8.471526073336031"><ele>116.0</ele><time>2026-04-11T16:22:17.999Z</time></trkpt><trkpt lat="45.28533418746376" lon="8.471519042679063"><ele>116.0</ele><time>2026-04-11T16:22:18.999Z</time></trkpt><trkpt lat="45.28557375458324" lon="8.471509963683253"><ele>116.0</ele><time>2026-04-11T16:22:19.999Z</time></trkpt><trkpt lat="45.28581423910384" lon="8.471500427630009"><ele>116.5</ele><time>2026-04-11T16:22:20.999Z</time></trkpt><trkpt lat="45.28605148669247" lon="8.471496046997338"><ele>117.0</ele><time>2026-04-11T16:22:22Z</time></trkpt><trkpt lat="45.28629200803444" lon="8.471485729286746"><ele>117.0</ele><time>2026-04-11T16:22:23Z</time></trkpt><trkpt lat="45.286532987577004" lon="8.471477571930926"><ele>117.0</ele><time>2026-04-11T16:22:24Z</time></trkpt><trkpt lat="45.28677383365369" lon="8.471467027645556"><ele>117.0</ele><time>2026-04-11T16:22:25Z</time></trkpt><trkpt lat="45.287015136648655" lon="8.471456381517903"><ele>117.0</ele><time>2026-04-11T16:22:26Z</time></trkpt><trkpt lat="45.28725764556553" lon="8.471446215387077"><ele>117.5</ele><time>2026-04-11T16:22:27Z</time></trkpt><trkpt lat="45.287501503858294" lon="8.471434987551984"><ele>118.0</ele><time>2026-04-11T16:22:28Z</time></trkpt><trkpt lat="45.28774388581788" lon="8.471426919340681"><ele>118.0</ele><time>2026-04-11T16:22:29Z</time></trkpt><trkpt lat="45.28799084162568" lon="8.471416565909218"><ele>118.0</ele><time>2026-04-11T16:22:30Z</time></trkpt><trkpt lat="45.28823440151538" lon="8.471409440425031"><ele>117.0</ele><time>2026-04-11T16:22:31Z</time></trkpt><trkpt lat="45.288475919264805" lon="8.471403012492665"><ele>116.0</ele><time>2026-04-11T16:22:32Z</time></trkpt><trkpt lat="45.288722307970936" lon="8.471389536474941"><ele>116.5</ele><time>2026-04-11T16:22:33Z</time></trkpt><trkpt lat="45.28896758768331" lon="8.471381349122035"><ele>117.0</ele><time>2026-04-11T16:22:34Z</time></trkpt><trkpt lat="45.28921286248948" lon="8.471373223294238"><ele>117.0</ele><time>2026-04-11T16:22:35Z</time></trkpt><trkpt lat="45.289461416914904" lon="8.471361460735663"><ele>117.0</ele><time>2026-04-11T16:22:36Z</time></trkpt><trkpt lat="45.28971003571309" lon="8.471350541091695"><ele>116.5</ele><time>2026-04-11T16:22:37Z</time></trkpt><trkpt lat="45.28995889332413" lon="8.471340723873233"><ele>116.0</ele><time>2026-04-11T16:22:38Z</time></trkpt><trkpt lat="45.29020927770068" lon="8.471329967365051"><ele>116.0</ele><time>2026-04-11T16:22:39Z</time></trkpt><trkpt lat="45.2904570302024" lon="8.471322516592117"><ele>116.0</ele><time>2026-04-11T16:22:40Z</time></trkpt><trkpt lat="45.29070372850526" lon="8.471316399695313"><ele>116.0</ele><time>2026-04-11T16:22:41Z</time></trkpt><trkpt lat="45.2909539460451" lon="8.471305590468948"><ele>116.0</ele><time>2026-04-11T16:22:42Z</time></trkpt><trkpt lat="45.29120220939516" lon="8.471294034946554"><ele>116.5</ele><time>2026-04-11T16:22:43Z</time></trkpt><trkpt lat="45.29145011084613" lon="8.471283881732283"><ele>117.0</ele><time>2026-04-11T16:22:44Z</time></trkpt><trkpt lat="45.29169576475429" lon="8.471274539237086"><ele>117.5</ele><time>2026-04-11T16:22:45Z</time></trkpt><trkpt lat="45.291942175287026" lon="8.471266596099445"><ele>118.0</ele><time>2026-04-11T16:22:46Z</time></trkpt><trkpt lat="45.29218600336801" lon="8.471258561921879"><ele>119.0</ele><time>2026-04-11T16:22:47Z</time></trkpt><trkpt lat="45.29243447921791" lon="8.471246949656773"><ele>120.0</ele><time>2026-04-11T16:22:48Z</time></trkpt><trkpt lat="45.29268028695348" lon="8.471237858388184"><ele>120.0</ele><time>2026-04-11T16:22:49Z</time></trkpt><trkpt lat="45.292926760299636" lon="8.471228712909314"><ele>120.0</ele><time>2026-04-11T16:22:50Z</time></trkpt><trkpt lat="45.293170600900446" lon="8.471220395472569"><ele>119.5</ele><time>2026-04-11T16:22:51Z</time></trkpt><trkpt lat="45.29341659382827" lon="8.471212035698187"><ele>119.0</ele><time>2026-04-11T16:22:52Z</time></trkpt><trkpt lat="45.29366024783695" lon="8.471202155752088"><ele>119.0</ele><time>2026-04-11T16:22:53Z</time></trkpt><trkpt lat="45.293905302972576" lon="8.471192372897558"><ele>119.0</ele><time>2026-04-11T16:22:54Z</time></trkpt><trkpt lat="45.29415169322024" lon="8.471181537102945"><ele>119.5</ele><time>2026-04-11T16:22:55Z</time></trkpt><trkpt lat="45.29439721254025" lon="8.471173249891857"><ele>120.0</ele><time>2026-04-11T16:22:56Z</time></trkpt><trkpt lat="45.29463913685003" lon="8.471167335322383"><ele>120.0</ele><time>2026-04-11T16:22:57Z</time></trkpt><trkpt lat="45.29488265223964" lon="8.471155388530786"><ele>120.0</ele><time>2026-04-11T16:22:58Z</time></trkpt><trkpt lat="45.29512706976337" lon="8.471142555423654"><ele>120.0</ele><time>2026-04-11T16:22:59Z</time></trkpt><trkpt lat="45.29537141829745" lon="8.471129631684905"><ele>120.0</ele><time>2026-04-11T16:23:00Z</time></trkpt><trkpt lat="45.29561754962154" lon="8.471118210949227"><ele>119.5</ele><time>2026-04-11T16:23:01Z</time></trkpt><trkpt lat="45.29586354064211" lon="8.471107469062463"><ele>119.0</ele><time>2026-04-11T16:23:02Z</time></trkpt><trkpt lat="45.29611034443612" lon="8.471098663923872"><ele>119.0</ele><time>2026-04-11T16:23:03Z</time></trkpt><trkpt lat="45.296360774081315" lon="8.471090473999114"><ele>119.0</ele><time>2026-04-11T16:23:04Z</time></trkpt><trkpt lat="45.2966143348298" lon="8.471076835554303"><ele>119.0</ele><time>2026-04-11T16:23:05Z</time></trkpt><trkpt lat="45.29686706291184" lon="8.471063233441264"><ele>119.0</ele><time>2026-04-11T16:23:06Z</time></trkpt><trkpt lat="45.29712522872388" lon="8.47105596711304"><ele>118.5</ele><time>2026-04-11T16:23:07Z</time></trkpt><trkpt lat="45.29738211785457" lon="8.471047303469637"><ele>118.0</ele><time>2026-04-11T16:23:08Z</time></trkpt><trkpt lat="45.29764050810343" lon="8.471037452088739"><ele>118.0</ele><time>2026-04-11T16:23:09Z</time></trkpt><trkpt lat="45.29789765152886" lon="8.471027459309331"><ele>118.0</ele><time>2026-04-11T16:23:10Z</time></trkpt><trkpt lat="45.29815391066975" lon="8.471021492013124"><ele>118.5</ele><time>2026-04-11T16:23:11Z</time></trkpt><trkpt lat="45.29841120885214" lon="8.471011011900448"><ele>119.0</ele><time>2026-04-11T16:23:12Z</time></trkpt><trkpt lat="45.29866499772518" lon="8.471003219987418"><ele>119.0</ele><time>2026-04-11T16:23:13Z</time></trkpt><trkpt lat="45.29891625427343" lon="8.47099275908372"><ele>119.0</ele><time>2026-04-11T16:23:14Z</time></trkpt><trkpt lat="45.29916786904318" lon="8.470982918653855"><ele>119.5</ele><time>2026-04-11T16:23:15Z</time></trkpt><trkpt lat="45.29941465399597" lon="8.470973318224136"><ele>120.0</ele><time>2026-04-11T16:23:16Z</time></trkpt><trkpt lat="45.299662059576754" lon="8.470963313792689"><ele>119.5</ele><time>2026-04-11T16:23:17Z</time></trkpt><trkpt lat="45.29990577207414" lon="8.470952846134672"><ele>119.0</ele><time>2026-04-11T16:23:18Z</time></trkpt><trkpt lat="45.300147760039344" lon="8.470946210282582"><ele>119.0</ele><time>2026-04-11T16:23:19Z</time></trkpt><trkpt lat="45.30039305039138" lon="8.470935568936088"><ele>119.0</ele><time>2026-04-11T16:23:20Z</time></trkpt><trkpt lat="45.30063326418986" lon="8.470929868768279"><ele>119.0</ele><time>2026-04-11T16:23:21Z</time></trkpt><trkpt lat="45.30087202681762" lon="8.470918369100055"><ele>119.0</ele><time>2026-04-11T16:23:22Z</time></trkpt><trkpt lat="45.3011108531785" lon="8.470906046152951"><ele>119.0</ele><time>2026-04-11T16:23:23Z</time></trkpt><trkpt lat="45.3013470416574" lon="8.470893920465965"><ele>119.0</ele><time>2026-04-11T16:23:24Z</time></trkpt><trkpt lat="45.301583855259985" lon="8.470883152549892"><ele>119.5</ele><time>2026-04-11T16:23:25Z</time></trkpt><trkpt lat="45.30182085309546" lon="8.470875668205615"><ele>120.0</ele><time>2026-04-11T16:23:26Z</time></trkpt><trkpt lat="45.30205995973474" lon="8.470869431713039"><ele>119.0</ele><time>2026-04-11T16:23:27Z</time></trkpt><trkpt lat="45.30229885562306" lon="8.47086209204887"><ele>118.0</ele><time>2026-04-11T16:23:28Z</time></trkpt><trkpt lat="45.30253609606657" lon="8.470852237894896"><ele>118.0</ele><time>2026-04-11T16:23:29Z</time></trkpt><trkpt lat="45.302774923183094" lon="8.470837308388663"><ele>118.0</ele><time>2026-04-11T16:23:30Z</time></trkpt><trkpt lat="45.30301038684535" lon="8.470826944909428"><ele>117.0</ele><time>2026-04-11T16:23:31Z</time></trkpt><trkpt lat="45.303245711781635" lon="8.470818807330422"><ele>116.0</ele><time>2026-04-11T16:23:32Z</time></trkpt><trkpt lat="45.303478264325655" lon="8.47081210114338"><ele>116.0</ele><time>2026-04-11T16:23:33Z</time></trkpt><trkpt lat="45.30371064310324" lon="8.47080492298934"><ele>116.0</ele><time>2026-04-11T16:23:34Z</time></trkpt><trkpt lat="45.303942100308774" lon="8.470797909555579"><ele>115.5</ele><time>2026-04-11T16:23:35Z</time></trkpt><trkpt lat="45.30417428012564" lon="8.470788102441775"><ele>115.0</ele><time>2026-04-11T16:23:36Z</time></trkpt><trkpt lat="45.30440737841937" lon="8.470777361163703"><ele>115.0</ele><time>2026-04-11T16:23:37Z</time></trkpt><trkpt lat="45.30463980569312" lon="8.470768041248702"><ele>115.0</ele><time>2026-04-11T16:23:38Z</time></trkpt><trkpt lat="45.304870795264144" lon="8.470761000240364"><ele>116.0</ele><time>2026-04-11T16:23:39Z</time></trkpt><trkpt lat="45.30510253049073" lon="8.470752950354202"><ele>117.0</ele><time>2026-04-11T16:23:40Z</time></trkpt><trkpt lat="45.305335572366864" lon="8.470742029976972"><ele>117.0</ele><time>2026-04-11T16:23:41Z</time></trkpt><trkpt lat="45.305569006728206" lon="8.470730934522217"><ele>117.0</ele><time>2026-04-11T16:23:42Z</time></trkpt><trkpt lat="45.305797768134134" lon="8.470721616754183"><ele>116.5</ele><time>2026-04-11T16:23:43Z</time></trkpt><trkpt lat="45.30602962154093" lon="8.47071198663868"><ele>116.0</ele><time>2026-04-11T16:23:44Z</time></trkpt><trkpt lat="45.306263280971564" lon="8.47070081912281"><ele>116.5</ele><time>2026-04-11T16:23:45Z</time></trkpt><trkpt lat="45.306493920355734" lon="8.47069140265021"><ele>117.0</ele><time>2026-04-11T16:23:46Z</time></trkpt><trkpt lat="45.306723241777625" lon="8.47068300725483"><ele>117.0</ele><time>2026-04-11T16:23:47Z</time></trkpt><trkpt lat="45.3069563684891" lon="8.47067577874292"><ele>117.0</ele><time>2026-04-11T16:23:48Z</time></trkpt><trkpt lat="45.30718793693634" lon="8.470668840511154"><ele>117.5</ele><time>2026-04-11T16:23:49Z</time></trkpt><trkpt lat="45.30742161861297" lon="8.470660700730148"><ele>118.0</ele><time>2026-04-11T16:23:50Z</time></trkpt><trkpt lat="45.30765324161286" lon="8.470651637317445"><ele>118.0</ele><time>2026-04-11T16:23:51Z</time></trkpt><trkpt lat="45.30788349530468" lon="8.470644641332816"><ele>118.0</ele><time>2026-04-11T16:23:52Z</time></trkpt><trkpt lat="45.30811692687074" lon="8.470635716751035"><ele>119.0</ele><time>2026-04-11T16:23:53Z</time></trkpt><trkpt lat="45.3083480418082" lon="8.470629480825611"><ele>120.0</ele><time>2026-04-11T16:23:54Z</time></trkpt><trkpt lat="45.308579044499325" lon="8.470623724372805"><ele>120.0</ele><time>2026-04-11T16:23:55Z</time></trkpt><trkpt lat="45.30880722393178" lon="8.470618027001908"><ele>120.0</ele><time>2026-04-11T16:23:56Z</time></trkpt><trkpt lat="45.30904071088147" lon="8.470608123185245"><ele>120.5</ele><time>2026-04-11T16:23:57Z</time></trkpt><trkpt lat="45.309271687122084" lon="8.47060031720393"><ele>121.0</ele><time>2026-04-11T16:23:58Z</time></trkpt><trkpt lat="45.30950537800241" lon="8.470589366929884"><ele>121.0</ele><time>2026-04-11T16:23:59Z</time></trkpt><trkpt lat="45.309740765547204" lon="8.470580774165791"><ele>121.0</ele><time>2026-04-11T16:24:00Z</time></trkpt><trkpt lat="45.309976165041334" lon="8.47057094950655"><ele>121.5</ele><time>2026-04-11T16:24:01Z</time></trkpt><trkpt lat="45.31021358918944" lon="8.470561705713136"><ele>122.0</ele><time>2026-04-11T16:24:02Z</time></trkpt><trkpt lat="45.31045243208209" lon="8.47055030017909"><ele>122.0</ele><time>2026-04-11T16:24:03Z</time></trkpt><trkpt lat="45.310687336290556" lon="8.470543325638737"><ele>122.0</ele><time>2026-04-11T16:24:04Z</time></trkpt><trkpt lat="45.31092807603416" lon="8.47053276302753"><ele>122.0</ele><time>2026-04-11T16:24:05Z</time></trkpt><trkpt lat="45.31116745904695" lon="8.470522567962144"><ele>122.0</ele><time>2026-04-11T16:24:06Z</time></trkpt><trkpt lat="45.311405602385555" lon="8.470513303137988"><ele>122.0</ele><time>2026-04-11T16:24:07Z</time></trkpt><trkpt lat="45.31164293177596" lon="8.470505679204726"><ele>122.0</ele><time>2026-04-11T16:24:08Z</time></trkpt><trkpt lat="45.31188332903798" lon="8.470495629435337"><ele>122.0</ele><time>2026-04-11T16:24:09Z</time></trkpt><trkpt lat="45.312114002214585" lon="8.470492126685668"><ele>122.0</ele><time>2026-04-11T16:24:10Z</time></trkpt><trkpt lat="45.312353061753065" lon="8.47048202136748"><ele>121.5</ele><time>2026-04-11T16:24:11Z</time></trkpt><trkpt lat="45.31259079113349" lon="8.470469873161719"><ele>121.0</ele><time>2026-04-11T16:24:12Z</time></trkpt><trkpt lat="45.31282695719104" lon="8.470462213504282"><ele>121.0</ele><time>2026-04-11T16:24:13Z</time></trkpt><trkpt lat="45.31306071158207" lon="8.470456344548863"><ele>121.0</ele><time>2026-04-11T16:24:14Z</time></trkpt><trkpt lat="45.313299146826274" lon="8.470446185428521"><ele>121.0</ele><time>2026-04-11T16:24:15Z</time></trkpt><trkpt lat="45.31354412209382" lon="8.47042925175387"><ele>121.0</ele><time>2026-04-11T16:24:16Z</time></trkpt><trkpt lat="45.31379170965679" lon="8.470405531378967"><ele>120.5</ele><time>2026-04-11T16:24:17Z</time></trkpt><trkpt lat="45.314008015964355" lon="8.470417086816056"><ele>120.0</ele><time>2026-04-11T16:24:18Z</time></trkpt><trkpt lat="45.31424397755617" lon="8.470407100285287"><ele>120.0</ele><time>2026-04-11T16:24:19Z</time></trkpt><trkpt lat="45.314482649690106" lon="8.470396389114688"><ele>120.0</ele><time>2026-04-11T16:24:20Z</time></trkpt><trkpt lat="45.314718033809136" lon="8.470392113138125"><ele>120.0</ele><time>2026-04-11T16:24:21Z</time></trkpt><trkpt lat="45.31495428125177" lon="8.470385096147954"><ele>120.0</ele><time>2026-04-11T16:24:22Z</time></trkpt><trkpt lat="45.315189064638005" lon="8.470381078826508"><ele>120.0</ele><time>2026-04-11T16:24:23Z</time></trkpt><trkpt lat="45.31542450842493" lon="8.470372033131458"><ele>120.0</ele><time>2026-04-11T16:24:24Z</time></trkpt><trkpt lat="45.31566304136084" lon="8.470358108751336"><ele>119.5</ele><time>2026-04-11T16:24:25Z</time></trkpt><trkpt lat="45.315902841957254" lon="8.470346044341454"><ele>119.0</ele><time>2026-04-11T16:24:26Z</time></trkpt><trkpt lat="45.31614202068342" lon="8.470336030883445"><ele>119.0</ele><time>2026-04-11T16:24:27Z</time></trkpt><trkpt lat="45.316377758857804" lon="8.470327349810724"><ele>119.0</ele><time>2026-04-11T16:24:28Z</time></trkpt><trkpt lat="45.316616572953" lon="8.470318506219739"><ele>119.0</ele><time>2026-04-11T16:24:29Z</time></trkpt><trkpt lat="45.3168547686437" lon="8.47030927605776"><ele>119.0</ele><time>2026-04-11T16:24:30Z</time></trkpt><trkpt lat="45.31709290104436" lon="8.470301386741605"><ele>118.5</ele><time>2026-04-11T16:24:31Z</time></trkpt><trkpt lat="45.3173309082953" lon="8.470291522453824"><ele>118.0</ele><time>2026-04-11T16:24:32Z</time></trkpt><trkpt lat="45.31756776414238" lon="8.47028563590963"><ele>118.0</ele><time>2026-04-11T16:24:33Z</time></trkpt><trkpt lat="45.317805879234186" lon="8.470278801169451"><ele>118.0</ele><time>2026-04-11T16:24:34Z</time></trkpt><trkpt lat="45.3180454993633" lon="8.470272368825071"><ele>118.5</ele><time>2026-04-11T16:24:35Z</time></trkpt><trkpt lat="45.31828492776115" lon="8.47026785183991"><ele>119.0</ele><time>2026-04-11T16:24:36Z</time></trkpt><trkpt lat="45.31853211115138" lon="8.470258047381778"><ele>119.0</ele><time>2026-04-11T16:24:37Z</time></trkpt><trkpt lat="45.31878034888532" lon="8.470248189325499"><ele>119.0</ele><time>2026-04-11T16:24:38Z</time></trkpt><trkpt lat="45.31902886050572" lon="8.470236460092721"><ele>119.0</ele><time>2026-04-11T16:24:39Z</time></trkpt><trkpt lat="45.31927828644451" lon="8.470225469271417"><ele>119.0</ele><time>2026-04-11T16:24:40Z</time></trkpt><trkpt lat="45.319527138840634" lon="8.470217658417598"><ele>119.5</ele><time>2026-04-11T16:24:41Z</time></trkpt><trkpt lat="45.31977527259663" lon="8.470210843484683"><ele>120.0</ele><time>2026-04-11T16:24:42Z</time></trkpt><trkpt lat="45.32002706297702" lon="8.470200050279619"><ele>120.0</ele><time>2026-04-11T16:24:43Z</time></trkpt><trkpt lat="45.32027725360534" lon="8.470190050644616"><ele>120.0</ele><time>2026-04-11T16:24:44Z</time></trkpt><trkpt lat="45.32052727047802" lon="8.470180497581424"><ele>120.0</ele><time>2026-04-11T16:24:45Z</time></trkpt><trkpt lat="45.32077887494362" lon="8.470172513209915"><ele>120.0</ele><time>2026-04-11T16:24:46Z</time></trkpt><trkpt lat="45.32102795896673" lon="8.470165466433508"><ele>120.0</ele><time>2026-04-11T16:24:47Z</time></trkpt><trkpt lat="45.3212784993664" lon="8.470153397731371"><ele>120.0</ele><time>2026-04-11T16:24:48Z</time></trkpt><trkpt lat="45.321526862350936" lon="8.470144762797085"><ele>119.5</ele><time>2026-04-11T16:24:49Z</time></trkpt><trkpt lat="45.321773962954275" lon="8.470136557336067"><ele>119.0</ele><time>2026-04-11T16:24:50Z</time></trkpt><trkpt lat="45.32202354799416" lon="8.470126452734926"><ele>120.5</ele><time>2026-04-11T16:24:51Z</time></trkpt><trkpt lat="45.3222654843627" lon="8.470119971418614"><ele>122.0</ele><time>2026-04-11T16:24:52Z</time></trkpt><trkpt lat="45.32250704789894" lon="8.470114778121493"><ele>122.0</ele><time>2026-04-11T16:24:53Z</time></trkpt><trkpt lat="45.322749262767495" lon="8.470110223097267"><ele>122.0</ele><time>2026-04-11T16:24:54Z</time></trkpt><trkpt lat="45.32298669421728" lon="8.470109354029788"><ele>121.5</ele><time>2026-04-11T16:24:55Z</time></trkpt><trkpt lat="45.32322589716891" lon="8.4701119358468"><ele>121.0</ele><time>2026-04-11T16:24:56Z</time></trkpt><trkpt lat="45.323461934768375" lon="8.470117964880231"><ele>121.0</ele><time>2026-04-11T16:24:57Z</time></trkpt><trkpt lat="45.32369867594817" lon="8.470121149543104"><ele>121.0</ele><time>2026-04-11T16:24:58Z</time></trkpt><trkpt lat="45.3239280311563" lon="8.470126702774792"><ele>121.0</ele><time>2026-04-11T16:24:59Z</time></trkpt><trkpt lat="45.324153836728115" lon="8.470132879831391"><ele>121.0</ele><time>2026-04-11T16:25:00Z</time></trkpt><trkpt lat="45.324379806436674" lon="8.470137777145789"><ele>121.0</ele><time>2026-04-11T16:25:01Z</time></trkpt><trkpt lat="45.324603341278255" lon="8.470148810379852"><ele>121.0</ele><time>2026-04-11T16:25:02Z</time></trkpt><trkpt lat="45.32482899120534" lon="8.470158485796375"><ele>121.0</ele><time>2026-04-11T16:25:03Z</time></trkpt><trkpt lat="45.32505177562896" lon="8.470173714731343"><ele>121.0</ele><time>2026-04-11T16:25:04Z</time></trkpt><trkpt lat="45.32528359994597" lon="8.470190012470324"><ele>121.0</ele><time>2026-04-11T16:25:05Z</time></trkpt><trkpt lat="45.32551724419991" lon="8.470210546185013"><ele>119.5</ele><time>2026-04-11T16:25:06Z</time></trkpt><trkpt lat="45.325752524301784" lon="8.47022811838784"><ele>118.0</ele><time>2026-04-11T16:25:07Z</time></trkpt><trkpt lat="45.32599054424473" lon="8.470247519647346"><ele>118.0</ele><time>2026-04-11T16:25:08Z</time></trkpt><trkpt lat="45.32622484830225" lon="8.470271372747701"><ele>118.0</ele><time>2026-04-11T16:25:09Z</time></trkpt><trkpt lat="45.326460651667226" lon="8.470297823392967"><ele>119.0</ele><time>2026-04-11T16:25:10Z</time></trkpt><trkpt lat="45.326690900643015" lon="8.470326974118118"><ele>120.0</ele><time>2026-04-11T16:25:11Z</time></trkpt><trkpt lat="45.32692724449563" lon="8.470354821872386"><ele>120.0</ele><time>2026-04-11T16:25:12Z</time></trkpt><trkpt lat="45.32715688119342" lon="8.47038679238944"><ele>120.0</ele><time>2026-04-11T16:25:13Z</time></trkpt><trkpt lat="45.327393476077326" lon="8.47041536673963"><ele>119.5</ele><time>2026-04-11T16:25:14Z</time></trkpt><trkpt lat="45.32762412757505" lon="8.470447577744658"><ele>119.0</ele><time>2026-04-11T16:25:15Z</time></trkpt><trkpt lat="45.32785578392449" lon="8.470483572420559"><ele>120.0</ele><time>2026-04-11T16:25:16Z</time></trkpt><trkpt lat="45.328091043227694" lon="8.470521099925977"><ele>121.0</ele><time>2026-04-11T16:25:17Z</time></trkpt><trkpt lat="45.328321160288766" lon="8.470562712510267"><ele>121.0</ele><time>2026-04-11T16:25:18Z</time></trkpt><trkpt lat="45.32855667629925" lon="8.470603117102726"><ele>121.0</ele><time>2026-04-11T16:25:19Z</time></trkpt><trkpt lat="45.32879327707441" lon="8.470646823962705"><ele>121.0</ele><time>2026-04-11T16:25:20Z</time></trkpt><trkpt lat="45.32902578156964" lon="8.4706953569949"><ele>121.0</ele><time>2026-04-11T16:25:21Z</time></trkpt><trkpt lat="45.32926564193005" lon="8.470735062310595"><ele>121.0</ele><time>2026-04-11T16:25:22Z</time></trkpt><trkpt lat="45.32950024822804" lon="8.470781031141575"><ele>121.0</ele><time>2026-04-11T16:25:23Z</time></trkpt><trkpt lat="45.329736111385635" lon="8.470829676674478"><ele>121.5</ele><time>2026-04-11T16:25:24Z</time></trkpt><trkpt lat="45.329968755990464" lon="8.470879803562733"><ele>122.0</ele><time>2026-04-11T16:25:25Z</time></trkpt><trkpt lat="45.33020362669946" lon="8.470932710627858"><ele>122.0</ele><time>2026-04-11T16:25:26Z</time></trkpt><trkpt lat="45.33043536174165" lon="8.470987801715893"><ele>122.0</ele><time>2026-04-11T16:25:27Z</time></trkpt><trkpt lat="45.33066480774111" lon="8.471045864199873"><ele>121.0</ele><time>2026-04-11T16:25:28Z</time></trkpt><trkpt lat="45.33089867988803" lon="8.471103338776567"><ele>120.0</ele><time>2026-04-11T16:25:29Z</time></trkpt><trkpt lat="45.33113569497944" lon="8.471164390543695"><ele>120.0</ele><time>2026-04-11T16:25:30Z</time></trkpt><trkpt lat="45.33137615898338" lon="8.471227949555932"><ele>120.0</ele><time>2026-04-11T16:25:31Z</time></trkpt><trkpt lat="45.3316168278819" lon="8.471293181217371"><ele>120.5</ele><time>2026-04-11T16:25:32Z</time></trkpt><trkpt lat="45.33185766771925" lon="8.471360218146163"><ele>121.0</ele><time>2026-04-11T16:25:33Z</time></trkpt><trkpt lat="45.33210123791828" lon="8.471432313794306"><ele>121.0</ele><time>2026-04-11T16:25:34Z</time></trkpt><trkpt lat="45.332342353328116" lon="8.471506214810706"><ele>121.0</ele><time>2026-04-11T16:25:35Z</time></trkpt><trkpt lat="45.33259066297517" lon="8.471581526512919"><ele>121.0</ele><time>2026-04-11T16:25:36Z</time></trkpt><trkpt lat="45.332833748381475" lon="8.471659119017028"><ele>121.0</ele><time>2026-04-11T16:25:37Z</time></trkpt><trkpt lat="45.33307967579156" lon="8.47173879845711"><ele>121.5</ele><time>2026-04-11T16:25:38.001Z</time></trkpt><trkpt lat="45.33332463680096" lon="8.471816962865715"><ele>122.0</ele><time>2026-04-11T16:25:39.001Z</time></trkpt><trkpt lat="45.333570975632135" lon="8.471900470457282"><ele>122.0</ele><time>2026-04-11T16:25:40.001Z</time></trkpt><trkpt lat="45.33381522791633" lon="8.471985540451486"><ele>122.0</ele><time>2026-04-11T16:25:41.001Z</time></trkpt><trkpt lat="45.334061130806425" lon="8.472071157473579"><ele>120.5</ele><time>2026-04-11T16:25:42.001Z</time></trkpt><trkpt lat="45.33430060493685" lon="8.472157458396783"><ele>119.0</ele><time>2026-04-11T16:25:43.001Z</time></trkpt><trkpt lat="45.334544349682716" lon="8.47224735917122"><ele>119.5</ele><time>2026-04-11T16:25:44.001Z</time></trkpt><trkpt lat="45.33478265329871" lon="8.472339709766372"><ele>120.0</ele><time>2026-04-11T16:25:45.001Z</time></trkpt><trkpt lat="45.33502128804498" lon="8.472434547196922"><ele>120.0</ele><time>2026-04-11T16:25:46.001Z</time></trkpt><trkpt lat="45.335261710513166" lon="8.472528888530451"><ele>120.0</ele><time>2026-04-11T16:25:47.001Z</time></trkpt><trkpt lat="45.335496943095976" lon="8.472624066348038"><ele>120.0</ele><time>2026-04-11T16:25:48.001Z</time></trkpt><trkpt lat="45.33573503001082" lon="8.472721201783495"><ele>120.0</ele><time>2026-04-11T16:25:49.001Z</time></trkpt><trkpt lat="45.33597165550333" lon="8.472821989099012"><ele>120.0</ele><time>2026-04-11T16:25:50.001Z</time></trkpt><trkpt lat="45.33621335896237" lon="8.472922405707509"><ele>120.0</ele><time>2026-04-11T16:25:51.001Z</time></trkpt><trkpt lat="45.33644960434786" lon="8.473026847611825"><ele>119.0</ele><time>2026-04-11T16:25:52.001Z</time></trkpt><trkpt lat="45.3366866960909" lon="8.473131279478821"><ele>118.0</ele><time>2026-04-11T16:25:53.001Z</time></trkpt><trkpt lat="45.336924541457876" lon="8.47323978624434"><ele>118.0</ele><time>2026-04-11T16:25:54.001Z</time></trkpt><trkpt lat="45.33715964653164" lon="8.473352931165476"><ele>118.0</ele><time>2026-04-11T16:25:55.001Z</time></trkpt><trkpt lat="45.33739666470364" lon="8.473464610563067"><ele>119.0</ele><time>2026-04-11T16:25:56.001Z</time></trkpt><trkpt lat="45.33763160589304" lon="8.473574962971162"><ele>120.0</ele><time>2026-04-11T16:25:57.001Z</time></trkpt><trkpt lat="45.33786465234568" lon="8.473686530563166"><ele>120.0</ele><time>2026-04-11T16:25:58.001Z</time></trkpt><trkpt lat="45.338099082903646" lon="8.473796287143209"><ele>120.0</ele><time>2026-04-11T16:25:59.001Z</time></trkpt><trkpt lat="45.338337035888266" lon="8.473908753499188"><ele>120.0</ele><time>2026-04-11T16:26:00.001Z</time></trkpt><trkpt lat="45.3385659086008" lon="8.474020056365648"><ele>120.0</ele><time>2026-04-11T16:26:01.001Z</time></trkpt><trkpt lat="45.33880035438904" lon="8.47413057576511"><ele>119.5</ele><time>2026-04-11T16:26:02.001Z</time></trkpt><trkpt lat="45.33903171712561" lon="8.47423941498448"><ele>119.0</ele><time>2026-04-11T16:26:03.001Z</time></trkpt><trkpt lat="45.339257646159524" lon="8.474346184301785"><ele>119.0</ele><time>2026-04-11T16:26:04.001Z</time></trkpt><trkpt lat="45.339492888846415" lon="8.474453828194527"><ele>119.0</ele><time>2026-04-11T16:26:05.001Z</time></trkpt><trkpt lat="45.33972524094812" lon="8.47456179124843"><ele>119.0</ele><time>2026-04-11T16:26:06.001Z</time></trkpt><trkpt lat="45.33995699372136" lon="8.474672948757917"><ele>119.0</ele><time>2026-04-11T16:26:07.001Z</time></trkpt><trkpt lat="45.34018425020426" lon="8.474782892726946"><ele>119.0</ele><time>2026-04-11T16:26:08.001Z</time></trkpt><trkpt lat="45.34041769265971" lon="8.474893365977966"><ele>119.0</ele><time>2026-04-11T16:26:09.001Z</time></trkpt><trkpt lat="45.34064942942359" lon="8.47500257033264"><ele>119.5</ele><time>2026-04-11T16:26:10.001Z</time></trkpt><trkpt lat="45.34088249619141" lon="8.475110135359277"><ele>120.0</ele><time>2026-04-11T16:26:11.001Z</time></trkpt><trkpt lat="45.34111775360685" lon="8.475219241719413"><ele>120.0</ele><time>2026-04-11T16:26:12.001Z</time></trkpt><trkpt lat="45.34134977902388" lon="8.475328714828501"><ele>120.0</ele><time>2026-04-11T16:26:13.001Z</time></trkpt><trkpt lat="45.34157823758818" lon="8.475437816689146"><ele>120.5</ele><time>2026-04-11T16:26:14.001Z</time></trkpt><trkpt lat="45.3418119488943" lon="8.47554635699753"><ele>121.0</ele><time>2026-04-11T16:26:15.001Z</time></trkpt><trkpt lat="45.34204624115909" lon="8.475655612887403"><ele>120.0</ele><time>2026-04-11T16:26:16Z</time></trkpt><trkpt lat="45.34228218009808" lon="8.475764732019362"><ele>119.0</ele><time>2026-04-11T16:26:17Z</time></trkpt><trkpt lat="45.34251641609169" lon="8.475873547851107"><ele>119.0</ele><time>2026-04-11T16:26:18Z</time></trkpt><trkpt lat="45.342749935796846" lon="8.475983273361457"><ele>119.0</ele><time>2026-04-11T16:26:19Z</time></trkpt><trkpt lat="45.34298175403458" lon="8.47609336509795"><ele>118.5</ele><time>2026-04-11T16:26:20Z</time></trkpt><trkpt lat="45.343215795885385" lon="8.476202744874744"><ele>118.0</ele><time>2026-04-11T16:26:21Z</time></trkpt><trkpt lat="45.34345005125711" lon="8.476312237775845"><ele>120.0</ele><time>2026-04-11T16:26:22Z</time></trkpt><trkpt lat="45.34368930769064" lon="8.476421431528161"><ele>122.0</ele><time>2026-04-11T16:26:23Z</time></trkpt><trkpt lat="45.343921795787416" lon="8.476529642562985"><ele>122.5</ele><time>2026-04-11T16:26:24Z</time></trkpt><trkpt lat="45.3441551763081" lon="8.476636796855647"><ele>123.0</ele><time>2026-04-11T16:26:25Z</time></trkpt><trkpt lat="45.34438625895678" lon="8.476747740647902"><ele>123.0</ele><time>2026-04-11T16:26:26Z</time></trkpt><trkpt lat="45.34461433870146" lon="8.476854533239651"><ele>123.0</ele><time>2026-04-11T16:26:27Z</time></trkpt><trkpt lat="45.34483939024307" lon="8.476964462770983"><ele>122.5</ele><time>2026-04-11T16:26:28Z</time></trkpt><trkpt lat="45.345070444437724" lon="8.477073391601312"><ele>122.0</ele><time>2026-04-11T16:26:29Z</time></trkpt><trkpt lat="45.345302252018854" lon="8.477180070544245"><ele>121.5</ele><time>2026-04-11T16:26:30Z</time></trkpt><trkpt lat="45.34553119587065" lon="8.477285904023006"><ele>121.0</ele><time>2026-04-11T16:26:31Z</time></trkpt><trkpt lat="45.34575828440711" lon="8.477391061619967"><ele>121.0</ele><time>2026-04-11T16:26:32Z</time></trkpt><trkpt lat="45.345985408497384" lon="8.477497313991242"><ele>121.0</ele><time>2026-04-11T16:26:33Z</time></trkpt><trkpt lat="45.346210325555276" lon="8.477608000835659"><ele>121.5</ele><time>2026-04-11T16:26:34Z</time></trkpt><trkpt lat="45.34643927683002" lon="8.477712249001666"><ele>122.0</ele><time>2026-04-11T16:26:35Z</time></trkpt><trkpt lat="45.346664328906606" lon="8.47782005813623"><ele>122.0</ele><time>2026-04-11T16:26:36Z</time></trkpt><trkpt lat="45.34688920581719" lon="8.477927806575305"><ele>122.0</ele><time>2026-04-11T16:26:37Z</time></trkpt><trkpt lat="45.347113666289474" lon="8.47803682638481"><ele>121.5</ele><time>2026-04-11T16:26:38Z</time></trkpt><trkpt lat="45.3473409581371" lon="8.478144736750764"><ele>121.0</ele><time>2026-04-11T16:26:39Z</time></trkpt><trkpt lat="45.34756861907159" lon="8.478254044891553"><ele>121.0</ele><time>2026-04-11T16:26:40Z</time></trkpt><trkpt lat="45.3477973959503" lon="8.478362097126897"><ele>121.0</ele><time>2026-04-11T16:26:41Z</time></trkpt><trkpt lat="45.348025862919876" lon="8.478468858991832"><ele>122.0</ele><time>2026-04-11T16:26:42Z</time></trkpt><trkpt lat="45.348250419542474" lon="8.478577510946522"><ele>123.0</ele><time>2026-04-11T16:26:43Z</time></trkpt><trkpt lat="45.34847455885785" lon="8.478685058907931"><ele>122.5</ele><time>2026-04-11T16:26:44Z</time></trkpt><trkpt lat="45.348703302644765" lon="8.47878987601771"><ele>122.0</ele><time>2026-04-11T16:26:45Z</time></trkpt><trkpt lat="45.34893142211941" lon="8.478893559388172"><ele>122.0</ele><time>2026-04-11T16:26:46Z</time></trkpt><trkpt lat="45.34915736189625" lon="8.478999463792107"><ele>122.0</ele><time>2026-04-11T16:26:47Z</time></trkpt><trkpt lat="45.34938312306109" lon="8.4791044567637"><ele>122.0</ele><time>2026-04-11T16:26:48Z</time></trkpt><trkpt lat="45.349605488245004" lon="8.479210423728022"><ele>122.0</ele><time>2026-04-11T16:26:49Z</time></trkpt><trkpt lat="45.34983287467731" lon="8.479317074013357"><ele>122.0</ele><time>2026-04-11T16:26:50Z</time></trkpt><trkpt lat="45.3500575707008" lon="8.479424860202535"><ele>122.0</ele><time>2026-04-11T16:26:51Z</time></trkpt><trkpt lat="45.35028445228371" lon="8.479532403206633"><ele>122.0</ele><time>2026-04-11T16:26:52Z</time></trkpt><trkpt lat="45.35051186006067" lon="8.47963771764338"><ele>122.0</ele><time>2026-04-11T16:26:53Z</time></trkpt><trkpt lat="45.350740300213616" lon="8.479744322708891"><ele>123.0</ele><time>2026-04-11T16:26:54Z</time></trkpt><trkpt lat="45.35096993680007" lon="8.47985018681442"><ele>124.0</ele><time>2026-04-11T16:26:55Z</time></trkpt><trkpt lat="45.3511981029427" lon="8.47995803505895"><ele>124.0</ele><time>2026-04-11T16:26:56Z</time></trkpt><trkpt lat="45.35142514657408" lon="8.480065800771047"><ele>124.0</ele><time>2026-04-11T16:26:57Z</time></trkpt><trkpt lat="45.351653741602874" lon="8.480174752997812"><ele>124.0</ele><time>2026-04-11T16:26:58Z</time></trkpt><trkpt lat="45.351882486380546" lon="8.480285130004976"><ele>124.0</ele><time>2026-04-11T16:26:59Z</time></trkpt><trkpt lat="45.35211266766349" lon="8.480393501944556"><ele>124.0</ele><time>2026-04-11T16:27:00Z</time></trkpt><trkpt lat="45.35234484860649" lon="8.480502445200845"><ele>124.0</ele><time>2026-04-11T16:27:01Z</time></trkpt><trkpt lat="45.35257536069198" lon="8.480611161455192"><ele>124.0</ele><time>2026-04-11T16:27:02Z</time></trkpt><trkpt lat="45.352806208655096" lon="8.480718270415965"><ele>124.0</ele><time>2026-04-11T16:27:03Z</time></trkpt><trkpt lat="45.35303582940141" lon="8.480823995974228"><ele>124.0</ele><time>2026-04-11T16:27:04Z</time></trkpt><trkpt lat="45.35326175374567" lon="8.480932159034813"><ele>124.0</ele><time>2026-04-11T16:27:05Z</time></trkpt><trkpt lat="45.35349126528829" lon="8.481036429361337"><ele>124.0</ele><time>2026-04-11T16:27:06Z</time></trkpt><trkpt lat="45.35371576450391" lon="8.481143222001156"><ele>124.0</ele><time>2026-04-11T16:27:07Z</time></trkpt><trkpt lat="45.35394281225984" lon="8.481247657100049"><ele>125.0</ele><time>2026-04-11T16:27:08Z</time></trkpt><trkpt lat="45.35416867691155" lon="8.481351660668839"><ele>126.0</ele><time>2026-04-11T16:27:09Z</time></trkpt><trkpt lat="45.35439459801568" lon="8.481459444139407"><ele>126.0</ele><time>2026-04-11T16:27:10Z</time></trkpt><trkpt lat="45.3546228486899" lon="8.481571880270534"><ele>126.0</ele><time>2026-04-11T16:27:11Z</time></trkpt><trkpt lat="45.35484335208367" lon="8.481685601968357"><ele>126.0</ele><time>2026-04-11T16:27:12Z</time></trkpt><trkpt lat="45.35507879442632" lon="8.481785891631723"><ele>126.0</ele><time>2026-04-11T16:27:13Z</time></trkpt><trkpt lat="45.35530821932142" lon="8.481895756339645"><ele>126.0</ele><time>2026-04-11T16:27:14Z</time></trkpt><trkpt lat="45.355535412019044" lon="8.482006351299972"><ele>126.0</ele><time>2026-04-11T16:27:15Z</time></trkpt><trkpt lat="45.355763259145" lon="8.482112837225436"><ele>126.0</ele><time>2026-04-11T16:27:16Z</time></trkpt><trkpt lat="45.35599216642979" lon="8.482216923077337"><ele>126.0</ele><time>2026-04-11T16:27:17Z</time></trkpt><trkpt lat="45.356219786088" lon="8.482324017621956"><ele>126.0</ele><time>2026-04-11T16:27:18Z</time></trkpt><trkpt lat="45.35644896148867" lon="8.482428302521738"><ele>126.0</ele><time>2026-04-11T16:27:19Z</time></trkpt><trkpt lat="45.356674178704246" lon="8.482531644125649"><ele>126.0</ele><time>2026-04-11T16:27:20Z</time></trkpt><trkpt lat="45.35690260373321" lon="8.482632684216455"><ele>126.0</ele><time>2026-04-11T16:27:21Z</time></trkpt><trkpt lat="45.35713264092772" lon="8.482735639692415"><ele>125.5</ele><time>2026-04-11T16:27:22Z</time></trkpt><trkpt lat="45.35735897179111" lon="8.482836469928717"><ele>125.0</ele><time>2026-04-11T16:27:23Z</time></trkpt><trkpt lat="45.35758770533554" lon="8.48293514839238"><ele>125.0</ele><time>2026-04-11T16:27:24Z</time></trkpt><trkpt lat="45.357819992214516" lon="8.483029703878158"><ele>125.0</ele><time>2026-04-11T16:27:25Z</time></trkpt><trkpt lat="45.35805055965897" lon="8.483121835771056"><ele>125.0</ele><time>2026-04-11T16:27:26Z</time></trkpt><trkpt lat="45.35827752901422" lon="8.483214352188204"><ele>125.0</ele><time>2026-04-11T16:27:27Z</time></trkpt><trkpt lat="45.35850439595571" lon="8.483306249457527"><ele>125.0</ele><time>2026-04-11T16:27:28Z</time></trkpt><trkpt lat="45.358732623747855" lon="8.483397729909653"><ele>125.0</ele><time>2026-04-11T16:27:29Z</time></trkpt><trkpt lat="45.358959671034114" lon="8.483486545358783"><ele>125.0</ele><time>2026-04-11T16:27:30Z</time></trkpt><trkpt lat="45.35918682994197" lon="8.483572649158717"><ele>125.0</ele><time>2026-04-11T16:27:31Z</time></trkpt><trkpt lat="45.35941256721499" lon="8.483656430680437"><ele>125.0</ele><time>2026-04-11T16:27:32Z</time></trkpt><trkpt lat="45.35963894102531" lon="8.483737497128292"><ele>125.0</ele><time>2026-04-11T16:27:33Z</time></trkpt><trkpt lat="45.359869405003366" lon="8.483817525238214"><ele>125.5</ele><time>2026-04-11T16:27:34Z</time></trkpt><trkpt lat="45.36009670521458" lon="8.483898493560321"><ele>126.0</ele><time>2026-04-11T16:27:35Z</time></trkpt><trkpt lat="45.360326966460086" lon="8.483980145100599"><ele>125.5</ele><time>2026-04-11T16:27:36Z</time></trkpt><trkpt lat="45.36055779726381" lon="8.484061304252805"><ele>125.0</ele><time>2026-04-11T16:27:37Z</time></trkpt><trkpt lat="45.360786417246295" lon="8.48413924006934"><ele>125.0</ele><time>2026-04-11T16:27:38Z</time></trkpt><trkpt lat="45.36101904664862" lon="8.484213950087272"><ele>125.0</ele><time>2026-04-11T16:27:39Z</time></trkpt><trkpt lat="45.36124993578395" lon="8.484288742205278"><ele>125.5</ele><time>2026-04-11T16:27:40Z</time></trkpt><trkpt lat="45.36148175414996" lon="8.484362354506061"><ele>126.0</ele><time>2026-04-11T16:27:41Z</time></trkpt><trkpt lat="45.36171422680066" lon="8.484433934547262"><ele>126.0</ele><time>2026-04-11T16:27:42Z</time></trkpt><trkpt lat="45.36194660922701" lon="8.48450190115741"><ele>126.0</ele><time>2026-04-11T16:27:43Z</time></trkpt><trkpt lat="45.36217806802596" lon="8.484569554226843"><ele>127.5</ele><time>2026-04-11T16:27:44Z</time></trkpt><trkpt lat="45.36240854051773" lon="8.484638595636666"><ele>129.0</ele><time>2026-04-11T16:27:45Z</time></trkpt><trkpt lat="45.362640362857526" lon="8.484706521411935"><ele>129.0</ele><time>2026-04-11T16:27:46Z</time></trkpt><trkpt lat="45.36287378226832" lon="8.484772816840353"><ele>129.0</ele><time>2026-04-11T16:27:47Z</time></trkpt><trkpt lat="45.36310739306671" lon="8.484836429458165"><ele>128.0</ele><time>2026-04-11T16:27:48.001Z</time></trkpt><trkpt lat="45.36334005906834" lon="8.484897981653372"><ele>127.0</ele><time>2026-04-11T16:27:49.001Z</time></trkpt><trkpt lat="45.3635761815043" lon="8.484959395250605"><ele>127.0</ele><time>2026-04-11T16:27:50.001Z</time></trkpt><trkpt lat="45.36380939025492" lon="8.485015971642872"><ele>127.0</ele><time>2026-04-11T16:27:51.001Z</time></trkpt><trkpt lat="45.364040746174815" lon="8.485079229772687"><ele>126.5</ele><time>2026-04-11T16:27:52.001Z</time></trkpt><trkpt lat="45.36428163408661" lon="8.485126072121574"><ele>126.0</ele><time>2026-04-11T16:27:53.001Z</time></trkpt><trkpt lat="45.3645184762014" lon="8.485178487233256"><ele>128.0</ele><time>2026-04-11T16:27:54.001Z</time></trkpt><trkpt lat="45.36475362137038" lon="8.485230513061651"><ele>130.0</ele><time>2026-04-11T16:27:55.001Z</time></trkpt><trkpt lat="45.36498949394503" lon="8.485281727865544"><ele>130.0</ele><time>2026-04-11T16:27:56.001Z</time></trkpt><trkpt lat="45.36522548891649" lon="8.485332009045779"><ele>130.0</ele><time>2026-04-11T16:27:57.001Z</time></trkpt><trkpt lat="45.36546126531096" lon="8.485377681383074"><ele>129.5</ele><time>2026-04-11T16:27:58.001Z</time></trkpt><trkpt lat="45.36569605228881" lon="8.485423323684655"><ele>129.0</ele><time>2026-04-11T16:27:59.001Z</time></trkpt><trkpt lat="45.365928752365164" lon="8.485469040952685"><ele>129.0</ele><time>2026-04-11T16:28:00.001Z</time></trkpt><trkpt lat="45.36616035888356" lon="8.48550881919726"><ele>129.0</ele><time>2026-04-11T16:28:01.001Z</time></trkpt><trkpt lat="45.36638614449555" lon="8.485544563237534"><ele>129.0</ele><time>2026-04-11T16:28:02.001Z</time></trkpt><trkpt lat="45.36659544258983" lon="8.485575302699456"><ele>129.0</ele><time>2026-04-11T16:28:03.001Z</time></trkpt><trkpt lat="45.36682316199416" lon="8.485600538769093"><ele>129.0</ele><time>2026-04-11T16:28:04.001Z</time></trkpt><trkpt lat="45.367072684866905" lon="8.485630192417554"><ele>129.0</ele><time>2026-04-11T16:28:05.001Z</time></trkpt><trkpt lat="45.36733236058802" lon="8.485670840458864"><ele>129.0</ele><time>2026-04-11T16:28:06.001Z</time></trkpt><trkpt lat="45.36760215348325" lon="8.485718481970299"><ele>129.0</ele><time>2026-04-11T16:28:07.001Z</time></trkpt><trkpt lat="45.367883900167335" lon="8.485768042113133"><ele>129.0</ele><time>2026-04-11T16:28:08.001Z</time></trkpt><trkpt lat="45.36814234418725" lon="8.48581015859407"><ele>128.5</ele><time>2026-04-11T16:28:09.001Z</time></trkpt><trkpt lat="45.36838859378305" lon="8.485848746500588"><ele>128.0</ele><time>2026-04-11T16:28:10.001Z</time></trkpt><trkpt lat="45.3686420359767" lon="8.485883428395148"><ele>128.5</ele><time>2026-04-11T16:28:11.001Z</time></trkpt><trkpt lat="45.36889382265751" lon="8.4859132314802"><ele>129.0</ele><time>2026-04-11T16:28:12.001Z</time></trkpt><trkpt lat="45.36914226252043" lon="8.485940071498277"><ele>129.0</ele><time>2026-04-11T16:28:13.001Z</time></trkpt><trkpt lat="45.36939729089643" lon="8.485964044795857"><ele>129.0</ele><time>2026-04-11T16:28:14.001Z</time></trkpt><trkpt lat="45.369669005116286" lon="8.485988978027432"><ele>129.5</ele><time>2026-04-11T16:28:15.001Z</time></trkpt><trkpt lat="45.36995952676949" lon="8.48601414042908"><ele>130.0</ele><time>2026-04-11T16:28:16.001Z</time></trkpt><trkpt lat="45.370232159323876" lon="8.48603772704688"><ele>130.0</ele><time>2026-04-11T16:28:17.001Z</time></trkpt><trkpt lat="45.37048006159411" lon="8.486055771826654"><ele>130.0</ele><time>2026-04-11T16:28:18.001Z</time></trkpt><trkpt lat="45.37072042546878" lon="8.486069883050511"><ele>130.0</ele><time>2026-04-11T16:28:19.001Z</time></trkpt><trkpt lat="45.37096020339781" lon="8.486083561622074"><ele>130.0</ele><time>2026-04-11T16:28:20.001Z</time></trkpt><trkpt lat="45.371200903704874" lon="8.486096178216721"><ele>130.5</ele><time>2026-04-11T16:28:21.001Z</time></trkpt><trkpt lat="45.37144613737438" lon="8.486106321527082"><ele>131.0</ele><time>2026-04-11T16:28:22Z</time></trkpt><trkpt lat="45.37169535399218" lon="8.486115249123303"><ele>131.0</ele><time>2026-04-11T16:28:23.001Z</time></trkpt><trkpt lat="45.37193825316524" lon="8.486124232650472"><ele>131.0</ele><time>2026-04-11T16:28:24.001Z</time></trkpt><trkpt lat="45.372181879021916" lon="8.486132583202371"><ele>130.0</ele><time>2026-04-11T16:28:25.001Z</time></trkpt><trkpt lat="45.37241825987009" lon="8.486140177663"><ele>129.0</ele><time>2026-04-11T16:28:26Z</time></trkpt><trkpt lat="45.37265427967793" lon="8.486146960964053"><ele>129.0</ele><time>2026-04-11T16:28:27Z</time></trkpt><trkpt lat="45.37288991859023" lon="8.486150807150716"><ele>129.0</ele><time>2026-04-11T16:28:28Z</time></trkpt><trkpt lat="45.373123273462404" lon="8.486149992242728"><ele>128.5</ele><time>2026-04-11T16:28:29Z</time></trkpt><trkpt lat="45.37335460636341" lon="8.486148772693921"><ele>128.0</ele><time>2026-04-11T16:28:30Z</time></trkpt><trkpt lat="45.37358915594097" lon="8.486146284323217"><ele>128.0</ele><time>2026-04-11T16:28:31Z</time></trkpt><trkpt lat="45.37382735108219" lon="8.48614160008208"><ele>128.0</ele><time>2026-04-11T16:28:32Z</time></trkpt><trkpt lat="45.374059026887124" lon="8.486137693112239"><ele>128.0</ele><time>2026-04-11T16:28:33Z</time></trkpt><trkpt lat="45.37428976173275" lon="8.486128055953017"><ele>128.0</ele><time>2026-04-11T16:28:34Z</time></trkpt><trkpt lat="45.374524768010964" lon="8.486119586307057"><ele>128.0</ele><time>2026-04-11T16:28:35Z</time></trkpt><trkpt lat="45.37475670706424" lon="8.486112845557331"><ele>128.0</ele><time>2026-04-11T16:28:36Z</time></trkpt><trkpt lat="45.37498994963442" lon="8.486101560885109"><ele>128.0</ele><time>2026-04-11T16:28:37Z</time></trkpt><trkpt lat="45.375225823811064" lon="8.486086637799293"><ele>128.0</ele><time>2026-04-11T16:28:38Z</time></trkpt><trkpt lat="45.37545810770847" lon="8.486073775295617"><ele>128.0</ele><time>2026-04-11T16:28:39Z</time></trkpt><trkpt lat="45.37569206700471" lon="8.486059972662586"><ele>128.0</ele><time>2026-04-11T16:28:40Z</time></trkpt><trkpt lat="45.37592690241126" lon="8.48604335117697"><ele>128.0</ele><time>2026-04-11T16:28:41Z</time></trkpt><trkpt lat="45.37616021623262" lon="8.486026193872442"><ele>128.0</ele><time>2026-04-11T16:28:42Z</time></trkpt><trkpt lat="45.37639479059164" lon="8.486005242949107"><ele>129.0</ele><time>2026-04-11T16:28:43Z</time></trkpt><trkpt lat="45.37663104955784" lon="8.48598411051261"><ele>130.0</ele><time>2026-04-11T16:28:44Z</time></trkpt><trkpt lat="45.37686970014373" lon="8.48596122187221"><ele>130.0</ele><time>2026-04-11T16:28:45Z</time></trkpt><trkpt lat="45.37710742987114" lon="8.485937432844443"><ele>130.0</ele><time>2026-04-11T16:28:46Z</time></trkpt><trkpt lat="45.37734730421825" lon="8.485911495170088"><ele>130.0</ele><time>2026-04-11T16:28:47Z</time></trkpt><trkpt lat="45.37758344565066" lon="8.48588666413271"><ele>130.0</ele><time>2026-04-11T16:28:48Z</time></trkpt><trkpt lat="45.377822563472506" lon="8.485862406032885"><ele>130.0</ele><time>2026-04-11T16:28:49Z</time></trkpt><trkpt lat="45.378056130706184" lon="8.485838617311797"><ele>130.0</ele><time>2026-04-11T16:28:50Z</time></trkpt><trkpt lat="45.378292263558095" lon="8.485813037216813"><ele>130.0</ele><time>2026-04-11T16:28:51Z</time></trkpt><trkpt lat="45.37853029066548" lon="8.48578608543729"><ele>130.0</ele><time>2026-04-11T16:28:52Z</time></trkpt><trkpt lat="45.37876196184111" lon="8.485763238097713"><ele>131.0</ele><time>2026-04-11T16:28:53Z</time></trkpt><trkpt lat="45.37899444957887" lon="8.485740578368722"><ele>132.0</ele><time>2026-04-11T16:28:54Z</time></trkpt><trkpt lat="45.3792256984896" lon="8.485715419114733"><ele>132.0</ele><time>2026-04-11T16:28:55Z</time></trkpt><trkpt lat="45.379456340900816" lon="8.485691519884657"><ele>132.0</ele><time>2026-04-11T16:28:56Z</time></trkpt><trkpt lat="45.37968550403669" lon="8.485668356066503"><ele>132.5</ele><time>2026-04-11T16:28:57Z</time></trkpt><trkpt lat="45.379914639903774" lon="8.485646017806532"><ele>133.0</ele><time>2026-04-11T16:28:58Z</time></trkpt><trkpt lat="45.38014427325823" lon="8.48562031596997"><ele>133.0</ele><time>2026-04-11T16:28:59Z</time></trkpt><trkpt lat="45.38037593533037" lon="8.485595377318026"><ele>133.0</ele><time>2026-04-11T16:29:00Z</time></trkpt><trkpt lat="45.38060925628847" lon="8.485572471222904"><ele>133.0</ele><time>2026-04-11T16:29:01Z</time></trkpt><trkpt lat="45.380842519557184" lon="8.485548166808147"><ele>133.0</ele><time>2026-04-11T16:29:02Z</time></trkpt><trkpt lat="45.38107811102854" lon="8.485521676061529"><ele>133.0</ele><time>2026-04-11T16:29:03Z</time></trkpt><trkpt lat="45.381311558671946" lon="8.485495739307302"><ele>133.0</ele><time>2026-04-11T16:29:04Z</time></trkpt><trkpt lat="45.381551176219325" lon="8.485467121277242"><ele>132.5</ele><time>2026-04-11T16:29:05Z</time></trkpt><trkpt lat="45.38179202567855" lon="8.485439246556506"><ele>132.0</ele><time>2026-04-11T16:29:06Z</time></trkpt><trkpt lat="45.382030412555345" lon="8.485412835930296"><ele>131.5</ele><time>2026-04-11T16:29:07Z</time></trkpt><trkpt lat="45.38227290350943" lon="8.48538733852808"><ele>131.0</ele><time>2026-04-11T16:29:08Z</time></trkpt><trkpt lat="45.38251700847818" lon="8.485362898848111"><ele>131.0</ele><time>2026-04-11T16:29:09Z</time></trkpt><trkpt lat="45.38276674045747" lon="8.485336148156627"><ele>131.0</ele><time>2026-04-11T16:29:10Z</time></trkpt><trkpt lat="45.3830102676787" lon="8.485309914494932"><ele>131.0</ele><time>2026-04-11T16:29:11Z</time></trkpt><trkpt lat="45.383249590515504" lon="8.485285489057578"><ele>131.0</ele><time>2026-04-11T16:29:12Z</time></trkpt><trkpt lat="45.383498147311094" lon="8.485260736427772"><ele>131.0</ele><time>2026-04-11T16:29:13Z</time></trkpt><trkpt lat="45.383740121100566" lon="8.485238388644062"><ele>131.0</ele><time>2026-04-11T16:29:14Z</time></trkpt><trkpt lat="45.38398133631537" lon="8.485214202003041"><ele>132.5</ele><time>2026-04-11T16:29:15Z</time></trkpt><trkpt lat="45.38422005738159" lon="8.485188807127935"><ele>134.0</ele><time>2026-04-11T16:29:16Z</time></trkpt><trkpt lat="45.3844593560475" lon="8.485163267037795"><ele>133.5</ele><time>2026-04-11T16:29:17Z</time></trkpt><trkpt lat="45.3847002581048" lon="8.485135327019037"><ele>133.0</ele><time>2026-04-11T16:29:18Z</time></trkpt><trkpt lat="45.384940788857755" lon="8.485112011285288"><ele>133.0</ele><time>2026-04-11T16:29:19Z</time></trkpt><trkpt lat="45.38517846120224" lon="8.485088861158626"><ele>133.0</ele><time>2026-04-11T16:29:20Z</time></trkpt><trkpt lat="45.385418685422984" lon="8.485063224860156"><ele>133.0</ele><time>2026-04-11T16:29:21Z</time></trkpt><trkpt lat="45.385654300120166" lon="8.485039058654896"><ele>133.0</ele><time>2026-04-11T16:29:22Z</time></trkpt><trkpt lat="45.3858962217779" lon="8.485012366098097"><ele>133.0</ele><time>2026-04-11T16:29:23Z</time></trkpt><trkpt lat="45.38613880147394" lon="8.484988115421023"><ele>133.0</ele><time>2026-04-11T16:29:24Z</time></trkpt><trkpt lat="45.38638294930689" lon="8.484962244226839"><ele>133.0</ele><time>2026-04-11T16:29:25Z</time></trkpt><trkpt lat="45.38662432936828" lon="8.484939091959394"><ele>133.0</ele><time>2026-04-11T16:29:26Z</time></trkpt><trkpt lat="45.38686549534348" lon="8.484913715118195"><ele>133.0</ele><time>2026-04-11T16:29:27Z</time></trkpt><trkpt lat="45.38711120730513" lon="8.484889201590146"><ele>133.0</ele><time>2026-04-11T16:29:28Z</time></trkpt><trkpt lat="45.38735367982719" lon="8.48486477733778"><ele>132.0</ele><time>2026-04-11T16:29:29Z</time></trkpt><trkpt lat="45.387599607386285" lon="8.484836572430705"><ele>131.0</ele><time>2026-04-11T16:29:30Z</time></trkpt><trkpt lat="45.38784444958746" lon="8.48480851458701"><ele>131.5</ele><time>2026-04-11T16:29:31Z</time></trkpt><trkpt lat="45.388088311287085" lon="8.484783691201953"><ele>132.0</ele><time>2026-04-11T16:29:32Z</time></trkpt><trkpt lat="45.38833014786986" lon="8.484759487484043"><ele>132.0</ele><time>2026-04-11T16:29:33Z</time></trkpt><trkpt lat="45.38857162205663" lon="8.484734855082593"><ele>132.0</ele><time>2026-04-11T16:29:34Z</time></trkpt><trkpt lat="45.3888138298209" lon="8.484708644791802"><ele>133.0</ele><time>2026-04-11T16:29:35Z</time></trkpt><trkpt lat="45.38905640099332" lon="8.484679491721769"><ele>134.0</ele><time>2026-04-11T16:29:36Z</time></trkpt><trkpt lat="45.38929915156117" lon="8.484649575779324"><ele>134.0</ele><time>2026-04-11T16:29:37Z</time></trkpt><trkpt lat="45.38953537757667" lon="8.484618852731492"><ele>134.0</ele><time>2026-04-11T16:29:38Z</time></trkpt><trkpt lat="45.38977833479268" lon="8.484583204318781"><ele>134.0</ele><time>2026-04-11T16:29:39Z</time></trkpt><trkpt lat="45.39001779172763" lon="8.484546213155683"><ele>134.0</ele><time>2026-04-11T16:29:40Z</time></trkpt><trkpt lat="45.39026027840494" lon="8.484508107756264"><ele>134.0</ele><time>2026-04-11T16:29:41Z</time></trkpt><trkpt lat="45.390497869715844" lon="8.484470098546462"><ele>134.0</ele><time>2026-04-11T16:29:42Z</time></trkpt><trkpt lat="45.39074092129244" lon="8.484424499391578"><ele>134.0</ele><time>2026-04-11T16:29:43Z</time></trkpt><trkpt lat="45.39098091747841" lon="8.48437711628156"><ele>134.0</ele><time>2026-04-11T16:29:44Z</time></trkpt><trkpt lat="45.39121844055701" lon="8.48432938616284"><ele>134.0</ele><time>2026-04-11T16:29:45Z</time></trkpt><trkpt lat="45.39145550172999" lon="8.484279912374289"><ele>134.0</ele><time>2026-04-11T16:29:46Z</time></trkpt><trkpt lat="45.39169292370125" lon="8.484229347260856"><ele>134.0</ele><time>2026-04-11T16:29:47Z</time></trkpt><trkpt lat="45.39192675986123" lon="8.484175065149843"><ele>134.0</ele><time>2026-04-11T16:29:48Z</time></trkpt><trkpt lat="45.392160494374316" lon="8.484115867482094"><ele>133.5</ele><time>2026-04-11T16:29:49Z</time></trkpt><trkpt lat="45.3923927615884" lon="8.484058129273377"><ele>133.0</ele><time>2026-04-11T16:29:50Z</time></trkpt><trkpt lat="45.392629103395855" lon="8.48399562610928"><ele>133.0</ele><time>2026-04-11T16:29:51Z</time></trkpt><trkpt lat="45.39286035759084" lon="8.48393579277518"><ele>133.0</ele><time>2026-04-11T16:29:52Z</time></trkpt><trkpt lat="45.39309399965586" lon="8.483870639277413"><ele>133.5</ele><time>2026-04-11T16:29:53Z</time></trkpt><trkpt lat="45.393327131375955" lon="8.483805060200991"><ele>134.0</ele><time>2026-04-11T16:29:54Z</time></trkpt><trkpt lat="45.3935601737934" lon="8.483736124207507"><ele>134.0</ele><time>2026-04-11T16:29:55Z</time></trkpt><trkpt lat="45.39378887487688" lon="8.483666129317113"><ele>134.0</ele><time>2026-04-11T16:29:56.001Z</time></trkpt><trkpt lat="45.39401921040472" lon="8.48359201483703"><ele>134.5</ele><time>2026-04-11T16:29:57.001Z</time></trkpt><trkpt lat="45.39424962219963" lon="8.483515276252652"><ele>135.0</ele><time>2026-04-11T16:29:58.001Z</time></trkpt><trkpt lat="45.394474596729125" lon="8.48344390888991"><ele>135.0</ele><time>2026-04-11T16:29:59.001Z</time></trkpt><trkpt lat="45.39470587519343" lon="8.483360274770094"><ele>135.0</ele><time>2026-04-11T16:30:00.001Z</time></trkpt><trkpt lat="45.3949357167813" lon="8.48327891961135"><ele>135.0</ele><time>2026-04-11T16:30:01.001Z</time></trkpt><trkpt lat="45.39516172505689" lon="8.483197861370353"><ele>135.0</ele><time>2026-04-11T16:30:02.001Z</time></trkpt><trkpt lat="45.39538953486928" lon="8.483111026373376"><ele>134.5</ele><time>2026-04-11T16:30:03.001Z</time></trkpt><trkpt lat="45.395615295271355" lon="8.48302280968024"><ele>134.0</ele><time>2026-04-11T16:30:04.001Z</time></trkpt><trkpt lat="45.39584091783487" lon="8.482933723465973"><ele>134.5</ele><time>2026-04-11T16:30:05.001Z</time></trkpt><trkpt lat="45.396062641752486" lon="8.482845403456752"><ele>135.0</ele><time>2026-04-11T16:30:06.001Z</time></trkpt><trkpt lat="45.396285016849596" lon="8.482751826310244"><ele>135.0</ele><time>2026-04-11T16:30:07.001Z</time></trkpt><trkpt lat="45.39650851957041" lon="8.482658143667901"><ele>135.0</ele><time>2026-04-11T16:30:08.001Z</time></trkpt><trkpt lat="45.39673296800052" lon="8.48255966190023"><ele>135.0</ele><time>2026-04-11T16:30:09.001Z</time></trkpt><trkpt lat="45.39695812047823" lon="8.48245527358075"><ele>135.0</ele><time>2026-04-11T16:30:10.001Z</time></trkpt><trkpt lat="45.39718323139658" lon="8.482348865319928"><ele>135.5</ele><time>2026-04-11T16:30:11.001Z</time></trkpt><trkpt lat="45.39740824094576" lon="8.4822442943774"><ele>136.0</ele><time>2026-04-11T16:30:12.001Z</time></trkpt><trkpt lat="45.39763797600133" lon="8.48213307579982"><ele>136.0</ele><time>2026-04-11T16:30:13.001Z</time></trkpt><trkpt lat="45.397864275564466" lon="8.482025073273373"><ele>136.0</ele><time>2026-04-11T16:30:14.001Z</time></trkpt><trkpt lat="45.398094413840255" lon="8.481909920841877"><ele>136.0</ele><time>2026-04-11T16:30:15.001Z</time></trkpt><trkpt lat="45.398321935879444" lon="8.48179648521202"><ele>136.0</ele><time>2026-04-11T16:30:16.001Z</time></trkpt><trkpt lat="45.39854658998917" lon="8.481677550177054"><ele>136.0</ele><time>2026-04-11T16:30:17.001Z</time></trkpt><trkpt lat="45.39877374987798" lon="8.48155235254507"><ele>136.0</ele><time>2026-04-11T16:30:18.001Z</time></trkpt><trkpt lat="45.39899904514544" lon="8.481436998536822"><ele>136.0</ele><time>2026-04-11T16:30:19.001Z</time></trkpt><trkpt lat="45.39922509282309" lon="8.481313194042484"><ele>136.0</ele><time>2026-04-11T16:30:20.001Z</time></trkpt><trkpt lat="45.39944923396552" lon="8.481186653674845"><ele>136.0</ele><time>2026-04-11T16:30:21.001Z</time></trkpt><trkpt lat="45.39967843522796" lon="8.481049910829848"><ele>136.0</ele><time>2026-04-11T16:30:22.001Z</time></trkpt><trkpt lat="45.39989949029831" lon="8.480926663101737"><ele>136.0</ele><time>2026-04-11T16:30:23.001Z</time></trkpt><trkpt lat="45.40012186764879" lon="8.48079918436691"><ele>136.0</ele><time>2026-04-11T16:30:24.001Z</time></trkpt><trkpt lat="45.400343605015024" lon="8.480667030577454"><ele>136.0</ele><time>2026-04-11T16:30:25.001Z</time></trkpt><trkpt lat="45.4005632084735" lon="8.48053047444368"><ele>136.0</ele><time>2026-04-11T16:30:26.001Z</time></trkpt><trkpt lat="45.40078165325474" lon="8.480388592102399"><ele>137.0</ele><time>2026-04-11T16:30:27.001Z</time></trkpt><trkpt lat="45.40099735818197" lon="8.480245824669336"><ele>138.0</ele><time>2026-04-11T16:30:28Z</time></trkpt><trkpt lat="45.401215234896526" lon="8.480103248211206"><ele>138.0</ele><time>2026-04-11T16:30:29Z</time></trkpt><trkpt lat="45.401431413616955" lon="8.47996113574077"><ele>138.0</ele><time>2026-04-11T16:30:30Z</time></trkpt><trkpt lat="45.40164771107095" lon="8.479814775314848"><ele>138.0</ele><time>2026-04-11T16:30:31Z</time></trkpt><trkpt lat="45.401865219806574" lon="8.47966509516209"><ele>138.0</ele><time>2026-04-11T16:30:32Z</time></trkpt><trkpt lat="45.40207883891015" lon="8.47951614405364"><ele>138.0</ele><time>2026-04-11T16:30:33Z</time></trkpt><trkpt lat="45.40229737144906" lon="8.479356482157124"><ele>138.0</ele><time>2026-04-11T16:30:34Z</time></trkpt><trkpt lat="45.40251251891162" lon="8.47920438129475"><ele>138.0</ele><time>2026-04-11T16:30:35Z</time></trkpt><trkpt lat="45.40272946417331" lon="8.479051221753357"><ele>138.0</ele><time>2026-04-11T16:30:36Z</time></trkpt><trkpt lat="45.402945468998496" lon="8.478895305751236"><ele>138.5</ele><time>2026-04-11T16:30:37Z</time></trkpt><trkpt lat="45.40316040722627" lon="8.478743526357787"><ele>139.0</ele><time>2026-04-11T16:30:38Z</time></trkpt><trkpt lat="45.40337585053139" lon="8.478591896643366"><ele>139.0</ele><time>2026-04-11T16:30:39Z</time></trkpt><trkpt lat="45.403591983205644" lon="8.478438941089994"><ele>139.0</ele><time>2026-04-11T16:30:40Z</time></trkpt><trkpt lat="45.40380715626683" lon="8.478284093672686"><ele>138.5</ele><time>2026-04-11T16:30:41Z</time></trkpt><trkpt lat="45.404022202630514" lon="8.478130609500939"><ele>138.0</ele><time>2026-04-11T16:30:42Z</time></trkpt><trkpt lat="45.40423771485973" lon="8.477978468118977"><ele>138.0</ele><time>2026-04-11T16:30:43Z</time></trkpt><trkpt lat="45.404452802572294" lon="8.47782618304421"><ele>138.0</ele><time>2026-04-11T16:30:44Z</time></trkpt><trkpt lat="45.404669349430996" lon="8.477669893636412"><ele>138.5</ele><time>2026-04-11T16:30:45Z</time></trkpt><trkpt lat="45.40488461789098" lon="8.47751683206797"><ele>139.0</ele><time>2026-04-11T16:30:46Z</time></trkpt><trkpt lat="45.40510035972382" lon="8.477360133626771"><ele>139.0</ele><time>2026-04-11T16:30:47Z</time></trkpt><trkpt lat="45.405313803830246" lon="8.477204937218117"><ele>139.0</ele><time>2026-04-11T16:30:48Z</time></trkpt><trkpt lat="45.40553349761818" lon="8.477050277728422"><ele>138.0</ele><time>2026-04-11T16:30:49Z</time></trkpt><trkpt lat="45.40575082734325" lon="8.476897377500547"><ele>137.0</ele><time>2026-04-11T16:30:50Z</time></trkpt><trkpt lat="45.405965713079766" lon="8.47674614299469"><ele>137.0</ele><time>2026-04-11T16:30:51Z</time></trkpt><trkpt lat="45.406183205405064" lon="8.476591018612654"><ele>137.0</ele><time>2026-04-11T16:30:52Z</time></trkpt><trkpt lat="45.40639758339697" lon="8.476439159482007"><ele>138.0</ele><time>2026-04-11T16:30:53Z</time></trkpt><trkpt lat="45.40661473045796" lon="8.476287871395373"><ele>139.0</ele><time>2026-04-11T16:30:54Z</time></trkpt><trkpt lat="45.40682873660356" lon="8.476138097157172"><ele>140.0</ele><time>2026-04-11T16:30:55Z</time></trkpt><trkpt lat="45.407256186150384" lon="8.475835451987686"><ele>140.0</ele><time>2026-04-11T16:30:57Z</time></trkpt><trkpt lat="45.40746943445339" lon="8.475684514019989"><ele>140.0</ele><time>2026-04-11T16:30:58Z</time></trkpt><trkpt lat="45.407681763233526" lon="8.475531624441965"><ele>140.0</ele><time>2026-04-11T16:30:59Z</time></trkpt><trkpt lat="45.40789478651996" lon="8.475380252665419"><ele>140.0</ele><time>2026-04-11T16:31:00Z</time></trkpt><trkpt lat="45.40810250038006" lon="8.475235066431718"><ele>140.0</ele><time>2026-04-11T16:31:01Z</time></trkpt><trkpt lat="45.408312517845154" lon="8.47508494387993"><ele>140.0</ele><time>2026-04-11T16:31:02Z</time></trkpt><trkpt lat="45.40852220834098" lon="8.474935273160876"><ele>140.0</ele><time>2026-04-11T16:31:03Z</time></trkpt><trkpt lat="45.40873362465555" lon="8.474783369380843"><ele>140.0</ele><time>2026-04-11T16:31:04Z</time></trkpt><trkpt lat="45.408943841560365" lon="8.474634503906552"><ele>141.0</ele><time>2026-04-11T16:31:05Z</time></trkpt><trkpt lat="45.40915215672349" lon="8.474485949810271"><ele>142.0</ele><time>2026-04-11T16:31:06Z</time></trkpt><trkpt lat="45.40935914273799" lon="8.47433820936352"><ele>142.0</ele><time>2026-04-11T16:31:07Z</time></trkpt><trkpt lat="45.40957003381814" lon="8.474188882458018"><ele>142.0</ele><time>2026-04-11T16:31:08Z</time></trkpt><trkpt lat="45.40978052304582" lon="8.474040415113945"><ele>142.0</ele><time>2026-04-11T16:31:09Z</time></trkpt><trkpt lat="45.409987171016816" lon="8.473893477027076"><ele>142.0</ele><time>2026-04-11T16:31:10Z</time></trkpt><trkpt lat="45.41019601238932" lon="8.473744682478335"><ele>141.5</ele><time>2026-04-11T16:31:11Z</time></trkpt><trkpt lat="45.41040598607007" lon="8.473593733827753"><ele>141.0</ele><time>2026-04-11T16:31:12Z</time></trkpt><trkpt lat="45.410615653046065" lon="8.473442437926915"><ele>141.0</ele><time>2026-04-11T16:31:13Z</time></trkpt><trkpt lat="45.41082298278599" lon="8.473288429481304"><ele>141.0</ele><time>2026-04-11T16:31:14Z</time></trkpt><trkpt lat="45.41103462500645" lon="8.473129469736056"><ele>141.0</ele><time>2026-04-11T16:31:15Z</time></trkpt><trkpt lat="45.41125049949266" lon="8.472970347409197"><ele>141.0</ele><time>2026-04-11T16:31:16Z</time></trkpt><trkpt lat="45.41146404823839" lon="8.472819635490133"><ele>140.5</ele><time>2026-04-11T16:31:17Z</time></trkpt><trkpt lat="45.4116802051168" lon="8.472665464719014"><ele>140.0</ele><time>2026-04-11T16:31:18Z</time></trkpt><trkpt lat="45.41189428092109" lon="8.472513702049914"><ele>140.0</ele><time>2026-04-11T16:31:19Z</time></trkpt><trkpt lat="45.41210904720376" lon="8.472360615950588"><ele>140.0</ele><time>2026-04-11T16:31:20Z</time></trkpt><trkpt lat="45.412322910076654" lon="8.47221032817344"><ele>140.5</ele><time>2026-04-11T16:31:21Z</time></trkpt><trkpt lat="45.41253655511142" lon="8.472059017030837"><ele>141.0</ele><time>2026-04-11T16:31:22Z</time></trkpt><trkpt lat="45.41274710621252" lon="8.471906237415123"><ele>141.0</ele><time>2026-04-11T16:31:23Z</time></trkpt><trkpt lat="45.41295708328596" lon="8.47175492487083"><ele>141.0</ele><time>2026-04-11T16:31:24Z</time></trkpt><trkpt lat="45.41316759525398" lon="8.471607035000655"><ele>141.5</ele><time>2026-04-11T16:31:25Z</time></trkpt><trkpt lat="45.41337971867878" lon="8.471456810453459"><ele>142.0</ele><time>2026-04-11T16:31:26Z</time></trkpt><trkpt lat="45.413589653070375" lon="8.471309023404546"><ele>142.0</ele><time>2026-04-11T16:31:27Z</time></trkpt><trkpt lat="45.41379886624327" lon="8.471163735478996"><ele>142.0</ele><time>2026-04-11T16:31:28Z</time></trkpt><trkpt lat="45.414009849606906" lon="8.471021447731271"><ele>142.5</ele><time>2026-04-11T16:31:29Z</time></trkpt><trkpt lat="45.41422201386991" lon="8.470876976831814"><ele>143.0</ele><time>2026-04-11T16:31:30Z</time></trkpt><trkpt lat="45.41442937193764" lon="8.470735118879478"><ele>143.0</ele><time>2026-04-11T16:31:31Z</time></trkpt><trkpt lat="45.41463758137217" lon="8.470595556042946"><ele>143.0</ele><time>2026-04-11T16:31:32Z</time></trkpt><trkpt lat="45.41484779615514" lon="8.470453346128995"><ele>143.5</ele><time>2026-04-11T16:31:33Z</time></trkpt><trkpt lat="45.41505160789519" lon="8.470316779619488"><ele>144.0</ele><time>2026-04-11T16:31:34Z</time></trkpt><trkpt lat="45.41526129920703" lon="8.470177190928156"><ele>144.0</ele><time>2026-04-11T16:31:35Z</time></trkpt><trkpt lat="45.415472031337636" lon="8.470040531720418"><ele>144.0</ele><time>2026-04-11T16:31:36Z</time></trkpt><trkpt lat="45.41567902480794" lon="8.469906060404949"><ele>143.5</ele><time>2026-04-11T16:31:37Z</time></trkpt><trkpt lat="45.41588754610353" lon="8.469772636166953"><ele>143.0</ele><time>2026-04-11T16:31:38Z</time></trkpt><trkpt lat="45.416099557051986" lon="8.469637629332698"><ele>142.5</ele><time>2026-04-11T16:31:39Z</time></trkpt><trkpt lat="45.416310964306554" lon="8.469504755258493"><ele>142.0</ele><time>2026-04-11T16:31:40Z</time></trkpt><trkpt lat="45.41652043834097" lon="8.469371639775218"><ele>142.0</ele><time>2026-04-11T16:31:41Z</time></trkpt><trkpt lat="45.41673044119775" lon="8.46923775769296"><ele>142.0</ele><time>2026-04-11T16:31:42Z</time></trkpt><trkpt lat="45.416943944268915" lon="8.46910341010739"><ele>142.5</ele><time>2026-04-11T16:31:43Z</time></trkpt><trkpt lat="45.41715535886315" lon="8.468976775238284"><ele>143.0</ele><time>2026-04-11T16:31:44Z</time></trkpt><trkpt lat="45.41736682896384" lon="8.46885189996541"><ele>143.0</ele><time>2026-04-11T16:31:45Z</time></trkpt><trkpt lat="45.417579259939906" lon="8.46872640073461"><ele>143.0</ele><time>2026-04-11T16:31:46Z</time></trkpt><trkpt lat="45.41779208761441" lon="8.468601369583935"><ele>143.5</ele><time>2026-04-11T16:31:47Z</time></trkpt><trkpt lat="45.41800275970201" lon="8.468479937892784"><ele>144.0</ele><time>2026-04-11T16:31:48Z</time></trkpt><trkpt lat="45.418215390384404" lon="8.468354506140281"><ele>144.0</ele><time>2026-04-11T16:31:49Z</time></trkpt><trkpt lat="45.418426029241125" lon="8.468233295898644"><ele>144.0</ele><time>2026-04-11T16:31:50Z</time></trkpt><trkpt lat="45.418640262924605" lon="8.46811173589438"><ele>143.5</ele><time>2026-04-11T16:31:51Z</time></trkpt><trkpt lat="45.41885456106291" lon="8.467990483294635"><ele>143.0</ele><time>2026-04-11T16:31:52Z</time></trkpt><trkpt lat="45.419069618059034" lon="8.467870891895092"><ele>143.0</ele><time>2026-04-11T16:31:53Z</time></trkpt><trkpt lat="45.419288676444005" lon="8.46775025107942"><ele>143.0</ele><time>2026-04-11T16:31:54Z</time></trkpt><trkpt lat="45.41951297078513" lon="8.467628154667631"><ele>144.0</ele><time>2026-04-11T16:31:55Z</time></trkpt><trkpt lat="45.41973862269535" lon="8.467505842396562"><ele>145.0</ele><time>2026-04-11T16:31:56Z</time></trkpt><trkpt lat="45.419965560302444" lon="8.467381808014665"><ele>145.0</ele><time>2026-04-11T16:31:57Z</time></trkpt><trkpt lat="45.42019704752474" lon="8.467258181661313"><ele>145.0</ele><time>2026-04-11T16:31:58Z</time></trkpt><trkpt lat="45.420429393650316" lon="8.467132696193586"><ele>145.5</ele><time>2026-04-11T16:31:59Z</time></trkpt><trkpt lat="45.42066254008728" lon="8.467007501417228"><ele>146.0</ele><time>2026-04-11T16:32:00Z</time></trkpt><trkpt lat="45.42089787712733" lon="8.466883159086153"><ele>146.0</ele><time>2026-04-11T16:32:01Z</time></trkpt><trkpt lat="45.42113374529562" lon="8.466762356663558"><ele>146.0</ele><time>2026-04-11T16:32:02Z</time></trkpt><trkpt lat="45.42137318365657" lon="8.466642993316949"><ele>145.5</ele><time>2026-04-11T16:32:03Z</time></trkpt><trkpt lat="45.42161268676352" lon="8.466526427135364"><ele>145.0</ele><time>2026-04-11T16:32:04Z</time></trkpt><trkpt lat="45.42185178022121" lon="8.466410944178115"><ele>145.0</ele><time>2026-04-11T16:32:05Z</time></trkpt><trkpt lat="45.422094016359615" lon="8.466294175661451"><ele>145.0</ele><time>2026-04-11T16:32:06Z</time></trkpt><trkpt lat="45.422333149245716" lon="8.466178580789888"><ele>145.5</ele><time>2026-04-11T16:32:07Z</time></trkpt><trkpt lat="45.42257185901288" lon="8.466064526462084"><ele>146.0</ele><time>2026-04-11T16:32:08Z</time></trkpt><trkpt lat="45.42280871961298" lon="8.465950366610864"><ele>146.0</ele><time>2026-04-11T16:32:09Z</time></trkpt><trkpt lat="45.42304502418407" lon="8.465839413842662"><ele>146.0</ele><time>2026-04-11T16:32:10Z</time></trkpt><trkpt lat="45.423280254898984" lon="8.465731326638545"><ele>146.0</ele><time>2026-04-11T16:32:11Z</time></trkpt><trkpt lat="45.42351278781531" lon="8.465625727188321"><ele>146.0</ele><time>2026-04-11T16:32:12Z</time></trkpt><trkpt lat="45.42374852242902" lon="8.465518845701865"><ele>145.5</ele><time>2026-04-11T16:32:13Z</time></trkpt><trkpt lat="45.4239802856712" lon="8.465414950675566"><ele>145.0</ele><time>2026-04-11T16:32:14Z</time></trkpt><trkpt lat="45.424210639256295" lon="8.465311760708497"><ele>145.0</ele><time>2026-04-11T16:32:15Z</time></trkpt><trkpt lat="45.42444111479786" lon="8.465210317906372"><ele>145.0</ele><time>2026-04-11T16:32:16Z</time></trkpt><trkpt lat="45.4246698924418" lon="8.465112934513378"><ele>145.5</ele><time>2026-04-11T16:32:17Z</time></trkpt><trkpt lat="45.42489736954193" lon="8.465016123964896"><ele>146.0</ele><time>2026-04-11T16:32:18Z</time></trkpt><trkpt lat="45.42512395962068" lon="8.464920796153722"><ele>146.0</ele><time>2026-04-11T16:32:19Z</time></trkpt><trkpt lat="45.42534958126729" lon="8.46482874028651"><ele>146.0</ele><time>2026-04-11T16:32:20Z</time></trkpt><trkpt lat="45.4255765550793" lon="8.464736578272754"><ele>146.0</ele><time>2026-04-11T16:32:21Z</time></trkpt><trkpt lat="45.42579973294739" lon="8.464644897894791"><ele>146.0</ele><time>2026-04-11T16:32:22Z</time></trkpt><trkpt lat="45.426021674449736" lon="8.464555085954721"><ele>146.5</ele><time>2026-04-11T16:32:23Z</time></trkpt><trkpt lat="45.4262436785602" lon="8.46446515919668"><ele>147.0</ele><time>2026-04-11T16:32:24Z</time></trkpt><trkpt lat="45.42646618556396" lon="8.464379062012028"><ele>147.0</ele><time>2026-04-11T16:32:25Z</time></trkpt><trkpt lat="45.42668891731236" lon="8.464293240765237"><ele>147.0</ele><time>2026-04-11T16:32:26Z</time></trkpt><trkpt lat="45.426909548423964" lon="8.464209696951794"><ele>147.0</ele><time>2026-04-11T16:32:27Z</time></trkpt><trkpt lat="45.42713041140594" lon="8.464126364579862"><ele>147.0</ele><time>2026-04-11T16:32:28Z</time></trkpt><trkpt lat="45.42735052677293" lon="8.464043634981628"><ele>146.5</ele><time>2026-04-11T16:32:29Z</time></trkpt><trkpt lat="45.42757508445057" lon="8.463962346037968"><ele>146.0</ele><time>2026-04-11T16:32:30Z</time></trkpt><trkpt lat="45.427798435130576" lon="8.463884666113048"><ele>146.5</ele><time>2026-04-11T16:32:31Z</time></trkpt><trkpt lat="45.42802230348544" lon="8.463804106423984"><ele>147.0</ele><time>2026-04-11T16:32:32Z</time></trkpt><trkpt lat="45.42824762580378" lon="8.463723199344622"><ele>149.0</ele><time>2026-04-11T16:32:33Z</time></trkpt><trkpt lat="45.42847866300954" lon="8.463640442871172"><ele>151.0</ele><time>2026-04-11T16:32:34Z</time></trkpt><trkpt lat="45.428707017261765" lon="8.463561416937742"><ele>150.5</ele><time>2026-04-11T16:32:35Z</time></trkpt><trkpt lat="45.428940448568" lon="8.463479169958543"><ele>150.0</ele><time>2026-04-11T16:32:36Z</time></trkpt><trkpt lat="45.42917957729748" lon="8.463405040694033"><ele>150.0</ele><time>2026-04-11T16:32:37Z</time></trkpt><trkpt lat="45.42941476784487" lon="8.46331492698338"><ele>150.0</ele><time>2026-04-11T16:32:38Z</time></trkpt><trkpt lat="45.4296524833303" lon="8.463231808112043"><ele>149.0</ele><time>2026-04-11T16:32:39Z</time></trkpt><trkpt lat="45.42989094051801" lon="8.46314563120403"><ele>148.0</ele><time>2026-04-11T16:32:40Z</time></trkpt><trkpt lat="45.430131319777594" lon="8.463057795305327"><ele>148.0</ele><time>2026-04-11T16:32:41Z</time></trkpt><trkpt lat="45.43037130771572" lon="8.46297212771559"><ele>148.0</ele><time>2026-04-11T16:32:42Z</time></trkpt><trkpt lat="45.43061273550196" lon="8.46288566111819"><ele>148.5</ele><time>2026-04-11T16:32:43Z</time></trkpt><trkpt lat="45.43085308181102" lon="8.46280087541154"><ele>149.0</ele><time>2026-04-11T16:32:44Z</time></trkpt><trkpt lat="45.43109430101313" lon="8.462717853931279"><ele>149.0</ele><time>2026-04-11T16:32:45Z</time></trkpt><trkpt lat="45.43133602115238" lon="8.462632083016384"><ele>149.0</ele><time>2026-04-11T16:32:46Z</time></trkpt><trkpt lat="45.43157606743034" lon="8.462549240131219"><ele>149.0</ele><time>2026-04-11T16:32:47Z</time></trkpt><trkpt lat="45.43181371172143" lon="8.462464887455551"><ele>149.0</ele><time>2026-04-11T16:32:48Z</time></trkpt><trkpt lat="45.43205594461162" lon="8.46237615998863"><ele>149.0</ele><time>2026-04-11T16:32:49Z</time></trkpt><trkpt lat="45.43229288455286" lon="8.462291847075791"><ele>149.0</ele><time>2026-04-11T16:32:50Z</time></trkpt><trkpt lat="45.4325298601773" lon="8.462205910540881"><ele>149.0</ele><time>2026-04-11T16:32:51Z</time></trkpt><trkpt lat="45.43276159161357" lon="8.462122290945292"><ele>149.0</ele><time>2026-04-11T16:32:52Z</time></trkpt><trkpt lat="45.432996027736316" lon="8.462038893192984"><ele>149.0</ele><time>2026-04-11T16:32:53Z</time></trkpt><trkpt lat="45.43322729149649" lon="8.461960142189666"><ele>149.0</ele><time>2026-04-11T16:32:54Z</time></trkpt><trkpt lat="45.433460176694666" lon="8.461880702779737"><ele>149.0</ele><time>2026-04-11T16:32:55Z</time></trkpt><trkpt lat="45.433687400023125" lon="8.46180152422153"><ele>149.0</ele><time>2026-04-11T16:32:56Z</time></trkpt><trkpt lat="45.433916723706105" lon="8.461718823734374"><ele>149.5</ele><time>2026-04-11T16:32:57Z</time></trkpt><trkpt lat="45.43414515600897" lon="8.461639319114445"><ele>150.0</ele><time>2026-04-11T16:32:58Z</time></trkpt><trkpt lat="45.4343724566019" lon="8.46155702010503"><ele>150.0</ele><time>2026-04-11T16:32:59Z</time></trkpt><trkpt lat="45.43460095314154" lon="8.461474536202651"><ele>150.0</ele><time>2026-04-11T16:33:00Z</time></trkpt><trkpt lat="45.4348269142586" lon="8.46139238021895"><ele>150.0</ele><time>2026-04-11T16:33:01Z</time></trkpt><trkpt lat="45.43505351928367" lon="8.461311988154558"><ele>150.0</ele><time>2026-04-11T16:33:02Z</time></trkpt><trkpt lat="45.43527810856029" lon="8.46124022694002"><ele>149.5</ele><time>2026-04-11T16:33:03Z</time></trkpt><trkpt lat="45.435503804560135" lon="8.46116090733051"><ele>149.0</ele><time>2026-04-11T16:33:04Z</time></trkpt><trkpt lat="45.43573070938211" lon="8.461080610300533"><ele>149.0</ele><time>2026-04-11T16:33:05Z</time></trkpt><trkpt lat="45.43595674907639" lon="8.461003708460797"><ele>149.0</ele><time>2026-04-11T16:33:06Z</time></trkpt><trkpt lat="45.43618638586065" lon="8.460923659914913"><ele>151.0</ele><time>2026-04-11T16:33:07Z</time></trkpt><trkpt lat="45.43641499333351" lon="8.460839743641648"><ele>153.0</ele><time>2026-04-11T16:33:08Z</time></trkpt><trkpt lat="45.43664194258606" lon="8.46075685014832"><ele>153.0</ele><time>2026-04-11T16:33:09Z</time></trkpt><trkpt lat="45.436871645694154" lon="8.460676186582463"><ele>153.0</ele><time>2026-04-11T16:33:10Z</time></trkpt><trkpt lat="45.4371006387452" lon="8.460597412951275"><ele>152.0</ele><time>2026-04-11T16:33:11Z</time></trkpt><trkpt lat="45.43732899635049" lon="8.46051321890498"><ele>151.0</ele><time>2026-04-11T16:33:12Z</time></trkpt><trkpt lat="45.43756170146785" lon="8.460434567828013"><ele>151.0</ele><time>2026-04-11T16:33:13Z</time></trkpt><trkpt lat="45.43779456287052" lon="8.460352733932735"><ele>151.0</ele><time>2026-04-11T16:33:14Z</time></trkpt><trkpt lat="45.43802744615202" lon="8.460270208055034"><ele>151.0</ele><time>2026-04-11T16:33:15Z</time></trkpt><trkpt lat="45.43826076674394" lon="8.460185807121457"><ele>151.0</ele><time>2026-04-11T16:33:16Z</time></trkpt><trkpt lat="45.43849659090092" lon="8.460103398520902"><ele>151.0</ele><time>2026-04-11T16:33:17Z</time></trkpt><trkpt lat="45.43872937506507" lon="8.460021805441578"><ele>151.0</ele><time>2026-04-11T16:33:18Z</time></trkpt><trkpt lat="45.43896002678717" lon="8.459942405884677"><ele>151.0</ele><time>2026-04-11T16:33:19Z</time></trkpt><trkpt lat="45.439194070558464" lon="8.459857803732566"><ele>151.0</ele><time>2026-04-11T16:33:20Z</time></trkpt><trkpt lat="45.439427620826734" lon="8.459775657797552"><ele>151.5</ele><time>2026-04-11T16:33:21Z</time></trkpt><trkpt lat="45.4396617410186" lon="8.459692948536972"><ele>152.0</ele><time>2026-04-11T16:33:22Z</time></trkpt><trkpt lat="45.43989291653193" lon="8.459612041860138"><ele>152.0</ele><time>2026-04-11T16:33:23Z</time></trkpt><trkpt lat="45.44012641972435" lon="8.459531918370525"><ele>152.0</ele><time>2026-04-11T16:33:24Z</time></trkpt><trkpt lat="45.44035960125845" lon="8.4594493509255"><ele>151.5</ele><time>2026-04-11T16:33:25Z</time></trkpt><trkpt lat="45.4405937142423" lon="8.459366026372647"><ele>151.0</ele><time>2026-04-11T16:33:26Z</time></trkpt><trkpt lat="45.44082923409441" lon="8.459281107972249"><ele>151.0</ele><time>2026-04-11T16:33:27Z</time></trkpt><trkpt lat="45.441065652007424" lon="8.459198435327627"><ele>151.0</ele><time>2026-04-11T16:33:28Z</time></trkpt><trkpt lat="45.441298930706566" lon="8.45911506873565"><ele>151.5</ele><time>2026-04-11T16:33:29Z</time></trkpt><trkpt lat="45.44153803963764" lon="8.459032490891328"><ele>152.0</ele><time>2026-04-11T16:33:30Z</time></trkpt><trkpt lat="45.4417722899508" lon="8.458949471309042"><ele>152.0</ele><time>2026-04-11T16:33:31Z</time></trkpt><trkpt lat="45.442006266861156" lon="8.45886581138184"><ele>152.0</ele><time>2026-04-11T16:33:32Z</time></trkpt><trkpt lat="45.44224078818303" lon="8.458782588202268"><ele>153.0</ele><time>2026-04-11T16:33:33Z</time></trkpt><trkpt lat="45.4424763120292" lon="8.458698512395292"><ele>154.0</ele><time>2026-04-11T16:33:34Z</time></trkpt><trkpt lat="45.44271181905736" lon="8.458613693409628"><ele>154.0</ele><time>2026-04-11T16:33:35Z</time></trkpt><trkpt lat="45.44294770813548" lon="8.458529247091974"><ele>154.0</ele><time>2026-04-11T16:33:36Z</time></trkpt><trkpt lat="45.44318158899459" lon="8.45844689618538"><ele>153.5</ele><time>2026-04-11T16:33:37Z</time></trkpt><trkpt lat="45.4434179649412" lon="8.45836575758232"><ele>153.0</ele><time>2026-04-11T16:33:38Z</time></trkpt><trkpt lat="45.44365337197263" lon="8.458284912741034"><ele>153.5</ele><time>2026-04-11T16:33:39Z</time></trkpt><trkpt lat="45.443887194109266" lon="8.458202146145727"><ele>154.0</ele><time>2026-04-11T16:33:40Z</time></trkpt><trkpt lat="45.444126682463434" lon="8.4581157186756"><ele>154.0</ele><time>2026-04-11T16:33:41Z</time></trkpt><trkpt lat="45.44436229909437" lon="8.458031284671065"><ele>154.0</ele><time>2026-04-11T16:33:42Z</time></trkpt><trkpt lat="45.44459852437254" lon="8.45794648185367"><ele>154.5</ele><time>2026-04-11T16:33:43Z</time></trkpt><trkpt lat="45.44483387021538" lon="8.45786418183098"><ele>155.0</ele><time>2026-04-11T16:33:44Z</time></trkpt><trkpt lat="45.44507048701342" lon="8.457780368225835"><ele>155.0</ele><time>2026-04-11T16:33:45Z</time></trkpt><trkpt lat="45.445311247541106" lon="8.457696923174396"><ele>155.0</ele><time>2026-04-11T16:33:46Z</time></trkpt><trkpt lat="45.44554686311874" lon="8.457614389213182"><ele>155.5</ele><time>2026-04-11T16:33:47Z</time></trkpt><trkpt lat="45.44578510655971" lon="8.457530939521375"><ele>156.0</ele><time>2026-04-11T16:33:48Z</time></trkpt><trkpt lat="45.44602225707325" lon="8.457446693865704"><ele>156.0</ele><time>2026-04-11T16:33:49Z</time></trkpt><trkpt lat="45.446257874183345" lon="8.457360247766976"><ele>156.0</ele><time>2026-04-11T16:33:50Z</time></trkpt><trkpt lat="45.446492070737165" lon="8.457275678179487"><ele>156.0</ele><time>2026-04-11T16:33:51Z</time></trkpt><trkpt lat="45.44672880792779" lon="8.457191513618064"><ele>156.0</ele><time>2026-04-11T16:33:52Z</time></trkpt><trkpt lat="45.44695842565789" lon="8.457114157340255"><ele>156.0</ele><time>2026-04-11T16:33:53Z</time></trkpt><trkpt lat="45.44718643756517" lon="8.457038820749348"><ele>156.0</ele><time>2026-04-11T16:33:54Z</time></trkpt><trkpt lat="45.44743607932023" lon="8.456946439593539"><ele>156.0</ele><time>2026-04-11T16:33:55Z</time></trkpt><trkpt lat="45.44766959623851" lon="8.45686248261907"><ele>156.0</ele><time>2026-04-11T16:33:56Z</time></trkpt><trkpt lat="45.44790617007947" lon="8.456777750651346"><ele>156.5</ele><time>2026-04-11T16:33:57Z</time></trkpt><trkpt lat="45.448137637558325" lon="8.45669621148088"><ele>157.0</ele><time>2026-04-11T16:33:58Z</time></trkpt><trkpt lat="45.44837958228908" lon="8.456610858974354"><ele>157.0</ele><time>2026-04-11T16:33:59Z</time></trkpt><trkpt lat="45.44861577287965" lon="8.45652648758513"><ele>157.0</ele><time>2026-04-11T16:34:00Z</time></trkpt><trkpt lat="45.4488521294113" lon="8.45644250013648"><ele>157.0</ele><time>2026-04-11T16:34:01Z</time></trkpt><trkpt lat="45.44908546567861" lon="8.456358447579479"><ele>157.0</ele><time>2026-04-11T16:34:02Z</time></trkpt><trkpt lat="45.44932463483309" lon="8.45627397265333"><ele>157.0</ele><time>2026-04-11T16:34:03Z</time></trkpt><trkpt lat="45.44955923354751" lon="8.456190731904465"><ele>157.0</ele><time>2026-04-11T16:34:04Z</time></trkpt><trkpt lat="45.44979780347134" lon="8.456107864243458"><ele>157.0</ele><time>2026-04-11T16:34:05Z</time></trkpt><trkpt lat="45.45003495225664" lon="8.456026105513734"><ele>157.0</ele><time>2026-04-11T16:34:06Z</time></trkpt><trkpt lat="45.450276688842656" lon="8.455945843148296"><ele>158.5</ele><time>2026-04-11T16:34:07Z</time></trkpt><trkpt lat="45.45050972976904" lon="8.45586116898005"><ele>160.0</ele><time>2026-04-11T16:34:08Z</time></trkpt><trkpt lat="45.45074922134441" lon="8.45577585193896"><ele>160.0</ele><time>2026-04-11T16:34:09Z</time></trkpt><trkpt lat="45.45098620802199" lon="8.455690368727934"><ele>160.0</ele><time>2026-04-11T16:34:10Z</time></trkpt><trkpt lat="45.45122423584769" lon="8.455605516541155"><ele>159.5</ele><time>2026-04-11T16:34:11Z</time></trkpt><trkpt lat="45.451461690284425" lon="8.455521072162863"><ele>159.0</ele><time>2026-04-11T16:34:12Z</time></trkpt><trkpt lat="45.45169519200339" lon="8.455435958720567"><ele>159.0</ele><time>2026-04-11T16:34:13Z</time></trkpt><trkpt lat="45.45193373856394" lon="8.45535074576299"><ele>159.0</ele><time>2026-04-11T16:34:14Z</time></trkpt><trkpt lat="45.45216905800847" lon="8.455268321092747"><ele>159.0</ele><time>2026-04-11T16:34:15Z</time></trkpt><trkpt lat="45.452401956580324" lon="8.455187740173605"><ele>159.0</ele><time>2026-04-11T16:34:16Z</time></trkpt><trkpt lat="45.45263994506278" lon="8.45510286574584"><ele>159.0</ele><time>2026-04-11T16:34:17Z</time></trkpt><trkpt lat="45.4528723965225" lon="8.45502050105732"><ele>159.0</ele><time>2026-04-11T16:34:18Z</time></trkpt><trkpt lat="45.45310852588544" lon="8.454936351245683"><ele>158.5</ele><time>2026-04-11T16:34:19Z</time></trkpt><trkpt lat="45.453340676356596" lon="8.454854394714586"><ele>158.0</ele><time>2026-04-11T16:34:20Z</time></trkpt><trkpt lat="45.453576527982726" lon="8.454770689511335"><ele>159.0</ele><time>2026-04-11T16:34:21Z</time></trkpt><trkpt lat="45.45381096128483" lon="8.454687476446246"><ele>160.0</ele><time>2026-04-11T16:34:22Z</time></trkpt><trkpt lat="45.45404917786262" lon="8.454602451104064"><ele>160.0</ele><time>2026-04-11T16:34:23Z</time></trkpt><trkpt lat="45.454286576424444" lon="8.454519215453008"><ele>160.0</ele><time>2026-04-11T16:34:24Z</time></trkpt><trkpt lat="45.45452256724209" lon="8.454435705719346"><ele>161.0</ele><time>2026-04-11T16:34:25Z</time></trkpt><trkpt lat="45.454762465038975" lon="8.454347833279888"><ele>162.0</ele><time>2026-04-11T16:34:26Z</time></trkpt><trkpt lat="45.454998029308925" lon="8.454262769424345"><ele>162.0</ele><time>2026-04-11T16:34:27Z</time></trkpt><trkpt lat="45.45523066936863" lon="8.454182266614712"><ele>162.0</ele><time>2026-04-11T16:34:28Z</time></trkpt><trkpt lat="45.455471030296124" lon="8.454098796764846"><ele>162.0</ele><time>2026-04-11T16:34:29Z</time></trkpt><trkpt lat="45.455712880550195" lon="8.454014037981203"><ele>162.0</ele><time>2026-04-11T16:34:30Z</time></trkpt><trkpt lat="45.45594721386337" lon="8.453931423956819"><ele>162.0</ele><time>2026-04-11T16:34:31Z</time></trkpt><trkpt lat="45.45618916528929" lon="8.453846734256654"><ele>162.0</ele><time>2026-04-11T16:34:32Z</time></trkpt><trkpt lat="45.456428374753415" lon="8.453763581301434"><ele>163.0</ele><time>2026-04-11T16:34:33Z</time></trkpt><trkpt lat="45.45666413646773" lon="8.453681619112448"><ele>164.0</ele><time>2026-04-11T16:34:34Z</time></trkpt><trkpt lat="45.45690625657475" lon="8.453596046149379"><ele>163.0</ele><time>2026-04-11T16:34:35Z</time></trkpt><trkpt lat="45.45714839696471" lon="8.453508041332638"><ele>162.0</ele><time>2026-04-11T16:34:36Z</time></trkpt><trkpt lat="45.45738899612973" lon="8.453421962481888"><ele>162.0</ele><time>2026-04-11T16:34:37Z</time></trkpt><trkpt lat="45.457624512637864" lon="8.453338895464766"><ele>162.0</ele><time>2026-04-11T16:34:38Z</time></trkpt><trkpt lat="45.457861528172565" lon="8.45325342192723"><ele>161.5</ele><time>2026-04-11T16:34:39Z</time></trkpt><trkpt lat="45.45809474036621" lon="8.45317138389076"><ele>161.0</ele><time>2026-04-11T16:34:40Z</time></trkpt><trkpt lat="45.45832624794927" lon="8.453090111239005"><ele>161.0</ele><time>2026-04-11T16:34:41Z</time></trkpt><trkpt lat="45.4585594581158" lon="8.45300897209193"><ele>161.0</ele><time>2026-04-11T16:34:42Z</time></trkpt><trkpt lat="45.45879213743031" lon="8.452929572214057"><ele>162.0</ele><time>2026-04-11T16:34:43Z</time></trkpt><trkpt lat="45.45901797821699" lon="8.45285116365277"><ele>163.0</ele><time>2026-04-11T16:34:44Z</time></trkpt><trkpt lat="45.459238654945544" lon="8.452772549501896"><ele>163.0</ele><time>2026-04-11T16:34:45Z</time></trkpt><trkpt lat="45.45946352386499" lon="8.452695157570256"><ele>163.0</ele><time>2026-04-11T16:34:46Z</time></trkpt><trkpt lat="45.459688934603754" lon="8.452618247137043"><ele>163.0</ele><time>2026-04-11T16:34:47Z</time></trkpt><trkpt lat="45.459907595021306" lon="8.452542913834682"><ele>163.0</ele><time>2026-04-11T16:34:48Z</time></trkpt><trkpt lat="45.460118708924625" lon="8.452474386773476"><ele>163.0</ele><time>2026-04-11T16:34:49Z</time></trkpt><trkpt lat="45.46034096831131" lon="8.452402745963603"><ele>162.0</ele><time>2026-04-11T16:34:50Z</time></trkpt><trkpt lat="45.460557019263476" lon="8.4523342627987"><ele>161.0</ele><time>2026-04-11T16:34:51Z</time></trkpt><trkpt lat="45.46076696385924" lon="8.452267060343058"><ele>160.0</ele><time>2026-04-11T16:34:52Z</time></trkpt><trkpt lat="45.46097919251411" lon="8.452202514174495"><ele>160.0</ele><time>2026-04-11T16:34:53Z</time></trkpt><trkpt lat="45.46118870842399" lon="8.452136298898463"><ele>160.0</ele><time>2026-04-11T16:34:54Z</time></trkpt><trkpt lat="45.46138833121968" lon="8.452076350335814"><ele>160.0</ele><time>2026-04-11T16:34:55Z</time></trkpt><trkpt lat="45.46158582685996" lon="8.452023873083013"><ele>161.33333333333334</ele><time>2026-04-11T16:34:56Z</time></trkpt><trkpt lat="45.461783171785925" lon="8.451982383173334"><ele>162.66666666666666</ele><time>2026-04-11T16:34:57Z</time></trkpt><trkpt lat="45.461983223833066" lon="8.451949549604212"><ele>164.0</ele><time>2026-04-11T16:34:58Z</time></trkpt><trkpt lat="45.46217272665295" lon="8.451934069630251"><ele>164.66666666666666</ele><time>2026-04-11T16:34:59Z</time></trkpt><trkpt lat="45.462363575606034" lon="8.451938593807958"><ele>165.33333333333334</ele><time>2026-04-11T16:35:00Z</time></trkpt><trkpt lat="45.46255956954728" lon="8.451963732182007"><ele>166.0</ele><time>2026-04-11T16:35:01Z</time></trkpt><trkpt lat="45.462759682002975" lon="8.452006861375395"><ele>166.0</ele><time>2026-04-11T16:35:02Z</time></trkpt><trkpt lat="45.46296317547677" lon="8.452068149671987"><ele>166.0</ele><time>2026-04-11T16:35:03Z</time></trkpt><trkpt lat="45.46316838714857" lon="8.452145805304616"><ele>166.0</ele><time>2026-04-11T16:35:04Z</time></trkpt><trkpt lat="45.4633732230171" lon="8.452240016593949"><ele>166.0</ele><time>2026-04-11T16:35:05Z</time></trkpt><trkpt lat="45.46357007093513" lon="8.452346861323733"><ele>166.0</ele><time>2026-04-11T16:35:06Z</time></trkpt><trkpt lat="45.46376819206663" lon="8.452476297327074"><ele>166.0</ele><time>2026-04-11T16:35:07Z</time></trkpt><trkpt lat="45.46395436605915" lon="8.452620207765017"><ele>165.33333333333334</ele><time>2026-04-11T16:35:08Z</time></trkpt><trkpt lat="45.46413714350539" lon="8.452779114844695"><ele>164.66666666666666</ele><time>2026-04-11T16:35:09Z</time></trkpt><trkpt lat="45.46431177117594" lon="8.452950895423982"><ele>164.0</ele><time>2026-04-11T16:35:10Z</time></trkpt><trkpt lat="45.46447784410604" lon="8.453132849972786"><ele>164.0</ele><time>2026-04-11T16:35:11Z</time></trkpt><trkpt lat="45.464633843093544" lon="8.45333062131528"><ele>164.0</ele><time>2026-04-11T16:35:12Z</time></trkpt><trkpt lat="45.464782255842984" lon="8.453537911294292"><ele>164.0</ele><time>2026-04-11T16:35:13Z</time></trkpt><trkpt lat="45.46492171278999" lon="8.453758028135907"><ele>163.33333333333331</ele><time>2026-04-11T16:35:14Z</time></trkpt><trkpt lat="45.465049889142364" lon="8.453989044777042"><ele>162.66666666666666</ele><time>2026-04-11T16:35:15Z</time></trkpt><trkpt lat="45.46516006032216" lon="8.45423349783755"><ele>162.0</ele><time>2026-04-11T16:35:16Z</time></trkpt><trkpt lat="45.46525775900716" lon="8.454489523697164"><ele>162.0</ele><time>2026-04-11T16:35:17Z</time></trkpt><trkpt lat="45.46534344177016" lon="8.454763109608232"><ele>162.0</ele><time>2026-04-11T16:35:18Z</time></trkpt><trkpt lat="45.465411395132044" lon="8.455047471718206"><ele>162.0</ele><time>2026-04-11T16:35:19Z</time></trkpt><trkpt lat="45.46547145500684" lon="8.455341461261265"><ele>162.33333333333334</ele><time>2026-04-11T16:35:20Z</time></trkpt><trkpt lat="45.46551297395943" lon="8.455643090550971"><ele>162.66666666666669</ele><time>2026-04-11T16:35:21Z</time></trkpt><trkpt lat="45.46553876136177" lon="8.455956210090546"><ele>163.0</ele><time>2026-04-11T16:35:22Z</time></trkpt><trkpt lat="45.46555360580494" lon="8.456271264346002"><ele>163.5</ele><time>2026-04-11T16:35:23Z</time></trkpt><trkpt lat="45.46557428374175" lon="8.456595343625501"><ele>164.0</ele><time>2026-04-11T16:35:24Z</time></trkpt><trkpt lat="45.46559985652433" lon="8.456929661863695"><ele>164.0</ele><time>2026-04-11T16:35:25Z</time></trkpt><trkpt lat="45.46562509994529" lon="8.457259294087988"><ele>164.0</ele><time>2026-04-11T16:35:26Z</time></trkpt><trkpt lat="45.4656488161735" lon="8.457591531259967"><ele>164.0</ele><time>2026-04-11T16:35:27Z</time></trkpt><trkpt lat="45.46567555717296" lon="8.457916956901293"><ele>164.0</ele><time>2026-04-11T16:35:28Z</time></trkpt><trkpt lat="45.46570827768589" lon="8.45824090110542"><ele>163.5</ele><time>2026-04-11T16:35:29Z</time></trkpt><trkpt lat="45.465739714162424" lon="8.458562969483495"><ele>163.0</ele><time>2026-04-11T16:35:30Z</time></trkpt><trkpt lat="45.46577238427164" lon="8.45888438574124"><ele>162.5</ele><time>2026-04-11T16:35:31Z</time></trkpt><trkpt lat="45.46580673923978" lon="8.459204463153593"><ele>162.0</ele><time>2026-04-11T16:35:32Z</time></trkpt><trkpt lat="45.46584045297585" lon="8.459524469588878"><ele>161.5</ele><time>2026-04-11T16:35:33Z</time></trkpt><trkpt lat="45.46587707698448" lon="8.459842065064043"><ele>161.0</ele><time>2026-04-11T16:35:34Z</time></trkpt><trkpt lat="45.465915237197166" lon="8.460160971587545"><ele>160.5</ele><time>2026-04-11T16:35:35Z</time></trkpt><trkpt lat="45.465952737195" lon="8.460476367412754"><ele>160.0</ele><time>2026-04-11T16:35:36Z</time></trkpt><trkpt lat="45.46599154606628" lon="8.460793063657924"><ele>160.0</ele><time>2026-04-11T16:35:37Z</time></trkpt><trkpt lat="45.4660301983892" lon="8.461107317423222"><ele>160.0</ele><time>2026-04-11T16:35:38Z</time></trkpt><trkpt lat="45.46607012250471" lon="8.461431160240753"><ele>159.5</ele><time>2026-04-11T16:35:39Z</time></trkpt><trkpt lat="45.466109401908945" lon="8.46175331916458"><ele>159.0</ele><time>2026-04-11T16:35:40Z</time></trkpt><trkpt lat="45.466146975332734" lon="8.462076877181135"><ele>159.5</ele><time>2026-04-11T16:35:41Z</time></trkpt><trkpt lat="45.46618028098114" lon="8.46240168541895"><ele>160.0</ele><time>2026-04-11T16:35:42Z</time></trkpt><trkpt lat="45.46621075256971" lon="8.462730728610214"><ele>160.0</ele><time>2026-04-11T16:35:43Z</time></trkpt><trkpt lat="45.46624021753324" lon="8.463054674664717"><ele>160.0</ele><time>2026-04-11T16:35:44Z</time></trkpt><trkpt lat="45.466267162167476" lon="8.463379164035102"><ele>161.5</ele><time>2026-04-11T16:35:45Z</time></trkpt><trkpt lat="45.46629499234428" lon="8.463703886400117"><ele>163.0</ele><time>2026-04-11T16:35:46Z</time></trkpt><trkpt lat="45.46632247401452" lon="8.46402512002461"><ele>163.5</ele><time>2026-04-11T16:35:47Z</time></trkpt><trkpt lat="45.46635088673379" lon="8.464349239624859"><ele>164.0</ele><time>2026-04-11T16:35:48Z</time></trkpt><trkpt lat="45.46637936601474" lon="8.464677414900354"><ele>164.0</ele><time>2026-04-11T16:35:49Z</time></trkpt><trkpt lat="45.46640747796489" lon="8.46499651241028"><ele>164.0</ele><time>2026-04-11T16:35:50Z</time></trkpt><trkpt lat="45.466431396267616" lon="8.465316022132173"><ele>164.5</ele><time>2026-04-11T16:35:51Z</time></trkpt><trkpt lat="45.46645819094017" lon="8.465636771647896"><ele>165.0</ele><time>2026-04-11T16:35:52Z</time></trkpt><trkpt lat="45.46648206632392" lon="8.465954032835874"><ele>165.0</ele><time>2026-04-11T16:35:53Z</time></trkpt><trkpt lat="45.466503748987996" lon="8.466274253910752"><ele>165.0</ele><time>2026-04-11T16:35:54Z</time></trkpt><trkpt lat="45.46652883213929" lon="8.46658866433895"><ele>165.0</ele><time>2026-04-11T16:35:55Z</time></trkpt><trkpt lat="45.466552589006334" lon="8.466906051923495"><ele>164.5</ele><time>2026-04-11T16:35:56Z</time></trkpt><trkpt lat="45.46657562897345" lon="8.467224893911618"><ele>164.0</ele><time>2026-04-11T16:35:57Z</time></trkpt><trkpt lat="45.46659848365119" lon="8.467545329714666"><ele>164.0</ele><time>2026-04-11T16:35:58Z</time></trkpt><trkpt lat="45.46662322555511" lon="8.46786133593891"><ele>164.0</ele><time>2026-04-11T16:35:59Z</time></trkpt><trkpt lat="45.466646670330654" lon="8.468179941411531"><ele>164.0</ele><time>2026-04-11T16:36:00Z</time></trkpt><trkpt lat="45.466670004201305" lon="8.468501969131314"><ele>164.0</ele><time>2026-04-11T16:36:01Z</time></trkpt><trkpt lat="45.46669396324633" lon="8.468829525465482"><ele>164.0</ele><time>2026-04-11T16:36:02Z</time></trkpt><trkpt lat="45.4667175499169" lon="8.469161511329839"><ele>164.0</ele><time>2026-04-11T16:36:03Z</time></trkpt><trkpt lat="45.46674283125243" lon="8.469483278691694"><ele>164.0</ele><time>2026-04-11T16:36:04Z</time></trkpt><trkpt lat="45.46676608992355" lon="8.469808266517115"><ele>164.0</ele><time>2026-04-11T16:36:05Z</time></trkpt><trkpt lat="45.46681215560415" lon="8.470130833141338"><ele>164.0</ele><time>2026-04-11T16:36:06Z</time></trkpt><trkpt lat="45.46681335733916" lon="8.470453392175315"><ele>164.0</ele><time>2026-04-11T16:36:07Z</time></trkpt><trkpt lat="45.46683823170734" lon="8.470775850916144"><ele>164.0</ele><time>2026-04-11T16:36:08Z</time></trkpt><trkpt lat="45.46686302555597" lon="8.471099908189125"><ele>163.0</ele><time>2026-04-11T16:36:09Z</time></trkpt><trkpt lat="45.46688847244539" lon="8.471424728386"><ele>162.0</ele><time>2026-04-11T16:36:10Z</time></trkpt><trkpt lat="45.46691250151247" lon="8.471745468240513"><ele>162.0</ele><time>2026-04-11T16:36:11Z</time></trkpt><trkpt lat="45.4669350552986" lon="8.47207256828125"><ele>162.0</ele><time>2026-04-11T16:36:12Z</time></trkpt><trkpt lat="45.46695950195482" lon="8.47240124809826"><ele>162.0</ele><time>2026-04-11T16:36:13Z</time></trkpt><trkpt lat="45.466984386675456" lon="8.472729891384885"><ele>162.0</ele><time>2026-04-11T16:36:14Z</time></trkpt><trkpt lat="45.46700999262409" lon="8.473054378816425"><ele>162.5</ele><time>2026-04-11T16:36:15Z</time></trkpt><trkpt lat="45.467034637604215" lon="8.473386175985048"><ele>163.0</ele><time>2026-04-11T16:36:16Z</time></trkpt><trkpt lat="45.46705771261947" lon="8.473717819686037"><ele>162.5</ele><time>2026-04-11T16:36:17Z</time></trkpt><trkpt lat="45.46708141083652" lon="8.47405124404394"><ele>162.0</ele><time>2026-04-11T16:36:18Z</time></trkpt><trkpt lat="45.467106025727965" lon="8.474387204442975"><ele>162.0</ele><time>2026-04-11T16:36:19Z</time></trkpt><trkpt lat="45.467130253317585" lon="8.474726155949543"><ele>162.0</ele><time>2026-04-11T16:36:20Z</time></trkpt><trkpt lat="45.46715597067857" lon="8.475062009155563"><ele>162.0</ele><time>2026-04-11T16:36:21Z</time></trkpt><trkpt lat="45.46718061273338" lon="8.47540690449319"><ele>162.0</ele><time>2026-04-11T16:36:22Z</time></trkpt><trkpt lat="45.4672064752695" lon="8.475741682029172"><ele>162.0</ele><time>2026-04-11T16:36:23Z</time></trkpt><trkpt lat="45.46723157032823" lon="8.476082572313246"><ele>162.0</ele><time>2026-04-11T16:36:24Z</time></trkpt><trkpt lat="45.4672570612317" lon="8.476419489384549"><ele>161.5</ele><time>2026-04-11T16:36:25Z</time></trkpt><trkpt lat="45.46727943332111" lon="8.476757283871398"><ele>161.0</ele><time>2026-04-11T16:36:26Z</time></trkpt><trkpt lat="45.46730492287366" lon="8.47708908131037"><ele>161.5</ele><time>2026-04-11T16:36:27Z</time></trkpt><trkpt lat="45.46732876158336" lon="8.477422623066388"><ele>162.0</ele><time>2026-04-11T16:36:28Z</time></trkpt><trkpt lat="45.467353034552595" lon="8.477755266993068"><ele>162.0</ele><time>2026-04-11T16:36:29Z</time></trkpt><trkpt lat="45.46737653588594" lon="8.478092206538607"><ele>162.0</ele><time>2026-04-11T16:36:30Z</time></trkpt><trkpt lat="45.46739998929192" lon="8.47842549404619"><ele>162.0</ele><time>2026-04-11T16:36:31Z</time></trkpt><trkpt lat="45.46742348290231" lon="8.478754417078548"><ele>162.0</ele><time>2026-04-11T16:36:32Z</time></trkpt><trkpt lat="45.467447500414835" lon="8.479088341854661"><ele>161.5</ele><time>2026-04-11T16:36:33Z</time></trkpt><trkpt lat="45.46747192387464" lon="8.479422693956177"><ele>161.0</ele><time>2026-04-11T16:36:34Z</time></trkpt><trkpt lat="45.46749649992071" lon="8.479758815780878"><ele>160.5</ele><time>2026-04-11T16:36:35Z</time></trkpt><trkpt lat="45.46752064152088" lon="8.480091575774297"><ele>160.0</ele><time>2026-04-11T16:36:36Z</time></trkpt><trkpt lat="45.46754599554298" lon="8.480427334299256"><ele>161.5</ele><time>2026-04-11T16:36:37Z</time></trkpt><trkpt lat="45.46757004325137" lon="8.480764509089212"><ele>163.0</ele><time>2026-04-11T16:36:38Z</time></trkpt><trkpt lat="45.46759477356078" lon="8.481101415472606"><ele>162.0</ele><time>2026-04-11T16:36:39Z</time></trkpt><trkpt lat="45.46761990431427" lon="8.481434622087642"><ele>161.0</ele><time>2026-04-11T16:36:40Z</time></trkpt><trkpt lat="45.46764546080214" lon="8.481770982352302"><ele>160.5</ele><time>2026-04-11T16:36:41Z</time></trkpt><trkpt lat="45.46767159163743" lon="8.482108569356766"><ele>160.0</ele><time>2026-04-11T16:36:42Z</time></trkpt><trkpt lat="45.46769796756575" lon="8.482446893124958"><ele>160.0</ele><time>2026-04-11T16:36:43Z</time></trkpt><trkpt lat="45.46772366576726" lon="8.482781939508115"><ele>160.0</ele><time>2026-04-11T16:36:44Z</time></trkpt><trkpt lat="45.46774914509505" lon="8.483119385280173"><ele>160.0</ele><time>2026-04-11T16:36:45Z</time></trkpt><trkpt lat="45.467773131093814" lon="8.483456279276538"><ele>160.0</ele><time>2026-04-11T16:36:46Z</time></trkpt><trkpt lat="45.46779774009805" lon="8.483793664408632"><ele>160.0</ele><time>2026-04-11T16:36:47Z</time></trkpt><trkpt lat="45.46782271703174" lon="8.484131528203495"><ele>160.0</ele><time>2026-04-11T16:36:48Z</time></trkpt><trkpt lat="45.46784679874891" lon="8.48446884258937"><ele>159.0</ele><time>2026-04-11T16:36:49Z</time></trkpt><trkpt lat="45.46787016329869" lon="8.484805032158746"><ele>158.0</ele><time>2026-04-11T16:36:50Z</time></trkpt><trkpt lat="45.46789531267708" lon="8.485143095704563"><ele>158.0</ele><time>2026-04-11T16:36:51Z</time></trkpt><trkpt lat="45.46792030761168" lon="8.485478178972023"><ele>158.0</ele><time>2026-04-11T16:36:52Z</time></trkpt><trkpt lat="45.46794517104194" lon="8.48580170724133"><ele>159.0</ele><time>2026-04-11T16:36:53Z</time></trkpt><trkpt lat="45.46797164557184" lon="8.486138241859821"><ele>160.0</ele><time>2026-04-11T16:36:54Z</time></trkpt><trkpt lat="45.467995474416746" lon="8.486463010488515"><ele>160.0</ele><time>2026-04-11T16:36:55Z</time></trkpt><trkpt lat="45.46801836572861" lon="8.486790408589716"><ele>160.0</ele><time>2026-04-11T16:36:56Z</time></trkpt><trkpt lat="45.468041667105695" lon="8.487121049229547"><ele>159.5</ele><time>2026-04-11T16:36:57Z</time></trkpt><trkpt lat="45.46806485059976" lon="8.48744782636897"><ele>159.0</ele><time>2026-04-11T16:36:58Z</time></trkpt><trkpt lat="45.46808728663149" lon="8.487780820900813"><ele>159.0</ele><time>2026-04-11T16:36:59Z</time></trkpt><trkpt lat="45.4681111253135" lon="8.488111137751147"><ele>159.0</ele><time>2026-04-11T16:37:00Z</time></trkpt><trkpt lat="45.46813487195548" lon="8.488439878332192"><ele>159.5</ele><time>2026-04-11T16:37:01Z</time></trkpt><trkpt lat="45.468157633125394" lon="8.488768330474688"><ele>160.0</ele><time>2026-04-11T16:37:02Z</time></trkpt><trkpt lat="45.46818221672761" lon="8.4891013773799"><ele>160.0</ele><time>2026-04-11T16:37:03Z</time></trkpt><trkpt lat="45.46820876483199" lon="8.48943263246263"><ele>160.0</ele><time>2026-04-11T16:37:04Z</time></trkpt><trkpt lat="45.4682332069085" lon="8.489762603478935"><ele>160.5</ele><time>2026-04-11T16:37:05Z</time></trkpt><trkpt lat="45.468258318171756" lon="8.490096499914833"><ele>161.0</ele><time>2026-04-11T16:37:06Z</time></trkpt><trkpt lat="45.46828214791602" lon="8.490431501589352"><ele>161.5</ele><time>2026-04-11T16:37:07Z</time></trkpt><trkpt lat="45.46830710898954" lon="8.49076518365449"><ele>162.0</ele><time>2026-04-11T16:37:08Z</time></trkpt><trkpt lat="45.46833127123867" lon="8.491103382168994"><ele>162.5</ele><time>2026-04-11T16:37:09Z</time></trkpt><trkpt lat="45.46835683897163" lon="8.491441511408862"><ele>163.0</ele><time>2026-04-11T16:37:10Z</time></trkpt><trkpt lat="45.46838174867889" lon="8.491778434621185"><ele>162.0</ele><time>2026-04-11T16:37:11Z</time></trkpt><trkpt lat="45.46840734446561" lon="8.492121340242361"><ele>161.0</ele><time>2026-04-11T16:37:12Z</time></trkpt><trkpt lat="45.46843259646708" lon="8.492461505543847"><ele>161.0</ele><time>2026-04-11T16:37:13Z</time></trkpt><trkpt lat="45.468457960689314" lon="8.49280644640263"><ele>161.0</ele><time>2026-04-11T16:37:14Z</time></trkpt><trkpt lat="45.468486491000775" lon="8.4931544053559"><ele>161.0</ele><time>2026-04-11T16:37:15Z</time></trkpt><trkpt lat="45.46851008059871" lon="8.493498355417445"><ele>161.0</ele><time>2026-04-11T16:37:16Z</time></trkpt><trkpt lat="45.46853264049762" lon="8.49384620184896"><ele>161.0</ele><time>2026-04-11T16:37:17Z</time></trkpt><trkpt lat="45.468558674700205" lon="8.49419317621149"><ele>161.0</ele><time>2026-04-11T16:37:18Z</time></trkpt><trkpt lat="45.46858431758202" lon="8.49454351757161"><ele>160.0</ele><time>2026-04-11T16:37:19Z</time></trkpt><trkpt lat="45.46860954152186" lon="8.49489268562819"><ele>159.0</ele><time>2026-04-11T16:37:20Z</time></trkpt><trkpt lat="45.46863461606764" lon="8.495240078059846"><ele>159.0</ele><time>2026-04-11T16:37:21Z</time></trkpt><trkpt lat="45.468659016487976" lon="8.495587891376735"><ele>159.0</ele><time>2026-04-11T16:37:22Z</time></trkpt><trkpt lat="45.46868381637955" lon="8.495939229961206"><ele>159.0</ele><time>2026-04-11T16:37:23Z</time></trkpt><trkpt lat="45.46871029538928" lon="8.496290260759023"><ele>159.0</ele><time>2026-04-11T16:37:24Z</time></trkpt><trkpt lat="45.46873817694728" lon="8.496636268642625"><ele>159.0</ele><time>2026-04-11T16:37:25Z</time></trkpt><trkpt lat="45.46876586167243" lon="8.496988324290715"><ele>159.0</ele><time>2026-04-11T16:37:26Z</time></trkpt><trkpt lat="45.4687910137404" lon="8.497340782656945"><ele>159.5</ele><time>2026-04-11T16:37:27Z</time></trkpt><trkpt lat="45.468816314177275" lon="8.497691473927354"><ele>160.0</ele><time>2026-04-11T16:37:28Z</time></trkpt><trkpt lat="45.468841435444645" lon="8.498041335723162"><ele>160.0</ele><time>2026-04-11T16:37:29Z</time></trkpt><trkpt lat="45.46886648065813" lon="8.498396438945779"><ele>160.0</ele><time>2026-04-11T16:37:30Z</time></trkpt><trkpt lat="45.46889311380493" lon="8.498746478530093"><ele>160.0</ele><time>2026-04-11T16:37:31Z</time></trkpt><trkpt lat="45.46891953792921" lon="8.499103281965452"><ele>160.0</ele><time>2026-04-11T16:37:32Z</time></trkpt><trkpt lat="45.468943294143415" lon="8.499444083359162"><ele>160.0</ele><time>2026-04-11T16:37:33Z</time></trkpt><trkpt lat="45.46896763421861" lon="8.499804355151339"><ele>160.0</ele><time>2026-04-11T16:37:34Z</time></trkpt><trkpt lat="45.46899346308387" lon="8.500161185986551"><ele>159.5</ele><time>2026-04-11T16:37:35Z</time></trkpt><trkpt lat="45.469020359022025" lon="8.500516703544138"><ele>159.0</ele><time>2026-04-11T16:37:36Z</time></trkpt><trkpt lat="45.469046834354" lon="8.500868761537882"><ele>159.0</ele><time>2026-04-11T16:37:37Z</time></trkpt><trkpt lat="45.46907235093916" lon="8.50122091369785"><ele>159.0</ele><time>2026-04-11T16:37:38Z</time></trkpt><trkpt lat="45.469097895026614" lon="8.501570912795556"><ele>159.5</ele><time>2026-04-11T16:37:39Z</time></trkpt><trkpt lat="45.469124693784764" lon="8.501918422605153"><ele>160.0</ele><time>2026-04-11T16:37:40Z</time></trkpt><trkpt lat="45.46915112494596" lon="8.502266338737499"><ele>160.0</ele><time>2026-04-11T16:37:41Z</time></trkpt><trkpt lat="45.4691764485418" lon="8.502608533465837"><ele>160.0</ele><time>2026-04-11T16:37:42Z</time></trkpt><trkpt lat="45.4692021896426" lon="8.502954817330192"><ele>159.5</ele><time>2026-04-11T16:37:43Z</time></trkpt><trkpt lat="45.469225733666754" lon="8.503293747521163"><ele>159.0</ele><time>2026-04-11T16:37:44Z</time></trkpt><trkpt lat="45.46925045968466" lon="8.503632857251436"><ele>158.0</ele><time>2026-04-11T16:37:45Z</time></trkpt><trkpt lat="45.46927476410467" lon="8.503970375508725"><ele>157.0</ele><time>2026-04-11T16:37:46Z</time></trkpt><trkpt lat="45.46929864215453" lon="8.50430815786364"><ele>157.5</ele><time>2026-04-11T16:37:47Z</time></trkpt><trkpt lat="45.46932519327177" lon="8.50465027557066"><ele>158.0</ele><time>2026-04-11T16:37:48Z</time></trkpt><trkpt lat="45.46934891998928" lon="8.504988631887246"><ele>158.0</ele><time>2026-04-11T16:37:49Z</time></trkpt><trkpt lat="45.469370740856455" lon="8.505321817531"><ele>158.0</ele><time>2026-04-11T16:37:50Z</time></trkpt><trkpt lat="45.46939541150289" lon="8.505652160598919"><ele>158.0</ele><time>2026-04-11T16:37:51Z</time></trkpt><trkpt lat="45.469423397719204" lon="8.505999251061436"><ele>158.0</ele><time>2026-04-11T16:37:52Z</time></trkpt><trkpt lat="45.46944905393016" lon="8.506331598270751"><ele>158.0</ele><time>2026-04-11T16:37:53Z</time></trkpt><trkpt lat="45.46947432464322" lon="8.506666708117756"><ele>158.0</ele><time>2026-04-11T16:37:54Z</time></trkpt><trkpt lat="45.46949888609189" lon="8.506999311559209"><ele>158.0</ele><time>2026-04-11T16:37:55Z</time></trkpt><trkpt lat="45.46952379528577" lon="8.507334497794375"><ele>158.0</ele><time>2026-04-11T16:37:56Z</time></trkpt><trkpt lat="45.469547147775906" lon="8.50766950163911"><ele>158.5</ele><time>2026-04-11T16:37:57Z</time></trkpt><trkpt lat="45.46957235974487" lon="8.50800376372258"><ele>159.0</ele><time>2026-04-11T16:37:58Z</time></trkpt><trkpt lat="45.46959723869925" lon="8.508336464201607"><ele>159.0</ele><time>2026-04-11T16:37:59Z</time></trkpt><trkpt lat="45.469624637651336" lon="8.508679515773322"><ele>159.0</ele><time>2026-04-11T16:38:00Z</time></trkpt><trkpt lat="45.46964890226271" lon="8.509016741211703"><ele>159.0</ele><time>2026-04-11T16:38:01Z</time></trkpt><trkpt lat="45.46967306854547" lon="8.509355788411412"><ele>159.0</ele><time>2026-04-11T16:38:02Z</time></trkpt><trkpt lat="45.46969640631117" lon="8.509693280423216"><ele>158.5</ele><time>2026-04-11T16:38:03Z</time></trkpt><trkpt lat="45.46972123784229" lon="8.510032717919502"><ele>158.0</ele><time>2026-04-11T16:38:04Z</time></trkpt><trkpt lat="45.4697473443343" lon="8.510371195394171"><ele>158.5</ele><time>2026-04-11T16:38:05Z</time></trkpt><trkpt lat="45.469771649689775" lon="8.510706541122405"><ele>159.0</ele><time>2026-04-11T16:38:06Z</time></trkpt><trkpt lat="45.469797870695544" lon="8.511046095034759"><ele>159.0</ele><time>2026-04-11T16:38:07Z</time></trkpt><trkpt lat="45.46982268060528" lon="8.511385306473704"><ele>159.0</ele><time>2026-04-11T16:38:08Z</time></trkpt><trkpt lat="45.46984844716861" lon="8.511716861629955"><ele>159.0</ele><time>2026-04-11T16:38:09Z</time></trkpt><trkpt lat="45.46987216744502" lon="8.512051950810065"><ele>159.0</ele><time>2026-04-11T16:38:10Z</time></trkpt><trkpt lat="45.46989729254291" lon="8.512387696049514"><ele>158.5</ele><time>2026-04-11T16:38:11Z</time></trkpt><trkpt lat="45.469921349410356" lon="8.512722647781896"><ele>158.0</ele><time>2026-04-11T16:38:12Z</time></trkpt><trkpt lat="45.469945650698605" lon="8.513055759624605"><ele>159.0</ele><time>2026-04-11T16:38:13Z</time></trkpt><trkpt lat="45.46996898628666" lon="8.513389981968484"><ele>160.0</ele><time>2026-04-11T16:38:14Z</time></trkpt><trkpt lat="45.46999321148631" lon="8.513727071350667"><ele>160.5</ele><time>2026-04-11T16:38:15Z</time></trkpt><trkpt lat="45.47001784748886" lon="8.514059753120499"><ele>161.0</ele><time>2026-04-11T16:38:16Z</time></trkpt><trkpt lat="45.4700414291888" lon="8.514394135000815"><ele>160.0</ele><time>2026-04-11T16:38:17Z</time></trkpt><trkpt lat="45.47006657009325" lon="8.514731408376797"><ele>159.0</ele><time>2026-04-11T16:38:18Z</time></trkpt><trkpt lat="45.47009055741004" lon="8.515066253756656"><ele>159.0</ele><time>2026-04-11T16:38:19Z</time></trkpt><trkpt lat="45.470113780845764" lon="8.515403036588895"><ele>159.0</ele><time>2026-04-11T16:38:20Z</time></trkpt><trkpt lat="45.47013741852949" lon="8.51573798066781"><ele>159.0</ele><time>2026-04-11T16:38:21Z</time></trkpt><trkpt lat="45.47016098802047" lon="8.516074095649671"><ele>159.0</ele><time>2026-04-11T16:38:22Z</time></trkpt><trkpt lat="45.47018695225297" lon="8.51641132567486"><ele>159.5</ele><time>2026-04-11T16:38:23Z</time></trkpt><trkpt lat="45.47021177153676" lon="8.516747218501582"><ele>160.0</ele><time>2026-04-11T16:38:24Z</time></trkpt><trkpt lat="45.47023833852265" lon="8.517085056466392"><ele>159.0</ele><time>2026-04-11T16:38:25Z</time></trkpt><trkpt lat="45.4702634096558" lon="8.517423429206797"><ele>158.0</ele><time>2026-04-11T16:38:26Z</time></trkpt><trkpt lat="45.47029093716587" lon="8.517757557870468"><ele>157.5</ele><time>2026-04-11T16:38:27Z</time></trkpt><trkpt lat="45.470312623115795" lon="8.518096567319967"><ele>157.0</ele><time>2026-04-11T16:38:28Z</time></trkpt><trkpt lat="45.4703358784889" lon="8.518436724657562"><ele>156.5</ele><time>2026-04-11T16:38:29Z</time></trkpt><trkpt lat="45.470361966859414" lon="8.518777136016167"><ele>156.0</ele><time>2026-04-11T16:38:30Z</time></trkpt><trkpt lat="45.470384445507364" lon="8.519112246878638"><ele>156.0</ele><time>2026-04-11T16:38:31Z</time></trkpt><trkpt lat="45.470410457539145" lon="8.5194509054628"><ele>156.0</ele><time>2026-04-11T16:38:32Z</time></trkpt><trkpt lat="45.47043546372722" lon="8.51978917465864"><ele>157.0</ele><time>2026-04-11T16:38:33Z</time></trkpt><trkpt lat="45.470458650539314" lon="8.520124372494672"><ele>158.0</ele><time>2026-04-11T16:38:34Z</time></trkpt><trkpt lat="45.47048431177822" lon="8.52046306957673"><ele>159.0</ele><time>2026-04-11T16:38:35Z</time></trkpt><trkpt lat="45.470509636684504" lon="8.520802200473508"><ele>160.0</ele><time>2026-04-11T16:38:36Z</time></trkpt><trkpt lat="45.47053441612229" lon="8.521145852084999"><ele>160.5</ele><time>2026-04-11T16:38:37Z</time></trkpt><trkpt lat="45.47055786916897" lon="8.521487438433835"><ele>161.0</ele><time>2026-04-11T16:38:38Z</time></trkpt><trkpt lat="45.47058258553492" lon="8.52183257746202"><ele>161.0</ele><time>2026-04-11T16:38:39Z</time></trkpt><trkpt lat="45.47060596874652" lon="8.522175048710286"><ele>161.0</ele><time>2026-04-11T16:38:40Z</time></trkpt><trkpt lat="45.47063282552311" lon="8.522523262099215"><ele>161.0</ele><time>2026-04-11T16:38:41Z</time></trkpt><trkpt lat="45.4706586645954" lon="8.522870537097134"><ele>161.0</ele><time>2026-04-11T16:38:42Z</time></trkpt><trkpt lat="45.47068483899043" lon="8.523218265776165"><ele>161.0</ele><time>2026-04-11T16:38:43Z</time></trkpt><trkpt lat="45.47070981901054" lon="8.523565050892168"><ele>161.0</ele><time>2026-04-11T16:38:44Z</time></trkpt><trkpt lat="45.47073876445722" lon="8.523905145114762"><ele>160.0</ele><time>2026-04-11T16:38:45Z</time></trkpt><trkpt lat="45.47076458060875" lon="8.52426196927708"><ele>159.0</ele><time>2026-04-11T16:38:46Z</time></trkpt><trkpt lat="45.470789834923835" lon="8.524612790761587"><ele>158.5</ele><time>2026-04-11T16:38:47Z</time></trkpt><trkpt lat="45.470813908024226" lon="8.524965039660254"><ele>158.0</ele><time>2026-04-11T16:38:48Z</time></trkpt><trkpt lat="45.47084042944298" lon="8.525316084302379"><ele>158.0</ele><time>2026-04-11T16:38:49Z</time></trkpt><trkpt lat="45.470865596028155" lon="8.525670032035547"><ele>158.0</ele><time>2026-04-11T16:38:50Z</time></trkpt><trkpt lat="45.470890965318155" lon="8.526020652737145"><ele>158.0</ele><time>2026-04-11T16:38:51Z</time></trkpt><trkpt lat="45.47091636529031" lon="8.526376845567803"><ele>158.0</ele><time>2026-04-11T16:38:52Z</time></trkpt><trkpt lat="45.4709409710886" lon="8.526734682150158"><ele>157.5</ele><time>2026-04-11T16:38:53Z</time></trkpt><trkpt lat="45.47096553344563" lon="8.527089280522727"><ele>157.0</ele><time>2026-04-11T16:38:54Z</time></trkpt><trkpt lat="45.470992428309444" lon="8.527448328226058"><ele>157.0</ele><time>2026-04-11T16:38:55Z</time></trkpt><trkpt lat="45.47101841157452" lon="8.527804155056966"><ele>157.0</ele><time>2026-04-11T16:38:56Z</time></trkpt><trkpt lat="45.47104557457352" lon="8.528160562753204"><ele>157.5</ele><time>2026-04-11T16:38:57Z</time></trkpt><trkpt lat="45.47107141525741" lon="8.528518411778666"><ele>158.0</ele><time>2026-04-11T16:38:58Z</time></trkpt><trkpt lat="45.47109778767097" lon="8.528874841316798"><ele>158.0</ele><time>2026-04-11T16:38:59Z</time></trkpt><trkpt lat="45.47112386467881" lon="8.529228221056115"><ele>158.0</ele><time>2026-04-11T16:39:00Z</time></trkpt><trkpt lat="45.47115107164466" lon="8.529579935844191"><ele>158.0</ele><time>2026-04-11T16:39:01Z</time></trkpt><trkpt lat="45.47117620697089" lon="8.529931344189713"><ele>158.0</ele><time>2026-04-11T16:39:02Z</time></trkpt><trkpt lat="45.47120176539599" lon="8.530276476352007"><ele>158.0</ele><time>2026-04-11T16:39:03Z</time></trkpt><trkpt lat="45.471225102607775" lon="8.530616121468801"><ele>158.0</ele><time>2026-04-11T16:39:04Z</time></trkpt><trkpt lat="45.471247062966434" lon="8.530957865659195"><ele>158.0</ele><time>2026-04-11T16:39:05Z</time></trkpt><trkpt lat="45.471270839679356" lon="8.531302751346724"><ele>158.0</ele><time>2026-04-11T16:39:06Z</time></trkpt><trkpt lat="45.471294633545746" lon="8.531641837929731"><ele>158.5</ele><time>2026-04-11T16:39:07Z</time></trkpt><trkpt lat="45.47132023148561" lon="8.531977395363729"><ele>159.0</ele><time>2026-04-11T16:39:08Z</time></trkpt><trkpt lat="45.47134592620199" lon="8.532312829676837"><ele>159.0</ele><time>2026-04-11T16:39:09Z</time></trkpt><trkpt lat="45.471373493805835" lon="8.532653056026419"><ele>159.0</ele><time>2026-04-11T16:39:10Z</time></trkpt><trkpt lat="45.47139983195915" lon="8.532992479489442"><ele>158.0</ele><time>2026-04-11T16:39:11Z</time></trkpt><trkpt lat="45.4714269375778" lon="8.5333311356529"><ele>157.0</ele><time>2026-04-11T16:39:12Z</time></trkpt><trkpt lat="45.47145093777474" lon="8.53366923153817"><ele>157.0</ele><time>2026-04-11T16:39:13Z</time></trkpt><trkpt lat="45.471475833424165" lon="8.534008922554605"><ele>157.0</ele><time>2026-04-11T16:39:14Z</time></trkpt><trkpt lat="45.471500742121606" lon="8.534349212932154"><ele>157.5</ele><time>2026-04-11T16:39:15Z</time></trkpt><trkpt lat="45.47152548317273" lon="8.534690538752415"><ele>158.0</ele><time>2026-04-11T16:39:16Z</time></trkpt><trkpt lat="45.47154842313171" lon="8.535032545632841"><ele>158.0</ele><time>2026-04-11T16:39:17Z</time></trkpt><trkpt lat="45.471571453893525" lon="8.535372679383661"><ele>158.0</ele><time>2026-04-11T16:39:18Z</time></trkpt><trkpt lat="45.47159564240272" lon="8.535716633392349"><ele>158.0</ele><time>2026-04-11T16:39:19Z</time></trkpt><trkpt lat="45.47162005757506" lon="8.536057525041816"><ele>158.0</ele><time>2026-04-11T16:39:20Z</time></trkpt><trkpt lat="45.47164504938447" lon="8.536400284298146"><ele>158.0</ele><time>2026-04-11T16:39:21Z</time></trkpt><trkpt lat="45.471671086714686" lon="8.536740800480134"><ele>158.0</ele><time>2026-04-11T16:39:22Z</time></trkpt><trkpt lat="45.47169625239438" lon="8.53708640253548"><ele>157.5</ele><time>2026-04-11T16:39:23Z</time></trkpt><trkpt lat="45.47172047132102" lon="8.537427746795759"><ele>157.0</ele><time>2026-04-11T16:39:24Z</time></trkpt><trkpt lat="45.47174444022831" lon="8.53776494345541"><ele>157.5</ele><time>2026-04-11T16:39:25Z</time></trkpt><trkpt lat="45.47177055468045" lon="8.538111764653857"><ele>158.0</ele><time>2026-04-11T16:39:26Z</time></trkpt><trkpt lat="45.47179602811204" lon="8.538459776786876"><ele>158.5</ele><time>2026-04-11T16:39:27Z</time></trkpt><trkpt lat="45.471821700712844" lon="8.538806940383925"><ele>159.0</ele><time>2026-04-11T16:39:28Z</time></trkpt><trkpt lat="45.4718478414639" lon="8.539148250570095"><ele>159.0</ele><time>2026-04-11T16:39:29Z</time></trkpt><trkpt lat="45.47187284931107" lon="8.539481182295994"><ele>159.0</ele><time>2026-04-11T16:39:30Z</time></trkpt><trkpt lat="45.47189440308957" lon="8.53981868069823"><ele>159.0</ele><time>2026-04-11T16:39:31Z</time></trkpt><trkpt lat="45.47191838671279" lon="8.540155966600702"><ele>159.0</ele><time>2026-04-11T16:39:32Z</time></trkpt><trkpt lat="45.47194193761143" lon="8.540488556886071"><ele>159.5</ele><time>2026-04-11T16:39:33Z</time></trkpt><trkpt lat="45.47196719183516" lon="8.540819814089646"><ele>160.0</ele><time>2026-04-11T16:39:34Z</time></trkpt><trkpt lat="45.47199214727225" lon="8.541151933471653"><ele>160.0</ele><time>2026-04-11T16:39:35Z</time></trkpt><trkpt lat="45.472016049347985" lon="8.54148301429123"><ele>160.0</ele><time>2026-04-11T16:39:36Z</time></trkpt><trkpt lat="45.472041166411934" lon="8.541807495882141"><ele>159.5</ele><time>2026-04-11T16:39:37Z</time></trkpt><trkpt lat="45.472064350146994" lon="8.542132711845856"><ele>159.0</ele><time>2026-04-11T16:39:38Z</time></trkpt><trkpt lat="45.472087265522276" lon="8.542455711946436"><ele>158.5</ele><time>2026-04-11T16:39:39Z</time></trkpt><trkpt lat="45.47211050094492" lon="8.542782917145344"><ele>158.0</ele><time>2026-04-11T16:39:40Z</time></trkpt><trkpt lat="45.47213426566398" lon="8.543106715695206"><ele>158.0</ele><time>2026-04-11T16:39:41Z</time></trkpt><trkpt lat="45.472157296712524" lon="8.543433403932431"><ele>158.0</ele><time>2026-04-11T16:39:42Z</time></trkpt><trkpt lat="45.47218111195966" lon="8.543762589554007"><ele>158.5</ele><time>2026-04-11T16:39:43Z</time></trkpt><trkpt lat="45.472206279121345" lon="8.54409047122497"><ele>159.0</ele><time>2026-04-11T16:39:44Z</time></trkpt><trkpt lat="45.47223040139456" lon="8.5444205936393"><ele>159.0</ele><time>2026-04-11T16:39:45Z</time></trkpt><trkpt lat="45.47225591302655" lon="8.544752163206265"><ele>159.0</ele><time>2026-04-11T16:39:46Z</time></trkpt><trkpt lat="45.472279648903566" lon="8.545080733765971"><ele>159.0</ele><time>2026-04-11T16:39:47Z</time></trkpt><trkpt lat="45.47230369277404" lon="8.545413338582415"><ele>159.0</ele><time>2026-04-11T16:39:48Z</time></trkpt><trkpt lat="45.472327189938106" lon="8.545749036920318"><ele>159.0</ele><time>2026-04-11T16:39:49Z</time></trkpt><trkpt lat="45.47235029500685" lon="8.546079719358605"><ele>159.0</ele><time>2026-04-11T16:39:50Z</time></trkpt><trkpt lat="45.472373479660774" lon="8.546413176079703"><ele>158.5</ele><time>2026-04-11T16:39:51Z</time></trkpt><trkpt lat="45.472399014687376" lon="8.546747664848898"><ele>158.0</ele><time>2026-04-11T16:39:52Z</time></trkpt><trkpt lat="45.47242352480113" lon="8.547075599073366"><ele>158.0</ele><time>2026-04-11T16:39:53Z</time></trkpt><trkpt lat="45.47244645347236" lon="8.547412079333911"><ele>158.0</ele><time>2026-04-11T16:39:54Z</time></trkpt><trkpt lat="45.47247110200525" lon="8.547749143073462"><ele>157.5</ele><time>2026-04-11T16:39:55Z</time></trkpt><trkpt lat="45.472497135009895" lon="8.548086175380242"><ele>157.0</ele><time>2026-04-11T16:39:56Z</time></trkpt><trkpt lat="45.472521501015706" lon="8.54842191106684"><ele>157.5</ele><time>2026-04-11T16:39:57Z</time></trkpt><trkpt lat="45.47254657385742" lon="8.548762324723088"><ele>158.0</ele><time>2026-04-11T16:39:58Z</time></trkpt><trkpt lat="45.47257135509322" lon="8.549099076190384"><ele>158.0</ele><time>2026-04-11T16:39:59Z</time></trkpt><trkpt lat="45.47259506655383" lon="8.549438035856731"><ele>158.0</ele><time>2026-04-11T16:40:00Z</time></trkpt><trkpt lat="45.47262028453777" lon="8.5497766100296"><ele>158.0</ele><time>2026-04-11T16:40:01Z</time></trkpt><trkpt lat="45.472645195371946" lon="8.550117745258639"><ele>158.0</ele><time>2026-04-11T16:40:02Z</time></trkpt><trkpt lat="45.4726700416231" lon="8.55045098377913"><ele>157.5</ele><time>2026-04-11T16:40:03Z</time></trkpt><trkpt lat="45.472695502102624" lon="8.550789448096232"><ele>157.0</ele><time>2026-04-11T16:40:04Z</time></trkpt><trkpt lat="45.472719400335905" lon="8.55112478998991"><ele>157.5</ele><time>2026-04-11T16:40:05Z</time></trkpt><trkpt lat="45.472746176291764" lon="8.551460068361061"><ele>158.0</ele><time>2026-04-11T16:40:06Z</time></trkpt><trkpt lat="45.472774431885895" lon="8.551791515023437"><ele>158.0</ele><time>2026-04-11T16:40:07Z</time></trkpt><trkpt lat="45.472798722653756" lon="8.552131446112037"><ele>158.0</ele><time>2026-04-11T16:40:08Z</time></trkpt><trkpt lat="45.472823702208515" lon="8.552461629581018"><ele>158.0</ele><time>2026-04-11T16:40:09Z</time></trkpt><trkpt lat="45.47284759470117" lon="8.552793945551995"><ele>158.0</ele><time>2026-04-11T16:40:10Z</time></trkpt><trkpt lat="45.47287275290588" lon="8.55312285506934"><ele>158.0</ele><time>2026-04-11T16:40:11Z</time></trkpt><trkpt lat="45.47289611269876" lon="8.553453046649464"><ele>158.0</ele><time>2026-04-11T16:40:12Z</time></trkpt><trkpt lat="45.472917839438146" lon="8.553786107806316"><ele>157.5</ele><time>2026-04-11T16:40:13Z</time></trkpt><trkpt lat="45.47294007601522" lon="8.554118602903857"><ele>157.0</ele><time>2026-04-11T16:40:14Z</time></trkpt><trkpt lat="45.47296509759698" lon="8.554448726078759"><ele>159.0</ele><time>2026-04-11T16:40:15Z</time></trkpt><trkpt lat="45.47299144546756" lon="8.554775652018174"><ele>161.0</ele><time>2026-04-11T16:40:16Z</time></trkpt><trkpt lat="45.47301676241258" lon="8.55510600998836"><ele>160.0</ele><time>2026-04-11T16:40:17Z</time></trkpt><trkpt lat="45.47304222941149" lon="8.555435455434464"><ele>159.0</ele><time>2026-04-11T16:40:18Z</time></trkpt><trkpt lat="45.473068724848346" lon="8.555766181100134"><ele>159.0</ele><time>2026-04-11T16:40:19Z</time></trkpt><trkpt lat="45.473095363527364" lon="8.556095126301079"><ele>159.0</ele><time>2026-04-11T16:40:20Z</time></trkpt><trkpt lat="45.473123677140464" lon="8.556428342102349"><ele>158.5</ele><time>2026-04-11T16:40:21Z</time></trkpt><trkpt lat="45.473151343486805" lon="8.556758872992027"><ele>158.0</ele><time>2026-04-11T16:40:22Z</time></trkpt><trkpt lat="45.47318058806597" lon="8.557095832279874"><ele>157.5</ele><time>2026-04-11T16:40:23Z</time></trkpt><trkpt lat="45.473211611907544" lon="8.557428066935426"><ele>157.0</ele><time>2026-04-11T16:40:24Z</time></trkpt><trkpt lat="45.47324248793028" lon="8.55776287139283"><ele>157.0</ele><time>2026-04-11T16:40:25Z</time></trkpt><trkpt lat="45.47326344856486" lon="8.558078612925318"><ele>157.0</ele><time>2026-04-11T16:40:26Z</time></trkpt><trkpt lat="45.473298017947236" lon="8.558429564489895"><ele>157.0</ele><time>2026-04-11T16:40:27Z</time></trkpt><trkpt lat="45.47332857745299" lon="8.558767883338938"><ele>157.0</ele><time>2026-04-11T16:40:28Z</time></trkpt><trkpt lat="45.4733571302915" lon="8.559110125505464"><ele>157.0</ele><time>2026-04-11T16:40:29Z</time></trkpt><trkpt lat="45.47338561414012" lon="8.559451585269857"><ele>157.0</ele><time>2026-04-11T16:40:30Z</time></trkpt><trkpt lat="45.47341547326456" lon="8.559793265926128"><ele>157.0</ele><time>2026-04-11T16:40:31Z</time></trkpt><trkpt lat="45.47344485325058" lon="8.56013914933541"><ele>157.0</ele><time>2026-04-11T16:40:32Z</time></trkpt><trkpt lat="45.473475946201106" lon="8.560480667732131"><ele>158.0</ele><time>2026-04-11T16:40:33Z</time></trkpt><trkpt lat="45.47350742791587" lon="8.56082156535166"><ele>159.0</ele><time>2026-04-11T16:40:34Z</time></trkpt><trkpt lat="45.473538317874194" lon="8.561158917844077"><ele>158.0</ele><time>2026-04-11T16:40:35Z</time></trkpt><trkpt lat="45.47357067222836" lon="8.561497819828201"><ele>157.0</ele><time>2026-04-11T16:40:36Z</time></trkpt><trkpt lat="45.47360334945032" lon="8.56183995779375"><ele>157.5</ele><time>2026-04-11T16:40:37Z</time></trkpt><trkpt lat="45.47363428746583" lon="8.562174384102676"><ele>158.0</ele><time>2026-04-11T16:40:38Z</time></trkpt><trkpt lat="45.47366493478609" lon="8.562507644033985"><ele>158.0</ele><time>2026-04-11T16:40:39Z</time></trkpt><trkpt lat="45.47369472191447" lon="8.56284038875199"><ele>158.0</ele><time>2026-04-11T16:40:40Z</time></trkpt><trkpt lat="45.47372320674568" lon="8.563168759589184"><ele>158.0</ele><time>2026-04-11T16:40:41Z</time></trkpt><trkpt lat="45.47375433688437" lon="8.563501081817149"><ele>158.0</ele><time>2026-04-11T16:40:42Z</time></trkpt><trkpt lat="45.47378570630351" lon="8.563837084383376"><ele>158.0</ele><time>2026-04-11T16:40:43Z</time></trkpt><trkpt lat="45.47381514397619" lon="8.564170781206414"><ele>158.0</ele><time>2026-04-11T16:40:44Z</time></trkpt><trkpt lat="45.47384707961076" lon="8.56450549608529"><ele>157.5</ele><time>2026-04-11T16:40:45Z</time></trkpt><trkpt lat="45.47387599566254" lon="8.564841275833507"><ele>157.0</ele><time>2026-04-11T16:40:46Z</time></trkpt><trkpt lat="45.47390894018026" lon="8.565172358162297"><ele>157.0</ele><time>2026-04-11T16:40:47Z</time></trkpt><trkpt lat="45.473938116046796" lon="8.565507672673617"><ele>157.0</ele><time>2026-04-11T16:40:48Z</time></trkpt><trkpt lat="45.47396464047029" lon="8.565843382924609"><ele>157.0</ele><time>2026-04-11T16:40:49Z</time></trkpt><trkpt lat="45.4739932137075" lon="8.566175998608005"><ele>157.0</ele><time>2026-04-11T16:40:50Z</time></trkpt><trkpt lat="45.474017931568284" lon="8.56651586023454"><ele>158.0</ele><time>2026-04-11T16:40:51Z</time></trkpt><trkpt lat="45.47404324187956" lon="8.566842564132902"><ele>159.0</ele><time>2026-04-11T16:40:52Z</time></trkpt><trkpt lat="45.474071403126935" lon="8.567178279289895"><ele>159.5</ele><time>2026-04-11T16:40:53Z</time></trkpt><trkpt lat="45.47409913176669" lon="8.567513401337951"><ele>160.0</ele><time>2026-04-11T16:40:54Z</time></trkpt><trkpt lat="45.47412839146824" lon="8.567847694232517"><ele>159.5</ele><time>2026-04-11T16:40:55Z</time></trkpt><trkpt lat="45.47415273116335" lon="8.56818884344496"><ele>159.0</ele><time>2026-04-11T16:40:56Z</time></trkpt><trkpt lat="45.47417841342519" lon="8.568524736384445"><ele>158.5</ele><time>2026-04-11T16:40:57Z</time></trkpt><trkpt lat="45.474204168095426" lon="8.56886004382613"><ele>158.0</ele><time>2026-04-11T16:40:58Z</time></trkpt><trkpt lat="45.47423048194644" lon="8.569195930218266"><ele>158.0</ele><time>2026-04-11T16:40:59Z</time></trkpt><trkpt lat="45.474256209074994" lon="8.569529044034951"><ele>158.0</ele><time>2026-04-11T16:41:00Z</time></trkpt><trkpt lat="45.47428269811771" lon="8.569866122936267"><ele>158.0</ele><time>2026-04-11T16:41:01Z</time></trkpt><trkpt lat="45.47430731510883" lon="8.570199640935813"><ele>158.0</ele><time>2026-04-11T16:41:02Z</time></trkpt><trkpt lat="45.47433273547988" lon="8.57053383606284"><ele>157.5</ele><time>2026-04-11T16:41:03Z</time></trkpt><trkpt lat="45.47435830555442" lon="8.570866595863386"><ele>157.0</ele><time>2026-04-11T16:41:04Z</time></trkpt><trkpt lat="45.47438089637446" lon="8.571198061813831"><ele>157.0</ele><time>2026-04-11T16:41:05Z</time></trkpt><trkpt lat="45.47440389197785" lon="8.57152765772221"><ele>157.0</ele><time>2026-04-11T16:41:06Z</time></trkpt><trkpt lat="45.47442678776593" lon="8.571859746883696"><ele>157.0</ele><time>2026-04-11T16:41:07Z</time></trkpt><trkpt lat="45.47444921847178" lon="8.572190738735104"><ele>157.0</ele><time>2026-04-11T16:41:08Z</time></trkpt><trkpt lat="45.474469525558035" lon="8.572520511922226"><ele>157.0</ele><time>2026-04-11T16:41:09Z</time></trkpt><trkpt lat="45.474489737661735" lon="8.572846943486644"><ele>157.0</ele><time>2026-04-11T16:41:10Z</time></trkpt><trkpt lat="45.474512044708945" lon="8.573174501930357"><ele>157.0</ele><time>2026-04-11T16:41:11Z</time></trkpt><trkpt lat="45.474531722077415" lon="8.573500045364153"><ele>157.0</ele><time>2026-04-11T16:41:12Z</time></trkpt><trkpt lat="45.474552004674756" lon="8.5738247856692"><ele>157.5</ele><time>2026-04-11T16:41:13Z</time></trkpt><trkpt lat="45.47456806038095" lon="8.574151194038372"><ele>158.0</ele><time>2026-04-11T16:41:14Z</time></trkpt><trkpt lat="45.47458515238222" lon="8.57447401245033"><ele>158.5</ele><time>2026-04-11T16:41:15Z</time></trkpt><trkpt lat="45.474603745547704" lon="8.574798514086877"><ele>159.0</ele><time>2026-04-11T16:41:16Z</time></trkpt><trkpt lat="45.47462303913435" lon="8.575122811682503"><ele>157.5</ele><time>2026-04-11T16:41:17Z</time></trkpt><trkpt lat="45.47464102760395" lon="8.57544501131875"><ele>156.0</ele><time>2026-04-11T16:41:18Z</time></trkpt><trkpt lat="45.474658144545" lon="8.575767423914069"><ele>156.0</ele><time>2026-04-11T16:41:19Z</time></trkpt><trkpt lat="45.47467426775889" lon="8.576094399342168"><ele>156.0</ele><time>2026-04-11T16:41:20Z</time></trkpt><trkpt lat="45.474689916013624" lon="8.576420907064247"><ele>156.5</ele><time>2026-04-11T16:41:21Z</time></trkpt><trkpt lat="45.474705236003075" lon="8.5767496356848"><ele>157.0</ele><time>2026-04-11T16:41:22Z</time></trkpt><trkpt lat="45.47472178195739" lon="8.577071545944444"><ele>157.0</ele><time>2026-04-11T16:41:23Z</time></trkpt><trkpt lat="45.474736617263034" lon="8.577399491533908"><ele>157.0</ele><time>2026-04-11T16:41:24Z</time></trkpt><trkpt lat="45.474750015636076" lon="8.577724985548892"><ele>156.5</ele><time>2026-04-11T16:41:25Z</time></trkpt><trkpt lat="45.47476390486522" lon="8.578050519410162"><ele>156.0</ele><time>2026-04-11T16:41:26Z</time></trkpt><trkpt lat="45.47477614951309" lon="8.578382185073979"><ele>156.5</ele><time>2026-04-11T16:41:27Z</time></trkpt><trkpt lat="45.47479002277969" lon="8.578711532898703"><ele>157.0</ele><time>2026-04-11T16:41:28Z</time></trkpt><trkpt lat="45.474802383723706" lon="8.579037349927956"><ele>157.0</ele><time>2026-04-11T16:41:29Z</time></trkpt><trkpt lat="45.47481360555706" lon="8.5793705054025"><ele>157.0</ele><time>2026-04-11T16:41:30Z</time></trkpt><trkpt lat="45.47482428110278" lon="8.579697893398325"><ele>158.0</ele><time>2026-04-11T16:41:31Z</time></trkpt><trkpt lat="45.47483413581401" lon="8.580035403510328"><ele>159.0</ele><time>2026-04-11T16:41:32Z</time></trkpt><trkpt lat="45.47484310572504" lon="8.580364561464684"><ele>159.0</ele><time>2026-04-11T16:41:33Z</time></trkpt><trkpt lat="45.47484947234626" lon="8.5806966030472"><ele>159.0</ele><time>2026-04-11T16:41:34Z</time></trkpt><trkpt lat="45.474856103984294" lon="8.581034178008425"><ele>159.5</ele><time>2026-04-11T16:41:35Z</time></trkpt><trkpt lat="45.474859829775944" lon="8.58136778901355"><ele>160.0</ele><time>2026-04-11T16:41:36Z</time></trkpt><trkpt lat="45.47486624438366" lon="8.581704153024196"><ele>160.0</ele><time>2026-04-11T16:41:37Z</time></trkpt><trkpt lat="45.47486969574445" lon="8.582041218870444"><ele>160.0</ele><time>2026-04-11T16:41:38Z</time></trkpt><trkpt lat="45.47487077880966" lon="8.582383267312025"><ele>160.0</ele><time>2026-04-11T16:41:39Z</time></trkpt><trkpt lat="45.47487039850101" lon="8.58271960228522"><ele>160.0</ele><time>2026-04-11T16:41:40Z</time></trkpt><trkpt lat="45.474869595631596" lon="8.583059644382423"><ele>160.0</ele><time>2026-04-11T16:41:41Z</time></trkpt><trkpt lat="45.47486831482636" lon="8.583402507104074"><ele>160.0</ele><time>2026-04-11T16:41:42Z</time></trkpt><trkpt lat="45.474864257115705" lon="8.583742794289254"><ele>160.0</ele><time>2026-04-11T16:41:43Z</time></trkpt><trkpt lat="45.47485998351828" lon="8.584087757967495"><ele>160.0</ele><time>2026-04-11T16:41:44Z</time></trkpt><trkpt lat="45.474854220456876" lon="8.584427039871278"><ele>160.5</ele><time>2026-04-11T16:41:45Z</time></trkpt><trkpt lat="45.47484833490326" lon="8.584773081450164"><ele>161.0</ele><time>2026-04-11T16:41:46Z</time></trkpt><trkpt lat="45.474838666597414" lon="8.58511626037244"><ele>160.0</ele><time>2026-04-11T16:41:47Z</time></trkpt><trkpt lat="45.4748295608926" lon="8.585464101238088"><ele>159.0</ele><time>2026-04-11T16:41:48Z</time></trkpt><trkpt lat="45.47481909167767" lon="8.585813504785403"><ele>159.0</ele><time>2026-04-11T16:41:49Z</time></trkpt><trkpt lat="45.474805020028825" lon="8.58615152458411"><ele>159.0</ele><time>2026-04-11T16:41:50Z</time></trkpt><trkpt lat="45.47479140398877" lon="8.586492305095428"><ele>159.5</ele><time>2026-04-11T16:41:51Z</time></trkpt><trkpt lat="45.4747767515315" lon="8.586839601491112"><ele>160.0</ele><time>2026-04-11T16:41:52Z</time></trkpt><trkpt lat="45.47475943003899" lon="8.587185826737048"><ele>160.0</ele><time>2026-04-11T16:41:53Z</time></trkpt><trkpt lat="45.47474056825938" lon="8.587525495711242"><ele>160.0</ele><time>2026-04-11T16:41:54Z</time></trkpt><trkpt lat="45.4747215687375" lon="8.587870598141773"><ele>161.0</ele><time>2026-04-11T16:41:55Z</time></trkpt><trkpt lat="45.47470236456383" lon="8.588216289931518"><ele>162.0</ele><time>2026-04-11T16:41:56Z</time></trkpt><trkpt lat="45.47468329381302" lon="8.58856280586823"><ele>163.0</ele><time>2026-04-11T16:41:57Z</time></trkpt><trkpt lat="45.47465832300465" lon="8.588904719990293"><ele>164.0</ele><time>2026-04-11T16:41:58Z</time></trkpt><trkpt lat="45.47463603218735" lon="8.589248369163043"><ele>163.0</ele><time>2026-04-11T16:41:59Z</time></trkpt><trkpt lat="45.4746114520927" lon="8.589591901907962"><ele>162.0</ele><time>2026-04-11T16:42:00Z</time></trkpt><trkpt lat="45.47458542677433" lon="8.589934988987492"><ele>162.0</ele><time>2026-04-11T16:42:01Z</time></trkpt><trkpt lat="45.47455682935575" lon="8.59027914681737"><ele>162.0</ele><time>2026-04-11T16:42:02Z</time></trkpt><trkpt lat="45.474524954615084" lon="8.590619466528924"><ele>161.5</ele><time>2026-04-11T16:42:03Z</time></trkpt><trkpt lat="45.47449718755645" lon="8.590971952554636"><ele>161.0</ele><time>2026-04-11T16:42:04Z</time></trkpt><trkpt lat="45.47446340462833" lon="8.591317192863684"><ele>160.5</ele><time>2026-04-11T16:42:05Z</time></trkpt><trkpt lat="45.474427752118885" lon="8.591664238442684"><ele>160.0</ele><time>2026-04-11T16:42:06Z</time></trkpt><trkpt lat="45.474394149027034" lon="8.592010248083652"><ele>159.5</ele><time>2026-04-11T16:42:07Z</time></trkpt><trkpt lat="45.474356728360966" lon="8.592355469146106"><ele>159.0</ele><time>2026-04-11T16:42:08Z</time></trkpt><trkpt lat="45.47432164022532" lon="8.592704173947503"><ele>158.0</ele><time>2026-04-11T16:42:09Z</time></trkpt><trkpt lat="45.474281640822646" lon="8.59304897026722"><ele>157.0</ele><time>2026-04-11T16:42:10Z</time></trkpt><trkpt lat="45.47424176267382" lon="8.59339390841146"><ele>156.0</ele><time>2026-04-11T16:42:11Z</time></trkpt><trkpt lat="45.474198485071575" lon="8.593735818955324"><ele>155.0</ele><time>2026-04-11T16:42:12Z</time></trkpt><trkpt lat="45.47415507474596" lon="8.594079226013184"><ele>155.0</ele><time>2026-04-11T16:42:13Z</time></trkpt><trkpt lat="45.47410823945079" lon="8.59441824933926"><ele>155.0</ele><time>2026-04-11T16:42:14Z</time></trkpt><trkpt lat="45.47406113092683" lon="8.59475491291417"><ele>155.0</ele><time>2026-04-11T16:42:15Z</time></trkpt><trkpt lat="45.47402052515416" lon="8.595099173432521"><ele>155.0</ele><time>2026-04-11T16:42:16Z</time></trkpt><trkpt lat="45.47397451293697" lon="8.595439115673837"><ele>155.5</ele><time>2026-04-11T16:42:17Z</time></trkpt><trkpt lat="45.47392468752508" lon="8.595780570184441"><ele>156.0</ele><time>2026-04-11T16:42:18Z</time></trkpt><trkpt lat="45.47387377181581" lon="8.596121267804039"><ele>155.5</ele><time>2026-04-11T16:42:19Z</time></trkpt><trkpt lat="45.47382426864862" lon="8.59646081266208"><ele>155.0</ele><time>2026-04-11T16:42:20Z</time></trkpt><trkpt lat="45.47377432091779" lon="8.59679725058536"><ele>156.0</ele><time>2026-04-11T16:42:21Z</time></trkpt><trkpt lat="45.47372204081022" lon="8.597130930126035"><ele>157.0</ele><time>2026-04-11T16:42:22Z</time></trkpt><trkpt lat="45.47366918694467" lon="8.59746955157076"><ele>157.0</ele><time>2026-04-11T16:42:23Z</time></trkpt><trkpt lat="45.47361592334369" lon="8.597801612847253"><ele>157.0</ele><time>2026-04-11T16:42:24Z</time></trkpt><trkpt lat="45.4735623832751" lon="8.598142556471812"><ele>157.0</ele><time>2026-04-11T16:42:25Z</time></trkpt><trkpt lat="45.47350815721984" lon="8.598483384926208"><ele>157.0</ele><time>2026-04-11T16:42:26Z</time></trkpt><trkpt lat="45.473453317080214" lon="8.598820827243763"><ele>157.0</ele><time>2026-04-11T16:42:27Z</time></trkpt><trkpt lat="45.473397234591175" lon="8.599156126400182"><ele>157.0</ele><time>2026-04-11T16:42:28Z</time></trkpt><trkpt lat="45.473340339373145" lon="8.59950054084527"><ele>158.0</ele><time>2026-04-11T16:42:29Z</time></trkpt><trkpt lat="45.47328654034102" lon="8.599836261599295"><ele>159.0</ele><time>2026-04-11T16:42:30Z</time></trkpt><trkpt lat="45.47323121470023" lon="8.600175906449817"><ele>158.0</ele><time>2026-04-11T16:42:31Z</time></trkpt><trkpt lat="45.473176470947365" lon="8.600517040705993"><ele>157.0</ele><time>2026-04-11T16:42:32Z</time></trkpt><trkpt lat="45.47312086566248" lon="8.60085085260561"><ele>156.0</ele><time>2026-04-11T16:42:33Z</time></trkpt><trkpt lat="45.47306770827856" lon="8.601198621519089"><ele>155.0</ele><time>2026-04-11T16:42:34Z</time></trkpt><trkpt lat="45.47301153501867" lon="8.60153501664363"><ele>155.0</ele><time>2026-04-11T16:42:35Z</time></trkpt><trkpt lat="45.472954789514844" lon="8.601878553890783"><ele>155.0</ele><time>2026-04-11T16:42:36Z</time></trkpt><trkpt lat="45.47289934879761" lon="8.602223474109337"><ele>155.0</ele><time>2026-04-11T16:42:37Z</time></trkpt><trkpt lat="45.47284133760778" lon="8.602558812651756"><ele>155.0</ele><time>2026-04-11T16:42:38Z</time></trkpt><trkpt lat="45.47278597746466" lon="8.602894852082072"><ele>154.5</ele><time>2026-04-11T16:42:39Z</time></trkpt><trkpt lat="45.4727332022399" lon="8.603233429086814"><ele>154.0</ele><time>2026-04-11T16:42:40Z</time></trkpt><trkpt lat="45.47268219581792" lon="8.603576075317845"><ele>155.0</ele><time>2026-04-11T16:42:41Z</time></trkpt><trkpt lat="45.47262914272095" lon="8.603914202339126"><ele>156.0</ele><time>2026-04-11T16:42:42Z</time></trkpt><trkpt lat="45.47257530464134" lon="8.60424696876678"><ele>156.5</ele><time>2026-04-11T16:42:43Z</time></trkpt><trkpt lat="45.47252246859245" lon="8.604583259805818"><ele>157.0</ele><time>2026-04-11T16:42:44Z</time></trkpt><trkpt lat="45.47247095839586" lon="8.60492365548233"><ele>157.0</ele><time>2026-04-11T16:42:45Z</time></trkpt><trkpt lat="45.472420564939604" lon="8.605259126299323"><ele>157.0</ele><time>2026-04-11T16:42:46Z</time></trkpt><trkpt lat="45.472369071169176" lon="8.605594124589791"><ele>157.0</ele><time>2026-04-11T16:42:47Z</time></trkpt><trkpt lat="45.47231698062236" lon="8.605929813706918"><ele>157.0</ele><time>2026-04-11T16:42:48Z</time></trkpt><trkpt lat="45.4722650925374" lon="8.606266927565658"><ele>157.0</ele><time>2026-04-11T16:42:49Z</time></trkpt><trkpt lat="45.47221137644693" lon="8.606600985834103"><ele>157.0</ele><time>2026-04-11T16:42:50Z</time></trkpt><trkpt lat="45.47215966988405" lon="8.606937909798598"><ele>157.0</ele><time>2026-04-11T16:42:51Z</time></trkpt><trkpt lat="45.47210998082228" lon="8.607272112575227"><ele>157.0</ele><time>2026-04-11T16:42:52Z</time></trkpt><trkpt lat="45.47205876788342" lon="8.607606975129011"><ele>155.0</ele><time>2026-04-11T16:42:53Z</time></trkpt><trkpt lat="45.472005076997014" lon="8.607941977112374"><ele>153.0</ele><time>2026-04-11T16:42:54Z</time></trkpt><trkpt lat="45.47195246459004" lon="8.608279521888122"><ele>153.0</ele><time>2026-04-11T16:42:55Z</time></trkpt><trkpt lat="45.47189856115187" lon="8.608615707672513"><ele>153.0</ele><time>2026-04-11T16:42:56Z</time></trkpt><trkpt lat="45.471847188633866" lon="8.608949495473865"><ele>152.5</ele><time>2026-04-11T16:42:57Z</time></trkpt><trkpt lat="45.471796103978235" lon="8.609286525298046"><ele>152.0</ele><time>2026-04-11T16:42:58Z</time></trkpt><trkpt lat="45.47174520429942" lon="8.609624884042828"><ele>152.0</ele><time>2026-04-11T16:42:59Z</time></trkpt><trkpt lat="45.47169103941043" lon="8.609958993786627"><ele>152.0</ele><time>2026-04-11T16:43:00Z</time></trkpt><trkpt lat="45.47164312871327" lon="8.61030204014843"><ele>153.0</ele><time>2026-04-11T16:43:01Z</time></trkpt><trkpt lat="45.47159169940177" lon="8.610637197143307"><ele>154.0</ele><time>2026-04-11T16:43:02Z</time></trkpt><trkpt lat="45.471538912001556" lon="8.610973884816122"><ele>155.0</ele><time>2026-04-11T16:43:03Z</time></trkpt><trkpt lat="45.47148394409584" lon="8.61130970194233"><ele>156.0</ele><time>2026-04-11T16:43:04Z</time></trkpt><trkpt lat="45.471432614065826" lon="8.611649633825607"><ele>156.0</ele><time>2026-04-11T16:43:05Z</time></trkpt><trkpt lat="45.4713801335128" lon="8.611987499132631"><ele>156.0</ele><time>2026-04-11T16:43:06Z</time></trkpt><trkpt lat="45.47132763530801" lon="8.612322829222801"><ele>156.0</ele><time>2026-04-11T16:43:07Z</time></trkpt><trkpt lat="45.47127756027117" lon="8.612663642162245"><ele>156.0</ele><time>2026-04-11T16:43:08Z</time></trkpt><trkpt lat="45.47122621991902" lon="8.61300409634341"><ele>155.5</ele><time>2026-04-11T16:43:09Z</time></trkpt><trkpt lat="45.4711737508577" lon="8.613341986482348"><ele>155.0</ele><time>2026-04-11T16:43:10Z</time></trkpt><trkpt lat="45.471121666507756" lon="8.613679754834921"><ele>155.0</ele><time>2026-04-11T16:43:11Z</time></trkpt><trkpt lat="45.4710713793381" lon="8.614019004717115"><ele>155.0</ele><time>2026-04-11T16:43:12Z</time></trkpt><trkpt lat="45.47101687741473" lon="8.614354026550478"><ele>156.0</ele><time>2026-04-11T16:43:13Z</time></trkpt><trkpt lat="45.470965880160975" lon="8.614695294912698"><ele>157.0</ele><time>2026-04-11T16:43:14Z</time></trkpt><trkpt lat="45.47091418752332" lon="8.615032243747427"><ele>158.0</ele><time>2026-04-11T16:43:15Z</time></trkpt><trkpt lat="45.4708623056736" lon="8.615371418676805"><ele>159.0</ele><time>2026-04-11T16:43:16Z</time></trkpt><trkpt lat="45.470811220869166" lon="8.615713552144527"><ele>159.0</ele><time>2026-04-11T16:43:17Z</time></trkpt><trkpt lat="45.470758021873706" lon="8.616053651456935"><ele>159.0</ele><time>2026-04-11T16:43:18Z</time></trkpt><trkpt lat="45.47070403045172" lon="8.616396744585577"><ele>158.5</ele><time>2026-04-11T16:43:19Z</time></trkpt><trkpt lat="45.47064910394911" lon="8.616745600057557"><ele>158.0</ele><time>2026-04-11T16:43:20Z</time></trkpt><trkpt lat="45.47059547856412" lon="8.617094718938764"><ele>159.0</ele><time>2026-04-11T16:43:21Z</time></trkpt><trkpt lat="45.47054154783471" lon="8.617440707879156"><ele>160.0</ele><time>2026-04-11T16:43:22Z</time></trkpt><trkpt lat="45.47049003197749" lon="8.617786710321031"><ele>157.5</ele><time>2026-04-11T16:43:23Z</time></trkpt><trkpt lat="45.47043980325913" lon="8.618128362767445"><ele>155.0</ele><time>2026-04-11T16:43:24Z</time></trkpt><trkpt lat="45.470386803629225" lon="8.618466090011152"><ele>154.0</ele><time>2026-04-11T16:43:25Z</time></trkpt><trkpt lat="45.4703346132458" lon="8.618806377170412"><ele>153.0</ele><time>2026-04-11T16:43:26Z</time></trkpt><trkpt lat="45.47028338996691" lon="8.619147549955656"><ele>153.5</ele><time>2026-04-11T16:43:27Z</time></trkpt><trkpt lat="45.47023469513975" lon="8.619489132821728"><ele>154.0</ele><time>2026-04-11T16:43:28Z</time></trkpt><trkpt lat="45.47018777600424" lon="8.61982975844203"><ele>154.0</ele><time>2026-04-11T16:43:29Z</time></trkpt><trkpt lat="45.47013903604601" lon="8.62016747747732"><ele>154.0</ele><time>2026-04-11T16:43:30Z</time></trkpt><trkpt lat="45.4700939800065" lon="8.620505021804526"><ele>154.0</ele><time>2026-04-11T16:43:31Z</time></trkpt><trkpt lat="45.47005038791689" lon="8.620842862734781"><ele>154.0</ele><time>2026-04-11T16:43:32Z</time></trkpt><trkpt lat="45.47000497385797" lon="8.621181236424327"><ele>154.0</ele><time>2026-04-11T16:43:33Z</time></trkpt><trkpt lat="45.46996071638375" lon="8.621518425937492"><ele>154.0</ele><time>2026-04-11T16:43:34Z</time></trkpt><trkpt lat="45.46991768818175" lon="8.621857199835844"><ele>154.0</ele><time>2026-04-11T16:43:35Z</time></trkpt><trkpt lat="45.46987642641239" lon="8.6221963232476"><ele>154.0</ele><time>2026-04-11T16:43:36Z</time></trkpt><trkpt lat="45.469836119193644" lon="8.622532769259854"><ele>154.0</ele><time>2026-04-11T16:43:37Z</time></trkpt><trkpt lat="45.46979617204375" lon="8.62287361012496"><ele>154.0</ele><time>2026-04-11T16:43:38Z</time></trkpt><trkpt lat="45.469754767746686" lon="8.623212618676554"><ele>154.0</ele><time>2026-04-11T16:43:39Z</time></trkpt><trkpt lat="45.469714511532416" lon="8.623550091711227"><ele>154.0</ele><time>2026-04-11T16:43:40Z</time></trkpt><trkpt lat="45.469674185426314" lon="8.623885006427498"><ele>154.5</ele><time>2026-04-11T16:43:41Z</time></trkpt><trkpt lat="45.469639670465085" lon="8.624224603077092"><ele>155.0</ele><time>2026-04-11T16:43:42Z</time></trkpt><trkpt lat="45.46960505288461" lon="8.6245587061857"><ele>155.0</ele><time>2026-04-11T16:43:43Z</time></trkpt><trkpt lat="45.46956965070426" lon="8.624887557842646"><ele>155.0</ele><time>2026-04-11T16:43:44Z</time></trkpt><trkpt lat="45.469537399496815" lon="8.62521998207674"><ele>155.0</ele><time>2026-04-11T16:43:45Z</time></trkpt><trkpt lat="45.46950404376977" lon="8.6255490717545"><ele>155.0</ele><time>2026-04-11T16:43:46Z</time></trkpt><trkpt lat="45.46947512494124" lon="8.625873894146942"><ele>154.0</ele><time>2026-04-11T16:43:47Z</time></trkpt><trkpt lat="45.469445688085266" lon="8.626199558919938"><ele>153.0</ele><time>2026-04-11T16:43:48Z</time></trkpt><trkpt lat="45.46942035516419" lon="8.62652871428958"><ele>153.0</ele><time>2026-04-11T16:43:49Z</time></trkpt><trkpt lat="45.46939342077835" lon="8.626853187871593"><ele>153.0</ele><time>2026-04-11T16:43:50Z</time></trkpt><trkpt lat="45.46936581434301" lon="8.62717234696973"><ele>153.5</ele><time>2026-04-11T16:43:51Z</time></trkpt><trkpt lat="45.469340513050234" lon="8.627510224358282"><ele>154.0</ele><time>2026-04-11T16:43:52Z</time></trkpt><trkpt lat="45.4693166313334" lon="8.627846793577202"><ele>154.0</ele><time>2026-04-11T16:43:53Z</time></trkpt><trkpt lat="45.46929102938927" lon="8.62817478926493"><ele>154.0</ele><time>2026-04-11T16:43:54Z</time></trkpt><trkpt lat="45.46926620191931" lon="8.628508730405256"><ele>153.5</ele><time>2026-04-11T16:43:55Z</time></trkpt><trkpt lat="45.469242548043795" lon="8.628843379716226"><ele>153.0</ele><time>2026-04-11T16:43:56Z</time></trkpt><trkpt lat="45.46922104736933" lon="8.629183840127446"><ele>153.5</ele><time>2026-04-11T16:43:57Z</time></trkpt><trkpt lat="45.46919850029551" lon="8.62952121508577"><ele>154.0</ele><time>2026-04-11T16:43:58Z</time></trkpt><trkpt lat="45.46917713886991" lon="8.629858700905906"><ele>154.0</ele><time>2026-04-11T16:43:59Z</time></trkpt><trkpt lat="45.46915844905013" lon="8.630198108595224"><ele>154.0</ele><time>2026-04-11T16:44:00Z</time></trkpt><trkpt lat="45.469140678931616" lon="8.630534648359516"><ele>153.0</ele><time>2026-04-11T16:44:01Z</time></trkpt><trkpt lat="45.46912194642893" lon="8.63087134495195"><ele>152.0</ele><time>2026-04-11T16:44:02Z</time></trkpt><trkpt lat="45.469105852050696" lon="8.631204814885532"><ele>151.0</ele><time>2026-04-11T16:44:03Z</time></trkpt><trkpt lat="45.46908891762638" lon="8.631536320987193"><ele>150.0</ele><time>2026-04-11T16:44:04Z</time></trkpt><trkpt lat="45.46907513663751" lon="8.631866410880589"><ele>150.5</ele><time>2026-04-11T16:44:05Z</time></trkpt><trkpt lat="45.46906173623173" lon="8.632195217663106"><ele>151.0</ele><time>2026-04-11T16:44:06Z</time></trkpt><trkpt lat="45.46904868006817" lon="8.632520470120387"><ele>151.0</ele><time>2026-04-11T16:44:07Z</time></trkpt><trkpt lat="45.46903605473657" lon="8.632842274514616"><ele>151.0</ele><time>2026-04-11T16:44:08Z</time></trkpt><trkpt lat="45.46902415895053" lon="8.633165307296762"><ele>151.0</ele><time>2026-04-11T16:44:09Z</time></trkpt><trkpt lat="45.46901537346995" lon="8.63348927280481"><ele>151.0</ele><time>2026-04-11T16:44:10Z</time></trkpt><trkpt lat="45.4690079690327" lon="8.633811071150177"><ele>151.5</ele><time>2026-04-11T16:44:11Z</time></trkpt><trkpt lat="45.46900101358298" lon="8.634135618356936"><ele>152.0</ele><time>2026-04-11T16:44:12Z</time></trkpt><trkpt lat="45.468993075062585" lon="8.634459160761418"><ele>151.0</ele><time>2026-04-11T16:44:13Z</time></trkpt><trkpt lat="45.46898674015474" lon="8.63478441417205"><ele>150.0</ele><time>2026-04-11T16:44:14Z</time></trkpt><trkpt lat="45.46898136790505" lon="8.635113454510309"><ele>150.5</ele><time>2026-04-11T16:44:15Z</time></trkpt><trkpt lat="45.4689748602191" lon="8.635444358951291"><ele>151.0</ele><time>2026-04-11T16:44:16Z</time></trkpt><trkpt lat="45.46896875013146" lon="8.635781514659037"><ele>151.0</ele><time>2026-04-11T16:44:17Z</time></trkpt><trkpt lat="45.46896095067014" lon="8.636121260034901"><ele>151.0</ele><time>2026-04-11T16:44:18Z</time></trkpt><trkpt lat="45.46895655338059" lon="8.636461700887867"><ele>151.0</ele><time>2026-04-11T16:44:19Z</time></trkpt><trkpt lat="45.468951164079" lon="8.636805376800117"><ele>151.0</ele><time>2026-04-11T16:44:20Z</time></trkpt><trkpt lat="45.468944929440845" lon="8.637147631441103"><ele>152.0</ele><time>2026-04-11T16:44:21Z</time></trkpt><trkpt lat="45.468939308757896" lon="8.637490109881764"><ele>153.0</ele><time>2026-04-11T16:44:22Z</time></trkpt><trkpt lat="45.46893254517535" lon="8.637827458432733"><ele>153.0</ele><time>2026-04-11T16:44:23Z</time></trkpt><trkpt lat="45.468925960088434" lon="8.638167290855902"><ele>153.0</ele><time>2026-04-11T16:44:24Z</time></trkpt><trkpt lat="45.468922774474194" lon="8.638519345372467"><ele>152.5</ele><time>2026-04-11T16:44:25Z</time></trkpt><trkpt lat="45.46891726500436" lon="8.638862703126764"><ele>152.0</ele><time>2026-04-11T16:44:26Z</time></trkpt><trkpt lat="45.46891165690904" lon="8.63920751121189"><ele>151.5</ele><time>2026-04-11T16:44:27Z</time></trkpt><trkpt lat="45.468906745381815" lon="8.639552616002318"><ele>151.0</ele><time>2026-04-11T16:44:28Z</time></trkpt><trkpt lat="45.468901251198865" lon="8.639904100441408"><ele>151.0</ele><time>2026-04-11T16:44:29Z</time></trkpt><trkpt lat="45.46889449581797" lon="8.640250602348948"><ele>151.0</ele><time>2026-04-11T16:44:30Z</time></trkpt><trkpt lat="45.4688901095884" lon="8.640605737136495"><ele>150.0</ele><time>2026-04-11T16:44:31Z</time></trkpt><trkpt lat="45.468883438318386" lon="8.640953998907777"><ele>149.0</ele><time>2026-04-11T16:44:32Z</time></trkpt><trkpt lat="45.468881397078675" lon="8.641307715489498"><ele>149.5</ele><time>2026-04-11T16:44:33Z</time></trkpt><trkpt lat="45.46887725897373" lon="8.641656617645387"><ele>150.0</ele><time>2026-04-11T16:44:34Z</time></trkpt><trkpt lat="45.46887292387835" lon="8.642008307814876"><ele>150.0</ele><time>2026-04-11T16:44:35Z</time></trkpt><trkpt lat="45.46886979855389" lon="8.64235885887007"><ele>150.0</ele><time>2026-04-11T16:44:36Z</time></trkpt><trkpt lat="45.46886562332591" lon="8.64271137116278"><ele>150.5</ele><time>2026-04-11T16:44:37Z</time></trkpt><trkpt lat="45.46886111376951" lon="8.643063641555536"><ele>151.0</ele><time>2026-04-11T16:44:38Z</time></trkpt><trkpt lat="45.468853296950044" lon="8.643408088655605"><ele>152.0</ele><time>2026-04-11T16:44:39Z</time></trkpt><trkpt lat="45.46884941146339" lon="8.643756443383499"><ele>153.0</ele><time>2026-04-11T16:44:40Z</time></trkpt><trkpt lat="45.46884607667791" lon="8.644106623134617"><ele>153.0</ele><time>2026-04-11T16:44:41Z</time></trkpt><trkpt lat="45.468840502251716" lon="8.644452657936025"><ele>153.0</ele><time>2026-04-11T16:44:42Z</time></trkpt><trkpt lat="45.468833920672246" lon="8.644796222434069"><ele>153.0</ele><time>2026-04-11T16:44:43Z</time></trkpt><trkpt lat="45.4688281377514" lon="8.645139827085677"><ele>153.0</ele><time>2026-04-11T16:44:44Z</time></trkpt><trkpt lat="45.46882288363352" lon="8.645485689907312"><ele>153.5</ele><time>2026-04-11T16:44:45Z</time></trkpt><trkpt lat="45.4688172057415" lon="8.645829203448686"><ele>154.0</ele><time>2026-04-11T16:44:46Z</time></trkpt><trkpt lat="45.468813544417756" lon="8.646177355571048"><ele>154.0</ele><time>2026-04-11T16:44:47Z</time></trkpt><trkpt lat="45.46880756744838" lon="8.646523212404453"><ele>154.0</ele><time>2026-04-11T16:44:48Z</time></trkpt><trkpt lat="45.46880345624528" lon="8.646873337222846"><ele>153.0</ele><time>2026-04-11T16:44:49Z</time></trkpt><trkpt lat="45.46879872571344" lon="8.647223723720726"><ele>152.0</ele><time>2026-04-11T16:44:50Z</time></trkpt><trkpt lat="45.46879151242369" lon="8.64756879554881"><ele>151.5</ele><time>2026-04-11T16:44:51Z</time></trkpt><trkpt lat="45.468786429554626" lon="8.647917889051648"><ele>151.0</ele><time>2026-04-11T16:44:52Z</time></trkpt><trkpt lat="45.468782357840254" lon="8.64826831603297"><ele>151.0</ele><time>2026-04-11T16:44:53Z</time></trkpt><trkpt lat="45.46877763884672" lon="8.64862071690422"><ele>151.0</ele><time>2026-04-11T16:44:54Z</time></trkpt><trkpt lat="45.46876966073263" lon="8.648969618898674"><ele>150.0</ele><time>2026-04-11T16:44:55Z</time></trkpt><trkpt lat="45.4687630018133" lon="8.649320595447685"><ele>149.0</ele><time>2026-04-11T16:44:56Z</time></trkpt><trkpt lat="45.46875852233148" lon="8.6496760252785"><ele>149.0</ele><time>2026-04-11T16:44:57Z</time></trkpt><trkpt lat="45.4687561711971" lon="8.650035035218794"><ele>149.0</ele><time>2026-04-11T16:44:58Z</time></trkpt><trkpt lat="45.46875250927399" lon="8.650391650116683"><ele>149.0</ele><time>2026-04-11T16:44:59Z</time></trkpt><trkpt lat="45.46874554502423" lon="8.650751053795888"><ele>149.0</ele><time>2026-04-11T16:45:00Z</time></trkpt><trkpt lat="45.4687404157406" lon="8.651106973190926"><ele>150.0</ele><time>2026-04-11T16:45:01Z</time></trkpt><trkpt lat="45.4687344849623" lon="8.651462431912917"><ele>151.0</ele><time>2026-04-11T16:45:02Z</time></trkpt><trkpt lat="45.46872886022424" lon="8.651813378727693"><ele>150.5</ele><time>2026-04-11T16:45:03Z</time></trkpt><trkpt lat="45.468723113802334" lon="8.65215104502865"><ele>150.0</ele><time>2026-04-11T16:45:04Z</time></trkpt><trkpt lat="45.468714811777375" lon="8.65248968749048"><ele>149.5</ele><time>2026-04-11T16:45:05Z</time></trkpt><trkpt lat="45.46870773227479" lon="8.652827915512004"><ele>149.0</ele><time>2026-04-11T16:45:06Z</time></trkpt><trkpt lat="45.46870172077328" lon="8.653162006040453"><ele>149.0</ele><time>2026-04-11T16:45:07Z</time></trkpt><trkpt lat="45.46869745419499" lon="8.653495902174626"><ele>149.0</ele><time>2026-04-11T16:45:08Z</time></trkpt><trkpt lat="45.46869131170323" lon="8.653826901274753"><ele>148.5</ele><time>2026-04-11T16:45:09Z</time></trkpt><trkpt lat="45.46868483012847" lon="8.654146073096124"><ele>148.0</ele><time>2026-04-11T16:45:10Z</time></trkpt><trkpt lat="45.46868427109207" lon="8.654470477380663"><ele>148.0</ele><time>2026-04-11T16:45:11Z</time></trkpt><trkpt lat="45.468675868039284" lon="8.654807519035693"><ele>148.0</ele><time>2026-04-11T16:45:12Z</time></trkpt><trkpt lat="45.46867144612473" lon="8.655125982563023"><ele>148.5</ele><time>2026-04-11T16:45:13Z</time></trkpt><trkpt lat="45.468666922285436" lon="8.655449747595778"><ele>149.0</ele><time>2026-04-11T16:45:14Z</time></trkpt><trkpt lat="45.46866054044342" lon="8.655769461061135"><ele>149.0</ele><time>2026-04-11T16:45:15Z</time></trkpt><trkpt lat="45.468654837919836" lon="8.656093714612414"><ele>149.0</ele><time>2026-04-11T16:45:16Z</time></trkpt><trkpt lat="45.4686501553403" lon="8.656416708150585"><ele>149.5</ele><time>2026-04-11T16:45:17Z</time></trkpt><trkpt lat="45.46864575265362" lon="8.65674007381414"><ele>150.0</ele><time>2026-04-11T16:45:18Z</time></trkpt><trkpt lat="45.468640461588066" lon="8.65706829078921"><ele>150.0</ele><time>2026-04-11T16:45:19Z</time></trkpt><trkpt lat="45.46863453121146" lon="8.65741308574955"><ele>150.0</ele><time>2026-04-11T16:45:20Z</time></trkpt><trkpt lat="45.4686299110531" lon="8.657749719208454"><ele>150.0</ele><time>2026-04-11T16:45:21Z</time></trkpt><trkpt lat="45.468624945297705" lon="8.658069663298534"><ele>150.0</ele><time>2026-04-11T16:45:22Z</time></trkpt><trkpt lat="45.46861943511499" lon="8.658407068671647"><ele>150.5</ele><time>2026-04-11T16:45:23Z</time></trkpt><trkpt lat="45.46861340673005" lon="8.65874815612078"><ele>151.0</ele><time>2026-04-11T16:45:24Z</time></trkpt><trkpt lat="45.4686070191211" lon="8.65908203924006"><ele>151.0</ele><time>2026-04-11T16:45:25Z</time></trkpt><trkpt lat="45.468601206966376" lon="8.659421221852977"><ele>151.0</ele><time>2026-04-11T16:45:26Z</time></trkpt><trkpt lat="45.46859489417266" lon="8.659757464901643"><ele>151.5</ele><time>2026-04-11T16:45:27Z</time></trkpt><trkpt lat="45.46858651342799" lon="8.6601006919257"><ele>152.0</ele><time>2026-04-11T16:45:28Z</time></trkpt><trkpt lat="45.46858174052909" lon="8.6604388652762"><ele>154.0</ele><time>2026-04-11T16:45:29Z</time></trkpt><trkpt lat="45.46857723308839" lon="8.660777165966612"><ele>156.0</ele><time>2026-04-11T16:45:30Z</time></trkpt><trkpt lat="45.46857185889268" lon="8.661112599986504"><ele>153.5</ele><time>2026-04-11T16:45:31Z</time></trkpt><trkpt lat="45.4685669422051" lon="8.661450042712126"><ele>151.0</ele><time>2026-04-11T16:45:32Z</time></trkpt><trkpt lat="45.468564118971955" lon="8.661779356436575"><ele>149.5</ele><time>2026-04-11T16:45:33Z</time></trkpt><trkpt lat="45.468559824117804" lon="8.662112804003476"><ele>148.0</ele><time>2026-04-11T16:45:34Z</time></trkpt><trkpt lat="45.46855290415249" lon="8.662441658906967"><ele>148.0</ele><time>2026-04-11T16:45:35Z</time></trkpt><trkpt lat="45.46854690132684" lon="8.662773089271365"><ele>148.0</ele><time>2026-04-11T16:45:36Z</time></trkpt><trkpt lat="45.46854020312471" lon="8.663110450738863"><ele>148.5</ele><time>2026-04-11T16:45:37Z</time></trkpt><trkpt lat="45.46853414697577" lon="8.663439587166412"><ele>149.0</ele><time>2026-04-11T16:45:38Z</time></trkpt><trkpt lat="45.46852768536263" lon="8.663776443334184"><ele>149.0</ele><time>2026-04-11T16:45:39Z</time></trkpt><trkpt lat="45.46852388145894" lon="8.664110113806212"><ele>149.0</ele><time>2026-04-11T16:45:40Z</time></trkpt><trkpt lat="45.46851805171654" lon="8.664443273464483"><ele>148.5</ele><time>2026-04-11T16:45:41Z</time></trkpt><trkpt lat="45.468513529596336" lon="8.66477884422697"><ele>148.0</ele><time>2026-04-11T16:45:42Z</time></trkpt><trkpt lat="45.46850846050571" lon="8.66511807527957"><ele>148.0</ele><time>2026-04-11T16:45:43Z</time></trkpt><trkpt lat="45.468502342717315" lon="8.665458529558363"><ele>148.0</ele><time>2026-04-11T16:45:44Z</time></trkpt><trkpt lat="45.46849825002759" lon="8.66579966455123"><ele>147.5</ele><time>2026-04-11T16:45:45Z</time></trkpt><trkpt lat="45.46849088473444" lon="8.66613185054882"><ele>147.0</ele><time>2026-04-11T16:45:46Z</time></trkpt><trkpt lat="45.46848920365721" lon="8.666475642768264"><ele>147.0</ele><time>2026-04-11T16:45:47Z</time></trkpt><trkpt lat="45.46848289720239" lon="8.666812240556567"><ele>147.0</ele><time>2026-04-11T16:45:48Z</time></trkpt><trkpt lat="45.46847651960241" lon="8.667145531879495"><ele>147.0</ele><time>2026-04-11T16:45:49Z</time></trkpt><trkpt lat="45.46847360982303" lon="8.667480506731287"><ele>147.0</ele><time>2026-04-11T16:45:50Z</time></trkpt><trkpt lat="45.46846667518306" lon="8.667808605988144"><ele>147.0</ele><time>2026-04-11T16:45:51Z</time></trkpt><trkpt lat="45.46846197564934" lon="8.668139791707173"><ele>147.0</ele><time>2026-04-11T16:45:52Z</time></trkpt><trkpt lat="45.46845594787557" lon="8.668468857708524"><ele>147.0</ele><time>2026-04-11T16:45:53Z</time></trkpt><trkpt lat="45.46845178019891" lon="8.668802839720115"><ele>147.0</ele><time>2026-04-11T16:45:54Z</time></trkpt><trkpt lat="45.46844898916632" lon="8.66913135125058"><ele>147.5</ele><time>2026-04-11T16:45:55Z</time></trkpt><trkpt lat="45.46844523397566" lon="8.66945854680219"><ele>148.0</ele><time>2026-04-11T16:45:56Z</time></trkpt><trkpt lat="45.46843983600427" lon="8.669785407577091"><ele>148.0</ele><time>2026-04-11T16:45:57Z</time></trkpt><trkpt lat="45.46843303635134" lon="8.67010881374951"><ele>148.0</ele><time>2026-04-11T16:45:58Z</time></trkpt><trkpt lat="45.46842643814642" lon="8.670432315342726"><ele>148.0</ele><time>2026-04-11T16:45:59Z</time></trkpt><trkpt lat="45.468418142712984" lon="8.670749317465711"><ele>148.0</ele><time>2026-04-11T16:46:00Z</time></trkpt><trkpt lat="45.468411045167855" lon="8.671070552255879"><ele>148.0</ele><time>2026-04-11T16:46:01Z</time></trkpt><trkpt lat="45.468408211618545" lon="8.671396783469211"><ele>148.0</ele><time>2026-04-11T16:46:02Z</time></trkpt><trkpt lat="45.468403788997314" lon="8.67172747704901"><ele>148.0</ele><time>2026-04-11T16:46:03Z</time></trkpt><trkpt lat="45.46839859162708" lon="8.67205287675618"><ele>147.5</ele><time>2026-04-11T16:46:04Z</time></trkpt><trkpt lat="45.46839107216059" lon="8.672383997307243"><ele>147.0</ele><time>2026-04-11T16:46:05Z</time></trkpt><trkpt lat="45.46838325302362" lon="8.672716160902343"><ele>148.5</ele><time>2026-04-11T16:46:06Z</time></trkpt><trkpt lat="45.46837724189441" lon="8.673050983742606"><ele>150.0</ele><time>2026-04-11T16:46:07Z</time></trkpt><trkpt lat="45.468374276111845" lon="8.673390656464942"><ele>150.0</ele><time>2026-04-11T16:46:08Z</time></trkpt><trkpt lat="45.468370266921866" lon="8.673733260620281"><ele>150.0</ele><time>2026-04-11T16:46:09Z</time></trkpt><trkpt lat="45.46836389486618" lon="8.674078747204927"><ele>150.0</ele><time>2026-04-11T16:46:10Z</time></trkpt><trkpt lat="45.468359573550735" lon="8.67442285892732"><ele>150.0</ele><time>2026-04-11T16:46:11Z</time></trkpt><trkpt lat="45.46835411008839" lon="8.674770323124255"><ele>149.5</ele><time>2026-04-11T16:46:12Z</time></trkpt><trkpt lat="45.468348589487974" lon="8.675115762837052"><ele>149.0</ele><time>2026-04-11T16:46:13Z</time></trkpt><trkpt lat="45.46834304376733" lon="8.675467403816887"><ele>149.0</ele><time>2026-04-11T16:46:14Z</time></trkpt><trkpt lat="45.46833665731847" lon="8.675816253421752"><ele>149.0</ele><time>2026-04-11T16:46:15Z</time></trkpt><trkpt lat="45.46833202525948" lon="8.676163286819541"><ele>149.0</ele><time>2026-04-11T16:46:16Z</time></trkpt><trkpt lat="45.468326975241105" lon="8.67651647993142"><ele>149.0</ele><time>2026-04-11T16:46:17Z</time></trkpt><trkpt lat="45.46832200514041" lon="8.676863769413606"><ele>149.0</ele><time>2026-04-11T16:46:18Z</time></trkpt><trkpt lat="45.46831796927308" lon="8.67721229685287"><ele>149.0</ele><time>2026-04-11T16:46:19Z</time></trkpt><trkpt lat="45.46831144538578" lon="8.677556949740074"><ele>149.0</ele><time>2026-04-11T16:46:20Z</time></trkpt><trkpt lat="45.468305630406995" lon="8.677898054630182"><ele>149.0</ele><time>2026-04-11T16:46:21Z</time></trkpt><trkpt lat="45.46830027054188" lon="8.678239615330344"><ele>149.0</ele><time>2026-04-11T16:46:22Z</time></trkpt><trkpt lat="45.4682981497716" lon="8.67858054781974"><ele>149.0</ele><time>2026-04-11T16:46:23Z</time></trkpt><trkpt lat="45.468291769524804" lon="8.678921257106403"><ele>150.0</ele><time>2026-04-11T16:46:24Z</time></trkpt><trkpt lat="45.46828635705616" lon="8.6792594729079"><ele>151.0</ele><time>2026-04-11T16:46:25Z</time></trkpt><trkpt lat="45.46828083806832" lon="8.679595677501567"><ele>151.5</ele><time>2026-04-11T16:46:26Z</time></trkpt><trkpt lat="45.46827282959072" lon="8.679932295393114"><ele>152.0</ele><time>2026-04-11T16:46:27Z</time></trkpt><trkpt lat="45.46826449283052" lon="8.680270980987286"><ele>152.0</ele><time>2026-04-11T16:46:28Z</time></trkpt><trkpt lat="45.46825709704581" lon="8.680609407116334"><ele>152.0</ele><time>2026-04-11T16:46:29Z</time></trkpt><trkpt lat="45.46825022435849" lon="8.680942779249689"><ele>149.5</ele><time>2026-04-11T16:46:30Z</time></trkpt><trkpt lat="45.46824501425701" lon="8.681276309206064"><ele>147.0</ele><time>2026-04-11T16:46:31Z</time></trkpt><trkpt lat="45.468238606588656" lon="8.681606426049493"><ele>147.0</ele><time>2026-04-11T16:46:32Z</time></trkpt><trkpt lat="45.46823354950744" lon="8.681931482408833"><ele>147.0</ele><time>2026-04-11T16:46:33Z</time></trkpt><trkpt lat="45.468229331015785" lon="8.682258174488407"><ele>147.0</ele><time>2026-04-11T16:46:34Z</time></trkpt><trkpt lat="45.468224679044894" lon="8.682586544627672"><ele>147.0</ele><time>2026-04-11T16:46:35Z</time></trkpt><trkpt lat="45.468219408066055" lon="8.682906936276645"><ele>147.5</ele><time>2026-04-11T16:46:36Z</time></trkpt><trkpt lat="45.46821517675915" lon="8.68323431783893"><ele>148.0</ele><time>2026-04-11T16:46:37Z</time></trkpt><trkpt lat="45.4682101186963" lon="8.683559057946542"><ele>149.0</ele><time>2026-04-11T16:46:38Z</time></trkpt><trkpt lat="45.46820838985435" lon="8.683884469036036"><ele>150.0</ele><time>2026-04-11T16:46:39Z</time></trkpt><trkpt lat="45.468206721188324" lon="8.684211401127927"><ele>150.0</ele><time>2026-04-11T16:46:40Z</time></trkpt><trkpt lat="45.46820288808742" lon="8.684538304929822"><ele>150.0</ele><time>2026-04-11T16:46:41Z</time></trkpt><trkpt lat="45.468195466446566" lon="8.684864067317818"><ele>150.0</ele><time>2026-04-11T16:46:42Z</time></trkpt><trkpt lat="45.46819043296542" lon="8.685194476512413"><ele>150.0</ele><time>2026-04-11T16:46:43Z</time></trkpt><trkpt lat="45.468183915495835" lon="8.685524092712978"><ele>150.0</ele><time>2026-04-11T16:46:44Z</time></trkpt><trkpt lat="45.46817681314785" lon="8.685857177851819"><ele>150.0</ele><time>2026-04-11T16:46:45Z</time></trkpt><trkpt lat="45.46817118717339" lon="8.686192085037163"><ele>149.5</ele><time>2026-04-11T16:46:46Z</time></trkpt><trkpt lat="45.46816562220684" lon="8.686528074814653"><ele>149.0</ele><time>2026-04-11T16:46:47Z</time></trkpt><trkpt lat="45.468160946996285" lon="8.686861068493752"><ele>148.5</ele><time>2026-04-11T16:46:48Z</time></trkpt><trkpt lat="45.468155662310224" lon="8.687196065644619"><ele>148.0</ele><time>2026-04-11T16:46:49Z</time></trkpt><trkpt lat="45.46814836184193" lon="8.68752573602892"><ele>147.5</ele><time>2026-04-11T16:46:50Z</time></trkpt><trkpt lat="45.46814157919246" lon="8.687856657078646"><ele>147.0</ele><time>2026-04-11T16:46:51Z</time></trkpt><trkpt lat="45.46813494888802" lon="8.688187322083516"><ele>147.0</ele><time>2026-04-11T16:46:52Z</time></trkpt><trkpt lat="45.468129827812334" lon="8.688522536758287"><ele>147.0</ele><time>2026-04-11T16:46:53Z</time></trkpt><trkpt lat="45.46812318931152" lon="8.688853850768876"><ele>147.0</ele><time>2026-04-11T16:46:54Z</time></trkpt><trkpt lat="45.46811826876579" lon="8.689193291562477"><ele>147.0</ele><time>2026-04-11T16:46:55Z</time></trkpt><trkpt lat="45.46811647427147" lon="8.689534456650053"><ele>147.0</ele><time>2026-04-11T16:46:56Z</time></trkpt><trkpt lat="45.468112102300985" lon="8.689870134917793"><ele>147.0</ele><time>2026-04-11T16:46:57Z</time></trkpt><trkpt lat="45.46810537277704" lon="8.690210119392555"><ele>147.5</ele><time>2026-04-11T16:46:58Z</time></trkpt><trkpt lat="45.46809885117594" lon="8.69055160369764"><ele>148.0</ele><time>2026-04-11T16:46:59Z</time></trkpt><trkpt lat="45.46809133296811" lon="8.690892946595183"><ele>147.5</ele><time>2026-04-11T16:47:00Z</time></trkpt><trkpt lat="45.46808430496469" lon="8.69123057906803"><ele>147.0</ele><time>2026-04-11T16:47:01Z</time></trkpt><trkpt lat="45.46807906081953" lon="8.691569510483571"><ele>147.0</ele><time>2026-04-11T16:47:02Z</time></trkpt><trkpt lat="45.46807619994434" lon="8.691910046612142"><ele>147.0</ele><time>2026-04-11T16:47:03Z</time></trkpt><trkpt lat="45.46807061570004" lon="8.692241410825995"><ele>147.0</ele><time>2026-04-11T16:47:04Z</time></trkpt><trkpt lat="45.46806712606045" lon="8.692576780322408"><ele>147.0</ele><time>2026-04-11T16:47:05Z</time></trkpt><trkpt lat="45.46806327546565" lon="8.692913662243516"><ele>147.5</ele><time>2026-04-11T16:47:06Z</time></trkpt><trkpt lat="45.46805819921387" lon="8.693246282781518"><ele>148.0</ele><time>2026-04-11T16:47:07Z</time></trkpt><trkpt lat="45.46805527515313" lon="8.693583152510426"><ele>148.0</ele><time>2026-04-11T16:47:08Z</time></trkpt><trkpt lat="45.46805033314413" lon="8.693918728891136"><ele>148.0</ele><time>2026-04-11T16:47:09Z</time></trkpt><trkpt lat="45.468044676742466" lon="8.694252398434502"><ele>147.0</ele><time>2026-04-11T16:47:10Z</time></trkpt><trkpt lat="45.468038918631805" lon="8.694589960563736"><ele>146.0</ele><time>2026-04-11T16:47:11Z</time></trkpt><trkpt lat="45.46803344694584" lon="8.694930128564906"><ele>146.0</ele><time>2026-04-11T16:47:12Z</time></trkpt><trkpt lat="45.46802675136098" lon="8.695269231014144"><ele>146.0</ele><time>2026-04-11T16:47:13Z</time></trkpt><trkpt lat="45.46802023114429" lon="8.695612607822094"><ele>146.0</ele><time>2026-04-11T16:47:14Z</time></trkpt><trkpt lat="45.46801376927389" lon="8.695957137112199"><ele>146.0</ele><time>2026-04-11T16:47:15Z</time></trkpt><trkpt lat="45.46800651380674" lon="8.696299597018385"><ele>146.5</ele><time>2026-04-11T16:47:16Z</time></trkpt><trkpt lat="45.468000817244324" lon="8.696649257260798"><ele>147.0</ele><time>2026-04-11T16:47:17Z</time></trkpt><trkpt lat="45.467995942655776" lon="8.697001178830424"><ele>148.0</ele><time>2026-04-11T16:47:18Z</time></trkpt><trkpt lat="45.46799073108386" lon="8.69735323675755"><ele>149.0</ele><time>2026-04-11T16:47:19Z</time></trkpt><trkpt lat="45.467986249599406" lon="8.697704184934917"><ele>148.0</ele><time>2026-04-11T16:47:20Z</time></trkpt><trkpt lat="45.467980091008904" lon="8.69805779111617"><ele>147.0</ele><time>2026-04-11T16:47:21Z</time></trkpt><trkpt lat="45.4679735967482" lon="8.698407883556285"><ele>147.0</ele><time>2026-04-11T16:47:22Z</time></trkpt><trkpt lat="45.4679690596072" lon="8.698761475560952"><ele>147.0</ele><time>2026-04-11T16:47:23Z</time></trkpt><trkpt lat="45.46796455163882" lon="8.69910977242603"><ele>146.5</ele><time>2026-04-11T16:47:24Z</time></trkpt><trkpt lat="45.467958977120716" lon="8.699456390920547"><ele>146.0</ele><time>2026-04-11T16:47:25Z</time></trkpt><trkpt lat="45.46795409684787" lon="8.699809905915236"><ele>146.0</ele><time>2026-04-11T16:47:26Z</time></trkpt><trkpt lat="45.46794977473386" lon="8.70015793716733"><ele>146.0</ele><time>2026-04-11T16:47:27Z</time></trkpt><trkpt lat="45.467944721788385" lon="8.700503252174611"><ele>146.0</ele><time>2026-04-11T16:47:28Z</time></trkpt><trkpt lat="45.467939225773065" lon="8.700847881440087"><ele>146.0</ele><time>2026-04-11T16:47:29Z</time></trkpt><trkpt lat="45.467933642650216" lon="8.701189233019404"><ele>145.5</ele><time>2026-04-11T16:47:30Z</time></trkpt><trkpt lat="45.46792729118409" lon="8.701528978706298"><ele>145.0</ele><time>2026-04-11T16:47:31Z</time></trkpt><trkpt lat="45.46792121855971" lon="8.701861004613699"><ele>145.5</ele><time>2026-04-11T16:47:32Z</time></trkpt><trkpt lat="45.46791660850971" lon="8.702197224951865"><ele>146.0</ele><time>2026-04-11T16:47:33Z</time></trkpt><trkpt lat="45.46791215884283" lon="8.702525359330654"><ele>148.0</ele><time>2026-04-11T16:47:34Z</time></trkpt><trkpt lat="45.467908676411255" lon="8.702851490259416"><ele>150.0</ele><time>2026-04-11T16:47:35Z</time></trkpt><trkpt lat="45.46790348903192" lon="8.70317724502072"><ele>150.0</ele><time>2026-04-11T16:47:36Z</time></trkpt><trkpt lat="45.46789728786667" lon="8.703498293269305"><ele>150.0</ele><time>2026-04-11T16:47:37Z</time></trkpt><trkpt lat="45.46789338364904" lon="8.703821522612877"><ele>148.5</ele><time>2026-04-11T16:47:38Z</time></trkpt><trkpt lat="45.46788457935282" lon="8.704142809367788"><ele>147.0</ele><time>2026-04-11T16:47:39Z</time></trkpt><trkpt lat="45.46787854990224" lon="8.704465537623317"><ele>146.5</ele><time>2026-04-11T16:47:40Z</time></trkpt><trkpt lat="45.467872716180224" lon="8.704793013027246"><ele>146.0</ele><time>2026-04-11T16:47:41Z</time></trkpt><trkpt lat="45.467866639142144" lon="8.705127731222793"><ele>145.5</ele><time>2026-04-11T16:47:42Z</time></trkpt><trkpt lat="45.46785986218047" lon="8.705464447784626"><ele>145.0</ele><time>2026-04-11T16:47:43Z</time></trkpt><trkpt lat="45.46785586932082" lon="8.705803889534073"><ele>145.5</ele><time>2026-04-11T16:47:44Z</time></trkpt><trkpt lat="45.46785538934536" lon="8.706156570217317"><ele>146.0</ele><time>2026-04-11T16:47:45Z</time></trkpt><trkpt lat="45.46784510371186" lon="8.706501392919552"><ele>146.0</ele><time>2026-04-11T16:47:46Z</time></trkpt><trkpt lat="45.46783688475204" lon="8.706850023673272"><ele>146.0</ele><time>2026-04-11T16:47:47Z</time></trkpt><trkpt lat="45.467832372775554" lon="8.707203698406605"><ele>146.0</ele><time>2026-04-11T16:47:48Z</time></trkpt><trkpt lat="45.46782514044587" lon="8.707558386146259"><ele>146.0</ele><time>2026-04-11T16:47:49Z</time></trkpt><trkpt lat="45.46781763671051" lon="8.707917890715049"><ele>146.5</ele><time>2026-04-11T16:47:50Z</time></trkpt><trkpt lat="45.467810838844336" lon="8.70827866515796"><ele>147.0</ele><time>2026-04-11T16:47:51Z</time></trkpt><trkpt lat="45.467804027405" lon="8.708642400593218"><ele>147.0</ele><time>2026-04-11T16:47:52Z</time></trkpt><trkpt lat="45.4678026798171" lon="8.709004120670377"><ele>147.0</ele><time>2026-04-11T16:47:53Z</time></trkpt><trkpt lat="45.46778754424874" lon="8.709364219947796"><ele>147.0</ele><time>2026-04-11T16:47:54Z</time></trkpt><trkpt lat="45.467788038104004" lon="8.7097269070077"><ele>147.0</ele><time>2026-04-11T16:47:55Z</time></trkpt><trkpt lat="45.46777677956724" lon="8.71007900338849"><ele>147.0</ele><time>2026-04-11T16:47:56Z</time></trkpt><trkpt lat="45.46777291739578" lon="8.710425935228715"><ele>147.0</ele><time>2026-04-11T16:47:57Z</time></trkpt><trkpt lat="45.467769872855996" lon="8.71075947060223"><ele>146.5</ele><time>2026-04-11T16:47:58Z</time></trkpt><trkpt lat="45.4677654693975" lon="8.711092555503932"><ele>146.0</ele><time>2026-04-11T16:47:59Z</time></trkpt><trkpt lat="45.467760486277896" lon="8.711426789039697"><ele>146.0</ele><time>2026-04-11T16:48:00Z</time></trkpt><trkpt lat="45.46775512315625" lon="8.711757844646328"><ele>146.0</ele><time>2026-04-11T16:48:01Z</time></trkpt><trkpt lat="45.46775318085155" lon="8.71209364185633"><ele>146.0</ele><time>2026-04-11T16:48:02Z</time></trkpt><trkpt lat="45.467746847745495" lon="8.712428828521027"><ele>146.0</ele><time>2026-04-11T16:48:03Z</time></trkpt><trkpt lat="45.46774152982579" lon="8.71276824982185"><ele>145.0</ele><time>2026-04-11T16:48:04Z</time></trkpt><trkpt lat="45.46773611140014" lon="8.71310906580953"><ele>144.0</ele><time>2026-04-11T16:48:05Z</time></trkpt><trkpt lat="45.467728959079956" lon="8.713449897849193"><ele>145.0</ele><time>2026-04-11T16:48:06Z</time></trkpt><trkpt lat="45.467723555266154" lon="8.713795105508584"><ele>146.0</ele><time>2026-04-11T16:48:07Z</time></trkpt><trkpt lat="45.46771712776531" lon="8.714140284049696"><ele>145.5</ele><time>2026-04-11T16:48:08Z</time></trkpt><trkpt lat="45.46771180622504" lon="8.714488922280296"><ele>145.0</ele><time>2026-04-11T16:48:09Z</time></trkpt><trkpt lat="45.467707301432306" lon="8.714840520523142"><ele>145.0</ele><time>2026-04-11T16:48:10Z</time></trkpt><trkpt lat="45.46770207340858" lon="8.715187888469336"><ele>145.0</ele><time>2026-04-11T16:48:11Z</time></trkpt><trkpt lat="45.4676948841335" lon="8.715534034150966"><ele>145.0</ele><time>2026-04-11T16:48:12Z</time></trkpt><trkpt lat="45.46769022528323" lon="8.71588154170626"><ele>145.0</ele><time>2026-04-11T16:48:13Z</time></trkpt><trkpt lat="45.467686714457365" lon="8.716223903927931"><ele>145.0</ele><time>2026-04-11T16:48:14Z</time></trkpt><trkpt lat="45.46768255898156" lon="8.716569095989094"><ele>145.0</ele><time>2026-04-11T16:48:15Z</time></trkpt><trkpt lat="45.46767542712528" lon="8.71691579503222"><ele>145.0</ele><time>2026-04-11T16:48:16Z</time></trkpt><trkpt lat="45.467669384969554" lon="8.717248471597868"><ele>145.0</ele><time>2026-04-11T16:48:17Z</time></trkpt><trkpt lat="45.46766309499299" lon="8.717584522565724"><ele>145.0</ele><time>2026-04-11T16:48:18Z</time></trkpt><trkpt lat="45.467657160325906" lon="8.717922080639534"><ele>145.0</ele><time>2026-04-11T16:48:19Z</time></trkpt><trkpt lat="45.467652508649124" lon="8.718261413551314"><ele>145.0</ele><time>2026-04-11T16:48:20Z</time></trkpt><trkpt lat="45.467647988901895" lon="8.718593269888524"><ele>145.0</ele><time>2026-04-11T16:48:21Z</time></trkpt><trkpt lat="45.46764148697368" lon="8.718930331881236"><ele>145.0</ele><time>2026-04-11T16:48:22Z</time></trkpt><trkpt lat="45.46763251667032" lon="8.71926372252673"><ele>145.0</ele><time>2026-04-11T16:48:23Z</time></trkpt><trkpt lat="45.46762320656923" lon="8.719597839063457"><ele>145.5</ele><time>2026-04-11T16:48:24Z</time></trkpt><trkpt lat="45.46761660543559" lon="8.719931047631594"><ele>146.0</ele><time>2026-04-11T16:48:25Z</time></trkpt><trkpt lat="45.467610180071624" lon="8.720262302646182"><ele>146.0</ele><time>2026-04-11T16:48:26Z</time></trkpt><trkpt lat="45.467606065191774" lon="8.720596558182736"><ele>146.0</ele><time>2026-04-11T16:48:27Z</time></trkpt><trkpt lat="45.467601291499975" lon="8.72092676878208"><ele>146.5</ele><time>2026-04-11T16:48:28Z</time></trkpt><trkpt lat="45.46759751239448" lon="8.721254862040459"><ele>147.0</ele><time>2026-04-11T16:48:29Z</time></trkpt><trkpt lat="45.467591708617235" lon="8.721582203327255"><ele>147.0</ele><time>2026-04-11T16:48:30Z</time></trkpt><trkpt lat="45.4675865660972" lon="8.7219075292794"><ele>147.0</ele><time>2026-04-11T16:48:31Z</time></trkpt><trkpt lat="45.467580172652504" lon="8.722234879730964"><ele>147.0</ele><time>2026-04-11T16:48:32Z</time></trkpt><trkpt lat="45.46757487812886" lon="8.722561417339048"><ele>147.0</ele><time>2026-04-11T16:48:33Z</time></trkpt><trkpt lat="45.46757024768526" lon="8.722889464200454"><ele>146.5</ele><time>2026-04-11T16:48:34Z</time></trkpt><trkpt lat="45.46756559709012" lon="8.72321793867632"><ele>146.0</ele><time>2026-04-11T16:48:35Z</time></trkpt><trkpt lat="45.46756161252295" lon="8.72354545163367"><ele>145.5</ele><time>2026-04-11T16:48:36Z</time></trkpt><trkpt lat="45.467555253054854" lon="8.723874318318964"><ele>145.0</ele><time>2026-04-11T16:48:37Z</time></trkpt><trkpt lat="45.46754577806494" lon="8.724196915641489"><ele>145.0</ele><time>2026-04-11T16:48:38Z</time></trkpt><trkpt lat="45.467540248737265" lon="8.724528014267879"><ele>145.0</ele><time>2026-04-11T16:48:39Z</time></trkpt><trkpt lat="45.46753654171369" lon="8.724865463218558"><ele>145.0</ele><time>2026-04-11T16:48:40Z</time></trkpt><trkpt lat="45.46753360864718" lon="8.725205374526602"><ele>145.0</ele><time>2026-04-11T16:48:41Z</time></trkpt><trkpt lat="45.46752946280064" lon="8.725548857768011"><ele>144.5</ele><time>2026-04-11T16:48:42Z</time></trkpt><trkpt lat="45.46752424269161" lon="8.725896631194882"><ele>144.0</ele><time>2026-04-11T16:48:43Z</time></trkpt><trkpt lat="45.467516270077844" lon="8.72623786677354"><ele>144.0</ele><time>2026-04-11T16:48:44Z</time></trkpt><trkpt lat="45.46750859875942" lon="8.726582625107612"><ele>144.0</ele><time>2026-04-11T16:48:45Z</time></trkpt><trkpt lat="45.46750234182041" lon="8.726926208230418"><ele>144.0</ele><time>2026-04-11T16:48:46Z</time></trkpt><trkpt lat="45.467496890846355" lon="8.727265258570236"><ele>144.0</ele><time>2026-04-11T16:48:47Z</time></trkpt><trkpt lat="45.467491710932364" lon="8.7276048561678"><ele>144.0</ele><time>2026-04-11T16:48:48Z</time></trkpt><trkpt lat="45.46748459061121" lon="8.727941199829228"><ele>144.0</ele><time>2026-04-11T16:48:49Z</time></trkpt><trkpt lat="45.4674786431298" lon="8.72827262663971"><ele>144.0</ele><time>2026-04-11T16:48:50Z</time></trkpt><trkpt lat="45.46747348737085" lon="8.728605067445063"><ele>144.0</ele><time>2026-04-11T16:48:51Z</time></trkpt><trkpt lat="45.467467935616185" lon="8.7289351705107"><ele>144.0</ele><time>2026-04-11T16:48:52Z</time></trkpt><trkpt lat="45.46746051513277" lon="8.72925833613828"><ele>144.0</ele><time>2026-04-11T16:48:53Z</time></trkpt><trkpt lat="45.467455397308115" lon="8.729585717441909"><ele>144.66666666666666</ele><time>2026-04-11T16:48:54Z</time></trkpt><trkpt lat="45.467450265751324" lon="8.729907684816967"><ele>145.33333333333331</ele><time>2026-04-11T16:48:55Z</time></trkpt><trkpt lat="45.46744674387643" lon="8.730224506278821"><ele>146.0</ele><time>2026-04-11T16:48:56Z</time></trkpt><trkpt lat="45.46744459896118" lon="8.73054274260375"><ele>146.33333333333331</ele><time>2026-04-11T16:48:57Z</time></trkpt><trkpt lat="45.46744264765625" lon="8.730858919033784"><ele>146.66666666666666</ele><time>2026-04-11T16:48:58Z</time></trkpt><trkpt lat="45.4674399739879" lon="8.731176178119608"><ele>147.0</ele><time>2026-04-11T16:48:59Z</time></trkpt><trkpt lat="45.46743663460564" lon="8.731500587225382"><ele>146.0</ele><time>2026-04-11T16:49:00Z</time></trkpt><trkpt lat="45.46742774400201" lon="8.731820982111374"><ele>145.0</ele><time>2026-04-11T16:49:01Z</time></trkpt><trkpt lat="45.46741824354207" lon="8.732145629434068"><ele>145.0</ele><time>2026-04-11T16:49:02Z</time></trkpt><trkpt lat="45.467412281464554" lon="8.73247227301887"><ele>145.0</ele><time>2026-04-11T16:49:03Z</time></trkpt><trkpt lat="45.467408037105514" lon="8.73279989884296"><ele>145.0</ele><time>2026-04-11T16:49:04Z</time></trkpt><trkpt lat="45.46740445443233" lon="8.733129548677256"><ele>145.0</ele><time>2026-04-11T16:49:05Z</time></trkpt><trkpt lat="45.46739904660731" lon="8.73345764057914"><ele>145.5</ele><time>2026-04-11T16:49:06Z</time></trkpt><trkpt lat="45.467391393726125" lon="8.733784114284845"><ele>146.0</ele><time>2026-04-11T16:49:07Z</time></trkpt><trkpt lat="45.46738457575722" lon="8.734109898600288"><ele>146.5</ele><time>2026-04-11T16:49:08Z</time></trkpt><trkpt lat="45.46737844532441" lon="8.734440907656229"><ele>147.0</ele><time>2026-04-11T16:49:09Z</time></trkpt><trkpt lat="45.46737055953613" lon="8.734768676067382"><ele>147.0</ele><time>2026-04-11T16:49:10Z</time></trkpt><trkpt lat="45.46736441692586" lon="8.735096673726831"><ele>147.0</ele><time>2026-04-11T16:49:11Z</time></trkpt><trkpt lat="45.46735950724415" lon="8.735423954508098"><ele>147.0</ele><time>2026-04-11T16:49:12Z</time></trkpt><trkpt lat="45.467354231613754" lon="8.735748419307791"><ele>147.0</ele><time>2026-04-11T16:49:13Z</time></trkpt><trkpt lat="45.467349367185484" lon="8.736077948351358"><ele>146.5</ele><time>2026-04-11T16:49:14Z</time></trkpt><trkpt lat="45.46734329113336" lon="8.736409376055759"><ele>146.0</ele><time>2026-04-11T16:49:15Z</time></trkpt><trkpt lat="45.46733600651074" lon="8.736743018401985"><ele>144.5</ele><time>2026-04-11T16:49:16Z</time></trkpt><trkpt lat="45.467329868205965" lon="8.737077898400988"><ele>143.0</ele><time>2026-04-11T16:49:17Z</time></trkpt><trkpt lat="45.46732608957626" lon="8.737403667363434"><ele>142.5</ele><time>2026-04-11T16:49:18Z</time></trkpt><trkpt lat="45.467322415765594" lon="8.737737566468832"><ele>142.0</ele><time>2026-04-11T16:49:19Z</time></trkpt><trkpt lat="45.467318396935084" lon="8.738067696058433"><ele>142.0</ele><time>2026-04-11T16:49:20Z</time></trkpt><trkpt lat="45.46731313765643" lon="8.738402276073439"><ele>142.0</ele><time>2026-04-11T16:49:21Z</time></trkpt><trkpt lat="45.467306890907935" lon="8.738737968350776"><ele>142.5</ele><time>2026-04-11T16:49:21.999Z</time></trkpt><trkpt lat="45.46729963313307" lon="8.739077460454402"><ele>143.0</ele><time>2026-04-11T16:49:22.999Z</time></trkpt><trkpt lat="45.46729304157245" lon="8.739416456517388"><ele>144.0</ele><time>2026-04-11T16:49:23.999Z</time></trkpt><trkpt lat="45.467288232803206" lon="8.739761401791247"><ele>145.0</ele><time>2026-04-11T16:49:24.999Z</time></trkpt><trkpt lat="45.46728282341524" lon="8.740104581175416"><ele>145.0</ele><time>2026-04-11T16:49:25.999Z</time></trkpt><trkpt lat="45.467277792213636" lon="8.740450817540948"><ele>145.0</ele><time>2026-04-11T16:49:26.999Z</time></trkpt><trkpt lat="45.46727137929561" lon="8.740796914268891"><ele>145.0</ele><time>2026-04-11T16:49:27.999Z</time></trkpt><trkpt lat="45.467264481195556" lon="8.741141417559431"><ele>145.0</ele><time>2026-04-11T16:49:28.999Z</time></trkpt><trkpt lat="45.46726002100852" lon="8.741494910686376"><ele>145.0</ele><time>2026-04-11T16:49:29.999Z</time></trkpt><trkpt lat="45.46725175477693" lon="8.74185007890511"><ele>145.0</ele><time>2026-04-11T16:49:30.999Z</time></trkpt><trkpt lat="45.46724807170749" lon="8.742196689726706"><ele>145.0</ele><time>2026-04-11T16:49:31.999Z</time></trkpt><trkpt lat="45.4672435768307" lon="8.742550577213677"><ele>145.0</ele><time>2026-04-11T16:49:32.999Z</time></trkpt><trkpt lat="45.46723836474621" lon="8.742901457706497"><ele>144.0</ele><time>2026-04-11T16:49:33.999Z</time></trkpt><trkpt lat="45.467231482502335" lon="8.74325669527507"><ele>143.0</ele><time>2026-04-11T16:49:34.999Z</time></trkpt><trkpt lat="45.46722408462343" lon="8.74360575547124"><ele>143.0</ele><time>2026-04-11T16:49:35.999Z</time></trkpt><trkpt lat="45.46722011156548" lon="8.74395778887405"><ele>143.0</ele><time>2026-04-11T16:49:36.999Z</time></trkpt><trkpt lat="45.46721473251962" lon="8.744309871561853"><ele>143.0</ele><time>2026-04-11T16:49:37.999Z</time></trkpt><trkpt lat="45.467208659784234" lon="8.744658374067285"><ele>143.0</ele><time>2026-04-11T16:49:38.999Z</time></trkpt><trkpt lat="45.467204400944" lon="8.745004131432555"><ele>143.0</ele><time>2026-04-11T16:49:39.999Z</time></trkpt><trkpt lat="45.46719723837191" lon="8.745349580216802"><ele>143.0</ele><time>2026-04-11T16:49:40.999Z</time></trkpt><trkpt lat="45.46719275364289" lon="8.745695528644005"><ele>143.0</ele><time>2026-04-11T16:49:41.999Z</time></trkpt><trkpt lat="45.4671889290497" lon="8.746042337780551"><ele>143.0</ele><time>2026-04-11T16:49:42.999Z</time></trkpt><trkpt lat="45.467187256797935" lon="8.746389933285876"><ele>143.5</ele><time>2026-04-11T16:49:43.999Z</time></trkpt><trkpt lat="45.467184216436834" lon="8.746735668034628"><ele>144.0</ele><time>2026-04-11T16:49:44.999Z</time></trkpt><trkpt lat="45.46718267574248" lon="8.74708247378749"><ele>144.5</ele><time>2026-04-11T16:49:45.999Z</time></trkpt><trkpt lat="45.46718008891981" lon="8.74742697340894"><ele>145.0</ele><time>2026-04-11T16:49:46.999Z</time></trkpt><trkpt lat="45.467178785434704" lon="8.747770974537987"><ele>144.0</ele><time>2026-04-11T16:49:47.999Z</time></trkpt><trkpt lat="45.467179129944334" lon="8.748117698121865"><ele>143.0</ele><time>2026-04-11T16:49:48.999Z</time></trkpt><trkpt lat="45.46717550894305" lon="8.748460640610512"><ele>143.0</ele><time>2026-04-11T16:49:49.999Z</time></trkpt><trkpt lat="45.4671747418255" lon="8.748803034117588"><ele>143.0</ele><time>2026-04-11T16:49:51Z</time></trkpt><trkpt lat="45.46717708856427" lon="8.749144218574614"><ele>142.5</ele><time>2026-04-11T16:49:52Z</time></trkpt><trkpt lat="45.46717957028199" lon="8.749483895084532"><ele>142.0</ele><time>2026-04-11T16:49:53Z</time></trkpt><trkpt lat="45.46718296887527" lon="8.749824614149661"><ele>142.0</ele><time>2026-04-11T16:49:54Z</time></trkpt><trkpt lat="45.46718540149279" lon="8.750167005525451"><ele>142.0</ele><time>2026-04-11T16:49:55Z</time></trkpt><trkpt lat="45.46718945388236" lon="8.75050983935613"><ele>142.0</ele><time>2026-04-11T16:49:56Z</time></trkpt><trkpt lat="45.46719225836587" lon="8.750850195909935"><ele>142.0</ele><time>2026-04-11T16:49:57Z</time></trkpt><trkpt lat="45.46719601553833" lon="8.751194814927125"><ele>142.0</ele><time>2026-04-11T16:49:58Z</time></trkpt><trkpt lat="45.467198302564135" lon="8.751535104802056"><ele>142.0</ele><time>2026-04-11T16:49:59Z</time></trkpt><trkpt lat="45.46720180759171" lon="8.75187646441947"><ele>142.0</ele><time>2026-04-11T16:50:00Z</time></trkpt><trkpt lat="45.46720577547716" lon="8.752221314307345"><ele>142.0</ele><time>2026-04-11T16:50:01Z</time></trkpt><trkpt lat="45.467210783640816" lon="8.752566549778228"><ele>141.5</ele><time>2026-04-11T16:50:02Z</time></trkpt><trkpt lat="45.46721631054117" lon="8.752909573356662"><ele>141.0</ele><time>2026-04-11T16:50:03Z</time></trkpt><trkpt lat="45.467222905304915" lon="8.753248344477186"><ele>140.5</ele><time>2026-04-11T16:50:04Z</time></trkpt><trkpt lat="45.46723175402736" lon="8.75358788712632"><ele>140.0</ele><time>2026-04-11T16:50:05Z</time></trkpt><trkpt lat="45.46724304175766" lon="8.75393054754243"><ele>140.0</ele><time>2026-04-11T16:50:06Z</time></trkpt><trkpt lat="45.46724665201626" lon="8.75426152376842"><ele>140.0</ele><time>2026-04-11T16:50:07Z</time></trkpt><trkpt lat="45.467253054606985" lon="8.754592716415381"><ele>139.5</ele><time>2026-04-11T16:50:08Z</time></trkpt><trkpt lat="45.4672598920444" lon="8.754915396013093"><ele>139.0</ele><time>2026-04-11T16:50:09Z</time></trkpt><trkpt lat="45.46726612423259" lon="8.755241202527108"><ele>140.0</ele><time>2026-04-11T16:50:10Z</time></trkpt><trkpt lat="45.46727322120619" lon="8.755568067921077"><ele>141.0</ele><time>2026-04-11T16:50:11Z</time></trkpt><trkpt lat="45.467279374612836" lon="8.75589044007814"><ele>141.5</ele><time>2026-04-11T16:50:12Z</time></trkpt><trkpt lat="45.467288962327096" lon="8.756217233249721"><ele>142.0</ele><time>2026-04-11T16:50:13Z</time></trkpt><trkpt lat="45.46729841463469" lon="8.756543004742376"><ele>142.0</ele><time>2026-04-11T16:50:14Z</time></trkpt><trkpt lat="45.46730691599299" lon="8.75686565965948"><ele>142.0</ele><time>2026-04-11T16:50:15Z</time></trkpt><trkpt lat="45.4673160791402" lon="8.75718960338803"><ele>141.0</ele><time>2026-04-11T16:50:16Z</time></trkpt><trkpt lat="45.46732562958429" lon="8.757516744369074"><ele>140.0</ele><time>2026-04-11T16:50:17Z</time></trkpt><trkpt lat="45.4673368693095" lon="8.757839768563327"><ele>139.5</ele><time>2026-04-11T16:50:18Z</time></trkpt><trkpt lat="45.46734891341939" lon="8.75816524613446"><ele>139.0</ele><time>2026-04-11T16:50:19Z</time></trkpt><trkpt lat="45.467362676475744" lon="8.758493684479278"><ele>139.0</ele><time>2026-04-11T16:50:20Z</time></trkpt><trkpt lat="45.467376771580376" lon="8.758822953758376"><ele>139.0</ele><time>2026-04-11T16:50:21Z</time></trkpt><trkpt lat="45.467390154078174" lon="8.759151549047512"><ele>139.0</ele><time>2026-04-11T16:50:22Z</time></trkpt><trkpt lat="45.46740373047483" lon="8.75948423843509"><ele>139.0</ele><time>2026-04-11T16:50:23Z</time></trkpt><trkpt lat="45.46741733231538" lon="8.759816237228751"><ele>139.0</ele><time>2026-04-11T16:50:24Z</time></trkpt><trkpt lat="45.46743154292059" lon="8.760146521296974"><ele>139.0</ele><time>2026-04-11T16:50:25Z</time></trkpt><trkpt lat="45.467447716833455" lon="8.760480944226224"><ele>139.0</ele><time>2026-04-11T16:50:26Z</time></trkpt><trkpt lat="45.46746164138566" lon="8.760810660534252"><ele>139.0</ele><time>2026-04-11T16:50:27Z</time></trkpt><trkpt lat="45.467477380654614" lon="8.761142597717136"><ele>138.5</ele><time>2026-04-11T16:50:28Z</time></trkpt><trkpt lat="45.46749085999792" lon="8.761472434227336"><ele>138.0</ele><time>2026-04-11T16:50:29Z</time></trkpt><trkpt lat="45.4675039514609" lon="8.761802100728307"><ele>137.5</ele><time>2026-04-11T16:50:30Z</time></trkpt><trkpt lat="45.46752065690071" lon="8.76213608892198"><ele>137.0</ele><time>2026-04-11T16:50:31Z</time></trkpt><trkpt lat="45.46753782600156" lon="8.762472282876454"><ele>136.5</ele><time>2026-04-11T16:50:32Z</time></trkpt><trkpt lat="45.46755476509819" lon="8.762805219710533"><ele>136.0</ele><time>2026-04-11T16:50:33Z</time></trkpt><trkpt lat="45.467571903590205" lon="8.763133005502048"><ele>136.0</ele><time>2026-04-11T16:50:34Z</time></trkpt><trkpt lat="45.46759013955018" lon="8.763466208133858"><ele>136.0</ele><time>2026-04-11T16:50:35Z</time></trkpt><trkpt lat="45.46760915158182" lon="8.763797075297079"><ele>135.5</ele><time>2026-04-11T16:50:36Z</time></trkpt><trkpt lat="45.4676268664127" lon="8.76412813731989"><ele>135.0</ele><time>2026-04-11T16:50:37Z</time></trkpt><trkpt lat="45.46764573640123" lon="8.764463878137452"><ele>136.0</ele><time>2026-04-11T16:50:38Z</time></trkpt><trkpt lat="45.46766564929524" lon="8.76479929158497"><ele>137.0</ele><time>2026-04-11T16:50:39Z</time></trkpt><trkpt lat="45.46768548491517" lon="8.765134483132687"><ele>137.5</ele><time>2026-04-11T16:50:40Z</time></trkpt><trkpt lat="45.467704297443596" lon="8.765469986052336"><ele>138.0</ele><time>2026-04-11T16:50:41Z</time></trkpt><trkpt lat="45.4677305465389" lon="8.765809813260129"><ele>134.5</ele><time>2026-04-11T16:50:42Z</time></trkpt><trkpt lat="45.46774874907193" lon="8.766149085434444"><ele>131.0</ele><time>2026-04-11T16:50:43Z</time></trkpt><trkpt lat="45.467771112754356" lon="8.766494406606464"><ele>131.0</ele><time>2026-04-11T16:50:44Z</time></trkpt><trkpt lat="45.46779433244899" lon="8.766834867387855"><ele>131.0</ele><time>2026-04-11T16:50:45Z</time></trkpt><trkpt lat="45.46781728692328" lon="8.767181164983231"><ele>132.5</ele><time>2026-04-11T16:50:46Z</time></trkpt><trkpt lat="45.467839819828534" lon="8.767516696639776"><ele>134.0</ele><time>2026-04-11T16:50:47Z</time></trkpt><trkpt lat="45.46786461233998" lon="8.767850142909072"><ele>134.5</ele><time>2026-04-11T16:50:48Z</time></trkpt><trkpt lat="45.467888094071256" lon="8.768185330491988"><ele>135.0</ele><time>2026-04-11T16:50:49Z</time></trkpt><trkpt lat="45.46791312316541" lon="8.768518563225578"><ele>133.0</ele><time>2026-04-11T16:50:50Z</time></trkpt><trkpt lat="45.46793624143852" lon="8.768853179320624"><ele>131.0</ele><time>2026-04-11T16:50:51Z</time></trkpt><trkpt lat="45.46796129870204" lon="8.76919161072629"><ele>128.5</ele><time>2026-04-11T16:50:52Z</time></trkpt><trkpt lat="45.46798520275821" lon="8.769526650028107"><ele>126.0</ele><time>2026-04-11T16:50:53Z</time></trkpt><trkpt lat="45.46801060773075" lon="8.769850910980788"><ele>126.0</ele><time>2026-04-11T16:50:54Z</time></trkpt><trkpt lat="45.468035303138" lon="8.770179055826016"><ele>126.0</ele><time>2026-04-11T16:50:55Z</time></trkpt><trkpt lat="45.468059805158525" lon="8.77050930180253"><ele>124.0</ele><time>2026-04-11T16:50:56Z</time></trkpt><trkpt lat="45.468089309162764" lon="8.770836533442095"><ele>122.0</ele><time>2026-04-11T16:50:57Z</time></trkpt><trkpt lat="45.468116810342586" lon="8.771164615834383"><ele>121.5</ele><time>2026-04-11T16:50:58Z</time></trkpt><trkpt lat="45.46814555151879" lon="8.771497585728971"><ele>121.0</ele><time>2026-04-11T16:50:59Z</time></trkpt><trkpt lat="45.46817395104613" lon="8.771837214268126"><ele>121.5</ele><time>2026-04-11T16:51:00Z</time></trkpt><trkpt lat="45.468201754106914" lon="8.772171532944991"><ele>122.0</ele><time>2026-04-11T16:51:01Z</time></trkpt><trkpt lat="45.46823157652561" lon="8.772513218431985"><ele>122.0</ele><time>2026-04-11T16:51:02Z</time></trkpt><trkpt lat="45.46826508121525" lon="8.772861194305822"><ele>122.0</ele><time>2026-04-11T16:51:03Z</time></trkpt><trkpt lat="45.46829567261102" lon="8.773208333187222"><ele>120.5</ele><time>2026-04-11T16:51:04Z</time></trkpt><trkpt lat="45.46832793022681" lon="8.773555042905338"><ele>119.0</ele><time>2026-04-11T16:51:05Z</time></trkpt><trkpt lat="45.46836070979071" lon="8.773901461167178"><ele>119.0</ele><time>2026-04-11T16:51:06Z</time></trkpt><trkpt lat="45.468393815293254" lon="8.77425583564694"><ele>119.0</ele><time>2026-04-11T16:51:07Z</time></trkpt><trkpt lat="45.468427747889045" lon="8.774603775899859"><ele>119.0</ele><time>2026-04-11T16:51:08Z</time></trkpt><trkpt lat="45.46846225282762" lon="8.774951132739012"><ele>119.0</ele><time>2026-04-11T16:51:09Z</time></trkpt><trkpt lat="45.468497775157594" lon="8.77529708692013"><ele>118.5</ele><time>2026-04-11T16:51:10Z</time></trkpt><trkpt lat="45.46853306001676" lon="8.775641220430323"><ele>118.0</ele><time>2026-04-11T16:51:11Z</time></trkpt><trkpt lat="45.46856744725013" lon="8.775983949234725"><ele>118.0</ele><time>2026-04-11T16:51:12Z</time></trkpt><trkpt lat="45.46860141466408" lon="8.776324321286538"><ele>118.0</ele><time>2026-04-11T16:51:13Z</time></trkpt><trkpt lat="45.46863783518361" lon="8.77666648467484"><ele>119.0</ele><time>2026-04-11T16:51:14Z</time></trkpt><trkpt lat="45.468672610694185" lon="8.7770027483676"><ele>120.0</ele><time>2026-04-11T16:51:15Z</time></trkpt><trkpt lat="45.468709263192565" lon="8.777341011531073"><ele>120.0</ele><time>2026-04-11T16:51:16Z</time></trkpt><trkpt lat="45.46874066938726" lon="8.777676991949916"><ele>120.0</ele><time>2026-04-11T16:51:17Z</time></trkpt><trkpt lat="45.46877444875997" lon="8.778016643761678"><ele>118.5</ele><time>2026-04-11T16:51:18Z</time></trkpt><trkpt lat="45.46880559240564" lon="8.778354817820262"><ele>117.0</ele><time>2026-04-11T16:51:19Z</time></trkpt><trkpt lat="45.468837323527225" lon="8.778696192673706"><ele>117.0</ele><time>2026-04-11T16:51:20Z</time></trkpt><trkpt lat="45.46886801203238" lon="8.779031924240886"><ele>117.0</ele><time>2026-04-11T16:51:21Z</time></trkpt><trkpt lat="45.46890154528032" lon="8.779375100641118"><ele>117.0</ele><time>2026-04-11T16:51:22Z</time></trkpt><trkpt lat="45.46893385331817" lon="8.779716181465668"><ele>117.0</ele><time>2026-04-11T16:51:23Z</time></trkpt><trkpt lat="45.46896136359999" lon="8.780060020802049"><ele>117.0</ele><time>2026-04-11T16:51:24Z</time></trkpt><trkpt lat="45.46898754770403" lon="8.780401546345379"><ele>117.0</ele><time>2026-04-11T16:51:25Z</time></trkpt><trkpt lat="45.46901357915212" lon="8.780746306163413"><ele>116.0</ele><time>2026-04-11T16:51:26Z</time></trkpt><trkpt lat="45.46903884923655" lon="8.78109048334403"><ele>115.0</ele><time>2026-04-11T16:51:27Z</time></trkpt><trkpt lat="45.46906475040975" lon="8.781430293859335"><ele>115.0</ele><time>2026-04-11T16:51:27.999Z</time></trkpt><trkpt lat="45.46909205003623" lon="8.781773588374447"><ele>115.0</ele><time>2026-04-11T16:51:28.999Z</time></trkpt><trkpt lat="45.469116722642696" lon="8.78211325135182"><ele>115.5</ele><time>2026-04-11T16:51:29.999Z</time></trkpt><trkpt lat="45.46914024940245" lon="8.782449774536834"><ele>116.0</ele><time>2026-04-11T16:51:30.999Z</time></trkpt><trkpt lat="45.46916432989142" lon="8.782790059132944"><ele>117.5</ele><time>2026-04-11T16:51:31.999Z</time></trkpt><trkpt lat="45.469188200001746" lon="8.783129040512835"><ele>119.0</ele><time>2026-04-11T16:51:32.999Z</time></trkpt><trkpt lat="45.46921076430059" lon="8.783466340177469"><ele>119.0</ele><time>2026-04-11T16:51:33.999Z</time></trkpt><trkpt lat="45.46923307366438" lon="8.783805192038143"><ele>119.0</ele><time>2026-04-11T16:51:34.999Z</time></trkpt><trkpt lat="45.46925185048968" lon="8.784141417686735"><ele>119.5</ele><time>2026-04-11T16:51:35.999Z</time></trkpt><trkpt lat="45.46927101737864" lon="8.784478615091551"><ele>120.0</ele><time>2026-04-11T16:51:36.999Z</time></trkpt><trkpt lat="45.469289169269324" lon="8.784823605454063"><ele>120.0</ele><time>2026-04-11T16:51:37.999Z</time></trkpt><trkpt lat="45.46931019083825" lon="8.785169047783048"><ele>120.0</ele><time>2026-04-11T16:51:38.999Z</time></trkpt><trkpt lat="45.469328164884594" lon="8.785514599773764"><ele>120.5</ele><time>2026-04-11T16:51:39.999Z</time></trkpt><trkpt lat="45.46934724049745" lon="8.785863629730308"><ele>121.0</ele><time>2026-04-11T16:51:40.999Z</time></trkpt><trkpt lat="45.46936502078244" lon="8.786214154303593"><ele>121.5</ele><time>2026-04-11T16:51:41.999Z</time></trkpt><trkpt lat="45.469382347800384" lon="8.786565401004085"><ele>122.0</ele><time>2026-04-11T16:51:42.999Z</time></trkpt><trkpt lat="45.46939960772027" lon="8.786916744327133"><ele>121.0</ele><time>2026-04-11T16:51:43.999Z</time></trkpt><trkpt lat="45.46941648478773" lon="8.787267908847184"><ele>120.0</ele><time>2026-04-11T16:51:44.999Z</time></trkpt><trkpt lat="45.46943158539519" lon="8.787612428502973"><ele>118.5</ele><time>2026-04-11T16:51:45.999Z</time></trkpt><trkpt lat="45.46944689389067" lon="8.787949835585701"><ele>117.0</ele><time>2026-04-11T16:51:46.999Z</time></trkpt><trkpt lat="45.46945959734582" lon="8.788283399257109"><ele>116.0</ele><time>2026-04-11T16:51:47.999Z</time></trkpt><trkpt lat="45.46946979888398" lon="8.788617001662704"><ele>115.0</ele><time>2026-04-11T16:51:48.999Z</time></trkpt><trkpt lat="45.4694821759864" lon="8.788955254936953"><ele>115.0</ele><time>2026-04-11T16:51:49.999Z</time></trkpt><trkpt lat="45.46949303805878" lon="8.789288896088378"><ele>115.0</ele><time>2026-04-11T16:51:50.999Z</time></trkpt><trkpt lat="45.469505408646484" lon="8.789625555200324"><ele>113.5</ele><time>2026-04-11T16:51:51.999Z</time></trkpt><trkpt lat="45.46951609897914" lon="8.789962115374514"><ele>112.0</ele><time>2026-04-11T16:51:52.999Z</time></trkpt><trkpt lat="45.46952414405961" lon="8.790301627119765"><ele>112.0</ele><time>2026-04-11T16:51:53.999Z</time></trkpt><trkpt lat="45.469532960288234" lon="8.790647768285186"><ele>112.0</ele><time>2026-04-11T16:51:54.999Z</time></trkpt><trkpt lat="45.46954241842054" lon="8.79099782313203"><ele>112.5</ele><time>2026-04-11T16:51:56Z</time></trkpt><trkpt lat="45.46955043660935" lon="8.791344568374138"><ele>113.0</ele><time>2026-04-11T16:51:57Z</time></trkpt><trkpt lat="45.469557911568195" lon="8.791688764781457"><ele>113.5</ele><time>2026-04-11T16:51:58Z</time></trkpt><trkpt lat="45.46956750932369" lon="8.792036050712843"><ele>114.0</ele><time>2026-04-11T16:51:59Z</time></trkpt><trkpt lat="45.46957488526251" lon="8.792380321546364"><ele>115.5</ele><time>2026-04-11T16:52:00Z</time></trkpt><trkpt lat="45.469584363565055" lon="8.7927162503886"><ele>117.0</ele><time>2026-04-11T16:52:01Z</time></trkpt><trkpt lat="45.46959503998263" lon="8.793052923035019"><ele>117.0</ele><time>2026-04-11T16:52:02Z</time></trkpt><trkpt lat="45.469604944510856" lon="8.79339058464439"><ele>117.0</ele><time>2026-04-11T16:52:03Z</time></trkpt><trkpt lat="45.46961293874341" lon="8.793725202859262"><ele>117.0</ele><time>2026-04-11T16:52:04Z</time></trkpt><trkpt lat="45.4696199532227" lon="8.794054932045372"><ele>117.0</ele><time>2026-04-11T16:52:05Z</time></trkpt><trkpt lat="45.46962968924615" lon="8.794390411567743"><ele>117.5</ele><time>2026-04-11T16:52:06Z</time></trkpt><trkpt lat="45.469638701788696" lon="8.794719616420622"><ele>118.0</ele><time>2026-04-11T16:52:07Z</time></trkpt><trkpt lat="45.469653892450474" lon="8.795056972773635"><ele>119.0</ele><time>2026-04-11T16:52:08Z</time></trkpt><trkpt lat="45.469657801584" lon="8.795388612742604"><ele>120.0</ele><time>2026-04-11T16:52:09Z</time></trkpt><trkpt lat="45.46966872229552" lon="8.7957208041034"><ele>121.0</ele><time>2026-04-11T16:52:10Z</time></trkpt><trkpt lat="45.46967834056629" lon="8.796050676612342"><ele>122.0</ele><time>2026-04-11T16:52:11Z</time></trkpt><trkpt lat="45.46968865318273" lon="8.79638256361636"><ele>122.0</ele><time>2026-04-11T16:52:12Z</time></trkpt><trkpt lat="45.46969902982862" lon="8.796709896723891"><ele>122.0</ele><time>2026-04-11T16:52:13Z</time></trkpt><trkpt lat="45.46971086955985" lon="8.797038871913397"><ele>122.0</ele><time>2026-04-11T16:52:14Z</time></trkpt><trkpt lat="45.46971318655554" lon="8.797361428635975"><ele>122.0</ele><time>2026-04-11T16:52:15Z</time></trkpt><trkpt lat="45.469723369010666" lon="8.797692176864253"><ele>122.0</ele><time>2026-04-11T16:52:16Z</time></trkpt><trkpt lat="45.46973301639061" lon="8.79802291100305"><ele>122.0</ele><time>2026-04-11T16:52:17Z</time></trkpt><trkpt lat="45.46974132973548" lon="8.798348620617691"><ele>122.0</ele><time>2026-04-11T16:52:18Z</time></trkpt><trkpt lat="45.46975124199077" lon="8.798676117691112"><ele>122.0</ele><time>2026-04-11T16:52:19Z</time></trkpt><trkpt lat="45.46976012739596" lon="8.799002658248973"><ele>122.0</ele><time>2026-04-11T16:52:20Z</time></trkpt><trkpt lat="45.46976736872084" lon="8.799329119385394"><ele>122.0</ele><time>2026-04-11T16:52:21Z</time></trkpt><trkpt lat="45.469777132173945" lon="8.799657298629183"><ele>120.5</ele><time>2026-04-11T16:52:22Z</time></trkpt><trkpt lat="45.46978611776581" lon="8.799984363322542"><ele>119.0</ele><time>2026-04-11T16:52:23Z</time></trkpt><trkpt lat="45.46979571826831" lon="8.800314141568315"><ele>118.5</ele><time>2026-04-11T16:52:24Z</time></trkpt><trkpt lat="45.46980254829639" lon="8.800641478071677"><ele>118.0</ele><time>2026-04-11T16:52:25Z</time></trkpt><trkpt lat="45.46981047934574" lon="8.800971990228556"><ele>120.0</ele><time>2026-04-11T16:52:26Z</time></trkpt><trkpt lat="45.469818588104914" lon="8.801301449129749"><ele>122.0</ele><time>2026-04-11T16:52:27Z</time></trkpt><trkpt lat="45.469828081962575" lon="8.801633681785248"><ele>122.0</ele><time>2026-04-11T16:52:28Z</time></trkpt><trkpt lat="45.46983866874678" lon="8.801963634842789"><ele>122.0</ele><time>2026-04-11T16:52:29Z</time></trkpt><trkpt lat="45.46984884067728" lon="8.802294054899242"><ele>122.0</ele><time>2026-04-11T16:52:30Z</time></trkpt><trkpt lat="45.46986115431254" lon="8.802625799488546"><ele>122.0</ele><time>2026-04-11T16:52:31Z</time></trkpt><trkpt lat="45.46987039344698" lon="8.802956983517557"><ele>121.5</ele><time>2026-04-11T16:52:32Z</time></trkpt><trkpt lat="45.46988128584509" lon="8.803284701218594"><ele>121.0</ele><time>2026-04-11T16:52:33Z</time></trkpt><trkpt lat="45.469890160384104" lon="8.80361009734575"><ele>118.5</ele><time>2026-04-11T16:52:34Z</time></trkpt><trkpt lat="45.46990705925915" lon="8.80394168903891"><ele>116.0</ele><time>2026-04-11T16:52:35Z</time></trkpt><trkpt lat="45.469924230741015" lon="8.80427168133032"><ele>114.5</ele><time>2026-04-11T16:52:36Z</time></trkpt><trkpt lat="45.46993780254466" lon="8.804599434587494"><ele>113.0</ele><time>2026-04-11T16:52:37Z</time></trkpt><trkpt lat="45.46995087459122" lon="8.804927041446907"><ele>113.5</ele><time>2026-04-11T16:52:38Z</time></trkpt><trkpt lat="45.46996811786724" lon="8.805257799437463"><ele>114.0</ele><time>2026-04-11T16:52:39Z</time></trkpt><trkpt lat="45.46998998377085" lon="8.805591190359568"><ele>114.0</ele><time>2026-04-11T16:52:40Z</time></trkpt><trkpt lat="45.47001297312115" lon="8.805923690768136"><ele>114.0</ele><time>2026-04-11T16:52:41Z</time></trkpt><trkpt lat="45.470031879462766" lon="8.806254157816813"><ele>114.0</ele><time>2026-04-11T16:52:42Z</time></trkpt><trkpt lat="45.4700544914588" lon="8.806586963427334"><ele>114.0</ele><time>2026-04-11T16:52:43Z</time></trkpt><trkpt lat="45.47007677585638" lon="8.806918369518657"><ele>114.5</ele><time>2026-04-11T16:52:44Z</time></trkpt><trkpt lat="45.47010790563801" lon="8.807250663561025"><ele>115.0</ele><time>2026-04-11T16:52:45Z</time></trkpt><trkpt lat="45.4701410435932" lon="8.807583496522138"><ele>116.0</ele><time>2026-04-11T16:52:46Z</time></trkpt><trkpt lat="45.470171937205485" lon="8.807915767684813"><ele>117.0</ele><time>2026-04-11T16:52:47Z</time></trkpt><trkpt lat="45.470203204120935" lon="8.808246065657867"><ele>115.5</ele><time>2026-04-11T16:52:48Z</time></trkpt><trkpt lat="45.470238839399514" lon="8.808581774734163"><ele>114.0</ele><time>2026-04-11T16:52:49Z</time></trkpt><trkpt lat="45.470278842422516" lon="8.808919907413323"><ele>114.0</ele><time>2026-04-11T16:52:50Z</time></trkpt><trkpt lat="45.470317524825866" lon="8.809260372601347"><ele>114.0</ele><time>2026-04-11T16:52:51Z</time></trkpt><trkpt lat="45.47036064342653" lon="8.809603287519911"><ele>114.0</ele><time>2026-04-11T16:52:52Z</time></trkpt><trkpt lat="45.47040729499223" lon="8.809945810848768"><ele>114.0</ele><time>2026-04-11T16:52:53Z</time></trkpt><trkpt lat="45.470454449053534" lon="8.81028999840444"><ele>114.0</ele><time>2026-04-11T16:52:54Z</time></trkpt><trkpt lat="45.470504537373166" lon="8.810633808242693"><ele>114.0</ele><time>2026-04-11T16:52:55Z</time></trkpt><trkpt lat="45.47055459059999" lon="8.810977302266096"><ele>115.5</ele><time>2026-04-11T16:52:56Z</time></trkpt><trkpt lat="45.470610492910616" lon="8.811319141471959"><ele>117.0</ele><time>2026-04-11T16:52:57Z</time></trkpt><trkpt lat="45.4706662929908" lon="8.811662292030059"><ele>118.5</ele><time>2026-04-11T16:52:58Z</time></trkpt><trkpt lat="45.47072245233599" lon="8.812002147309835"><ele>120.0</ele><time>2026-04-11T16:52:59Z</time></trkpt><trkpt lat="45.4707840363723" lon="8.812341683409853"><ele>121.0</ele><time>2026-04-11T16:53:00Z</time></trkpt><trkpt lat="45.47084525313641" lon="8.812680368024566"><ele>122.0</ele><time>2026-04-11T16:53:01Z</time></trkpt><trkpt lat="45.4709061242762" lon="8.813017301434463"><ele>122.0</ele><time>2026-04-11T16:53:02Z</time></trkpt><trkpt lat="45.47097038337045" lon="8.813350605456955"><ele>122.0</ele><time>2026-04-11T16:53:03Z</time></trkpt><trkpt lat="45.47103553255218" lon="8.813683116092943"><ele>121.5</ele><time>2026-04-11T16:53:04Z</time></trkpt><trkpt lat="45.47110439913135" lon="8.814013581766744"><ele>121.0</ele><time>2026-04-11T16:53:05Z</time></trkpt><trkpt lat="45.4711751119353" lon="8.814343292154362"><ele>121.0</ele><time>2026-04-11T16:53:06Z</time></trkpt><trkpt lat="45.47124882725186" lon="8.814671117567642"><ele>121.0</ele><time>2026-04-11T16:53:07Z</time></trkpt><trkpt lat="45.471320301538576" lon="8.814996255499928"><ele>122.0</ele><time>2026-04-11T16:53:08Z</time></trkpt><trkpt lat="45.471391184057694" lon="8.815316391337214"><ele>123.0</ele><time>2026-04-11T16:53:09Z</time></trkpt><trkpt lat="45.47147061584383" lon="8.815641023421435"><ele>123.0</ele><time>2026-04-11T16:53:10Z</time></trkpt><trkpt lat="45.47154751830598" lon="8.815959797602828"><ele>123.0</ele><time>2026-04-11T16:53:11Z</time></trkpt><trkpt lat="45.47162819175067" lon="8.816276107277385"><ele>123.0</ele><time>2026-04-11T16:53:12Z</time></trkpt><trkpt lat="45.47171073122797" lon="8.816593901172013"><ele>123.0</ele><time>2026-04-11T16:53:13Z</time></trkpt><trkpt lat="45.471793202657885" lon="8.816909791552192"><ele>122.5</ele><time>2026-04-11T16:53:14Z</time></trkpt><trkpt lat="45.471879549585026" lon="8.817224787879569"><ele>122.0</ele><time>2026-04-11T16:53:15Z</time></trkpt><trkpt lat="45.471963136446725" lon="8.817537026282793"><ele>122.0</ele><time>2026-04-11T16:53:16Z</time></trkpt><trkpt lat="45.47204902253503" lon="8.81784668515857"><ele>122.0</ele><time>2026-04-11T16:53:17Z</time></trkpt><trkpt lat="45.47214262828285" lon="8.818160102563096"><ele>122.5</ele><time>2026-04-11T16:53:18Z</time></trkpt><trkpt lat="45.47223187332465" lon="8.818470564840458"><ele>123.0</ele><time>2026-04-11T16:53:19Z</time></trkpt><trkpt lat="45.47232235102975" lon="8.818781376718452"><ele>123.0</ele><time>2026-04-11T16:53:20Z</time></trkpt><trkpt lat="45.472416896862896" lon="8.819085797691718"><ele>123.0</ele><time>2026-04-11T16:53:21Z</time></trkpt><trkpt lat="45.4725142363065" lon="8.819390747254714"><ele>122.5</ele><time>2026-04-11T16:53:22Z</time></trkpt><trkpt lat="45.47261380952435" lon="8.819694120120003"><ele>122.0</ele><time>2026-04-11T16:53:23Z</time></trkpt><trkpt lat="45.47271250236271" lon="8.819997305503446"><ele>122.5</ele><time>2026-04-11T16:53:24Z</time></trkpt><trkpt lat="45.47281354457869" lon="8.820298976320577"><ele>123.0</ele><time>2026-04-11T16:53:25Z</time></trkpt><trkpt lat="45.47291561296123" lon="8.820601534786395"><ele>123.0</ele><time>2026-04-11T16:53:26Z</time></trkpt><trkpt lat="45.47301954635406" lon="8.8209003917515"><ele>123.0</ele><time>2026-04-11T16:53:27Z</time></trkpt><trkpt lat="45.47312601269444" lon="8.821196985246585"><ele>123.5</ele><time>2026-04-11T16:53:28Z</time></trkpt><trkpt lat="45.47323250779435" lon="8.82149075246354"><ele>124.0</ele><time>2026-04-11T16:53:29Z</time></trkpt><trkpt lat="45.47334245106082" lon="8.821785298326564"><ele>124.5</ele><time>2026-04-11T16:53:30Z</time></trkpt><trkpt lat="45.4734537155044" lon="8.822082478295766"><ele>125.0</ele><time>2026-04-11T16:53:31Z</time></trkpt><trkpt lat="45.47356652918713" lon="8.822380479924655"><ele>127.0</ele><time>2026-04-11T16:53:32Z</time></trkpt><trkpt lat="45.47368389399858" lon="8.822678044925947"><ele>129.0</ele><time>2026-04-11T16:53:33Z</time></trkpt><trkpt lat="45.47380276736013" lon="8.822976524886275"><ele>129.5</ele><time>2026-04-11T16:53:33.999Z</time></trkpt><trkpt lat="45.47392354046126" lon="8.82327445675014"><ele>130.0</ele><time>2026-04-11T16:53:34.999Z</time></trkpt><trkpt lat="45.47404730946288" lon="8.82357295738546"><ele>130.0</ele><time>2026-04-11T16:53:35.999Z</time></trkpt><trkpt lat="45.47416888517023" lon="8.823867271740555"><ele>130.0</ele><time>2026-04-11T16:53:36.999Z</time></trkpt><trkpt lat="45.474295035365984" lon="8.824164487833093"><ele>133.0</ele><time>2026-04-11T16:53:37.999Z</time></trkpt><trkpt lat="45.47441732591979" lon="8.8244572440198"><ele>136.0</ele><time>2026-04-11T16:53:38.999Z</time></trkpt><trkpt lat="45.47453993247092" lon="8.82475134892687"><ele>136.5</ele><time>2026-04-11T16:53:39.999Z</time></trkpt><trkpt lat="45.47466855417907" lon="8.825042987663174"><ele>137.0</ele><time>2026-04-11T16:53:40.999Z</time></trkpt><trkpt lat="45.474795954003916" lon="8.825335272259883"><ele>137.0</ele><time>2026-04-11T16:53:41.999Z</time></trkpt><trkpt lat="45.474922068315145" lon="8.825627823781655"><ele>137.0</ele><time>2026-04-11T16:53:42.999Z</time></trkpt><trkpt lat="45.475047774148" lon="8.82591933526394"><ele>137.5</ele><time>2026-04-11T16:53:43.999Z</time></trkpt><trkpt lat="45.475176214045675" lon="8.826219101175377"><ele>138.0</ele><time>2026-04-11T16:53:45.018Z</time></trkpt><trkpt lat="45.47530053233114" lon="8.826515559118562"><ele>138.0</ele><time>2026-04-11T16:53:46.02Z</time></trkpt><trkpt lat="45.4754242578208" lon="8.826810029634009"><ele>138.0</ele><time>2026-04-11T16:53:47.021Z</time></trkpt><trkpt lat="45.475547312542936" lon="8.827102053938326"><ele>139.0</ele><time>2026-04-11T16:53:48.014Z</time></trkpt><trkpt lat="45.47567361124131" lon="8.827395983533046"><ele>140.0</ele><time>2026-04-11T16:53:49.017Z</time></trkpt><trkpt lat="45.47686851587657" lon="8.830060148619888"><ele>139.5</ele><time>2026-04-11T16:53:58Z</time></trkpt><trkpt lat="45.476994597610044" lon="8.830347041723172"><ele>139.0</ele><time>2026-04-11T16:53:59Z</time></trkpt><trkpt lat="45.47713302756026" lon="8.830630084823934"><ele>139.0</ele><time>2026-04-11T16:54:00Z</time></trkpt><trkpt lat="45.47725455599006" lon="8.830902798328566"><ele>139.0</ele><time>2026-04-11T16:54:01Z</time></trkpt><trkpt lat="45.477376233834754" lon="8.831182409732664"><ele>138.5</ele><time>2026-04-11T16:54:02Z</time></trkpt><trkpt lat="45.477496798578" lon="8.831466138423277"><ele>138.0</ele><time>2026-04-11T16:54:03Z</time></trkpt><trkpt lat="45.47761436592884" lon="8.831749934289489"><ele>138.5</ele><time>2026-04-11T16:54:04Z</time></trkpt><trkpt lat="45.47773362050685" lon="8.83203562768527"><ele>139.0</ele><time>2026-04-11T16:54:05Z</time></trkpt><trkpt lat="45.47785459924806" lon="8.832318159884409"><ele>139.5</ele><time>2026-04-11T16:54:06Z</time></trkpt><trkpt lat="45.47797343392652" lon="8.832600555678443"><ele>140.0</ele><time>2026-04-11T16:54:07Z</time></trkpt><trkpt lat="45.4780916076119" lon="8.832881402805294"><ele>140.0</ele><time>2026-04-11T16:54:08Z</time></trkpt><trkpt lat="45.478211367586944" lon="8.833164316768961"><ele>140.0</ele><time>2026-04-11T16:54:09Z</time></trkpt><trkpt lat="45.47832692545914" lon="8.833447163007989"><ele>139.5</ele><time>2026-04-11T16:54:10Z</time></trkpt><trkpt lat="45.47844584462716" lon="8.833732086020749"><ele>139.0</ele><time>2026-04-11T16:54:11Z</time></trkpt><trkpt lat="45.478562305220365" lon="8.834016431203942"><ele>139.0</ele><time>2026-04-11T16:54:12Z</time></trkpt><trkpt lat="45.47867935829746" lon="8.834297318098054"><ele>139.0</ele><time>2026-04-11T16:54:13Z</time></trkpt><trkpt lat="45.47879467832532" lon="8.834581665001101"><ele>139.5</ele><time>2026-04-11T16:54:14Z</time></trkpt><trkpt lat="45.4789090831383" lon="8.834867059282173"><ele>140.0</ele><time>2026-04-11T16:54:15Z</time></trkpt><trkpt lat="45.47902276868569" lon="8.835152982165067"><ele>141.0</ele><time>2026-04-11T16:54:16Z</time></trkpt><trkpt lat="45.479139385707256" lon="8.835439018862255"><ele>142.0</ele><time>2026-04-11T16:54:17Z</time></trkpt><trkpt lat="45.47925288269723" lon="8.835724394395314"><ele>145.0</ele><time>2026-04-11T16:54:18Z</time></trkpt><trkpt lat="45.47936482894094" lon="8.836009833104677"><ele>148.0</ele><time>2026-04-11T16:54:19Z</time></trkpt><trkpt lat="45.47947811010168" lon="8.836295851351347"><ele>148.0</ele><time>2026-04-11T16:54:20Z</time></trkpt><trkpt lat="45.47959107768704" lon="8.836582044986123"><ele>148.0</ele><time>2026-04-11T16:54:21Z</time></trkpt><trkpt lat="45.47970252687462" lon="8.836871027079743"><ele>145.5</ele><time>2026-04-11T16:54:22Z</time></trkpt><trkpt lat="45.479812238530066" lon="8.837159541641752"><ele>143.0</ele><time>2026-04-11T16:54:23Z</time></trkpt><trkpt lat="45.47992457976352" lon="8.83744824107008"><ele>143.0</ele><time>2026-04-11T16:54:24Z</time></trkpt><trkpt lat="45.48003757042736" lon="8.8377398368671"><ele>143.0</ele><time>2026-04-11T16:54:25Z</time></trkpt><trkpt lat="45.480139350534834" lon="8.838026016624092"><ele>143.0</ele><time>2026-04-11T16:54:26Z</time></trkpt><trkpt lat="45.48025296368147" lon="8.838317820649324"><ele>143.0</ele><time>2026-04-11T16:54:27Z</time></trkpt><trkpt lat="45.48036164229066" lon="8.838610066188643"><ele>143.5</ele><time>2026-04-11T16:54:28Z</time></trkpt><trkpt lat="45.48047084717073" lon="8.838902198531319"><ele>144.0</ele><time>2026-04-11T16:54:29Z</time></trkpt><trkpt lat="45.480579826311526" lon="8.839195322701773"><ele>143.5</ele><time>2026-04-11T16:54:30Z</time></trkpt><trkpt lat="45.480689009158624" lon="8.839487199623262"><ele>143.0</ele><time>2026-04-11T16:54:31Z</time></trkpt><trkpt lat="45.480799356419475" lon="8.839779510203792"><ele>143.0</ele><time>2026-04-11T16:54:32Z</time></trkpt><trkpt lat="45.48090543095942" lon="8.84007210811432"><ele>143.0</ele><time>2026-04-11T16:54:33Z</time></trkpt><trkpt lat="45.4810136536194" lon="8.840367085414728"><ele>143.5</ele><time>2026-04-11T16:54:34Z</time></trkpt><trkpt lat="45.48112020624597" lon="8.840662739563731"><ele>144.0</ele><time>2026-04-11T16:54:35Z</time></trkpt><trkpt lat="45.481230210732605" lon="8.840959846249179"><ele>143.5</ele><time>2026-04-11T16:54:36Z</time></trkpt><trkpt lat="45.48133732956503" lon="8.841255016154516"><ele>143.0</ele><time>2026-04-11T16:54:37Z</time></trkpt><trkpt lat="45.48144559373679" lon="8.841552115954363"><ele>144.0</ele><time>2026-04-11T16:54:38Z</time></trkpt><trkpt lat="45.48155315354012" lon="8.841849030864257"><ele>145.0</ele><time>2026-04-11T16:54:39Z</time></trkpt><trkpt lat="45.48166223292357" lon="8.842146507134688"><ele>145.0</ele><time>2026-04-11T16:54:40Z</time></trkpt><trkpt lat="45.48177158238451" lon="8.842444456131862"><ele>145.0</ele><time>2026-04-11T16:54:41Z</time></trkpt><trkpt lat="45.48187911478956" lon="8.842742696614772"><ele>144.5</ele><time>2026-04-11T16:54:42Z</time></trkpt><trkpt lat="45.48198921721433" lon="8.843041088527245"><ele>144.0</ele><time>2026-04-11T16:54:43Z</time></trkpt><trkpt lat="45.48209981636452" lon="8.843339099532782"><ele>144.5</ele><time>2026-04-11T16:54:44Z</time></trkpt><trkpt lat="45.48221013218876" lon="8.843636750540252"><ele>145.0</ele><time>2026-04-11T16:54:45Z</time></trkpt><trkpt lat="45.48231849645669" lon="8.843935392853963"><ele>145.0</ele><time>2026-04-11T16:54:46Z</time></trkpt><trkpt lat="45.48242875159455" lon="8.844234947530344"><ele>145.0</ele><time>2026-04-11T16:54:47Z</time></trkpt><trkpt lat="45.48253661872734" lon="8.844534644929496"><ele>144.5</ele><time>2026-04-11T16:54:48Z</time></trkpt><trkpt lat="45.48264481141738" lon="8.844833201405839"><ele>144.0</ele><time>2026-04-11T16:54:49Z</time></trkpt><trkpt lat="45.48275263233109" lon="8.84513050001971"><ele>143.5</ele><time>2026-04-11T16:54:50Z</time></trkpt><trkpt lat="45.482863775393696" lon="8.845426582600323"><ele>143.0</ele><time>2026-04-11T16:54:51Z</time></trkpt><trkpt lat="45.48297162092087" lon="8.845720251657134"><ele>143.0</ele><time>2026-04-11T16:54:52Z</time></trkpt><trkpt lat="45.483081373847504" lon="8.846014771838876"><ele>143.0</ele><time>2026-04-11T16:54:53Z</time></trkpt><trkpt lat="45.48318811969794" lon="8.846308902982495"><ele>143.0</ele><time>2026-04-11T16:54:54Z</time></trkpt><trkpt lat="45.483293641806796" lon="8.846604719799393"><ele>143.0</ele><time>2026-04-11T16:54:55Z</time></trkpt><trkpt lat="45.48339906588016" lon="8.846902533068977"><ele>143.0</ele><time>2026-04-11T16:54:56Z</time></trkpt><trkpt lat="45.4835049941927" lon="8.847200684524172"><ele>143.0</ele><time>2026-04-11T16:54:57Z</time></trkpt><trkpt lat="45.483611000327365" lon="8.84749499460465"><ele>143.5</ele><time>2026-04-11T16:54:58Z</time></trkpt><trkpt lat="45.4837217017879" lon="8.847788802111179"><ele>144.0</ele><time>2026-04-11T16:54:59Z</time></trkpt><trkpt lat="45.4838287237481" lon="8.848080661361772"><ele>144.5</ele><time>2026-04-11T16:55:00Z</time></trkpt><trkpt lat="45.483933296367205" lon="8.848370999339743"><ele>145.0</ele><time>2026-04-11T16:55:01Z</time></trkpt><trkpt lat="45.48403999647972" lon="8.84866183381258"><ele>145.0</ele><time>2026-04-11T16:55:02Z</time></trkpt><trkpt lat="45.484147680010494" lon="8.84895276528573"><ele>145.0</ele><time>2026-04-11T16:55:03Z</time></trkpt><trkpt lat="45.48425326904094" lon="8.849244590952612"><ele>144.0</ele><time>2026-04-11T16:55:04Z</time></trkpt><trkpt lat="45.48435723105177" lon="8.849534308036018"><ele>143.0</ele><time>2026-04-11T16:55:05Z</time></trkpt><trkpt lat="45.48446663801712" lon="8.849819143287233"><ele>143.0</ele><time>2026-04-11T16:55:06Z</time></trkpt><trkpt lat="45.48457115047048" lon="8.850114464796668"><ele>143.0</ele><time>2026-04-11T16:55:07Z</time></trkpt><trkpt lat="45.48467980070666" lon="8.850408995566506"><ele>143.0</ele><time>2026-04-11T16:55:08Z</time></trkpt><trkpt lat="45.484782256867426" lon="8.85069871437466"><ele>143.0</ele><time>2026-04-11T16:55:09Z</time></trkpt><trkpt lat="45.484892398410864" lon="8.850995447894137"><ele>143.0</ele><time>2026-04-11T16:55:10Z</time></trkpt><trkpt lat="45.48499888049548" lon="8.851289798224322"><ele>143.0</ele><time>2026-04-11T16:55:11.001Z</time></trkpt><trkpt lat="45.48510489487778" lon="8.851584859426378"><ele>144.0</ele><time>2026-04-11T16:55:12.001Z</time></trkpt><trkpt lat="45.48521040556687" lon="8.851876759549365"><ele>145.0</ele><time>2026-04-11T16:55:13.001Z</time></trkpt><trkpt lat="45.48531744547407" lon="8.852169813403489"><ele>145.0</ele><time>2026-04-11T16:55:14.001Z</time></trkpt><trkpt lat="45.48542300779069" lon="8.852459428734795"><ele>145.0</ele><time>2026-04-11T16:55:15.001Z</time></trkpt><trkpt lat="45.485529387378925" lon="8.852754550811103"><ele>145.5</ele><time>2026-04-11T16:55:16.001Z</time></trkpt><trkpt lat="45.485634756329596" lon="8.853050150666327"><ele>146.0</ele><time>2026-04-11T16:55:17.001Z</time></trkpt><trkpt lat="45.48574204892185" lon="8.85334756399479"><ele>145.5</ele><time>2026-04-11T16:55:18.001Z</time></trkpt><trkpt lat="45.48585072747308" lon="8.853646065794647"><ele>145.0</ele><time>2026-04-11T16:55:19.001Z</time></trkpt><trkpt lat="45.48595813208124" lon="8.853943644891407"><ele>145.0</ele><time>2026-04-11T16:55:20.001Z</time></trkpt><trkpt lat="45.48606497970788" lon="8.854238915959282"><ele>145.0</ele><time>2026-04-11T16:55:21.001Z</time></trkpt><trkpt lat="45.486173973572356" lon="8.85453623002704"><ele>146.0</ele><time>2026-04-11T16:55:22.001Z</time></trkpt><trkpt lat="45.48628495089242" lon="8.854835492160305"><ele>147.0</ele><time>2026-04-11T16:55:23.001Z</time></trkpt><trkpt lat="45.48639429771828" lon="8.855133412575414"><ele>148.0</ele><time>2026-04-11T16:55:24.001Z</time></trkpt><trkpt lat="45.486508463071466" lon="8.855434254942292"><ele>149.0</ele><time>2026-04-11T16:55:25.001Z</time></trkpt><trkpt lat="45.48661896259612" lon="8.855734265998617"><ele>148.5</ele><time>2026-04-11T16:55:26.001Z</time></trkpt><trkpt lat="45.486727855417065" lon="8.856034318042248"><ele>148.0</ele><time>2026-04-11T16:55:27.001Z</time></trkpt><trkpt lat="45.48684075932736" lon="8.856337464306248"><ele>148.0</ele><time>2026-04-11T16:55:28.001Z</time></trkpt><trkpt lat="45.48695395382203" lon="8.856640204885672"><ele>148.0</ele><time>2026-04-11T16:55:29.001Z</time></trkpt><trkpt lat="45.48706427962165" lon="8.856943145326818"><ele>147.0</ele><time>2026-04-11T16:55:30.001Z</time></trkpt><trkpt lat="45.4871727955183" lon="8.857247615674172"><ele>146.0</ele><time>2026-04-11T16:55:31.001Z</time></trkpt><trkpt lat="45.487280179773016" lon="8.85755236532805"><ele>146.0</ele><time>2026-04-11T16:55:32.001Z</time></trkpt><trkpt lat="45.48738959279736" lon="8.857859196697449"><ele>146.0</ele><time>2026-04-11T16:55:33.001Z</time></trkpt><trkpt lat="45.48749815159157" lon="8.858166655088416"><ele>146.0</ele><time>2026-04-11T16:55:34.001Z</time></trkpt><trkpt lat="45.48760850891286" lon="8.858473819988221"><ele>146.0</ele><time>2026-04-11T16:55:35.001Z</time></trkpt><trkpt lat="45.48772021020118" lon="8.858781461359754"><ele>146.0</ele><time>2026-04-11T16:55:36.001Z</time></trkpt><trkpt lat="45.487832402683566" lon="8.859083494138119"><ele>146.0</ele><time>2026-04-11T16:55:37.001Z</time></trkpt><trkpt lat="45.48794816403816" lon="8.859391645126573"><ele>145.5</ele><time>2026-04-11T16:55:38.001Z</time></trkpt><trkpt lat="45.48805441261064" lon="8.859688630532073"><ele>145.0</ele><time>2026-04-11T16:55:39.001Z</time></trkpt><trkpt lat="45.4881668215202" lon="8.859989982240691"><ele>145.0</ele><time>2026-04-11T16:55:39.999Z</time></trkpt><trkpt lat="45.488273877317624" lon="8.860288176732844"><ele>145.0</ele><time>2026-04-11T16:55:40.999Z</time></trkpt><trkpt lat="45.48838009716613" lon="8.860585950731794"><ele>145.0</ele><time>2026-04-11T16:55:41.999Z</time></trkpt><trkpt lat="45.48848754984938" lon="8.860883443911558"><ele>145.0</ele><time>2026-04-11T16:55:42.999Z</time></trkpt><trkpt lat="45.488591180574076" lon="8.861178757934578"><ele>145.5</ele><time>2026-04-11T16:55:43.999Z</time></trkpt><trkpt lat="45.488694738611215" lon="8.861476860814959"><ele>146.0</ele><time>2026-04-11T16:55:44.999Z</time></trkpt><trkpt lat="45.48880098691426" lon="8.861777908569847"><ele>145.5</ele><time>2026-04-11T16:55:45.999Z</time></trkpt><trkpt lat="45.488901849328016" lon="8.862074584224256"><ele>145.0</ele><time>2026-04-11T16:55:46.999Z</time></trkpt><trkpt lat="45.48900242078537" lon="8.862372780197532"><ele>146.0</ele><time>2026-04-11T16:55:48Z</time></trkpt><trkpt lat="45.48910278285825" lon="8.862673118637945"><ele>147.0</ele><time>2026-04-11T16:55:49Z</time></trkpt><trkpt lat="45.48920006865001" lon="8.862977639356165"><ele>147.0</ele><time>2026-04-11T16:55:50Z</time></trkpt><trkpt lat="45.48929448395267" lon="8.863275861200448"><ele>147.0</ele><time>2026-04-11T16:55:51Z</time></trkpt><trkpt lat="45.489385799456244" lon="8.863580396510503"><ele>147.0</ele><time>2026-04-11T16:55:52Z</time></trkpt><trkpt lat="45.48948085641875" lon="8.863890403956725"><ele>147.0</ele><time>2026-04-11T16:55:53Z</time></trkpt><trkpt lat="45.48957499054392" lon="8.864203859320323"><ele>148.0</ele><time>2026-04-11T16:55:54Z</time></trkpt><trkpt lat="45.48966293445347" lon="8.864513513868163"><ele>149.0</ele><time>2026-04-11T16:55:55Z</time></trkpt><trkpt lat="45.489752430659614" lon="8.864827215411406"><ele>149.0</ele><time>2026-04-11T16:55:56Z</time></trkpt><trkpt lat="45.48984355586898" lon="8.865145987528862"><ele>149.0</ele><time>2026-04-11T16:55:57Z</time></trkpt><trkpt lat="45.48993127671872" lon="8.865464302990796"><ele>149.0</ele><time>2026-04-11T16:55:58Z</time></trkpt><trkpt lat="45.49001723989003" lon="8.865783665962203"><ele>149.0</ele><time>2026-04-11T16:55:59Z</time></trkpt><trkpt lat="45.49010567296028" lon="8.866113386538201"><ele>149.0</ele><time>2026-04-11T16:56:00Z</time></trkpt><trkpt lat="45.490184819544034" lon="8.866442931007805"><ele>149.0</ele><time>2026-04-11T16:56:01Z</time></trkpt><trkpt lat="45.49026733276592" lon="8.866762151502037"><ele>149.0</ele><time>2026-04-11T16:56:02Z</time></trkpt><trkpt lat="45.49034872112188" lon="8.8670902843536"><ele>149.0</ele><time>2026-04-11T16:56:03Z</time></trkpt><trkpt lat="45.490426596430645" lon="8.867421798165868"><ele>148.0</ele><time>2026-04-11T16:56:04Z</time></trkpt><trkpt lat="45.490503420403854" lon="8.867756668773298"><ele>147.0</ele><time>2026-04-11T16:56:05Z</time></trkpt><trkpt lat="45.49057829351635" lon="8.868092277543079"><ele>147.0</ele><time>2026-04-11T16:56:06Z</time></trkpt><trkpt lat="45.490649826412465" lon="8.868422962486138"><ele>147.0</ele><time>2026-04-11T16:56:07Z</time></trkpt><trkpt lat="45.490720851468794" lon="8.868757575775057"><ele>147.5</ele><time>2026-04-11T16:56:08Z</time></trkpt><trkpt lat="45.490790553062105" lon="8.869089932729056"><ele>148.0</ele><time>2026-04-11T16:56:09Z</time></trkpt><trkpt lat="45.49085886584183" lon="8.869423606612564"><ele>146.5</ele><time>2026-04-11T16:56:10Z</time></trkpt><trkpt lat="45.49092430645136" lon="8.869756727796672"><ele>145.0</ele><time>2026-04-11T16:56:11Z</time></trkpt><trkpt lat="45.49098920202825" lon="8.870090488349648"><ele>146.5</ele><time>2026-04-11T16:56:12Z</time></trkpt><trkpt lat="45.491049910114015" lon="8.870425147764026"><ele>148.0</ele><time>2026-04-11T16:56:13Z</time></trkpt><trkpt lat="45.491102345447494" lon="8.870758983582641"><ele>148.0</ele><time>2026-04-11T16:56:14Z</time></trkpt><trkpt lat="45.491157879862584" lon="8.871098136864083"><ele>148.0</ele><time>2026-04-11T16:56:15Z</time></trkpt><trkpt lat="45.491214045584" lon="8.871435433749436"><ele>147.0</ele><time>2026-04-11T16:56:16Z</time></trkpt><trkpt lat="45.4912655516188" lon="8.871773508067957"><ele>146.0</ele><time>2026-04-11T16:56:17Z</time></trkpt><trkpt lat="45.491318784049255" lon="8.872112241039432"><ele>146.0</ele><time>2026-04-11T16:56:18Z</time></trkpt><trkpt lat="45.49136843923979" lon="8.872453273119401"><ele>146.0</ele><time>2026-04-11T16:56:19Z</time></trkpt><trkpt lat="45.49141911667532" lon="8.872792853275362"><ele>146.0</ele><time>2026-04-11T16:56:20Z</time></trkpt><trkpt lat="45.49146957783199" lon="8.87313568575783"><ele>146.0</ele><time>2026-04-11T16:56:21Z</time></trkpt><trkpt lat="45.49151987972496" lon="8.873474291656063"><ele>146.5</ele><time>2026-04-11T16:56:22Z</time></trkpt><trkpt lat="45.491569848719664" lon="8.873813635401296"><ele>147.0</ele><time>2026-04-11T16:56:23Z</time></trkpt><trkpt lat="45.491621765159145" lon="8.87415770377856"><ele>148.5</ele><time>2026-04-11T16:56:24Z</time></trkpt><trkpt lat="45.49167311611754" lon="8.874507030116133"><ele>150.0</ele><time>2026-04-11T16:56:25Z</time></trkpt><trkpt lat="45.4917257894024" lon="8.874853185288892"><ele>150.0</ele><time>2026-04-11T16:56:26Z</time></trkpt><trkpt lat="45.49177949749625" lon="8.875202875453294"><ele>150.0</ele><time>2026-04-11T16:56:27Z</time></trkpt><trkpt lat="45.49182968947873" lon="8.875544008350502"><ele>150.0</ele><time>2026-04-11T16:56:28Z</time></trkpt><trkpt lat="45.49188253976291" lon="8.875888205110952"><ele>150.0</ele><time>2026-04-11T16:56:29Z</time></trkpt><trkpt lat="45.491939386002905" lon="8.876236085529959"><ele>149.5</ele><time>2026-04-11T16:56:30Z</time></trkpt><trkpt lat="45.49199311626718" lon="8.87657739554682"><ele>149.0</ele><time>2026-04-11T16:56:31Z</time></trkpt><trkpt lat="45.4920504075895" lon="8.876920795513369"><ele>148.0</ele><time>2026-04-11T16:56:32Z</time></trkpt><trkpt lat="45.49210627433488" lon="8.87725918356109"><ele>147.0</ele><time>2026-04-11T16:56:33Z</time></trkpt><trkpt lat="45.49216222557217" lon="8.877599996560809"><ele>146.5</ele><time>2026-04-11T16:56:34Z</time></trkpt><trkpt lat="45.49221703149949" lon="8.877940209039918"><ele>146.0</ele><time>2026-04-11T16:56:35Z</time></trkpt><trkpt lat="45.492275135515534" lon="8.878278022485127"><ele>146.0</ele><time>2026-04-11T16:56:36Z</time></trkpt><trkpt lat="45.49233752221315" lon="8.878615426274242"><ele>146.0</ele><time>2026-04-11T16:56:37Z</time></trkpt><trkpt lat="45.492394305401554" lon="8.878946242186672"><ele>147.0</ele><time>2026-04-11T16:56:38Z</time></trkpt><trkpt lat="45.49245410153318" lon="8.879289661048965"><ele>148.0</ele><time>2026-04-11T16:56:39Z</time></trkpt><trkpt lat="45.4925114489269" lon="8.879630814898814"><ele>148.0</ele><time>2026-04-11T16:56:40Z</time></trkpt><trkpt lat="45.49257040294638" lon="8.879976832319867"><ele>148.0</ele><time>2026-04-11T16:56:41Z</time></trkpt><trkpt lat="45.49262747900497" lon="8.880316120391438"><ele>148.0</ele><time>2026-04-11T16:56:42Z</time></trkpt><trkpt lat="45.49269045137434" lon="8.880633216943094"><ele>148.0</ele><time>2026-04-11T16:56:43Z</time></trkpt><trkpt lat="45.492752372070065" lon="8.880958894010153"><ele>148.0</ele><time>2026-04-11T16:56:44Z</time></trkpt><trkpt lat="45.49281331489726" lon="8.881284793773775"><ele>148.0</ele><time>2026-04-11T16:56:45Z</time></trkpt><trkpt lat="45.492875586300116" lon="8.881613219525951"><ele>147.5</ele><time>2026-04-11T16:56:46Z</time></trkpt><trkpt lat="45.49293881519154" lon="8.881943408130757"><ele>147.0</ele><time>2026-04-11T16:56:47Z</time></trkpt><trkpt lat="45.49300285143499" lon="8.882271985599186"><ele>147.5</ele><time>2026-04-11T16:56:48Z</time></trkpt><trkpt lat="45.493067165937155" lon="8.882603417911701"><ele>148.0</ele><time>2026-04-11T16:56:49Z</time></trkpt><trkpt lat="45.49313159706063" lon="8.882927995340228"><ele>148.0</ele><time>2026-04-11T16:56:50Z</time></trkpt><trkpt lat="45.49319683984679" lon="8.883254418476232"><ele>148.0</ele><time>2026-04-11T16:56:51Z</time></trkpt><trkpt lat="45.49325997963195" lon="8.883575186779723"><ele>148.0</ele><time>2026-04-11T16:56:52Z</time></trkpt><trkpt lat="45.49332824621124" lon="8.883897310639336"><ele>148.0</ele><time>2026-04-11T16:56:53Z</time></trkpt><trkpt lat="45.493392306834686" lon="8.884216138667826"><ele>148.0</ele><time>2026-04-11T16:56:54Z</time></trkpt><trkpt lat="45.4934592998262" lon="8.884537876097461"><ele>148.0</ele><time>2026-04-11T16:56:55Z</time></trkpt><trkpt lat="45.493525671690534" lon="8.88485759882436"><ele>148.0</ele><time>2026-04-11T16:56:56Z</time></trkpt><trkpt lat="45.49359151342845" lon="8.885177078854678"><ele>148.0</ele><time>2026-04-11T16:56:57.001Z</time></trkpt><trkpt lat="45.493657732946524" lon="8.885502022031867"><ele>148.0</ele><time>2026-04-11T16:56:58.001Z</time></trkpt><trkpt lat="45.49372127900305" lon="8.885821610062004"><ele>148.0</ele><time>2026-04-11T16:56:59.001Z</time></trkpt><trkpt lat="45.49378643883635" lon="8.886146254066208"><ele>147.5</ele><time>2026-04-11T16:57:00.001Z</time></trkpt><trkpt lat="45.49385063907722" lon="8.886466451676915"><ele>147.0</ele><time>2026-04-11T16:57:01.001Z</time></trkpt><trkpt lat="45.49391400213359" lon="8.886789324129984"><ele>147.0</ele><time>2026-04-11T16:57:02.001Z</time></trkpt><trkpt lat="45.49397618817612" lon="8.887113515770492"><ele>147.0</ele><time>2026-04-11T16:57:03.001Z</time></trkpt><trkpt lat="45.494035448663595" lon="8.887432498311208"><ele>148.0</ele><time>2026-04-11T16:57:04.001Z</time></trkpt><trkpt lat="45.49409758065545" lon="8.88775833162153"><ele>149.0</ele><time>2026-04-11T16:57:05.001Z</time></trkpt><trkpt lat="45.49415855717881" lon="8.888079799747382"><ele>149.0</ele><time>2026-04-11T16:57:06.001Z</time></trkpt><trkpt lat="45.49422236080406" lon="8.888404056933103"><ele>149.0</ele><time>2026-04-11T16:57:07.001Z</time></trkpt><trkpt lat="45.49428634434135" lon="8.888726754111232"><ele>148.5</ele><time>2026-04-11T16:57:08.001Z</time></trkpt><trkpt lat="45.49434673208712" lon="8.889051319793321"><ele>148.0</ele><time>2026-04-11T16:57:09.001Z</time></trkpt><trkpt lat="45.49440787885753" lon="8.889375884350157"><ele>148.0</ele><time>2026-04-11T16:57:10.001Z</time></trkpt><trkpt lat="45.494467599151726" lon="8.889698921844884"><ele>148.0</ele><time>2026-04-11T16:57:11.001Z</time></trkpt><trkpt lat="45.49452725692162" lon="8.890022447212703"><ele>148.0</ele><time>2026-04-11T16:57:12.001Z</time></trkpt><trkpt lat="45.49459022449557" lon="8.890350622187725"><ele>148.0</ele><time>2026-04-11T16:57:13.001Z</time></trkpt><trkpt lat="45.49464923771309" lon="8.890675743546876"><ele>148.5</ele><time>2026-04-11T16:57:14.001Z</time></trkpt><trkpt lat="45.494710010014934" lon="8.891003704726684"><ele>149.0</ele><time>2026-04-11T16:57:15.001Z</time></trkpt><trkpt lat="45.4947707614729" lon="8.891327739465213"><ele>149.0</ele><time>2026-04-11T16:57:16.001Z</time></trkpt><trkpt lat="45.494828702878856" lon="8.89165149353347"><ele>149.0</ele><time>2026-04-11T16:57:17.001Z</time></trkpt><trkpt lat="45.49488737921016" lon="8.891979522303606"><ele>149.0</ele><time>2026-04-11T16:57:18.001Z</time></trkpt><trkpt lat="45.49494367300908" lon="8.892301501071227"><ele>149.0</ele><time>2026-04-11T16:57:19.001Z</time></trkpt><trkpt lat="45.495000557203554" lon="8.892625503482956"><ele>149.0</ele><time>2026-04-11T16:57:20.001Z</time></trkpt><trkpt lat="45.49505937839194" lon="8.892952785480679"><ele>149.0</ele><time>2026-04-11T16:57:21.001Z</time></trkpt><trkpt lat="45.49511757546959" lon="8.893272145106941"><ele>149.0</ele><time>2026-04-11T16:57:22.001Z</time></trkpt><trkpt lat="45.495177245968605" lon="8.893597445683545"><ele>149.0</ele><time>2026-04-11T16:57:23.001Z</time></trkpt><trkpt lat="45.495233853754335" lon="8.893925217118438"><ele>149.0</ele><time>2026-04-11T16:57:24.001Z</time></trkpt><trkpt lat="45.49528937366099" lon="8.894248557945934"><ele>149.0</ele><time>2026-04-11T16:57:25.001Z</time></trkpt><trkpt lat="45.49534534702473" lon="8.894576135605373"><ele>149.0</ele><time>2026-04-11T16:57:26.001Z</time></trkpt><trkpt lat="45.49540133040099" lon="8.894903404098388"><ele>149.0</ele><time>2026-04-11T16:57:27.001Z</time></trkpt><trkpt lat="45.495455636862204" lon="8.895227717542719"><ele>149.0</ele><time>2026-04-11T16:57:28.001Z</time></trkpt><trkpt lat="45.495512135588534" lon="8.895555992297874"><ele>149.0</ele><time>2026-04-11T16:57:29.001Z</time></trkpt><trkpt lat="45.495568003393544" lon="8.895883871543374"><ele>150.5</ele><time>2026-04-11T16:57:30.001Z</time></trkpt><trkpt lat="45.49562070883804" lon="8.896209632872543"><ele>152.0</ele><time>2026-04-11T16:57:31.001Z</time></trkpt><trkpt lat="45.49567328542034" lon="8.896536691470988"><ele>152.0</ele><time>2026-04-11T16:57:32.001Z</time></trkpt><trkpt lat="45.49572817280433" lon="8.896864684394263"><ele>152.0</ele><time>2026-04-11T16:57:33.001Z</time></trkpt><trkpt lat="45.49578103055449" lon="8.897192315280673"><ele>152.0</ele><time>2026-04-11T16:57:34.001Z</time></trkpt><trkpt lat="45.495835407375104" lon="8.897522464274061"><ele>152.0</ele><time>2026-04-11T16:57:35.001Z</time></trkpt><trkpt lat="45.49588958280996" lon="8.897852039177767"><ele>152.5</ele><time>2026-04-11T16:57:36.001Z</time></trkpt><trkpt lat="45.49594187005832" lon="8.898177491411198"><ele>153.0</ele><time>2026-04-11T16:57:37.001Z</time></trkpt><trkpt lat="45.49599378882779" lon="8.898506454606457"><ele>152.0</ele><time>2026-04-11T16:57:38.001Z</time></trkpt><trkpt lat="45.49604366396975" lon="8.898837657099207"><ele>151.0</ele><time>2026-04-11T16:57:39.001Z</time></trkpt><trkpt lat="45.49608848884719" lon="8.899161744333012"><ele>150.0</ele><time>2026-04-11T16:57:40.001Z</time></trkpt><trkpt lat="45.49615314560463" lon="8.899489676495838"><ele>149.0</ele><time>2026-04-11T16:57:41.001Z</time></trkpt><trkpt lat="45.49619838099784" lon="8.899832392930422"><ele>149.0</ele><time>2026-04-11T16:57:42.001Z</time></trkpt><trkpt lat="45.49624560190062" lon="8.900162825027888"><ele>149.0</ele><time>2026-04-11T16:57:43.001Z</time></trkpt><trkpt lat="45.49629956552711" lon="8.90049167925177"><ele>149.5</ele><time>2026-04-11T16:57:44.001Z</time></trkpt><trkpt lat="45.49634970884536" lon="8.900821326068638"><ele>150.0</ele><time>2026-04-11T16:57:45.001Z</time></trkpt><trkpt lat="45.49639878210259" lon="8.901151776265895"><ele>150.0</ele><time>2026-04-11T16:57:46Z</time></trkpt><trkpt lat="45.496444062920645" lon="8.901474782684073"><ele>150.0</ele><time>2026-04-11T16:57:47Z</time></trkpt><trkpt lat="45.49649312318194" lon="8.901799286575494"><ele>150.0</ele><time>2026-04-11T16:57:48Z</time></trkpt><trkpt lat="45.49653926477906" lon="8.90212231981506"><ele>150.0</ele><time>2026-04-11T16:57:49Z</time></trkpt><trkpt lat="45.496586990317624" lon="8.90244694898302"><ele>149.0</ele><time>2026-04-11T16:57:49.999Z</time></trkpt><trkpt lat="45.496631558490094" lon="8.90277000315123"><ele>148.0</ele><time>2026-04-11T16:57:50.999Z</time></trkpt><trkpt lat="45.49667701621998" lon="8.903091647472435"><ele>148.0</ele><time>2026-04-11T16:57:51.999Z</time></trkpt><trkpt lat="45.49672370858772" lon="8.903413193303825"><ele>148.0</ele><time>2026-04-11T16:57:52.999Z</time></trkpt><trkpt lat="45.49676829182241" lon="8.90373720584456"><ele>148.5</ele><time>2026-04-11T16:57:54Z</time></trkpt><trkpt lat="45.49681164015075" lon="8.904055713116184"><ele>149.0</ele><time>2026-04-11T16:57:55Z</time></trkpt><trkpt lat="45.496858302077406" lon="8.904380802452714"><ele>149.0</ele><time>2026-04-11T16:57:56Z</time></trkpt><trkpt lat="45.496905641941524" lon="8.904704991113784"><ele>149.0</ele><time>2026-04-11T16:57:57Z</time></trkpt><trkpt lat="45.496949441991795" lon="8.90503079865452"><ele>148.5</ele><time>2026-04-11T16:57:58Z</time></trkpt><trkpt lat="45.49699391666364" lon="8.905352800481266"><ele>148.0</ele><time>2026-04-11T16:57:59Z</time></trkpt><trkpt lat="45.497035301483386" lon="8.905672554651886"><ele>148.5</ele><time>2026-04-11T16:58:00Z</time></trkpt><trkpt lat="45.4970778975209" lon="8.905993489762086"><ele>149.0</ele><time>2026-04-11T16:58:01Z</time></trkpt><trkpt lat="45.49711880818205" lon="8.906315880642953"><ele>149.0</ele><time>2026-04-11T16:58:02Z</time></trkpt><trkpt lat="45.497162106295896" lon="8.906636292914392"><ele>149.0</ele><time>2026-04-11T16:58:03Z</time></trkpt><trkpt lat="45.49720048595777" lon="8.9069629970784"><ele>149.5</ele><time>2026-04-11T16:58:04Z</time></trkpt><trkpt lat="45.49724404573087" lon="8.90729179723848"><ele>150.0</ele><time>2026-04-11T16:58:05Z</time></trkpt><trkpt lat="45.49728059163873" lon="8.907618103754587"><ele>150.0</ele><time>2026-04-11T16:58:06Z</time></trkpt><trkpt lat="45.49732297072302" lon="8.90794851454794"><ele>150.0</ele><time>2026-04-11T16:58:07Z</time></trkpt><trkpt lat="45.497363278164265" lon="8.908279530008137"><ele>150.5</ele><time>2026-04-11T16:58:08Z</time></trkpt><trkpt lat="45.497402791651275" lon="8.908609257890046"><ele>151.0</ele><time>2026-04-11T16:58:09Z</time></trkpt><trkpt lat="45.49744409812724" lon="8.908945855240365"><ele>151.5</ele><time>2026-04-11T16:58:10Z</time></trkpt><trkpt lat="45.49748744956872" lon="8.909280519408743"><ele>152.0</ele><time>2026-04-11T16:58:11Z</time></trkpt><trkpt lat="45.497528826868944" lon="8.909618336462696"><ele>152.0</ele><time>2026-04-11T16:58:12Z</time></trkpt><trkpt lat="45.497567859889465" lon="8.909953987642673"><ele>152.0</ele><time>2026-04-11T16:58:13Z</time></trkpt><trkpt lat="45.49760985303836" lon="8.910291762463766"><ele>152.0</ele><time>2026-04-11T16:58:14Z</time></trkpt><trkpt lat="45.49764986188282" lon="8.91062944519984"><ele>152.0</ele><time>2026-04-11T16:58:15Z</time></trkpt><trkpt lat="45.49768947720733" lon="8.910966596004728"><ele>151.5</ele><time>2026-04-11T16:58:16Z</time></trkpt><trkpt lat="45.49772828547318" lon="8.911299220687772"><ele>151.0</ele><time>2026-04-11T16:58:17Z</time></trkpt><trkpt lat="45.49776467077173" lon="8.911633643722547"><ele>151.0</ele><time>2026-04-11T16:58:18Z</time></trkpt><trkpt lat="45.497800962436585" lon="8.911967424540604"><ele>151.0</ele><time>2026-04-11T16:58:19Z</time></trkpt><trkpt lat="45.4978370466723" lon="8.912301354629797"><ele>150.5</ele><time>2026-04-11T16:58:20Z</time></trkpt><trkpt lat="45.49787587616767" lon="8.912635882925702"><ele>150.0</ele><time>2026-04-11T16:58:21Z</time></trkpt><trkpt lat="45.497913279111614" lon="8.912969902241116"><ele>151.0</ele><time>2026-04-11T16:58:22Z</time></trkpt><trkpt lat="45.49794693059381" lon="8.913302627219137"><ele>152.0</ele><time>2026-04-11T16:58:23Z</time></trkpt><trkpt lat="45.497987015961385" lon="8.913639157516632"><ele>152.0</ele><time>2026-04-11T16:58:24Z</time></trkpt><trkpt lat="45.4980202497586" lon="8.913968043640947"><ele>152.0</ele><time>2026-04-11T16:58:25Z</time></trkpt><trkpt lat="45.49805643272999" lon="8.914299925061886"><ele>152.0</ele><time>2026-04-11T16:58:26Z</time></trkpt><trkpt lat="45.49809077713635" lon="8.914630691498298"><ele>152.0</ele><time>2026-04-11T16:58:27Z</time></trkpt><trkpt lat="45.49812604195854" lon="8.91496199210023"><ele>151.5</ele><time>2026-04-11T16:58:28Z</time></trkpt><trkpt lat="45.498160446324746" lon="8.915294730018086"><ele>151.0</ele><time>2026-04-11T16:58:29Z</time></trkpt><trkpt lat="45.49819534631547" lon="8.915628004683013"><ele>150.5</ele><time>2026-04-11T16:58:30Z</time></trkpt><trkpt lat="45.4982314798999" lon="8.915960363991205"><ele>150.0</ele><time>2026-04-11T16:58:31Z</time></trkpt><trkpt lat="45.49826676024213" lon="8.916292148714017"><ele>150.0</ele><time>2026-04-11T16:58:32Z</time></trkpt><trkpt lat="45.498301712628084" lon="8.916624242776537"><ele>150.0</ele><time>2026-04-11T16:58:33Z</time></trkpt><trkpt lat="45.49833616523771" lon="8.916959303417794"><ele>151.0</ele><time>2026-04-11T16:58:34Z</time></trkpt><trkpt lat="45.49837064304489" lon="8.91729068870354"><ele>152.0</ele><time>2026-04-11T16:58:35Z</time></trkpt><trkpt lat="45.498403792095495" lon="8.917621366776665"><ele>152.5</ele><time>2026-04-11T16:58:36Z</time></trkpt><trkpt lat="45.49843941533224" lon="8.91795396819972"><ele>153.0</ele><time>2026-04-11T16:58:37Z</time></trkpt><trkpt lat="45.49847537177718" lon="8.918289995765134"><ele>152.0</ele><time>2026-04-11T16:58:38Z</time></trkpt><trkpt lat="45.4985122625865" lon="8.918624036791408"><ele>151.0</ele><time>2026-04-11T16:58:39Z</time></trkpt><trkpt lat="45.498547996241236" lon="8.918955578202699"><ele>151.0</ele><time>2026-04-11T16:58:40Z</time></trkpt><trkpt lat="45.49858313948445" lon="8.919290346568255"><ele>151.0</ele><time>2026-04-11T16:58:41Z</time></trkpt><trkpt lat="45.4986185697222" lon="8.919626589397197"><ele>151.0</ele><time>2026-04-11T16:58:42Z</time></trkpt><trkpt lat="45.49865027186382" lon="8.919959119671786"><ele>151.0</ele><time>2026-04-11T16:58:43Z</time></trkpt><trkpt lat="45.498689319049326" lon="8.920299278518584"><ele>150.5</ele><time>2026-04-11T16:58:44Z</time></trkpt><trkpt lat="45.49872436290894" lon="8.920633022000352"><ele>150.0</ele><time>2026-04-11T16:58:45Z</time></trkpt><trkpt lat="45.49875659592487" lon="8.920970994983541"><ele>151.0</ele><time>2026-04-11T16:58:46Z</time></trkpt><trkpt lat="45.49879370920352" lon="8.921306557024316"><ele>152.0</ele><time>2026-04-11T16:58:47Z</time></trkpt><trkpt lat="45.49883008778998" lon="8.92164317758554"><ele>153.0</ele><time>2026-04-11T16:58:48.001Z</time></trkpt><trkpt lat="45.498864769870345" lon="8.921977442935223"><ele>154.0</ele><time>2026-04-11T16:58:49.001Z</time></trkpt><trkpt lat="45.49890180414745" lon="8.922313742829536"><ele>154.0</ele><time>2026-04-11T16:58:50.001Z</time></trkpt><trkpt lat="45.49893666633379" lon="8.922647920220408"><ele>154.0</ele><time>2026-04-11T16:58:51.001Z</time></trkpt><trkpt lat="45.49897033454588" lon="8.922980049962165"><ele>154.0</ele><time>2026-04-11T16:58:52.001Z</time></trkpt><trkpt lat="45.49900480450403" lon="8.923312975733639"><ele>154.0</ele><time>2026-04-11T16:58:53.001Z</time></trkpt><trkpt lat="45.49903744114035" lon="8.92364655928298"><ele>154.0</ele><time>2026-04-11T16:58:54.001Z</time></trkpt><trkpt lat="45.49907501381523" lon="8.923981079443728"><ele>154.0</ele><time>2026-04-11T16:58:55.001Z</time></trkpt><trkpt lat="45.49910988175339" lon="8.924313899553383"><ele>153.5</ele><time>2026-04-11T16:58:56.001Z</time></trkpt><trkpt lat="45.49914529992164" lon="8.924647174584651"><ele>153.0</ele><time>2026-04-11T16:58:57.001Z</time></trkpt><trkpt lat="45.499177260135994" lon="8.924980687506721"><ele>153.0</ele><time>2026-04-11T16:58:58.001Z</time></trkpt><trkpt lat="45.499210421692474" lon="8.92531265123928"><ele>153.0</ele><time>2026-04-11T16:58:59.001Z</time></trkpt><trkpt lat="45.49924727208404" lon="8.925649255629128"><ele>153.0</ele><time>2026-04-11T16:59:00.001Z</time></trkpt><trkpt lat="45.499282412148325" lon="8.925983778604298"><ele>153.0</ele><time>2026-04-11T16:59:01.001Z</time></trkpt><trkpt lat="45.499317090080986" lon="8.92631706236589"><ele>153.0</ele><time>2026-04-11T16:59:02.001Z</time></trkpt><trkpt lat="45.49935019450097" lon="8.926646516721496"><ele>153.0</ele><time>2026-04-11T16:59:03.001Z</time></trkpt><trkpt lat="45.49938545134643" lon="8.926972479281968"><ele>152.0</ele><time>2026-04-11T16:59:04.001Z</time></trkpt><trkpt lat="45.4994214136074" lon="8.927301711089246"><ele>151.0</ele><time>2026-04-11T16:59:05.001Z</time></trkpt><trkpt lat="45.49945441684957" lon="8.92762984148162"><ele>151.0</ele><time>2026-04-11T16:59:06.001Z</time></trkpt><trkpt lat="45.499489640523" lon="8.927959556125613"><ele>151.0</ele><time>2026-04-11T16:59:07.001Z</time></trkpt><trkpt lat="45.49952702717198" lon="8.928292808973678"><ele>151.0</ele><time>2026-04-11T16:59:08.001Z</time></trkpt><trkpt lat="45.499562629856875" lon="8.928622170619818"><ele>151.0</ele><time>2026-04-11T16:59:09.001Z</time></trkpt><trkpt lat="45.499594337498415" lon="8.928960628504981"><ele>150.5</ele><time>2026-04-11T16:59:10.001Z</time></trkpt><trkpt lat="45.49963003494388" lon="8.929294858334204"><ele>150.0</ele><time>2026-04-11T16:59:11.001Z</time></trkpt><trkpt lat="45.49966583701955" lon="8.929631339592175"><ele>150.0</ele><time>2026-04-11T16:59:12.001Z</time></trkpt><trkpt lat="45.4997002940425" lon="8.929966807359639"><ele>150.0</ele><time>2026-04-11T16:59:13.001Z</time></trkpt><trkpt lat="45.49973382110658" lon="8.930304071879865"><ele>151.0</ele><time>2026-04-11T16:59:14.001Z</time></trkpt><trkpt lat="45.49976853806703" lon="8.930645900566603"><ele>152.0</ele><time>2026-04-11T16:59:15.001Z</time></trkpt><trkpt lat="45.49980092566019" lon="8.930984009001676"><ele>152.0</ele><time>2026-04-11T16:59:16.001Z</time></trkpt><trkpt lat="45.49983361716205" lon="8.931323827241032"><ele>152.0</ele><time>2026-04-11T16:59:17.001Z</time></trkpt><trkpt lat="45.4998662742302" lon="8.931663415481358"><ele>152.0</ele><time>2026-04-11T16:59:18.001Z</time></trkpt><trkpt lat="45.49989775842157" lon="8.932002030804679"><ele>152.0</ele><time>2026-04-11T16:59:19.001Z</time></trkpt><trkpt lat="45.499929220047164" lon="8.932336044064312"><ele>152.0</ele><time>2026-04-11T16:59:20.001Z</time></trkpt><trkpt lat="45.49995961894924" lon="8.932672838595579"><ele>152.0</ele><time>2026-04-11T16:59:21.001Z</time></trkpt><trkpt lat="45.49999079772857" lon="8.93301143633041"><ele>152.0</ele><time>2026-04-11T16:59:22.001Z</time></trkpt><trkpt lat="45.50002012107547" lon="8.933349670836552"><ele>152.0</ele><time>2026-04-11T16:59:23.001Z</time></trkpt><trkpt lat="45.50004992110128" lon="8.93368767683776"><ele>152.5</ele><time>2026-04-11T16:59:24.001Z</time></trkpt><trkpt lat="45.50007896833242" lon="8.934020744853822"><ele>153.0</ele><time>2026-04-11T16:59:25.001Z</time></trkpt><trkpt lat="45.5001070973342" lon="8.934361608096838"><ele>153.5</ele><time>2026-04-11T16:59:26.001Z</time></trkpt><trkpt lat="45.50013261801799" lon="8.934700572074645"><ele>154.0</ele><time>2026-04-11T16:59:27.001Z</time></trkpt><trkpt lat="45.50015732164405" lon="8.935041117578411"><ele>154.0</ele><time>2026-04-11T16:59:28.001Z</time></trkpt><trkpt lat="45.50018349604058" lon="8.935381045884181"><ele>154.0</ele><time>2026-04-11T16:59:29.001Z</time></trkpt><trkpt lat="45.50021035134762" lon="8.935726214718281"><ele>154.5</ele><time>2026-04-11T16:59:30.001Z</time></trkpt><trkpt lat="45.50023816560414" lon="8.93606658085644"><ele>155.0</ele><time>2026-04-11T16:59:31.001Z</time></trkpt><trkpt lat="45.50026592942697" lon="8.936414919478757"><ele>154.0</ele><time>2026-04-11T16:59:32.001Z</time></trkpt><trkpt lat="45.5002968790936" lon="8.936758272320949"><ele>153.0</ele><time>2026-04-11T16:59:33.001Z</time></trkpt><trkpt lat="45.50032971083548" lon="8.937105408039832"><ele>153.0</ele><time>2026-04-11T16:59:34.001Z</time></trkpt><trkpt lat="45.50035922817046" lon="8.937461952115635"><ele>153.0</ele><time>2026-04-11T16:59:35.001Z</time></trkpt><trkpt lat="45.50039126308813" lon="8.937822239375887"><ele>153.0</ele><time>2026-04-11T16:59:36.001Z</time></trkpt><trkpt lat="45.50042468522007" lon="8.938179586192614"><ele>153.0</ele><time>2026-04-11T16:59:37.001Z</time></trkpt><trkpt lat="45.50045753930066" lon="8.938534967619223"><ele>153.0</ele><time>2026-04-11T16:59:38.001Z</time></trkpt><trkpt lat="45.50049017985621" lon="8.938883978327533"><ele>153.0</ele><time>2026-04-11T16:59:39.001Z</time></trkpt><trkpt lat="45.50052528305003" lon="8.939228955435281"><ele>153.5</ele><time>2026-04-11T16:59:40.001Z</time></trkpt><trkpt lat="45.50056131905654" lon="8.939573557078532"><ele>154.0</ele><time>2026-04-11T16:59:41.001Z</time></trkpt><trkpt lat="45.5005975387786" lon="8.93992351574072"><ele>152.5</ele><time>2026-04-11T16:59:42.001Z</time></trkpt><trkpt lat="45.500632513307245" lon="8.940269032789958"><ele>151.0</ele><time>2026-04-11T16:59:43.001Z</time></trkpt><trkpt lat="45.50066890072258" lon="8.94061286592112"><ele>150.5</ele><time>2026-04-11T16:59:44.001Z</time></trkpt><trkpt lat="45.50070574476409" lon="8.94095531338798"><ele>150.0</ele><time>2026-04-11T16:59:45.001Z</time></trkpt><trkpt lat="45.500742245243366" lon="8.94129702477616"><ele>150.0</ele><time>2026-04-11T16:59:46.001Z</time></trkpt><trkpt lat="45.50078180805514" lon="8.941647267012685"><ele>150.0</ele><time>2026-04-11T16:59:47.001Z</time></trkpt><trkpt lat="45.50082533879569" lon="8.942009701411035"><ele>150.0</ele><time>2026-04-11T16:59:48.001Z</time></trkpt><trkpt lat="45.50086949103244" lon="8.942381928316252"><ele>150.0</ele><time>2026-04-11T16:59:49.001Z</time></trkpt><trkpt lat="45.500909907956974" lon="8.942750953639928"><ele>150.0</ele><time>2026-04-11T16:59:50.001Z</time></trkpt><trkpt lat="45.50094793422985" lon="8.943119948677198"><ele>150.0</ele><time>2026-04-11T16:59:51.001Z</time></trkpt><trkpt lat="45.50098569635369" lon="8.943488196042951"><ele>150.5</ele><time>2026-04-11T16:59:52Z</time></trkpt><trkpt lat="45.50102305225079" lon="8.943840829798539"><ele>151.0</ele><time>2026-04-11T16:59:53Z</time></trkpt><trkpt lat="45.50105983571578" lon="8.944181172110627"><ele>152.0</ele><time>2026-04-11T16:59:54Z</time></trkpt><trkpt lat="45.50109682646855" lon="8.944517837361197"><ele>153.0</ele><time>2026-04-11T16:59:55Z</time></trkpt><trkpt lat="45.501133441435094" lon="8.944854358844564"><ele>152.5</ele><time>2026-04-11T16:59:56Z</time></trkpt><trkpt lat="45.501165445919185" lon="8.945192325219608"><ele>152.0</ele><time>2026-04-11T16:59:57Z</time></trkpt><trkpt lat="45.501194994211836" lon="8.945528502147488"><ele>152.0</ele><time>2026-04-11T16:59:58Z</time></trkpt><trkpt lat="45.50122699125812" lon="8.945859616072758"><ele>152.0</ele><time>2026-04-11T16:59:59Z</time></trkpt><trkpt lat="45.50126109421456" lon="8.946195844209424"><ele>152.0</ele><time>2026-04-11T17:00:00Z</time></trkpt><trkpt lat="45.50129992288054" lon="8.946527201888696"><ele>152.0</ele><time>2026-04-11T17:00:01Z</time></trkpt><trkpt lat="45.50134256698212" lon="8.946861418183783"><ele>152.0</ele><time>2026-04-11T17:00:02Z</time></trkpt><trkpt lat="45.501380360067884" lon="8.947190637919059"><ele>152.0</ele><time>2026-04-11T17:00:03Z</time></trkpt><trkpt lat="45.50141864347154" lon="8.947521637625393"><ele>152.0</ele><time>2026-04-11T17:00:04Z</time></trkpt><trkpt lat="45.50145752275818" lon="8.94785284981382"><ele>152.0</ele><time>2026-04-11T17:00:05Z</time></trkpt><trkpt lat="45.50149531609357" lon="8.948177740947457"><ele>151.5</ele><time>2026-04-11T17:00:06Z</time></trkpt><trkpt lat="45.50153427170218" lon="8.948508419547291"><ele>151.0</ele><time>2026-04-11T17:00:07Z</time></trkpt><trkpt lat="45.50156964976418" lon="8.948825678146019"><ele>151.0</ele><time>2026-04-11T17:00:08Z</time></trkpt><trkpt lat="45.50160622269189" lon="8.949130195568259"><ele>151.0</ele><time>2026-04-11T17:00:09Z</time></trkpt><trkpt lat="45.50164597873795" lon="8.949453478141738"><ele>151.0</ele><time>2026-04-11T17:00:10Z</time></trkpt><trkpt lat="45.50168637860788" lon="8.949775070585437"><ele>149.5</ele><time>2026-04-11T17:00:11Z</time></trkpt><trkpt lat="45.50172646036258" lon="8.95010803851005"><ele>148.0</ele><time>2026-04-11T17:00:12Z</time></trkpt><trkpt lat="45.50176652650063" lon="8.95044424915175"><ele>148.0</ele><time>2026-04-11T17:00:13Z</time></trkpt><trkpt lat="45.501803955449304" lon="8.950776561915019"><ele>148.0</ele><time>2026-04-11T17:00:14Z</time></trkpt><trkpt lat="45.501843606945194" lon="8.951116509000261"><ele>149.0</ele><time>2026-04-11T17:00:15Z</time></trkpt><trkpt lat="45.50187970391355" lon="8.95144618672672"><ele>150.0</ele><time>2026-04-11T17:00:16Z</time></trkpt><trkpt lat="45.501917565194375" lon="8.951784254103838"><ele>151.5</ele><time>2026-04-11T17:00:17Z</time></trkpt><trkpt lat="45.501954139922475" lon="8.952117319841548"><ele>153.0</ele><time>2026-04-11T17:00:18Z</time></trkpt><trkpt lat="45.501990654786" lon="8.952460389814615"><ele>152.5</ele><time>2026-04-11T17:00:19Z</time></trkpt><trkpt lat="45.50202356293169" lon="8.95280067315522"><ele>152.0</ele><time>2026-04-11T17:00:20Z</time></trkpt><trkpt lat="45.50205766022833" lon="8.953142559639916"><ele>152.5</ele><time>2026-04-11T17:00:21Z</time></trkpt><trkpt lat="45.50208997015724" lon="8.95348707919591"><ele>153.0</ele><time>2026-04-11T17:00:22Z</time></trkpt><trkpt lat="45.50212306221206" lon="8.953825543337638"><ele>153.0</ele><time>2026-04-11T17:00:23Z</time></trkpt><trkpt lat="45.50215700503023" lon="8.954168860830912"><ele>153.0</ele><time>2026-04-11T17:00:24Z</time></trkpt><trkpt lat="45.5021887306381" lon="8.954509710066379"><ele>153.0</ele><time>2026-04-11T17:00:25Z</time></trkpt><trkpt lat="45.5022198980624" lon="8.954853197413893"><ele>153.0</ele><time>2026-04-11T17:00:26Z</time></trkpt><trkpt lat="45.50225117718694" lon="8.9551943126801"><ele>153.0</ele><time>2026-04-11T17:00:27Z</time></trkpt><trkpt lat="45.50228294256988" lon="8.955536694612489"><ele>153.0</ele><time>2026-04-11T17:00:28Z</time></trkpt><trkpt lat="45.50231204498679" lon="8.955869481703166"><ele>153.0</ele><time>2026-04-11T17:00:29Z</time></trkpt><trkpt lat="45.50234257214704" lon="8.956209438184786"><ele>153.0</ele><time>2026-04-11T17:00:30Z</time></trkpt><trkpt lat="45.502369840628525" lon="8.956547943077338"><ele>152.0</ele><time>2026-04-11T17:00:31Z</time></trkpt><trkpt lat="45.502395623041146" lon="8.956886356955247"><ele>151.0</ele><time>2026-04-11T17:00:32Z</time></trkpt><trkpt lat="45.502423397138045" lon="8.957227001957193"><ele>152.0</ele><time>2026-04-11T17:00:33Z</time></trkpt><trkpt lat="45.502450218580684" lon="8.957566237182442"><ele>153.0</ele><time>2026-04-11T17:00:34Z</time></trkpt><trkpt lat="45.50247677358874" lon="8.957905796213696"><ele>153.0</ele><time>2026-04-11T17:00:35Z</time></trkpt><trkpt lat="45.50250420090958" lon="8.958248129313874"><ele>153.0</ele><time>2026-04-11T17:00:36Z</time></trkpt><trkpt lat="45.50253120087488" lon="8.958587183636736"><ele>153.5</ele><time>2026-04-11T17:00:37Z</time></trkpt><trkpt lat="45.50255724637841" lon="8.958923511790116"><ele>154.0</ele><time>2026-04-11T17:00:38Z</time></trkpt><trkpt lat="45.502584345828105" lon="8.959257820496939"><ele>153.0</ele><time>2026-04-11T17:00:39Z</time></trkpt><trkpt lat="45.5026099853392" lon="8.959590258311732"><ele>152.0</ele><time>2026-04-11T17:00:40Z</time></trkpt><trkpt lat="45.50263540765968" lon="8.959932243350837"><ele>152.0</ele><time>2026-04-11T17:00:41Z</time></trkpt><trkpt lat="45.50266339420124" lon="8.96027096562053"><ele>152.0</ele><time>2026-04-11T17:00:42Z</time></trkpt><trkpt lat="45.50269166923417" lon="8.960608466772072"><ele>150.5</ele><time>2026-04-11T17:00:43Z</time></trkpt><trkpt lat="45.502719848773104" lon="8.960946547325413"><ele>149.0</ele><time>2026-04-11T17:00:44Z</time></trkpt><trkpt lat="45.502746915077516" lon="8.961289116370727"><ele>149.0</ele><time>2026-04-11T17:00:45Z</time></trkpt><trkpt lat="45.50277591510801" lon="8.961632533124918"><ele>149.0</ele><time>2026-04-11T17:00:46Z</time></trkpt><trkpt lat="45.50280272627381" lon="8.961969287164655"><ele>148.5</ele><time>2026-04-11T17:00:47Z</time></trkpt><trkpt lat="45.502830176822705" lon="8.962310203235493"><ele>148.0</ele><time>2026-04-11T17:00:48.001Z</time></trkpt><trkpt lat="45.502858223036675" lon="8.962650584382875"><ele>149.0</ele><time>2026-04-11T17:00:49.001Z</time></trkpt><trkpt lat="45.502886105035905" lon="8.962995454809308"><ele>150.0</ele><time>2026-04-11T17:00:50.001Z</time></trkpt><trkpt lat="45.502912380060174" lon="8.96333369175433"><ele>151.5</ele><time>2026-04-11T17:00:51.001Z</time></trkpt><trkpt lat="45.502939120172115" lon="8.963672649512198"><ele>153.0</ele><time>2026-04-11T17:00:52.001Z</time></trkpt><trkpt lat="45.50296667553826" lon="8.964012678027476"><ele>151.5</ele><time>2026-04-11T17:00:53.001Z</time></trkpt><trkpt lat="45.50299574595089" lon="8.964342509249674"><ele>150.0</ele><time>2026-04-11T17:00:54.001Z</time></trkpt><trkpt lat="45.50302454257885" lon="8.96467524913636"><ele>150.0</ele><time>2026-04-11T17:00:55.001Z</time></trkpt><trkpt lat="45.50304874123662" lon="8.964999357017403"><ele>150.0</ele><time>2026-04-11T17:00:56.001Z</time></trkpt><trkpt lat="45.50307434249832" lon="8.965330038344568"><ele>150.5</ele><time>2026-04-11T17:00:57.001Z</time></trkpt><trkpt lat="45.50310053935081" lon="8.965661093444606"><ele>151.0</ele><time>2026-04-11T17:00:58.001Z</time></trkpt><trkpt lat="45.503126177942775" lon="8.965990834079419"><ele>151.5</ele><time>2026-04-11T17:00:59.001Z</time></trkpt><trkpt lat="45.50315270318659" lon="8.966318602657342"><ele>152.0</ele><time>2026-04-11T17:01:00.001Z</time></trkpt><trkpt lat="45.50317975280323" lon="8.96665508995521"><ele>151.0</ele><time>2026-04-11T17:01:01.001Z</time></trkpt><trkpt lat="45.503204936070176" lon="8.966983737191148"><ele>150.0</ele><time>2026-04-11T17:01:02.001Z</time></trkpt><trkpt lat="45.503229807595694" lon="8.967317895404214"><ele>150.5</ele><time>2026-04-11T17:01:03.001Z</time></trkpt><trkpt lat="45.503257896742355" lon="8.967654017108206"><ele>151.0</ele><time>2026-04-11T17:01:04.001Z</time></trkpt><trkpt lat="45.503286964352974" lon="8.967998088033962"><ele>151.0</ele><time>2026-04-11T17:01:05.001Z</time></trkpt><trkpt lat="45.50331552449602" lon="8.968341392176942"><ele>151.0</ele><time>2026-04-11T17:01:06.001Z</time></trkpt><trkpt lat="45.50334431224722" lon="8.968689528803694"><ele>151.5</ele><time>2026-04-11T17:01:07.001Z</time></trkpt><trkpt lat="45.50337252374603" lon="8.96903665067898"><ele>152.0</ele><time>2026-04-11T17:01:08.001Z</time></trkpt><trkpt lat="45.503399389507116" lon="8.969389237080204"><ele>152.5</ele><time>2026-04-11T17:01:09.001Z</time></trkpt><trkpt lat="45.50342810332662" lon="8.969744683366766"><ele>153.0</ele><time>2026-04-11T17:01:10.001Z</time></trkpt><trkpt lat="45.50345556586712" lon="8.970099723541553"><ele>151.5</ele><time>2026-04-11T17:01:11.001Z</time></trkpt><trkpt lat="45.50348151547806" lon="8.970451702399478"><ele>150.0</ele><time>2026-04-11T17:01:12.001Z</time></trkpt><trkpt lat="45.50350898842552" lon="8.97080446900246"><ele>150.5</ele><time>2026-04-11T17:01:13.001Z</time></trkpt><trkpt lat="45.50353717378982" lon="8.971153867389285"><ele>151.0</ele><time>2026-04-11T17:01:14.001Z</time></trkpt><trkpt lat="45.50356619854745" lon="8.97150658112802"><ele>152.0</ele><time>2026-04-11T17:01:15.001Z</time></trkpt><trkpt lat="45.5035942468284" lon="8.971853297067717"><ele>153.0</ele><time>2026-04-11T17:01:16.001Z</time></trkpt><trkpt lat="45.50362293284545" lon="8.972198402349331"><ele>153.5</ele><time>2026-04-11T17:01:17.001Z</time></trkpt><trkpt lat="45.50365029330189" lon="8.972546184844012"><ele>154.0</ele><time>2026-04-11T17:01:18.001Z</time></trkpt><trkpt lat="45.50367644353153" lon="8.972886349149718"><ele>154.0</ele><time>2026-04-11T17:01:19.001Z</time></trkpt><trkpt lat="45.50370310125951" lon="8.97323280393171"><ele>154.0</ele><time>2026-04-11T17:01:20.001Z</time></trkpt><trkpt lat="45.50372887025482" lon="8.973577564659198"><ele>154.0</ele><time>2026-04-11T17:01:21.001Z</time></trkpt><trkpt lat="45.50375737849543" lon="8.973919343127886"><ele>154.0</ele><time>2026-04-11T17:01:22.001Z</time></trkpt><trkpt lat="45.50378802520592" lon="8.97426623051958"><ele>153.0</ele><time>2026-04-11T17:01:23.001Z</time></trkpt><trkpt lat="45.50381297177134" lon="8.974608173021243"><ele>152.0</ele><time>2026-04-11T17:01:24.001Z</time></trkpt><trkpt lat="45.50384330952637" lon="8.974962899070038"><ele>152.5</ele><time>2026-04-11T17:01:25.001Z</time></trkpt><trkpt lat="45.50387188594926" lon="8.975308065085997"><ele>153.0</ele><time>2026-04-11T17:01:26.001Z</time></trkpt><trkpt lat="45.50389969824151" lon="8.975653573472098"><ele>151.5</ele><time>2026-04-11T17:01:27.001Z</time></trkpt><trkpt lat="45.503928593352164" lon="8.97599862436533"><ele>150.0</ele><time>2026-04-11T17:01:28.001Z</time></trkpt><trkpt lat="45.503955811659054" lon="8.97634147725905"><ele>150.0</ele><time>2026-04-11T17:01:29.001Z</time></trkpt><trkpt lat="45.50398166945792" lon="8.976681677666233"><ele>150.0</ele><time>2026-04-11T17:01:30.001Z</time></trkpt><trkpt lat="45.504009183628554" lon="8.97702073283846"><ele>150.0</ele><time>2026-04-11T17:01:31.001Z</time></trkpt><trkpt lat="45.504035296764485" lon="8.977357696572652"><ele>150.0</ele><time>2026-04-11T17:01:32.001Z</time></trkpt><trkpt lat="45.50406206913746" lon="8.97769296545178"><ele>150.0</ele><time>2026-04-11T17:01:33.001Z</time></trkpt><trkpt lat="45.50408828616619" lon="8.978028702181133"><ele>150.0</ele><time>2026-04-11T17:01:34.001Z</time></trkpt><trkpt lat="45.504117038656545" lon="8.978365827100328"><ele>150.0</ele><time>2026-04-11T17:01:35.001Z</time></trkpt><trkpt lat="45.50414334861042" lon="8.97870101715091"><ele>150.0</ele><time>2026-04-11T17:01:36.001Z</time></trkpt><trkpt lat="45.50417136608177" lon="8.979040154047661"><ele>151.0</ele><time>2026-04-11T17:01:37.001Z</time></trkpt><trkpt lat="45.504199194568365" lon="8.97937908315244"><ele>152.0</ele><time>2026-04-11T17:01:38.001Z</time></trkpt><trkpt lat="45.50422653628952" lon="8.979716321749917"><ele>151.5</ele><time>2026-04-11T17:01:39.001Z</time></trkpt><trkpt lat="45.50425491293683" lon="8.98005753219399"><ele>151.0</ele><time>2026-04-11T17:01:40.001Z</time></trkpt><trkpt lat="45.50428194465461" lon="8.980398396133317"><ele>151.0</ele><time>2026-04-11T17:01:41.001Z</time></trkpt><trkpt lat="45.504309066649874" lon="8.980737091494852"><ele>151.0</ele><time>2026-04-11T17:01:42.001Z</time></trkpt><trkpt lat="45.5043383423688" lon="8.981079591337725"><ele>149.0</ele><time>2026-04-11T17:01:43.001Z</time></trkpt><trkpt lat="45.504364946226936" lon="8.981418334304916"><ele>147.0</ele><time>2026-04-11T17:01:44.001Z</time></trkpt><trkpt lat="45.504391710752714" lon="8.981751478863568"><ele>146.5</ele><time>2026-04-11T17:01:45.001Z</time></trkpt><trkpt lat="45.50441936456835" lon="8.982086021167609"><ele>146.0</ele><time>2026-04-11T17:01:46.001Z</time></trkpt><trkpt lat="45.504446471127174" lon="8.982412425372758"><ele>147.5</ele><time>2026-04-11T17:01:47.001Z</time></trkpt><trkpt lat="45.50447355615748" lon="8.982738369273676"><ele>149.0</ele><time>2026-04-11T17:01:48.001Z</time></trkpt><trkpt lat="45.5045001019573" lon="8.983070668693884"><ele>150.5</ele><time>2026-04-11T17:01:49.001Z</time></trkpt><trkpt lat="45.50452572936197" lon="8.983396632662886"><ele>152.0</ele><time>2026-04-11T17:01:50.001Z</time></trkpt><trkpt lat="45.50455288427276" lon="8.983723924979508"><ele>152.0</ele><time>2026-04-11T17:01:51.001Z</time></trkpt><trkpt lat="45.504579841227425" lon="8.984053481307798"><ele>152.0</ele><time>2026-04-11T17:01:52.001Z</time></trkpt><trkpt lat="45.504606911726235" lon="8.984386197022753"><ele>152.0</ele><time>2026-04-11T17:01:53.001Z</time></trkpt><trkpt lat="45.50463412678058" lon="8.984722537848025"><ele>152.0</ele><time>2026-04-11T17:01:54.001Z</time></trkpt><trkpt lat="45.504661755665516" lon="8.9850572495605"><ele>152.0</ele><time>2026-04-11T17:01:55.001Z</time></trkpt><trkpt lat="45.50468933934784" lon="8.985399474873125"><ele>152.0</ele><time>2026-04-11T17:01:56.001Z</time></trkpt><trkpt lat="45.504715156870354" lon="8.985734458072228"><ele>153.0</ele><time>2026-04-11T17:01:57.001Z</time></trkpt><trkpt lat="45.50474323903681" lon="8.986073866032454"><ele>154.0</ele><time>2026-04-11T17:01:58Z</time></trkpt><trkpt lat="45.50476990016256" lon="8.986409824814325"><ele>153.0</ele><time>2026-04-11T17:01:59Z</time></trkpt><trkpt lat="45.5047988238721" lon="8.986745447753782"><ele>152.0</ele><time>2026-04-11T17:02:00Z</time></trkpt><trkpt lat="45.50482596046082" lon="8.9870811387584"><ele>152.0</ele><time>2026-04-11T17:02:01Z</time></trkpt><trkpt lat="45.50485208593972" lon="8.987414376265711"><ele>152.0</ele><time>2026-04-11T17:02:02Z</time></trkpt><trkpt lat="45.50487999876361" lon="8.987750416141752"><ele>152.5</ele><time>2026-04-11T17:02:03Z</time></trkpt><trkpt lat="45.504905856073044" lon="8.988078056247167"><ele>153.0</ele><time>2026-04-11T17:02:04Z</time></trkpt><trkpt lat="45.50493601157523" lon="8.988423152431269"><ele>154.0</ele><time>2026-04-11T17:02:05Z</time></trkpt><trkpt lat="45.50496147356571" lon="8.988762086526025"><ele>155.0</ele><time>2026-04-11T17:02:06Z</time></trkpt><trkpt lat="45.504987139853526" lon="8.98910237343775"><ele>154.0</ele><time>2026-04-11T17:02:07Z</time></trkpt><trkpt lat="45.50501372563775" lon="8.989440414992915"><ele>153.0</ele><time>2026-04-11T17:02:08Z</time></trkpt><trkpt lat="45.505041486872436" lon="8.989778363715157"><ele>151.5</ele><time>2026-04-11T17:02:09Z</time></trkpt><trkpt lat="45.50506826954757" lon="8.990118191094616"><ele>150.0</ele><time>2026-04-11T17:02:10Z</time></trkpt><trkpt lat="45.50509520364965" lon="8.99046023629024"><ele>150.0</ele><time>2026-04-11T17:02:11Z</time></trkpt><trkpt lat="45.50512216182851" lon="8.990801966224298"><ele>150.0</ele><time>2026-04-11T17:02:12Z</time></trkpt><trkpt lat="45.50514900804713" lon="8.991143343747137"><ele>149.5</ele><time>2026-04-11T17:02:13Z</time></trkpt><trkpt lat="45.505175297243994" lon="8.991482711985025"><ele>149.0</ele><time>2026-04-11T17:02:14Z</time></trkpt><trkpt lat="45.505205130294705" lon="8.991823515001379"><ele>149.0</ele><time>2026-04-11T17:02:15Z</time></trkpt><trkpt lat="45.50523158405773" lon="8.992158793625435"><ele>149.0</ele><time>2026-04-11T17:02:16Z</time></trkpt><trkpt lat="45.505258037439525" lon="8.992492166393193"><ele>149.5</ele><time>2026-04-11T17:02:17Z</time></trkpt><trkpt lat="45.50528348224104" lon="8.992827433422388"><ele>150.0</ele><time>2026-04-11T17:02:18Z</time></trkpt><trkpt lat="45.505310689521316" lon="8.9931644581307"><ele>151.5</ele><time>2026-04-11T17:02:19Z</time></trkpt><trkpt lat="45.50533722830485" lon="8.993497857256234"><ele>153.0</ele><time>2026-04-11T17:02:20Z</time></trkpt><trkpt lat="45.505362362483254" lon="8.993837415743455"><ele>152.5</ele><time>2026-04-11T17:02:21Z</time></trkpt><trkpt lat="45.505392448540775" lon="8.994181897659374"><ele>152.0</ele><time>2026-04-11T17:02:22Z</time></trkpt><trkpt lat="45.50541867652863" lon="8.994522179677215"><ele>152.0</ele><time>2026-04-11T17:02:23Z</time></trkpt><trkpt lat="45.50544583079118" lon="8.99486508892561"><ele>152.0</ele><time>2026-04-11T17:02:24Z</time></trkpt><trkpt lat="45.50547321523193" lon="8.995208606429642"><ele>152.5</ele><time>2026-04-11T17:02:25Z</time></trkpt><trkpt lat="45.505500120369994" lon="8.995552601260387"><ele>153.0</ele><time>2026-04-11T17:02:26Z</time></trkpt><trkpt lat="45.50552858798697" lon="8.995897364985826"><ele>153.0</ele><time>2026-04-11T17:02:27Z</time></trkpt><trkpt lat="45.505555006917184" lon="8.99623850219859"><ele>153.0</ele><time>2026-04-11T17:02:28Z</time></trkpt><trkpt lat="45.50558287365379" lon="8.996578748738717"><ele>153.0</ele><time>2026-04-11T17:02:29Z</time></trkpt><trkpt lat="45.505610203861245" lon="8.996914320371255"><ele>153.0</ele><time>2026-04-11T17:02:30Z</time></trkpt><trkpt lat="45.50563737333726" lon="8.997247393089644"><ele>151.5</ele><time>2026-04-11T17:02:31Z</time></trkpt><trkpt lat="45.50566357885161" lon="8.99757578804739"><ele>150.0</ele><time>2026-04-11T17:02:32Z</time></trkpt><trkpt lat="45.50568220730634" lon="8.997897583347292"><ele>150.0</ele><time>2026-04-11T17:02:33Z</time></trkpt><trkpt lat="45.5057070377013" lon="8.998225227189051"><ele>150.0</ele><time>2026-04-11T17:02:34Z</time></trkpt><trkpt lat="45.50572955434306" lon="8.998549648908188"><ele>149.66666666666666</ele><time>2026-04-11T17:02:35Z</time></trkpt><trkpt lat="45.50574773171383" lon="8.998875974596265"><ele>149.33333333333331</ele><time>2026-04-11T17:02:36Z</time></trkpt><trkpt lat="45.505771805285306" lon="8.999179972246965"><ele>149.0</ele><time>2026-04-11T17:02:37Z</time></trkpt><trkpt lat="45.50579111613587" lon="8.99951637272375"><ele>149.0</ele><time>2026-04-11T17:02:38Z</time></trkpt><trkpt lat="45.50581528686692" lon="8.99984662953745"><ele>149.0</ele><time>2026-04-11T17:02:39Z</time></trkpt><trkpt lat="45.50583952489975" lon="9.000169889525022"><ele>149.0</ele><time>2026-04-11T17:02:40Z</time></trkpt><trkpt lat="45.505854200896614" lon="9.000452622523623"><ele>149.0</ele><time>2026-04-11T17:02:41Z</time></trkpt><trkpt lat="45.50588023330858" lon="9.000808963834393"><ele>148.5</ele><time>2026-04-11T17:02:42Z</time></trkpt><trkpt lat="45.50590978165762" lon="9.001182605560086"><ele>148.0</ele><time>2026-04-11T17:02:43Z</time></trkpt><trkpt lat="45.505937897365925" lon="9.001554107305495"><ele>148.5</ele><time>2026-04-11T17:02:44Z</time></trkpt><trkpt lat="45.50593233335445" lon="9.001930266777203"><ele>149.0</ele><time>2026-04-11T17:02:45Z</time></trkpt><trkpt lat="45.506043507135956" lon="9.002248482991282"><ele>149.5</ele><time>2026-04-11T17:02:46Z</time></trkpt><trkpt lat="45.50606521969133" lon="9.002681233141924"><ele>150.0</ele><time>2026-04-11T17:02:47Z</time></trkpt><trkpt lat="45.5061110669379" lon="9.003043269091009"><ele>151.0</ele><time>2026-04-11T17:02:48.001Z</time></trkpt><trkpt lat="45.50615250178384" lon="9.003392543510692"><ele>152.0</ele><time>2026-04-11T17:02:49.001Z</time></trkpt><trkpt lat="45.50618634915494" lon="9.003736503435302"><ele>152.0</ele><time>2026-04-11T17:02:50.001Z</time></trkpt><trkpt lat="45.5062184867037" lon="9.00407510813013"><ele>152.0</ele><time>2026-04-11T17:02:51.001Z</time></trkpt><trkpt lat="45.5062427041617" lon="9.004425604291756"><ele>151.0</ele><time>2026-04-11T17:02:52.001Z</time></trkpt><trkpt lat="45.50627000002638" lon="9.00476608685135"><ele>150.0</ele><time>2026-04-11T17:02:53.001Z</time></trkpt><trkpt lat="45.50629635309176" lon="9.005104907629619"><ele>149.5</ele><time>2026-04-11T17:02:54.001Z</time></trkpt><trkpt lat="45.50631941467953" lon="9.005448850086971"><ele>149.0</ele><time>2026-04-11T17:02:55.001Z</time></trkpt><trkpt lat="45.50634240213934" lon="9.005786285990782"><ele>147.5</ele><time>2026-04-11T17:02:56.001Z</time></trkpt><trkpt lat="45.50636855390069" lon="9.006123564939632"><ele>146.0</ele><time>2026-04-11T17:02:57.001Z</time></trkpt><trkpt lat="45.50639657996906" lon="9.006457521144178"><ele>148.0</ele><time>2026-04-11T17:02:58.001Z</time></trkpt><trkpt lat="45.50641963832653" lon="9.006793475040451"><ele>150.0</ele><time>2026-04-11T17:02:59.001Z</time></trkpt><trkpt lat="45.506449405625034" lon="9.007125893553749"><ele>150.0</ele><time>2026-04-11T17:03:00.001Z</time></trkpt><trkpt lat="45.50647743213788" lon="9.007461058076938"><ele>150.0</ele><time>2026-04-11T17:03:01.001Z</time></trkpt><trkpt lat="45.506502732332244" lon="9.007796237482145"><ele>150.0</ele><time>2026-04-11T17:03:02.001Z</time></trkpt><trkpt lat="45.50652815275738" lon="9.008124516993968"><ele>150.0</ele><time>2026-04-11T17:03:03.001Z</time></trkpt><trkpt lat="45.50655907783967" lon="9.008456625235512"><ele>149.0</ele><time>2026-04-11T17:03:04.001Z</time></trkpt><trkpt lat="45.506589101957275" lon="9.008789588578296"><ele>148.0</ele><time>2026-04-11T17:03:05.001Z</time></trkpt><trkpt lat="45.50661706160049" lon="9.00911575513812"><ele>149.0</ele><time>2026-04-11T17:03:06.001Z</time></trkpt><trkpt lat="45.506645925512785" lon="9.009446355424297"><ele>150.0</ele><time>2026-04-11T17:03:07.001Z</time></trkpt><trkpt lat="45.50667106738535" lon="9.009778021545296"><ele>150.0</ele><time>2026-04-11T17:03:08.001Z</time></trkpt><trkpt lat="45.50669788624878" lon="9.010102700528876"><ele>150.0</ele><time>2026-04-11T17:03:09.001Z</time></trkpt><trkpt lat="45.50672659109064" lon="9.010428583850763"><ele>150.0</ele><time>2026-04-11T17:03:10.001Z</time></trkpt><trkpt lat="45.506756886353735" lon="9.010752997487243"><ele>150.0</ele><time>2026-04-11T17:03:11.001Z</time></trkpt><trkpt lat="45.50678518199855" lon="9.011070243007836"><ele>151.0</ele><time>2026-04-11T17:03:12.001Z</time></trkpt><trkpt lat="45.50681689208593" lon="9.011396410006869"><ele>152.0</ele><time>2026-04-11T17:03:13.001Z</time></trkpt><trkpt lat="45.506848655731936" lon="9.011724230473122"><ele>152.0</ele><time>2026-04-11T17:03:14.001Z</time></trkpt><trkpt lat="45.506879355995345" lon="9.01205125465197"><ele>152.0</ele><time>2026-04-11T17:03:15.001Z</time></trkpt><trkpt lat="45.50691317408034" lon="9.012383966051862"><ele>151.5</ele><time>2026-04-11T17:03:16.001Z</time></trkpt><trkpt lat="45.50694486868292" lon="9.012715663527471"><ele>151.0</ele><time>2026-04-11T17:03:17.001Z</time></trkpt><trkpt lat="45.50697900751014" lon="9.013054366102812"><ele>150.0</ele><time>2026-04-11T17:03:18.001Z</time></trkpt><trkpt lat="45.50701289771124" lon="9.013388997081682"><ele>149.0</ele><time>2026-04-11T17:03:19.001Z</time></trkpt><trkpt lat="45.50704493132477" lon="9.013724301511228"><ele>149.5</ele><time>2026-04-11T17:03:20.001Z</time></trkpt><trkpt lat="45.50707923676871" lon="9.014058167822325"><ele>150.0</ele><time>2026-04-11T17:03:21.001Z</time></trkpt><trkpt lat="45.507114788826286" lon="9.014391449569894"><ele>150.5</ele><time>2026-04-11T17:03:22.001Z</time></trkpt><trkpt lat="45.50714895901169" lon="9.014726673388324"><ele>151.0</ele><time>2026-04-11T17:03:23.001Z</time></trkpt><trkpt lat="45.507186410661596" lon="9.015055855128615"><ele>151.0</ele><time>2026-04-11T17:03:24.001Z</time></trkpt><trkpt lat="45.507221832083005" lon="9.015384631197575"><ele>151.0</ele><time>2026-04-11T17:03:25.001Z</time></trkpt><trkpt lat="45.5072544342053" lon="9.015708997877597"><ele>150.5</ele><time>2026-04-11T17:03:26.001Z</time></trkpt><trkpt lat="45.507286817143346" lon="9.01603781837052"><ele>150.0</ele><time>2026-04-11T17:03:27.001Z</time></trkpt><trkpt lat="45.50732113217328" lon="9.016367852582205"><ele>149.5</ele><time>2026-04-11T17:03:28.001Z</time></trkpt><trkpt lat="45.507355862562186" lon="9.0166955301818"><ele>149.0</ele><time>2026-04-11T17:03:29.001Z</time></trkpt><trkpt lat="45.50739171603715" lon="9.017027531592213"><ele>149.0</ele><time>2026-04-11T17:03:30.001Z</time></trkpt><trkpt lat="45.50742614060579" lon="9.017354434546546"><ele>149.0</ele><time>2026-04-11T17:03:31.001Z</time></trkpt><trkpt lat="45.507461243375936" lon="9.0176884782773"><ele>149.0</ele><time>2026-04-11T17:03:32.001Z</time></trkpt><trkpt lat="45.507495365197954" lon="9.018022295756074"><ele>149.0</ele><time>2026-04-11T17:03:33.001Z</time></trkpt><trkpt lat="45.50753020451121" lon="9.018356411077107"><ele>149.0</ele><time>2026-04-11T17:03:34.001Z</time></trkpt><trkpt lat="45.50756702525893" lon="9.01868876734244"><ele>149.0</ele><time>2026-04-11T17:03:35.001Z</time></trkpt><trkpt lat="45.507603324327924" lon="9.019022687760534"><ele>148.5</ele><time>2026-04-11T17:03:36.001Z</time></trkpt><trkpt lat="45.507642526687505" lon="9.019358698866426"><ele>148.0</ele><time>2026-04-11T17:03:37.001Z</time></trkpt><trkpt lat="45.50767849432586" lon="9.019692471675212"><ele>148.0</ele><time>2026-04-11T17:03:38.001Z</time></trkpt><trkpt lat="45.50771527413303" lon="9.020025637303617"><ele>148.0</ele><time>2026-04-11T17:03:39.001Z</time></trkpt><trkpt lat="45.50775174101284" lon="9.020361526420217"><ele>148.0</ele><time>2026-04-11T17:03:40.001Z</time></trkpt><trkpt lat="45.507787191548594" lon="9.020696005866798"><ele>148.0</ele><time>2026-04-11T17:03:41.001Z</time></trkpt><trkpt lat="45.50782322878888" lon="9.02103184944623"><ele>148.5</ele><time>2026-04-11T17:03:42.001Z</time></trkpt><trkpt lat="45.507859237058945" lon="9.021365975853854"><ele>149.0</ele><time>2026-04-11T17:03:43.001Z</time></trkpt><trkpt lat="45.50789470691126" lon="9.021697621791516"><ele>150.0</ele><time>2026-04-11T17:03:44.001Z</time></trkpt><trkpt lat="45.50793151162629" lon="9.022031723267542"><ele>151.0</ele><time>2026-04-11T17:03:45.001Z</time></trkpt><trkpt lat="45.50796520645247" lon="9.022365017902377"><ele>150.0</ele><time>2026-04-11T17:03:46.001Z</time></trkpt><trkpt lat="45.50799962856648" lon="9.022700596844231"><ele>149.0</ele><time>2026-04-11T17:03:47.001Z</time></trkpt><trkpt lat="45.50803301722892" lon="9.023033410088816"><ele>148.5</ele><time>2026-04-11T17:03:48.001Z</time></trkpt><trkpt lat="45.50806794923439" lon="9.02336418617189"><ele>148.0</ele><time>2026-04-11T17:03:49.001Z</time></trkpt><trkpt lat="45.50810179406511" lon="9.02369319607722"><ele>148.0</ele><time>2026-04-11T17:03:50.001Z</time></trkpt><trkpt lat="45.50813822817115" lon="9.024023690110248"><ele>148.0</ele><time>2026-04-11T17:03:51.001Z</time></trkpt><trkpt lat="45.50817544404791" lon="9.02435574459768"><ele>147.5</ele><time>2026-04-11T17:03:52.001Z</time></trkpt><trkpt lat="45.50820912143801" lon="9.024683324184725"><ele>147.0</ele><time>2026-04-11T17:03:53.001Z</time></trkpt><trkpt lat="45.508243245234624" lon="9.025013507421138"><ele>147.0</ele><time>2026-04-11T17:03:54.001Z</time></trkpt><trkpt lat="45.50827820330213" lon="9.025340366707638"><ele>147.0</ele><time>2026-04-11T17:03:55.001Z</time></trkpt><trkpt lat="45.508311136020346" lon="9.02566660921254"><ele>147.0</ele><time>2026-04-11T17:03:56.001Z</time></trkpt><trkpt lat="45.508348764031865" lon="9.026000784095197"><ele>147.0</ele><time>2026-04-11T17:03:57.001Z</time></trkpt><trkpt lat="45.50838535655666" lon="9.026331472860853"><ele>146.5</ele><time>2026-04-11T17:03:58.001Z</time></trkpt><trkpt lat="45.50842129731915" lon="9.02666338922289"><ele>146.0</ele><time>2026-04-11T17:03:59.001Z</time></trkpt><trkpt lat="45.508458677417124" lon="9.026993897916862"><ele>146.0</ele><time>2026-04-11T17:04:00.001Z</time></trkpt><trkpt lat="45.508492251310024" lon="9.027323710380976"><ele>146.0</ele><time>2026-04-11T17:04:01.002Z</time></trkpt><trkpt lat="45.50852850406439" lon="9.027653584434054"><ele>145.5</ele><time>2026-04-11T17:04:02.002Z</time></trkpt><trkpt lat="45.50856528998267" lon="9.02798208171677"><ele>145.0</ele><time>2026-04-11T17:04:03.002Z</time></trkpt><trkpt lat="45.50859876211843" lon="9.028308162314799"><ele>145.5</ele><time>2026-04-11T17:04:04Z</time></trkpt><trkpt lat="45.50863243421565" lon="9.028637284586713"><ele>146.0</ele><time>2026-04-11T17:04:05Z</time></trkpt><trkpt lat="45.508664631461045" lon="9.028965945808112"><ele>146.0</ele><time>2026-04-11T17:04:06Z</time></trkpt><trkpt lat="45.5087003136655" lon="9.029297940053594"><ele>146.0</ele><time>2026-04-11T17:04:07Z</time></trkpt><trkpt lat="45.50873397462077" lon="9.02962337858515"><ele>146.0</ele><time>2026-04-11T17:04:08Z</time></trkpt><trkpt lat="45.50877031986058" lon="9.029950438908743"><ele>146.0</ele><time>2026-04-11T17:04:09Z</time></trkpt><trkpt lat="45.50880522170165" lon="9.030273662024504"><ele>145.5</ele><time>2026-04-11T17:04:10Z</time></trkpt><trkpt lat="45.50884174160897" lon="9.030596570747326"><ele>145.0</ele><time>2026-04-11T17:04:11Z</time></trkpt><trkpt lat="45.50887551266904" lon="9.030915272465704"><ele>146.0</ele><time>2026-04-11T17:04:12Z</time></trkpt><trkpt lat="45.5089091820471" lon="9.031239043143831"><ele>147.0</ele><time>2026-04-11T17:04:13Z</time></trkpt><trkpt lat="45.50894741933542" lon="9.031554864121038"><ele>147.0</ele><time>2026-04-11T17:04:14Z</time></trkpt><trkpt lat="45.508982284220025" lon="9.031866830026463"><ele>147.0</ele><time>2026-04-11T17:04:15Z</time></trkpt><trkpt lat="45.50901585748935" lon="9.032184055362585"><ele>147.0</ele><time>2026-04-11T17:04:16Z</time></trkpt><trkpt lat="45.50904990679278" lon="9.032505251727175"><ele>147.0</ele><time>2026-04-11T17:04:17Z</time></trkpt><trkpt lat="45.50908292844873" lon="9.032827111102907"><ele>147.0</ele><time>2026-04-11T17:04:18Z</time></trkpt><trkpt lat="45.509119138373116" lon="9.033150986728995"><ele>147.0</ele><time>2026-04-11T17:04:19Z</time></trkpt><trkpt lat="45.50915424549624" lon="9.033478101719933"><ele>147.0</ele><time>2026-04-11T17:04:20Z</time></trkpt><trkpt lat="45.50918946539694" lon="9.03380111040892"><ele>147.0</ele><time>2026-04-11T17:04:21Z</time></trkpt><trkpt lat="45.5092238384826" lon="9.034123592781059"><ele>147.0</ele><time>2026-04-11T17:04:22Z</time></trkpt><trkpt lat="45.509260509685014" lon="9.034446692792729"><ele>146.0</ele><time>2026-04-11T17:04:23Z</time></trkpt><trkpt lat="45.50929417583926" lon="9.034764276796245"><ele>145.0</ele><time>2026-04-11T17:04:24Z</time></trkpt><trkpt lat="45.509329161959215" lon="9.035088622601622"><ele>145.0</ele><time>2026-04-11T17:04:25Z</time></trkpt><trkpt lat="45.50935939775281" lon="9.035407896498262"><ele>145.0</ele><time>2026-04-11T17:04:26Z</time></trkpt><trkpt lat="45.509392253130365" lon="9.035725021147881"><ele>146.0</ele><time>2026-04-11T17:04:27Z</time></trkpt><trkpt lat="45.509432188218334" lon="9.036044463542414"><ele>147.0</ele><time>2026-04-11T17:04:28Z</time></trkpt><trkpt lat="45.50947082358883" lon="9.036363508413814"><ele>148.0</ele><time>2026-04-11T17:04:29Z</time></trkpt><trkpt lat="45.5095065765685" lon="9.036679845480386"><ele>149.0</ele><time>2026-04-11T17:04:30Z</time></trkpt><trkpt lat="45.509540778485494" lon="9.036999442587048"><ele>149.0</ele><time>2026-04-11T17:04:31Z</time></trkpt><trkpt lat="45.509574663299865" lon="9.03731809241392"><ele>149.0</ele><time>2026-04-11T17:04:32Z</time></trkpt><trkpt lat="45.50961202771225" lon="9.037646137491354"><ele>147.0</ele><time>2026-04-11T17:04:33Z</time></trkpt><trkpt lat="45.50964906464233" lon="9.037974976501507"><ele>145.0</ele><time>2026-04-11T17:04:34Z</time></trkpt><trkpt lat="45.509684933786204" lon="9.038303287199774"><ele>145.0</ele><time>2026-04-11T17:04:35Z</time></trkpt><trkpt lat="45.509720898824746" lon="9.038633622318654"><ele>145.0</ele><time>2026-04-11T17:04:36Z</time></trkpt><trkpt lat="45.50975892323433" lon="9.038976524133108"><ele>145.0</ele><time>2026-04-11T17:04:37Z</time></trkpt><trkpt lat="45.50979532291185" lon="9.039334335125131"><ele>145.0</ele><time>2026-04-11T17:04:38Z</time></trkpt><trkpt lat="45.509836179805525" lon="9.039701194486907"><ele>145.0</ele><time>2026-04-11T17:04:39Z</time></trkpt><trkpt lat="45.50987655411266" lon="9.040071386855539"><ele>145.0</ele><time>2026-04-11T17:04:40Z</time></trkpt><trkpt lat="45.50991625072562" lon="9.040440244904117"><ele>145.0</ele><time>2026-04-11T17:04:41Z</time></trkpt><trkpt lat="45.50995677155376" lon="9.040804621575731"><ele>145.0</ele><time>2026-04-11T17:04:42Z</time></trkpt><trkpt lat="45.50999384514561" lon="9.041157582536037"><ele>145.0</ele><time>2026-04-11T17:04:43Z</time></trkpt><trkpt lat="45.51003111895879" lon="9.041501219961095"><ele>145.0</ele><time>2026-04-11T17:04:44Z</time></trkpt><trkpt lat="45.51006725680857" lon="9.041840414430572"><ele>145.0</ele><time>2026-04-11T17:04:45Z</time></trkpt><trkpt lat="45.510102124099994" lon="9.042176881343401"><ele>145.0</ele><time>2026-04-11T17:04:46Z</time></trkpt><trkpt lat="45.510137442876946" lon="9.042505031796276"><ele>146.0</ele><time>2026-04-11T17:04:47Z</time></trkpt><trkpt lat="45.51017334544538" lon="9.042832765894845"><ele>147.0</ele><time>2026-04-11T17:04:48Z</time></trkpt><trkpt lat="45.51020688895891" lon="9.043158475140967"><ele>146.5</ele><time>2026-04-11T17:04:49Z</time></trkpt><trkpt lat="45.510240974818664" lon="9.04348884222389"><ele>146.0</ele><time>2026-04-11T17:04:50Z</time></trkpt><trkpt lat="45.5102760466921" lon="9.043817998805904"><ele>147.0</ele><time>2026-04-11T17:04:51Z</time></trkpt><trkpt lat="45.51031162263925" lon="9.044148949155295"><ele>148.0</ele><time>2026-04-11T17:04:52Z</time></trkpt><trkpt lat="45.51034822231032" lon="9.044481077764061"><ele>148.0</ele><time>2026-04-11T17:04:53Z</time></trkpt><trkpt lat="45.51038512788063" lon="9.044813103550913"><ele>148.0</ele><time>2026-04-11T17:04:54Z</time></trkpt><trkpt lat="45.51042058159898" lon="9.045148589103983"><ele>148.5</ele><time>2026-04-11T17:04:55Z</time></trkpt><trkpt lat="45.51045477040583" lon="9.045481039003718"><ele>149.0</ele><time>2026-04-11T17:04:56Z</time></trkpt><trkpt lat="45.510490573337535" lon="9.045812244334286"><ele>149.0</ele><time>2026-04-11T17:04:57Z</time></trkpt><trkpt lat="45.5105273466004" lon="9.04613727519524"><ele>149.0</ele><time>2026-04-11T17:04:58Z</time></trkpt><trkpt lat="45.51056514487407" lon="9.046463402490058"><ele>147.5</ele><time>2026-04-11T17:04:59Z</time></trkpt><trkpt lat="45.51060217396838" lon="9.046785927002412"><ele>146.0</ele><time>2026-04-11T17:05:00Z</time></trkpt><trkpt lat="45.51063634405149" lon="9.04710662191877"><ele>146.0</ele><time>2026-04-11T17:05:01Z</time></trkpt><trkpt lat="45.510672802951625" lon="9.047427108103967"><ele>146.0</ele><time>2026-04-11T17:05:02.001Z</time></trkpt><trkpt lat="45.51070953154726" lon="9.047749835583877"><ele>146.0</ele><time>2026-04-11T17:05:03.001Z</time></trkpt><trkpt lat="45.51074646558992" lon="9.04806571804929"><ele>146.0</ele><time>2026-04-11T17:05:04.001Z</time></trkpt><trkpt lat="45.510782878779786" lon="9.048383677876675"><ele>146.0</ele><time>2026-04-11T17:05:05.001Z</time></trkpt><trkpt lat="45.510818973467636" lon="9.04870548167179"><ele>146.0</ele><time>2026-04-11T17:05:06.001Z</time></trkpt><trkpt lat="45.51085089384779" lon="9.049021756926946"><ele>146.5</ele><time>2026-04-11T17:05:07.001Z</time></trkpt><trkpt lat="45.5108901900112" lon="9.049347907145863"><ele>147.0</ele><time>2026-04-11T17:05:08.001Z</time></trkpt><trkpt lat="45.51092910629148" lon="9.049669840230024"><ele>145.0</ele><time>2026-04-11T17:05:09.001Z</time></trkpt><trkpt lat="45.51096544987911" lon="9.04998794152322"><ele>143.0</ele><time>2026-04-11T17:05:10.001Z</time></trkpt><trkpt lat="45.51100072400089" lon="9.050307528477711"><ele>143.0</ele><time>2026-04-11T17:05:11.001Z</time></trkpt><trkpt lat="45.51103513657569" lon="9.050627348192762"><ele>143.0</ele><time>2026-04-11T17:05:12.001Z</time></trkpt><trkpt lat="45.51107024901581" lon="9.050937705305648"><ele>143.0</ele><time>2026-04-11T17:05:13.001Z</time></trkpt><trkpt lat="45.51110350486218" lon="9.05124085095305"><ele>143.66666666666666</ele><time>2026-04-11T17:05:14.001Z</time></trkpt><trkpt lat="45.51113730058591" lon="9.051540403408673"><ele>144.33333333333334</ele><time>2026-04-11T17:05:15.001Z</time></trkpt><trkpt lat="45.511168010632176" lon="9.051828958542785"><ele>145.0</ele><time>2026-04-11T17:05:16.001Z</time></trkpt><trkpt lat="45.51120104985418" lon="9.052129647949007"><ele>145.33333333333334</ele><time>2026-04-11T17:05:17.001Z</time></trkpt><trkpt lat="45.51123513555855" lon="9.052423813084966"><ele>145.66666666666666</ele><time>2026-04-11T17:05:18.001Z</time></trkpt><trkpt lat="45.51126797460142" lon="9.052716920065768"><ele>146.0</ele><time>2026-04-11T17:05:19.001Z</time></trkpt><trkpt lat="45.5112976711944" lon="9.053005249435524"><ele>146.0</ele><time>2026-04-11T17:05:20.001Z</time></trkpt><trkpt lat="45.51132768090839" lon="9.053289885770914"><ele>146.0</ele><time>2026-04-11T17:05:21.001Z</time></trkpt><trkpt lat="45.51135627383578" lon="9.053582969759372"><ele>146.0</ele><time>2026-04-11T17:05:22.001Z</time></trkpt><trkpt lat="45.51138730443268" lon="9.05387595938689"><ele>145.33333333333331</ele><time>2026-04-11T17:05:23.001Z</time></trkpt><trkpt lat="45.511418894761555" lon="9.054157700146634"><ele>144.66666666666666</ele><time>2026-04-11T17:05:24.001Z</time></trkpt><trkpt lat="45.511450490521185" lon="9.054444009916681"><ele>144.0</ele><time>2026-04-11T17:05:25.001Z</time></trkpt><trkpt lat="45.511481404470814" lon="9.05473389162309"><ele>142.66666666666666</ele><time>2026-04-11T17:05:26.001Z</time></trkpt><trkpt lat="45.511512494305045" lon="9.055025813983576"><ele>141.33333333333331</ele><time>2026-04-11T17:05:27.001Z</time></trkpt><trkpt lat="45.51154779507555" lon="9.055333296683875"><ele>140.0</ele><time>2026-04-11T17:05:28.001Z</time></trkpt><trkpt lat="45.51158738249263" lon="9.05566959245911"><ele>141.5</ele><time>2026-04-11T17:05:29.001Z</time></trkpt><trkpt lat="45.51163214006258" lon="9.056028442605074"><ele>143.0</ele><time>2026-04-11T17:05:30.001Z</time></trkpt><trkpt lat="45.51167675621361" lon="9.0563897953119"><ele>143.5</ele><time>2026-04-11T17:05:31.001Z</time></trkpt><trkpt lat="45.51171845000754" lon="9.056719733497534"><ele>144.0</ele><time>2026-04-11T17:05:32.001Z</time></trkpt><trkpt lat="45.511756177277405" lon="9.0570240306056"><ele>144.0</ele><time>2026-04-11T17:05:33.001Z</time></trkpt><trkpt lat="45.51178863963794" lon="9.057324915526229"><ele>144.0</ele><time>2026-04-11T17:05:34.001Z</time></trkpt><trkpt lat="45.511813705855396" lon="9.057604586717348"><ele>144.0</ele><time>2026-04-11T17:05:35.001Z</time></trkpt><trkpt lat="45.51184959879089" lon="9.057906335972598"><ele>144.33333333333334</ele><time>2026-04-11T17:05:36.001Z</time></trkpt><trkpt lat="45.511887751332914" lon="9.058136692933155"><ele>144.66666666666669</ele><time>2026-04-11T17:05:37.001Z</time></trkpt><trkpt lat="45.51192755026211" lon="9.058390687232677"><ele>145.0</ele><time>2026-04-11T17:05:38.001Z</time></trkpt><trkpt lat="45.51197200672556" lon="9.058638656493809"><ele>145.0</ele><time>2026-04-11T17:05:39.001Z</time></trkpt><trkpt lat="45.51201890078465" lon="9.058869812675985"><ele>145.0</ele><time>2026-04-11T17:05:40.001Z</time></trkpt><trkpt lat="45.51206431720248" lon="9.059094143104929"><ele>145.0</ele><time>2026-04-11T17:05:41.001Z</time></trkpt><trkpt lat="45.5121076508258" lon="9.059321822769755"><ele>145.0</ele><time>2026-04-11T17:05:42.001Z</time></trkpt><trkpt lat="45.51214627427794" lon="9.059540909881632"><ele>145.0</ele><time>2026-04-11T17:05:43.001Z</time></trkpt><trkpt lat="45.51218057869805" lon="9.059746392282547"><ele>145.0</ele><time>2026-04-11T17:05:44.001Z</time></trkpt><trkpt lat="45.51221452334107" lon="9.059951045208951"><ele>145.0</ele><time>2026-04-11T17:05:45.001Z</time></trkpt><trkpt lat="45.51223649825922" lon="9.060123843194042"><ele>145.0</ele><time>2026-04-11T17:05:46.001Z</time></trkpt><trkpt lat="45.51226504450079" lon="9.060280742081336"><ele>145.0</ele><time>2026-04-11T17:05:47.001Z</time></trkpt><trkpt lat="45.512304000906596" lon="9.060431179976039"><ele>145.0</ele><time>2026-04-11T17:05:48.001Z</time></trkpt><trkpt lat="45.51234773260064" lon="9.060578864052994"><ele>145.0</ele><time>2026-04-11T17:05:49.001Z</time></trkpt><trkpt lat="45.51230735854166" lon="9.060743734362857"><ele>145.0</ele><time>2026-04-11T17:05:50.001Z</time></trkpt><trkpt lat="45.51232064900391" lon="9.060886441657969"><ele>145.0</ele><time>2026-04-11T17:05:51.001Z</time></trkpt><trkpt lat="45.51233457719557" lon="9.061041893859262"><ele>145.0</ele><time>2026-04-11T17:05:52.001Z</time></trkpt><trkpt lat="45.512347784533844" lon="9.061202374748351"><ele>145.0</ele><time>2026-04-11T17:05:53.001Z</time></trkpt><trkpt lat="45.51235955497078" lon="9.061367717945533"><ele>144.66666666666669</ele><time>2026-04-11T17:05:54.001Z</time></trkpt><trkpt lat="45.51237288061637" lon="9.061565248297008"><ele>144.33333333333334</ele><time>2026-04-11T17:05:55.001Z</time></trkpt><trkpt lat="45.51239009605654" lon="9.061799940311168"><ele>144.0</ele><time>2026-04-11T17:05:56.001Z</time></trkpt><trkpt lat="45.51240382014096" lon="9.062045639497095"><ele>144.0</ele><time>2026-04-11T17:05:57.001Z</time></trkpt><trkpt lat="45.512409251290364" lon="9.06228367381826"><ele>144.0</ele><time>2026-04-11T17:05:58.001Z</time></trkpt><trkpt lat="45.51241135489033" lon="9.062524700794977"><ele>144.0</ele><time>2026-04-11T17:05:59.001Z</time></trkpt><trkpt lat="45.512423005265106" lon="9.062758461986185"><ele>145.0</ele><time>2026-04-11T17:06:00.001Z</time></trkpt><trkpt lat="45.51242748982494" lon="9.062980415042492"><ele>146.0</ele><time>2026-04-11T17:06:01.001Z</time></trkpt><trkpt lat="45.51244155993722" lon="9.063214304697656"><ele>147.0</ele><time>2026-04-11T17:06:02.001Z</time></trkpt><trkpt lat="45.51246154102625" lon="9.06344693316389"><ele>147.0</ele><time>2026-04-11T17:06:03.001Z</time></trkpt><trkpt lat="45.512483745175025" lon="9.06368459857887"><ele>147.0</ele><time>2026-04-11T17:06:04.001Z</time></trkpt><trkpt lat="45.5125026596555" lon="9.063920376847689"><ele>147.0</ele><time>2026-04-11T17:06:05.001Z</time></trkpt><trkpt lat="45.51253009178379" lon="9.064183978244648"><ele>147.0</ele><time>2026-04-11T17:06:06.001Z</time></trkpt><trkpt lat="45.51256223821831" lon="9.06443322395927"><ele>147.0</ele><time>2026-04-11T17:06:07.001Z</time></trkpt><trkpt lat="45.51259022457853" lon="9.064730489164775"><ele>147.0</ele><time>2026-04-11T17:06:08.001Z</time></trkpt><trkpt lat="45.51262745941373" lon="9.065056089240962"><ele>147.33333333333334</ele><time>2026-04-11T17:06:09.001Z</time></trkpt><trkpt lat="45.51265969735076" lon="9.065344865596098"><ele>147.66666666666669</ele><time>2026-04-11T17:06:09.999Z</time></trkpt><trkpt lat="45.51268786337532" lon="9.065628647142384"><ele>148.0</ele><time>2026-04-11T17:06:10.999Z</time></trkpt><trkpt lat="45.512717320108905" lon="9.06590664405158"><ele>146.66666666666669</ele><time>2026-04-11T17:06:11.999Z</time></trkpt><trkpt lat="45.51274252189739" lon="9.066191145795337"><ele>145.33333333333334</ele><time>2026-04-11T17:06:12.999Z</time></trkpt><trkpt lat="45.51276909460883" lon="9.066475363195238"><ele>144.0</ele><time>2026-04-11T17:06:13.999Z</time></trkpt><trkpt lat="45.512805587984026" lon="9.066774396848336"><ele>144.0</ele><time>2026-04-11T17:06:14.999Z</time></trkpt><trkpt lat="45.51283173900849" lon="9.067073611327048"><ele>144.0</ele><time>2026-04-11T17:06:15.999Z</time></trkpt><trkpt lat="45.51285749885593" lon="9.06738055706755"><ele>144.0</ele><time>2026-04-11T17:06:16.999Z</time></trkpt><trkpt lat="45.51288231663345" lon="9.067691452446908"><ele>144.0</ele><time>2026-04-11T17:06:17.999Z</time></trkpt><trkpt lat="45.512904991954976" lon="9.06799580718261"><ele>144.0</ele><time>2026-04-11T17:06:18.999Z</time></trkpt><trkpt lat="45.512928254692234" lon="9.068294133968589"><ele>144.0</ele><time>2026-04-11T17:06:19.999Z</time></trkpt><trkpt lat="45.512947504722355" lon="9.068595741250698"><ele>144.0</ele><time>2026-04-11T17:06:20.999Z</time></trkpt><trkpt lat="45.51296877310333" lon="9.068898932484958"><ele>144.0</ele><time>2026-04-11T17:06:21.999Z</time></trkpt><trkpt lat="45.512995665158535" lon="9.069205862152465"><ele>144.0</ele><time>2026-04-11T17:06:22.999Z</time></trkpt><trkpt lat="45.513023875972344" lon="9.069503735275903"><ele>144.0</ele><time>2026-04-11T17:06:23.999Z</time></trkpt><trkpt lat="45.513052224318066" lon="9.06980950860549"><ele>144.0</ele><time>2026-04-11T17:06:24.999Z</time></trkpt><trkpt lat="45.51307687703217" lon="9.070107888202656"><ele>144.0</ele><time>2026-04-11T17:06:25.999Z</time></trkpt><trkpt lat="45.51310331025853" lon="9.070408906830052"><ele>143.66666666666666</ele><time>2026-04-11T17:06:26.999Z</time></trkpt><trkpt lat="45.51313114962597" lon="9.07070844826803"><ele>143.33333333333331</ele><time>2026-04-11T17:06:27.999Z</time></trkpt><trkpt lat="45.5131547077961" lon="9.071004189970743"><ele>143.0</ele><time>2026-04-11T17:06:28.999Z</time></trkpt><trkpt lat="45.5131781356059" lon="9.071297204285417"><ele>143.0</ele><time>2026-04-11T17:06:29.999Z</time></trkpt><trkpt lat="45.51320041980404" lon="9.071589098444953"><ele>143.0</ele><time>2026-04-11T17:06:30.999Z</time></trkpt><trkpt lat="45.51322256422957" lon="9.071882474760109"><ele>143.0</ele><time>2026-04-11T17:06:32Z</time></trkpt><trkpt lat="45.51324234764208" lon="9.072169353801469"><ele>143.0</ele><time>2026-04-11T17:06:33Z</time></trkpt><trkpt lat="45.513263916549995" lon="9.072455852746987"><ele>143.0</ele><time>2026-04-11T17:06:34Z</time></trkpt><trkpt lat="45.513283511344355" lon="9.072746841686673"><ele>143.0</ele><time>2026-04-11T17:06:35Z</time></trkpt><trkpt lat="45.51330461368428" lon="9.073039861788802"><ele>143.0</ele><time>2026-04-11T17:06:36Z</time></trkpt><trkpt lat="45.51332696598229" lon="9.073324990145457"><ele>143.0</ele><time>2026-04-11T17:06:37Z</time></trkpt><trkpt lat="45.51334706364499" lon="9.07361713025573"><ele>143.0</ele><time>2026-04-11T17:06:38Z</time></trkpt><trkpt lat="45.51335729783819" lon="9.073906306521817"><ele>143.33333333333331</ele><time>2026-04-11T17:06:39Z</time></trkpt><trkpt lat="45.51337422630049" lon="9.07417409357257"><ele>143.66666666666666</ele><time>2026-04-11T17:06:40Z</time></trkpt><trkpt lat="45.513395093101636" lon="9.074463342187201"><ele>144.0</ele><time>2026-04-11T17:06:41Z</time></trkpt><trkpt lat="45.51340876765501" lon="9.074746997971378"><ele>143.66666666666666</ele><time>2026-04-11T17:06:42Z</time></trkpt><trkpt lat="45.51342360738672" lon="9.075035191683753"><ele>143.33333333333331</ele><time>2026-04-11T17:06:43Z</time></trkpt><trkpt lat="45.513440579489085" lon="9.075327230820683"><ele>143.0</ele><time>2026-04-11T17:06:44Z</time></trkpt><trkpt lat="45.513456505363834" lon="9.075638906744436"><ele>143.33333333333331</ele><time>2026-04-11T17:06:45Z</time></trkpt><trkpt lat="45.513470953172884" lon="9.075939096652691"><ele>143.66666666666666</ele><time>2026-04-11T17:06:46Z</time></trkpt><trkpt lat="45.51348687341674" lon="9.076236207765849"><ele>144.0</ele><time>2026-04-11T17:06:47Z</time></trkpt><trkpt lat="45.51349941737941" lon="9.07653383426717"><ele>144.33333333333334</ele><time>2026-04-11T17:06:48Z</time></trkpt><trkpt lat="45.51351321082076" lon="9.07683242816975"><ele>144.66666666666669</ele><time>2026-04-11T17:06:49Z</time></trkpt><trkpt lat="45.5135280447603" lon="9.07712947225605"><ele>145.0</ele><time>2026-04-11T17:06:50Z</time></trkpt><trkpt lat="45.51354417727383" lon="9.077430647219888"><ele>144.33333333333334</ele><time>2026-04-11T17:06:51Z</time></trkpt><trkpt lat="45.51356161581228" lon="9.077737177173438"><ele>143.66666666666666</ele><time>2026-04-11T17:06:52Z</time></trkpt><trkpt lat="45.51358051500846" lon="9.078039258447287"><ele>143.0</ele><time>2026-04-11T17:06:53Z</time></trkpt><trkpt lat="45.5135980849162" lon="9.07834015377263"><ele>143.0</ele><time>2026-04-11T17:06:54Z</time></trkpt><trkpt lat="45.51361606133579" lon="9.078635154717308"><ele>143.0</ele><time>2026-04-11T17:06:55Z</time></trkpt><trkpt lat="45.513635736500554" lon="9.078929917824436"><ele>143.0</ele><time>2026-04-11T17:06:56Z</time></trkpt><trkpt lat="45.51365388955586" lon="9.079222530278855"><ele>143.0</ele><time>2026-04-11T17:06:57Z</time></trkpt><trkpt lat="45.51366942271338" lon="9.079513221851451"><ele>143.0</ele><time>2026-04-11T17:06:58Z</time></trkpt><trkpt lat="45.51368680958191" lon="9.079804449609059"><ele>143.0</ele><time>2026-04-11T17:06:59Z</time></trkpt><trkpt lat="45.513702887530535" lon="9.08008834908382"><ele>143.0</ele><time>2026-04-11T17:07:00Z</time></trkpt><trkpt lat="45.51371999671892" lon="9.080375367077158"><ele>143.0</ele><time>2026-04-11T17:07:01Z</time></trkpt><trkpt lat="45.51373257875356" lon="9.080663438115058"><ele>143.0</ele><time>2026-04-11T17:07:02Z</time></trkpt><trkpt lat="45.513745334555615" lon="9.08095113501068"><ele>143.0</ele><time>2026-04-11T17:07:03Z</time></trkpt><trkpt lat="45.51375896378545" lon="9.081243505927588"><ele>143.0</ele><time>2026-04-11T17:07:04Z</time></trkpt><trkpt lat="45.51377489630272" lon="9.081555460635213"><ele>143.0</ele><time>2026-04-11T17:07:05Z</time></trkpt><trkpt lat="45.51378779501045" lon="9.081859485850721"><ele>143.0</ele><time>2026-04-11T17:07:06Z</time></trkpt><trkpt lat="45.51380082071204" lon="9.082173959432598"><ele>143.0</ele><time>2026-04-11T17:07:07Z</time></trkpt><trkpt lat="45.5138160737302" lon="9.082491576680265"><ele>143.0</ele><time>2026-04-11T17:07:08Z</time></trkpt><trkpt lat="45.513832809753524" lon="9.08280953131263"><ele>143.0</ele><time>2026-04-11T17:07:09Z</time></trkpt><trkpt lat="45.51384735136931" lon="9.0831273138881"><ele>143.0</ele><time>2026-04-11T17:07:10Z</time></trkpt><trkpt lat="45.51386331479786" lon="9.083447488859461"><ele>143.0</ele><time>2026-04-11T17:07:11Z</time></trkpt><trkpt lat="45.513876291610046" lon="9.083757037049164"><ele>143.0</ele><time>2026-04-11T17:07:12Z</time></trkpt><trkpt lat="45.51389285665308" lon="9.084073282527902"><ele>143.0</ele><time>2026-04-11T17:07:13Z</time></trkpt><trkpt lat="45.513910123970845" lon="9.084389666719986"><ele>143.0</ele><time>2026-04-11T17:07:14Z</time></trkpt><trkpt lat="45.513925666275746" lon="9.084701896727083"><ele>143.0</ele><time>2026-04-11T17:07:15Z</time></trkpt><trkpt lat="45.51394049966885" lon="9.085016104795125"><ele>143.0</ele><time>2026-04-11T17:07:16.001Z</time></trkpt><trkpt lat="45.51395507434667" lon="9.085328443154676"><ele>143.0</ele><time>2026-04-11T17:07:17.001Z</time></trkpt><trkpt lat="45.51396966005547" lon="9.08564214339929"><ele>143.33333333333331</ele><time>2026-04-11T17:07:18.001Z</time></trkpt><trkpt lat="45.51398633845096" lon="9.085957644853703"><ele>143.66666666666666</ele><time>2026-04-11T17:07:19.001Z</time></trkpt><trkpt lat="45.51400146446299" lon="9.08627306606894"><ele>144.0</ele><time>2026-04-11T17:07:20.001Z</time></trkpt><trkpt lat="45.51401768189919" lon="9.086583826586823"><ele>144.0</ele><time>2026-04-11T17:07:21.001Z</time></trkpt><trkpt lat="45.514033990902945" lon="9.086901595123438"><ele>144.0</ele><time>2026-04-11T17:07:22.001Z</time></trkpt><trkpt lat="45.51404997203004" lon="9.08721459004682"><ele>144.0</ele><time>2026-04-11T17:07:23.001Z</time></trkpt><trkpt lat="45.51406502648551" lon="9.087526437023095"><ele>144.0</ele><time>2026-04-11T17:07:24.001Z</time></trkpt><trkpt lat="45.51407999972439" lon="9.087840637707428"><ele>144.0</ele><time>2026-04-11T17:07:25.001Z</time></trkpt><trkpt lat="45.51409342073004" lon="9.088149293126596"><ele>144.0</ele><time>2026-04-11T17:07:26.001Z</time></trkpt><trkpt lat="45.514105554912966" lon="9.088462516757831"><ele>143.33333333333334</ele><time>2026-04-11T17:07:27.001Z</time></trkpt><trkpt lat="45.51411971176731" lon="9.08877221827074"><ele>142.66666666666669</ele><time>2026-04-11T17:07:28.001Z</time></trkpt><trkpt lat="45.51413164802798" lon="9.089076901548852"><ele>142.0</ele><time>2026-04-11T17:07:29.001Z</time></trkpt><trkpt lat="45.514144475482034" lon="9.089379340245895"><ele>141.66666666666669</ele><time>2026-04-11T17:07:30.001Z</time></trkpt><trkpt lat="45.51416175445009" lon="9.089693521286463"><ele>141.33333333333334</ele><time>2026-04-11T17:07:31.001Z</time></trkpt><trkpt lat="45.514171385778255" lon="9.090000379404731"><ele>141.0</ele><time>2026-04-11T17:07:32.001Z</time></trkpt><trkpt lat="45.514182955830734" lon="9.090313717136645"><ele>141.0</ele><time>2026-04-11T17:07:33.001Z</time></trkpt><trkpt lat="45.514196200807625" lon="9.09061920873143"><ele>141.0</ele><time>2026-04-11T17:07:34.001Z</time></trkpt><trkpt lat="45.51420850980353" lon="9.090929138175808"><ele>141.0</ele><time>2026-04-11T17:07:35.001Z</time></trkpt><trkpt lat="45.51422241483917" lon="9.09124418766274"><ele>141.0</ele><time>2026-04-11T17:07:36.001Z</time></trkpt><trkpt lat="45.5142330871416" lon="9.091551772672195"><ele>141.0</ele><time>2026-04-11T17:07:37.001Z</time></trkpt><trkpt lat="45.51424775342603" lon="9.09185824038315"><ele>141.0</ele><time>2026-04-11T17:07:38.001Z</time></trkpt><trkpt lat="45.5142623588689" lon="9.092163365881676"><ele>141.66666666666666</ele><time>2026-04-11T17:07:39.001Z</time></trkpt><trkpt lat="45.51427778440784" lon="9.092470430141372"><ele>142.33333333333331</ele><time>2026-04-11T17:07:40.001Z</time></trkpt><trkpt lat="45.51429005944076" lon="9.092773978882313"><ele>143.0</ele><time>2026-04-11T17:07:41.001Z</time></trkpt><trkpt lat="45.51430415735303" lon="9.093080080657355"><ele>142.66666666666666</ele><time>2026-04-11T17:07:42.001Z</time></trkpt><trkpt lat="45.51431815354972" lon="9.093381109007055"><ele>142.33333333333334</ele><time>2026-04-11T17:07:43.001Z</time></trkpt><trkpt lat="45.51433197854454" lon="9.093686150537291"><ele>142.0</ele><time>2026-04-11T17:07:44.001Z</time></trkpt><trkpt lat="45.51434301760078" lon="9.093992378388483"><ele>142.33333333333334</ele><time>2026-04-11T17:07:45.001Z</time></trkpt><trkpt lat="45.51435268878531" lon="9.094291329103493"><ele>142.66666666666666</ele><time>2026-04-11T17:07:46.001Z</time></trkpt><trkpt lat="45.514368306945315" lon="9.094595517023269"><ele>143.0</ele><time>2026-04-11T17:07:47.001Z</time></trkpt><trkpt lat="45.51438213094355" lon="9.094898766030475"><ele>142.66666666666666</ele><time>2026-04-11T17:07:48.001Z</time></trkpt><trkpt lat="45.51439519396768" lon="9.095195311148318"><ele>142.33333333333334</ele><time>2026-04-11T17:07:49.001Z</time></trkpt><trkpt lat="45.51440747430356" lon="9.095494692251316"><ele>142.0</ele><time>2026-04-11T17:07:50.001Z</time></trkpt><trkpt lat="45.51441942604971" lon="9.095795261338084"><ele>142.0</ele><time>2026-04-11T17:07:51.001Z</time></trkpt><trkpt lat="45.514436695450335" lon="9.096091147990593"><ele>142.0</ele><time>2026-04-11T17:07:52.001Z</time></trkpt><trkpt lat="45.51445420222235" lon="9.096386655324071"><ele>142.0</ele><time>2026-04-11T17:07:53.001Z</time></trkpt><trkpt lat="45.51446893102958" lon="9.096683013139277"><ele>142.0</ele><time>2026-04-11T17:07:54.001Z</time></trkpt><trkpt lat="45.51448268903103" lon="9.096981307582242"><ele>142.0</ele><time>2026-04-11T17:07:55.001Z</time></trkpt><trkpt lat="45.51449578674611" lon="9.097280723585746"><ele>142.0</ele><time>2026-04-11T17:07:56.001Z</time></trkpt><trkpt lat="45.514509830804045" lon="9.097582429974949"><ele>142.0</ele><time>2026-04-11T17:07:57.001Z</time></trkpt><trkpt lat="45.51452145859673" lon="9.097878574210513"><ele>142.0</ele><time>2026-04-11T17:07:58.001Z</time></trkpt><trkpt lat="45.51453523833756" lon="9.098181084361034"><ele>142.0</ele><time>2026-04-11T17:07:59.001Z</time></trkpt><trkpt lat="45.514550064001966" lon="9.098481928217502"><ele>142.0</ele><time>2026-04-11T17:08:00.001Z</time></trkpt><trkpt lat="45.514563953224545" lon="9.098786716497681"><ele>142.0</ele><time>2026-04-11T17:08:01.001Z</time></trkpt><trkpt lat="45.51457599844309" lon="9.09909325506714"><ele>142.0</ele><time>2026-04-11T17:08:02.001Z</time></trkpt><trkpt lat="45.51459219683718" lon="9.099402020380886"><ele>142.0</ele><time>2026-04-11T17:08:03.001Z</time></trkpt><trkpt lat="45.514607105591196" lon="9.099711734651446"><ele>142.0</ele><time>2026-04-11T17:08:04.001Z</time></trkpt><trkpt lat="45.51462121184127" lon="9.100020566635905"><ele>142.0</ele><time>2026-04-11T17:08:05.001Z</time></trkpt><trkpt lat="45.5146341839441" lon="9.100331251580096"><ele>142.0</ele><time>2026-04-11T17:08:06.001Z</time></trkpt><trkpt lat="45.514644416069416" lon="9.100640299661713"><ele>142.0</ele><time>2026-04-11T17:08:07.001Z</time></trkpt><trkpt lat="45.514660307915186" lon="9.100954633989868"><ele>142.0</ele><time>2026-04-11T17:08:08.001Z</time></trkpt><trkpt lat="45.514676582385526" lon="9.101273855608001"><ele>141.66666666666669</ele><time>2026-04-11T17:08:09.001Z</time></trkpt><trkpt lat="45.51469324504291" lon="9.10158582053102"><ele>141.33333333333334</ele><time>2026-04-11T17:08:10.001Z</time></trkpt><trkpt lat="45.514708876408214" lon="9.10189846580119"><ele>141.0</ele><time>2026-04-11T17:08:11.001Z</time></trkpt><trkpt lat="45.51472297692984" lon="9.10221690312107"><ele>142.0</ele><time>2026-04-11T17:08:12.001Z</time></trkpt><trkpt lat="45.51473787088802" lon="9.102542184438601"><ele>143.0</ele><time>2026-04-11T17:08:13.002Z</time></trkpt><trkpt lat="45.514756150530445" lon="9.102868702477714"><ele>143.0</ele><time>2026-04-11T17:08:14.002Z</time></trkpt><trkpt lat="45.514774262738236" lon="9.103193736189649"><ele>143.0</ele><time>2026-04-11T17:08:15.002Z</time></trkpt><trkpt lat="45.51479315468087" lon="9.103516697970429"><ele>143.33333333333331</ele><time>2026-04-11T17:08:15.999Z</time></trkpt><trkpt lat="45.51481276432995" lon="9.103828549622008"><ele>143.66666666666666</ele><time>2026-04-11T17:08:16.999Z</time></trkpt><trkpt lat="45.51482923282843" lon="9.104138691908371"><ele>144.0</ele><time>2026-04-11T17:08:17.999Z</time></trkpt><trkpt lat="45.514846751476846" lon="9.10445469571603"><ele>143.33333333333334</ele><time>2026-04-11T17:08:18.999Z</time></trkpt><trkpt lat="45.51486291113789" lon="9.104760096244478"><ele>142.66666666666669</ele><time>2026-04-11T17:08:19.999Z</time></trkpt><trkpt lat="45.51487531575804" lon="9.105068836699438"><ele>142.0</ele><time>2026-04-11T17:08:20.999Z</time></trkpt><trkpt lat="45.514882993792476" lon="9.10536764769561"><ele>141.66666666666669</ele><time>2026-04-11T17:08:21.999Z</time></trkpt><trkpt lat="45.51489566849474" lon="9.10567643901756"><ele>141.33333333333334</ele><time>2026-04-11T17:08:22.999Z</time></trkpt><trkpt lat="45.51490787153451" lon="9.105979591134195"><ele>141.0</ele><time>2026-04-11T17:08:23.999Z</time></trkpt><trkpt lat="45.514920711670364" lon="9.106279582505334"><ele>140.66666666666666</ele><time>2026-04-11T17:08:24.999Z</time></trkpt><trkpt lat="45.51493389539037" lon="9.106576961496044"><ele>140.33333333333331</ele><time>2026-04-11T17:08:25.999Z</time></trkpt><trkpt lat="45.514945062790915" lon="9.10687282062382"><ele>140.0</ele><time>2026-04-11T17:08:26.999Z</time></trkpt><trkpt lat="45.51495664828973" lon="9.107165463760523"><ele>140.66666666666666</ele><time>2026-04-11T17:08:27.999Z</time></trkpt><trkpt lat="45.51497101996503" lon="9.107459498271975"><ele>141.33333333333334</ele><time>2026-04-11T17:08:28.999Z</time></trkpt><trkpt lat="45.51498441764321" lon="9.107752361559767"><ele>142.0</ele><time>2026-04-11T17:08:29.999Z</time></trkpt><trkpt lat="45.51500217656017" lon="9.108064336576618"><ele>142.0</ele><time>2026-04-11T17:08:30.999Z</time></trkpt><trkpt lat="45.51501843541181" lon="9.108376675840907"><ele>142.0</ele><time>2026-04-11T17:08:31.999Z</time></trkpt><trkpt lat="45.51503370569702" lon="9.108688483092894"><ele>142.0</ele><time>2026-04-11T17:08:32.999Z</time></trkpt><trkpt lat="45.515049122708234" lon="9.10900296172056"><ele>141.66666666666669</ele><time>2026-04-11T17:08:33.999Z</time></trkpt><trkpt lat="45.51506448624378" lon="9.109321129336168"><ele>141.33333333333334</ele><time>2026-04-11T17:08:34.999Z</time></trkpt><trkpt lat="45.51507844878009" lon="9.109626964593058"><ele>141.0</ele><time>2026-04-11T17:08:35.999Z</time></trkpt><trkpt lat="45.51509179274108" lon="9.109930777359128"><ele>141.33333333333334</ele><time>2026-04-11T17:08:36.999Z</time></trkpt><trkpt lat="45.515105812214344" lon="9.110236273370806"><ele>141.66666666666669</ele><time>2026-04-11T17:08:38Z</time></trkpt><trkpt lat="45.515120317634505" lon="9.110539813139745"><ele>142.0</ele><time>2026-04-11T17:08:39Z</time></trkpt><trkpt lat="45.515132279282824" lon="9.1108423683404"><ele>142.0</ele><time>2026-04-11T17:08:40Z</time></trkpt><trkpt lat="45.51514661377757" lon="9.111142786360043"><ele>142.0</ele><time>2026-04-11T17:08:41Z</time></trkpt><trkpt lat="45.51516318020292" lon="9.111437727712175"><ele>142.0</ele><time>2026-04-11T17:08:42Z</time></trkpt><trkpt lat="45.51517943632078" lon="9.11173332976745"><ele>140.66666666666669</ele><time>2026-04-11T17:08:43Z</time></trkpt><trkpt lat="45.515195897090166" lon="9.112020186406209"><ele>139.33333333333334</ele><time>2026-04-11T17:08:44Z</time></trkpt><trkpt lat="45.51520943916107" lon="9.112310560446852"><ele>138.0</ele><time>2026-04-11T17:08:45Z</time></trkpt><trkpt lat="45.51522349274341" lon="9.112596883545262"><ele>138.0</ele><time>2026-04-11T17:08:46Z</time></trkpt><trkpt lat="45.515238310918924" lon="9.112881494235118"><ele>138.0</ele><time>2026-04-11T17:08:47Z</time></trkpt><trkpt lat="45.515252724238145" lon="9.113164423282084"><ele>138.0</ele><time>2026-04-11T17:08:48Z</time></trkpt><trkpt lat="45.515262457582025" lon="9.113449679388495"><ele>138.0</ele><time>2026-04-11T17:08:49Z</time></trkpt><trkpt lat="45.51527181637526" lon="9.11372752348768"><ele>138.0</ele><time>2026-04-11T17:08:50Z</time></trkpt><trkpt lat="45.51528394913935" lon="9.113991782523206"><ele>138.0</ele><time>2026-04-11T17:08:51Z</time></trkpt><trkpt lat="45.51529660425982" lon="9.11424953166278"><ele>138.0</ele><time>2026-04-11T17:08:52Z</time></trkpt><trkpt lat="45.51531011922262" lon="9.114512872565838"><ele>138.0</ele><time>2026-04-11T17:08:53Z</time></trkpt><trkpt lat="45.51532116167349" lon="9.11477407277859"><ele>138.0</ele><time>2026-04-11T17:08:54Z</time></trkpt><trkpt lat="45.515333385402386" lon="9.115038573968517"><ele>138.0</ele><time>2026-04-11T17:08:55Z</time></trkpt><trkpt lat="45.515346314476446" lon="9.115303403793021"><ele>138.0</ele><time>2026-04-11T17:08:56Z</time></trkpt><trkpt lat="45.51535872745687" lon="9.115569256197412"><ele>138.0</ele><time>2026-04-11T17:08:57Z</time></trkpt><trkpt lat="45.51537101669117" lon="9.115831078202119"><ele>137.66666666666666</ele><time>2026-04-11T17:08:58Z</time></trkpt><trkpt lat="45.51538049068928" lon="9.116095384517681"><ele>137.33333333333331</ele><time>2026-04-11T17:08:59Z</time></trkpt><trkpt lat="45.515392193066255" lon="9.116367875489441"><ele>137.0</ele><time>2026-04-11T17:09:00Z</time></trkpt><trkpt lat="45.51540397865091" lon="9.116639133034232"><ele>136.66666666666666</ele><time>2026-04-11T17:09:01Z</time></trkpt><trkpt lat="45.515415976637065" lon="9.1169074662796"><ele>136.33333333333334</ele><time>2026-04-11T17:09:02Z</time></trkpt><trkpt lat="45.51542426387639" lon="9.117174757738702"><ele>136.0</ele><time>2026-04-11T17:09:03Z</time></trkpt><trkpt lat="45.51543264945564" lon="9.117434078051375"><ele>135.33333333333334</ele><time>2026-04-11T17:09:04Z</time></trkpt><trkpt lat="45.51544458638584" lon="9.117683083136608"><ele>134.66666666666666</ele><time>2026-04-11T17:09:05Z</time></trkpt><trkpt lat="45.51545476835361" lon="9.117928056105882"><ele>134.0</ele><time>2026-04-11T17:09:06Z</time></trkpt><trkpt lat="45.51546780617844" lon="9.118170048882199"><ele>135.0</ele><time>2026-04-11T17:09:07Z</time></trkpt><trkpt lat="45.515479362582106" lon="9.118410067265055"><ele>136.0</ele><time>2026-04-11T17:09:08Z</time></trkpt><trkpt lat="45.51548961936713" lon="9.118642717796613"><ele>137.0</ele><time>2026-04-11T17:09:09Z</time></trkpt><trkpt lat="45.51549970257708" lon="9.118877941592778"><ele>138.0</ele><time>2026-04-11T17:09:10Z</time></trkpt><trkpt lat="45.51551030318695" lon="9.119112231919063"><ele>139.0</ele><time>2026-04-11T17:09:11Z</time></trkpt><trkpt lat="45.51552057118026" lon="9.119346361285139"><ele>140.0</ele><time>2026-04-11T17:09:12Z</time></trkpt><trkpt lat="45.515529594268365" lon="9.119579145384412"><ele>140.0</ele><time>2026-04-11T17:09:13Z</time></trkpt><trkpt lat="45.515537889665936" lon="9.119808467010468"><ele>140.0</ele><time>2026-04-11T17:09:14Z</time></trkpt><trkpt lat="45.51554863549352" lon="9.120036724104814"><ele>140.0</ele><time>2026-04-11T17:09:15Z</time></trkpt><trkpt lat="45.515567509808534" lon="9.120270829268362"><ele>140.0</ele><time>2026-04-11T17:09:16.001Z</time></trkpt><trkpt lat="45.51559600026214" lon="9.120499597921825"><ele>140.0</ele><time>2026-04-11T17:09:17.001Z</time></trkpt><trkpt lat="45.51563084043485" lon="9.120721659370766"><ele>140.0</ele><time>2026-04-11T17:09:18.001Z</time></trkpt><trkpt lat="45.51567580710786" lon="9.12095473277601"><ele>139.66666666666666</ele><time>2026-04-11T17:09:19.001Z</time></trkpt><trkpt lat="45.515702416891266" lon="9.121160009000397"><ele>139.33333333333334</ele><time>2026-04-11T17:09:20.001Z</time></trkpt><trkpt lat="45.51574131802688" lon="9.121387501773103"><ele>139.0</ele><time>2026-04-11T17:09:21.001Z</time></trkpt><trkpt lat="45.51584310323631" lon="9.121629373054896"><ele>139.0</ele><time>2026-04-11T17:09:22.001Z</time></trkpt><trkpt lat="45.51592043720323" lon="9.121852735218273"><ele>139.0</ele><time>2026-04-11T17:09:23.001Z</time></trkpt><trkpt lat="45.51600418402544" lon="9.12207344544425"><ele>139.0</ele><time>2026-04-11T17:09:24.001Z</time></trkpt><trkpt lat="45.5160878010767" lon="9.122293755185828"><ele>139.0</ele><time>2026-04-11T17:09:25.001Z</time></trkpt><trkpt lat="45.51617673637323" lon="9.122514297514444"><ele>139.0</ele><time>2026-04-11T17:09:26.001Z</time></trkpt><trkpt lat="45.51627565353686" lon="9.122737197281213"><ele>139.0</ele><time>2026-04-11T17:09:27.001Z</time></trkpt><trkpt lat="45.51636807187872" lon="9.12295251106331"><ele>139.0</ele><time>2026-04-11T17:09:28.001Z</time></trkpt><trkpt lat="45.51646401127811" lon="9.12316838823027"><ele>139.0</ele><time>2026-04-11T17:09:29.001Z</time></trkpt><trkpt lat="45.51656582950967" lon="9.123372377588"><ele>139.0</ele><time>2026-04-11T17:09:30.001Z</time></trkpt><trkpt lat="45.51667348888567" lon="9.123573651889066"><ele>138.66666666666669</ele><time>2026-04-11T17:09:31.001Z</time></trkpt><trkpt lat="45.51678868476818" lon="9.123765580325848"><ele>138.33333333333334</ele><time>2026-04-11T17:09:32.001Z</time></trkpt><trkpt lat="45.516895834753456" lon="9.123961165905035"><ele>138.0</ele><time>2026-04-11T17:09:33.001Z</time></trkpt><trkpt lat="45.51701847382667" lon="9.12414817827887"><ele>138.33333333333334</ele><time>2026-04-11T17:09:34.001Z</time></trkpt><trkpt lat="45.517154265556236" lon="9.12433601070917"><ele>138.66666666666669</ele><time>2026-04-11T17:09:35.001Z</time></trkpt><trkpt lat="45.51729113710221" lon="9.124528275196282"><ele>139.0</ele><time>2026-04-11T17:09:36.001Z</time></trkpt><trkpt lat="45.51741895722602" lon="9.124717647322472"><ele>139.0</ele><time>2026-04-11T17:09:37.001Z</time></trkpt><trkpt lat="45.51754538596022" lon="9.12490790367924"><ele>139.0</ele><time>2026-04-11T17:09:38.001Z</time></trkpt><trkpt lat="45.51767338893145" lon="9.125103472697296"><ele>139.0</ele><time>2026-04-11T17:09:39.001Z</time></trkpt><trkpt lat="45.51780700211078" lon="9.125305793596436"><ele>139.66666666666669</ele><time>2026-04-11T17:09:40.001Z</time></trkpt><trkpt lat="45.51793974280592" lon="9.125501618514537"><ele>140.33333333333334</ele><time>2026-04-11T17:09:41.001Z</time></trkpt><trkpt lat="45.51807245995392" lon="9.12570142791201"><ele>141.0</ele><time>2026-04-11T17:09:42.001Z</time></trkpt><trkpt lat="45.51820776223317" lon="9.125905535908208"><ele>141.0</ele><time>2026-04-11T17:09:43.001Z</time></trkpt><trkpt lat="45.51834359078936" lon="9.126119519338495"><ele>141.0</ele><time>2026-04-11T17:09:44.001Z</time></trkpt><trkpt lat="45.51847655706229" lon="9.126337377708413"><ele>141.0</ele><time>2026-04-11T17:09:45.001Z</time></trkpt><trkpt lat="45.518608256590305" lon="9.12656577097318"><ele>141.33333333333334</ele><time>2026-04-11T17:09:46.001Z</time></trkpt><trkpt lat="45.518740362337454" lon="9.126800135881034"><ele>141.66666666666669</ele><time>2026-04-11T17:09:47.001Z</time></trkpt><trkpt lat="45.518864144041075" lon="9.127039931526909"><ele>142.0</ele><time>2026-04-11T17:09:48.001Z</time></trkpt><trkpt lat="45.5189848501016" lon="9.127288400089178"><ele>141.66666666666669</ele><time>2026-04-11T17:09:49.001Z</time></trkpt><trkpt lat="45.51910930943475" lon="9.127543128136558"><ele>141.33333333333334</ele><time>2026-04-11T17:09:50.001Z</time></trkpt><trkpt lat="45.51923416557396" lon="9.127794142310213"><ele>141.0</ele><time>2026-04-11T17:09:51.001Z</time></trkpt><trkpt lat="45.51935826403299" lon="9.128044048784698"><ele>140.33333333333334</ele><time>2026-04-11T17:09:52.001Z</time></trkpt><trkpt lat="45.5194832515235" lon="9.128296958079995"><ele>139.66666666666669</ele><time>2026-04-11T17:09:53.001Z</time></trkpt><trkpt lat="45.51960368062901" lon="9.1285475629144"><ele>139.0</ele><time>2026-04-11T17:09:54.001Z</time></trkpt><trkpt lat="45.51972407539178" lon="9.128803613650113"><ele>139.33333333333334</ele><time>2026-04-11T17:09:55.001Z</time></trkpt><trkpt lat="45.519842805198365" lon="9.129059569844074"><ele>139.66666666666666</ele><time>2026-04-11T17:09:56.001Z</time></trkpt><trkpt lat="45.519969045262364" lon="9.129323509010558"><ele>140.0</ele><time>2026-04-11T17:09:57.001Z</time></trkpt><trkpt lat="45.52009282633366" lon="9.129580262122369"><ele>140.0</ele><time>2026-04-11T17:09:58.001Z</time></trkpt><trkpt lat="45.52022156683514" lon="9.129841246307697"><ele>140.0</ele><time>2026-04-11T17:09:59.001Z</time></trkpt><trkpt lat="45.52035510002879" lon="9.130111227325576"><ele>140.5</ele><time>2026-04-11T17:10:00.001Z</time></trkpt><trkpt lat="45.52049420498405" lon="9.130389228300492"><ele>141.0</ele><time>2026-04-11T17:10:01.001Z</time></trkpt><trkpt lat="45.52064602150602" lon="9.130691177223632"><ele>141.5</ele><time>2026-04-11T17:10:02.001Z</time></trkpt><trkpt lat="45.520814690409225" lon="9.13100593971216"><ele>142.0</ele><time>2026-04-11T17:10:03.001Z</time></trkpt><trkpt lat="45.520982548319395" lon="9.131335024996908"><ele>142.5</ele><time>2026-04-11T17:10:04.001Z</time></trkpt><trkpt lat="45.521151693942194" lon="9.131686289814875"><ele>143.0</ele><time>2026-04-11T17:10:05.002Z</time></trkpt><trkpt lat="45.521323993985234" lon="9.132044804810322"><ele>141.5</ele><time>2026-04-11T17:10:06.002Z</time></trkpt><trkpt lat="45.521498976968026" lon="9.132399171694017"><ele>140.0</ele><time>2026-04-11T17:10:07.002Z</time></trkpt><trkpt lat="45.52165420599872" lon="9.13272539094099"><ele>140.0</ele><time>2026-04-11T17:10:08.002Z</time></trkpt><trkpt lat="45.52180098244685" lon="9.133027486839692"><ele>140.0</ele><time>2026-04-11T17:10:09.002Z</time></trkpt><trkpt lat="45.52194510057343" lon="9.133324865527822"><ele>140.0</ele><time>2026-04-11T17:10:10.002Z</time></trkpt><trkpt lat="45.522092337601855" lon="9.13362150912778"><ele>140.0</ele><time>2026-04-11T17:10:11.002Z</time></trkpt><trkpt lat="45.52223879449223" lon="9.133915344217849"><ele>141.5</ele><time>2026-04-11T17:10:12.002Z</time></trkpt><trkpt lat="45.522381744058315" lon="9.134202588930863"><ele>143.0</ele><time>2026-04-11T17:10:13.002Z</time></trkpt><trkpt lat="45.522522559974156" lon="9.134487238647624"><ele>143.0</ele><time>2026-04-11T17:10:14.002Z</time></trkpt><trkpt lat="45.52266905615658" lon="9.13479867047574"><ele>143.0</ele><time>2026-04-11T17:10:15.002Z</time></trkpt><trkpt lat="45.52280367372946" lon="9.135078833883334"><ele>143.0</ele><time>2026-04-11T17:10:16.002Z</time></trkpt><trkpt lat="45.5229463303449" lon="9.135366927827958"><ele>143.0</ele><time>2026-04-11T17:10:17.002Z</time></trkpt><trkpt lat="45.523077473526385" lon="9.13564665397177"><ele>142.5</ele><time>2026-04-11T17:10:18.002Z</time></trkpt><trkpt lat="45.523200746783694" lon="9.13592265269247"><ele>142.0</ele><time>2026-04-11T17:10:19.002Z</time></trkpt><trkpt lat="45.523325401455224" lon="9.136196180763543"><ele>142.0</ele><time>2026-04-11T17:10:20.002Z</time></trkpt><trkpt lat="45.52344830194251" lon="9.136466868960898"><ele>142.0</ele><time>2026-04-11T17:10:21.002Z</time></trkpt><trkpt lat="45.5235721258003" lon="9.136733499520599"><ele>142.0</ele><time>2026-04-11T17:10:22Z</time></trkpt><trkpt lat="45.52369644354061" lon="9.13699757613047"><ele>142.0</ele><time>2026-04-11T17:10:23Z</time></trkpt><trkpt lat="45.52382052886528" lon="9.137255829356736"><ele>142.0</ele><time>2026-04-11T17:10:24Z</time></trkpt><trkpt lat="45.52394319972365" lon="9.13751148883707"><ele>142.0</ele><time>2026-04-11T17:10:25Z</time></trkpt><trkpt lat="45.52407052289493" lon="9.137770171531923"><ele>142.0</ele><time>2026-04-11T17:10:26Z</time></trkpt><trkpt lat="45.5241962397706" lon="9.138032276801159"><ele>142.0</ele><time>2026-04-11T17:10:27Z</time></trkpt><trkpt lat="45.52432303544152" lon="9.138295989021957"><ele>142.0</ele><time>2026-04-11T17:10:28Z</time></trkpt><trkpt lat="45.52444721935727" lon="9.138555606239539"><ele>142.0</ele><time>2026-04-11T17:10:29Z</time></trkpt><trkpt lat="45.52457481381475" lon="9.138812695888783"><ele>142.0</ele><time>2026-04-11T17:10:30Z</time></trkpt><trkpt lat="45.524701609885675" lon="9.139074499985604"><ele>142.5</ele><time>2026-04-11T17:10:31Z</time></trkpt><trkpt lat="45.524834223971446" lon="9.139347606394137"><ele>143.0</ele><time>2026-04-11T17:10:32Z</time></trkpt><trkpt lat="45.52497352596839" lon="9.139642115237878"><ele>143.5</ele><time>2026-04-11T17:10:33Z</time></trkpt><trkpt lat="45.52510237478345" lon="9.139925629482592"><ele>144.0</ele><time>2026-04-11T17:10:34Z</time></trkpt><trkpt lat="45.525225174541" lon="9.140194950373592"><ele>144.0</ele><time>2026-04-11T17:10:35Z</time></trkpt><trkpt lat="45.52535037957564" lon="9.140460874285292"><ele>144.0</ele><time>2026-04-11T17:10:36Z</time></trkpt><trkpt lat="45.52547034866908" lon="9.14071623823686"><ele>144.0</ele><time>2026-04-11T17:10:37Z</time></trkpt><trkpt lat="45.525587649481366" lon="9.140958610973437"><ele>143.66666666666666</ele><time>2026-04-11T17:10:38Z</time></trkpt><trkpt lat="45.52570054814209" lon="9.141196534633645"><ele>143.33333333333331</ele><time>2026-04-11T17:10:39Z</time></trkpt><trkpt lat="45.52581435180663" lon="9.141432656880891"><ele>143.0</ele><time>2026-04-11T17:10:40Z</time></trkpt><trkpt lat="45.52593051518216" lon="9.141670914835718"><ele>143.0</ele><time>2026-04-11T17:10:41Z</time></trkpt><trkpt lat="45.52604595663331" lon="9.141908520669789"><ele>143.0</ele><time>2026-04-11T17:10:42Z</time></trkpt><trkpt lat="45.52616248843657" lon="9.142149127104608"><ele>143.0</ele><time>2026-04-11T17:10:43Z</time></trkpt><trkpt lat="45.5262767079535" lon="9.142389326311964"><ele>143.33333333333331</ele><time>2026-04-11T17:10:44Z</time></trkpt><trkpt lat="45.52639206988601" lon="9.142626920213482"><ele>143.66666666666666</ele><time>2026-04-11T17:10:45Z</time></trkpt><trkpt lat="45.526507532066304" lon="9.142867200508404"><ele>144.0</ele><time>2026-04-11T17:10:46Z</time></trkpt><trkpt lat="45.52662252386989" lon="9.143110208663357"><ele>143.33333333333334</ele><time>2026-04-11T17:10:47Z</time></trkpt><trkpt lat="45.52674080770309" lon="9.143349151242228"><ele>142.66666666666669</ele><time>2026-04-11T17:10:48Z</time></trkpt><trkpt lat="45.52685332898241" lon="9.143597602403583"><ele>142.0</ele><time>2026-04-11T17:10:49Z</time></trkpt><trkpt lat="45.526970819550606" lon="9.14383839170861"><ele>142.33333333333334</ele><time>2026-04-11T17:10:50Z</time></trkpt><trkpt lat="45.527092530482115" lon="9.144084499578398"><ele>142.66666666666666</ele><time>2026-04-11T17:10:51Z</time></trkpt><trkpt lat="45.52721313329652" lon="9.14432887599069"><ele>143.0</ele><time>2026-04-11T17:10:52Z</time></trkpt><trkpt lat="45.52733254943997" lon="9.144575245888348"><ele>143.0</ele><time>2026-04-11T17:10:53Z</time></trkpt><trkpt lat="45.52744635261458" lon="9.144810592481024"><ele>143.0</ele><time>2026-04-11T17:10:54Z</time></trkpt><trkpt lat="45.52755827599633" lon="9.145047190222675"><ele>143.0</ele><time>2026-04-11T17:10:55Z</time></trkpt><trkpt lat="45.52766615439553" lon="9.145276694088492"><ele>143.0</ele><time>2026-04-11T17:10:56Z</time></trkpt><trkpt lat="45.52777997615385" lon="9.145514553273815"><ele>143.0</ele><time>2026-04-11T17:10:57Z</time></trkpt><trkpt lat="45.5278920865162" lon="9.145754049439063"><ele>143.0</ele><time>2026-04-11T17:10:58Z</time></trkpt><trkpt lat="45.52800338640236" lon="9.145996774424566"><ele>143.0</ele><time>2026-04-11T17:10:59Z</time></trkpt><trkpt lat="45.52811768275474" lon="9.146241214742657"><ele>143.0</ele><time>2026-04-11T17:11:00Z</time></trkpt><trkpt lat="45.52822980070969" lon="9.14648198033819"><ele>143.0</ele><time>2026-04-11T17:11:01Z</time></trkpt><trkpt lat="45.5283434902197" lon="9.146726381333279"><ele>143.0</ele><time>2026-04-11T17:11:02Z</time></trkpt><trkpt lat="45.52845768118571" lon="9.146971847199021"><ele>143.0</ele><time>2026-04-11T17:11:03Z</time></trkpt><trkpt lat="45.528568522827655" lon="9.147216548473573"><ele>143.0</ele><time>2026-04-11T17:11:04Z</time></trkpt><trkpt lat="45.528684883938716" lon="9.147460231042421"><ele>143.0</ele><time>2026-04-11T17:11:05Z</time></trkpt><trkpt lat="45.528797273580274" lon="9.14770529169578"><ele>143.0</ele><time>2026-04-11T17:11:06Z</time></trkpt><trkpt lat="45.52891699383513" lon="9.147944560748778"><ele>143.0</ele><time>2026-04-11T17:11:07Z</time></trkpt><trkpt lat="45.52903558232686" lon="9.1481826762418"><ele>143.0</ele><time>2026-04-11T17:11:08.001Z</time></trkpt><trkpt lat="45.52914994124184" lon="9.148418174219945"><ele>143.0</ele><time>2026-04-11T17:11:09.001Z</time></trkpt><trkpt lat="45.529263555195065" lon="9.14864575386369"><ele>143.0</ele><time>2026-04-11T17:11:10.001Z</time></trkpt><trkpt lat="45.529379129856714" lon="9.148873091337114"><ele>143.0</ele><time>2026-04-11T17:11:11.001Z</time></trkpt><trkpt lat="45.52949832672416" lon="9.1491008229678"><ele>143.0</ele><time>2026-04-11T17:11:12.001Z</time></trkpt><trkpt lat="45.52961650914448" lon="9.149333650822129"><ele>143.0</ele><time>2026-04-11T17:11:13.001Z</time></trkpt><trkpt lat="45.52973318301984" lon="9.149567810793542"><ele>143.0</ele><time>2026-04-11T17:11:14.001Z</time></trkpt><trkpt lat="45.52985387287196" lon="9.149808500844953"><ele>143.0</ele><time>2026-04-11T17:11:15.001Z</time></trkpt><trkpt lat="45.5299726488959" lon="9.150048773367088"><ele>143.0</ele><time>2026-04-11T17:11:16.001Z</time></trkpt><trkpt lat="45.53009321050608" lon="9.150291874176467"><ele>143.0</ele><time>2026-04-11T17:11:17.001Z</time></trkpt><trkpt lat="45.53021793328915" lon="9.150537431085672"><ele>143.0</ele><time>2026-04-11T17:11:18.001Z</time></trkpt><trkpt lat="45.530344176528814" lon="9.150780264986823"><ele>143.0</ele><time>2026-04-11T17:11:19.001Z</time></trkpt><trkpt lat="45.53046473508285" lon="9.151019191386997"><ele>143.66666666666666</ele><time>2026-04-11T17:11:20.001Z</time></trkpt><trkpt lat="45.53058405067643" lon="9.151252929402222"><ele>144.33333333333334</ele><time>2026-04-11T17:11:21.001Z</time></trkpt><trkpt lat="45.53070454034416" lon="9.151487074161992"><ele>145.0</ele><time>2026-04-11T17:11:22.001Z</time></trkpt><trkpt lat="45.530831243470175" lon="9.151731756574346"><ele>145.0</ele><time>2026-04-11T17:11:23.001Z</time></trkpt><trkpt lat="45.530957990806584" lon="9.151983898956587"><ele>145.0</ele><time>2026-04-11T17:11:24.001Z</time></trkpt><trkpt lat="45.531083261893286" lon="9.15223794737319"><ele>145.0</ele><time>2026-04-11T17:11:25.001Z</time></trkpt><trkpt lat="45.531201426983785" lon="9.152486518525228"><ele>145.0</ele><time>2026-04-11T17:11:26.001Z</time></trkpt><trkpt lat="45.53131995047944" lon="9.15273397394154"><ele>145.0</ele><time>2026-04-11T17:11:27.001Z</time></trkpt><trkpt lat="45.53144080148449" lon="9.152979601008395"><ele>145.0</ele><time>2026-04-11T17:11:28.001Z</time></trkpt><trkpt lat="45.53155951148469" lon="9.153226859130468"><ele>144.66666666666669</ele><time>2026-04-11T17:11:29.001Z</time></trkpt><trkpt lat="45.53167547744628" lon="9.15347376407984"><ele>144.33333333333334</ele><time>2026-04-11T17:11:30.001Z</time></trkpt><trkpt lat="45.531791791603354" lon="9.153723417111808"><ele>144.0</ele><time>2026-04-11T17:11:31.001Z</time></trkpt><trkpt lat="45.53190974956083" lon="9.1539710648844"><ele>144.66666666666666</ele><time>2026-04-11T17:11:32.001Z</time></trkpt><trkpt lat="45.53201807187364" lon="9.154203635642466"><ele>145.33333333333331</ele><time>2026-04-11T17:11:33.001Z</time></trkpt><trkpt lat="45.53212714721683" lon="9.154436830650928"><ele>146.0</ele><time>2026-04-11T17:11:34.001Z</time></trkpt><trkpt lat="45.53223398124776" lon="9.154667417636325"><ele>146.66666666666666</ele><time>2026-04-11T17:11:35.001Z</time></trkpt><trkpt lat="45.53234115204396" lon="9.154901409279429"><ele>147.33333333333334</ele><time>2026-04-11T17:11:36.001Z</time></trkpt><trkpt lat="45.5324493492353" lon="9.155132282112284"><ele>148.0</ele><time>2026-04-11T17:11:37.001Z</time></trkpt><trkpt lat="45.532562724084976" lon="9.155365804388975"><ele>148.0</ele><time>2026-04-11T17:11:38.001Z</time></trkpt><trkpt lat="45.53268060192922" lon="9.155603197825151"><ele>148.0</ele><time>2026-04-11T17:11:39.001Z</time></trkpt><trkpt lat="45.53279700425683" lon="9.155836599717485"><ele>148.0</ele><time>2026-04-11T17:11:40.001Z</time></trkpt><trkpt lat="45.532908696571575" lon="9.156070006018355"><ele>147.66666666666669</ele><time>2026-04-11T17:11:41.001Z</time></trkpt><trkpt lat="45.53301312736549" lon="9.156290162200294"><ele>147.33333333333334</ele><time>2026-04-11T17:11:42.001Z</time></trkpt><trkpt lat="45.533122077903464" lon="9.156511359942927"><ele>147.0</ele><time>2026-04-11T17:11:43.001Z</time></trkpt><trkpt lat="45.53322547033998" lon="9.156730422212854"><ele>146.33333333333334</ele><time>2026-04-11T17:11:44.001Z</time></trkpt><trkpt lat="45.5333277927669" lon="9.156945568638639"><ele>145.66666666666669</ele><time>2026-04-11T17:11:45.001Z</time></trkpt><trkpt lat="45.53343004584577" lon="9.157159001944228"><ele>145.0</ele><time>2026-04-11T17:11:46.001Z</time></trkpt><trkpt lat="45.53352907705084" lon="9.157367297432065"><ele>145.66666666666669</ele><time>2026-04-11T17:11:47.001Z</time></trkpt><trkpt lat="45.53363215438877" lon="9.157577427566562"><ele>146.33333333333334</ele><time>2026-04-11T17:11:48.001Z</time></trkpt><trkpt lat="45.53373825866091" lon="9.157785126687909"><ele>147.0</ele><time>2026-04-11T17:11:49.001Z</time></trkpt><trkpt lat="45.53384307176932" lon="9.158000631187909"><ele>146.66666666666666</ele><time>2026-04-11T17:11:50.001Z</time></trkpt><trkpt lat="45.533957630305736" lon="9.15822406095202"><ele>146.33333333333331</ele><time>2026-04-11T17:11:51.001Z</time></trkpt><trkpt lat="45.53408329568109" lon="9.158467151391049"><ele>146.0</ele><time>2026-04-11T17:11:52.001Z</time></trkpt><trkpt lat="45.534211462445725" lon="9.158723135586346"><ele>146.0</ele><time>2026-04-11T17:11:53.001Z</time></trkpt><trkpt lat="45.53433752420465" lon="9.15898407691243"><ele>146.0</ele><time>2026-04-11T17:11:54.002Z</time></trkpt><trkpt lat="45.53446289323976" lon="9.159243992774313"><ele>146.0</ele><time>2026-04-11T17:11:55.002Z</time></trkpt><trkpt lat="45.534585400486705" lon="9.159499876083078"><ele>146.66666666666666</ele><time>2026-04-11T17:11:56.002Z</time></trkpt><trkpt lat="45.53470917969915" lon="9.159753859842255"><ele>147.33333333333334</ele><time>2026-04-11T17:11:57.002Z</time></trkpt><trkpt lat="45.53483498972784" lon="9.160013185269115"><ele>148.0</ele><time>2026-04-11T17:11:58.002Z</time></trkpt><trkpt lat="45.53496129626811" lon="9.160274167239272"><ele>148.0</ele><time>2026-04-11T17:11:59.002Z</time></trkpt><trkpt lat="45.53509031551768" lon="9.160537341668899"><ele>148.0</ele><time>2026-04-11T17:12:00.002Z</time></trkpt><trkpt lat="45.535219982329046" lon="9.160808516568412"><ele>147.5</ele><time>2026-04-11T17:12:01.002Z</time></trkpt><trkpt lat="45.53535022730991" lon="9.161079560850602"><ele>147.0</ele><time>2026-04-11T17:12:02.002Z</time></trkpt><trkpt lat="45.53548016127505" lon="9.161350866089206"><ele>146.5</ele><time>2026-04-11T17:12:03.002Z</time></trkpt><trkpt lat="45.53561225554795" lon="9.161625179752562"><ele>146.0</ele><time>2026-04-11T17:12:04.002Z</time></trkpt><trkpt lat="45.53574511527115" lon="9.161900845513134"><ele>146.0</ele><time>2026-04-11T17:12:05.002Z</time></trkpt><trkpt lat="45.53587794089376" lon="9.162175490322465"><ele>146.0</ele><time>2026-04-11T17:12:06.002Z</time></trkpt><trkpt lat="45.53601423714974" lon="9.16245596200234"><ele>146.0</ele><time>2026-04-11T17:12:07.002Z</time></trkpt><trkpt lat="45.53615186310102" lon="9.162745505517929"><ele>146.0</ele><time>2026-04-11T17:12:08.002Z</time></trkpt><trkpt lat="45.53629304289291" lon="9.163033083935213"><ele>146.5</ele><time>2026-04-11T17:12:09.002Z</time></trkpt><trkpt lat="45.53643382465713" lon="9.163322837859912"><ele>147.0</ele><time>2026-04-11T17:12:10.002Z</time></trkpt><trkpt lat="45.53657473277092" lon="9.163614681577906"><ele>147.0</ele><time>2026-04-11T17:12:11.002Z</time></trkpt><trkpt lat="45.53671569545249" lon="9.163909974821404"><ele>147.0</ele><time>2026-04-11T17:12:12.002Z</time></trkpt><trkpt lat="45.53685795070414" lon="9.164208442779625"><ele>146.5</ele><time>2026-04-11T17:12:13.002Z</time></trkpt><trkpt lat="45.537000615207184" lon="9.164503174360188"><ele>146.0</ele><time>2026-04-11T17:12:14.002Z</time></trkpt><trkpt lat="45.53714161657149" lon="9.164799676781385"><ele>146.5</ele><time>2026-04-11T17:12:15.002Z</time></trkpt><trkpt lat="45.53727688378528" lon="9.165086837316247"><ele>147.0</ele><time>2026-04-11T17:12:16.002Z</time></trkpt><trkpt lat="45.53741424891823" lon="9.165371621582572"><ele>147.0</ele><time>2026-04-11T17:12:17.002Z</time></trkpt><trkpt lat="45.53755241091277" lon="9.165655142154836"><ele>147.0</ele><time>2026-04-11T17:12:18.002Z</time></trkpt><trkpt lat="45.53769100592876" lon="9.165938821769549"><ele>146.5</ele><time>2026-04-11T17:12:19.002Z</time></trkpt><trkpt lat="45.53782054961481" lon="9.166209081350576"><ele>146.0</ele><time>2026-04-11T17:12:20.002Z</time></trkpt><trkpt lat="45.537941831691" lon="9.166472579226742"><ele>147.33333333333331</ele><time>2026-04-11T17:12:21.002Z</time></trkpt><trkpt lat="45.538063708402994" lon="9.166743503441264"><ele>148.66666666666666</ele><time>2026-04-11T17:12:22.002Z</time></trkpt><trkpt lat="45.53818489307641" lon="9.167008981964177"><ele>150.0</ele><time>2026-04-11T17:12:23.002Z</time></trkpt><trkpt lat="45.538303553067465" lon="9.1672718819784"><ele>150.33333333333334</ele><time>2026-04-11T17:12:24.002Z</time></trkpt><trkpt lat="45.538421471474535" lon="9.167532801443427"><ele>150.66666666666669</ele><time>2026-04-11T17:12:25.002Z</time></trkpt><trkpt lat="45.53853990780684" lon="9.167799386456458"><ele>151.0</ele><time>2026-04-11T17:12:26.002Z</time></trkpt><trkpt lat="45.53865587235657" lon="9.16806126123951"><ele>150.66666666666669</ele><time>2026-04-11T17:12:27.002Z</time></trkpt><trkpt lat="45.53876913371022" lon="9.16832009507138"><ele>150.33333333333334</ele><time>2026-04-11T17:12:27.999Z</time></trkpt><trkpt lat="45.538882542081815" lon="9.168583179373494"><ele>150.0</ele><time>2026-04-11T17:12:28.999Z</time></trkpt><trkpt lat="45.538993111777884" lon="9.168847867070104"><ele>149.33333333333334</ele><time>2026-04-11T17:12:29.999Z</time></trkpt><trkpt lat="45.53910314923851" lon="9.16910531911203"><ele>148.66666666666669</ele><time>2026-04-11T17:12:30.999Z</time></trkpt><trkpt lat="45.53920740870673" lon="9.169358570396378"><ele>148.0</ele><time>2026-04-11T17:12:31.999Z</time></trkpt><trkpt lat="45.539310409683765" lon="9.169611621882492"><ele>148.0</ele><time>2026-04-11T17:12:32.999Z</time></trkpt><trkpt lat="45.53941004791308" lon="9.169863338233233"><ele>148.0</ele><time>2026-04-11T17:12:33.999Z</time></trkpt><trkpt lat="45.539508878639936" lon="9.170115745573108"><ele>148.0</ele><time>2026-04-11T17:12:34.999Z</time></trkpt><trkpt lat="45.53960636228093" lon="9.170363607615734"><ele>148.33333333333334</ele><time>2026-04-11T17:12:36Z</time></trkpt><trkpt lat="45.539703526910685" lon="9.170614062198466"><ele>148.66666666666666</ele><time>2026-04-11T17:12:36.999Z</time></trkpt><trkpt lat="45.53979942103499" lon="9.170863295140721"><ele>149.0</ele><time>2026-04-11T17:12:37.999Z</time></trkpt><trkpt lat="45.53989402164147" lon="9.171117252634001"><ele>149.0</ele><time>2026-04-11T17:12:39Z</time></trkpt><trkpt lat="45.5399907863551" lon="9.171379237865255"><ele>149.0</ele><time>2026-04-11T17:12:40Z</time></trkpt><trkpt lat="45.54008836747817" lon="9.171642432192924"><ele>149.0</ele><time>2026-04-11T17:12:41Z</time></trkpt><trkpt lat="45.54018511954272" lon="9.171912104896023"><ele>149.0</ele><time>2026-04-11T17:12:42Z</time></trkpt><trkpt lat="45.54028250087954" lon="9.172177867050484"><ele>149.0</ele><time>2026-04-11T17:12:43Z</time></trkpt><trkpt lat="45.54037933941187" lon="9.172450441616874"><ele>149.0</ele><time>2026-04-11T17:12:44Z</time></trkpt><trkpt lat="45.5404777488036" lon="9.172728125275807"><ele>149.0</ele><time>2026-04-11T17:12:45Z</time></trkpt><trkpt lat="45.540576484956915" lon="9.173010769307558"><ele>149.0</ele><time>2026-04-11T17:12:46Z</time></trkpt><trkpt lat="45.540673381576234" lon="9.173298450457112"><ele>149.0</ele><time>2026-04-11T17:12:47Z</time></trkpt><trkpt lat="45.54076712648769" lon="9.173587503412215"><ele>149.0</ele><time>2026-04-11T17:12:48Z</time></trkpt><trkpt lat="45.54085865180531" lon="9.173883639517644"><ele>149.0</ele><time>2026-04-11T17:12:49Z</time></trkpt><trkpt lat="45.54095328096754" lon="9.174180528838939"><ele>149.0</ele><time>2026-04-11T17:12:50Z</time></trkpt><trkpt lat="45.54104872586402" lon="9.174483016882457"><ele>149.0</ele><time>2026-04-11T17:12:51Z</time></trkpt><trkpt lat="45.54114170621448" lon="9.174788795036532"><ele>151.0</ele><time>2026-04-11T17:12:52Z</time></trkpt><trkpt lat="45.541233813503496" lon="9.175094897612711"><ele>153.0</ele><time>2026-04-11T17:12:53Z</time></trkpt><trkpt lat="45.54132210514349" lon="9.175406775702841"><ele>151.0</ele><time>2026-04-11T17:12:54Z</time></trkpt><trkpt lat="45.54141003611427" lon="9.175722910210295"><ele>149.0</ele><time>2026-04-11T17:12:55Z</time></trkpt><trkpt lat="45.541492389152495" lon="9.176039146821598"><ele>149.0</ele><time>2026-04-11T17:12:56Z</time></trkpt><trkpt lat="45.54157241111837" lon="9.176352052297474"><ele>149.0</ele><time>2026-04-11T17:12:57Z</time></trkpt><trkpt lat="45.54165164403927" lon="9.1766612099466"><ele>149.0</ele><time>2026-04-11T17:12:58Z</time></trkpt><trkpt lat="45.54173212931147" lon="9.176965620485928"><ele>149.0</ele><time>2026-04-11T17:12:59Z</time></trkpt><trkpt lat="45.541813311939634" lon="9.177269536686492"><ele>148.66666666666666</ele><time>2026-04-11T17:13:00Z</time></trkpt><trkpt lat="45.54189471056137" lon="9.177567756687285"><ele>148.33333333333334</ele><time>2026-04-11T17:13:01Z</time></trkpt><trkpt lat="45.54197538678131" lon="9.177859018564192"><ele>148.0</ele><time>2026-04-11T17:13:02Z</time></trkpt><trkpt lat="45.542060826367205" lon="9.178150907223959"><ele>148.66666666666669</ele><time>2026-04-11T17:13:03Z</time></trkpt><trkpt lat="45.54214345326" lon="9.178440639244034"><ele>149.33333333333334</ele><time>2026-04-11T17:13:04Z</time></trkpt><trkpt lat="45.542226279150775" lon="9.178730361265195"><ele>150.0</ele><time>2026-04-11T17:13:05Z</time></trkpt><trkpt lat="45.54230788281636" lon="9.179016672115868"><ele>150.0</ele><time>2026-04-11T17:13:06Z</time></trkpt><trkpt lat="45.54239208916744" lon="9.179302973849165"><ele>150.0</ele><time>2026-04-11T17:13:07Z</time></trkpt><trkpt lat="45.542473337812915" lon="9.179588332545054"><ele>150.0</ele><time>2026-04-11T17:13:08Z</time></trkpt><trkpt lat="45.54255414821665" lon="9.179878932852906"><ele>150.0</ele><time>2026-04-11T17:13:09Z</time></trkpt><trkpt lat="45.54263101320277" lon="9.180162843098875"><ele>150.0</ele><time>2026-04-11T17:13:10Z</time></trkpt><trkpt lat="45.54271269957191" lon="9.180452595100938"><ele>150.0</ele><time>2026-04-11T17:13:11Z</time></trkpt><trkpt lat="45.54280308923731" lon="9.180751690450492"><ele>149.66666666666666</ele><time>2026-04-11T17:13:12Z</time></trkpt><trkpt lat="45.54287823806799" lon="9.18104735507011"><ele>149.33333333333331</ele><time>2026-04-11T17:13:13Z</time></trkpt><trkpt lat="45.54295867394541" lon="9.181348175199098"><ele>149.0</ele><time>2026-04-11T17:13:14.001Z</time></trkpt><trkpt lat="45.54303750185214" lon="9.18165348888772"><ele>148.0</ele><time>2026-04-11T17:13:15.001Z</time></trkpt><trkpt lat="45.543117299854615" lon="9.181960596951926"><ele>147.0</ele><time>2026-04-11T17:13:16.001Z</time></trkpt><trkpt lat="45.54319559577106" lon="9.182259730600991"><ele>147.33333333333334</ele><time>2026-04-11T17:13:17.001Z</time></trkpt><trkpt lat="45.543275585709225" lon="9.182561526539864"><ele>147.66666666666669</ele><time>2026-04-11T17:13:18.001Z</time></trkpt><trkpt lat="45.54335410380206" lon="9.182859019762049"><ele>148.0</ele><time>2026-04-11T17:13:19.001Z</time></trkpt><trkpt lat="45.543432709538365" lon="9.183159241412438"><ele>148.5</ele><time>2026-04-11T17:13:20.001Z</time></trkpt><trkpt lat="45.54350563978056" lon="9.183462235553671"><ele>149.0</ele><time>2026-04-11T17:13:21.001Z</time></trkpt><trkpt lat="45.543585652183026" lon="9.183766683149413"><ele>148.5</ele><time>2026-04-11T17:13:22.001Z</time></trkpt><trkpt lat="45.54366652306267" lon="9.184064621489147"><ele>148.0</ele><time>2026-04-11T17:13:23.001Z</time></trkpt><trkpt lat="45.54374221217673" lon="9.184369721233713"><ele>148.0</ele><time>2026-04-11T17:13:24.001Z</time></trkpt><trkpt lat="45.543817460682334" lon="9.184672204746594"><ele>148.0</ele><time>2026-04-11T17:13:25.001Z</time></trkpt><trkpt lat="45.54389394333319" lon="9.184978148862221"><ele>148.5</ele><time>2026-04-11T17:13:26.001Z</time></trkpt><trkpt lat="45.54397595333748" lon="9.185285535846168"><ele>149.0</ele><time>2026-04-11T17:13:27.001Z</time></trkpt><trkpt lat="45.544059255238516" lon="9.185594739076647"><ele>150.0</ele><time>2026-04-11T17:13:28.001Z</time></trkpt><trkpt lat="45.54413720896177" lon="9.185903885259311"><ele>151.0</ele><time>2026-04-11T17:13:29.001Z</time></trkpt><trkpt lat="45.54421880677856" lon="9.186214597579188"><ele>150.5</ele><time>2026-04-11T17:13:30.001Z</time></trkpt><trkpt lat="45.54429889017796" lon="9.186523635572751"><ele>150.0</ele><time>2026-04-11T17:13:31.001Z</time></trkpt><trkpt lat="45.54437670873692" lon="9.186837476179955"><ele>150.0</ele><time>2026-04-11T17:13:32.001Z</time></trkpt><trkpt lat="45.54445842049032" lon="9.187145990987098"><ele>150.0</ele><time>2026-04-11T17:13:33.001Z</time></trkpt><trkpt lat="45.54453899515818" lon="9.187453207856125"><ele>150.0</ele><time>2026-04-11T17:13:34.001Z</time></trkpt><trkpt lat="45.54461718182944" lon="9.187763625598766"><ele>150.0</ele><time>2026-04-11T17:13:35.001Z</time></trkpt><trkpt lat="45.544696239718604" lon="9.188068251099663"><ele>150.5</ele><time>2026-04-11T17:13:36.001Z</time></trkpt><trkpt lat="45.544773999204274" lon="9.188371574285446"><ele>151.0</ele><time>2026-04-11T17:13:37.001Z</time></trkpt><trkpt lat="45.54485492297655" lon="9.188675126346574"><ele>151.0</ele><time>2026-04-11T17:13:38.001Z</time></trkpt><trkpt lat="45.54493023822734" lon="9.18898012290455"><ele>151.0</ele><time>2026-04-11T17:13:39.001Z</time></trkpt><trkpt lat="45.54500858161539" lon="9.189285589958788"><ele>151.0</ele><time>2026-04-11T17:13:40.001Z</time></trkpt><trkpt lat="45.545081923341506" lon="9.189588545495821"><ele>151.0</ele><time>2026-04-11T17:13:41.001Z</time></trkpt><trkpt lat="45.54516562409516" lon="9.189895999207197"><ele>151.0</ele><time>2026-04-11T17:13:42.001Z</time></trkpt><trkpt lat="45.54524302225792" lon="9.190197877004822"><ele>151.0</ele><time>2026-04-11T17:13:43.001Z</time></trkpt><trkpt lat="45.545322520750034" lon="9.19050284805689"><ele>152.0</ele><time>2026-04-11T17:13:44.001Z</time></trkpt><trkpt lat="45.545404021044185" lon="9.190811264862916"><ele>153.0</ele><time>2026-04-11T17:13:45.001Z</time></trkpt><trkpt lat="45.54547939135202" lon="9.191113940343746"><ele>153.0</ele><time>2026-04-11T17:13:46.001Z</time></trkpt><trkpt lat="45.54555705207374" lon="9.191422465059645"><ele>153.0</ele><time>2026-04-11T17:13:47.001Z</time></trkpt><trkpt lat="45.5456362422895" lon="9.191728139108575"><ele>151.5</ele><time>2026-04-11T17:13:48.001Z</time></trkpt><trkpt lat="45.5457174788816" lon="9.19203268238199"><ele>150.0</ele><time>2026-04-11T17:13:49.001Z</time></trkpt><trkpt lat="45.54579541676202" lon="9.192331841401998"><ele>150.0</ele><time>2026-04-11T17:13:50.001Z</time></trkpt><trkpt lat="45.545874824271735" lon="9.192634864312932"><ele>150.0</ele><time>2026-04-11T17:13:51.001Z</time></trkpt><trkpt lat="45.54595827778699" lon="9.192938880859819"><ele>149.33333333333334</ele><time>2026-04-11T17:13:52.001Z</time></trkpt><trkpt lat="45.54603463864741" lon="9.193239277249525"><ele>148.66666666666669</ele><time>2026-04-11T17:13:53.001Z</time></trkpt><trkpt lat="45.54611399564831" lon="9.19354032905702"><ele>148.0</ele><time>2026-04-11T17:13:54.001Z</time></trkpt><trkpt lat="45.54619200510352" lon="9.193841561653905"><ele>149.0</ele><time>2026-04-11T17:13:55.001Z</time></trkpt><trkpt lat="45.546271104298945" lon="9.194147950155575"><ele>150.0</ele><time>2026-04-11T17:13:56.002Z</time></trkpt><trkpt lat="45.54634841445696" lon="9.194453389021438"><ele>150.0</ele><time>2026-04-11T17:13:57.002Z</time></trkpt><trkpt lat="45.54642996538154" lon="9.194761692765486"><ele>150.0</ele><time>2026-04-11T17:13:58.002Z</time></trkpt><trkpt lat="45.546509025633874" lon="9.195067555159593"><ele>149.5</ele><time>2026-04-11T17:13:59.002Z</time></trkpt><trkpt lat="45.546588851013" lon="9.195376526274323"><ele>149.0</ele><time>2026-04-11T17:14:00.002Z</time></trkpt><trkpt lat="45.546670753140674" lon="9.19568688044011"><ele>148.5</ele><time>2026-04-11T17:14:01.002Z</time></trkpt><trkpt lat="45.54675505285111" lon="9.196001530768635"><ele>148.0</ele><time>2026-04-11T17:14:02.002Z</time></trkpt><trkpt lat="45.54683764753068" lon="9.196319638516353"><ele>147.5</ele><time>2026-04-11T17:14:03.002Z</time></trkpt><trkpt lat="45.546923279526645" lon="9.196642396161351"><ele>147.0</ele><time>2026-04-11T17:14:04.002Z</time></trkpt><trkpt lat="45.54700503771974" lon="9.196961503207103"><ele>148.0</ele><time>2026-04-11T17:14:05.002Z</time></trkpt><trkpt lat="45.5470911932129" lon="9.197292310570656"><ele>149.0</ele><time>2026-04-11T17:14:06.002Z</time></trkpt><trkpt lat="45.54717474596854" lon="9.197605402562091"><ele>149.0</ele><time>2026-04-11T17:14:07.002Z</time></trkpt><trkpt lat="45.54725561273925" lon="9.197921958342706"><ele>149.0</ele><time>2026-04-11T17:14:08.002Z</time></trkpt><trkpt lat="45.547333701373965" lon="9.198235100555694"><ele>148.0</ele><time>2026-04-11T17:14:09.002Z</time></trkpt><trkpt lat="45.54741596495306" lon="9.198557791993633"><ele>147.0</ele><time>2026-04-11T17:14:10.002Z</time></trkpt><trkpt lat="45.5474947269342" lon="9.198880343236176"><ele>147.5</ele><time>2026-04-11T17:14:11.002Z</time></trkpt><trkpt lat="45.547571881678515" lon="9.199200476493756"><ele>148.0</ele><time>2026-04-11T17:14:12.002Z</time></trkpt><trkpt lat="45.54764603054182" lon="9.199526061287168"><ele>148.0</ele><time>2026-04-11T17:14:13.002Z</time></trkpt><trkpt lat="45.547717434047094" lon="9.199849272056351"><ele>148.0</ele><time>2026-04-11T17:14:14.002Z</time></trkpt><trkpt lat="45.54778293303931" lon="9.200176104003024"><ele>148.0</ele><time>2026-04-11T17:14:15.002Z</time></trkpt><trkpt lat="45.547846467688004" lon="9.20050738647024"><ele>148.0</ele><time>2026-04-11T17:14:16.002Z</time></trkpt><trkpt lat="45.547904895193" lon="9.200835705405261"><ele>148.5</ele><time>2026-04-11T17:14:17.002Z</time></trkpt><trkpt lat="45.5479584612738" lon="9.2011666990722"><ele>149.0</ele><time>2026-04-11T17:14:18.002Z</time></trkpt><trkpt lat="45.548006724218965" lon="9.201496178620564"><ele>149.0</ele><time>2026-04-11T17:14:19.002Z</time></trkpt><trkpt lat="45.54805155493498" lon="9.201831017753662"><ele>149.0</ele><time>2026-04-11T17:14:20.002Z</time></trkpt><trkpt lat="45.54808918544278" lon="9.20216756174644"><ele>148.0</ele><time>2026-04-11T17:14:21.002Z</time></trkpt><trkpt lat="45.54812289006452" lon="9.202502167873279"><ele>147.0</ele><time>2026-04-11T17:14:22.002Z</time></trkpt><trkpt lat="45.5481523914587" lon="9.202841508934025"><ele>147.5</ele><time>2026-04-11T17:14:23.002Z</time></trkpt><trkpt lat="45.54818027469465" lon="9.203179421663267"><ele>148.0</ele><time>2026-04-11T17:14:24.002Z</time></trkpt><trkpt lat="45.54820556078553" lon="9.203518311875927"><ele>148.0</ele><time>2026-04-11T17:14:25.002Z</time></trkpt><trkpt lat="45.5482265814134" lon="9.2038525074496"><ele>148.0</ele><time>2026-04-11T17:14:26.002Z</time></trkpt><trkpt lat="45.54824487298942" lon="9.204174817580348"><ele>148.5</ele><time>2026-04-11T17:14:27.002Z</time></trkpt><trkpt lat="45.54825325791057" lon="9.204502461653684"><ele>149.0</ele><time>2026-04-11T17:14:28.002Z</time></trkpt><trkpt lat="45.54826208791314" lon="9.204845020478995"><ele>149.0</ele><time>2026-04-11T17:14:29.002Z</time></trkpt><trkpt lat="45.548271947008466" lon="9.205180410086426"><ele>149.0</ele><time>2026-04-11T17:14:30.002Z</time></trkpt><trkpt lat="45.548283185536505" lon="9.205514032269058"><ele>148.5</ele><time>2026-04-11T17:14:31.002Z</time></trkpt><trkpt lat="45.54828624000813" lon="9.205838449544228"><ele>148.0</ele><time>2026-04-11T17:14:32.002Z</time></trkpt><trkpt lat="45.548293886734534" lon="9.206169706655318"><ele>148.5</ele><time>2026-04-11T17:14:33.002Z</time></trkpt><trkpt lat="45.54830382068645" lon="9.206495883247205"><ele>149.0</ele><time>2026-04-11T17:14:33.999Z</time></trkpt><trkpt lat="45.54831606927069" lon="9.206824484136758"><ele>149.0</ele><time>2026-04-11T17:14:34.999Z</time></trkpt><trkpt lat="45.548326169990276" lon="9.207152189568717"><ele>149.0</ele><time>2026-04-11T17:14:35.999Z</time></trkpt><trkpt lat="45.548336093262634" lon="9.207477439006716"><ele>149.0</ele><time>2026-04-11T17:14:36.999Z</time></trkpt><trkpt lat="45.5483448509473" lon="9.207797150432192"><ele>149.0</ele><time>2026-04-11T17:14:37.999Z</time></trkpt><trkpt lat="45.54835433795328" lon="9.208114822611117"><ele>149.0</ele><time>2026-04-11T17:14:38.999Z</time></trkpt><trkpt lat="45.548362109226176" lon="9.208428706351153"><ele>149.0</ele><time>2026-04-11T17:14:39.999Z</time></trkpt><trkpt lat="45.54837076965604" lon="9.208736801641441"><ele>149.0</ele><time>2026-04-11T17:14:40.999Z</time></trkpt><trkpt lat="45.54837905160125" lon="9.209041742899057"><ele>149.0</ele><time>2026-04-11T17:14:41.999Z</time></trkpt><trkpt lat="45.54838949507004" lon="9.209345269106377"><ele>149.0</ele><time>2026-04-11T17:14:42.999Z</time></trkpt><trkpt lat="45.548398340307216" lon="9.209647067447287"><ele>149.0</ele><time>2026-04-11T17:14:43.999Z</time></trkpt><trkpt lat="45.54840929115749" lon="9.209950818799378"><ele>149.0</ele><time>2026-04-11T17:14:44.999Z</time></trkpt><trkpt lat="45.54841559966323" lon="9.210246596006074"><ele>149.0</ele><time>2026-04-11T17:14:45.999Z</time></trkpt><trkpt lat="45.5484243539686" lon="9.21054926164861"><ele>149.0</ele><time>2026-04-11T17:14:46.999Z</time></trkpt><trkpt lat="45.548433418640606" lon="9.210850294118961"><ele>149.0</ele><time>2026-04-11T17:14:47.999Z</time></trkpt><trkpt lat="45.54843829740283" lon="9.211147307452002"><ele>149.0</ele><time>2026-04-11T17:14:48.999Z</time></trkpt><trkpt lat="45.54845130608118" lon="9.211453590361288"><ele>149.0</ele><time>2026-04-11T17:14:49.999Z</time></trkpt><trkpt lat="45.54846063125322" lon="9.211756233243822"><ele>149.0</ele><time>2026-04-11T17:14:50.999Z</time></trkpt><trkpt lat="45.54846991821726" lon="9.212061216072295"><ele>149.0</ele><time>2026-04-11T17:14:52Z</time></trkpt><trkpt lat="45.548480765058905" lon="9.21237064967875"><ele>149.0</ele><time>2026-04-11T17:14:53Z</time></trkpt><trkpt lat="45.54848848233815" lon="9.212681989303574"><ele>149.0</ele><time>2026-04-11T17:14:54Z</time></trkpt><trkpt lat="45.54849732396082" lon="9.21299349056166"><ele>148.0</ele><time>2026-04-11T17:14:55Z</time></trkpt><trkpt lat="45.548508563147394" lon="9.213310389288726"><ele>147.0</ele><time>2026-04-11T17:14:56Z</time></trkpt><trkpt lat="45.54851890438432" lon="9.21362667368812"><ele>146.0</ele><time>2026-04-11T17:14:57Z</time></trkpt><trkpt lat="45.548528305779186" lon="9.213942283536777"><ele>146.0</ele><time>2026-04-11T17:14:58Z</time></trkpt><trkpt lat="45.548538028982" lon="9.214262116778022"><ele>146.0</ele><time>2026-04-11T17:14:59Z</time></trkpt><trkpt lat="45.5485462413895" lon="9.214579413110156"><ele>146.0</ele><time>2026-04-11T17:15:00Z</time></trkpt><trkpt lat="45.54855568907715" lon="9.214898130260368"><ele>147.0</ele><time>2026-04-11T17:15:01Z</time></trkpt><trkpt lat="45.548562989125394" lon="9.215213493120839"><ele>148.0</ele><time>2026-04-11T17:15:02Z</time></trkpt><trkpt lat="45.548573468225136" lon="9.21553240510732"><ele>149.0</ele><time>2026-04-11T17:15:03Z</time></trkpt><trkpt lat="45.548580293381264" lon="9.21584883894832"><ele>149.33333333333331</ele><time>2026-04-11T17:15:04Z</time></trkpt><trkpt lat="45.54859089037371" lon="9.216169257749254"><ele>149.66666666666666</ele><time>2026-04-11T17:15:05Z</time></trkpt><trkpt lat="45.54859923623945" lon="9.216483871432573"><ele>150.0</ele><time>2026-04-11T17:15:06Z</time></trkpt><trkpt lat="45.54860891320828" lon="9.216799906228863"><ele>150.0</ele><time>2026-04-11T17:15:07Z</time></trkpt><trkpt lat="45.54861821919486" lon="9.217118783302515"><ele>150.0</ele><time>2026-04-11T17:15:08Z</time></trkpt><trkpt lat="45.548629035085526" lon="9.217435807983227"><ele>150.0</ele><time>2026-04-11T17:15:09Z</time></trkpt><trkpt lat="45.54864104471272" lon="9.217755389829518"><ele>149.66666666666666</ele><time>2026-04-11T17:15:10Z</time></trkpt><trkpt lat="45.54865531042991" lon="9.218072924464485"><ele>149.33333333333331</ele><time>2026-04-11T17:15:11Z</time></trkpt><trkpt lat="45.54867101687167" lon="9.218390051634316"><ele>149.0</ele><time>2026-04-11T17:15:12Z</time></trkpt><trkpt lat="45.54869113959598" lon="9.218704230810415"><ele>149.66666666666666</ele><time>2026-04-11T17:15:13Z</time></trkpt><trkpt lat="45.54870617900692" lon="9.219012356459844"><ele>150.33333333333334</ele><time>2026-04-11T17:15:14Z</time></trkpt><trkpt lat="45.54873150432224" lon="9.219330834277686"><ele>151.0</ele><time>2026-04-11T17:15:15Z</time></trkpt><trkpt lat="45.54875638740059" lon="9.219642224421438"><ele>151.0</ele><time>2026-04-11T17:15:16Z</time></trkpt><trkpt lat="45.54878587329197" lon="9.21995665753433"><ele>151.0</ele><time>2026-04-11T17:15:17Z</time></trkpt><trkpt lat="45.54881595284436" lon="9.220264240216949"><ele>151.0</ele><time>2026-04-11T17:15:18Z</time></trkpt><trkpt lat="45.5488430909239" lon="9.220563966848271"><ele>150.33333333333334</ele><time>2026-04-11T17:15:19Z</time></trkpt><trkpt lat="45.54888171948225" lon="9.220854207314316"><ele>149.66666666666666</ele><time>2026-04-11T17:15:20Z</time></trkpt><trkpt lat="45.54892188065201" lon="9.221143376597531"><ele>149.0</ele><time>2026-04-11T17:15:21Z</time></trkpt><trkpt lat="45.548975878859956" lon="9.221439981669208"><ele>149.0</ele><time>2026-04-11T17:15:22.001Z</time></trkpt><trkpt lat="45.54901920119562" lon="9.221746968195337"><ele>149.0</ele><time>2026-04-11T17:15:23.001Z</time></trkpt><trkpt lat="45.54906317515451" lon="9.222039528397943"><ele>149.0</ele><time>2026-04-11T17:15:24.001Z</time></trkpt><trkpt lat="45.54910761302775" lon="9.222334487106636"><ele>149.0</ele><time>2026-04-11T17:15:25.001Z</time></trkpt><trkpt lat="45.549159099195975" lon="9.222622238732749"><ele>149.0</ele><time>2026-04-11T17:15:26.001Z</time></trkpt><trkpt lat="45.54920552596617" lon="9.222909801598542"><ele>149.0</ele><time>2026-04-11T17:15:27.001Z</time></trkpt><trkpt lat="45.5492502659161" lon="9.223196707526906"><ele>148.66666666666666</ele><time>2026-04-11T17:15:28.001Z</time></trkpt><trkpt lat="45.54929549005181" lon="9.223484068120554"><ele>148.33333333333334</ele><time>2026-04-11T17:15:29.001Z</time></trkpt><trkpt lat="45.54933857455618" lon="9.22376462423636"><ele>148.0</ele><time>2026-04-11T17:15:30.001Z</time></trkpt><trkpt lat="45.54937948455275" lon="9.224043572545568"><ele>148.0</ele><time>2026-04-11T17:15:31.001Z</time></trkpt><trkpt lat="45.54942175077903" lon="9.224322668014093"><ele>148.0</ele><time>2026-04-11T17:15:32.001Z</time></trkpt><trkpt lat="45.54946121632336" lon="9.224594974062333"><ele>148.0</ele><time>2026-04-11T17:15:33.001Z</time></trkpt><trkpt lat="45.5495013618933" lon="9.224856582211032"><ele>148.33333333333334</ele><time>2026-04-11T17:15:34.001Z</time></trkpt><trkpt lat="45.54954253115428" lon="9.225119729114263"><ele>148.66666666666666</ele><time>2026-04-11T17:15:35.001Z</time></trkpt><trkpt lat="45.54958332018208" lon="9.225378048598197"><ele>149.0</ele><time>2026-04-11T17:15:36.001Z</time></trkpt><trkpt lat="45.549623630342516" lon="9.225632125475357"><ele>149.33333333333331</ele><time>2026-04-11T17:15:37.001Z</time></trkpt><trkpt lat="45.549665591222116" lon="9.22588782134417"><ele>149.66666666666666</ele><time>2026-04-11T17:15:38.001Z</time></trkpt><trkpt lat="45.549707524599974" lon="9.226146662555978"><ele>150.0</ele><time>2026-04-11T17:15:39.001Z</time></trkpt><trkpt lat="45.549751061497005" lon="9.226407777905582"><ele>150.0</ele><time>2026-04-11T17:15:40.001Z</time></trkpt><trkpt lat="45.54979101975755" lon="9.226668146151946"><ele>150.0</ele><time>2026-04-11T17:15:41.001Z</time></trkpt><trkpt lat="45.54983456235885" lon="9.22693056588898"><ele>150.0</ele><time>2026-04-11T17:15:42.001Z</time></trkpt><trkpt lat="45.54987662381318" lon="9.227189588285867"><ele>149.0</ele><time>2026-04-11T17:15:43.001Z</time></trkpt><trkpt lat="45.54991977610872" lon="9.227457130552285"><ele>148.0</ele><time>2026-04-11T17:15:44.001Z</time></trkpt><trkpt lat="45.54996339636113" lon="9.227721256074288"><ele>147.0</ele><time>2026-04-11T17:15:45.001Z</time></trkpt><trkpt lat="45.550005139086835" lon="9.227983041641878"><ele>147.33333333333334</ele><time>2026-04-11T17:15:46.001Z</time></trkpt><trkpt lat="45.550045284677495" lon="9.228247793024437"><ele>147.66666666666669</ele><time>2026-04-11T17:15:47.001Z</time></trkpt><trkpt lat="45.550083830435305" lon="9.228516178940012"><ele>148.0</ele><time>2026-04-11T17:15:48.001Z</time></trkpt><trkpt lat="45.55012405504807" lon="9.228784609166084"><ele>148.33333333333334</ele><time>2026-04-11T17:15:49.001Z</time></trkpt><trkpt lat="45.550165275059996" lon="9.229042621834843"><ele>148.66666666666666</ele><time>2026-04-11T17:15:50.001Z</time></trkpt><trkpt lat="45.55020727852132" lon="9.229298751866343"><ele>149.0</ele><time>2026-04-11T17:15:51.001Z</time></trkpt><trkpt lat="45.5502449294859" lon="9.22955556868546"><ele>149.0</ele><time>2026-04-11T17:15:52.001Z</time></trkpt><trkpt lat="45.55028048319356" lon="9.229806835707286"><ele>149.0</ele><time>2026-04-11T17:15:53.001Z</time></trkpt><trkpt lat="45.55032148358764" lon="9.23005814297717"><ele>149.0</ele><time>2026-04-11T17:15:54.001Z</time></trkpt><trkpt lat="45.550363070463625" lon="9.230311696898605"><ele>149.0</ele><time>2026-04-11T17:15:55.001Z</time></trkpt><trkpt lat="45.55040382383295" lon="9.23056052533992"><ele>149.0</ele><time>2026-04-11T17:15:56.001Z</time></trkpt><trkpt lat="45.550443849378354" lon="9.230809794439738"><ele>149.0</ele><time>2026-04-11T17:15:57.001Z</time></trkpt><trkpt lat="45.55048216264133" lon="9.231056184860401"><ele>149.33333333333331</ele><time>2026-04-11T17:15:58.001Z</time></trkpt><trkpt lat="45.55051749868709" lon="9.23129667016543"><ele>149.66666666666666</ele><time>2026-04-11T17:15:59.001Z</time></trkpt><trkpt lat="45.550556905961606" lon="9.231537844299623"><ele>150.0</ele><time>2026-04-11T17:16:00.002Z</time></trkpt><trkpt lat="45.550591464300894" lon="9.23177681198542"><ele>150.66666666666666</ele><time>2026-04-11T17:16:01.002Z</time></trkpt><trkpt lat="45.55062824053932" lon="9.232010917423544"><ele>151.33333333333331</ele><time>2026-04-11T17:16:02.002Z</time></trkpt><trkpt lat="45.55066745299778" lon="9.232241824515686"><ele>152.0</ele><time>2026-04-11T17:16:03.002Z</time></trkpt><trkpt lat="45.5507052855052" lon="9.232470956638368"><ele>152.0</ele><time>2026-04-11T17:16:04.002Z</time></trkpt><trkpt lat="45.55074269527697" lon="9.23270073442917"><ele>152.0</ele><time>2026-04-11T17:16:05.002Z</time></trkpt><trkpt lat="45.55078062410127" lon="9.232928896156789"><ele>152.0</ele><time>2026-04-11T17:16:06.002Z</time></trkpt><trkpt lat="45.55082052524038" lon="9.233159591848606"><ele>152.0</ele><time>2026-04-11T17:16:07.002Z</time></trkpt><trkpt lat="45.55086058592408" lon="9.23338482857736"><ele>152.0</ele><time>2026-04-11T17:16:08.002Z</time></trkpt><trkpt lat="45.55090236076771" lon="9.233607292191982"><ele>152.0</ele><time>2026-04-11T17:16:09.002Z</time></trkpt><trkpt lat="45.55094443376813" lon="9.233824908317876"><ele>153.0</ele><time>2026-04-11T17:16:10.002Z</time></trkpt><trkpt lat="45.55091032709839" lon="9.23420911743784"><ele>154.0</ele><time>2026-04-11T17:16:11.002Z</time></trkpt><trkpt lat="45.55079273779284" lon="9.234474645956164"><ele>154.0</ele><time>2026-04-11T17:16:12.002Z</time></trkpt><trkpt lat="45.550808956777566" lon="9.234716463963341"><ele>154.0</ele><time>2026-04-11T17:16:13.002Z</time></trkpt><trkpt lat="45.550825319926204" lon="9.234960719553031"><ele>154.0</ele><time>2026-04-11T17:16:14.014Z</time></trkpt><trkpt lat="45.55122771318226" lon="9.236166250119854"><ele>148.0</ele><time>2026-04-11T17:16:21.018Z</time></trkpt><trkpt lat="45.55129080206152" lon="9.236953437814009"><ele>148.0</ele><time>2026-04-11T17:16:22.002Z</time></trkpt><trkpt lat="45.55118911566902" lon="9.236626775800925"><ele>148.0</ele><time>2026-04-11T17:16:23.002Z</time></trkpt><trkpt lat="45.55120900940544" lon="9.236835757426384"><ele>148.0</ele><time>2026-04-11T17:16:24.002Z</time></trkpt><trkpt lat="45.551221812087945" lon="9.237011940875277"><ele>148.0</ele><time>2026-04-11T17:16:25.002Z</time></trkpt><trkpt lat="45.5512232254043" lon="9.237176291233247"><ele>148.0</ele><time>2026-04-11T17:16:26.002Z</time></trkpt><trkpt lat="45.55124404213994" lon="9.237326593331252"><ele>148.0</ele><time>2026-04-11T17:16:27.002Z</time></trkpt><trkpt lat="45.55125724195532" lon="9.23747871680253"><ele>148.0</ele><time>2026-04-11T17:16:28.002Z</time></trkpt><trkpt lat="45.55126880536898" lon="9.237634498764754"><ele>148.0</ele><time>2026-04-11T17:16:29.002Z</time></trkpt><trkpt lat="45.55128639328279" lon="9.23780270877383"><ele>148.25</ele><time>2026-04-11T17:16:30.002Z</time></trkpt><trkpt lat="45.5513208526206" lon="9.237978271272736"><ele>148.5</ele><time>2026-04-11T17:16:31.002Z</time></trkpt><trkpt lat="45.55135109640347" lon="9.238148682121626"><ele>148.75</ele><time>2026-04-11T17:16:32.002Z</time></trkpt><trkpt lat="45.5513828860362" lon="9.238326723936286"><ele>149.0</ele><time>2026-04-11T17:16:33.002Z</time></trkpt><trkpt lat="45.55141571848293" lon="9.238504797745497"><ele>149.5</ele><time>2026-04-11T17:16:34.002Z</time></trkpt><trkpt lat="45.55144125606563" lon="9.238682863531698"><ele>150.0</ele><time>2026-04-11T17:16:35.002Z</time></trkpt><trkpt lat="45.551475310837525" lon="9.238875580094751"><ele>150.5</ele><time>2026-04-11T17:16:36.002Z</time></trkpt><trkpt lat="45.55151619235716" lon="9.239054129832763"><ele>151.0</ele><time>2026-04-11T17:16:37.002Z</time></trkpt><trkpt lat="45.55154837655398" lon="9.239228344998779"><ele>151.0</ele><time>2026-04-11T17:16:38.002Z</time></trkpt><trkpt lat="45.55157489147017" lon="9.239404328912375"><ele>151.0</ele><time>2026-04-11T17:16:39.002Z</time></trkpt><trkpt lat="45.55160126342075" lon="9.239578053694906"><ele>151.0</ele><time>2026-04-11T17:16:40Z</time></trkpt><trkpt lat="45.55162371960215" lon="9.239749078531311"><ele>151.0</ele><time>2026-04-11T17:16:40.999Z</time></trkpt><trkpt lat="45.5516488274368" lon="9.239917600661194"><ele>151.0</ele><time>2026-04-11T17:16:42Z</time></trkpt><trkpt lat="45.551669046374634" lon="9.240077372193987"><ele>151.0</ele><time>2026-04-11T17:16:43Z</time></trkpt><trkpt lat="45.55169438112025" lon="9.240233321112573"><ele>151.0</ele><time>2026-04-11T17:16:44Z</time></trkpt><trkpt lat="45.551721845331194" lon="9.240395540157326"><ele>151.0</ele><time>2026-04-11T17:16:45Z</time></trkpt><trkpt lat="45.5517455278561" lon="9.24055704098893"><ele>151.75</ele><time>2026-04-11T17:16:46Z</time></trkpt><trkpt lat="45.55177182828492" lon="9.240722662871146"><ele>152.5</ele><time>2026-04-11T17:16:47Z</time></trkpt><trkpt lat="45.55179366762249" lon="9.240893744240331"><ele>153.25</ele><time>2026-04-11T17:16:48Z</time></trkpt><trkpt lat="45.55181885746129" lon="9.241063725658993"><ele>154.0</ele><time>2026-04-11T17:16:49Z</time></trkpt><trkpt lat="45.55184392656313" lon="9.241237332724255"><ele>154.0</ele><time>2026-04-11T17:16:50Z</time></trkpt><trkpt lat="45.55186654633692" lon="9.24141421634928"><ele>154.0</ele><time>2026-04-11T17:16:51Z</time></trkpt><trkpt lat="45.55189340509108" lon="9.2415977425409"><ele>154.0</ele><time>2026-04-11T17:16:52Z</time></trkpt><trkpt lat="45.551920882211306" lon="9.241783279413216"><ele>154.0</ele><time>2026-04-11T17:16:53Z</time></trkpt><trkpt lat="45.55194840291883" lon="9.241963752274474"><ele>154.25</ele><time>2026-04-11T17:16:54Z</time></trkpt><trkpt lat="45.55197370467662" lon="9.24215026306656"><ele>154.5</ele><time>2026-04-11T17:16:55Z</time></trkpt><trkpt lat="45.55200175728577" lon="9.242340779491212"><ele>154.75</ele><time>2026-04-11T17:16:56Z</time></trkpt><trkpt lat="45.552033002568876" lon="9.242531949823203"><ele>155.0</ele><time>2026-04-11T17:16:57Z</time></trkpt><trkpt lat="45.552063251015625" lon="9.242725524698566"><ele>154.25</ele><time>2026-04-11T17:16:58Z</time></trkpt><trkpt lat="45.5520964711949" lon="9.24292518849331"><ele>153.5</ele><time>2026-04-11T17:16:59Z</time></trkpt><trkpt lat="45.55212382419071" lon="9.243116858162093"><ele>152.75</ele><time>2026-04-11T17:17:00Z</time></trkpt><trkpt lat="45.552153242375596" lon="9.243301372426345"><ele>152.0</ele><time>2026-04-11T17:17:01Z</time></trkpt><trkpt lat="45.5521830490803" lon="9.243482974647167"><ele>152.0</ele><time>2026-04-11T17:17:02Z</time></trkpt><trkpt lat="45.55221011107545" lon="9.24365819822892"><ele>152.0</ele><time>2026-04-11T17:17:03Z</time></trkpt><trkpt lat="45.55222947365987" lon="9.243834046114074"><ele>152.0</ele><time>2026-04-11T17:17:04Z</time></trkpt><trkpt lat="45.55224429477683" lon="9.244011133710439"><ele>152.0</ele><time>2026-04-11T17:17:05Z</time></trkpt><trkpt lat="45.55225390746751" lon="9.244190743244964"><ele>152.0</ele><time>2026-04-11T17:17:06Z</time></trkpt><trkpt lat="45.55225715562201" lon="9.24436943602434"><ele>152.0</ele><time>2026-04-11T17:17:07Z</time></trkpt><trkpt lat="45.552250324466264" lon="9.244546389291697"><ele>152.0</ele><time>2026-04-11T17:17:08Z</time></trkpt><trkpt lat="45.55224083729285" lon="9.244726350114293"><ele>152.0</ele><time>2026-04-11T17:17:09Z</time></trkpt><trkpt lat="45.55222294485749" lon="9.244901762015909"><ele>151.0</ele><time>2026-04-11T17:17:10Z</time></trkpt><trkpt lat="45.55221070788898" lon="9.245072207354406"><ele>150.0</ele><time>2026-04-11T17:17:11Z</time></trkpt><trkpt lat="45.55219765175969" lon="9.245245052196537"><ele>149.0</ele><time>2026-04-11T17:17:12Z</time></trkpt><trkpt lat="45.55219219936059" lon="9.24541134802928"><ele>148.0</ele><time>2026-04-11T17:17:13Z</time></trkpt><trkpt lat="45.55219652245017" lon="9.245567163771632"><ele>148.4</ele><time>2026-04-11T17:17:14Z</time></trkpt><trkpt lat="45.5522176214666" lon="9.24570666022537"><ele>148.8</ele><time>2026-04-11T17:17:15Z</time></trkpt><trkpt lat="45.55225336663461" lon="9.245835028898643"><ele>149.2</ele><time>2026-04-11T17:17:16Z</time></trkpt><trkpt lat="45.55230491535275" lon="9.245955469565796"><ele>149.6</ele><time>2026-04-11T17:17:17Z</time></trkpt><trkpt lat="45.55236109801828" lon="9.246068779022497"><ele>150.0</ele><time>2026-04-11T17:17:18Z</time></trkpt><trkpt lat="45.552424490315396" lon="9.246148362309782"><ele>150.0</ele><time>2026-04-11T17:17:19Z</time></trkpt><trkpt lat="45.55250930234429" lon="9.246199710698608"><ele>150.0</ele><time>2026-04-11T17:17:20Z</time></trkpt><trkpt lat="45.552594918122416" lon="9.246250711717373"><ele>150.0</ele><time>2026-04-11T17:17:21Z</time></trkpt><trkpt lat="45.55269694239577" lon="9.246269733008404"><ele>150.0</ele><time>2026-04-11T17:17:22.001Z</time></trkpt><trkpt lat="45.55279797547568" lon="9.246284248857334"><ele>150.0</ele><time>2026-04-11T17:17:23.001Z</time></trkpt><trkpt lat="45.55290374197608" lon="9.24627664297487"><ele>149.6</ele><time>2026-04-11T17:17:24.001Z</time></trkpt><trkpt lat="45.553003757569456" lon="9.246215333251167"><ele>149.2</ele><time>2026-04-11T17:17:25.001Z</time></trkpt><trkpt lat="45.55309540817367" lon="9.246129562592255"><ele>148.8</ele><time>2026-04-11T17:17:26.001Z</time></trkpt><trkpt lat="45.55315401026201" lon="9.246038880599684"><ele>148.4</ele><time>2026-04-11T17:17:27.001Z</time></trkpt><trkpt lat="45.553233161547425" lon="9.245927049908765"><ele>148.0</ele><time>2026-04-11T17:17:28.001Z</time></trkpt><trkpt lat="45.55330803662683" lon="9.245811460515487"><ele>148.0</ele><time>2026-04-11T17:17:29.001Z</time></trkpt><trkpt lat="45.55338471769004" lon="9.245683991760457"><ele>148.0</ele><time>2026-04-11T17:17:30.001Z</time></trkpt><trkpt lat="45.553461842820404" lon="9.245549911242577"><ele>148.0</ele><time>2026-04-11T17:17:31.001Z</time></trkpt><trkpt lat="45.5535368540721" lon="9.24541230487712"><ele>148.0</ele><time>2026-04-11T17:17:32.001Z</time></trkpt><trkpt lat="45.55361306083605" lon="9.245277819641153"><ele>148.25</ele><time>2026-04-11T17:17:33.001Z</time></trkpt><trkpt lat="45.55368825704336" lon="9.245147347529972"><ele>148.5</ele><time>2026-04-11T17:17:34.001Z</time></trkpt><trkpt lat="45.55376237799588" lon="9.245017157543575"><ele>148.75</ele><time>2026-04-11T17:17:35.001Z</time></trkpt><trkpt lat="45.553835414367946" lon="9.244893773869942"><ele>149.0</ele><time>2026-04-11T17:17:36.001Z</time></trkpt><trkpt lat="45.55390322474782" lon="9.24477304496598"><ele>149.2</ele><time>2026-04-11T17:17:37.001Z</time></trkpt><trkpt lat="45.5539686422936" lon="9.244648570218299"><ele>149.4</ele><time>2026-04-11T17:17:38.001Z</time></trkpt><trkpt lat="45.55403854128532" lon="9.244529590025778"><ele>149.6</ele><time>2026-04-11T17:17:39.001Z</time></trkpt><trkpt lat="45.55410928972841" lon="9.244410368361724"><ele>149.8</ele><time>2026-04-11T17:17:40.001Z</time></trkpt><trkpt lat="45.554183869504186" lon="9.244291340257561"><ele>150.0</ele><time>2026-04-11T17:17:41.001Z</time></trkpt><trkpt lat="45.554255649121686" lon="9.244157621035702"><ele>150.0</ele><time>2026-04-11T17:17:42.001Z</time></trkpt><trkpt lat="45.554330274868484" lon="9.244016203015615"><ele>150.0</ele><time>2026-04-11T17:17:43.001Z</time></trkpt><trkpt lat="45.554405186696364" lon="9.243865252344563"><ele>150.0</ele><time>2026-04-11T17:17:44.001Z</time></trkpt><trkpt lat="45.5544761271467" lon="9.243708951897563"><ele>150.0</ele><time>2026-04-11T17:17:45.001Z</time></trkpt><trkpt lat="45.55453991444845" lon="9.243546965463779"><ele>150.0</ele><time>2026-04-11T17:17:46.001Z</time></trkpt><trkpt lat="45.554600861956224" lon="9.243379190353126"><ele>150.0</ele><time>2026-04-11T17:17:47.001Z</time></trkpt><trkpt lat="45.554658656349524" lon="9.243216683089306"><ele>150.0</ele><time>2026-04-11T17:17:48.001Z</time></trkpt><trkpt lat="45.554712946355764" lon="9.24304356402157"><ele>150.0</ele><time>2026-04-11T17:17:49.001Z</time></trkpt><trkpt lat="45.55476356106325" lon="9.242866430953084"><ele>150.0</ele><time>2026-04-11T17:17:50.015Z</time></trkpt><trkpt lat="45.55481103659414" lon="9.242688687522739"><ele>150.0</ele><time>2026-04-11T17:17:51.019Z</time></trkpt><trkpt lat="45.55485698849448" lon="9.242512527678675"><ele>150.0</ele><time>2026-04-11T17:17:52.015Z</time></trkpt><trkpt lat="45.55490364660986" lon="9.242334576802866"><ele>150.0</ele><time>2026-04-11T17:17:53.02Z</time></trkpt><trkpt lat="45.55494287342908" lon="9.24216840787947"><ele>150.25</ele><time>2026-04-11T17:17:54.001Z</time></trkpt><trkpt lat="45.554986062645796" lon="9.241938664536868"><ele>150.5</ele><time>2026-04-11T17:17:55.001Z</time></trkpt><trkpt lat="45.555028672088234" lon="9.241764189955031"><ele>150.75</ele><time>2026-04-11T17:17:56.001Z</time></trkpt><trkpt lat="45.55506126211091" lon="9.241578603662457"><ele>151.0</ele><time>2026-04-11T17:17:57.001Z</time></trkpt><trkpt lat="45.55509166258747" lon="9.241400979557966"><ele>151.0</ele><time>2026-04-11T17:17:58.001Z</time></trkpt><trkpt lat="45.555118975251276" lon="9.241227839265717"><ele>151.0</ele><time>2026-04-11T17:17:59.002Z</time></trkpt><trkpt lat="45.55515139865037" lon="9.241068532146299"><ele>151.0</ele><time>2026-04-11T17:18:00.002Z</time></trkpt><trkpt lat="45.55518169051169" lon="9.240914739535135"><ele>151.0</ele><time>2026-04-11T17:18:01.002Z</time></trkpt><trkpt lat="45.555215129292705" lon="9.240774358557804"><ele>151.0</ele><time>2026-04-11T17:18:02.002Z</time></trkpt><trkpt lat="45.55525050450394" lon="9.240643111403648"><ele>151.0</ele><time>2026-04-11T17:18:03.002Z</time></trkpt><trkpt lat="45.55529134457841" lon="9.240531800206094"><ele>151.0</ele><time>2026-04-11T17:18:04.002Z</time></trkpt><trkpt lat="45.55533878368543" lon="9.240439216629884"><ele>151.0</ele><time>2026-04-11T17:18:05.002Z</time></trkpt><trkpt lat="45.55538739386788" lon="9.24036166889024"><ele>151.0</ele><time>2026-04-11T17:18:06.002Z</time></trkpt><trkpt lat="45.555441199606726" lon="9.240296310562298"><ele>151.0</ele><time>2026-04-11T17:18:07.002Z</time></trkpt><trkpt lat="45.55550593210059" lon="9.240239249092014"><ele>151.0</ele><time>2026-04-11T17:18:08.002Z</time></trkpt><trkpt lat="45.55557920708163" lon="9.240184638177013"><ele>151.0</ele><time>2026-04-11T17:18:09.002Z</time></trkpt><trkpt lat="45.555661732541765" lon="9.24015382416071"><ele>151.0</ele><time>2026-04-11T17:18:10.002Z</time></trkpt><trkpt lat="45.55573778347847" lon="9.240135609111073"><ele>151.0</ele><time>2026-04-11T17:18:11.002Z</time></trkpt><trkpt lat="45.55580852016675" lon="9.240129546372165"><ele>151.0</ele><time>2026-04-11T17:18:12.002Z</time></trkpt><trkpt lat="45.55588433432171" lon="9.240138229629693"><ele>151.0</ele><time>2026-04-11T17:18:13.002Z</time></trkpt><trkpt lat="45.55595746560287" lon="9.240155787167817"><ele>151.0</ele><time>2026-04-11T17:18:14.002Z</time></trkpt><trkpt lat="45.55602404653868" lon="9.24017554432628"><ele>151.0</ele><time>2026-04-11T17:18:15.002Z</time></trkpt><trkpt lat="45.55613365474598" lon="9.240211979701437"><ele>151.0</ele><time>2026-04-11T17:18:17.002Z</time></trkpt><trkpt lat="45.556232069348624" lon="9.240208954364347"><ele>151.0</ele><time>2026-04-11T17:18:19.002Z</time></trkpt><trkpt lat="45.556286269167224" lon="9.240262295886073"><ele>151.0</ele><time>2026-04-11T17:18:20.002Z</time></trkpt><trkpt lat="45.556359105402244" lon="9.240281141477015"><ele>151.0</ele><time>2026-04-11T17:18:21.002Z</time></trkpt><trkpt lat="45.5564357703495" lon="9.240302644687741"><ele>151.5</ele><time>2026-04-11T17:18:22.002Z</time></trkpt><trkpt lat="45.556505709424435" lon="9.24033196724536"><ele>152.0</ele><time>2026-04-11T17:18:23.002Z</time></trkpt><trkpt lat="45.55657816182249" lon="9.240364844579297"><ele>152.5</ele><time>2026-04-11T17:18:24.002Z</time></trkpt><trkpt lat="45.55666062171157" lon="9.240401844266367"><ele>153.0</ele><time>2026-04-11T17:18:25.002Z</time></trkpt><trkpt lat="45.55675527597439" lon="9.240444051383289"><ele>153.5</ele><time>2026-04-11T17:18:26.002Z</time></trkpt><trkpt lat="45.556858622446505" lon="9.240488398446162"><ele>154.0</ele><time>2026-04-11T17:18:27.002Z</time></trkpt><trkpt lat="45.55696508745878" lon="9.240534530726897"><ele>153.75</ele><time>2026-04-11T17:18:28.002Z</time></trkpt><trkpt lat="45.557069001596275" lon="9.240583080248237"><ele>153.5</ele><time>2026-04-11T17:18:29.002Z</time></trkpt><trkpt lat="45.55717633965315" lon="9.240631552845256"><ele>153.25</ele><time>2026-04-11T17:18:30.002Z</time></trkpt><trkpt lat="45.55728734201488" lon="9.240681836969099"><ele>153.0</ele><time>2026-04-11T17:18:31.002Z</time></trkpt><trkpt lat="45.5573957887757" lon="9.240732517829517"><ele>153.0</ele><time>2026-04-11T17:18:32.002Z</time></trkpt><trkpt lat="45.55750214528571" lon="9.240779317199282"><ele>153.0</ele><time>2026-04-11T17:18:33.002Z</time></trkpt><trkpt lat="45.55761047411885" lon="9.240825246209114"><ele>153.0</ele><time>2026-04-11T17:18:34.002Z</time></trkpt><trkpt lat="45.557706223924555" lon="9.240865322589963"><ele>153.0</ele><time>2026-04-11T17:18:35.002Z</time></trkpt><trkpt lat="45.55780081398139" lon="9.240907403507364"><ele>153.0</ele><time>2026-04-11T17:18:36.002Z</time></trkpt><trkpt lat="45.55790067837991" lon="9.240948561850272"><ele>153.0</ele><time>2026-04-11T17:18:37.003Z</time></trkpt><trkpt lat="45.55800015669566" lon="9.240987569568333"><ele>153.0</ele><time>2026-04-11T17:18:38.003Z</time></trkpt><trkpt lat="45.558103657354394" lon="9.241029485107122"><ele>153.0</ele><time>2026-04-11T17:18:39.003Z</time></trkpt><trkpt lat="45.55820414710191" lon="9.241069705278031"><ele>153.0</ele><time>2026-04-11T17:18:40.003Z</time></trkpt><trkpt lat="45.55830068659968" lon="9.2411120201527"><ele>153.0</ele><time>2026-04-11T17:18:41.003Z</time></trkpt><trkpt lat="45.55839499600601" lon="9.24115056975752"><ele>153.0</ele><time>2026-04-11T17:18:42.003Z</time></trkpt><trkpt lat="45.55848789706931" lon="9.241185710530267"><ele>153.0</ele><time>2026-04-11T17:18:43.003Z</time></trkpt><trkpt lat="45.5585805099489" lon="9.241219020758038"><ele>153.0</ele><time>2026-04-11T17:18:44.003Z</time></trkpt><trkpt lat="45.5586715571372" lon="9.241254003039254"><ele>153.0</ele><time>2026-04-11T17:18:45.003Z</time></trkpt><trkpt lat="45.55875090450873" lon="9.241287881898284"><ele>153.0</ele><time>2026-04-11T17:18:46Z</time></trkpt><trkpt lat="45.55882514265027" lon="9.241317442800533"><ele>153.0</ele><time>2026-04-11T17:18:47Z</time></trkpt><trkpt lat="45.558902807091904" lon="9.241347394785135"><ele>153.0</ele><time>2026-04-11T17:18:48Z</time></trkpt><trkpt lat="45.55898976682832" lon="9.241379998966593"><ele>153.0</ele><time>2026-04-11T17:18:49Z</time></trkpt><trkpt lat="45.55907663675355" lon="9.241428289544654"><ele>153.0</ele><time>2026-04-11T17:18:50Z</time></trkpt><trkpt lat="45.55914892734684" lon="9.241508982452691"><ele>153.0</ele><time>2026-04-11T17:18:51Z</time></trkpt><trkpt lat="45.559209471620925" lon="9.241613486401533"><ele>153.0</ele><time>2026-04-11T17:18:52Z</time></trkpt><trkpt lat="45.55925558443992" lon="9.241739093354177"><ele>153.5</ele><time>2026-04-11T17:18:53Z</time></trkpt><trkpt lat="45.559286421517946" lon="9.24189213912273"><ele>154.0</ele><time>2026-04-11T17:18:54Z</time></trkpt><trkpt lat="45.55930532290897" lon="9.2420616196798"><ele>154.5</ele><time>2026-04-11T17:18:55Z</time></trkpt><trkpt lat="45.559317689442395" lon="9.242245259241985"><ele>155.0</ele><time>2026-04-11T17:18:56Z</time></trkpt><trkpt lat="45.55933439255366" lon="9.24243805555005"><ele>155.0</ele><time>2026-04-11T17:18:57Z</time></trkpt><trkpt lat="45.559356614833376" lon="9.242636130156376"><ele>155.0</ele><time>2026-04-11T17:18:58Z</time></trkpt><trkpt lat="45.55938209175539" lon="9.242822727807168"><ele>155.0</ele><time>2026-04-11T17:18:59Z</time></trkpt><trkpt lat="45.55942249570197" lon="9.242997901377919"><ele>155.0</ele><time>2026-04-11T17:19:00Z</time></trkpt><trkpt lat="45.559481377905584" lon="9.243174248686655"><ele>153.5</ele><time>2026-04-11T17:19:01Z</time></trkpt><trkpt lat="45.55956130791466" lon="9.243343133527764"><ele>152.0</ele><time>2026-04-11T17:19:02Z</time></trkpt><trkpt lat="45.55965308218192" lon="9.243500445890506"><ele>150.5</ele><time>2026-04-11T17:19:03Z</time></trkpt><trkpt lat="45.55974188329138" lon="9.243655556915911"><ele>149.0</ele><time>2026-04-11T17:19:04Z</time></trkpt><trkpt lat="45.55981701848279" lon="9.243819970826639"><ele>149.5</ele><time>2026-04-11T17:19:05Z</time></trkpt><trkpt lat="45.55988043204997" lon="9.243998584780417"><ele>150.0</ele><time>2026-04-11T17:19:06Z</time></trkpt><trkpt lat="45.55992577518547" lon="9.24419003414498"><ele>150.5</ele><time>2026-04-11T17:19:07Z</time></trkpt><trkpt lat="45.55998190247929" lon="9.244394324987812"><ele>151.0</ele><time>2026-04-11T17:19:08Z</time></trkpt><trkpt lat="45.55997965242238" lon="9.244630287449183"><ele>151.0</ele><time>2026-04-11T17:19:09Z</time></trkpt><trkpt lat="45.55999869003749" lon="9.244847449864354"><ele>151.0</ele><time>2026-04-11T17:19:10Z</time></trkpt><trkpt lat="45.56002069952296" lon="9.24507847543063"><ele>151.0</ele><time>2026-04-11T17:19:11Z</time></trkpt><trkpt lat="45.56005109675689" lon="9.245318435615587"><ele>151.0</ele><time>2026-04-11T17:19:12Z</time></trkpt><trkpt lat="45.560074013764996" lon="9.245566407056954"><ele>151.0</ele><time>2026-04-11T17:19:13Z</time></trkpt><trkpt lat="45.560100691448" lon="9.245823201346877"><ele>151.0</ele><time>2026-04-11T17:19:14Z</time></trkpt><trkpt lat="45.56012840089389" lon="9.246081101390189"><ele>151.0</ele><time>2026-04-11T17:19:15Z</time></trkpt><trkpt lat="45.560156499873045" lon="9.246335938799731"><ele>151.0</ele><time>2026-04-11T17:19:16Z</time></trkpt><trkpt lat="45.560183140353" lon="9.246589540427827"><ele>151.0</ele><time>2026-04-11T17:19:17Z</time></trkpt><trkpt lat="45.560212380856804" lon="9.24684400023319"><ele>150.66666666666669</ele><time>2026-04-11T17:19:18Z</time></trkpt><trkpt lat="45.56023627274463" lon="9.247104664314032"><ele>150.33333333333334</ele><time>2026-04-11T17:19:19.001Z</time></trkpt><trkpt lat="45.56026154736438" lon="9.247371732456218"><ele>150.0</ele><time>2026-04-11T17:19:20.001Z</time></trkpt><trkpt lat="45.56028485043182" lon="9.247640318651506"><ele>150.0</ele><time>2026-04-11T17:19:21.001Z</time></trkpt><trkpt lat="45.56031007079152" lon="9.247916633731252"><ele>150.0</ele><time>2026-04-11T17:19:22.001Z</time></trkpt><trkpt lat="45.560334332524654" lon="9.248193702777439"><ele>150.0</ele><time>2026-04-11T17:19:23.001Z</time></trkpt><trkpt lat="45.560358314534625" lon="9.248472001324435"><ele>150.0</ele><time>2026-04-11T17:19:24.001Z</time></trkpt><trkpt lat="45.560382105842024" lon="9.248752847416418"><ele>150.0</ele><time>2026-04-11T17:19:25.001Z</time></trkpt><trkpt lat="45.56040290772695" lon="9.249031521650439"><ele>150.0</ele><time>2026-04-11T17:19:26.001Z</time></trkpt><trkpt lat="45.560427113307384" lon="9.24930364747835"><ele>150.33333333333334</ele><time>2026-04-11T17:19:27.001Z</time></trkpt><trkpt lat="45.56044917598203" lon="9.249585318574693"><ele>150.66666666666669</ele><time>2026-04-11T17:19:28.001Z</time></trkpt><trkpt lat="45.560473160671286" lon="9.249864141739808"><ele>151.0</ele><time>2026-04-11T17:19:29.001Z</time></trkpt><trkpt lat="45.560497018691045" lon="9.250143912802596"><ele>151.0</ele><time>2026-04-11T17:19:30.001Z</time></trkpt><trkpt lat="45.560518307014945" lon="9.250420190218001"><ele>151.0</ele><time>2026-04-11T17:19:31.001Z</time></trkpt><trkpt lat="45.56054159384034" lon="9.250704097661924"><ele>151.0</ele><time>2026-04-11T17:19:32.001Z</time></trkpt><trkpt lat="45.56055866355828" lon="9.250985206726694"><ele>150.33333333333334</ele><time>2026-04-11T17:19:33.001Z</time></trkpt><trkpt lat="45.56056980034698" lon="9.251261600649078"><ele>149.66666666666666</ele><time>2026-04-11T17:19:34.001Z</time></trkpt><trkpt lat="45.56057876492373" lon="9.251538917827821"><ele>149.0</ele><time>2026-04-11T17:19:35.001Z</time></trkpt><trkpt lat="45.560579845361275" lon="9.251812305937918"><ele>148.0</ele><time>2026-04-11T17:19:36.001Z</time></trkpt><trkpt lat="45.560570968195506" lon="9.252085625602616"><ele>147.0</ele><time>2026-04-11T17:19:37.001Z</time></trkpt><trkpt lat="45.56055100115476" lon="9.252356495060903"><ele>146.0</ele><time>2026-04-11T17:19:38.001Z</time></trkpt><trkpt lat="45.56052582783649" lon="9.252627028676406"><ele>146.0</ele><time>2026-04-11T17:19:39.001Z</time></trkpt><trkpt lat="45.560494272278284" lon="9.252899804542913"><ele>146.0</ele><time>2026-04-11T17:19:40.001Z</time></trkpt><trkpt lat="45.56045511196631" lon="9.253164325146999"><ele>146.0</ele><time>2026-04-11T17:19:41.001Z</time></trkpt><trkpt lat="45.560409499702274" lon="9.253424351425268"><ele>146.0</ele><time>2026-04-11T17:19:42.001Z</time></trkpt><trkpt lat="45.56035629619548" lon="9.253681026516814"><ele>146.0</ele><time>2026-04-11T17:19:43.001Z</time></trkpt><trkpt lat="45.56029658164697" lon="9.253938674260745"><ele>146.0</ele><time>2026-04-11T17:19:44.001Z</time></trkpt><trkpt lat="45.56022709021535" lon="9.254191080732951"><ele>146.33333333333331</ele><time>2026-04-11T17:19:45.001Z</time></trkpt><trkpt lat="45.56015024560664" lon="9.254435179389152"><ele>146.66666666666666</ele><time>2026-04-11T17:19:46.001Z</time></trkpt><trkpt lat="45.56006897477826" lon="9.254675407799512"><ele>147.0</ele><time>2026-04-11T17:19:47.001Z</time></trkpt><trkpt lat="45.5599862958463" lon="9.254899202779901"><ele>147.0</ele><time>2026-04-11T17:19:48.001Z</time></trkpt><trkpt lat="45.55989779483568" lon="9.255117321914215"><ele>147.0</ele><time>2026-04-11T17:19:49.001Z</time></trkpt><trkpt lat="45.559806366889504" lon="9.255335437655718"><ele>147.0</ele><time>2026-04-11T17:19:50.001Z</time></trkpt><trkpt lat="45.559713223841904" lon="9.25553495745148"><ele>146.66666666666666</ele><time>2026-04-11T17:19:51.001Z</time></trkpt><trkpt lat="45.55961083958243" lon="9.255724470806676"><ele>146.33333333333331</ele><time>2026-04-11T17:19:52.001Z</time></trkpt><trkpt lat="45.559520430315295" lon="9.255922751136758"><ele>146.0</ele><time>2026-04-11T17:19:53.001Z</time></trkpt><trkpt lat="45.559426288571345" lon="9.256111844125224"><ele>146.0</ele><time>2026-04-11T17:19:54.001Z</time></trkpt><trkpt lat="45.559325410421756" lon="9.256303696477207"><ele>146.0</ele><time>2026-04-11T17:19:55.001Z</time></trkpt><trkpt lat="45.55922692216987" lon="9.256500953644059"><ele>146.0</ele><time>2026-04-11T17:19:56.002Z</time></trkpt><trkpt lat="45.55912798119105" lon="9.256703406488585"><ele>146.0</ele><time>2026-04-11T17:19:57.002Z</time></trkpt><trkpt lat="45.559026771135684" lon="9.256904945047086"><ele>146.0</ele><time>2026-04-11T17:19:58.002Z</time></trkpt><trkpt lat="45.55892635920809" lon="9.257110512484072"><ele>146.0</ele><time>2026-04-11T17:19:59.002Z</time></trkpt><trkpt lat="45.55882400545372" lon="9.257320121787686"><ele>147.0</ele><time>2026-04-11T17:20:00.002Z</time></trkpt><trkpt lat="45.558729919691466" lon="9.25752252904398"><ele>148.0</ele><time>2026-04-11T17:20:01.002Z</time></trkpt><trkpt lat="45.55863680911113" lon="9.257721075554285"><ele>149.0</ele><time>2026-04-11T17:20:02.002Z</time></trkpt><trkpt lat="45.558544559530965" lon="9.257914811861525"><ele>149.66666666666666</ele><time>2026-04-11T17:20:03.002Z</time></trkpt><trkpt lat="45.55844948267339" lon="9.258113220138975"><ele>150.33333333333334</ele><time>2026-04-11T17:20:04.019Z</time></trkpt><trkpt lat="45.55835570814682" lon="9.258307779690785"><ele>151.0</ele><time>2026-04-11T17:20:05.017Z</time></trkpt><trkpt lat="45.558264396850134" lon="9.258500153786587"><ele>151.0</ele><time>2026-04-11T17:20:06.017Z</time></trkpt><trkpt lat="45.55788853684092" lon="9.25929502807084"><ele>151.0</ele><time>2026-04-11T17:20:10.018Z</time></trkpt><trkpt lat="45.55779511451872" lon="9.259488353070749"><ele>151.0</ele><time>2026-04-11T17:20:11.014Z</time></trkpt><trkpt lat="45.55715089503866" lon="9.26218768544954"><ele>146.0</ele><time>2026-04-11T17:20:14.244Z</time></trkpt><trkpt lat="45.556949512144136" lon="9.26335701719789"><ele>146.0</ele><time>2026-04-11T17:20:30.002Z</time></trkpt><trkpt lat="45.55692356117935" lon="9.263513597347048"><ele>146.0</ele><time>2026-04-11T17:20:31.002Z</time></trkpt><trkpt lat="45.55690396190135" lon="9.263639420607216"><ele>146.0</ele><time>2026-04-11T17:20:32.002Z</time></trkpt><trkpt lat="45.55689021686573" lon="9.263767797586436"><ele>146.0</ele><time>2026-04-11T17:20:33.002Z</time></trkpt><trkpt lat="45.5568514581965" lon="9.26388517675415"><ele>146.0</ele><time>2026-04-11T17:20:34.003Z</time></trkpt><trkpt lat="45.556802744997555" lon="9.263991425786404"><ele>145.8</ele><time>2026-04-11T17:20:35.003Z</time></trkpt><trkpt lat="45.556725613297566" lon="9.26406209911928"><ele>145.6</ele><time>2026-04-11T17:20:36.003Z</time></trkpt><trkpt lat="45.55664339739658" lon="9.264097935819965"><ele>145.4</ele><time>2026-04-11T17:20:37.003Z</time></trkpt><trkpt lat="45.55655227832094" lon="9.264097307851978"><ele>145.2</ele><time>2026-04-11T17:20:38.003Z</time></trkpt><trkpt lat="45.556459214738" lon="9.264061473381158"><ele>145.0</ele><time>2026-04-11T17:20:39.003Z</time></trkpt><trkpt lat="45.55637617564071" lon="9.2639960211098"><ele>145.2</ele><time>2026-04-11T17:20:40.003Z</time></trkpt><trkpt lat="45.556309600994" lon="9.263904106599547"><ele>145.4</ele><time>2026-04-11T17:20:41.003Z</time></trkpt><trkpt lat="45.5562609458451" lon="9.263789639007875"><ele>145.6</ele><time>2026-04-11T17:20:42.003Z</time></trkpt><trkpt lat="45.556230409770194" lon="9.263653781577936"><ele>145.8</ele><time>2026-04-11T17:20:43.003Z</time></trkpt><trkpt lat="45.556231099012734" lon="9.263504987356601"><ele>146.0</ele><time>2026-04-11T17:20:44.003Z</time></trkpt><trkpt lat="45.556261738829214" lon="9.26336008338342"><ele>146.0</ele><time>2026-04-11T17:20:45.003Z</time></trkpt><trkpt lat="45.55631306324097" lon="9.263220450206823"><ele>146.0</ele><time>2026-04-11T17:20:46.003Z</time></trkpt><trkpt lat="45.55637946012557" lon="9.263082673822138"><ele>146.0</ele><time>2026-04-11T17:20:47.003Z</time></trkpt><trkpt lat="45.556454881853234" lon="9.262955557326842"><ele>146.0</ele><time>2026-04-11T17:20:48.003Z</time></trkpt><trkpt lat="45.55655196365471" lon="9.262865777410854"><ele>146.6</ele><time>2026-04-11T17:20:49.003Z</time></trkpt><trkpt lat="45.556648359511094" lon="9.262793882941873"><ele>147.2</ele><time>2026-04-11T17:20:50.003Z</time></trkpt><trkpt lat="45.55673833760009" lon="9.262746374362838"><ele>147.8</ele><time>2026-04-11T17:20:51.003Z</time></trkpt><trkpt lat="45.556825929297986" lon="9.262723933570175"><ele>148.4</ele><time>2026-04-11T17:20:52Z</time></trkpt><trkpt lat="45.55691379325057" lon="9.262723584969232"><ele>149.0</ele><time>2026-04-11T17:20:53Z</time></trkpt><trkpt lat="45.557002525597326" lon="9.262743129652202"><ele>149.2</ele><time>2026-04-11T17:20:54Z</time></trkpt><trkpt lat="45.557085204333845" lon="9.262790451660042"><ele>149.4</ele><time>2026-04-11T17:20:55Z</time></trkpt><trkpt lat="45.557161612201156" lon="9.262872008541846"><ele>149.6</ele><time>2026-04-11T17:20:56Z</time></trkpt><trkpt lat="45.55722495294501" lon="9.262981362452862"><ele>149.8</ele><time>2026-04-11T17:20:57Z</time></trkpt><trkpt lat="45.5572993953059" lon="9.263087449326166"><ele>150.0</ele><time>2026-04-11T17:20:58Z</time></trkpt><trkpt lat="45.557351802962664" lon="9.263246485488148"><ele>150.0</ele><time>2026-04-11T17:20:59Z</time></trkpt><trkpt lat="45.55742885948793" lon="9.263406549680337"><ele>150.0</ele><time>2026-04-11T17:21:00Z</time></trkpt><trkpt lat="45.55750723246344" lon="9.263573906518054"><ele>150.0</ele><time>2026-04-11T17:21:01Z</time></trkpt><trkpt lat="45.55758338945863" lon="9.263734179906129"><ele>150.0</ele><time>2026-04-11T17:21:02Z</time></trkpt><trkpt lat="45.557660550932695" lon="9.263901519964374"><ele>150.25</ele><time>2026-04-11T17:21:03Z</time></trkpt><trkpt lat="45.55774037833042" lon="9.264076645955447"><ele>150.5</ele><time>2026-04-11T17:21:04Z</time></trkpt><trkpt lat="45.557820918828085" lon="9.264254238723682"><ele>150.75</ele><time>2026-04-11T17:21:05Z</time></trkpt><trkpt lat="45.55790172258789" lon="9.264431628384795"><ele>151.0</ele><time>2026-04-11T17:21:06Z</time></trkpt><trkpt lat="45.55798046994362" lon="9.264611746894987"><ele>150.5</ele><time>2026-04-11T17:21:07Z</time></trkpt><trkpt lat="45.5580623709578" lon="9.264794106551161"><ele>150.0</ele><time>2026-04-11T17:21:08Z</time></trkpt><trkpt lat="45.558140722488716" lon="9.264972420340385"><ele>149.5</ele><time>2026-04-11T17:21:09Z</time></trkpt><trkpt lat="45.558217030920204" lon="9.265150569126863"><ele>149.0</ele><time>2026-04-11T17:21:10Z</time></trkpt><trkpt lat="45.55829465905869" lon="9.265336002637344"><ele>149.0</ele><time>2026-04-11T17:21:11Z</time></trkpt><trkpt lat="45.55836893984418" lon="9.265529019581288"><ele>149.0</ele><time>2026-04-11T17:21:12Z</time></trkpt><trkpt lat="45.55843794376347" lon="9.265728666979198"><ele>149.0</ele><time>2026-04-11T17:21:13Z</time></trkpt><trkpt lat="45.558501103095665" lon="9.265917524539722"><ele>148.75</ele><time>2026-04-11T17:21:14Z</time></trkpt><trkpt lat="45.558562416562424" lon="9.266100041382556"><ele>148.5</ele><time>2026-04-11T17:21:15Z</time></trkpt><trkpt lat="45.55862143655734" lon="9.26628895069515"><ele>148.25</ele><time>2026-04-11T17:21:16Z</time></trkpt><trkpt lat="45.558685260838885" lon="9.266482927241155"><ele>148.0</ele><time>2026-04-11T17:21:17Z</time></trkpt><trkpt lat="45.558747809886576" lon="9.266670598311821"><ele>148.66666666666669</ele><time>2026-04-11T17:21:18Z</time></trkpt><trkpt lat="45.55881056229241" lon="9.266865458652155"><ele>149.33333333333334</ele><time>2026-04-11T17:21:19Z</time></trkpt><trkpt lat="45.55888024685029" lon="9.267065730526703"><ele>150.0</ele><time>2026-04-11T17:21:20Z</time></trkpt><trkpt lat="45.55894712964638" lon="9.267258392648964"><ele>149.66666666666666</ele><time>2026-04-11T17:21:21Z</time></trkpt><trkpt lat="45.55902427599801" lon="9.267459378835309"><ele>149.33333333333331</ele><time>2026-04-11T17:21:22Z</time></trkpt><trkpt lat="45.55911080304021" lon="9.267652807038687"><ele>149.0</ele><time>2026-04-11T17:21:23Z</time></trkpt><trkpt lat="45.55920539591299" lon="9.26783849572624"><ele>149.0</ele><time>2026-04-11T17:21:24.001Z</time></trkpt><trkpt lat="45.55930096472478" lon="9.268023270122779"><ele>149.0</ele><time>2026-04-11T17:21:25.001Z</time></trkpt><trkpt lat="45.5594051428467" lon="9.268194281640886"><ele>149.0</ele><time>2026-04-11T17:21:26.001Z</time></trkpt><trkpt lat="45.559518624419674" lon="9.268357063555385"><ele>148.33333333333331</ele><time>2026-04-11T17:21:27.001Z</time></trkpt><trkpt lat="45.55964989617942" lon="9.268528805336974"><ele>147.66666666666666</ele><time>2026-04-11T17:21:28.001Z</time></trkpt><trkpt lat="45.55979591564631" lon="9.268703716227746"><ele>147.0</ele><time>2026-04-11T17:21:29.001Z</time></trkpt><trkpt lat="45.559938461941606" lon="9.268896987895019"><ele>147.33333333333334</ele><time>2026-04-11T17:21:30.001Z</time></trkpt><trkpt lat="45.56006965855976" lon="9.269105993162032"><ele>147.66666666666669</ele><time>2026-04-11T17:21:31.001Z</time></trkpt><trkpt lat="45.56018767819814" lon="9.269334907070347"><ele>148.0</ele><time>2026-04-11T17:21:32.001Z</time></trkpt><trkpt lat="45.56029149324093" lon="9.269591432000674"><ele>149.0</ele><time>2026-04-11T17:21:33.001Z</time></trkpt><trkpt lat="45.56038289127553" lon="9.269863450984836"><ele>150.0</ele><time>2026-04-11T17:21:34.001Z</time></trkpt><trkpt lat="45.56045909216653" lon="9.270109477103416"><ele>151.0</ele><time>2026-04-11T17:21:35.001Z</time></trkpt><trkpt lat="45.560538277933254" lon="9.270360523307403"><ele>150.0</ele><time>2026-04-11T17:21:36.001Z</time></trkpt><trkpt lat="45.56062086100525" lon="9.270611916348726"><ele>149.0</ele><time>2026-04-11T17:21:37.001Z</time></trkpt><trkpt lat="45.560712048470684" lon="9.27086578415591"><ele>148.0</ele><time>2026-04-11T17:21:38.001Z</time></trkpt><trkpt lat="45.560806977198155" lon="9.271125822038595"><ele>148.0</ele><time>2026-04-11T17:21:39.001Z</time></trkpt><trkpt lat="45.560900116093535" lon="9.271381713978062"><ele>148.0</ele><time>2026-04-11T17:21:40.001Z</time></trkpt><trkpt lat="45.56099841331559" lon="9.271639138134203"><ele>148.0</ele><time>2026-04-11T17:21:41.001Z</time></trkpt><trkpt lat="45.561098965820776" lon="9.271896216007276"><ele>148.33333333333334</ele><time>2026-04-11T17:21:42.001Z</time></trkpt><trkpt lat="45.561199327192035" lon="9.272157872511634"><ele>148.66666666666666</ele><time>2026-04-11T17:21:43.001Z</time></trkpt><trkpt lat="45.561304416359604" lon="9.272420914310265"><ele>149.0</ele><time>2026-04-11T17:21:44.001Z</time></trkpt><trkpt lat="45.5614090143446" lon="9.272679198318722"><ele>149.0</ele><time>2026-04-11T17:21:45.001Z</time></trkpt><trkpt lat="45.56151771836622" lon="9.272935110662047"><ele>149.0</ele><time>2026-04-11T17:21:46.001Z</time></trkpt><trkpt lat="45.561628984727946" lon="9.27319500750158"><ele>149.0</ele><time>2026-04-11T17:21:47.001Z</time></trkpt><trkpt lat="45.561740949398256" lon="9.273453529721266"><ele>149.33333333333331</ele><time>2026-04-11T17:21:48.001Z</time></trkpt><trkpt lat="45.56185788307297" lon="9.273710589139478"><ele>149.66666666666666</ele><time>2026-04-11T17:21:49.001Z</time></trkpt><trkpt lat="45.561976428254084" lon="9.273967742980888"><ele>150.0</ele><time>2026-04-11T17:21:50.001Z</time></trkpt><trkpt lat="45.56209697036102" lon="9.274223485423049"><ele>150.0</ele><time>2026-04-11T17:21:51.001Z</time></trkpt><trkpt lat="45.56221992216787" lon="9.274475172110357"><ele>150.0</ele><time>2026-04-11T17:21:52.001Z</time></trkpt><trkpt lat="45.5623448717079" lon="9.274731462308285"><ele>150.0</ele><time>2026-04-11T17:21:53.001Z</time></trkpt><trkpt lat="45.56247571159726" lon="9.274997949792402"><ele>149.5</ele><time>2026-04-11T17:21:54.001Z</time></trkpt><trkpt lat="45.56259869696965" lon="9.275267668616221"><ele>149.0</ele><time>2026-04-11T17:21:55.001Z</time></trkpt><trkpt lat="45.56272531767859" lon="9.275541577889177"><ele>149.0</ele><time>2026-04-11T17:21:56.001Z</time></trkpt><trkpt lat="45.56285165370522" lon="9.275820963528822"><ele>149.0</ele><time>2026-04-11T17:21:57.001Z</time></trkpt><trkpt lat="45.56298254388876" lon="9.276109917611405"><ele>148.5</ele><time>2026-04-11T17:21:58.001Z</time></trkpt><trkpt lat="45.5631113606208" lon="9.276393836433893"><ele>148.0</ele><time>2026-04-11T17:21:59.001Z</time></trkpt><trkpt lat="45.56323963875004" lon="9.276685307953688"><ele>149.0</ele><time>2026-04-11T17:22:00.001Z</time></trkpt><trkpt lat="45.56336698081031" lon="9.2769698681781"><ele>150.0</ele><time>2026-04-11T17:22:01.001Z</time></trkpt><trkpt lat="45.563491361224145" lon="9.277256726619312"><ele>149.0</ele><time>2026-04-11T17:22:02.002Z</time></trkpt><trkpt lat="45.56361355482004" lon="9.277542478249272"><ele>148.0</ele><time>2026-04-11T17:22:03.002Z</time></trkpt><trkpt lat="45.563732678381626" lon="9.277825352304335"><ele>148.0</ele><time>2026-04-11T17:22:04.002Z</time></trkpt><trkpt lat="45.56385916260695" lon="9.27810781470164"><ele>148.0</ele><time>2026-04-11T17:22:05.002Z</time></trkpt><trkpt lat="45.56398345899579" lon="9.278388862699618"><ele>148.0</ele><time>2026-04-11T17:22:06.002Z</time></trkpt><trkpt lat="45.56410306433496" lon="9.278665185441838"><ele>148.0</ele><time>2026-04-11T17:22:07.002Z</time></trkpt><trkpt lat="45.56422204427953" lon="9.278934845734453"><ele>145.5</ele><time>2026-04-11T17:22:08.002Z</time></trkpt><trkpt lat="45.5643404970132" lon="9.279205308924334"><ele>143.0</ele><time>2026-04-11T17:22:09.002Z</time></trkpt><trkpt lat="45.564462147191804" lon="9.27947934930742"><ele>145.0</ele><time>2026-04-11T17:22:10.002Z</time></trkpt><trkpt lat="45.56458367844037" lon="9.279754004324596"><ele>147.0</ele><time>2026-04-11T17:22:11.002Z</time></trkpt><trkpt lat="45.56470329581366" lon="9.280028413783159"><ele>148.0</ele><time>2026-04-11T17:22:12.002Z</time></trkpt><trkpt lat="45.564821834239304" lon="9.280298807864005"><ele>149.0</ele><time>2026-04-11T17:22:13.002Z</time></trkpt><trkpt lat="45.56493869611073" lon="9.280571243253567"><ele>150.0</ele><time>2026-04-11T17:22:14.002Z</time></trkpt><trkpt lat="45.56505699240681" lon="9.280837190337726"><ele>150.33333333333334</ele><time>2026-04-11T17:22:15.002Z</time></trkpt><trkpt lat="45.565170831688874" lon="9.281097424722342"><ele>150.66666666666669</ele><time>2026-04-11T17:22:16.002Z</time></trkpt><trkpt lat="45.565281988428445" lon="9.281355232540813"><ele>151.0</ele><time>2026-04-11T17:22:17.002Z</time></trkpt><trkpt lat="45.565389555264154" lon="9.281606052397825"><ele>151.0</ele><time>2026-04-11T17:22:18.002Z</time></trkpt><trkpt lat="45.5654989462193" lon="9.281863809193434"><ele>151.0</ele><time>2026-04-11T17:22:19.002Z</time></trkpt><trkpt lat="45.56560951498305" lon="9.28211988838177"><ele>151.0</ele><time>2026-04-11T17:22:20.002Z</time></trkpt><trkpt lat="45.56571300042372" lon="9.282369934865702"><ele>151.0</ele><time>2026-04-11T17:22:21.002Z</time></trkpt><trkpt lat="45.565816370808626" lon="9.282610564642173"><ele>151.0</ele><time>2026-04-11T17:22:22.002Z</time></trkpt><trkpt lat="45.565917203150065" lon="9.282844726895764"><ele>151.0</ele><time>2026-04-11T17:22:23.002Z</time></trkpt><trkpt lat="45.56601742071097" lon="9.283079735682657"><ele>150.66666666666669</ele><time>2026-04-11T17:22:24.002Z</time></trkpt><trkpt lat="45.566121733337816" lon="9.283318606053294"><ele>150.33333333333334</ele><time>2026-04-11T17:22:25.002Z</time></trkpt><trkpt lat="45.56622681991383" lon="9.283568025478099"><ele>150.0</ele><time>2026-04-11T17:22:26.002Z</time></trkpt><trkpt lat="45.566334082389254" lon="9.283816783877276"><ele>150.66666666666666</ele><time>2026-04-11T17:22:27.002Z</time></trkpt><trkpt lat="45.56644314785543" lon="9.284071534411915"><ele>151.33333333333331</ele><time>2026-04-11T17:22:28.002Z</time></trkpt><trkpt lat="45.56655313292383" lon="9.284330151106074"><ele>152.0</ele><time>2026-04-11T17:22:29.002Z</time></trkpt><trkpt lat="45.56666396999239" lon="9.284579427387092"><ele>152.0</ele><time>2026-04-11T17:22:30.002Z</time></trkpt><trkpt lat="45.56677042913367" lon="9.284832623870747"><ele>152.0</ele><time>2026-04-11T17:22:31.002Z</time></trkpt><trkpt lat="45.56687964137781" lon="9.285088983520552"><ele>152.0</ele><time>2026-04-11T17:22:32.019Z</time></trkpt><trkpt lat="45.5669865567427" lon="9.285343267855854"><ele>152.0</ele><time>2026-04-11T17:22:33.016Z</time></trkpt><trkpt lat="45.5670928084179" lon="9.285603737090169"><ele>152.0</ele><time>2026-04-11T17:22:34.019Z</time></trkpt><trkpt lat="45.567198596623946" lon="9.285855626698995"><ele>152.0</ele><time>2026-04-11T17:22:35.002Z</time></trkpt><trkpt lat="45.567204010614674" lon="9.286398965711944"><ele>152.5</ele><time>2026-04-11T17:22:36.002Z</time></trkpt><trkpt lat="45.56728779893496" lon="9.286704051714782"><ele>153.0</ele><time>2026-04-11T17:22:37.002Z</time></trkpt><trkpt lat="45.5673770365841" lon="9.287005832535057"><ele>153.0</ele><time>2026-04-11T17:22:38.002Z</time></trkpt><trkpt lat="45.567459400216926" lon="9.28728688074397"><ele>153.0</ele><time>2026-04-11T17:22:39.003Z</time></trkpt><trkpt lat="45.56754549355152" lon="9.287569320885503"><ele>153.0</ele><time>2026-04-11T17:22:40.003Z</time></trkpt><trkpt lat="45.56763222757118" lon="9.28785922607008"><ele>152.0</ele><time>2026-04-11T17:22:41.003Z</time></trkpt><trkpt lat="45.56771738707238" lon="9.288160088422972"><ele>151.0</ele><time>2026-04-11T17:22:42.003Z</time></trkpt><trkpt lat="45.56780466855646" lon="9.288457802347756"><ele>151.0</ele><time>2026-04-11T17:22:43.003Z</time></trkpt><trkpt lat="45.56789193654503" lon="9.288760430266297"><ele>151.0</ele><time>2026-04-11T17:22:44.003Z</time></trkpt><trkpt lat="45.567983294077024" lon="9.289069176651736"><ele>151.5</ele><time>2026-04-11T17:22:45.003Z</time></trkpt><trkpt lat="45.56807229887773" lon="9.289374220535938"><ele>152.0</ele><time>2026-04-11T17:22:46.003Z</time></trkpt><trkpt lat="45.56815747418458" lon="9.289674398299852"><ele>152.0</ele><time>2026-04-11T17:22:47.003Z</time></trkpt><trkpt lat="45.56824421507593" lon="9.289985217271024"><ele>152.0</ele><time>2026-04-11T17:22:48.003Z</time></trkpt><trkpt lat="45.56833623475765" lon="9.290297999214447"><ele>152.0</ele><time>2026-04-11T17:22:49.003Z</time></trkpt><trkpt lat="45.56842654299329" lon="9.290606198255535"><ele>152.0</ele><time>2026-04-11T17:22:50.003Z</time></trkpt><trkpt lat="45.568513051463" lon="9.290913847660265"><ele>152.0</ele><time>2026-04-11T17:22:51.003Z</time></trkpt><trkpt lat="45.56859949383959" lon="9.291220014731845"><ele>152.0</ele><time>2026-04-11T17:22:52.003Z</time></trkpt><trkpt lat="45.56868625100744" lon="9.29152520951212"><ele>153.0</ele><time>2026-04-11T17:22:53.003Z</time></trkpt><trkpt lat="45.56877631125508" lon="9.291835785875934"><ele>154.0</ele><time>2026-04-11T17:22:54.003Z</time></trkpt><trkpt lat="45.568867516053956" lon="9.292142283789232"><ele>154.0</ele><time>2026-04-11T17:22:55.003Z</time></trkpt><trkpt lat="45.56895444721175" lon="9.292447428262937"><ele>154.0</ele><time>2026-04-11T17:22:56.003Z</time></trkpt><trkpt lat="45.56904282463165" lon="9.292752202201923"><ele>154.0</ele><time>2026-04-11T17:22:57.003Z</time></trkpt><trkpt lat="45.569129652907" lon="9.29305680722556"><ele>154.0</ele><time>2026-04-11T17:22:58Z</time></trkpt><trkpt lat="45.56922007741237" lon="9.293362607440768"><ele>154.0</ele><time>2026-04-11T17:22:59Z</time></trkpt><trkpt lat="45.56930476857127" lon="9.293665738176774"><ele>154.0</ele><time>2026-04-11T17:23:00Z</time></trkpt><trkpt lat="45.56939025835534" lon="9.293968186614697"><ele>153.5</ele><time>2026-04-11T17:23:01Z</time></trkpt><trkpt lat="45.56947781849176" lon="9.294270807113557"><ele>153.0</ele><time>2026-04-11T17:23:02Z</time></trkpt><trkpt lat="45.56956499119934" lon="9.294566909955403"><ele>153.0</ele><time>2026-04-11T17:23:03Z</time></trkpt><trkpt lat="45.56964803552061" lon="9.29486085646387"><ele>153.0</ele><time>2026-04-11T17:23:04Z</time></trkpt><trkpt lat="45.569730064454646" lon="9.295147161651611"><ele>153.0</ele><time>2026-04-11T17:23:05Z</time></trkpt><trkpt lat="45.569819168601896" lon="9.29544039144398"><ele>152.66666666666666</ele><time>2026-04-11T17:23:06Z</time></trkpt><trkpt lat="45.56990336329985" lon="9.295727421138372"><ele>152.33333333333331</ele><time>2026-04-11T17:23:07Z</time></trkpt><trkpt lat="45.56998083485676" lon="9.296006980260387"><ele>152.0</ele><time>2026-04-11T17:23:08Z</time></trkpt><trkpt lat="45.5700615683013" lon="9.296287178072783"><ele>152.0</ele><time>2026-04-11T17:23:09Z</time></trkpt><trkpt lat="45.57014234053636" lon="9.296566762405433"><ele>152.0</ele><time>2026-04-11T17:23:10Z</time></trkpt><trkpt lat="45.57022526297256" lon="9.296846635716623"><ele>152.0</ele><time>2026-04-11T17:23:11Z</time></trkpt><trkpt lat="45.57030229449861" lon="9.297117767703337"><ele>152.66666666666666</ele><time>2026-04-11T17:23:12Z</time></trkpt><trkpt lat="45.57037631539521" lon="9.29737156056746"><ele>153.33333333333334</ele><time>2026-04-11T17:23:13Z</time></trkpt><trkpt lat="45.57044459172458" lon="9.29761374499244"><ele>154.0</ele><time>2026-04-11T17:23:14Z</time></trkpt><trkpt lat="45.57051391182746" lon="9.297854969701847"><ele>153.0</ele><time>2026-04-11T17:23:15Z</time></trkpt><trkpt lat="45.57058173437519" lon="9.298094682720494"><ele>152.0</ele><time>2026-04-11T17:23:16Z</time></trkpt><trkpt lat="45.570648051301994" lon="9.298325767433601"><ele>151.0</ele><time>2026-04-11T17:23:17Z</time></trkpt><trkpt lat="45.570718269627406" lon="9.298556326487779"><ele>151.0</ele><time>2026-04-11T17:23:18Z</time></trkpt><trkpt lat="45.57077919850152" lon="9.2987718629953"><ele>151.0</ele><time>2026-04-11T17:23:19.001Z</time></trkpt><trkpt lat="45.570839610837" lon="9.298982729669754"><ele>151.0</ele><time>2026-04-11T17:23:20.001Z</time></trkpt><trkpt lat="45.57090032565127" lon="9.299187158534147"><ele>151.5</ele><time>2026-04-11T17:23:21.001Z</time></trkpt><trkpt lat="45.570952703545466" lon="9.299375826459347"><ele>152.0</ele><time>2026-04-11T17:23:22.001Z</time></trkpt><trkpt lat="45.570997196226884" lon="9.299538449386912"><ele>152.5</ele><time>2026-04-11T17:23:23.001Z</time></trkpt><trkpt lat="45.57104143312448" lon="9.299697747521575"><ele>153.0</ele><time>2026-04-11T17:23:24.001Z</time></trkpt><trkpt lat="45.57108359608984" lon="9.299845555931526"><ele>153.5</ele><time>2026-04-11T17:23:25.001Z</time></trkpt><trkpt lat="45.57111746599697" lon="9.299969674978042"><ele>154.0</ele><time>2026-04-11T17:23:26.001Z</time></trkpt><trkpt lat="45.571147624926766" lon="9.300073774454793"><ele>154.5</ele><time>2026-04-11T17:23:27.001Z</time></trkpt><trkpt lat="45.571175073134256" lon="9.300173061400972"><ele>155.0</ele><time>2026-04-11T17:23:28.001Z</time></trkpt><trkpt lat="45.571200124737416" lon="9.30025700022244"><ele>155.5</ele><time>2026-04-11T17:23:29.001Z</time></trkpt><trkpt lat="45.571232173644574" lon="9.3003757283474"><ele>156.0</ele><time>2026-04-11T17:23:31.001Z</time></trkpt><trkpt lat="45.57126259095886" lon="9.300478942729812"><ele>156.0</ele><time>2026-04-11T17:23:33.001Z</time></trkpt><trkpt lat="45.571289254851315" lon="9.300561560023283"><ele>156.0</ele><time>2026-04-11T17:23:34.001Z</time></trkpt><trkpt lat="45.57131202267762" lon="9.30065223967655"><ele>156.0</ele><time>2026-04-11T17:23:35.001Z</time></trkpt><trkpt lat="45.57134936327161" lon="9.30081268152769"><ele>156.0</ele><time>2026-04-11T17:23:37.001Z</time></trkpt><trkpt lat="45.57136969617036" lon="9.300934564486967"><ele>156.0</ele><time>2026-04-11T17:23:39.001Z</time></trkpt><trkpt lat="45.57137368611445" lon="9.301041085495683"><ele>156.0</ele><time>2026-04-11T17:23:41.001Z</time></trkpt><trkpt lat="45.57137522490785" lon="9.301143313243818"><ele>156.0</ele><time>2026-04-11T17:23:43.001Z</time></trkpt><trkpt lat="45.57138093608841" lon="9.301240462944884"><ele>156.0</ele><time>2026-04-11T17:23:45.001Z</time></trkpt><trkpt lat="45.57141975124664" lon="9.301361597429548"><ele>156.0</ele><time>2026-04-11T17:23:48.001Z</time></trkpt><trkpt lat="45.57148804197906" lon="9.301455957652529"><ele>156.0</ele><time>2026-04-11T17:23:50.001Z</time></trkpt><trkpt lat="45.57156704456469" lon="9.301551222752037"><ele>156.0</ele><time>2026-04-11T17:23:52.001Z</time></trkpt><trkpt lat="45.57163454782191" lon="9.301689237714095"><ele>156.0</ele><time>2026-04-11T17:23:54.001Z</time></trkpt><trkpt lat="45.571683877031695" lon="9.301844828491907"><ele>156.0</ele><time>2026-04-11T17:23:56.001Z</time></trkpt><trkpt lat="45.57171224467018" lon="9.301927276500852"><ele>156.0</ele><time>2026-04-11T17:23:57.001Z</time></trkpt><trkpt lat="45.57173744601721" lon="9.302015975999524"><ele>156.0</ele><time>2026-04-11T17:23:58.001Z</time></trkpt><trkpt lat="45.57176819410345" lon="9.302169284492948"><ele>156.0</ele><time>2026-04-11T17:24:00.001Z</time></trkpt><trkpt lat="45.5717860408131" lon="9.302300973584405"><ele>156.16666666666666</ele><time>2026-04-11T17:24:02.002Z</time></trkpt><trkpt lat="45.571762818446715" lon="9.302412006593954"><ele>156.33333333333334</ele><time>2026-04-11T17:24:04.002Z</time></trkpt><trkpt lat="45.57174174446079" lon="9.302509166689681"><ele>156.5</ele><time>2026-04-11T17:24:06.002Z</time></trkpt><trkpt lat="45.57174250785134" lon="9.302603029852323"><ele>156.66666666666669</ele><time>2026-04-11T17:24:15.002Z</time></trkpt><trkpt lat="45.57171262642901" lon="9.30272750343433"><ele>156.83333333333334</ele><time>2026-04-11T17:24:17.002Z</time></trkpt><trkpt lat="45.57177773142297" lon="9.302805699094767"><ele>157.0</ele><time>2026-04-11T17:24:18.002Z</time></trkpt><trkpt lat="45.5718257468623" lon="9.30287222438106"><ele>157.0</ele><time>2026-04-11T17:24:19.002Z</time></trkpt><trkpt lat="45.57189232163395" lon="9.302937048303455"><ele>157.0</ele><time>2026-04-11T17:24:20.002Z</time></trkpt><trkpt lat="45.57195072406115" lon="9.303005714466007"><ele>157.0</ele><time>2026-04-11T17:24:21.002Z</time></trkpt><trkpt lat="45.572007405159056" lon="9.30310914021937"><ele>157.0</ele><time>2026-04-11T17:24:22.002Z</time></trkpt><trkpt lat="45.57205727624308" lon="9.303239210184463"><ele>157.0</ele><time>2026-04-11T17:24:23.002Z</time></trkpt><trkpt lat="45.572105186027365" lon="9.303391827434249"><ele>157.0</ele><time>2026-04-11T17:24:24.002Z</time></trkpt><trkpt lat="45.57215470205652" lon="9.303553584232043"><ele>157.0</ele><time>2026-04-11T17:24:25.002Z</time></trkpt><trkpt lat="45.572205976554365" lon="9.303716141296901"><ele>157.0</ele><time>2026-04-11T17:24:26.002Z</time></trkpt><trkpt lat="45.57226588868929" lon="9.30389397226329"><ele>157.0</ele><time>2026-04-11T17:24:27.002Z</time></trkpt><trkpt lat="45.57233246124481" lon="9.304083013192104"><ele>156.0</ele><time>2026-04-11T17:24:28.002Z</time></trkpt><trkpt lat="45.5724066086543" lon="9.304283398899846"><ele>155.0</ele><time>2026-04-11T17:24:29.002Z</time></trkpt><trkpt lat="45.57248250290385" lon="9.304481057742374"><ele>154.0</ele><time>2026-04-11T17:24:30.002Z</time></trkpt><trkpt lat="45.57255974811424" lon="9.304670602228299"><ele>154.0</ele><time>2026-04-11T17:24:31.002Z</time></trkpt><trkpt lat="45.57264390557274" lon="9.304870080608582"><ele>154.0</ele><time>2026-04-11T17:24:32.002Z</time></trkpt><trkpt lat="45.5727332846816" lon="9.305074085905696"><ele>154.0</ele><time>2026-04-11T17:24:33.002Z</time></trkpt><trkpt lat="45.572835006992044" lon="9.305283417697789"><ele>154.66666666666669</ele><time>2026-04-11T17:24:34.002Z</time></trkpt><trkpt lat="45.57294347105607" lon="9.305497431183412"><ele>155.33333333333334</ele><time>2026-04-11T17:24:35.002Z</time></trkpt><trkpt lat="45.573052950000786" lon="9.305706374625212"><ele>156.0</ele><time>2026-04-11T17:24:36.002Z</time></trkpt><trkpt lat="45.57317230186187" lon="9.305915431548911"><ele>156.0</ele><time>2026-04-11T17:24:37.002Z</time></trkpt><trkpt lat="45.57329559402345" lon="9.306124400635788"><ele>156.0</ele><time>2026-04-11T17:24:38.002Z</time></trkpt><trkpt lat="45.57343044080945" lon="9.30633418090731"><ele>156.0</ele><time>2026-04-11T17:24:39.002Z</time></trkpt><trkpt lat="45.5735723791754" lon="9.306539255488184"><ele>156.33333333333334</ele><time>2026-04-11T17:24:40.003Z</time></trkpt><trkpt lat="45.57371946453118" lon="9.306743802517516"><ele>156.66666666666669</ele><time>2026-04-11T17:24:41.003Z</time></trkpt><trkpt lat="45.57387716345433" lon="9.306949690041392"><ele>157.0</ele><time>2026-04-11T17:24:42.003Z</time></trkpt><trkpt lat="45.57404089306736" lon="9.307149866009372"><ele>156.66666666666669</ele><time>2026-04-11T17:24:43.003Z</time></trkpt><trkpt lat="45.57420213802047" lon="9.307337020671497"><ele>156.33333333333334</ele><time>2026-04-11T17:24:44.003Z</time></trkpt><trkpt lat="45.57436426213267" lon="9.307520115942328"><ele>156.0</ele><time>2026-04-11T17:24:45.003Z</time></trkpt><trkpt lat="45.57452775185581" lon="9.307691623767505"><ele>155.66666666666666</ele><time>2026-04-11T17:24:46.003Z</time></trkpt><trkpt lat="45.57469954279219" lon="9.307867293147034"><ele>155.33333333333331</ele><time>2026-04-11T17:24:47.003Z</time></trkpt><trkpt lat="45.574875327320456" lon="9.308023228012853"><ele>155.0</ele><time>2026-04-11T17:24:48.003Z</time></trkpt><trkpt lat="45.57506302904341" lon="9.308169316145987"><ele>156.0</ele><time>2026-04-11T17:24:49.003Z</time></trkpt><trkpt lat="45.5752662975486" lon="9.308317207731536"><ele>157.0</ele><time>2026-04-11T17:24:50.003Z</time></trkpt><trkpt lat="45.57547948646408" lon="9.308458193781522"><ele>157.0</ele><time>2026-04-11T17:24:51.003Z</time></trkpt><trkpt lat="45.57570272041369" lon="9.308591985657793"><ele>157.0</ele><time>2026-04-11T17:24:52.003Z</time></trkpt><trkpt lat="45.57592378707183" lon="9.308710205852893"><ele>157.0</ele><time>2026-04-11T17:24:53.003Z</time></trkpt><trkpt lat="45.576141261683674" lon="9.308818266323069"><ele>157.0</ele><time>2026-04-11T17:24:54.003Z</time></trkpt><trkpt lat="45.5763592591363" lon="9.30891299416139"><ele>157.5</ele><time>2026-04-11T17:24:55.003Z</time></trkpt><trkpt lat="45.57657802586317" lon="9.308996634120305"><ele>158.0</ele><time>2026-04-11T17:24:56.003Z</time></trkpt><trkpt lat="45.576798144244094" lon="9.309073288322814"><ele>158.0</ele><time>2026-04-11T17:24:57.003Z</time></trkpt><trkpt lat="45.577022904209734" lon="9.3091478854247"><ele>158.0</ele><time>2026-04-11T17:24:58.003Z</time></trkpt><trkpt lat="45.57725281193763" lon="9.309210619073324"><ele>158.0</ele><time>2026-04-11T17:24:59.003Z</time></trkpt><trkpt lat="45.57748354629825" lon="9.309260219533"><ele>158.0</ele><time>2026-04-11T17:25:00.003Z</time></trkpt><trkpt lat="45.57771922098679" lon="9.309301581455482"><ele>158.5</ele><time>2026-04-11T17:25:01.003Z</time></trkpt><trkpt lat="45.57794722190551" lon="9.309346041187018"><ele>159.0</ele><time>2026-04-11T17:25:02.003Z</time></trkpt><trkpt lat="45.578177469661334" lon="9.309378698744501"><ele>159.0</ele><time>2026-04-11T17:25:03.003Z</time></trkpt><trkpt lat="45.57840362281399" lon="9.309411546985347"><ele>159.0</ele><time>2026-04-11T17:25:04.001Z</time></trkpt><trkpt lat="45.57862406670423" lon="9.30944992294126"><ele>159.0</ele><time>2026-04-11T17:25:05.001Z</time></trkpt><trkpt lat="45.57883572103117" lon="9.309488620583457"><ele>159.0</ele><time>2026-04-11T17:25:06.001Z</time></trkpt><trkpt lat="45.57903645135348" lon="9.309523203550128"><ele>159.0</ele><time>2026-04-11T17:25:07.001Z</time></trkpt><trkpt lat="45.579232356471586" lon="9.309560320648327"><ele>159.0</ele><time>2026-04-11T17:25:08.001Z</time></trkpt><trkpt lat="45.57941771359992" lon="9.309594133587671"><ele>158.0</ele><time>2026-04-11T17:25:09.001Z</time></trkpt><trkpt lat="45.579593038045005" lon="9.309625219193363"><ele>157.0</ele><time>2026-04-11T17:25:10.001Z</time></trkpt><trkpt lat="45.5797631447428" lon="9.309650862272791"><ele>156.0</ele><time>2026-04-11T17:25:11.001Z</time></trkpt><trkpt lat="45.5799248495189" lon="9.309680565688259"><ele>156.0</ele><time>2026-04-11T17:25:12.001Z</time></trkpt><trkpt lat="45.58008626136748" lon="9.309702874196843"><ele>156.0</ele><time>2026-04-11T17:25:13.001Z</time></trkpt><trkpt lat="45.580250838726826" lon="9.309727153655222"><ele>156.0</ele><time>2026-04-11T17:25:14.001Z</time></trkpt><trkpt lat="45.58040722701341" lon="9.309752635546033"><ele>156.8</ele><time>2026-04-11T17:25:15.001Z</time></trkpt><trkpt lat="45.58055223668763" lon="9.309776240864716"><ele>157.6</ele><time>2026-04-11T17:25:16.001Z</time></trkpt><trkpt lat="45.58066862545793" lon="9.309798763680337"><ele>158.4</ele><time>2026-04-11T17:25:17.001Z</time></trkpt><trkpt lat="45.58074793630314" lon="9.309821619249494"><ele>159.2</ele><time>2026-04-11T17:25:18.001Z</time></trkpt><trkpt lat="45.580842087059324" lon="9.309878295161813"><ele>160.0</ele><time>2026-04-11T17:25:20.001Z</time></trkpt><trkpt lat="45.58096533898985" lon="9.30997625927579"><ele>160.0</ele><time>2026-04-11T17:25:22.001Z</time></trkpt><trkpt lat="45.58103291705186" lon="9.30999721277092"><ele>160.0</ele><time>2026-04-11T17:25:23.001Z</time></trkpt><trkpt lat="45.58111272736476" lon="9.309998122451082"><ele>160.0</ele><time>2026-04-11T17:25:24.001Z</time></trkpt><trkpt lat="45.58119459014977" lon="9.309983494831702"><ele>160.0</ele><time>2026-04-11T17:25:25.001Z</time></trkpt><trkpt lat="45.581285206383946" lon="9.30996459565911"><ele>160.0</ele><time>2026-04-11T17:25:26.001Z</time></trkpt><trkpt lat="45.58137189854059" lon="9.30994879035088"><ele>160.0</ele><time>2026-04-11T17:25:27.001Z</time></trkpt><trkpt lat="45.58146398926325" lon="9.309943454998752"><ele>160.0</ele><time>2026-04-11T17:25:28.001Z</time></trkpt><trkpt lat="45.58156370396891" lon="9.309953252515788"><ele>160.0</ele><time>2026-04-11T17:25:29.001Z</time></trkpt><trkpt lat="45.58166693245171" lon="9.30997182785781"><ele>160.0</ele><time>2026-04-11T17:25:30.001Z</time></trkpt><trkpt lat="45.58176772810403" lon="9.309987711656571"><ele>160.0</ele><time>2026-04-11T17:25:31.001Z</time></trkpt><trkpt lat="45.581872983729426" lon="9.310001962288824"><ele>160.0</ele><time>2026-04-11T17:25:32.001Z</time></trkpt><trkpt lat="45.5819725361399" lon="9.310017332176121"><ele>159.8</ele><time>2026-04-11T17:25:33.001Z</time></trkpt><trkpt lat="45.582072850635264" lon="9.310031150696727"><ele>159.6</ele><time>2026-04-11T17:25:34.001Z</time></trkpt><trkpt lat="45.58218073670052" lon="9.310053405131468"><ele>159.4</ele><time>2026-04-11T17:25:35.001Z</time></trkpt><trkpt lat="45.582294837255205" lon="9.31006850055413"><ele>159.2</ele><time>2026-04-11T17:25:36.001Z</time></trkpt><trkpt lat="45.58241046749018" lon="9.310087094647502"><ele>159.0</ele><time>2026-04-11T17:25:37.001Z</time></trkpt><trkpt lat="45.5825304250741" lon="9.310110037256193"><ele>159.0</ele><time>2026-04-11T17:25:38.001Z</time></trkpt><trkpt lat="45.582664819766364" lon="9.310133714135981"><ele>159.0</ele><time>2026-04-11T17:25:39.001Z</time></trkpt><trkpt lat="45.582810799292915" lon="9.31015161422223"><ele>159.0</ele><time>2026-04-11T17:25:40.001Z</time></trkpt><trkpt lat="45.58294473230256" lon="9.310172779218123"><ele>159.0</ele><time>2026-04-11T17:25:41.001Z</time></trkpt><trkpt lat="45.58306611461904" lon="9.31019494976363"><ele>159.25</ele><time>2026-04-11T17:25:42.001Z</time></trkpt><trkpt lat="45.583180360846704" lon="9.310215972127729"><ele>159.5</ele><time>2026-04-11T17:25:43.001Z</time></trkpt><trkpt lat="45.58330443180765" lon="9.310238316522542"><ele>159.75</ele><time>2026-04-11T17:25:44.001Z</time></trkpt><trkpt lat="45.58343855037026" lon="9.310261017345084"><ele>160.0</ele><time>2026-04-11T17:25:45.001Z</time></trkpt><trkpt lat="45.58357507634145" lon="9.310287388080827"><ele>160.0</ele><time>2026-04-11T17:25:46.001Z</time></trkpt><trkpt lat="45.583712892252166" lon="9.310307481743841"><ele>160.0</ele><time>2026-04-11T17:25:47.001Z</time></trkpt><trkpt lat="45.58384041979285" lon="9.310329929562833"><ele>160.0</ele><time>2026-04-11T17:25:48.001Z</time></trkpt><trkpt lat="45.58396657325892" lon="9.310352198856815"><ele>160.0</ele><time>2026-04-11T17:25:49.001Z</time></trkpt><trkpt lat="45.584080364052" lon="9.31037622012023"><ele>160.0</ele><time>2026-04-11T17:25:50.001Z</time></trkpt><trkpt lat="45.58419251363846" lon="9.310386985309515"><ele>160.0</ele><time>2026-04-11T17:25:51.001Z</time></trkpt><trkpt lat="45.58430802383426" lon="9.310409157325555"><ele>160.0</ele><time>2026-04-11T17:25:52.001Z</time></trkpt><trkpt lat="45.58442352748806" lon="9.310431354853993"><ele>160.0</ele><time>2026-04-11T17:25:53.001Z</time></trkpt><trkpt lat="45.58454278316433" lon="9.310448227150067"><ele>160.8</ele><time>2026-04-11T17:25:54.001Z</time></trkpt><trkpt lat="45.58465837471091" lon="9.310464454467292"><ele>161.6</ele><time>2026-04-11T17:25:55.001Z</time></trkpt><trkpt lat="45.584766611692885" lon="9.31048554236457"><ele>162.39999999999998</ele><time>2026-04-11T17:25:56.001Z</time></trkpt><trkpt lat="45.584867141816964" lon="9.310502395179169"><ele>163.2</ele><time>2026-04-11T17:25:57.001Z</time></trkpt><trkpt lat="45.584963147834664" lon="9.310516415424201"><ele>164.0</ele><time>2026-04-11T17:25:58.001Z</time></trkpt><trkpt lat="45.58506681781401" lon="9.31053548260861"><ele>164.0</ele><time>2026-04-11T17:25:59.001Z</time></trkpt><trkpt lat="45.58516404526724" lon="9.310550170250332"><ele>164.0</ele><time>2026-04-11T17:26:00.001Z</time></trkpt><trkpt lat="45.58525028022044" lon="9.31056648086241"><ele>164.0</ele><time>2026-04-11T17:26:01.001Z</time></trkpt><trkpt lat="45.58533384858743" lon="9.310580119957464"><ele>164.0</ele><time>2026-04-11T17:26:02.001Z</time></trkpt><trkpt lat="45.58542401314461" lon="9.310592473905087"><ele>164.0</ele><time>2026-04-11T17:26:03.001Z</time></trkpt><trkpt lat="45.5855267975984" lon="9.31061352715633"><ele>163.5</ele><time>2026-04-11T17:26:04.001Z</time></trkpt><trkpt lat="45.58563843429159" lon="9.310634592110821"><ele>163.0</ele><time>2026-04-11T17:26:05.001Z</time></trkpt><trkpt lat="45.58576467688369" lon="9.310650106237706"><ele>162.5</ele><time>2026-04-11T17:26:06.001Z</time></trkpt><trkpt lat="45.58590414201456" lon="9.31066931499334"><ele>162.0</ele><time>2026-04-11T17:26:07.001Z</time></trkpt><trkpt lat="45.58605321595309" lon="9.310688887770747"><ele>162.33333333333334</ele><time>2026-04-11T17:26:08.001Z</time></trkpt><trkpt lat="45.586234849318885" lon="9.310721104213593"><ele>162.66666666666669</ele><time>2026-04-11T17:26:09.001Z</time></trkpt><trkpt lat="45.586414457854325" lon="9.310750287457502"><ele>163.0</ele><time>2026-04-11T17:26:10.001Z</time></trkpt><trkpt lat="45.586594810998754" lon="9.31077737832999"><ele>163.0</ele><time>2026-04-11T17:26:11.001Z</time></trkpt><trkpt lat="45.58675901983152" lon="9.310805282783035"><ele>163.0</ele><time>2026-04-11T17:26:12.002Z</time></trkpt><trkpt lat="45.58692604446979" lon="9.310836316639646"><ele>163.0</ele><time>2026-04-11T17:26:13.002Z</time></trkpt><trkpt lat="45.5870914700199" lon="9.310862112696109"><ele>163.66666666666669</ele><time>2026-04-11T17:26:14.002Z</time></trkpt><trkpt lat="45.58724410857728" lon="9.31088815816264"><ele>164.33333333333334</ele><time>2026-04-11T17:26:15.002Z</time></trkpt><trkpt lat="45.5874004720192" lon="9.31091501456503"><ele>165.0</ele><time>2026-04-11T17:26:16.002Z</time></trkpt><trkpt lat="45.587571348685785" lon="9.310946345156747"><ele>165.0</ele><time>2026-04-11T17:26:17.002Z</time></trkpt><trkpt lat="45.58774506859129" lon="9.310975773036924"><ele>165.0</ele><time>2026-04-11T17:26:18.002Z</time></trkpt><trkpt lat="45.58790953286254" lon="9.311005788153079"><ele>165.0</ele><time>2026-04-11T17:26:19.002Z</time></trkpt><trkpt lat="45.58807921959291" lon="9.311037427098055"><ele>165.33333333333334</ele><time>2026-04-11T17:26:20.002Z</time></trkpt><trkpt lat="45.58825615837901" lon="9.311064574936514"><ele>165.66666666666669</ele><time>2026-04-11T17:26:21.002Z</time></trkpt><trkpt lat="45.58843580035683" lon="9.311093438279302"><ele>166.0</ele><time>2026-04-11T17:26:22.002Z</time></trkpt><trkpt lat="45.58861037625126" lon="9.311123756317032"><ele>165.66666666666669</ele><time>2026-04-11T17:26:23.002Z</time></trkpt><trkpt lat="45.58878510712969" lon="9.31115303101541"><ele>165.33333333333334</ele><time>2026-04-11T17:26:24.002Z</time></trkpt><trkpt lat="45.58895379825278" lon="9.311183343257792"><ele>165.0</ele><time>2026-04-11T17:26:25.002Z</time></trkpt><trkpt lat="45.58912262407358" lon="9.311211855782547"><ele>165.0</ele><time>2026-04-11T17:26:26.002Z</time></trkpt><trkpt lat="45.58928657219043" lon="9.31124126601075"><ele>165.0</ele><time>2026-04-11T17:26:27.002Z</time></trkpt><trkpt lat="45.589440829887664" lon="9.311268455147035"><ele>165.0</ele><time>2026-04-11T17:26:28.002Z</time></trkpt><trkpt lat="45.5895893968831" lon="9.31126926130353"><ele>164.75</ele><time>2026-04-11T17:26:29.002Z</time></trkpt><trkpt lat="45.589738795523225" lon="9.311294026892007"><ele>164.5</ele><time>2026-04-11T17:26:30.002Z</time></trkpt><trkpt lat="45.589890582596475" lon="9.311319186369749"><ele>164.25</ele><time>2026-04-11T17:26:31.002Z</time></trkpt><trkpt lat="45.59002631378404" lon="9.311365920170369"><ele>164.0</ele><time>2026-04-11T17:26:32.002Z</time></trkpt><trkpt lat="45.59016589760496" lon="9.311389101829482"><ele>164.25</ele><time>2026-04-11T17:26:33.002Z</time></trkpt><trkpt lat="45.59030072917863" lon="9.311416161751131"><ele>164.5</ele><time>2026-04-11T17:26:34.002Z</time></trkpt><trkpt lat="45.59043231001974" lon="9.311448427039979"><ele>164.75</ele><time>2026-04-11T17:26:35.002Z</time></trkpt><trkpt lat="45.59055425286394" lon="9.311473712448812"><ele>165.0</ele><time>2026-04-11T17:26:36.002Z</time></trkpt><trkpt lat="45.590677117780366" lon="9.31146040729793"><ele>165.0</ele><time>2026-04-11T17:26:37.002Z</time></trkpt><trkpt lat="45.59079952391743" lon="9.3114878156811"><ele>165.0</ele><time>2026-04-11T17:26:38.002Z</time></trkpt><trkpt lat="45.59091643284964" lon="9.311516553942932"><ele>165.0</ele><time>2026-04-11T17:26:39.002Z</time></trkpt><trkpt lat="45.591029824210494" lon="9.311564001020194"><ele>165.0</ele><time>2026-04-11T17:26:40.002Z</time></trkpt><trkpt lat="45.59113832249503" lon="9.311597804212997"><ele>165.4</ele><time>2026-04-11T17:26:41.002Z</time></trkpt><trkpt lat="45.591242016500885" lon="9.311622342212763"><ele>165.8</ele><time>2026-04-11T17:26:42.002Z</time></trkpt><trkpt lat="45.591342685943616" lon="9.31164406771716"><ele>166.2</ele><time>2026-04-11T17:26:43.002Z</time></trkpt><trkpt lat="45.59143098863511" lon="9.311674563266347"><ele>166.6</ele><time>2026-04-11T17:26:44.002Z</time></trkpt><trkpt lat="45.591497420122224" lon="9.31169273299223"><ele>167.0</ele><time>2026-04-11T17:26:45.002Z</time></trkpt><trkpt lat="45.59161554152741" lon="9.31173284299439"><ele>167.0</ele><time>2026-04-11T17:26:47.002Z</time></trkpt><trkpt lat="45.591674744285804" lon="9.31176404801155"><ele>167.0</ele><time>2026-04-11T17:26:48.002Z</time></trkpt><trkpt lat="45.59178513568468" lon="9.311837310718953"><ele>167.0</ele><time>2026-04-11T17:26:50.002Z</time></trkpt><trkpt lat="45.59185663073788" lon="9.311916363454317"><ele>167.0</ele><time>2026-04-11T17:26:51.002Z</time></trkpt><trkpt lat="45.59194934276323" lon="9.311999673417821"><ele>167.0</ele><time>2026-04-11T17:26:52.002Z</time></trkpt><trkpt lat="45.59199639655061" lon="9.312185988684494"><ele>167.25</ele><time>2026-04-11T17:26:53.002Z</time></trkpt><trkpt lat="45.592050944843045" lon="9.312348514303302"><ele>167.5</ele><time>2026-04-11T17:26:54.003Z</time></trkpt><trkpt lat="45.592109450845456" lon="9.31250428005908"><ele>167.75</ele><time>2026-04-11T17:26:55.003Z</time></trkpt><trkpt lat="45.592113197870205" lon="9.312691889032754"><ele>168.0</ele><time>2026-04-11T17:26:56.003Z</time></trkpt><trkpt lat="45.592135575044466" lon="9.312886311274173"><ele>167.0</ele><time>2026-04-11T17:26:57.003Z</time></trkpt><trkpt lat="45.59216059862047" lon="9.313092138882133"><ele>166.0</ele><time>2026-04-11T17:26:58.003Z</time></trkpt><trkpt lat="45.59218420276282" lon="9.313302333656582"><ele>165.0</ele><time>2026-04-11T17:26:59.003Z</time></trkpt><trkpt lat="45.59220338508166" lon="9.313526881870075"><ele>165.0</ele><time>2026-04-11T17:27:00.003Z</time></trkpt><trkpt lat="45.592211218308826" lon="9.313758522723042"><ele>165.0</ele><time>2026-04-11T17:27:01.003Z</time></trkpt><trkpt lat="45.592208865838124" lon="9.31399363541699"><ele>165.0</ele><time>2026-04-11T17:27:02.003Z</time></trkpt><trkpt lat="45.592198460303" lon="9.31422992493529"><ele>165.33333333333334</ele><time>2026-04-11T17:27:03.003Z</time></trkpt><trkpt lat="45.592177201871145" lon="9.314458666450339"><ele>165.66666666666669</ele><time>2026-04-11T17:27:04.003Z</time></trkpt><trkpt lat="45.59214795432446" lon="9.314681927049476"><ele>166.0</ele><time>2026-04-11T17:27:05.003Z</time></trkpt><trkpt lat="45.592117285254155" lon="9.314896219976598"><ele>167.0</ele><time>2026-04-11T17:27:06.003Z</time></trkpt><trkpt lat="45.59208542829833" lon="9.315124821995726"><ele>168.0</ele><time>2026-04-11T17:27:07.003Z</time></trkpt><trkpt lat="45.592055110905875" lon="9.31534546713729"><ele>169.0</ele><time>2026-04-11T17:27:08.003Z</time></trkpt><trkpt lat="45.592025775780044" lon="9.315564353036873"><ele>168.66666666666669</ele><time>2026-04-11T17:27:09.003Z</time></trkpt><trkpt lat="45.59200010034076" lon="9.315784148657666"><ele>168.33333333333334</ele><time>2026-04-11T17:27:10.001Z</time></trkpt><trkpt lat="45.591971132552096" lon="9.316010950982374"><ele>168.0</ele><time>2026-04-11T17:27:11.001Z</time></trkpt><trkpt lat="45.59194588698368" lon="9.316232213377102"><ele>167.33333333333334</ele><time>2026-04-11T17:27:12.001Z</time></trkpt><trkpt lat="45.59192516928356" lon="9.316442706823494"><ele>166.66666666666669</ele><time>2026-04-11T17:27:13.001Z</time></trkpt><trkpt lat="45.591904481372914" lon="9.316664564174408"><ele>166.0</ele><time>2026-04-11T17:27:14.001Z</time></trkpt><trkpt lat="45.591883042480596" lon="9.316872831775362"><ele>166.0</ele><time>2026-04-11T17:27:15.001Z</time></trkpt><trkpt lat="45.59186371547781" lon="9.317082092944482"><ele>166.0</ele><time>2026-04-11T17:27:16.001Z</time></trkpt><trkpt lat="45.591846447048106" lon="9.317294719701108"><ele>166.0</ele><time>2026-04-11T17:27:17.001Z</time></trkpt><trkpt lat="45.59182838886069" lon="9.317505123581977"><ele>166.0</ele><time>2026-04-11T17:27:18.001Z</time></trkpt><trkpt lat="45.59180970502464" lon="9.317713461031383"><ele>166.5</ele><time>2026-04-11T17:27:19.001Z</time></trkpt><trkpt lat="45.59178800022837" lon="9.317918385023583"><ele>167.0</ele><time>2026-04-11T17:27:20.001Z</time></trkpt><trkpt lat="45.591766275991816" lon="9.318127116854258"><ele>167.5</ele><time>2026-04-11T17:27:21.001Z</time></trkpt><trkpt lat="45.59174238085691" lon="9.318326956749326"><ele>168.0</ele><time>2026-04-11T17:27:22.001Z</time></trkpt><trkpt lat="45.591718910017384" lon="9.318529528309565"><ele>168.0</ele><time>2026-04-11T17:27:23.001Z</time></trkpt><trkpt lat="45.591692544340646" lon="9.318728318820261"><ele>168.0</ele><time>2026-04-11T17:27:24.001Z</time></trkpt><trkpt lat="45.591665301495546" lon="9.318924172106083"><ele>168.0</ele><time>2026-04-11T17:27:25.001Z</time></trkpt><trkpt lat="45.59163692195811" lon="9.319119343044461"><ele>168.0</ele><time>2026-04-11T17:27:26.001Z</time></trkpt><trkpt lat="45.591607699758214" lon="9.319314585722696"><ele>168.0</ele><time>2026-04-11T17:27:27.001Z</time></trkpt><trkpt lat="45.5915765296194" lon="9.319508253007223"><ele>168.0</ele><time>2026-04-11T17:27:28.001Z</time></trkpt><trkpt lat="45.59154929261617" lon="9.319696391125463"><ele>168.0</ele><time>2026-04-11T17:27:29.001Z</time></trkpt><trkpt lat="45.591520413440804" lon="9.319870616273892"><ele>168.0</ele><time>2026-04-11T17:27:30.001Z</time></trkpt><trkpt lat="45.59149740192476" lon="9.320033934077085"><ele>168.0</ele><time>2026-04-11T17:27:31.001Z</time></trkpt><trkpt lat="45.591474871971975" lon="9.320189061698636"><ele>168.0</ele><time>2026-04-11T17:27:32.001Z</time></trkpt><trkpt lat="45.59145101427104" lon="9.320339266205407"><ele>168.0</ele><time>2026-04-11T17:27:33.001Z</time></trkpt><trkpt lat="45.59142491218709" lon="9.320489174708424"><ele>168.0</ele><time>2026-04-11T17:27:34.001Z</time></trkpt><trkpt lat="45.59139727000331" lon="9.320632156662935"><ele>168.0</ele><time>2026-04-11T17:27:35.001Z</time></trkpt><trkpt lat="45.59136724597342" lon="9.320765466510375"><ele>167.5</ele><time>2026-04-11T17:27:36.001Z</time></trkpt><trkpt lat="45.59133415129023" lon="9.32087469138337"><ele>167.0</ele><time>2026-04-11T17:27:37.001Z</time></trkpt><trkpt lat="45.59128461244591" lon="9.320963542554484"><ele>166.5</ele><time>2026-04-11T17:27:38.001Z</time></trkpt><trkpt lat="45.59121989143492" lon="9.32104133253963"><ele>166.0</ele><time>2026-04-11T17:27:39.001Z</time></trkpt><trkpt lat="45.591141395909986" lon="9.321103539495665"><ele>165.5</ele><time>2026-04-11T17:27:40.001Z</time></trkpt><trkpt lat="45.5910725574719" lon="9.321178616181834"><ele>165.0</ele><time>2026-04-11T17:27:41.001Z</time></trkpt><trkpt lat="45.59103699495861" lon="9.32127464439962"><ele>165.4</ele><time>2026-04-11T17:27:42.001Z</time></trkpt><trkpt lat="45.59102739800335" lon="9.321385755921455"><ele>165.8</ele><time>2026-04-11T17:27:43.001Z</time></trkpt><trkpt lat="45.59105037511053" lon="9.321502000533432"><ele>166.2</ele><time>2026-04-11T17:27:44.001Z</time></trkpt><trkpt lat="45.591103843831135" lon="9.321612473887182"><ele>166.6</ele><time>2026-04-11T17:27:45.001Z</time></trkpt><trkpt lat="45.59115887745384" lon="9.321732460009441"><ele>167.0</ele><time>2026-04-11T17:27:46.001Z</time></trkpt><trkpt lat="45.591189933561346" lon="9.321867882308084"><ele>167.0</ele><time>2026-04-11T17:27:47.001Z</time></trkpt><trkpt lat="45.591188346157416" lon="9.322026557513142"><ele>167.0</ele><time>2026-04-11T17:27:48.001Z</time></trkpt><trkpt lat="45.59116454220488" lon="9.322208047726061"><ele>167.0</ele><time>2026-04-11T17:27:49.001Z</time></trkpt><trkpt lat="45.591125296267315" lon="9.322400206443687"><ele>167.0</ele><time>2026-04-11T17:27:50.001Z</time></trkpt><trkpt lat="45.5910853706438" lon="9.322605317673126"><ele>167.0</ele><time>2026-04-11T17:27:51.001Z</time></trkpt><trkpt lat="45.59104740190639" lon="9.322813816500574"><ele>167.0</ele><time>2026-04-11T17:27:52.001Z</time></trkpt><trkpt lat="45.59100748041131" lon="9.32302151179932"><ele>167.0</ele><time>2026-04-11T17:27:53.001Z</time></trkpt><trkpt lat="45.590968436205706" lon="9.323219252131688"><ele>167.0</ele><time>2026-04-11T17:27:54.001Z</time></trkpt><trkpt lat="45.59093126226189" lon="9.323410217218088"><ele>167.0</ele><time>2026-04-11T17:27:55.001Z</time></trkpt><trkpt lat="45.59089425437888" lon="9.323595393361396"><ele>167.0</ele><time>2026-04-11T17:27:56.001Z</time></trkpt><trkpt lat="45.59085958820998" lon="9.32377963230302"><ele>167.0</ele><time>2026-04-11T17:27:57.001Z</time></trkpt><trkpt lat="45.59082421167597" lon="9.323957946361945"><ele>167.0</ele><time>2026-04-11T17:27:58.001Z</time></trkpt><trkpt lat="45.59078862591732" lon="9.324129074029628"><ele>166.8</ele><time>2026-04-11T17:27:59.001Z</time></trkpt><trkpt lat="45.590753843007185" lon="9.324289626632307"><ele>166.6</ele><time>2026-04-11T17:28:00.001Z</time></trkpt><trkpt lat="45.59072254981409" lon="9.32444003840435"><ele>166.4</ele><time>2026-04-11T17:28:01.001Z</time></trkpt><trkpt lat="45.59069598174357" lon="9.324582858213642"><ele>166.20000000000002</ele><time>2026-04-11T17:28:02.001Z</time></trkpt><trkpt lat="45.59066692202975" lon="9.324735557236103"><ele>166.0</ele><time>2026-04-11T17:28:03.001Z</time></trkpt><trkpt lat="45.59063731843552" lon="9.324880886151865"><ele>165.8</ele><time>2026-04-11T17:28:04.001Z</time></trkpt><trkpt lat="45.590611558852906" lon="9.325011481803186"><ele>165.60000000000002</ele><time>2026-04-11T17:28:05.001Z</time></trkpt><trkpt lat="45.5905872268812" lon="9.325134194585688"><ele>165.4</ele><time>2026-04-11T17:28:06.001Z</time></trkpt><trkpt lat="45.59056207852653" lon="9.325256455119849"><ele>165.2</ele><time>2026-04-11T17:28:07.001Z</time></trkpt><trkpt lat="45.59053686633059" lon="9.32538185222628"><ele>165.0</ele><time>2026-04-11T17:28:08.001Z</time></trkpt><trkpt lat="45.59051194061366" lon="9.325510625787144"><ele>165.4</ele><time>2026-04-11T17:28:09.001Z</time></trkpt><trkpt lat="45.59048347040065" lon="9.325640998306362"><ele>165.8</ele><time>2026-04-11T17:28:10.001Z</time></trkpt><trkpt lat="45.59045617079372" lon="9.325776513408831"><ele>166.2</ele><time>2026-04-11T17:28:11.001Z</time></trkpt><trkpt lat="45.59043018706644" lon="9.32590543853922"><ele>166.6</ele><time>2026-04-11T17:28:12.001Z</time></trkpt><trkpt lat="45.59040425287991" lon="9.32603305585457"><ele>167.0</ele><time>2026-04-11T17:28:13.001Z</time></trkpt><trkpt lat="45.59037964884399" lon="9.326160612043811"><ele>167.0</ele><time>2026-04-11T17:28:14.001Z</time></trkpt><trkpt lat="45.59035411084531" lon="9.326285910501241"><ele>167.0</ele><time>2026-04-11T17:28:15.002Z</time></trkpt><trkpt lat="45.590329594737824" lon="9.32640332780112"><ele>167.0</ele><time>2026-04-11T17:28:16.002Z</time></trkpt><trkpt lat="45.59030651801842" lon="9.326516028579963"><ele>167.0</ele><time>2026-04-11T17:28:17.002Z</time></trkpt><trkpt lat="45.590287899586876" lon="9.326616292688204"><ele>167.0</ele><time>2026-04-11T17:28:18.002Z</time></trkpt><trkpt lat="45.59025313482077" lon="9.326779563994654"><ele>167.33333333333331</ele><time>2026-04-11T17:28:20.002Z</time></trkpt><trkpt lat="45.590211256726796" lon="9.326921356774344"><ele>167.66666666666666</ele><time>2026-04-11T17:28:22.002Z</time></trkpt><trkpt lat="45.59014847233974" lon="9.327038360773829"><ele>168.0</ele><time>2026-04-11T17:28:24.002Z</time></trkpt><trkpt lat="45.590116431464246" lon="9.327116123157555"><ele>168.33333333333334</ele><time>2026-04-11T17:28:25.002Z</time></trkpt><trkpt lat="45.59010603311021" lon="9.327215830681933"><ele>168.66666666666669</ele><time>2026-04-11T17:28:26.002Z</time></trkpt><trkpt lat="45.59010601311232" lon="9.327331360517935"><ele>169.0</ele><time>2026-04-11T17:28:27.002Z</time></trkpt><trkpt lat="45.590106438298385" lon="9.327448360853685"><ele>169.39999999999998</ele><time>2026-04-11T17:28:28.002Z</time></trkpt><trkpt lat="45.59012399618593" lon="9.327562922584839"><ele>169.8</ele><time>2026-04-11T17:28:29.002Z</time></trkpt><trkpt lat="45.590087009756864" lon="9.327660337235681"><ele>170.2</ele><time>2026-04-11T17:28:30.002Z</time></trkpt><trkpt lat="45.59006910263731" lon="9.327748048473829"><ele>170.60000000000002</ele><time>2026-04-11T17:28:31.002Z</time></trkpt><trkpt lat="45.59003581831152" lon="9.327905298583534"><ele>171.0</ele><time>2026-04-11T17:28:33.002Z</time></trkpt><trkpt lat="45.59000790284524" lon="9.328059327785127"><ele>171.0</ele><time>2026-04-11T17:28:35.002Z</time></trkpt><trkpt lat="45.58999058430896" lon="9.32815309822244"><ele>171.0</ele><time>2026-04-11T17:28:37.002Z</time></trkpt><trkpt lat="45.58996422065553" lon="9.32829026971212"><ele>171.0</ele><time>2026-04-11T17:28:40.002Z</time></trkpt><trkpt lat="45.58993546924136" lon="9.328434244793943"><ele>171.0</ele><time>2026-04-11T17:28:42.002Z</time></trkpt><trkpt lat="45.58991349146367" lon="9.328520921138715"><ele>171.0</ele><time>2026-04-11T17:28:43.002Z</time></trkpt><trkpt lat="45.58988876785357" lon="9.328628294440758"><ele>171.0</ele><time>2026-04-11T17:28:44.002Z</time></trkpt><trkpt lat="45.58986994917978" lon="9.328735094315356"><ele>171.0</ele><time>2026-04-11T17:28:45.002Z</time></trkpt><trkpt lat="45.58984649348129" lon="9.328871966497273"><ele>171.0</ele><time>2026-04-11T17:28:46.002Z</time></trkpt><trkpt lat="45.58981911885216" lon="9.329022525450261"><ele>171.0</ele><time>2026-04-11T17:28:47.002Z</time></trkpt><trkpt lat="45.58978913259513" lon="9.329174223148877"><ele>171.0</ele><time>2026-04-11T17:28:48.002Z</time></trkpt><trkpt lat="45.58976339665645" lon="9.329301398227171"><ele>171.0</ele><time>2026-04-11T17:28:49.002Z</time></trkpt><trkpt lat="45.58973614232349" lon="9.329432492085207"><ele>171.0</ele><time>2026-04-11T17:28:50.002Z</time></trkpt><trkpt lat="45.5897080878888" lon="9.329568807829604"><ele>171.0</ele><time>2026-04-11T17:28:51.002Z</time></trkpt><trkpt lat="45.589680764037475" lon="9.329698043615837"><ele>171.0</ele><time>2026-04-11T17:28:52.002Z</time></trkpt><trkpt lat="45.58965634030403" lon="9.329818351520284"><ele>171.0</ele><time>2026-04-11T17:28:53.002Z</time></trkpt><trkpt lat="45.589632999606444" lon="9.329921889870704"><ele>171.0</ele><time>2026-04-11T17:28:54.002Z</time></trkpt><trkpt lat="45.58961355407718" lon="9.330013874910732"><ele>171.0</ele><time>2026-04-11T17:28:55.002Z</time></trkpt><trkpt lat="45.58959277645175" lon="9.330124513440076"><ele>171.0</ele><time>2026-04-11T17:28:56.002Z</time></trkpt><trkpt lat="45.58957237254462" lon="9.330255280548359"><ele>171.0</ele><time>2026-04-11T17:28:57.002Z</time></trkpt><trkpt lat="45.58955205596791" lon="9.330401776989692"><ele>171.0</ele><time>2026-04-11T17:28:58.002Z</time></trkpt><trkpt lat="45.58953563522682" lon="9.330543099848354"><ele>171.0</ele><time>2026-04-11T17:28:59.002Z</time></trkpt><trkpt lat="45.589519694965176" lon="9.330663694402912"><ele>171.0</ele><time>2026-04-11T17:29:00.002Z</time></trkpt><trkpt lat="45.589498399220155" lon="9.33077829313734"><ele>171.20000000000002</ele><time>2026-04-11T17:29:02.003Z</time></trkpt><trkpt lat="45.589463116457516" lon="9.330877794933535"><ele>171.4</ele><time>2026-04-11T17:29:05.003Z</time></trkpt><trkpt lat="45.589332599558695" lon="9.330939521118516"><ele>171.6</ele><time>2026-04-11T17:29:07.003Z</time></trkpt><trkpt lat="45.58925568780966" lon="9.330941266373081"><ele>171.8</ele><time>2026-04-11T17:29:08.003Z</time></trkpt><trkpt lat="45.58917126716267" lon="9.330932135535058"><ele>172.0</ele><time>2026-04-11T17:29:09.003Z</time></trkpt><trkpt lat="45.58907338151131" lon="9.33091006008261"><ele>172.0</ele><time>2026-04-11T17:29:10.003Z</time></trkpt><trkpt lat="45.58896617349538" lon="9.330882414476935"><ele>172.0</ele><time>2026-04-11T17:29:11.003Z</time></trkpt><trkpt lat="45.58885495041548" lon="9.330856114097283"><ele>172.0</ele><time>2026-04-11T17:29:12.003Z</time></trkpt><trkpt lat="45.58874658486978" lon="9.330828484757214"><ele>172.0</ele><time>2026-04-11T17:29:13.003Z</time></trkpt><trkpt lat="45.58863639862446" lon="9.33080034634102"><ele>172.0</ele><time>2026-04-11T17:29:14.003Z</time></trkpt><trkpt lat="45.5885174515535" lon="9.33077183360239"><ele>171.5</ele><time>2026-04-11T17:29:15.003Z</time></trkpt><trkpt lat="45.588394997020444" lon="9.330739309456051"><ele>171.0</ele><time>2026-04-11T17:29:16.001Z</time></trkpt><trkpt lat="45.588265134323876" lon="9.330710816577094"><ele>170.5</ele><time>2026-04-11T17:29:17.001Z</time></trkpt><trkpt lat="45.58813074466176" lon="9.330683443403013"><ele>170.0</ele><time>2026-04-11T17:29:18.001Z</time></trkpt><trkpt lat="45.587996865281596" lon="9.330657818783202"><ele>170.0</ele><time>2026-04-11T17:29:19.001Z</time></trkpt><trkpt lat="45.58787185469009" lon="9.330630476190574"><ele>170.0</ele><time>2026-04-11T17:29:20.001Z</time></trkpt><trkpt lat="45.587760391763524" lon="9.330600049225081"><ele>170.0</ele><time>2026-04-11T17:29:21.001Z</time></trkpt><trkpt lat="45.587651394936856" lon="9.33057709358298"><ele>170.0</ele><time>2026-04-11T17:29:22.001Z</time></trkpt><trkpt lat="45.58753766572264" lon="9.330553074000852"><ele>169.4</ele><time>2026-04-11T17:29:23.001Z</time></trkpt><trkpt lat="45.58743229250917" lon="9.33052309902504"><ele>168.8</ele><time>2026-04-11T17:29:24.001Z</time></trkpt><trkpt lat="45.58733773291048" lon="9.330492082582454"><ele>168.2</ele><time>2026-04-11T17:29:25.001Z</time></trkpt><trkpt lat="45.58725440428549" lon="9.330453722739128"><ele>167.6</ele><time>2026-04-11T17:29:26.001Z</time></trkpt><trkpt lat="45.587173905195954" lon="9.330415459397088"><ele>167.0</ele><time>2026-04-11T17:29:27.001Z</time></trkpt><trkpt lat="45.58709974513161" lon="9.330362368595585"><ele>167.0</ele><time>2026-04-11T17:29:28.001Z</time></trkpt><trkpt lat="45.587035816456996" lon="9.330326650218762"><ele>167.0</ele><time>2026-04-11T17:29:29.001Z</time></trkpt><trkpt lat="45.58697233691751" lon="9.330339673400632"><ele>167.0</ele><time>2026-04-11T17:29:30.001Z</time></trkpt><trkpt lat="45.58696451593231" lon="9.330516508087884"><ele>167.0</ele><time>2026-04-11T17:29:32.001Z</time></trkpt><trkpt lat="45.58690084224036" lon="9.330653489885302"><ele>167.0</ele><time>2026-04-11T17:29:34.001Z</time></trkpt><trkpt lat="45.58689266797059" lon="9.330757189447178"><ele>167.0</ele><time>2026-04-11T17:29:35.001Z</time></trkpt><trkpt lat="45.586856844330406" lon="9.330856746015195"><ele>167.33333333333331</ele><time>2026-04-11T17:29:36.001Z</time></trkpt><trkpt lat="45.58681054773777" lon="9.330958297483978"><ele>167.66666666666666</ele><time>2026-04-11T17:29:37.001Z</time></trkpt><trkpt lat="45.586759903488115" lon="9.331050776848347"><ele>168.0</ele><time>2026-04-11T17:29:38.001Z</time></trkpt><trkpt lat="45.58670052270819" lon="9.331125974801092"><ele>168.33333333333334</ele><time>2026-04-11T17:29:39.001Z</time></trkpt><trkpt lat="45.58663763107325" lon="9.331189495818506"><ele>168.66666666666669</ele><time>2026-04-11T17:29:40.001Z</time></trkpt><trkpt lat="45.58657739299233" lon="9.331244684013251"><ele>169.0</ele><time>2026-04-11T17:29:41.001Z</time></trkpt><trkpt lat="45.58652786714262" lon="9.33130827225811"><ele>169.83333333333334</ele><time>2026-04-11T17:29:42.001Z</time></trkpt><trkpt lat="45.58649916117808" lon="9.331405020913076"><ele>170.66666666666669</ele><time>2026-04-11T17:29:43.001Z</time></trkpt><trkpt lat="45.58650992409898" lon="9.331508321194057"><ele>171.5</ele><time>2026-04-11T17:29:44.001Z</time></trkpt><trkpt lat="45.58654496173462" lon="9.33161794057785"><ele>172.33333333333334</ele><time>2026-04-11T17:29:45.001Z</time></trkpt><trkpt lat="45.58659644511969" lon="9.33173658368092"><ele>173.16666666666666</ele><time>2026-04-11T17:29:46.001Z</time></trkpt><trkpt lat="45.58663908460883" lon="9.331870294559334"><ele>174.0</ele><time>2026-04-11T17:29:47.001Z</time></trkpt><trkpt lat="45.586677614126984" lon="9.33201723680883"><ele>174.0</ele><time>2026-04-11T17:29:48.001Z</time></trkpt><trkpt lat="45.58670080404302" lon="9.332163763678437"><ele>174.0</ele><time>2026-04-11T17:29:49.001Z</time></trkpt><trkpt lat="45.58671703214044" lon="9.332304814959993"><ele>174.0</ele><time>2026-04-11T17:29:50.001Z</time></trkpt><trkpt lat="45.586724047115304" lon="9.332445823371497"><ele>174.0</ele><time>2026-04-11T17:29:51.001Z</time></trkpt><trkpt lat="45.586728417532974" lon="9.332573711318359"><ele>174.0</ele><time>2026-04-11T17:29:52.001Z</time></trkpt><trkpt lat="45.58672902142116" lon="9.332680154293424"><ele>174.33333333333334</ele><time>2026-04-11T17:29:53.001Z</time></trkpt><trkpt lat="45.586737398228976" lon="9.332785127740514"><ele>174.66666666666666</ele><time>2026-04-11T17:29:54.001Z</time></trkpt><trkpt lat="45.58674741545072" lon="9.33287939412942"><ele>175.0</ele><time>2026-04-11T17:29:55.001Z</time></trkpt><trkpt lat="45.5867344312528" lon="9.333010397349897"><ele>175.33333333333331</ele><time>2026-04-11T17:29:57.001Z</time></trkpt><trkpt lat="45.58659290340426" lon="9.333010921258541"><ele>175.66666666666666</ele><time>2026-04-11T17:30:01.001Z</time></trkpt><trkpt lat="45.58653458284309" lon="9.332968384597736"><ele>176.0</ele><time>2026-04-11T17:30:02.001Z</time></trkpt><trkpt lat="45.58647606206315" lon="9.332929403132871"><ele>176.0</ele><time>2026-04-11T17:30:03.001Z</time></trkpt><trkpt lat="45.58637408024987" lon="9.332890542506233"><ele>176.0</ele><time>2026-04-11T17:30:05.001Z</time></trkpt><trkpt lat="45.58624971005347" lon="9.332804204897235"><ele>176.0</ele><time>2026-04-11T17:30:07.001Z</time></trkpt><trkpt lat="45.58619484253625" lon="9.332742588287973"><ele>176.0</ele><time>2026-04-11T17:30:08.001Z</time></trkpt><trkpt lat="45.586110920616754" lon="9.332693372341666"><ele>176.0</ele><time>2026-04-11T17:30:10.001Z</time></trkpt><trkpt lat="45.58604952054757" lon="9.332640236152715"><ele>175.5</ele><time>2026-04-11T17:30:13.001Z</time></trkpt><trkpt lat="45.585980848099034" lon="9.332590850252048"><ele>175.0</ele><time>2026-04-11T17:30:15.001Z</time></trkpt><trkpt lat="45.58592107457906" lon="9.332541201140545"><ele>174.5</ele><time>2026-04-11T17:30:16.001Z</time></trkpt><trkpt lat="45.585809154534395" lon="9.332466261623152"><ele>174.0</ele><time>2026-04-11T17:30:18.001Z</time></trkpt><trkpt lat="45.585732310133636" lon="9.332422190370286"><ele>173.5</ele><time>2026-04-11T17:30:19.001Z</time></trkpt><trkpt lat="45.58564242995457" lon="9.332401243698046"><ele>173.0</ele><time>2026-04-11T17:30:20.001Z</time></trkpt><trkpt lat="45.585545837716474" lon="9.332376712700277"><ele>173.0</ele><time>2026-04-11T17:30:21.001Z</time></trkpt><trkpt lat="45.5854514963907" lon="9.332351704921228"><ele>173.0</ele><time>2026-04-11T17:30:22.001Z</time></trkpt><trkpt lat="45.58536368482432" lon="9.332325854416402"><ele>173.0</ele><time>2026-04-11T17:30:23.001Z</time></trkpt><trkpt lat="45.58526590275975" lon="9.332300453980476"><ele>173.0</ele><time>2026-04-11T17:30:24.001Z</time></trkpt><trkpt lat="45.58516513816581" lon="9.332270232622282"><ele>173.0</ele><time>2026-04-11T17:30:25.001Z</time></trkpt><trkpt lat="45.58506593094893" lon="9.332240962660164"><ele>172.16666666666666</ele><time>2026-04-11T17:30:26.001Z</time></trkpt><trkpt lat="45.58496762647186" lon="9.332213847403029"><ele>171.33333333333331</ele><time>2026-04-11T17:30:27.001Z</time></trkpt><trkpt lat="45.58487827457425" lon="9.332188858281311"><ele>170.5</ele><time>2026-04-11T17:30:28.001Z</time></trkpt><trkpt lat="45.58479420686442" lon="9.332165230859857"><ele>169.66666666666666</ele><time>2026-04-11T17:30:29.001Z</time></trkpt><trkpt lat="45.58470838379899" lon="9.332139790925902"><ele>168.83333333333334</ele><time>2026-04-11T17:30:30.002Z</time></trkpt><trkpt lat="45.58463671429605" lon="9.332117352117962"><ele>168.0</ele><time>2026-04-11T17:30:31.002Z</time></trkpt><trkpt lat="45.58457044436636" lon="9.332098072196535"><ele>167.8</ele><time>2026-04-11T17:30:32.002Z</time></trkpt><trkpt lat="45.58447481507909" lon="9.332074862152309"><ele>167.60000000000002</ele><time>2026-04-11T17:30:34.002Z</time></trkpt><trkpt lat="45.5844032093522" lon="9.332078702455853"><ele>167.39999999999998</ele><time>2026-04-11T17:30:38.002Z</time></trkpt><trkpt lat="45.58434064365732" lon="9.33204992895181"><ele>167.2</ele><time>2026-04-11T17:30:41.002Z</time></trkpt><trkpt lat="45.584290220204025" lon="9.33227500411818"><ele>167.0</ele><time>2026-04-11T17:30:43.002Z</time></trkpt><trkpt lat="45.58428193256904" lon="9.332391204863443"><ele>167.5</ele><time>2026-04-11T17:30:44.002Z</time></trkpt><trkpt lat="45.58426224583325" lon="9.332535168638197"><ele>168.0</ele><time>2026-04-11T17:30:45.002Z</time></trkpt><trkpt lat="45.58423936714783" lon="9.332679199893004"><ele>168.5</ele><time>2026-04-11T17:30:46.002Z</time></trkpt><trkpt lat="45.58421310959455" lon="9.332850674798948"><ele>169.0</ele><time>2026-04-11T17:30:47.002Z</time></trkpt><trkpt lat="45.58418570551573" lon="9.33303726442863"><ele>169.25</ele><time>2026-04-11T17:30:48.002Z</time></trkpt><trkpt lat="45.58416133830375" lon="9.333220294120657"><ele>169.5</ele><time>2026-04-11T17:30:49.002Z</time></trkpt><trkpt lat="45.584142187907844" lon="9.333414416941086"><ele>169.75</ele><time>2026-04-11T17:30:50.002Z</time></trkpt><trkpt lat="45.5841202629276" lon="9.33359734987874"><ele>170.0</ele><time>2026-04-11T17:30:51.002Z</time></trkpt><trkpt lat="45.584098840290835" lon="9.333806189043568"><ele>170.0</ele><time>2026-04-11T17:30:52.002Z</time></trkpt><trkpt lat="45.5840854654974" lon="9.334012775901373"><ele>170.0</ele><time>2026-04-11T17:30:53.002Z</time></trkpt><trkpt lat="45.584064365881815" lon="9.334234657909665"><ele>170.0</ele><time>2026-04-11T17:30:54.002Z</time></trkpt><trkpt lat="45.58404172203465" lon="9.334428083292716"><ele>170.0</ele><time>2026-04-11T17:30:55.002Z</time></trkpt><trkpt lat="45.584021565866124" lon="9.334606499437744"><ele>170.25</ele><time>2026-04-11T17:30:56.002Z</time></trkpt><trkpt lat="45.58400199406059" lon="9.334782080222475"><ele>170.5</ele><time>2026-04-11T17:30:57.002Z</time></trkpt><trkpt lat="45.58399175753785" lon="9.334943400091976"><ele>170.75</ele><time>2026-04-11T17:30:58.002Z</time></trkpt><trkpt lat="45.583977044369654" lon="9.33510393100055"><ele>171.0</ele><time>2026-04-11T17:30:59.002Z</time></trkpt><trkpt lat="45.583958544673294" lon="9.335262708637966"><ele>171.0</ele><time>2026-04-11T17:31:00.002Z</time></trkpt><trkpt lat="45.58394680498332" lon="9.335381069940503"><ele>171.0</ele><time>2026-04-11T17:31:01.002Z</time></trkpt><trkpt lat="45.5839354451621" lon="9.335520753823698"><ele>171.0</ele><time>2026-04-11T17:31:03.002Z</time></trkpt><trkpt lat="45.5840745465903" lon="9.335569002850345"><ele>171.0</ele><time>2026-04-11T17:31:05.002Z</time></trkpt><trkpt lat="45.584161503696514" lon="9.335574349243803"><ele>171.0</ele><time>2026-04-11T17:31:07.002Z</time></trkpt><trkpt lat="45.58423824796887" lon="9.335615915918671"><ele>170.8</ele><time>2026-04-11T17:31:09.002Z</time></trkpt><trkpt lat="45.58430185361509" lon="9.335620604692586"><ele>170.60000000000002</ele><time>2026-04-11T17:31:29Z</time></trkpt><trkpt lat="45.58429520803754" lon="9.335946051491778"><ele>170.4</ele><time>2026-04-11T17:31:39Z</time></trkpt><trkpt lat="45.58428219992631" lon="9.336056122302264"><ele>170.2</ele><time>2026-04-11T17:31:50Z</time></trkpt><trkpt lat="45.58424848642676" lon="9.336135540269073"><ele>170.0</ele><time>2026-04-11T17:31:54Z</time></trkpt><trkpt lat="45.5844490696172" lon="9.336331458770983"><ele>170.0</ele><time>2026-04-11T17:32:56.002Z</time></trkpt><trkpt lat="45.584247778212536" lon="9.336341852330914"><ele>170.0</ele><time>2026-04-11T17:34:38.001Z</time></trkpt><trkpt lat="45.58419681624098" lon="9.336039265626424"><ele>170.0</ele><time>2026-04-11T17:34:58.002Z</time></trkpt><trkpt lat="45.58424157719071" lon="9.33596229322969"><ele>170.0</ele><time>2026-04-11T17:35:03.002Z</time></trkpt><trkpt lat="45.584268942766336" lon="9.335861470740804"><ele>170.0</ele><time>2026-04-11T17:35:04.002Z</time></trkpt><trkpt lat="45.58427912039866" lon="9.335730160546213"><ele>170.0</ele><time>2026-04-11T17:35:06.002Z</time></trkpt><trkpt lat="45.584517608645996" lon="9.335918010610554"><ele>170.0</ele><time>2026-04-11T17:35:09.002Z</time></trkpt><trkpt lat="45.584356888743095" lon="9.33596200118715"><ele>170.0</ele><time>2026-04-11T17:35:50.002Z</time></trkpt><trkpt lat="45.58449098149" lon="9.335941872727078"><ele>170.0</ele><time>2026-04-11T17:36:58.002Z</time></trkpt><trkpt lat="45.58447941263907" lon="9.335833171056377"><ele>170.0</ele><time>2026-04-11T17:37:28.002Z</time></trkpt><trkpt lat="45.58443229958774" lon="9.335992710505977"><ele>170.0</ele><time>2026-04-11T17:37:33.002Z</time></trkpt><trkpt lat="45.58437841211337" lon="9.335944758690397"><ele>170.0</ele><time>2026-04-11T17:37:41.003Z</time></trkpt><trkpt lat="45.584308406759504" lon="9.335999787710477"><ele>170.0</ele><time>2026-04-11T17:38:03.002Z</time></trkpt><trkpt lat="45.58420085419433" lon="9.335963364334217"><ele>170.0</ele><time>2026-04-11T17:38:13.002Z</time></trkpt><trkpt lat="45.58428511746188" lon="9.335897055117641"><ele>170.0</ele><time>2026-04-11T17:39:50.003Z</time></trkpt><trkpt lat="45.584423549032394" lon="9.335956433694088"><ele>170.0</ele><time>2026-04-11T17:39:52.002Z</time></trkpt><trkpt lat="45.5842952700826" lon="9.335897110079456"><ele>170.0</ele><time>2026-04-11T17:40:15.001Z</time></trkpt><trkpt lat="45.58415334787282" lon="9.335900057314674"><ele>170.0</ele><time>2026-04-11T17:40:17.001Z</time></trkpt><trkpt lat="45.58404629702754" lon="9.33578438459491"><ele>170.0</ele><time>2026-04-11T17:40:18.001Z</time></trkpt><trkpt lat="45.58412035999983" lon="9.335807034891353"><ele>170.0</ele><time>2026-04-11T17:40:32.001Z</time></trkpt><trkpt lat="45.58419912126462" lon="9.335974222057812"><ele>170.0</ele><time>2026-04-11T17:42:18.001Z</time></trkpt><trkpt lat="45.58410622507215" lon="9.3357350513271"><ele>170.0</ele><time>2026-04-11T17:42:23.001Z</time></trkpt></trkseg></trk></gpx>